<?xml version="1.0" encoding="UTF-8" standalone="no" ?>
<gpx xmlns="http://www.topografix.com/GPX/1/1" xmlns:xsi="http://www.w3.org/2001/XMLSchema-instance" xsi:schemaLocation="http://www.topografix.com/GPX/1/1 http://www.topografix.com/GPX/1/1/gpx.xsd" version="1.1" creator="VisuGPX - https://www.visugpx.com">
  <metadata>
    <name>Le Grand Rocher Belledonne Gemsa</name>
  </metadata>
  <trk>
    <name><![CDATA[Le Grand Rocher Belledonne Gemsa]]></name>
    <trkseg>
      <trkpt lat="45.32772" lon="6.04664">
        <ele>1430.2</ele>
        <time>2021-01-16T08:25:01Z</time>
      </trkpt>
      <trkpt lat="45.32775" lon="6.04662">
        <ele>1430.2</ele>
        <time>2021-01-16T08:25:02Z</time>
      </trkpt>
      <trkpt lat="45.32777" lon="6.0466">
        <ele>1430.2</ele>
        <time>2021-01-16T08:25:03Z</time>
      </trkpt>
      <trkpt lat="45.32777" lon="6.04659">
        <ele>1430.2</ele>
        <time>2021-01-16T08:25:04Z</time>
      </trkpt>
      <trkpt lat="45.32777" lon="6.04658">
        <ele>1430.2</ele>
        <time>2021-01-16T08:25:05Z</time>
      </trkpt>
      <trkpt lat="45.32777" lon="6.04658">
        <ele>1430.2</ele>
        <time>2021-01-16T08:25:06Z</time>
      </trkpt>
      <trkpt lat="45.32777" lon="6.04658">
        <ele>1430.2</ele>
        <time>2021-01-16T08:25:07Z</time>
      </trkpt>
      <trkpt lat="45.32776" lon="6.04658">
        <ele>1430.2</ele>
        <time>2021-01-16T08:25:08Z</time>
      </trkpt>
      <trkpt lat="45.32777" lon="6.04658">
        <ele>1430.2</ele>
        <time>2021-01-16T08:25:09Z</time>
      </trkpt>
      <trkpt lat="45.32777" lon="6.04659">
        <ele>1430.2</ele>
        <time>2021-01-16T08:25:10Z</time>
      </trkpt>
      <trkpt lat="45.32777" lon="6.0466">
        <ele>1430.2</ele>
        <time>2021-01-16T08:25:11Z</time>
      </trkpt>
      <trkpt lat="45.32778" lon="6.04661">
        <ele>1430.2</ele>
        <time>2021-01-16T08:25:12Z</time>
      </trkpt>
      <trkpt lat="45.32779" lon="6.04662">
        <ele>1430.2</ele>
        <time>2021-01-16T08:25:13Z</time>
      </trkpt>
      <trkpt lat="45.32778" lon="6.04662">
        <ele>1430.2</ele>
        <time>2021-01-16T08:25:14Z</time>
      </trkpt>
      <trkpt lat="45.32778" lon="6.04663">
        <ele>1430.2</ele>
        <time>2021-01-16T08:25:15Z</time>
      </trkpt>
      <trkpt lat="45.32777" lon="6.04663">
        <ele>1430.2</ele>
        <time>2021-01-16T08:25:16Z</time>
      </trkpt>
      <trkpt lat="45.32776" lon="6.04663">
        <ele>1430.2</ele>
        <time>2021-01-16T08:25:17Z</time>
      </trkpt>
      <trkpt lat="45.32775" lon="6.04664">
        <ele>1430.2</ele>
        <time>2021-01-16T08:25:18Z</time>
      </trkpt>
      <trkpt lat="45.32774" lon="6.04664">
        <ele>1430.2</ele>
        <time>2021-01-16T08:25:19Z</time>
      </trkpt>
      <trkpt lat="45.32773" lon="6.04664">
        <ele>1430.2</ele>
        <time>2021-01-16T08:25:20Z</time>
      </trkpt>
      <trkpt lat="45.32771" lon="6.04663">
        <ele>1430.2</ele>
        <time>2021-01-16T08:25:21Z</time>
      </trkpt>
      <trkpt lat="45.3277" lon="6.04663">
        <ele>1430.2</ele>
        <time>2021-01-16T08:25:22Z</time>
      </trkpt>
      <trkpt lat="45.32769" lon="6.04663">
        <ele>1430.2</ele>
        <time>2021-01-16T08:25:23Z</time>
      </trkpt>
      <trkpt lat="45.32768" lon="6.04662">
        <ele>1430.2</ele>
        <time>2021-01-16T08:25:24Z</time>
      </trkpt>
      <trkpt lat="45.32767" lon="6.04662">
        <ele>1430.2</ele>
        <time>2021-01-16T08:25:25Z</time>
      </trkpt>
      <trkpt lat="45.32766" lon="6.04661">
        <ele>1430.2</ele>
        <time>2021-01-16T08:25:26Z</time>
      </trkpt>
      <trkpt lat="45.32765" lon="6.04661">
        <ele>1430.2</ele>
        <time>2021-01-16T08:25:27Z</time>
      </trkpt>
      <trkpt lat="45.32764" lon="6.04661">
        <ele>1430.2</ele>
        <time>2021-01-16T08:25:28Z</time>
      </trkpt>
      <trkpt lat="45.32763" lon="6.0466">
        <ele>1430.2</ele>
        <time>2021-01-16T08:25:29Z</time>
      </trkpt>
      <trkpt lat="45.32762" lon="6.0466">
        <ele>1430.2</ele>
        <time>2021-01-16T08:25:30Z</time>
      </trkpt>
      <trkpt lat="45.32761" lon="6.0466">
        <ele>1430.2</ele>
        <time>2021-01-16T08:25:31Z</time>
      </trkpt>
      <trkpt lat="45.3276" lon="6.0466">
        <ele>1430.2</ele>
        <time>2021-01-16T08:25:32Z</time>
      </trkpt>
      <trkpt lat="45.32759" lon="6.0466">
        <ele>1430.2</ele>
        <time>2021-01-16T08:25:33Z</time>
      </trkpt>
      <trkpt lat="45.32758" lon="6.0466">
        <ele>1430.2</ele>
        <time>2021-01-16T08:25:34Z</time>
      </trkpt>
      <trkpt lat="45.32758" lon="6.04661">
        <ele>1430.2</ele>
        <time>2021-01-16T08:25:35Z</time>
      </trkpt>
      <trkpt lat="45.32757" lon="6.04661">
        <ele>1430.2</ele>
        <time>2021-01-16T08:25:36Z</time>
      </trkpt>
      <trkpt lat="45.32757" lon="6.04661">
        <ele>1430.2</ele>
        <time>2021-01-16T08:25:37Z</time>
      </trkpt>
      <trkpt lat="45.32757" lon="6.04661">
        <ele>1430.2</ele>
        <time>2021-01-16T08:25:38Z</time>
      </trkpt>
      <trkpt lat="45.32757" lon="6.04661">
        <ele>1430.2</ele>
        <time>2021-01-16T08:25:39Z</time>
      </trkpt>
      <trkpt lat="45.32757" lon="6.04661">
        <ele>1430.2</ele>
        <time>2021-01-16T08:25:40Z</time>
      </trkpt>
      <trkpt lat="45.32756" lon="6.04661">
        <ele>1430.2</ele>
        <time>2021-01-16T08:25:41Z</time>
      </trkpt>
      <trkpt lat="45.32755" lon="6.0466">
        <ele>1430.2</ele>
        <time>2021-01-16T08:25:42Z</time>
      </trkpt>
      <trkpt lat="45.32754" lon="6.0466">
        <ele>1430.2</ele>
        <time>2021-01-16T08:25:43Z</time>
      </trkpt>
      <trkpt lat="45.32754" lon="6.0466">
        <ele>1430.2</ele>
        <time>2021-01-16T08:25:44Z</time>
      </trkpt>
      <trkpt lat="45.32754" lon="6.0466">
        <ele>1430.2</ele>
        <time>2021-01-16T08:25:45Z</time>
      </trkpt>
      <trkpt lat="45.32753" lon="6.0466">
        <ele>1430.2</ele>
        <time>2021-01-16T08:25:46Z</time>
      </trkpt>
      <trkpt lat="45.32753" lon="6.0466">
        <ele>1430.2</ele>
        <time>2021-01-16T08:25:47Z</time>
      </trkpt>
      <trkpt lat="45.32753" lon="6.0466">
        <ele>1430.2</ele>
        <time>2021-01-16T08:25:48Z</time>
      </trkpt>
      <trkpt lat="45.32753" lon="6.0466">
        <ele>1430.2</ele>
        <time>2021-01-16T08:25:49Z</time>
      </trkpt>
      <trkpt lat="45.32753" lon="6.0466">
        <ele>1430.2</ele>
        <time>2021-01-16T08:25:50Z</time>
      </trkpt>
      <trkpt lat="45.32753" lon="6.0466">
        <ele>1430.2</ele>
        <time>2021-01-16T08:25:51Z</time>
      </trkpt>
      <trkpt lat="45.32753" lon="6.0466">
        <ele>1430.2</ele>
        <time>2021-01-16T08:25:52Z</time>
      </trkpt>
      <trkpt lat="45.32753" lon="6.0466">
        <ele>1430.2</ele>
        <time>2021-01-16T08:25:53Z</time>
      </trkpt>
      <trkpt lat="45.32753" lon="6.0466">
        <ele>1430.2</ele>
        <time>2021-01-16T08:25:54Z</time>
      </trkpt>
      <trkpt lat="45.32753" lon="6.0466">
        <ele>1430.2</ele>
        <time>2021-01-16T08:25:55Z</time>
      </trkpt>
      <trkpt lat="45.32753" lon="6.0466">
        <ele>1430.2</ele>
        <time>2021-01-16T08:25:56Z</time>
      </trkpt>
      <trkpt lat="45.32753" lon="6.0466">
        <ele>1430.2</ele>
        <time>2021-01-16T08:25:57Z</time>
      </trkpt>
      <trkpt lat="45.32753" lon="6.0466">
        <ele>1430.2</ele>
        <time>2021-01-16T08:25:58Z</time>
      </trkpt>
      <trkpt lat="45.32753" lon="6.0466">
        <ele>1430.2</ele>
        <time>2021-01-16T08:25:59Z</time>
      </trkpt>
      <trkpt lat="45.32753" lon="6.0466">
        <ele>1430.2</ele>
        <time>2021-01-16T08:26:00Z</time>
      </trkpt>
      <trkpt lat="45.32753" lon="6.0466">
        <ele>1430.2</ele>
        <time>2021-01-16T08:26:01Z</time>
      </trkpt>
      <trkpt lat="45.32753" lon="6.0466">
        <ele>1430.2</ele>
        <time>2021-01-16T08:26:02Z</time>
      </trkpt>
      <trkpt lat="45.32753" lon="6.0466">
        <ele>1430.2</ele>
        <time>2021-01-16T08:26:03Z</time>
      </trkpt>
      <trkpt lat="45.32753" lon="6.0466">
        <ele>1430.2</ele>
        <time>2021-01-16T08:26:04Z</time>
      </trkpt>
      <trkpt lat="45.32753" lon="6.0466">
        <ele>1430.2</ele>
        <time>2021-01-16T08:26:05Z</time>
      </trkpt>
      <trkpt lat="45.32753" lon="6.0466">
        <ele>1430.2</ele>
        <time>2021-01-16T08:26:06Z</time>
      </trkpt>
      <trkpt lat="45.32753" lon="6.0466">
        <ele>1430.2</ele>
        <time>2021-01-16T08:26:07Z</time>
      </trkpt>
      <trkpt lat="45.32753" lon="6.0466">
        <ele>1430.2</ele>
        <time>2021-01-16T08:26:08Z</time>
      </trkpt>
      <trkpt lat="45.32753" lon="6.0466">
        <ele>1430.2</ele>
        <time>2021-01-16T08:26:09Z</time>
      </trkpt>
      <trkpt lat="45.32753" lon="6.0466">
        <ele>1430.2</ele>
        <time>2021-01-16T08:26:10Z</time>
      </trkpt>
      <trkpt lat="45.32753" lon="6.0466">
        <ele>1430.2</ele>
        <time>2021-01-16T08:26:11Z</time>
      </trkpt>
      <trkpt lat="45.32753" lon="6.0466">
        <ele>1430.2</ele>
        <time>2021-01-16T08:26:12Z</time>
      </trkpt>
      <trkpt lat="45.32753" lon="6.0466">
        <ele>1430.2</ele>
        <time>2021-01-16T08:26:13Z</time>
      </trkpt>
      <trkpt lat="45.32753" lon="6.0466">
        <ele>1430.2</ele>
        <time>2021-01-16T08:26:14Z</time>
      </trkpt>
      <trkpt lat="45.32753" lon="6.0466">
        <ele>1430.2</ele>
        <time>2021-01-16T08:26:15Z</time>
      </trkpt>
      <trkpt lat="45.32753" lon="6.0466">
        <ele>1430.2</ele>
        <time>2021-01-16T08:26:16Z</time>
      </trkpt>
      <trkpt lat="45.32753" lon="6.0466">
        <ele>1430.2</ele>
        <time>2021-01-16T08:26:17Z</time>
      </trkpt>
      <trkpt lat="45.32753" lon="6.0466">
        <ele>1430.2</ele>
        <time>2021-01-16T08:26:18Z</time>
      </trkpt>
      <trkpt lat="45.32753" lon="6.0466">
        <ele>1430.2</ele>
        <time>2021-01-16T08:26:19Z</time>
      </trkpt>
      <trkpt lat="45.32753" lon="6.0466">
        <ele>1430.2</ele>
        <time>2021-01-16T08:26:20Z</time>
      </trkpt>
      <trkpt lat="45.32753" lon="6.0466">
        <ele>1430.2</ele>
        <time>2021-01-16T08:26:21Z</time>
      </trkpt>
      <trkpt lat="45.32753" lon="6.0466">
        <ele>1430.2</ele>
        <time>2021-01-16T08:26:22Z</time>
      </trkpt>
      <trkpt lat="45.32753" lon="6.0466">
        <ele>1430.2</ele>
        <time>2021-01-16T08:26:23Z</time>
      </trkpt>
      <trkpt lat="45.32753" lon="6.0466">
        <ele>1430.2</ele>
        <time>2021-01-16T08:26:24Z</time>
      </trkpt>
      <trkpt lat="45.32753" lon="6.0466">
        <ele>1430.2</ele>
        <time>2021-01-16T08:26:25Z</time>
      </trkpt>
      <trkpt lat="45.32753" lon="6.0466">
        <ele>1430.2</ele>
        <time>2021-01-16T08:26:26Z</time>
      </trkpt>
      <trkpt lat="45.32753" lon="6.0466">
        <ele>1430.2</ele>
        <time>2021-01-16T08:26:27Z</time>
      </trkpt>
      <trkpt lat="45.32753" lon="6.0466">
        <ele>1430.2</ele>
        <time>2021-01-16T08:26:28Z</time>
      </trkpt>
      <trkpt lat="45.32753" lon="6.0466">
        <ele>1430</ele>
        <time>2021-01-16T08:26:29Z</time>
      </trkpt>
      <trkpt lat="45.32753" lon="6.0466">
        <ele>1430</ele>
        <time>2021-01-16T08:26:30Z</time>
      </trkpt>
      <trkpt lat="45.32753" lon="6.0466">
        <ele>1430.2</ele>
        <time>2021-01-16T08:26:31Z</time>
      </trkpt>
      <trkpt lat="45.32753" lon="6.0466">
        <ele>1430.2</ele>
        <time>2021-01-16T08:26:32Z</time>
      </trkpt>
      <trkpt lat="45.32753" lon="6.0466">
        <ele>1430.2</ele>
        <time>2021-01-16T08:26:33Z</time>
      </trkpt>
      <trkpt lat="45.32753" lon="6.0466">
        <ele>1430.2</ele>
        <time>2021-01-16T08:26:34Z</time>
      </trkpt>
      <trkpt lat="45.32753" lon="6.0466">
        <ele>1430.2</ele>
        <time>2021-01-16T08:26:35Z</time>
      </trkpt>
      <trkpt lat="45.32753" lon="6.0466">
        <ele>1430.2</ele>
        <time>2021-01-16T08:26:36Z</time>
      </trkpt>
      <trkpt lat="45.32753" lon="6.0466">
        <ele>1430.2</ele>
        <time>2021-01-16T08:26:37Z</time>
      </trkpt>
      <trkpt lat="45.32753" lon="6.0466">
        <ele>1430.2</ele>
        <time>2021-01-16T08:26:38Z</time>
      </trkpt>
      <trkpt lat="45.32753" lon="6.0466">
        <ele>1430.2</ele>
        <time>2021-01-16T08:26:39Z</time>
      </trkpt>
      <trkpt lat="45.32753" lon="6.0466">
        <ele>1430.2</ele>
        <time>2021-01-16T08:26:40Z</time>
      </trkpt>
      <trkpt lat="45.32753" lon="6.0466">
        <ele>1430.2</ele>
        <time>2021-01-16T08:26:41Z</time>
      </trkpt>
      <trkpt lat="45.32753" lon="6.0466">
        <ele>1430.2</ele>
        <time>2021-01-16T08:26:42Z</time>
      </trkpt>
      <trkpt lat="45.32753" lon="6.0466">
        <ele>1430.2</ele>
        <time>2021-01-16T08:26:43Z</time>
      </trkpt>
      <trkpt lat="45.32753" lon="6.0466">
        <ele>1430.4</ele>
        <time>2021-01-16T08:26:44Z</time>
      </trkpt>
      <trkpt lat="45.32753" lon="6.0466">
        <ele>1430.4</ele>
        <time>2021-01-16T08:26:45Z</time>
      </trkpt>
      <trkpt lat="45.32753" lon="6.0466">
        <ele>1430.2</ele>
        <time>2021-01-16T08:26:46Z</time>
      </trkpt>
      <trkpt lat="45.32753" lon="6.0466">
        <ele>1430</ele>
        <time>2021-01-16T08:26:47Z</time>
      </trkpt>
      <trkpt lat="45.32753" lon="6.0466">
        <ele>1430.2</ele>
        <time>2021-01-16T08:26:48Z</time>
      </trkpt>
      <trkpt lat="45.32753" lon="6.0466">
        <ele>1430</ele>
        <time>2021-01-16T08:26:49Z</time>
      </trkpt>
      <trkpt lat="45.32753" lon="6.0466">
        <ele>1430</ele>
        <time>2021-01-16T08:26:50Z</time>
      </trkpt>
      <trkpt lat="45.32753" lon="6.0466">
        <ele>1430</ele>
        <time>2021-01-16T08:26:51Z</time>
      </trkpt>
      <trkpt lat="45.32753" lon="6.0466">
        <ele>1430</ele>
        <time>2021-01-16T08:26:52Z</time>
      </trkpt>
      <trkpt lat="45.32753" lon="6.0466">
        <ele>1430</ele>
        <time>2021-01-16T08:26:53Z</time>
      </trkpt>
      <trkpt lat="45.32753" lon="6.0466">
        <ele>1430</ele>
        <time>2021-01-16T08:26:54Z</time>
      </trkpt>
      <trkpt lat="45.32753" lon="6.0466">
        <ele>1430</ele>
        <time>2021-01-16T08:26:55Z</time>
      </trkpt>
      <trkpt lat="45.32753" lon="6.0466">
        <ele>1430</ele>
        <time>2021-01-16T08:26:56Z</time>
      </trkpt>
      <trkpt lat="45.32753" lon="6.0466">
        <ele>1430</ele>
        <time>2021-01-16T08:26:57Z</time>
      </trkpt>
      <trkpt lat="45.32752" lon="6.04659">
        <ele>1430</ele>
        <time>2021-01-16T08:26:58Z</time>
      </trkpt>
      <trkpt lat="45.32752" lon="6.04659">
        <ele>1430</ele>
        <time>2021-01-16T08:26:59Z</time>
      </trkpt>
      <trkpt lat="45.32752" lon="6.0466">
        <ele>1430</ele>
        <time>2021-01-16T08:27:00Z</time>
      </trkpt>
      <trkpt lat="45.32752" lon="6.0466">
        <ele>1430</ele>
        <time>2021-01-16T08:27:01Z</time>
      </trkpt>
      <trkpt lat="45.32752" lon="6.0466">
        <ele>1430</ele>
        <time>2021-01-16T08:27:02Z</time>
      </trkpt>
      <trkpt lat="45.32752" lon="6.0466">
        <ele>1430</ele>
        <time>2021-01-16T08:27:03Z</time>
      </trkpt>
      <trkpt lat="45.32752" lon="6.0466">
        <ele>1430</ele>
        <time>2021-01-16T08:27:04Z</time>
      </trkpt>
      <trkpt lat="45.32752" lon="6.0466">
        <ele>1430</ele>
        <time>2021-01-16T08:27:05Z</time>
      </trkpt>
      <trkpt lat="45.32752" lon="6.0466">
        <ele>1429.8</ele>
        <time>2021-01-16T08:27:06Z</time>
      </trkpt>
      <trkpt lat="45.32752" lon="6.0466">
        <ele>1430</ele>
        <time>2021-01-16T08:27:07Z</time>
      </trkpt>
      <trkpt lat="45.32752" lon="6.0466">
        <ele>1430</ele>
        <time>2021-01-16T08:27:08Z</time>
      </trkpt>
      <trkpt lat="45.32752" lon="6.0466">
        <ele>1430</ele>
        <time>2021-01-16T08:27:09Z</time>
      </trkpt>
      <trkpt lat="45.32752" lon="6.0466">
        <ele>1430</ele>
        <time>2021-01-16T08:27:10Z</time>
      </trkpt>
      <trkpt lat="45.32752" lon="6.0466">
        <ele>1430</ele>
        <time>2021-01-16T08:27:11Z</time>
      </trkpt>
      <trkpt lat="45.32752" lon="6.0466">
        <ele>1429.8</ele>
        <time>2021-01-16T08:27:12Z</time>
      </trkpt>
      <trkpt lat="45.32752" lon="6.0466">
        <ele>1430</ele>
        <time>2021-01-16T08:27:13Z</time>
      </trkpt>
      <trkpt lat="45.32752" lon="6.0466">
        <ele>1430</ele>
        <time>2021-01-16T08:27:14Z</time>
      </trkpt>
      <trkpt lat="45.32752" lon="6.0466">
        <ele>1429.8</ele>
        <time>2021-01-16T08:27:15Z</time>
      </trkpt>
      <trkpt lat="45.32752" lon="6.0466">
        <ele>1429.8</ele>
        <time>2021-01-16T08:27:16Z</time>
      </trkpt>
      <trkpt lat="45.32752" lon="6.0466">
        <ele>1429.8</ele>
        <time>2021-01-16T08:27:17Z</time>
      </trkpt>
      <trkpt lat="45.32752" lon="6.0466">
        <ele>1429.8</ele>
        <time>2021-01-16T08:27:18Z</time>
      </trkpt>
      <trkpt lat="45.32752" lon="6.0466">
        <ele>1429.8</ele>
        <time>2021-01-16T08:27:19Z</time>
      </trkpt>
      <trkpt lat="45.32752" lon="6.0466">
        <ele>1429.8</ele>
        <time>2021-01-16T08:27:20Z</time>
      </trkpt>
      <trkpt lat="45.32752" lon="6.04661">
        <ele>1430</ele>
        <time>2021-01-16T08:27:21Z</time>
      </trkpt>
      <trkpt lat="45.32752" lon="6.04661">
        <ele>1430</ele>
        <time>2021-01-16T08:27:22Z</time>
      </trkpt>
      <trkpt lat="45.32752" lon="6.04661">
        <ele>1430</ele>
        <time>2021-01-16T08:27:23Z</time>
      </trkpt>
      <trkpt lat="45.32751" lon="6.0466">
        <ele>1430</ele>
        <time>2021-01-16T08:27:24Z</time>
      </trkpt>
      <trkpt lat="45.32751" lon="6.0466">
        <ele>1430</ele>
        <time>2021-01-16T08:27:25Z</time>
      </trkpt>
      <trkpt lat="45.3275" lon="6.0466">
        <ele>1430</ele>
        <time>2021-01-16T08:27:26Z</time>
      </trkpt>
      <trkpt lat="45.3275" lon="6.04659">
        <ele>1430</ele>
        <time>2021-01-16T08:27:27Z</time>
      </trkpt>
      <trkpt lat="45.3275" lon="6.04659">
        <ele>1430</ele>
        <time>2021-01-16T08:27:28Z</time>
      </trkpt>
      <trkpt lat="45.3275" lon="6.04659">
        <ele>1430</ele>
        <time>2021-01-16T08:27:29Z</time>
      </trkpt>
      <trkpt lat="45.3275" lon="6.04659">
        <ele>1430</ele>
        <time>2021-01-16T08:27:30Z</time>
      </trkpt>
      <trkpt lat="45.3275" lon="6.04659">
        <ele>1430.2</ele>
        <time>2021-01-16T08:27:31Z</time>
      </trkpt>
      <trkpt lat="45.3275" lon="6.04659">
        <ele>1430.2</ele>
        <time>2021-01-16T08:27:32Z</time>
      </trkpt>
      <trkpt lat="45.3275" lon="6.04659">
        <ele>1430.2</ele>
        <time>2021-01-16T08:27:33Z</time>
      </trkpt>
      <trkpt lat="45.3275" lon="6.04659">
        <ele>1430</ele>
        <time>2021-01-16T08:27:34Z</time>
      </trkpt>
      <trkpt lat="45.3275" lon="6.04659">
        <ele>1430</ele>
        <time>2021-01-16T08:27:35Z</time>
      </trkpt>
      <trkpt lat="45.3275" lon="6.04659">
        <ele>1430.2</ele>
        <time>2021-01-16T08:27:36Z</time>
      </trkpt>
      <trkpt lat="45.3275" lon="6.04659">
        <ele>1430.2</ele>
        <time>2021-01-16T08:27:37Z</time>
      </trkpt>
      <trkpt lat="45.3275" lon="6.04659">
        <ele>1430.2</ele>
        <time>2021-01-16T08:27:38Z</time>
      </trkpt>
      <trkpt lat="45.3275" lon="6.04659">
        <ele>1430.2</ele>
        <time>2021-01-16T08:27:39Z</time>
      </trkpt>
      <trkpt lat="45.3275" lon="6.04659">
        <ele>1430.2</ele>
        <time>2021-01-16T08:27:40Z</time>
      </trkpt>
      <trkpt lat="45.3275" lon="6.04659">
        <ele>1430.2</ele>
        <time>2021-01-16T08:27:41Z</time>
      </trkpt>
      <trkpt lat="45.3275" lon="6.04659">
        <ele>1430.2</ele>
        <time>2021-01-16T08:27:42Z</time>
      </trkpt>
      <trkpt lat="45.3275" lon="6.04659">
        <ele>1430.2</ele>
        <time>2021-01-16T08:27:43Z</time>
      </trkpt>
      <trkpt lat="45.3275" lon="6.04659">
        <ele>1430.2</ele>
        <time>2021-01-16T08:27:44Z</time>
      </trkpt>
      <trkpt lat="45.3275" lon="6.04659">
        <ele>1430.2</ele>
        <time>2021-01-16T08:27:45Z</time>
      </trkpt>
      <trkpt lat="45.3275" lon="6.04659">
        <ele>1430.2</ele>
        <time>2021-01-16T08:27:46Z</time>
      </trkpt>
      <trkpt lat="45.3275" lon="6.04659">
        <ele>1430.2</ele>
        <time>2021-01-16T08:27:47Z</time>
      </trkpt>
      <trkpt lat="45.3275" lon="6.04659">
        <ele>1430.2</ele>
        <time>2021-01-16T08:27:48Z</time>
      </trkpt>
      <trkpt lat="45.3275" lon="6.04659">
        <ele>1430</ele>
        <time>2021-01-16T08:27:49Z</time>
      </trkpt>
      <trkpt lat="45.3275" lon="6.04659">
        <ele>1430</ele>
        <time>2021-01-16T08:27:50Z</time>
      </trkpt>
      <trkpt lat="45.3275" lon="6.04659">
        <ele>1430</ele>
        <time>2021-01-16T08:27:51Z</time>
      </trkpt>
      <trkpt lat="45.3275" lon="6.04659">
        <ele>1430</ele>
        <time>2021-01-16T08:27:52Z</time>
      </trkpt>
      <trkpt lat="45.3275" lon="6.04659">
        <ele>1430</ele>
        <time>2021-01-16T08:27:53Z</time>
      </trkpt>
      <trkpt lat="45.3275" lon="6.04659">
        <ele>1430</ele>
        <time>2021-01-16T08:27:54Z</time>
      </trkpt>
      <trkpt lat="45.3275" lon="6.04659">
        <ele>1430.2</ele>
        <time>2021-01-16T08:27:55Z</time>
      </trkpt>
      <trkpt lat="45.3275" lon="6.04659">
        <ele>1430</ele>
        <time>2021-01-16T08:27:56Z</time>
      </trkpt>
      <trkpt lat="45.3275" lon="6.04659">
        <ele>1430</ele>
        <time>2021-01-16T08:27:57Z</time>
      </trkpt>
      <trkpt lat="45.3275" lon="6.04658">
        <ele>1430.2</ele>
        <time>2021-01-16T08:27:58Z</time>
      </trkpt>
      <trkpt lat="45.32749" lon="6.04658">
        <ele>1430.2</ele>
        <time>2021-01-16T08:27:59Z</time>
      </trkpt>
      <trkpt lat="45.32749" lon="6.04659">
        <ele>1430.2</ele>
        <time>2021-01-16T08:28:00Z</time>
      </trkpt>
      <trkpt lat="45.3275" lon="6.04659">
        <ele>1430.2</ele>
        <time>2021-01-16T08:28:01Z</time>
      </trkpt>
      <trkpt lat="45.3275" lon="6.04659">
        <ele>1430</ele>
        <time>2021-01-16T08:28:02Z</time>
      </trkpt>
      <trkpt lat="45.3275" lon="6.04659">
        <ele>1430</ele>
        <time>2021-01-16T08:28:03Z</time>
      </trkpt>
      <trkpt lat="45.32749" lon="6.04659">
        <ele>1430</ele>
        <time>2021-01-16T08:28:04Z</time>
      </trkpt>
      <trkpt lat="45.32749" lon="6.04659">
        <ele>1430</ele>
        <time>2021-01-16T08:28:05Z</time>
      </trkpt>
      <trkpt lat="45.32749" lon="6.04659">
        <ele>1430</ele>
        <time>2021-01-16T08:28:06Z</time>
      </trkpt>
      <trkpt lat="45.32749" lon="6.04659">
        <ele>1430</ele>
        <time>2021-01-16T08:28:07Z</time>
      </trkpt>
      <trkpt lat="45.32748" lon="6.04658">
        <ele>1430</ele>
        <time>2021-01-16T08:28:08Z</time>
      </trkpt>
      <trkpt lat="45.32748" lon="6.04657">
        <ele>1430</ele>
        <time>2021-01-16T08:28:09Z</time>
      </trkpt>
      <trkpt lat="45.32748" lon="6.04657">
        <ele>1430</ele>
        <time>2021-01-16T08:28:10Z</time>
      </trkpt>
      <trkpt lat="45.32747" lon="6.04657">
        <ele>1430</ele>
        <time>2021-01-16T08:28:11Z</time>
      </trkpt>
      <trkpt lat="45.32747" lon="6.04657">
        <ele>1430</ele>
        <time>2021-01-16T08:28:12Z</time>
      </trkpt>
      <trkpt lat="45.32747" lon="6.04657">
        <ele>1430</ele>
        <time>2021-01-16T08:28:13Z</time>
      </trkpt>
      <trkpt lat="45.32747" lon="6.04657">
        <ele>1430</ele>
        <time>2021-01-16T08:28:14Z</time>
      </trkpt>
      <trkpt lat="45.32747" lon="6.04657">
        <ele>1430</ele>
        <time>2021-01-16T08:28:15Z</time>
      </trkpt>
      <trkpt lat="45.32747" lon="6.04657">
        <ele>1430</ele>
        <time>2021-01-16T08:28:16Z</time>
      </trkpt>
      <trkpt lat="45.32747" lon="6.04657">
        <ele>1430</ele>
        <time>2021-01-16T08:28:17Z</time>
      </trkpt>
      <trkpt lat="45.32747" lon="6.04657">
        <ele>1430</ele>
        <time>2021-01-16T08:28:18Z</time>
      </trkpt>
      <trkpt lat="45.32747" lon="6.04657">
        <ele>1430</ele>
        <time>2021-01-16T08:28:19Z</time>
      </trkpt>
      <trkpt lat="45.32747" lon="6.04657">
        <ele>1430</ele>
        <time>2021-01-16T08:28:20Z</time>
      </trkpt>
      <trkpt lat="45.32747" lon="6.04657">
        <ele>1430</ele>
        <time>2021-01-16T08:28:21Z</time>
      </trkpt>
      <trkpt lat="45.32747" lon="6.04657">
        <ele>1430</ele>
        <time>2021-01-16T08:28:22Z</time>
      </trkpt>
      <trkpt lat="45.32747" lon="6.04657">
        <ele>1430</ele>
        <time>2021-01-16T08:28:23Z</time>
      </trkpt>
      <trkpt lat="45.32747" lon="6.04658">
        <ele>1430</ele>
        <time>2021-01-16T08:28:24Z</time>
      </trkpt>
      <trkpt lat="45.32748" lon="6.04658">
        <ele>1430</ele>
        <time>2021-01-16T08:28:25Z</time>
      </trkpt>
      <trkpt lat="45.32748" lon="6.04659">
        <ele>1430</ele>
        <time>2021-01-16T08:28:26Z</time>
      </trkpt>
      <trkpt lat="45.32749" lon="6.04659">
        <ele>1430</ele>
        <time>2021-01-16T08:28:27Z</time>
      </trkpt>
      <trkpt lat="45.32749" lon="6.04659">
        <ele>1430</ele>
        <time>2021-01-16T08:28:28Z</time>
      </trkpt>
      <trkpt lat="45.32749" lon="6.0466">
        <ele>1429.8</ele>
        <time>2021-01-16T08:28:29Z</time>
      </trkpt>
      <trkpt lat="45.32749" lon="6.0466">
        <ele>1429.8</ele>
        <time>2021-01-16T08:28:30Z</time>
      </trkpt>
      <trkpt lat="45.32749" lon="6.0466">
        <ele>1429.8</ele>
        <time>2021-01-16T08:28:31Z</time>
      </trkpt>
      <trkpt lat="45.32749" lon="6.0466">
        <ele>1429.8</ele>
        <time>2021-01-16T08:28:32Z</time>
      </trkpt>
      <trkpt lat="45.32749" lon="6.0466">
        <ele>1429.8</ele>
        <time>2021-01-16T08:28:33Z</time>
      </trkpt>
      <trkpt lat="45.32749" lon="6.0466">
        <ele>1429.8</ele>
        <time>2021-01-16T08:28:34Z</time>
      </trkpt>
      <trkpt lat="45.32749" lon="6.0466">
        <ele>1429.8</ele>
        <time>2021-01-16T08:28:35Z</time>
      </trkpt>
      <trkpt lat="45.32749" lon="6.0466">
        <ele>1429.8</ele>
        <time>2021-01-16T08:28:36Z</time>
      </trkpt>
      <trkpt lat="45.32749" lon="6.0466">
        <ele>1429.8</ele>
        <time>2021-01-16T08:28:37Z</time>
      </trkpt>
      <trkpt lat="45.32749" lon="6.0466">
        <ele>1429.8</ele>
        <time>2021-01-16T08:28:38Z</time>
      </trkpt>
      <trkpt lat="45.32749" lon="6.0466">
        <ele>1429.6</ele>
        <time>2021-01-16T08:28:39Z</time>
      </trkpt>
      <trkpt lat="45.32749" lon="6.0466">
        <ele>1429.8</ele>
        <time>2021-01-16T08:28:40Z</time>
      </trkpt>
      <trkpt lat="45.32749" lon="6.0466">
        <ele>1429.8</ele>
        <time>2021-01-16T08:28:41Z</time>
      </trkpt>
      <trkpt lat="45.32749" lon="6.0466">
        <ele>1429.8</ele>
        <time>2021-01-16T08:28:42Z</time>
      </trkpt>
      <trkpt lat="45.32749" lon="6.0466">
        <ele>1429.8</ele>
        <time>2021-01-16T08:28:43Z</time>
      </trkpt>
      <trkpt lat="45.32749" lon="6.0466">
        <ele>1429.8</ele>
        <time>2021-01-16T08:28:44Z</time>
      </trkpt>
      <trkpt lat="45.32749" lon="6.0466">
        <ele>1429.8</ele>
        <time>2021-01-16T08:28:45Z</time>
      </trkpt>
      <trkpt lat="45.32749" lon="6.0466">
        <ele>1430</ele>
        <time>2021-01-16T08:28:46Z</time>
      </trkpt>
      <trkpt lat="45.32749" lon="6.0466">
        <ele>1430</ele>
        <time>2021-01-16T08:28:47Z</time>
      </trkpt>
      <trkpt lat="45.32749" lon="6.0466">
        <ele>1430</ele>
        <time>2021-01-16T08:28:48Z</time>
      </trkpt>
      <trkpt lat="45.32749" lon="6.0466">
        <ele>1430</ele>
        <time>2021-01-16T08:28:49Z</time>
      </trkpt>
      <trkpt lat="45.32748" lon="6.0466">
        <ele>1430</ele>
        <time>2021-01-16T08:28:50Z</time>
      </trkpt>
      <trkpt lat="45.32745" lon="6.04661">
        <ele>1430</ele>
        <time>2021-01-16T08:28:51Z</time>
      </trkpt>
      <trkpt lat="45.32745" lon="6.04662">
        <ele>1430</ele>
        <time>2021-01-16T08:28:52Z</time>
      </trkpt>
      <trkpt lat="45.32745" lon="6.04662">
        <ele>1430</ele>
        <time>2021-01-16T08:28:53Z</time>
      </trkpt>
      <trkpt lat="45.32745" lon="6.04662">
        <ele>1430</ele>
        <time>2021-01-16T08:28:54Z</time>
      </trkpt>
      <trkpt lat="45.32745" lon="6.04661">
        <ele>1430</ele>
        <time>2021-01-16T08:28:55Z</time>
      </trkpt>
      <trkpt lat="45.32745" lon="6.0466">
        <ele>1430.2</ele>
        <time>2021-01-16T08:28:56Z</time>
      </trkpt>
      <trkpt lat="45.32745" lon="6.0466">
        <ele>1430</ele>
        <time>2021-01-16T08:28:57Z</time>
      </trkpt>
      <trkpt lat="45.32745" lon="6.0466">
        <ele>1430</ele>
        <time>2021-01-16T08:28:58Z</time>
      </trkpt>
      <trkpt lat="45.32746" lon="6.0466">
        <ele>1430</ele>
        <time>2021-01-16T08:28:59Z</time>
      </trkpt>
      <trkpt lat="45.32746" lon="6.0466">
        <ele>1430</ele>
        <time>2021-01-16T08:29:00Z</time>
      </trkpt>
      <trkpt lat="45.32746" lon="6.0466">
        <ele>1430</ele>
        <time>2021-01-16T08:29:01Z</time>
      </trkpt>
      <trkpt lat="45.32746" lon="6.0466">
        <ele>1430</ele>
        <time>2021-01-16T08:29:02Z</time>
      </trkpt>
      <trkpt lat="45.32746" lon="6.0466">
        <ele>1430</ele>
        <time>2021-01-16T08:29:03Z</time>
      </trkpt>
      <trkpt lat="45.32746" lon="6.0466">
        <ele>1430</ele>
        <time>2021-01-16T08:29:04Z</time>
      </trkpt>
      <trkpt lat="45.32746" lon="6.0466">
        <ele>1430</ele>
        <time>2021-01-16T08:29:05Z</time>
      </trkpt>
      <trkpt lat="45.32746" lon="6.0466">
        <ele>1430</ele>
        <time>2021-01-16T08:29:06Z</time>
      </trkpt>
      <trkpt lat="45.32746" lon="6.0466">
        <ele>1430</ele>
        <time>2021-01-16T08:29:07Z</time>
      </trkpt>
      <trkpt lat="45.32746" lon="6.0466">
        <ele>1430</ele>
        <time>2021-01-16T08:29:08Z</time>
      </trkpt>
      <trkpt lat="45.32746" lon="6.0466">
        <ele>1430</ele>
        <time>2021-01-16T08:29:09Z</time>
      </trkpt>
      <trkpt lat="45.32746" lon="6.0466">
        <ele>1430</ele>
        <time>2021-01-16T08:29:10Z</time>
      </trkpt>
      <trkpt lat="45.32746" lon="6.0466">
        <ele>1430</ele>
        <time>2021-01-16T08:29:11Z</time>
      </trkpt>
      <trkpt lat="45.32746" lon="6.0466">
        <ele>1430</ele>
        <time>2021-01-16T08:29:12Z</time>
      </trkpt>
      <trkpt lat="45.32746" lon="6.0466">
        <ele>1430</ele>
        <time>2021-01-16T08:29:13Z</time>
      </trkpt>
      <trkpt lat="45.32746" lon="6.0466">
        <ele>1430</ele>
        <time>2021-01-16T08:29:14Z</time>
      </trkpt>
      <trkpt lat="45.32746" lon="6.0466">
        <ele>1430</ele>
        <time>2021-01-16T08:29:15Z</time>
      </trkpt>
      <trkpt lat="45.32746" lon="6.0466">
        <ele>1430</ele>
        <time>2021-01-16T08:29:16Z</time>
      </trkpt>
      <trkpt lat="45.32746" lon="6.0466">
        <ele>1430</ele>
        <time>2021-01-16T08:29:17Z</time>
      </trkpt>
      <trkpt lat="45.32746" lon="6.0466">
        <ele>1430</ele>
        <time>2021-01-16T08:29:18Z</time>
      </trkpt>
      <trkpt lat="45.32746" lon="6.0466">
        <ele>1430</ele>
        <time>2021-01-16T08:29:19Z</time>
      </trkpt>
      <trkpt lat="45.32746" lon="6.0466">
        <ele>1430</ele>
        <time>2021-01-16T08:29:20Z</time>
      </trkpt>
      <trkpt lat="45.32746" lon="6.0466">
        <ele>1430</ele>
        <time>2021-01-16T08:29:21Z</time>
      </trkpt>
      <trkpt lat="45.32746" lon="6.0466">
        <ele>1430</ele>
        <time>2021-01-16T08:29:22Z</time>
      </trkpt>
      <trkpt lat="45.32746" lon="6.0466">
        <ele>1430</ele>
        <time>2021-01-16T08:29:23Z</time>
      </trkpt>
      <trkpt lat="45.32746" lon="6.0466">
        <ele>1430</ele>
        <time>2021-01-16T08:29:24Z</time>
      </trkpt>
      <trkpt lat="45.32746" lon="6.0466">
        <ele>1430</ele>
        <time>2021-01-16T08:29:25Z</time>
      </trkpt>
      <trkpt lat="45.32746" lon="6.0466">
        <ele>1430</ele>
        <time>2021-01-16T08:29:26Z</time>
      </trkpt>
      <trkpt lat="45.32746" lon="6.0466">
        <ele>1430</ele>
        <time>2021-01-16T08:29:27Z</time>
      </trkpt>
      <trkpt lat="45.32746" lon="6.0466">
        <ele>1430</ele>
        <time>2021-01-16T08:29:28Z</time>
      </trkpt>
      <trkpt lat="45.32746" lon="6.0466">
        <ele>1430</ele>
        <time>2021-01-16T08:29:29Z</time>
      </trkpt>
      <trkpt lat="45.32746" lon="6.0466">
        <ele>1430</ele>
        <time>2021-01-16T08:29:30Z</time>
      </trkpt>
      <trkpt lat="45.32746" lon="6.0466">
        <ele>1430</ele>
        <time>2021-01-16T08:29:31Z</time>
      </trkpt>
      <trkpt lat="45.32746" lon="6.0466">
        <ele>1430</ele>
        <time>2021-01-16T08:29:32Z</time>
      </trkpt>
      <trkpt lat="45.32746" lon="6.0466">
        <ele>1430</ele>
        <time>2021-01-16T08:29:33Z</time>
      </trkpt>
      <trkpt lat="45.32746" lon="6.0466">
        <ele>1430</ele>
        <time>2021-01-16T08:29:34Z</time>
      </trkpt>
      <trkpt lat="45.32746" lon="6.0466">
        <ele>1430</ele>
        <time>2021-01-16T08:29:35Z</time>
      </trkpt>
      <trkpt lat="45.32746" lon="6.0466">
        <ele>1430</ele>
        <time>2021-01-16T08:29:36Z</time>
      </trkpt>
      <trkpt lat="45.32746" lon="6.0466">
        <ele>1430</ele>
        <time>2021-01-16T08:29:37Z</time>
      </trkpt>
      <trkpt lat="45.32746" lon="6.0466">
        <ele>1430</ele>
        <time>2021-01-16T08:29:38Z</time>
      </trkpt>
      <trkpt lat="45.32746" lon="6.0466">
        <ele>1430</ele>
        <time>2021-01-16T08:29:39Z</time>
      </trkpt>
      <trkpt lat="45.32746" lon="6.0466">
        <ele>1430</ele>
        <time>2021-01-16T08:29:40Z</time>
      </trkpt>
      <trkpt lat="45.32746" lon="6.0466">
        <ele>1430</ele>
        <time>2021-01-16T08:29:41Z</time>
      </trkpt>
      <trkpt lat="45.32746" lon="6.0466">
        <ele>1430</ele>
        <time>2021-01-16T08:29:42Z</time>
      </trkpt>
      <trkpt lat="45.32746" lon="6.0466">
        <ele>1430</ele>
        <time>2021-01-16T08:29:43Z</time>
      </trkpt>
      <trkpt lat="45.32746" lon="6.0466">
        <ele>1430</ele>
        <time>2021-01-16T08:29:44Z</time>
      </trkpt>
      <trkpt lat="45.32746" lon="6.0466">
        <ele>1430</ele>
        <time>2021-01-16T08:29:45Z</time>
      </trkpt>
      <trkpt lat="45.32746" lon="6.0466">
        <ele>1430</ele>
        <time>2021-01-16T08:29:46Z</time>
      </trkpt>
      <trkpt lat="45.32746" lon="6.0466">
        <ele>1430</ele>
        <time>2021-01-16T08:29:47Z</time>
      </trkpt>
      <trkpt lat="45.32746" lon="6.0466">
        <ele>1430</ele>
        <time>2021-01-16T08:29:48Z</time>
      </trkpt>
      <trkpt lat="45.32746" lon="6.0466">
        <ele>1430</ele>
        <time>2021-01-16T08:29:49Z</time>
      </trkpt>
      <trkpt lat="45.32746" lon="6.0466">
        <ele>1430</ele>
        <time>2021-01-16T08:29:50Z</time>
      </trkpt>
      <trkpt lat="45.32746" lon="6.0466">
        <ele>1430</ele>
        <time>2021-01-16T08:29:51Z</time>
      </trkpt>
      <trkpt lat="45.32746" lon="6.0466">
        <ele>1430</ele>
        <time>2021-01-16T08:29:52Z</time>
      </trkpt>
      <trkpt lat="45.32746" lon="6.0466">
        <ele>1430</ele>
        <time>2021-01-16T08:29:53Z</time>
      </trkpt>
      <trkpt lat="45.32746" lon="6.0466">
        <ele>1429.8</ele>
        <time>2021-01-16T08:29:54Z</time>
      </trkpt>
      <trkpt lat="45.32746" lon="6.0466">
        <ele>1429.8</ele>
        <time>2021-01-16T08:29:55Z</time>
      </trkpt>
      <trkpt lat="45.32746" lon="6.0466">
        <ele>1429.8</ele>
        <time>2021-01-16T08:29:56Z</time>
      </trkpt>
      <trkpt lat="45.32746" lon="6.0466">
        <ele>1430</ele>
        <time>2021-01-16T08:29:57Z</time>
      </trkpt>
      <trkpt lat="45.32746" lon="6.0466">
        <ele>1430</ele>
        <time>2021-01-16T08:29:58Z</time>
      </trkpt>
      <trkpt lat="45.32746" lon="6.0466">
        <ele>1430</ele>
        <time>2021-01-16T08:29:59Z</time>
      </trkpt>
      <trkpt lat="45.32746" lon="6.0466">
        <ele>1430</ele>
        <time>2021-01-16T08:30:00Z</time>
      </trkpt>
      <trkpt lat="45.32746" lon="6.0466">
        <ele>1430</ele>
        <time>2021-01-16T08:30:01Z</time>
      </trkpt>
      <trkpt lat="45.32746" lon="6.0466">
        <ele>1430</ele>
        <time>2021-01-16T08:30:02Z</time>
      </trkpt>
      <trkpt lat="45.32746" lon="6.0466">
        <ele>1430</ele>
        <time>2021-01-16T08:30:03Z</time>
      </trkpt>
      <trkpt lat="45.32746" lon="6.0466">
        <ele>1430</ele>
        <time>2021-01-16T08:30:04Z</time>
      </trkpt>
      <trkpt lat="45.32746" lon="6.0466">
        <ele>1430</ele>
        <time>2021-01-16T08:30:05Z</time>
      </trkpt>
      <trkpt lat="45.32746" lon="6.0466">
        <ele>1430</ele>
        <time>2021-01-16T08:30:06Z</time>
      </trkpt>
      <trkpt lat="45.32746" lon="6.0466">
        <ele>1430</ele>
        <time>2021-01-16T08:30:07Z</time>
      </trkpt>
      <trkpt lat="45.32746" lon="6.0466">
        <ele>1430</ele>
        <time>2021-01-16T08:30:08Z</time>
      </trkpt>
      <trkpt lat="45.32746" lon="6.0466">
        <ele>1430</ele>
        <time>2021-01-16T08:30:09Z</time>
      </trkpt>
      <trkpt lat="45.32746" lon="6.0466">
        <ele>1430</ele>
        <time>2021-01-16T08:30:10Z</time>
      </trkpt>
      <trkpt lat="45.32746" lon="6.0466">
        <ele>1430</ele>
        <time>2021-01-16T08:30:11Z</time>
      </trkpt>
      <trkpt lat="45.32746" lon="6.0466">
        <ele>1430</ele>
        <time>2021-01-16T08:30:12Z</time>
      </trkpt>
      <trkpt lat="45.32746" lon="6.0466">
        <ele>1430.2</ele>
        <time>2021-01-16T08:30:13Z</time>
      </trkpt>
      <trkpt lat="45.32746" lon="6.0466">
        <ele>1430</ele>
        <time>2021-01-16T08:30:14Z</time>
      </trkpt>
      <trkpt lat="45.32746" lon="6.0466">
        <ele>1429.8</ele>
        <time>2021-01-16T08:30:15Z</time>
      </trkpt>
      <trkpt lat="45.32746" lon="6.0466">
        <ele>1429.8</ele>
        <time>2021-01-16T08:30:16Z</time>
      </trkpt>
      <trkpt lat="45.32745" lon="6.0466">
        <ele>1430</ele>
        <time>2021-01-16T08:30:17Z</time>
      </trkpt>
      <trkpt lat="45.32744" lon="6.0466">
        <ele>1430.2</ele>
        <time>2021-01-16T08:30:18Z</time>
      </trkpt>
      <trkpt lat="45.32744" lon="6.0466">
        <ele>1430.2</ele>
        <time>2021-01-16T08:30:19Z</time>
      </trkpt>
      <trkpt lat="45.32743" lon="6.0466">
        <ele>1430.4</ele>
        <time>2021-01-16T08:30:20Z</time>
      </trkpt>
      <trkpt lat="45.32742" lon="6.0466">
        <ele>1430.4</ele>
        <time>2021-01-16T08:30:21Z</time>
      </trkpt>
      <trkpt lat="45.32741" lon="6.0466">
        <ele>1430.4</ele>
        <time>2021-01-16T08:30:22Z</time>
      </trkpt>
      <trkpt lat="45.3274" lon="6.0466">
        <ele>1430.4</ele>
        <time>2021-01-16T08:30:23Z</time>
      </trkpt>
      <trkpt lat="45.32739" lon="6.04659">
        <ele>1430.6</ele>
        <time>2021-01-16T08:30:24Z</time>
      </trkpt>
      <trkpt lat="45.32738" lon="6.04659">
        <ele>1430.6</ele>
        <time>2021-01-16T08:30:25Z</time>
      </trkpt>
      <trkpt lat="45.32737" lon="6.04658">
        <ele>1430.8</ele>
        <time>2021-01-16T08:30:26Z</time>
      </trkpt>
      <trkpt lat="45.32736" lon="6.04658">
        <ele>1431</ele>
        <time>2021-01-16T08:30:27Z</time>
      </trkpt>
      <trkpt lat="45.32736" lon="6.04657">
        <ele>1431</ele>
        <time>2021-01-16T08:30:28Z</time>
      </trkpt>
      <trkpt lat="45.32735" lon="6.04657">
        <ele>1431.2</ele>
        <time>2021-01-16T08:30:29Z</time>
      </trkpt>
      <trkpt lat="45.32733" lon="6.04658">
        <ele>1431.2</ele>
        <time>2021-01-16T08:30:30Z</time>
      </trkpt>
      <trkpt lat="45.32733" lon="6.04658">
        <ele>1431.2</ele>
        <time>2021-01-16T08:30:31Z</time>
      </trkpt>
      <trkpt lat="45.32732" lon="6.04658">
        <ele>1431.4</ele>
        <time>2021-01-16T08:30:32Z</time>
      </trkpt>
      <trkpt lat="45.32731" lon="6.04658">
        <ele>1431.4</ele>
        <time>2021-01-16T08:30:33Z</time>
      </trkpt>
      <trkpt lat="45.3273" lon="6.04657">
        <ele>1431.6</ele>
        <time>2021-01-16T08:30:34Z</time>
      </trkpt>
      <trkpt lat="45.32729" lon="6.04657">
        <ele>1431.6</ele>
        <time>2021-01-16T08:30:35Z</time>
      </trkpt>
      <trkpt lat="45.32728" lon="6.04657">
        <ele>1431.8</ele>
        <time>2021-01-16T08:30:36Z</time>
      </trkpt>
      <trkpt lat="45.32728" lon="6.04656">
        <ele>1431.8</ele>
        <time>2021-01-16T08:30:37Z</time>
      </trkpt>
      <trkpt lat="45.32727" lon="6.04656">
        <ele>1431.8</ele>
        <time>2021-01-16T08:30:38Z</time>
      </trkpt>
      <trkpt lat="45.32726" lon="6.04656">
        <ele>1432</ele>
        <time>2021-01-16T08:30:39Z</time>
      </trkpt>
      <trkpt lat="45.32725" lon="6.04656">
        <ele>1432</ele>
        <time>2021-01-16T08:30:40Z</time>
      </trkpt>
      <trkpt lat="45.32724" lon="6.04655">
        <ele>1432.2</ele>
        <time>2021-01-16T08:30:41Z</time>
      </trkpt>
      <trkpt lat="45.32723" lon="6.04655">
        <ele>1432.4</ele>
        <time>2021-01-16T08:30:42Z</time>
      </trkpt>
      <trkpt lat="45.32722" lon="6.04655">
        <ele>1432.4</ele>
        <time>2021-01-16T08:30:43Z</time>
      </trkpt>
      <trkpt lat="45.32721" lon="6.04655">
        <ele>1432.6</ele>
        <time>2021-01-16T08:30:44Z</time>
      </trkpt>
      <trkpt lat="45.3272" lon="6.04655">
        <ele>1432.6</ele>
        <time>2021-01-16T08:30:45Z</time>
      </trkpt>
      <trkpt lat="45.32719" lon="6.04655">
        <ele>1432.8</ele>
        <time>2021-01-16T08:30:46Z</time>
      </trkpt>
      <trkpt lat="45.32718" lon="6.04655">
        <ele>1432.8</ele>
        <time>2021-01-16T08:30:47Z</time>
      </trkpt>
      <trkpt lat="45.32717" lon="6.04656">
        <ele>1432.8</ele>
        <time>2021-01-16T08:30:48Z</time>
      </trkpt>
      <trkpt lat="45.32716" lon="6.04656">
        <ele>1433</ele>
        <time>2021-01-16T08:30:49Z</time>
      </trkpt>
      <trkpt lat="45.32714" lon="6.04656">
        <ele>1433</ele>
        <time>2021-01-16T08:30:50Z</time>
      </trkpt>
      <trkpt lat="45.32713" lon="6.04656">
        <ele>1433.2</ele>
        <time>2021-01-16T08:30:51Z</time>
      </trkpt>
      <trkpt lat="45.32712" lon="6.04656">
        <ele>1433.4</ele>
        <time>2021-01-16T08:30:52Z</time>
      </trkpt>
      <trkpt lat="45.32711" lon="6.04656">
        <ele>1433.6</ele>
        <time>2021-01-16T08:30:53Z</time>
      </trkpt>
      <trkpt lat="45.3271" lon="6.04656">
        <ele>1433.6</ele>
        <time>2021-01-16T08:30:54Z</time>
      </trkpt>
      <trkpt lat="45.32709" lon="6.04656">
        <ele>1433.6</ele>
        <time>2021-01-16T08:30:55Z</time>
      </trkpt>
      <trkpt lat="45.32708" lon="6.04656">
        <ele>1433.8</ele>
        <time>2021-01-16T08:30:56Z</time>
      </trkpt>
      <trkpt lat="45.32707" lon="6.04657">
        <ele>1433.8</ele>
        <time>2021-01-16T08:30:57Z</time>
      </trkpt>
      <trkpt lat="45.32706" lon="6.04657">
        <ele>1434</ele>
        <time>2021-01-16T08:30:58Z</time>
      </trkpt>
      <trkpt lat="45.32705" lon="6.04657">
        <ele>1434</ele>
        <time>2021-01-16T08:30:59Z</time>
      </trkpt>
      <trkpt lat="45.32703" lon="6.04658">
        <ele>1434.2</ele>
        <time>2021-01-16T08:31:00Z</time>
      </trkpt>
      <trkpt lat="45.32702" lon="6.04658">
        <ele>1434.2</ele>
        <time>2021-01-16T08:31:01Z</time>
      </trkpt>
      <trkpt lat="45.327" lon="6.04659">
        <ele>1434.4</ele>
        <time>2021-01-16T08:31:02Z</time>
      </trkpt>
      <trkpt lat="45.32699" lon="6.0466">
        <ele>1434.6</ele>
        <time>2021-01-16T08:31:03Z</time>
      </trkpt>
      <trkpt lat="45.32698" lon="6.0466">
        <ele>1434.6</ele>
        <time>2021-01-16T08:31:04Z</time>
      </trkpt>
      <trkpt lat="45.32697" lon="6.04661">
        <ele>1434.8</ele>
        <time>2021-01-16T08:31:05Z</time>
      </trkpt>
      <trkpt lat="45.32696" lon="6.04661">
        <ele>1435</ele>
        <time>2021-01-16T08:31:06Z</time>
      </trkpt>
      <trkpt lat="45.32696" lon="6.04661">
        <ele>1435.2</ele>
        <time>2021-01-16T08:31:07Z</time>
      </trkpt>
      <trkpt lat="45.32694" lon="6.04662">
        <ele>1435.2</ele>
        <time>2021-01-16T08:31:08Z</time>
      </trkpt>
      <trkpt lat="45.32693" lon="6.04663">
        <ele>1435.4</ele>
        <time>2021-01-16T08:31:09Z</time>
      </trkpt>
      <trkpt lat="45.32692" lon="6.04664">
        <ele>1435.4</ele>
        <time>2021-01-16T08:31:10Z</time>
      </trkpt>
      <trkpt lat="45.32691" lon="6.04664">
        <ele>1435.6</ele>
        <time>2021-01-16T08:31:11Z</time>
      </trkpt>
      <trkpt lat="45.3269" lon="6.04665">
        <ele>1435.6</ele>
        <time>2021-01-16T08:31:12Z</time>
      </trkpt>
      <trkpt lat="45.32689" lon="6.04665">
        <ele>1435.8</ele>
        <time>2021-01-16T08:31:13Z</time>
      </trkpt>
      <trkpt lat="45.32688" lon="6.04666">
        <ele>1435.8</ele>
        <time>2021-01-16T08:31:14Z</time>
      </trkpt>
      <trkpt lat="45.32688" lon="6.04667">
        <ele>1435.8</ele>
        <time>2021-01-16T08:31:15Z</time>
      </trkpt>
      <trkpt lat="45.32686" lon="6.04667">
        <ele>1436</ele>
        <time>2021-01-16T08:31:16Z</time>
      </trkpt>
      <trkpt lat="45.32685" lon="6.04669">
        <ele>1436</ele>
        <time>2021-01-16T08:31:17Z</time>
      </trkpt>
      <trkpt lat="45.32683" lon="6.04669">
        <ele>1436.2</ele>
        <time>2021-01-16T08:31:18Z</time>
      </trkpt>
      <trkpt lat="45.32682" lon="6.04669">
        <ele>1436.4</ele>
        <time>2021-01-16T08:31:19Z</time>
      </trkpt>
      <trkpt lat="45.32681" lon="6.0467">
        <ele>1436.4</ele>
        <time>2021-01-16T08:31:20Z</time>
      </trkpt>
      <trkpt lat="45.3268" lon="6.0467">
        <ele>1436.6</ele>
        <time>2021-01-16T08:31:21Z</time>
      </trkpt>
      <trkpt lat="45.32679" lon="6.0467">
        <ele>1436.8</ele>
        <time>2021-01-16T08:31:22Z</time>
      </trkpt>
      <trkpt lat="45.32678" lon="6.0467">
        <ele>1436.8</ele>
        <time>2021-01-16T08:31:23Z</time>
      </trkpt>
      <trkpt lat="45.32676" lon="6.04671">
        <ele>1436.8</ele>
        <time>2021-01-16T08:31:24Z</time>
      </trkpt>
      <trkpt lat="45.32675" lon="6.04671">
        <ele>1437</ele>
        <time>2021-01-16T08:31:25Z</time>
      </trkpt>
      <trkpt lat="45.32674" lon="6.04671">
        <ele>1437</ele>
        <time>2021-01-16T08:31:26Z</time>
      </trkpt>
      <trkpt lat="45.32673" lon="6.04672">
        <ele>1437.2</ele>
        <time>2021-01-16T08:31:27Z</time>
      </trkpt>
      <trkpt lat="45.32672" lon="6.04672">
        <ele>1437.4</ele>
        <time>2021-01-16T08:31:28Z</time>
      </trkpt>
      <trkpt lat="45.32671" lon="6.04672">
        <ele>1437.6</ele>
        <time>2021-01-16T08:31:29Z</time>
      </trkpt>
      <trkpt lat="45.3267" lon="6.04673">
        <ele>1437.8</ele>
        <time>2021-01-16T08:31:30Z</time>
      </trkpt>
      <trkpt lat="45.3267" lon="6.04673">
        <ele>1438</ele>
        <time>2021-01-16T08:31:31Z</time>
      </trkpt>
      <trkpt lat="45.32669" lon="6.04673">
        <ele>1438</ele>
        <time>2021-01-16T08:31:32Z</time>
      </trkpt>
      <trkpt lat="45.32667" lon="6.04674">
        <ele>1438</ele>
        <time>2021-01-16T08:31:33Z</time>
      </trkpt>
      <trkpt lat="45.32666" lon="6.04674">
        <ele>1438.2</ele>
        <time>2021-01-16T08:31:34Z</time>
      </trkpt>
      <trkpt lat="45.32664" lon="6.04675">
        <ele>1438.2</ele>
        <time>2021-01-16T08:31:35Z</time>
      </trkpt>
      <trkpt lat="45.32663" lon="6.04675">
        <ele>1438.2</ele>
        <time>2021-01-16T08:31:36Z</time>
      </trkpt>
      <trkpt lat="45.32662" lon="6.04676">
        <ele>1438.4</ele>
        <time>2021-01-16T08:31:37Z</time>
      </trkpt>
      <trkpt lat="45.32661" lon="6.04676">
        <ele>1438.4</ele>
        <time>2021-01-16T08:31:38Z</time>
      </trkpt>
      <trkpt lat="45.3266" lon="6.04677">
        <ele>1438.6</ele>
        <time>2021-01-16T08:31:39Z</time>
      </trkpt>
      <trkpt lat="45.32659" lon="6.04678">
        <ele>1438.6</ele>
        <time>2021-01-16T08:31:40Z</time>
      </trkpt>
      <trkpt lat="45.32658" lon="6.04679">
        <ele>1438.6</ele>
        <time>2021-01-16T08:31:41Z</time>
      </trkpt>
      <trkpt lat="45.32656" lon="6.0468">
        <ele>1438.8</ele>
        <time>2021-01-16T08:31:42Z</time>
      </trkpt>
      <trkpt lat="45.32655" lon="6.0468">
        <ele>1438.8</ele>
        <time>2021-01-16T08:31:43Z</time>
      </trkpt>
      <trkpt lat="45.32654" lon="6.04681">
        <ele>1439</ele>
        <time>2021-01-16T08:31:44Z</time>
      </trkpt>
      <trkpt lat="45.32653" lon="6.04681">
        <ele>1439</ele>
        <time>2021-01-16T08:31:45Z</time>
      </trkpt>
      <trkpt lat="45.32652" lon="6.04682">
        <ele>1439.2</ele>
        <time>2021-01-16T08:31:46Z</time>
      </trkpt>
      <trkpt lat="45.32651" lon="6.04682">
        <ele>1439.2</ele>
        <time>2021-01-16T08:31:47Z</time>
      </trkpt>
      <trkpt lat="45.3265" lon="6.04683">
        <ele>1439.4</ele>
        <time>2021-01-16T08:31:48Z</time>
      </trkpt>
      <trkpt lat="45.32649" lon="6.04683">
        <ele>1439.4</ele>
        <time>2021-01-16T08:31:49Z</time>
      </trkpt>
      <trkpt lat="45.32648" lon="6.04684">
        <ele>1439.6</ele>
        <time>2021-01-16T08:31:50Z</time>
      </trkpt>
      <trkpt lat="45.32646" lon="6.04684">
        <ele>1439.6</ele>
        <time>2021-01-16T08:31:51Z</time>
      </trkpt>
      <trkpt lat="45.32645" lon="6.04685">
        <ele>1439.8</ele>
        <time>2021-01-16T08:31:52Z</time>
      </trkpt>
      <trkpt lat="45.32644" lon="6.04685">
        <ele>1439.8</ele>
        <time>2021-01-16T08:31:53Z</time>
      </trkpt>
      <trkpt lat="45.32643" lon="6.04685">
        <ele>1440</ele>
        <time>2021-01-16T08:31:54Z</time>
      </trkpt>
      <trkpt lat="45.32642" lon="6.04685">
        <ele>1440</ele>
        <time>2021-01-16T08:31:55Z</time>
      </trkpt>
      <trkpt lat="45.32641" lon="6.04685">
        <ele>1440.2</ele>
        <time>2021-01-16T08:31:56Z</time>
      </trkpt>
      <trkpt lat="45.3264" lon="6.04685">
        <ele>1440.4</ele>
        <time>2021-01-16T08:31:57Z</time>
      </trkpt>
      <trkpt lat="45.32639" lon="6.04686">
        <ele>1440.4</ele>
        <time>2021-01-16T08:31:58Z</time>
      </trkpt>
      <trkpt lat="45.32638" lon="6.04686">
        <ele>1440.6</ele>
        <time>2021-01-16T08:31:59Z</time>
      </trkpt>
      <trkpt lat="45.32637" lon="6.04686">
        <ele>1440.6</ele>
        <time>2021-01-16T08:32:00Z</time>
      </trkpt>
      <trkpt lat="45.32635" lon="6.04686">
        <ele>1440.8</ele>
        <time>2021-01-16T08:32:01Z</time>
      </trkpt>
      <trkpt lat="45.32635" lon="6.04686">
        <ele>1440.8</ele>
        <time>2021-01-16T08:32:02Z</time>
      </trkpt>
      <trkpt lat="45.32634" lon="6.04687">
        <ele>1441</ele>
        <time>2021-01-16T08:32:03Z</time>
      </trkpt>
      <trkpt lat="45.32633" lon="6.04687">
        <ele>1441</ele>
        <time>2021-01-16T08:32:04Z</time>
      </trkpt>
      <trkpt lat="45.32632" lon="6.04688">
        <ele>1441</ele>
        <time>2021-01-16T08:32:05Z</time>
      </trkpt>
      <trkpt lat="45.32631" lon="6.04688">
        <ele>1441</ele>
        <time>2021-01-16T08:32:06Z</time>
      </trkpt>
      <trkpt lat="45.3263" lon="6.04688">
        <ele>1441.2</ele>
        <time>2021-01-16T08:32:07Z</time>
      </trkpt>
      <trkpt lat="45.32628" lon="6.04688">
        <ele>1441.2</ele>
        <time>2021-01-16T08:32:08Z</time>
      </trkpt>
      <trkpt lat="45.32627" lon="6.04688">
        <ele>1441.4</ele>
        <time>2021-01-16T08:32:09Z</time>
      </trkpt>
      <trkpt lat="45.32627" lon="6.04688">
        <ele>1441.4</ele>
        <time>2021-01-16T08:32:10Z</time>
      </trkpt>
      <trkpt lat="45.32626" lon="6.04689">
        <ele>1441.4</ele>
        <time>2021-01-16T08:32:11Z</time>
      </trkpt>
      <trkpt lat="45.32625" lon="6.04688">
        <ele>1441.6</ele>
        <time>2021-01-16T08:32:12Z</time>
      </trkpt>
      <trkpt lat="45.32624" lon="6.04688">
        <ele>1441.6</ele>
        <time>2021-01-16T08:32:13Z</time>
      </trkpt>
      <trkpt lat="45.32623" lon="6.04688">
        <ele>1441.8</ele>
        <time>2021-01-16T08:32:14Z</time>
      </trkpt>
      <trkpt lat="45.32622" lon="6.04688">
        <ele>1441.8</ele>
        <time>2021-01-16T08:32:15Z</time>
      </trkpt>
      <trkpt lat="45.32621" lon="6.04688">
        <ele>1441.8</ele>
        <time>2021-01-16T08:32:16Z</time>
      </trkpt>
      <trkpt lat="45.32621" lon="6.04687">
        <ele>1442</ele>
        <time>2021-01-16T08:32:17Z</time>
      </trkpt>
      <trkpt lat="45.32621" lon="6.04687">
        <ele>1442</ele>
        <time>2021-01-16T08:32:18Z</time>
      </trkpt>
      <trkpt lat="45.32621" lon="6.04687">
        <ele>1441.8</ele>
        <time>2021-01-16T08:32:19Z</time>
      </trkpt>
      <trkpt lat="45.32621" lon="6.04687">
        <ele>1441.8</ele>
        <time>2021-01-16T08:32:20Z</time>
      </trkpt>
      <trkpt lat="45.32621" lon="6.04687">
        <ele>1442</ele>
        <time>2021-01-16T08:32:21Z</time>
      </trkpt>
      <trkpt lat="45.32619" lon="6.04687">
        <ele>1442</ele>
        <time>2021-01-16T08:32:22Z</time>
      </trkpt>
      <trkpt lat="45.32618" lon="6.04687">
        <ele>1442.2</ele>
        <time>2021-01-16T08:32:23Z</time>
      </trkpt>
      <trkpt lat="45.32617" lon="6.04687">
        <ele>1442.2</ele>
        <time>2021-01-16T08:32:24Z</time>
      </trkpt>
      <trkpt lat="45.32616" lon="6.04687">
        <ele>1442.4</ele>
        <time>2021-01-16T08:32:25Z</time>
      </trkpt>
      <trkpt lat="45.32615" lon="6.04687">
        <ele>1442.4</ele>
        <time>2021-01-16T08:32:26Z</time>
      </trkpt>
      <trkpt lat="45.32614" lon="6.04687">
        <ele>1442.6</ele>
        <time>2021-01-16T08:32:27Z</time>
      </trkpt>
      <trkpt lat="45.32613" lon="6.04688">
        <ele>1442.6</ele>
        <time>2021-01-16T08:32:28Z</time>
      </trkpt>
      <trkpt lat="45.32612" lon="6.04688">
        <ele>1442.6</ele>
        <time>2021-01-16T08:32:29Z</time>
      </trkpt>
      <trkpt lat="45.3261" lon="6.04688">
        <ele>1442.8</ele>
        <time>2021-01-16T08:32:30Z</time>
      </trkpt>
      <trkpt lat="45.32609" lon="6.04688">
        <ele>1442.8</ele>
        <time>2021-01-16T08:32:31Z</time>
      </trkpt>
      <trkpt lat="45.32607" lon="6.04689">
        <ele>1442.8</ele>
        <time>2021-01-16T08:32:32Z</time>
      </trkpt>
      <trkpt lat="45.32606" lon="6.04688">
        <ele>1443</ele>
        <time>2021-01-16T08:32:33Z</time>
      </trkpt>
      <trkpt lat="45.32606" lon="6.04688">
        <ele>1443</ele>
        <time>2021-01-16T08:32:34Z</time>
      </trkpt>
      <trkpt lat="45.32605" lon="6.04687">
        <ele>1443.2</ele>
        <time>2021-01-16T08:32:35Z</time>
      </trkpt>
      <trkpt lat="45.32604" lon="6.04687">
        <ele>1443.2</ele>
        <time>2021-01-16T08:32:36Z</time>
      </trkpt>
      <trkpt lat="45.32603" lon="6.04688">
        <ele>1443.4</ele>
        <time>2021-01-16T08:32:37Z</time>
      </trkpt>
      <trkpt lat="45.32601" lon="6.04688">
        <ele>1443.4</ele>
        <time>2021-01-16T08:32:38Z</time>
      </trkpt>
      <trkpt lat="45.326" lon="6.04688">
        <ele>1443.6</ele>
        <time>2021-01-16T08:32:39Z</time>
      </trkpt>
      <trkpt lat="45.32599" lon="6.04688">
        <ele>1443.6</ele>
        <time>2021-01-16T08:32:40Z</time>
      </trkpt>
      <trkpt lat="45.32598" lon="6.04689">
        <ele>1443.8</ele>
        <time>2021-01-16T08:32:41Z</time>
      </trkpt>
      <trkpt lat="45.32597" lon="6.04689">
        <ele>1443.8</ele>
        <time>2021-01-16T08:32:42Z</time>
      </trkpt>
      <trkpt lat="45.32596" lon="6.04689">
        <ele>1444</ele>
        <time>2021-01-16T08:32:43Z</time>
      </trkpt>
      <trkpt lat="45.32595" lon="6.0469">
        <ele>1444</ele>
        <time>2021-01-16T08:32:44Z</time>
      </trkpt>
      <trkpt lat="45.32594" lon="6.0469">
        <ele>1444.2</ele>
        <time>2021-01-16T08:32:45Z</time>
      </trkpt>
      <trkpt lat="45.32593" lon="6.0469">
        <ele>1444.4</ele>
        <time>2021-01-16T08:32:46Z</time>
      </trkpt>
      <trkpt lat="45.32592" lon="6.0469">
        <ele>1444.4</ele>
        <time>2021-01-16T08:32:47Z</time>
      </trkpt>
      <trkpt lat="45.32591" lon="6.0469">
        <ele>1444.4</ele>
        <time>2021-01-16T08:32:48Z</time>
      </trkpt>
      <trkpt lat="45.3259" lon="6.0469">
        <ele>1444.4</ele>
        <time>2021-01-16T08:32:49Z</time>
      </trkpt>
      <trkpt lat="45.32589" lon="6.0469">
        <ele>1444.6</ele>
        <time>2021-01-16T08:32:50Z</time>
      </trkpt>
      <trkpt lat="45.32588" lon="6.04691">
        <ele>1444.6</ele>
        <time>2021-01-16T08:32:51Z</time>
      </trkpt>
      <trkpt lat="45.32587" lon="6.04691">
        <ele>1444.8</ele>
        <time>2021-01-16T08:32:52Z</time>
      </trkpt>
      <trkpt lat="45.32586" lon="6.04691">
        <ele>1444.8</ele>
        <time>2021-01-16T08:32:53Z</time>
      </trkpt>
      <trkpt lat="45.32585" lon="6.04691">
        <ele>1445</ele>
        <time>2021-01-16T08:32:54Z</time>
      </trkpt>
      <trkpt lat="45.32585" lon="6.04691">
        <ele>1445</ele>
        <time>2021-01-16T08:32:55Z</time>
      </trkpt>
      <trkpt lat="45.32584" lon="6.04692">
        <ele>1445</ele>
        <time>2021-01-16T08:32:56Z</time>
      </trkpt>
      <trkpt lat="45.32583" lon="6.04691">
        <ele>1445</ele>
        <time>2021-01-16T08:32:57Z</time>
      </trkpt>
      <trkpt lat="45.32582" lon="6.04691">
        <ele>1445.2</ele>
        <time>2021-01-16T08:32:58Z</time>
      </trkpt>
      <trkpt lat="45.32581" lon="6.04692">
        <ele>1445.2</ele>
        <time>2021-01-16T08:32:59Z</time>
      </trkpt>
      <trkpt lat="45.3258" lon="6.04692">
        <ele>1445.4</ele>
        <time>2021-01-16T08:33:00Z</time>
      </trkpt>
      <trkpt lat="45.32579" lon="6.04693">
        <ele>1445.6</ele>
        <time>2021-01-16T08:33:01Z</time>
      </trkpt>
      <trkpt lat="45.32578" lon="6.04694">
        <ele>1445.6</ele>
        <time>2021-01-16T08:33:02Z</time>
      </trkpt>
      <trkpt lat="45.32577" lon="6.04694">
        <ele>1445.8</ele>
        <time>2021-01-16T08:33:03Z</time>
      </trkpt>
      <trkpt lat="45.32576" lon="6.04693">
        <ele>1445.8</ele>
        <time>2021-01-16T08:33:04Z</time>
      </trkpt>
      <trkpt lat="45.32575" lon="6.04693">
        <ele>1446</ele>
        <time>2021-01-16T08:33:05Z</time>
      </trkpt>
      <trkpt lat="45.32574" lon="6.04693">
        <ele>1446</ele>
        <time>2021-01-16T08:33:06Z</time>
      </trkpt>
      <trkpt lat="45.32573" lon="6.04693">
        <ele>1446</ele>
        <time>2021-01-16T08:33:07Z</time>
      </trkpt>
      <trkpt lat="45.32572" lon="6.04693">
        <ele>1446.2</ele>
        <time>2021-01-16T08:33:08Z</time>
      </trkpt>
      <trkpt lat="45.32571" lon="6.04693">
        <ele>1446.2</ele>
        <time>2021-01-16T08:33:09Z</time>
      </trkpt>
      <trkpt lat="45.3257" lon="6.04693">
        <ele>1446.2</ele>
        <time>2021-01-16T08:33:10Z</time>
      </trkpt>
      <trkpt lat="45.32569" lon="6.04693">
        <ele>1446.4</ele>
        <time>2021-01-16T08:33:11Z</time>
      </trkpt>
      <trkpt lat="45.32568" lon="6.04693">
        <ele>1446.6</ele>
        <time>2021-01-16T08:33:12Z</time>
      </trkpt>
      <trkpt lat="45.32566" lon="6.04693">
        <ele>1446.6</ele>
        <time>2021-01-16T08:33:13Z</time>
      </trkpt>
      <trkpt lat="45.32565" lon="6.04694">
        <ele>1446.8</ele>
        <time>2021-01-16T08:33:14Z</time>
      </trkpt>
      <trkpt lat="45.32564" lon="6.04694">
        <ele>1447</ele>
        <time>2021-01-16T08:33:15Z</time>
      </trkpt>
      <trkpt lat="45.32562" lon="6.04695">
        <ele>1447</ele>
        <time>2021-01-16T08:33:16Z</time>
      </trkpt>
      <trkpt lat="45.32561" lon="6.04695">
        <ele>1447</ele>
        <time>2021-01-16T08:33:17Z</time>
      </trkpt>
      <trkpt lat="45.32561" lon="6.04696">
        <ele>1447.2</ele>
        <time>2021-01-16T08:33:18Z</time>
      </trkpt>
      <trkpt lat="45.3256" lon="6.04697">
        <ele>1447.2</ele>
        <time>2021-01-16T08:33:19Z</time>
      </trkpt>
      <trkpt lat="45.32559" lon="6.04697">
        <ele>1447.2</ele>
        <time>2021-01-16T08:33:20Z</time>
      </trkpt>
      <trkpt lat="45.32558" lon="6.04698">
        <ele>1447.2</ele>
        <time>2021-01-16T08:33:21Z</time>
      </trkpt>
      <trkpt lat="45.32557" lon="6.04699">
        <ele>1447.4</ele>
        <time>2021-01-16T08:33:22Z</time>
      </trkpt>
      <trkpt lat="45.32557" lon="6.04699">
        <ele>1447.4</ele>
        <time>2021-01-16T08:33:23Z</time>
      </trkpt>
      <trkpt lat="45.32556" lon="6.047">
        <ele>1447.6</ele>
        <time>2021-01-16T08:33:24Z</time>
      </trkpt>
      <trkpt lat="45.32556" lon="6.047">
        <ele>1447.6</ele>
        <time>2021-01-16T08:33:25Z</time>
      </trkpt>
      <trkpt lat="45.32556" lon="6.047">
        <ele>1447.4</ele>
        <time>2021-01-16T08:33:26Z</time>
      </trkpt>
      <trkpt lat="45.32556" lon="6.047">
        <ele>1447.4</ele>
        <time>2021-01-16T08:33:27Z</time>
      </trkpt>
      <trkpt lat="45.32555" lon="6.04701">
        <ele>1447.4</ele>
        <time>2021-01-16T08:33:28Z</time>
      </trkpt>
      <trkpt lat="45.32554" lon="6.04701">
        <ele>1447.6</ele>
        <time>2021-01-16T08:33:29Z</time>
      </trkpt>
      <trkpt lat="45.32552" lon="6.04702">
        <ele>1447.6</ele>
        <time>2021-01-16T08:33:30Z</time>
      </trkpt>
      <trkpt lat="45.32551" lon="6.04702">
        <ele>1447.8</ele>
        <time>2021-01-16T08:33:31Z</time>
      </trkpt>
      <trkpt lat="45.32551" lon="6.04702">
        <ele>1448</ele>
        <time>2021-01-16T08:33:32Z</time>
      </trkpt>
      <trkpt lat="45.3255" lon="6.04703">
        <ele>1448</ele>
        <time>2021-01-16T08:33:33Z</time>
      </trkpt>
      <trkpt lat="45.32548" lon="6.04704">
        <ele>1448.2</ele>
        <time>2021-01-16T08:33:34Z</time>
      </trkpt>
      <trkpt lat="45.32547" lon="6.04705">
        <ele>1448.4</ele>
        <time>2021-01-16T08:33:35Z</time>
      </trkpt>
      <trkpt lat="45.32546" lon="6.04705">
        <ele>1448.4</ele>
        <time>2021-01-16T08:33:36Z</time>
      </trkpt>
      <trkpt lat="45.32545" lon="6.04706">
        <ele>1448.4</ele>
        <time>2021-01-16T08:33:37Z</time>
      </trkpt>
      <trkpt lat="45.32544" lon="6.04707">
        <ele>1448.6</ele>
        <time>2021-01-16T08:33:38Z</time>
      </trkpt>
      <trkpt lat="45.32543" lon="6.04707">
        <ele>1448.6</ele>
        <time>2021-01-16T08:33:39Z</time>
      </trkpt>
      <trkpt lat="45.32543" lon="6.04708">
        <ele>1448.6</ele>
        <time>2021-01-16T08:33:40Z</time>
      </trkpt>
      <trkpt lat="45.32542" lon="6.04709">
        <ele>1448.8</ele>
        <time>2021-01-16T08:33:41Z</time>
      </trkpt>
      <trkpt lat="45.32541" lon="6.0471">
        <ele>1448.8</ele>
        <time>2021-01-16T08:33:42Z</time>
      </trkpt>
      <trkpt lat="45.3254" lon="6.04711">
        <ele>1448.8</ele>
        <time>2021-01-16T08:33:43Z</time>
      </trkpt>
      <trkpt lat="45.3254" lon="6.04711">
        <ele>1449</ele>
        <time>2021-01-16T08:33:44Z</time>
      </trkpt>
      <trkpt lat="45.32539" lon="6.04712">
        <ele>1449</ele>
        <time>2021-01-16T08:33:45Z</time>
      </trkpt>
      <trkpt lat="45.32538" lon="6.04713">
        <ele>1449.2</ele>
        <time>2021-01-16T08:33:46Z</time>
      </trkpt>
      <trkpt lat="45.32537" lon="6.04714">
        <ele>1449.2</ele>
        <time>2021-01-16T08:33:47Z</time>
      </trkpt>
      <trkpt lat="45.32537" lon="6.04715">
        <ele>1449.2</ele>
        <time>2021-01-16T08:33:48Z</time>
      </trkpt>
      <trkpt lat="45.32536" lon="6.04716">
        <ele>1449.4</ele>
        <time>2021-01-16T08:33:49Z</time>
      </trkpt>
      <trkpt lat="45.32535" lon="6.04717">
        <ele>1449.4</ele>
        <time>2021-01-16T08:33:50Z</time>
      </trkpt>
      <trkpt lat="45.32535" lon="6.04718">
        <ele>1449.6</ele>
        <time>2021-01-16T08:33:51Z</time>
      </trkpt>
      <trkpt lat="45.32534" lon="6.04719">
        <ele>1449.6</ele>
        <time>2021-01-16T08:33:52Z</time>
      </trkpt>
      <trkpt lat="45.32533" lon="6.0472">
        <ele>1449.6</ele>
        <time>2021-01-16T08:33:53Z</time>
      </trkpt>
      <trkpt lat="45.32532" lon="6.04721">
        <ele>1449.8</ele>
        <time>2021-01-16T08:33:54Z</time>
      </trkpt>
      <trkpt lat="45.32531" lon="6.04722">
        <ele>1449.8</ele>
        <time>2021-01-16T08:33:55Z</time>
      </trkpt>
      <trkpt lat="45.32531" lon="6.04723">
        <ele>1450</ele>
        <time>2021-01-16T08:33:56Z</time>
      </trkpt>
      <trkpt lat="45.3253" lon="6.04725">
        <ele>1450</ele>
        <time>2021-01-16T08:33:57Z</time>
      </trkpt>
      <trkpt lat="45.32529" lon="6.04726">
        <ele>1450</ele>
        <time>2021-01-16T08:33:58Z</time>
      </trkpt>
      <trkpt lat="45.32529" lon="6.04727">
        <ele>1450.2</ele>
        <time>2021-01-16T08:33:59Z</time>
      </trkpt>
      <trkpt lat="45.32528" lon="6.04728">
        <ele>1450.2</ele>
        <time>2021-01-16T08:34:00Z</time>
      </trkpt>
      <trkpt lat="45.32527" lon="6.04729">
        <ele>1450.2</ele>
        <time>2021-01-16T08:34:01Z</time>
      </trkpt>
      <trkpt lat="45.32527" lon="6.0473">
        <ele>1450.4</ele>
        <time>2021-01-16T08:34:02Z</time>
      </trkpt>
      <trkpt lat="45.32525" lon="6.04732">
        <ele>1450.4</ele>
        <time>2021-01-16T08:34:03Z</time>
      </trkpt>
      <trkpt lat="45.32524" lon="6.04733">
        <ele>1450.6</ele>
        <time>2021-01-16T08:34:04Z</time>
      </trkpt>
      <trkpt lat="45.32523" lon="6.04733">
        <ele>1450.8</ele>
        <time>2021-01-16T08:34:05Z</time>
      </trkpt>
      <trkpt lat="45.32522" lon="6.04734">
        <ele>1450.8</ele>
        <time>2021-01-16T08:34:06Z</time>
      </trkpt>
      <trkpt lat="45.32521" lon="6.04734">
        <ele>1451</ele>
        <time>2021-01-16T08:34:07Z</time>
      </trkpt>
      <trkpt lat="45.32519" lon="6.04735">
        <ele>1451</ele>
        <time>2021-01-16T08:34:08Z</time>
      </trkpt>
      <trkpt lat="45.32519" lon="6.04735">
        <ele>1451</ele>
        <time>2021-01-16T08:34:09Z</time>
      </trkpt>
      <trkpt lat="45.32518" lon="6.04736">
        <ele>1451</ele>
        <time>2021-01-16T08:34:10Z</time>
      </trkpt>
      <trkpt lat="45.32517" lon="6.04736">
        <ele>1451.2</ele>
        <time>2021-01-16T08:34:11Z</time>
      </trkpt>
      <trkpt lat="45.32516" lon="6.04736">
        <ele>1451.2</ele>
        <time>2021-01-16T08:34:12Z</time>
      </trkpt>
      <trkpt lat="45.32515" lon="6.04736">
        <ele>1451.2</ele>
        <time>2021-01-16T08:34:13Z</time>
      </trkpt>
      <trkpt lat="45.32514" lon="6.04736">
        <ele>1451.4</ele>
        <time>2021-01-16T08:34:14Z</time>
      </trkpt>
      <trkpt lat="45.32513" lon="6.04736">
        <ele>1451.4</ele>
        <time>2021-01-16T08:34:15Z</time>
      </trkpt>
      <trkpt lat="45.32512" lon="6.04735">
        <ele>1451.4</ele>
        <time>2021-01-16T08:34:16Z</time>
      </trkpt>
      <trkpt lat="45.32512" lon="6.04735">
        <ele>1451.4</ele>
        <time>2021-01-16T08:34:17Z</time>
      </trkpt>
      <trkpt lat="45.32512" lon="6.04736">
        <ele>1451.4</ele>
        <time>2021-01-16T08:34:18Z</time>
      </trkpt>
      <trkpt lat="45.32512" lon="6.04736">
        <ele>1451.4</ele>
        <time>2021-01-16T08:34:19Z</time>
      </trkpt>
      <trkpt lat="45.32512" lon="6.04736">
        <ele>1451.4</ele>
        <time>2021-01-16T08:34:20Z</time>
      </trkpt>
      <trkpt lat="45.32512" lon="6.04736">
        <ele>1451.4</ele>
        <time>2021-01-16T08:34:21Z</time>
      </trkpt>
      <trkpt lat="45.32512" lon="6.04736">
        <ele>1451.6</ele>
        <time>2021-01-16T08:34:22Z</time>
      </trkpt>
      <trkpt lat="45.32512" lon="6.04736">
        <ele>1451.6</ele>
        <time>2021-01-16T08:34:23Z</time>
      </trkpt>
      <trkpt lat="45.32512" lon="6.04736">
        <ele>1451.6</ele>
        <time>2021-01-16T08:34:24Z</time>
      </trkpt>
      <trkpt lat="45.32512" lon="6.04736">
        <ele>1451.6</ele>
        <time>2021-01-16T08:34:25Z</time>
      </trkpt>
      <trkpt lat="45.32512" lon="6.04736">
        <ele>1451.6</ele>
        <time>2021-01-16T08:34:26Z</time>
      </trkpt>
      <trkpt lat="45.32512" lon="6.04736">
        <ele>1451.6</ele>
        <time>2021-01-16T08:34:27Z</time>
      </trkpt>
      <trkpt lat="45.32512" lon="6.04736">
        <ele>1451.6</ele>
        <time>2021-01-16T08:34:28Z</time>
      </trkpt>
      <trkpt lat="45.32512" lon="6.04736">
        <ele>1451.6</ele>
        <time>2021-01-16T08:34:29Z</time>
      </trkpt>
      <trkpt lat="45.32512" lon="6.04736">
        <ele>1451.6</ele>
        <time>2021-01-16T08:34:30Z</time>
      </trkpt>
      <trkpt lat="45.32512" lon="6.04736">
        <ele>1451.6</ele>
        <time>2021-01-16T08:34:31Z</time>
      </trkpt>
      <trkpt lat="45.32512" lon="6.04736">
        <ele>1451.6</ele>
        <time>2021-01-16T08:34:32Z</time>
      </trkpt>
      <trkpt lat="45.32512" lon="6.04736">
        <ele>1451.6</ele>
        <time>2021-01-16T08:34:33Z</time>
      </trkpt>
      <trkpt lat="45.32512" lon="6.04736">
        <ele>1451.6</ele>
        <time>2021-01-16T08:34:34Z</time>
      </trkpt>
      <trkpt lat="45.32512" lon="6.04736">
        <ele>1451.6</ele>
        <time>2021-01-16T08:34:35Z</time>
      </trkpt>
      <trkpt lat="45.32512" lon="6.04736">
        <ele>1451.6</ele>
        <time>2021-01-16T08:34:36Z</time>
      </trkpt>
      <trkpt lat="45.32512" lon="6.04736">
        <ele>1451.6</ele>
        <time>2021-01-16T08:34:37Z</time>
      </trkpt>
      <trkpt lat="45.32512" lon="6.04736">
        <ele>1451.6</ele>
        <time>2021-01-16T08:34:38Z</time>
      </trkpt>
      <trkpt lat="45.32512" lon="6.04736">
        <ele>1451.6</ele>
        <time>2021-01-16T08:34:39Z</time>
      </trkpt>
      <trkpt lat="45.32512" lon="6.04736">
        <ele>1451.6</ele>
        <time>2021-01-16T08:34:40Z</time>
      </trkpt>
      <trkpt lat="45.32512" lon="6.04736">
        <ele>1451.6</ele>
        <time>2021-01-16T08:34:41Z</time>
      </trkpt>
      <trkpt lat="45.32512" lon="6.04736">
        <ele>1451.6</ele>
        <time>2021-01-16T08:34:42Z</time>
      </trkpt>
      <trkpt lat="45.32512" lon="6.04736">
        <ele>1451.6</ele>
        <time>2021-01-16T08:34:43Z</time>
      </trkpt>
      <trkpt lat="45.32512" lon="6.04736">
        <ele>1451.6</ele>
        <time>2021-01-16T08:34:44Z</time>
      </trkpt>
      <trkpt lat="45.32512" lon="6.04736">
        <ele>1451.6</ele>
        <time>2021-01-16T08:34:45Z</time>
      </trkpt>
      <trkpt lat="45.32512" lon="6.04736">
        <ele>1451.6</ele>
        <time>2021-01-16T08:34:46Z</time>
      </trkpt>
      <trkpt lat="45.32512" lon="6.04736">
        <ele>1451.4</ele>
        <time>2021-01-16T08:34:47Z</time>
      </trkpt>
      <trkpt lat="45.32512" lon="6.04736">
        <ele>1451.4</ele>
        <time>2021-01-16T08:34:48Z</time>
      </trkpt>
      <trkpt lat="45.32512" lon="6.04736">
        <ele>1451.4</ele>
        <time>2021-01-16T08:34:49Z</time>
      </trkpt>
      <trkpt lat="45.32512" lon="6.04736">
        <ele>1451.6</ele>
        <time>2021-01-16T08:34:50Z</time>
      </trkpt>
      <trkpt lat="45.32512" lon="6.04736">
        <ele>1451.6</ele>
        <time>2021-01-16T08:34:51Z</time>
      </trkpt>
      <trkpt lat="45.32512" lon="6.04736">
        <ele>1451.6</ele>
        <time>2021-01-16T08:34:52Z</time>
      </trkpt>
      <trkpt lat="45.32512" lon="6.04736">
        <ele>1451.6</ele>
        <time>2021-01-16T08:34:53Z</time>
      </trkpt>
      <trkpt lat="45.32512" lon="6.04736">
        <ele>1451.6</ele>
        <time>2021-01-16T08:34:54Z</time>
      </trkpt>
      <trkpt lat="45.32512" lon="6.04736">
        <ele>1451.6</ele>
        <time>2021-01-16T08:34:55Z</time>
      </trkpt>
      <trkpt lat="45.32512" lon="6.04736">
        <ele>1451.6</ele>
        <time>2021-01-16T08:34:56Z</time>
      </trkpt>
      <trkpt lat="45.32512" lon="6.04736">
        <ele>1451.6</ele>
        <time>2021-01-16T08:34:57Z</time>
      </trkpt>
      <trkpt lat="45.32512" lon="6.04736">
        <ele>1451.6</ele>
        <time>2021-01-16T08:34:58Z</time>
      </trkpt>
      <trkpt lat="45.32512" lon="6.04736">
        <ele>1451.6</ele>
        <time>2021-01-16T08:34:59Z</time>
      </trkpt>
      <trkpt lat="45.32512" lon="6.04736">
        <ele>1451.6</ele>
        <time>2021-01-16T08:35:00Z</time>
      </trkpt>
      <trkpt lat="45.32512" lon="6.04736">
        <ele>1451.4</ele>
        <time>2021-01-16T08:35:01Z</time>
      </trkpt>
      <trkpt lat="45.32512" lon="6.04736">
        <ele>1451.6</ele>
        <time>2021-01-16T08:35:02Z</time>
      </trkpt>
      <trkpt lat="45.32512" lon="6.04736">
        <ele>1451.6</ele>
        <time>2021-01-16T08:35:03Z</time>
      </trkpt>
      <trkpt lat="45.32512" lon="6.04736">
        <ele>1451.6</ele>
        <time>2021-01-16T08:35:04Z</time>
      </trkpt>
      <trkpt lat="45.32512" lon="6.04736">
        <ele>1451.6</ele>
        <time>2021-01-16T08:35:05Z</time>
      </trkpt>
      <trkpt lat="45.32512" lon="6.04736">
        <ele>1451.6</ele>
        <time>2021-01-16T08:35:06Z</time>
      </trkpt>
      <trkpt lat="45.32512" lon="6.04736">
        <ele>1451.6</ele>
        <time>2021-01-16T08:35:07Z</time>
      </trkpt>
      <trkpt lat="45.32512" lon="6.04736">
        <ele>1451.6</ele>
        <time>2021-01-16T08:35:08Z</time>
      </trkpt>
      <trkpt lat="45.32512" lon="6.04736">
        <ele>1451.6</ele>
        <time>2021-01-16T08:35:09Z</time>
      </trkpt>
      <trkpt lat="45.32512" lon="6.04736">
        <ele>1451.6</ele>
        <time>2021-01-16T08:35:10Z</time>
      </trkpt>
      <trkpt lat="45.32512" lon="6.04736">
        <ele>1451.6</ele>
        <time>2021-01-16T08:35:11Z</time>
      </trkpt>
      <trkpt lat="45.32512" lon="6.04736">
        <ele>1451.6</ele>
        <time>2021-01-16T08:35:12Z</time>
      </trkpt>
      <trkpt lat="45.32512" lon="6.04736">
        <ele>1451.6</ele>
        <time>2021-01-16T08:35:13Z</time>
      </trkpt>
      <trkpt lat="45.32512" lon="6.04736">
        <ele>1451.6</ele>
        <time>2021-01-16T08:35:14Z</time>
      </trkpt>
      <trkpt lat="45.32512" lon="6.04736">
        <ele>1451.6</ele>
        <time>2021-01-16T08:35:15Z</time>
      </trkpt>
      <trkpt lat="45.32512" lon="6.04736">
        <ele>1451.6</ele>
        <time>2021-01-16T08:35:16Z</time>
      </trkpt>
      <trkpt lat="45.32512" lon="6.04736">
        <ele>1451.6</ele>
        <time>2021-01-16T08:35:17Z</time>
      </trkpt>
      <trkpt lat="45.32512" lon="6.04736">
        <ele>1451.6</ele>
        <time>2021-01-16T08:35:18Z</time>
      </trkpt>
      <trkpt lat="45.32512" lon="6.04736">
        <ele>1451.6</ele>
        <time>2021-01-16T08:35:19Z</time>
      </trkpt>
      <trkpt lat="45.32512" lon="6.04736">
        <ele>1451.6</ele>
        <time>2021-01-16T08:35:20Z</time>
      </trkpt>
      <trkpt lat="45.32512" lon="6.04736">
        <ele>1451.6</ele>
        <time>2021-01-16T08:35:21Z</time>
      </trkpt>
      <trkpt lat="45.32512" lon="6.04736">
        <ele>1451.6</ele>
        <time>2021-01-16T08:35:22Z</time>
      </trkpt>
      <trkpt lat="45.32512" lon="6.04736">
        <ele>1451.6</ele>
        <time>2021-01-16T08:35:23Z</time>
      </trkpt>
      <trkpt lat="45.32512" lon="6.04736">
        <ele>1451.6</ele>
        <time>2021-01-16T08:35:24Z</time>
      </trkpt>
      <trkpt lat="45.32512" lon="6.04736">
        <ele>1451.6</ele>
        <time>2021-01-16T08:35:25Z</time>
      </trkpt>
      <trkpt lat="45.32512" lon="6.04736">
        <ele>1451.6</ele>
        <time>2021-01-16T08:35:26Z</time>
      </trkpt>
      <trkpt lat="45.32512" lon="6.04736">
        <ele>1451.6</ele>
        <time>2021-01-16T08:35:27Z</time>
      </trkpt>
      <trkpt lat="45.32512" lon="6.04736">
        <ele>1451.6</ele>
        <time>2021-01-16T08:35:28Z</time>
      </trkpt>
      <trkpt lat="45.32512" lon="6.04736">
        <ele>1451.6</ele>
        <time>2021-01-16T08:35:29Z</time>
      </trkpt>
      <trkpt lat="45.32512" lon="6.04736">
        <ele>1451.6</ele>
        <time>2021-01-16T08:35:30Z</time>
      </trkpt>
      <trkpt lat="45.32512" lon="6.04736">
        <ele>1451.6</ele>
        <time>2021-01-16T08:35:31Z</time>
      </trkpt>
      <trkpt lat="45.32512" lon="6.04736">
        <ele>1451.6</ele>
        <time>2021-01-16T08:35:32Z</time>
      </trkpt>
      <trkpt lat="45.32512" lon="6.04736">
        <ele>1451.6</ele>
        <time>2021-01-16T08:35:33Z</time>
      </trkpt>
      <trkpt lat="45.32512" lon="6.04736">
        <ele>1451.6</ele>
        <time>2021-01-16T08:35:34Z</time>
      </trkpt>
      <trkpt lat="45.32512" lon="6.04736">
        <ele>1451.6</ele>
        <time>2021-01-16T08:35:35Z</time>
      </trkpt>
      <trkpt lat="45.32512" lon="6.04736">
        <ele>1451.6</ele>
        <time>2021-01-16T08:35:36Z</time>
      </trkpt>
      <trkpt lat="45.32512" lon="6.04736">
        <ele>1451.6</ele>
        <time>2021-01-16T08:35:37Z</time>
      </trkpt>
      <trkpt lat="45.32511" lon="6.04735">
        <ele>1451.6</ele>
        <time>2021-01-16T08:35:38Z</time>
      </trkpt>
      <trkpt lat="45.3251" lon="6.04734">
        <ele>1451.8</ele>
        <time>2021-01-16T08:35:39Z</time>
      </trkpt>
      <trkpt lat="45.32509" lon="6.04734">
        <ele>1451.8</ele>
        <time>2021-01-16T08:35:40Z</time>
      </trkpt>
      <trkpt lat="45.32508" lon="6.04733">
        <ele>1451.8</ele>
        <time>2021-01-16T08:35:41Z</time>
      </trkpt>
      <trkpt lat="45.32508" lon="6.04733">
        <ele>1451.8</ele>
        <time>2021-01-16T08:35:42Z</time>
      </trkpt>
      <trkpt lat="45.32507" lon="6.04732">
        <ele>1451.8</ele>
        <time>2021-01-16T08:35:43Z</time>
      </trkpt>
      <trkpt lat="45.32506" lon="6.04732">
        <ele>1451.8</ele>
        <time>2021-01-16T08:35:44Z</time>
      </trkpt>
      <trkpt lat="45.32506" lon="6.04731">
        <ele>1451.8</ele>
        <time>2021-01-16T08:35:45Z</time>
      </trkpt>
      <trkpt lat="45.32505" lon="6.04731">
        <ele>1451.8</ele>
        <time>2021-01-16T08:35:46Z</time>
      </trkpt>
      <trkpt lat="45.32504" lon="6.0473">
        <ele>1451.8</ele>
        <time>2021-01-16T08:35:47Z</time>
      </trkpt>
      <trkpt lat="45.32503" lon="6.04729">
        <ele>1451.8</ele>
        <time>2021-01-16T08:35:48Z</time>
      </trkpt>
      <trkpt lat="45.32502" lon="6.04728">
        <ele>1452</ele>
        <time>2021-01-16T08:35:49Z</time>
      </trkpt>
      <trkpt lat="45.32501" lon="6.04727">
        <ele>1452</ele>
        <time>2021-01-16T08:35:50Z</time>
      </trkpt>
      <trkpt lat="45.325" lon="6.04725">
        <ele>1452</ele>
        <time>2021-01-16T08:35:51Z</time>
      </trkpt>
      <trkpt lat="45.32499" lon="6.04724">
        <ele>1452</ele>
        <time>2021-01-16T08:35:52Z</time>
      </trkpt>
      <trkpt lat="45.32498" lon="6.04722">
        <ele>1452</ele>
        <time>2021-01-16T08:35:53Z</time>
      </trkpt>
      <trkpt lat="45.32498" lon="6.04722">
        <ele>1452</ele>
        <time>2021-01-16T08:35:54Z</time>
      </trkpt>
      <trkpt lat="45.32497" lon="6.04722">
        <ele>1452.2</ele>
        <time>2021-01-16T08:35:55Z</time>
      </trkpt>
      <trkpt lat="45.32496" lon="6.04721">
        <ele>1452.2</ele>
        <time>2021-01-16T08:35:56Z</time>
      </trkpt>
      <trkpt lat="45.32495" lon="6.04719">
        <ele>1452.2</ele>
        <time>2021-01-16T08:35:57Z</time>
      </trkpt>
      <trkpt lat="45.32494" lon="6.04718">
        <ele>1452.2</ele>
        <time>2021-01-16T08:35:58Z</time>
      </trkpt>
      <trkpt lat="45.32494" lon="6.04717">
        <ele>1452.2</ele>
        <time>2021-01-16T08:35:59Z</time>
      </trkpt>
      <trkpt lat="45.32493" lon="6.04716">
        <ele>1452.2</ele>
        <time>2021-01-16T08:36:00Z</time>
      </trkpt>
      <trkpt lat="45.32492" lon="6.04715">
        <ele>1452.4</ele>
        <time>2021-01-16T08:36:01Z</time>
      </trkpt>
      <trkpt lat="45.32491" lon="6.04715">
        <ele>1452.4</ele>
        <time>2021-01-16T08:36:02Z</time>
      </trkpt>
      <trkpt lat="45.3249" lon="6.04714">
        <ele>1452.4</ele>
        <time>2021-01-16T08:36:03Z</time>
      </trkpt>
      <trkpt lat="45.32489" lon="6.04713">
        <ele>1452.4</ele>
        <time>2021-01-16T08:36:04Z</time>
      </trkpt>
      <trkpt lat="45.32488" lon="6.04713">
        <ele>1452.4</ele>
        <time>2021-01-16T08:36:05Z</time>
      </trkpt>
      <trkpt lat="45.32487" lon="6.04712">
        <ele>1452.4</ele>
        <time>2021-01-16T08:36:06Z</time>
      </trkpt>
      <trkpt lat="45.32486" lon="6.04711">
        <ele>1452.6</ele>
        <time>2021-01-16T08:36:07Z</time>
      </trkpt>
      <trkpt lat="45.32485" lon="6.04711">
        <ele>1452.6</ele>
        <time>2021-01-16T08:36:08Z</time>
      </trkpt>
      <trkpt lat="45.32484" lon="6.0471">
        <ele>1452.6</ele>
        <time>2021-01-16T08:36:09Z</time>
      </trkpt>
      <trkpt lat="45.32482" lon="6.04709">
        <ele>1452.8</ele>
        <time>2021-01-16T08:36:10Z</time>
      </trkpt>
      <trkpt lat="45.32481" lon="6.04708">
        <ele>1452.8</ele>
        <time>2021-01-16T08:36:11Z</time>
      </trkpt>
      <trkpt lat="45.3248" lon="6.04708">
        <ele>1452.8</ele>
        <time>2021-01-16T08:36:12Z</time>
      </trkpt>
      <trkpt lat="45.32479" lon="6.04707">
        <ele>1452.8</ele>
        <time>2021-01-16T08:36:13Z</time>
      </trkpt>
      <trkpt lat="45.32477" lon="6.04707">
        <ele>1452.8</ele>
        <time>2021-01-16T08:36:14Z</time>
      </trkpt>
      <trkpt lat="45.32476" lon="6.04707">
        <ele>1452.8</ele>
        <time>2021-01-16T08:36:15Z</time>
      </trkpt>
      <trkpt lat="45.32475" lon="6.04706">
        <ele>1452.8</ele>
        <time>2021-01-16T08:36:16Z</time>
      </trkpt>
      <trkpt lat="45.32474" lon="6.04706">
        <ele>1452.6</ele>
        <time>2021-01-16T08:36:17Z</time>
      </trkpt>
      <trkpt lat="45.32474" lon="6.04705">
        <ele>1452.6</ele>
        <time>2021-01-16T08:36:18Z</time>
      </trkpt>
      <trkpt lat="45.32473" lon="6.04704">
        <ele>1452.6</ele>
        <time>2021-01-16T08:36:19Z</time>
      </trkpt>
      <trkpt lat="45.32473" lon="6.04702">
        <ele>1452.4</ele>
        <time>2021-01-16T08:36:20Z</time>
      </trkpt>
      <trkpt lat="45.32472" lon="6.04701">
        <ele>1452.6</ele>
        <time>2021-01-16T08:36:21Z</time>
      </trkpt>
      <trkpt lat="45.32471" lon="6.04699">
        <ele>1452.8</ele>
        <time>2021-01-16T08:36:22Z</time>
      </trkpt>
      <trkpt lat="45.3247" lon="6.04698">
        <ele>1453</ele>
        <time>2021-01-16T08:36:23Z</time>
      </trkpt>
      <trkpt lat="45.32469" lon="6.04697">
        <ele>1453.2</ele>
        <time>2021-01-16T08:36:24Z</time>
      </trkpt>
      <trkpt lat="45.32468" lon="6.04697">
        <ele>1453.4</ele>
        <time>2021-01-16T08:36:25Z</time>
      </trkpt>
      <trkpt lat="45.32468" lon="6.04697">
        <ele>1453.6</ele>
        <time>2021-01-16T08:36:26Z</time>
      </trkpt>
      <trkpt lat="45.32467" lon="6.04697">
        <ele>1453.6</ele>
        <time>2021-01-16T08:36:27Z</time>
      </trkpt>
      <trkpt lat="45.32467" lon="6.04697">
        <ele>1453.6</ele>
        <time>2021-01-16T08:36:28Z</time>
      </trkpt>
      <trkpt lat="45.32467" lon="6.04697">
        <ele>1453.6</ele>
        <time>2021-01-16T08:36:29Z</time>
      </trkpt>
      <trkpt lat="45.32467" lon="6.04697">
        <ele>1453.4</ele>
        <time>2021-01-16T08:36:30Z</time>
      </trkpt>
      <trkpt lat="45.32467" lon="6.04697">
        <ele>1453.6</ele>
        <time>2021-01-16T08:36:31Z</time>
      </trkpt>
      <trkpt lat="45.32467" lon="6.04697">
        <ele>1453.6</ele>
        <time>2021-01-16T08:36:32Z</time>
      </trkpt>
      <trkpt lat="45.32467" lon="6.04697">
        <ele>1453.8</ele>
        <time>2021-01-16T08:36:33Z</time>
      </trkpt>
      <trkpt lat="45.32467" lon="6.04697">
        <ele>1453.8</ele>
        <time>2021-01-16T08:36:34Z</time>
      </trkpt>
      <trkpt lat="45.32467" lon="6.04697">
        <ele>1453.8</ele>
        <time>2021-01-16T08:36:35Z</time>
      </trkpt>
      <trkpt lat="45.32467" lon="6.04697">
        <ele>1453.8</ele>
        <time>2021-01-16T08:36:36Z</time>
      </trkpt>
      <trkpt lat="45.32467" lon="6.04697">
        <ele>1453.8</ele>
        <time>2021-01-16T08:36:37Z</time>
      </trkpt>
      <trkpt lat="45.32467" lon="6.04697">
        <ele>1453.8</ele>
        <time>2021-01-16T08:36:38Z</time>
      </trkpt>
      <trkpt lat="45.32467" lon="6.04697">
        <ele>1454</ele>
        <time>2021-01-16T08:36:39Z</time>
      </trkpt>
      <trkpt lat="45.32467" lon="6.04697">
        <ele>1454</ele>
        <time>2021-01-16T08:36:40Z</time>
      </trkpt>
      <trkpt lat="45.32467" lon="6.04697">
        <ele>1454</ele>
        <time>2021-01-16T08:36:41Z</time>
      </trkpt>
      <trkpt lat="45.32467" lon="6.04697">
        <ele>1454</ele>
        <time>2021-01-16T08:36:42Z</time>
      </trkpt>
      <trkpt lat="45.32467" lon="6.04697">
        <ele>1454</ele>
        <time>2021-01-16T08:36:43Z</time>
      </trkpt>
      <trkpt lat="45.32467" lon="6.04697">
        <ele>1453.8</ele>
        <time>2021-01-16T08:36:44Z</time>
      </trkpt>
      <trkpt lat="45.32467" lon="6.04697">
        <ele>1453.8</ele>
        <time>2021-01-16T08:36:45Z</time>
      </trkpt>
      <trkpt lat="45.32467" lon="6.04697">
        <ele>1453.8</ele>
        <time>2021-01-16T08:36:46Z</time>
      </trkpt>
      <trkpt lat="45.32467" lon="6.04697">
        <ele>1453.8</ele>
        <time>2021-01-16T08:36:47Z</time>
      </trkpt>
      <trkpt lat="45.32467" lon="6.04697">
        <ele>1453.8</ele>
        <time>2021-01-16T08:36:48Z</time>
      </trkpt>
      <trkpt lat="45.32467" lon="6.04697">
        <ele>1453.8</ele>
        <time>2021-01-16T08:36:49Z</time>
      </trkpt>
      <trkpt lat="45.32467" lon="6.04697">
        <ele>1454</ele>
        <time>2021-01-16T08:36:50Z</time>
      </trkpt>
      <trkpt lat="45.32467" lon="6.04697">
        <ele>1454</ele>
        <time>2021-01-16T08:36:51Z</time>
      </trkpt>
      <trkpt lat="45.32467" lon="6.04697">
        <ele>1454</ele>
        <time>2021-01-16T08:36:52Z</time>
      </trkpt>
      <trkpt lat="45.32467" lon="6.04697">
        <ele>1454</ele>
        <time>2021-01-16T08:36:53Z</time>
      </trkpt>
      <trkpt lat="45.32467" lon="6.04697">
        <ele>1454</ele>
        <time>2021-01-16T08:36:54Z</time>
      </trkpt>
      <trkpt lat="45.32467" lon="6.04697">
        <ele>1454</ele>
        <time>2021-01-16T08:36:55Z</time>
      </trkpt>
      <trkpt lat="45.32467" lon="6.04697">
        <ele>1454</ele>
        <time>2021-01-16T08:36:56Z</time>
      </trkpt>
      <trkpt lat="45.32467" lon="6.04696">
        <ele>1454</ele>
        <time>2021-01-16T08:36:57Z</time>
      </trkpt>
      <trkpt lat="45.32467" lon="6.04696">
        <ele>1454</ele>
        <time>2021-01-16T08:36:58Z</time>
      </trkpt>
      <trkpt lat="45.32466" lon="6.04695">
        <ele>1454</ele>
        <time>2021-01-16T08:36:59Z</time>
      </trkpt>
      <trkpt lat="45.32466" lon="6.04695">
        <ele>1453.8</ele>
        <time>2021-01-16T08:37:00Z</time>
      </trkpt>
      <trkpt lat="45.32466" lon="6.04695">
        <ele>1453.8</ele>
        <time>2021-01-16T08:37:01Z</time>
      </trkpt>
      <trkpt lat="45.32466" lon="6.04695">
        <ele>1453.8</ele>
        <time>2021-01-16T08:37:02Z</time>
      </trkpt>
      <trkpt lat="45.32466" lon="6.04695">
        <ele>1453.8</ele>
        <time>2021-01-16T08:37:03Z</time>
      </trkpt>
      <trkpt lat="45.32466" lon="6.04695">
        <ele>1453.8</ele>
        <time>2021-01-16T08:37:04Z</time>
      </trkpt>
      <trkpt lat="45.32466" lon="6.04695">
        <ele>1453.8</ele>
        <time>2021-01-16T08:37:05Z</time>
      </trkpt>
      <trkpt lat="45.32466" lon="6.04695">
        <ele>1453.8</ele>
        <time>2021-01-16T08:37:06Z</time>
      </trkpt>
      <trkpt lat="45.32466" lon="6.04695">
        <ele>1453.8</ele>
        <time>2021-01-16T08:37:07Z</time>
      </trkpt>
      <trkpt lat="45.32466" lon="6.04695">
        <ele>1453.8</ele>
        <time>2021-01-16T08:37:08Z</time>
      </trkpt>
      <trkpt lat="45.32466" lon="6.04695">
        <ele>1453.8</ele>
        <time>2021-01-16T08:37:09Z</time>
      </trkpt>
      <trkpt lat="45.32466" lon="6.04695">
        <ele>1453.8</ele>
        <time>2021-01-16T08:37:10Z</time>
      </trkpt>
      <trkpt lat="45.32466" lon="6.04695">
        <ele>1453.8</ele>
        <time>2021-01-16T08:37:11Z</time>
      </trkpt>
      <trkpt lat="45.32466" lon="6.04695">
        <ele>1453.8</ele>
        <time>2021-01-16T08:37:12Z</time>
      </trkpt>
      <trkpt lat="45.32466" lon="6.04695">
        <ele>1453.8</ele>
        <time>2021-01-16T08:37:13Z</time>
      </trkpt>
      <trkpt lat="45.32466" lon="6.04695">
        <ele>1453.8</ele>
        <time>2021-01-16T08:37:14Z</time>
      </trkpt>
      <trkpt lat="45.32466" lon="6.04695">
        <ele>1453.8</ele>
        <time>2021-01-16T08:37:15Z</time>
      </trkpt>
      <trkpt lat="45.32466" lon="6.04695">
        <ele>1453.8</ele>
        <time>2021-01-16T08:37:16Z</time>
      </trkpt>
      <trkpt lat="45.32466" lon="6.04695">
        <ele>1453.8</ele>
        <time>2021-01-16T08:37:17Z</time>
      </trkpt>
      <trkpt lat="45.32466" lon="6.04695">
        <ele>1453.8</ele>
        <time>2021-01-16T08:37:18Z</time>
      </trkpt>
      <trkpt lat="45.32466" lon="6.04695">
        <ele>1454</ele>
        <time>2021-01-16T08:37:19Z</time>
      </trkpt>
      <trkpt lat="45.32466" lon="6.04695">
        <ele>1453.8</ele>
        <time>2021-01-16T08:37:20Z</time>
      </trkpt>
      <trkpt lat="45.32466" lon="6.04695">
        <ele>1453.8</ele>
        <time>2021-01-16T08:37:21Z</time>
      </trkpt>
      <trkpt lat="45.32466" lon="6.04695">
        <ele>1453.8</ele>
        <time>2021-01-16T08:37:22Z</time>
      </trkpt>
      <trkpt lat="45.32466" lon="6.04695">
        <ele>1453.8</ele>
        <time>2021-01-16T08:37:23Z</time>
      </trkpt>
      <trkpt lat="45.32466" lon="6.04695">
        <ele>1453.8</ele>
        <time>2021-01-16T08:37:24Z</time>
      </trkpt>
      <trkpt lat="45.32466" lon="6.04695">
        <ele>1453.8</ele>
        <time>2021-01-16T08:37:25Z</time>
      </trkpt>
      <trkpt lat="45.32466" lon="6.04695">
        <ele>1453.8</ele>
        <time>2021-01-16T08:37:26Z</time>
      </trkpt>
      <trkpt lat="45.32466" lon="6.04695">
        <ele>1453.8</ele>
        <time>2021-01-16T08:37:27Z</time>
      </trkpt>
      <trkpt lat="45.32466" lon="6.04695">
        <ele>1453.8</ele>
        <time>2021-01-16T08:37:28Z</time>
      </trkpt>
      <trkpt lat="45.32466" lon="6.04695">
        <ele>1453.8</ele>
        <time>2021-01-16T08:37:29Z</time>
      </trkpt>
      <trkpt lat="45.32466" lon="6.04695">
        <ele>1453.8</ele>
        <time>2021-01-16T08:37:30Z</time>
      </trkpt>
      <trkpt lat="45.32466" lon="6.04695">
        <ele>1453.8</ele>
        <time>2021-01-16T08:37:31Z</time>
      </trkpt>
      <trkpt lat="45.32466" lon="6.04695">
        <ele>1453.8</ele>
        <time>2021-01-16T08:37:32Z</time>
      </trkpt>
      <trkpt lat="45.32466" lon="6.04695">
        <ele>1453.8</ele>
        <time>2021-01-16T08:37:33Z</time>
      </trkpt>
      <trkpt lat="45.32466" lon="6.04695">
        <ele>1453.8</ele>
        <time>2021-01-16T08:37:34Z</time>
      </trkpt>
      <trkpt lat="45.32466" lon="6.04695">
        <ele>1453.6</ele>
        <time>2021-01-16T08:37:35Z</time>
      </trkpt>
      <trkpt lat="45.32466" lon="6.04695">
        <ele>1453.6</ele>
        <time>2021-01-16T08:37:36Z</time>
      </trkpt>
      <trkpt lat="45.32465" lon="6.04693">
        <ele>1453.8</ele>
        <time>2021-01-16T08:37:37Z</time>
      </trkpt>
      <trkpt lat="45.32465" lon="6.04693">
        <ele>1453.8</ele>
        <time>2021-01-16T08:37:38Z</time>
      </trkpt>
      <trkpt lat="45.32464" lon="6.04693">
        <ele>1453.8</ele>
        <time>2021-01-16T08:37:39Z</time>
      </trkpt>
      <trkpt lat="45.32465" lon="6.04693">
        <ele>1453.6</ele>
        <time>2021-01-16T08:37:40Z</time>
      </trkpt>
      <trkpt lat="45.32465" lon="6.04693">
        <ele>1453.6</ele>
        <time>2021-01-16T08:37:41Z</time>
      </trkpt>
      <trkpt lat="45.32465" lon="6.04693">
        <ele>1453.8</ele>
        <time>2021-01-16T08:37:42Z</time>
      </trkpt>
      <trkpt lat="45.32465" lon="6.04693">
        <ele>1453.8</ele>
        <time>2021-01-16T08:37:43Z</time>
      </trkpt>
      <trkpt lat="45.32465" lon="6.04693">
        <ele>1453.8</ele>
        <time>2021-01-16T08:37:44Z</time>
      </trkpt>
      <trkpt lat="45.32465" lon="6.04693">
        <ele>1453.8</ele>
        <time>2021-01-16T08:37:45Z</time>
      </trkpt>
      <trkpt lat="45.32465" lon="6.04693">
        <ele>1453.8</ele>
        <time>2021-01-16T08:37:46Z</time>
      </trkpt>
      <trkpt lat="45.32465" lon="6.04693">
        <ele>1453.8</ele>
        <time>2021-01-16T08:37:47Z</time>
      </trkpt>
      <trkpt lat="45.32465" lon="6.04693">
        <ele>1453.8</ele>
        <time>2021-01-16T08:37:48Z</time>
      </trkpt>
      <trkpt lat="45.32465" lon="6.04693">
        <ele>1453.8</ele>
        <time>2021-01-16T08:37:49Z</time>
      </trkpt>
      <trkpt lat="45.32465" lon="6.04693">
        <ele>1453.8</ele>
        <time>2021-01-16T08:37:50Z</time>
      </trkpt>
      <trkpt lat="45.32465" lon="6.04693">
        <ele>1453.8</ele>
        <time>2021-01-16T08:37:51Z</time>
      </trkpt>
      <trkpt lat="45.32466" lon="6.04694">
        <ele>1453.8</ele>
        <time>2021-01-16T08:37:52Z</time>
      </trkpt>
      <trkpt lat="45.32467" lon="6.04694">
        <ele>1453.8</ele>
        <time>2021-01-16T08:37:53Z</time>
      </trkpt>
      <trkpt lat="45.32467" lon="6.04695">
        <ele>1454</ele>
        <time>2021-01-16T08:37:54Z</time>
      </trkpt>
      <trkpt lat="45.32467" lon="6.04695">
        <ele>1454</ele>
        <time>2021-01-16T08:37:55Z</time>
      </trkpt>
      <trkpt lat="45.32467" lon="6.04695">
        <ele>1453.8</ele>
        <time>2021-01-16T08:37:56Z</time>
      </trkpt>
      <trkpt lat="45.32467" lon="6.04695">
        <ele>1454</ele>
        <time>2021-01-16T08:37:57Z</time>
      </trkpt>
      <trkpt lat="45.32467" lon="6.04695">
        <ele>1454</ele>
        <time>2021-01-16T08:37:58Z</time>
      </trkpt>
      <trkpt lat="45.32467" lon="6.04695">
        <ele>1454</ele>
        <time>2021-01-16T08:37:59Z</time>
      </trkpt>
      <trkpt lat="45.32467" lon="6.04695">
        <ele>1454</ele>
        <time>2021-01-16T08:38:00Z</time>
      </trkpt>
      <trkpt lat="45.32467" lon="6.04695">
        <ele>1454</ele>
        <time>2021-01-16T08:38:01Z</time>
      </trkpt>
      <trkpt lat="45.32467" lon="6.04695">
        <ele>1454</ele>
        <time>2021-01-16T08:38:02Z</time>
      </trkpt>
      <trkpt lat="45.32467" lon="6.04695">
        <ele>1454</ele>
        <time>2021-01-16T08:38:03Z</time>
      </trkpt>
      <trkpt lat="45.32467" lon="6.04695">
        <ele>1454</ele>
        <time>2021-01-16T08:38:04Z</time>
      </trkpt>
      <trkpt lat="45.32467" lon="6.04695">
        <ele>1454</ele>
        <time>2021-01-16T08:38:05Z</time>
      </trkpt>
      <trkpt lat="45.32467" lon="6.04695">
        <ele>1454</ele>
        <time>2021-01-16T08:38:06Z</time>
      </trkpt>
      <trkpt lat="45.32467" lon="6.04695">
        <ele>1454</ele>
        <time>2021-01-16T08:38:07Z</time>
      </trkpt>
      <trkpt lat="45.32467" lon="6.04695">
        <ele>1454</ele>
        <time>2021-01-16T08:38:08Z</time>
      </trkpt>
      <trkpt lat="45.32467" lon="6.04695">
        <ele>1454</ele>
        <time>2021-01-16T08:38:09Z</time>
      </trkpt>
      <trkpt lat="45.32467" lon="6.04695">
        <ele>1454</ele>
        <time>2021-01-16T08:38:10Z</time>
      </trkpt>
      <trkpt lat="45.32467" lon="6.04695">
        <ele>1454</ele>
        <time>2021-01-16T08:38:11Z</time>
      </trkpt>
      <trkpt lat="45.32467" lon="6.04695">
        <ele>1454</ele>
        <time>2021-01-16T08:38:12Z</time>
      </trkpt>
      <trkpt lat="45.32467" lon="6.04695">
        <ele>1454</ele>
        <time>2021-01-16T08:38:13Z</time>
      </trkpt>
      <trkpt lat="45.32467" lon="6.04695">
        <ele>1454</ele>
        <time>2021-01-16T08:38:14Z</time>
      </trkpt>
      <trkpt lat="45.32466" lon="6.04697">
        <ele>1454</ele>
        <time>2021-01-16T08:38:15Z</time>
      </trkpt>
      <trkpt lat="45.32466" lon="6.04698">
        <ele>1454</ele>
        <time>2021-01-16T08:38:16Z</time>
      </trkpt>
      <trkpt lat="45.32466" lon="6.04698">
        <ele>1454</ele>
        <time>2021-01-16T08:38:17Z</time>
      </trkpt>
      <trkpt lat="45.32466" lon="6.04698">
        <ele>1454.2</ele>
        <time>2021-01-16T08:38:18Z</time>
      </trkpt>
      <trkpt lat="45.32466" lon="6.04698">
        <ele>1454.2</ele>
        <time>2021-01-16T08:38:19Z</time>
      </trkpt>
      <trkpt lat="45.32466" lon="6.04698">
        <ele>1454.2</ele>
        <time>2021-01-16T08:38:20Z</time>
      </trkpt>
      <trkpt lat="45.32466" lon="6.04698">
        <ele>1454.2</ele>
        <time>2021-01-16T08:38:21Z</time>
      </trkpt>
      <trkpt lat="45.32466" lon="6.04698">
        <ele>1454</ele>
        <time>2021-01-16T08:38:22Z</time>
      </trkpt>
      <trkpt lat="45.32466" lon="6.04698">
        <ele>1454</ele>
        <time>2021-01-16T08:38:23Z</time>
      </trkpt>
      <trkpt lat="45.32466" lon="6.04698">
        <ele>1454</ele>
        <time>2021-01-16T08:38:24Z</time>
      </trkpt>
      <trkpt lat="45.32466" lon="6.04698">
        <ele>1454</ele>
        <time>2021-01-16T08:38:25Z</time>
      </trkpt>
      <trkpt lat="45.32466" lon="6.04698">
        <ele>1454</ele>
        <time>2021-01-16T08:38:26Z</time>
      </trkpt>
      <trkpt lat="45.32466" lon="6.04698">
        <ele>1454</ele>
        <time>2021-01-16T08:38:27Z</time>
      </trkpt>
      <trkpt lat="45.32466" lon="6.04698">
        <ele>1454</ele>
        <time>2021-01-16T08:38:28Z</time>
      </trkpt>
      <trkpt lat="45.32466" lon="6.04698">
        <ele>1454</ele>
        <time>2021-01-16T08:38:29Z</time>
      </trkpt>
      <trkpt lat="45.32466" lon="6.04698">
        <ele>1454</ele>
        <time>2021-01-16T08:38:30Z</time>
      </trkpt>
      <trkpt lat="45.32466" lon="6.04698">
        <ele>1454</ele>
        <time>2021-01-16T08:38:31Z</time>
      </trkpt>
      <trkpt lat="45.32466" lon="6.04698">
        <ele>1454</ele>
        <time>2021-01-16T08:38:32Z</time>
      </trkpt>
      <trkpt lat="45.32466" lon="6.04698">
        <ele>1454</ele>
        <time>2021-01-16T08:38:33Z</time>
      </trkpt>
      <trkpt lat="45.32466" lon="6.04698">
        <ele>1454</ele>
        <time>2021-01-16T08:38:34Z</time>
      </trkpt>
      <trkpt lat="45.32466" lon="6.04698">
        <ele>1454</ele>
        <time>2021-01-16T08:38:35Z</time>
      </trkpt>
      <trkpt lat="45.32466" lon="6.04698">
        <ele>1454</ele>
        <time>2021-01-16T08:38:36Z</time>
      </trkpt>
      <trkpt lat="45.32466" lon="6.04698">
        <ele>1454</ele>
        <time>2021-01-16T08:38:37Z</time>
      </trkpt>
      <trkpt lat="45.32466" lon="6.04698">
        <ele>1454</ele>
        <time>2021-01-16T08:38:38Z</time>
      </trkpt>
      <trkpt lat="45.32466" lon="6.04698">
        <ele>1454</ele>
        <time>2021-01-16T08:38:39Z</time>
      </trkpt>
      <trkpt lat="45.32466" lon="6.04698">
        <ele>1454</ele>
        <time>2021-01-16T08:38:40Z</time>
      </trkpt>
      <trkpt lat="45.32466" lon="6.04698">
        <ele>1454</ele>
        <time>2021-01-16T08:38:41Z</time>
      </trkpt>
      <trkpt lat="45.32466" lon="6.04698">
        <ele>1454</ele>
        <time>2021-01-16T08:38:42Z</time>
      </trkpt>
      <trkpt lat="45.32466" lon="6.04698">
        <ele>1454</ele>
        <time>2021-01-16T08:38:43Z</time>
      </trkpt>
      <trkpt lat="45.32466" lon="6.04698">
        <ele>1454</ele>
        <time>2021-01-16T08:38:44Z</time>
      </trkpt>
      <trkpt lat="45.32466" lon="6.04698">
        <ele>1454</ele>
        <time>2021-01-16T08:38:45Z</time>
      </trkpt>
      <trkpt lat="45.32466" lon="6.04698">
        <ele>1454</ele>
        <time>2021-01-16T08:38:46Z</time>
      </trkpt>
      <trkpt lat="45.32466" lon="6.04698">
        <ele>1454</ele>
        <time>2021-01-16T08:38:47Z</time>
      </trkpt>
      <trkpt lat="45.32466" lon="6.04698">
        <ele>1454</ele>
        <time>2021-01-16T08:38:48Z</time>
      </trkpt>
      <trkpt lat="45.32466" lon="6.04698">
        <ele>1454</ele>
        <time>2021-01-16T08:38:49Z</time>
      </trkpt>
      <trkpt lat="45.32466" lon="6.04698">
        <ele>1454</ele>
        <time>2021-01-16T08:38:50Z</time>
      </trkpt>
      <trkpt lat="45.32466" lon="6.04698">
        <ele>1454</ele>
        <time>2021-01-16T08:38:51Z</time>
      </trkpt>
      <trkpt lat="45.32466" lon="6.04698">
        <ele>1454</ele>
        <time>2021-01-16T08:38:52Z</time>
      </trkpt>
      <trkpt lat="45.32466" lon="6.04698">
        <ele>1454</ele>
        <time>2021-01-16T08:38:53Z</time>
      </trkpt>
      <trkpt lat="45.32466" lon="6.04698">
        <ele>1454</ele>
        <time>2021-01-16T08:38:54Z</time>
      </trkpt>
      <trkpt lat="45.32466" lon="6.04698">
        <ele>1454</ele>
        <time>2021-01-16T08:38:55Z</time>
      </trkpt>
      <trkpt lat="45.32466" lon="6.04698">
        <ele>1454</ele>
        <time>2021-01-16T08:38:56Z</time>
      </trkpt>
      <trkpt lat="45.32466" lon="6.04698">
        <ele>1454</ele>
        <time>2021-01-16T08:38:57Z</time>
      </trkpt>
      <trkpt lat="45.32466" lon="6.04698">
        <ele>1454</ele>
        <time>2021-01-16T08:38:58Z</time>
      </trkpt>
      <trkpt lat="45.32466" lon="6.04698">
        <ele>1454</ele>
        <time>2021-01-16T08:38:59Z</time>
      </trkpt>
      <trkpt lat="45.32466" lon="6.04698">
        <ele>1454.2</ele>
        <time>2021-01-16T08:39:00Z</time>
      </trkpt>
      <trkpt lat="45.32466" lon="6.04698">
        <ele>1454.2</ele>
        <time>2021-01-16T08:39:01Z</time>
      </trkpt>
      <trkpt lat="45.32466" lon="6.04698">
        <ele>1454.2</ele>
        <time>2021-01-16T08:39:02Z</time>
      </trkpt>
      <trkpt lat="45.32466" lon="6.04698">
        <ele>1454.2</ele>
        <time>2021-01-16T08:39:03Z</time>
      </trkpt>
      <trkpt lat="45.32466" lon="6.04698">
        <ele>1454</ele>
        <time>2021-01-16T08:39:04Z</time>
      </trkpt>
      <trkpt lat="45.32466" lon="6.04698">
        <ele>1454</ele>
        <time>2021-01-16T08:39:05Z</time>
      </trkpt>
      <trkpt lat="45.32466" lon="6.04698">
        <ele>1454</ele>
        <time>2021-01-16T08:39:06Z</time>
      </trkpt>
      <trkpt lat="45.32466" lon="6.04698">
        <ele>1454.2</ele>
        <time>2021-01-16T08:39:07Z</time>
      </trkpt>
      <trkpt lat="45.32466" lon="6.04698">
        <ele>1454.2</ele>
        <time>2021-01-16T08:39:08Z</time>
      </trkpt>
      <trkpt lat="45.32466" lon="6.04698">
        <ele>1454.2</ele>
        <time>2021-01-16T08:39:09Z</time>
      </trkpt>
      <trkpt lat="45.32466" lon="6.04698">
        <ele>1454.2</ele>
        <time>2021-01-16T08:39:10Z</time>
      </trkpt>
      <trkpt lat="45.32466" lon="6.04698">
        <ele>1454.2</ele>
        <time>2021-01-16T08:39:11Z</time>
      </trkpt>
      <trkpt lat="45.32466" lon="6.04698">
        <ele>1454.2</ele>
        <time>2021-01-16T08:39:12Z</time>
      </trkpt>
      <trkpt lat="45.32466" lon="6.04698">
        <ele>1454.2</ele>
        <time>2021-01-16T08:39:13Z</time>
      </trkpt>
      <trkpt lat="45.32466" lon="6.04698">
        <ele>1454.2</ele>
        <time>2021-01-16T08:39:14Z</time>
      </trkpt>
      <trkpt lat="45.32466" lon="6.04698">
        <ele>1454.2</ele>
        <time>2021-01-16T08:39:15Z</time>
      </trkpt>
      <trkpt lat="45.32466" lon="6.04698">
        <ele>1454.2</ele>
        <time>2021-01-16T08:39:16Z</time>
      </trkpt>
      <trkpt lat="45.32466" lon="6.04698">
        <ele>1454.2</ele>
        <time>2021-01-16T08:39:17Z</time>
      </trkpt>
      <trkpt lat="45.32466" lon="6.04698">
        <ele>1454.2</ele>
        <time>2021-01-16T08:39:18Z</time>
      </trkpt>
      <trkpt lat="45.32466" lon="6.04698">
        <ele>1454.2</ele>
        <time>2021-01-16T08:39:19Z</time>
      </trkpt>
      <trkpt lat="45.32466" lon="6.04698">
        <ele>1454.2</ele>
        <time>2021-01-16T08:39:20Z</time>
      </trkpt>
      <trkpt lat="45.32466" lon="6.04698">
        <ele>1454.2</ele>
        <time>2021-01-16T08:39:21Z</time>
      </trkpt>
      <trkpt lat="45.32466" lon="6.04698">
        <ele>1454.2</ele>
        <time>2021-01-16T08:39:22Z</time>
      </trkpt>
      <trkpt lat="45.32466" lon="6.04698">
        <ele>1454.2</ele>
        <time>2021-01-16T08:39:23Z</time>
      </trkpt>
      <trkpt lat="45.32466" lon="6.04698">
        <ele>1454</ele>
        <time>2021-01-16T08:39:24Z</time>
      </trkpt>
      <trkpt lat="45.32466" lon="6.04698">
        <ele>1454</ele>
        <time>2021-01-16T08:39:25Z</time>
      </trkpt>
      <trkpt lat="45.32466" lon="6.04698">
        <ele>1454.2</ele>
        <time>2021-01-16T08:39:26Z</time>
      </trkpt>
      <trkpt lat="45.32466" lon="6.04698">
        <ele>1454.2</ele>
        <time>2021-01-16T08:39:27Z</time>
      </trkpt>
      <trkpt lat="45.32466" lon="6.04698">
        <ele>1454.2</ele>
        <time>2021-01-16T08:39:28Z</time>
      </trkpt>
      <trkpt lat="45.32466" lon="6.04698">
        <ele>1454.2</ele>
        <time>2021-01-16T08:39:29Z</time>
      </trkpt>
      <trkpt lat="45.32466" lon="6.04698">
        <ele>1454.2</ele>
        <time>2021-01-16T08:39:30Z</time>
      </trkpt>
      <trkpt lat="45.32466" lon="6.04698">
        <ele>1454.2</ele>
        <time>2021-01-16T08:39:31Z</time>
      </trkpt>
      <trkpt lat="45.32466" lon="6.04698">
        <ele>1454.2</ele>
        <time>2021-01-16T08:39:32Z</time>
      </trkpt>
      <trkpt lat="45.32466" lon="6.04698">
        <ele>1454.2</ele>
        <time>2021-01-16T08:39:33Z</time>
      </trkpt>
      <trkpt lat="45.32466" lon="6.04698">
        <ele>1454.2</ele>
        <time>2021-01-16T08:39:34Z</time>
      </trkpt>
      <trkpt lat="45.32466" lon="6.04698">
        <ele>1454.2</ele>
        <time>2021-01-16T08:39:35Z</time>
      </trkpt>
      <trkpt lat="45.32466" lon="6.04698">
        <ele>1454.2</ele>
        <time>2021-01-16T08:39:36Z</time>
      </trkpt>
      <trkpt lat="45.32466" lon="6.04698">
        <ele>1454.2</ele>
        <time>2021-01-16T08:39:37Z</time>
      </trkpt>
      <trkpt lat="45.32466" lon="6.04698">
        <ele>1454.2</ele>
        <time>2021-01-16T08:39:38Z</time>
      </trkpt>
      <trkpt lat="45.32466" lon="6.04698">
        <ele>1454.2</ele>
        <time>2021-01-16T08:39:39Z</time>
      </trkpt>
      <trkpt lat="45.32466" lon="6.04698">
        <ele>1454.2</ele>
        <time>2021-01-16T08:39:40Z</time>
      </trkpt>
      <trkpt lat="45.32466" lon="6.04698">
        <ele>1454.2</ele>
        <time>2021-01-16T08:39:41Z</time>
      </trkpt>
      <trkpt lat="45.32466" lon="6.04698">
        <ele>1454.2</ele>
        <time>2021-01-16T08:39:42Z</time>
      </trkpt>
      <trkpt lat="45.32466" lon="6.04698">
        <ele>1454.2</ele>
        <time>2021-01-16T08:39:43Z</time>
      </trkpt>
      <trkpt lat="45.32466" lon="6.04698">
        <ele>1454.2</ele>
        <time>2021-01-16T08:39:44Z</time>
      </trkpt>
      <trkpt lat="45.32466" lon="6.04698">
        <ele>1454</ele>
        <time>2021-01-16T08:39:45Z</time>
      </trkpt>
      <trkpt lat="45.32466" lon="6.04698">
        <ele>1454.2</ele>
        <time>2021-01-16T08:39:46Z</time>
      </trkpt>
      <trkpt lat="45.32466" lon="6.04698">
        <ele>1454.2</ele>
        <time>2021-01-16T08:39:47Z</time>
      </trkpt>
      <trkpt lat="45.32466" lon="6.04698">
        <ele>1454.2</ele>
        <time>2021-01-16T08:39:48Z</time>
      </trkpt>
      <trkpt lat="45.32466" lon="6.04698">
        <ele>1454.2</ele>
        <time>2021-01-16T08:39:49Z</time>
      </trkpt>
      <trkpt lat="45.32466" lon="6.04698">
        <ele>1454.2</ele>
        <time>2021-01-16T08:39:50Z</time>
      </trkpt>
      <trkpt lat="45.32466" lon="6.04698">
        <ele>1454.2</ele>
        <time>2021-01-16T08:39:51Z</time>
      </trkpt>
      <trkpt lat="45.32466" lon="6.04698">
        <ele>1454.2</ele>
        <time>2021-01-16T08:39:52Z</time>
      </trkpt>
      <trkpt lat="45.32466" lon="6.04698">
        <ele>1454.2</ele>
        <time>2021-01-16T08:39:53Z</time>
      </trkpt>
      <trkpt lat="45.32466" lon="6.04698">
        <ele>1454.2</ele>
        <time>2021-01-16T08:39:54Z</time>
      </trkpt>
      <trkpt lat="45.32466" lon="6.04698">
        <ele>1454.2</ele>
        <time>2021-01-16T08:39:55Z</time>
      </trkpt>
      <trkpt lat="45.32466" lon="6.04698">
        <ele>1454</ele>
        <time>2021-01-16T08:39:56Z</time>
      </trkpt>
      <trkpt lat="45.32466" lon="6.04698">
        <ele>1454</ele>
        <time>2021-01-16T08:39:57Z</time>
      </trkpt>
      <trkpt lat="45.32466" lon="6.04698">
        <ele>1454.2</ele>
        <time>2021-01-16T08:39:58Z</time>
      </trkpt>
      <trkpt lat="45.32466" lon="6.04698">
        <ele>1454.2</ele>
        <time>2021-01-16T08:39:59Z</time>
      </trkpt>
      <trkpt lat="45.32466" lon="6.04698">
        <ele>1454.4</ele>
        <time>2021-01-16T08:40:00Z</time>
      </trkpt>
      <trkpt lat="45.32466" lon="6.04698">
        <ele>1454.2</ele>
        <time>2021-01-16T08:40:01Z</time>
      </trkpt>
      <trkpt lat="45.32466" lon="6.04698">
        <ele>1454.2</ele>
        <time>2021-01-16T08:40:02Z</time>
      </trkpt>
      <trkpt lat="45.32466" lon="6.04698">
        <ele>1454.2</ele>
        <time>2021-01-16T08:40:03Z</time>
      </trkpt>
      <trkpt lat="45.32466" lon="6.04698">
        <ele>1454.2</ele>
        <time>2021-01-16T08:40:04Z</time>
      </trkpt>
      <trkpt lat="45.32466" lon="6.04698">
        <ele>1454.2</ele>
        <time>2021-01-16T08:40:05Z</time>
      </trkpt>
      <trkpt lat="45.32466" lon="6.04698">
        <ele>1454.2</ele>
        <time>2021-01-16T08:40:06Z</time>
      </trkpt>
      <trkpt lat="45.32466" lon="6.04698">
        <ele>1454.2</ele>
        <time>2021-01-16T08:40:07Z</time>
      </trkpt>
      <trkpt lat="45.32466" lon="6.04698">
        <ele>1454.2</ele>
        <time>2021-01-16T08:40:08Z</time>
      </trkpt>
      <trkpt lat="45.32466" lon="6.04698">
        <ele>1454.2</ele>
        <time>2021-01-16T08:40:09Z</time>
      </trkpt>
      <trkpt lat="45.32466" lon="6.04698">
        <ele>1454.4</ele>
        <time>2021-01-16T08:40:10Z</time>
      </trkpt>
      <trkpt lat="45.32466" lon="6.04698">
        <ele>1454.4</ele>
        <time>2021-01-16T08:40:11Z</time>
      </trkpt>
      <trkpt lat="45.32466" lon="6.04698">
        <ele>1454.4</ele>
        <time>2021-01-16T08:40:12Z</time>
      </trkpt>
      <trkpt lat="45.32466" lon="6.04698">
        <ele>1454.4</ele>
        <time>2021-01-16T08:40:13Z</time>
      </trkpt>
      <trkpt lat="45.32466" lon="6.04698">
        <ele>1454.4</ele>
        <time>2021-01-16T08:40:14Z</time>
      </trkpt>
      <trkpt lat="45.32466" lon="6.04698">
        <ele>1454.4</ele>
        <time>2021-01-16T08:40:15Z</time>
      </trkpt>
      <trkpt lat="45.32466" lon="6.04698">
        <ele>1454.4</ele>
        <time>2021-01-16T08:40:16Z</time>
      </trkpt>
      <trkpt lat="45.32466" lon="6.04698">
        <ele>1454.2</ele>
        <time>2021-01-16T08:40:17Z</time>
      </trkpt>
      <trkpt lat="45.32466" lon="6.04698">
        <ele>1454.2</ele>
        <time>2021-01-16T08:40:18Z</time>
      </trkpt>
      <trkpt lat="45.32466" lon="6.04698">
        <ele>1454.2</ele>
        <time>2021-01-16T08:40:19Z</time>
      </trkpt>
      <trkpt lat="45.32466" lon="6.04698">
        <ele>1454.2</ele>
        <time>2021-01-16T08:40:20Z</time>
      </trkpt>
      <trkpt lat="45.32466" lon="6.04698">
        <ele>1454.2</ele>
        <time>2021-01-16T08:40:21Z</time>
      </trkpt>
      <trkpt lat="45.32466" lon="6.04698">
        <ele>1454</ele>
        <time>2021-01-16T08:40:22Z</time>
      </trkpt>
      <trkpt lat="45.32466" lon="6.04698">
        <ele>1454</ele>
        <time>2021-01-16T08:40:23Z</time>
      </trkpt>
      <trkpt lat="45.32466" lon="6.04698">
        <ele>1454</ele>
        <time>2021-01-16T08:40:24Z</time>
      </trkpt>
      <trkpt lat="45.32466" lon="6.04698">
        <ele>1454</ele>
        <time>2021-01-16T08:40:25Z</time>
      </trkpt>
      <trkpt lat="45.32466" lon="6.04698">
        <ele>1454.2</ele>
        <time>2021-01-16T08:40:26Z</time>
      </trkpt>
      <trkpt lat="45.32466" lon="6.04698">
        <ele>1454.2</ele>
        <time>2021-01-16T08:40:27Z</time>
      </trkpt>
      <trkpt lat="45.32466" lon="6.04698">
        <ele>1454.2</ele>
        <time>2021-01-16T08:40:28Z</time>
      </trkpt>
      <trkpt lat="45.32466" lon="6.04698">
        <ele>1454.2</ele>
        <time>2021-01-16T08:40:29Z</time>
      </trkpt>
      <trkpt lat="45.32466" lon="6.04698">
        <ele>1454.2</ele>
        <time>2021-01-16T08:40:30Z</time>
      </trkpt>
      <trkpt lat="45.32466" lon="6.04698">
        <ele>1454.2</ele>
        <time>2021-01-16T08:40:31Z</time>
      </trkpt>
      <trkpt lat="45.32466" lon="6.04698">
        <ele>1454.2</ele>
        <time>2021-01-16T08:40:32Z</time>
      </trkpt>
      <trkpt lat="45.32466" lon="6.04698">
        <ele>1454.2</ele>
        <time>2021-01-16T08:40:33Z</time>
      </trkpt>
      <trkpt lat="45.32466" lon="6.04698">
        <ele>1454.4</ele>
        <time>2021-01-16T08:40:34Z</time>
      </trkpt>
      <trkpt lat="45.32466" lon="6.04698">
        <ele>1454.4</ele>
        <time>2021-01-16T08:40:35Z</time>
      </trkpt>
      <trkpt lat="45.32466" lon="6.04698">
        <ele>1454.4</ele>
        <time>2021-01-16T08:40:36Z</time>
      </trkpt>
      <trkpt lat="45.32466" lon="6.04698">
        <ele>1454.4</ele>
        <time>2021-01-16T08:40:37Z</time>
      </trkpt>
      <trkpt lat="45.32466" lon="6.04698">
        <ele>1454.4</ele>
        <time>2021-01-16T08:40:38Z</time>
      </trkpt>
      <trkpt lat="45.32466" lon="6.04698">
        <ele>1454.4</ele>
        <time>2021-01-16T08:40:39Z</time>
      </trkpt>
      <trkpt lat="45.32466" lon="6.04698">
        <ele>1454.4</ele>
        <time>2021-01-16T08:40:40Z</time>
      </trkpt>
      <trkpt lat="45.32466" lon="6.04698">
        <ele>1454.4</ele>
        <time>2021-01-16T08:40:41Z</time>
      </trkpt>
      <trkpt lat="45.32466" lon="6.04698">
        <ele>1454.4</ele>
        <time>2021-01-16T08:40:42Z</time>
      </trkpt>
      <trkpt lat="45.32466" lon="6.04698">
        <ele>1454.4</ele>
        <time>2021-01-16T08:40:43Z</time>
      </trkpt>
      <trkpt lat="45.32466" lon="6.04698">
        <ele>1454.4</ele>
        <time>2021-01-16T08:40:44Z</time>
      </trkpt>
      <trkpt lat="45.32466" lon="6.04698">
        <ele>1454.4</ele>
        <time>2021-01-16T08:40:45Z</time>
      </trkpt>
      <trkpt lat="45.32466" lon="6.04698">
        <ele>1454.4</ele>
        <time>2021-01-16T08:40:46Z</time>
      </trkpt>
      <trkpt lat="45.32466" lon="6.04698">
        <ele>1454.4</ele>
        <time>2021-01-16T08:40:47Z</time>
      </trkpt>
      <trkpt lat="45.32466" lon="6.04698">
        <ele>1454.4</ele>
        <time>2021-01-16T08:40:48Z</time>
      </trkpt>
      <trkpt lat="45.32466" lon="6.04698">
        <ele>1454.4</ele>
        <time>2021-01-16T08:40:49Z</time>
      </trkpt>
      <trkpt lat="45.32466" lon="6.04698">
        <ele>1454.4</ele>
        <time>2021-01-16T08:40:50Z</time>
      </trkpt>
      <trkpt lat="45.32466" lon="6.04698">
        <ele>1454.4</ele>
        <time>2021-01-16T08:40:51Z</time>
      </trkpt>
      <trkpt lat="45.32466" lon="6.04698">
        <ele>1454.4</ele>
        <time>2021-01-16T08:40:52Z</time>
      </trkpt>
      <trkpt lat="45.32466" lon="6.04698">
        <ele>1454.4</ele>
        <time>2021-01-16T08:40:53Z</time>
      </trkpt>
      <trkpt lat="45.32466" lon="6.04698">
        <ele>1454.4</ele>
        <time>2021-01-16T08:40:54Z</time>
      </trkpt>
      <trkpt lat="45.32466" lon="6.04698">
        <ele>1454.4</ele>
        <time>2021-01-16T08:40:55Z</time>
      </trkpt>
      <trkpt lat="45.32466" lon="6.04698">
        <ele>1454.4</ele>
        <time>2021-01-16T08:40:56Z</time>
      </trkpt>
      <trkpt lat="45.32466" lon="6.04698">
        <ele>1454.4</ele>
        <time>2021-01-16T08:40:57Z</time>
      </trkpt>
      <trkpt lat="45.32466" lon="6.04698">
        <ele>1454.2</ele>
        <time>2021-01-16T08:40:58Z</time>
      </trkpt>
      <trkpt lat="45.32466" lon="6.04698">
        <ele>1454.4</ele>
        <time>2021-01-16T08:40:59Z</time>
      </trkpt>
      <trkpt lat="45.32466" lon="6.04698">
        <ele>1454.4</ele>
        <time>2021-01-16T08:41:00Z</time>
      </trkpt>
      <trkpt lat="45.32466" lon="6.04698">
        <ele>1454.4</ele>
        <time>2021-01-16T08:41:01Z</time>
      </trkpt>
      <trkpt lat="45.32466" lon="6.04698">
        <ele>1454.4</ele>
        <time>2021-01-16T08:41:02Z</time>
      </trkpt>
      <trkpt lat="45.32466" lon="6.04698">
        <ele>1454.4</ele>
        <time>2021-01-16T08:41:03Z</time>
      </trkpt>
      <trkpt lat="45.32466" lon="6.04698">
        <ele>1454.4</ele>
        <time>2021-01-16T08:41:04Z</time>
      </trkpt>
      <trkpt lat="45.32466" lon="6.04698">
        <ele>1454.4</ele>
        <time>2021-01-16T08:41:05Z</time>
      </trkpt>
      <trkpt lat="45.32466" lon="6.04698">
        <ele>1454.4</ele>
        <time>2021-01-16T08:41:06Z</time>
      </trkpt>
      <trkpt lat="45.32466" lon="6.04698">
        <ele>1454.4</ele>
        <time>2021-01-16T08:41:07Z</time>
      </trkpt>
      <trkpt lat="45.32466" lon="6.04698">
        <ele>1454.4</ele>
        <time>2021-01-16T08:41:08Z</time>
      </trkpt>
      <trkpt lat="45.32466" lon="6.04698">
        <ele>1454.4</ele>
        <time>2021-01-16T08:41:09Z</time>
      </trkpt>
      <trkpt lat="45.32466" lon="6.04698">
        <ele>1454.4</ele>
        <time>2021-01-16T08:41:10Z</time>
      </trkpt>
      <trkpt lat="45.32466" lon="6.04698">
        <ele>1454.4</ele>
        <time>2021-01-16T08:41:11Z</time>
      </trkpt>
      <trkpt lat="45.32466" lon="6.04698">
        <ele>1454.4</ele>
        <time>2021-01-16T08:41:12Z</time>
      </trkpt>
      <trkpt lat="45.32466" lon="6.04698">
        <ele>1454.4</ele>
        <time>2021-01-16T08:41:13Z</time>
      </trkpt>
      <trkpt lat="45.32466" lon="6.04698">
        <ele>1454.4</ele>
        <time>2021-01-16T08:41:14Z</time>
      </trkpt>
      <trkpt lat="45.32466" lon="6.04698">
        <ele>1454.2</ele>
        <time>2021-01-16T08:41:15Z</time>
      </trkpt>
      <trkpt lat="45.32466" lon="6.04698">
        <ele>1454</ele>
        <time>2021-01-16T08:41:16Z</time>
      </trkpt>
      <trkpt lat="45.32466" lon="6.04698">
        <ele>1454</ele>
        <time>2021-01-16T08:41:17Z</time>
      </trkpt>
      <trkpt lat="45.32466" lon="6.04698">
        <ele>1454.2</ele>
        <time>2021-01-16T08:41:18Z</time>
      </trkpt>
      <trkpt lat="45.32466" lon="6.04698">
        <ele>1454.2</ele>
        <time>2021-01-16T08:41:19Z</time>
      </trkpt>
      <trkpt lat="45.32466" lon="6.04698">
        <ele>1454.4</ele>
        <time>2021-01-16T08:41:20Z</time>
      </trkpt>
      <trkpt lat="45.32466" lon="6.04698">
        <ele>1454.4</ele>
        <time>2021-01-16T08:41:21Z</time>
      </trkpt>
      <trkpt lat="45.32466" lon="6.04698">
        <ele>1454.4</ele>
        <time>2021-01-16T08:41:22Z</time>
      </trkpt>
      <trkpt lat="45.32466" lon="6.04698">
        <ele>1454.6</ele>
        <time>2021-01-16T08:41:23Z</time>
      </trkpt>
      <trkpt lat="45.32466" lon="6.04698">
        <ele>1454.6</ele>
        <time>2021-01-16T08:41:24Z</time>
      </trkpt>
      <trkpt lat="45.32466" lon="6.04698">
        <ele>1454.6</ele>
        <time>2021-01-16T08:41:25Z</time>
      </trkpt>
      <trkpt lat="45.32466" lon="6.04698">
        <ele>1454.6</ele>
        <time>2021-01-16T08:41:26Z</time>
      </trkpt>
      <trkpt lat="45.32466" lon="6.04698">
        <ele>1454.4</ele>
        <time>2021-01-16T08:41:27Z</time>
      </trkpt>
      <trkpt lat="45.32466" lon="6.04698">
        <ele>1454.4</ele>
        <time>2021-01-16T08:41:28Z</time>
      </trkpt>
      <trkpt lat="45.32466" lon="6.04698">
        <ele>1454.4</ele>
        <time>2021-01-16T08:41:29Z</time>
      </trkpt>
      <trkpt lat="45.32466" lon="6.04698">
        <ele>1454.4</ele>
        <time>2021-01-16T08:41:30Z</time>
      </trkpt>
      <trkpt lat="45.32466" lon="6.04698">
        <ele>1454.4</ele>
        <time>2021-01-16T08:41:31Z</time>
      </trkpt>
      <trkpt lat="45.32466" lon="6.04698">
        <ele>1454.4</ele>
        <time>2021-01-16T08:41:32Z</time>
      </trkpt>
      <trkpt lat="45.32466" lon="6.04698">
        <ele>1454.4</ele>
        <time>2021-01-16T08:41:33Z</time>
      </trkpt>
      <trkpt lat="45.32466" lon="6.04698">
        <ele>1454.4</ele>
        <time>2021-01-16T08:41:34Z</time>
      </trkpt>
      <trkpt lat="45.32466" lon="6.04698">
        <ele>1454.4</ele>
        <time>2021-01-16T08:41:35Z</time>
      </trkpt>
      <trkpt lat="45.32466" lon="6.04698">
        <ele>1454.4</ele>
        <time>2021-01-16T08:41:36Z</time>
      </trkpt>
      <trkpt lat="45.32466" lon="6.04698">
        <ele>1454.4</ele>
        <time>2021-01-16T08:41:37Z</time>
      </trkpt>
      <trkpt lat="45.32466" lon="6.04698">
        <ele>1454.4</ele>
        <time>2021-01-16T08:41:38Z</time>
      </trkpt>
      <trkpt lat="45.32466" lon="6.04698">
        <ele>1454.4</ele>
        <time>2021-01-16T08:41:39Z</time>
      </trkpt>
      <trkpt lat="45.32466" lon="6.04698">
        <ele>1454.4</ele>
        <time>2021-01-16T08:41:40Z</time>
      </trkpt>
      <trkpt lat="45.32466" lon="6.04698">
        <ele>1454.4</ele>
        <time>2021-01-16T08:41:41Z</time>
      </trkpt>
      <trkpt lat="45.32466" lon="6.04698">
        <ele>1454.4</ele>
        <time>2021-01-16T08:41:42Z</time>
      </trkpt>
      <trkpt lat="45.32466" lon="6.04698">
        <ele>1454.4</ele>
        <time>2021-01-16T08:41:43Z</time>
      </trkpt>
      <trkpt lat="45.32466" lon="6.04698">
        <ele>1454.4</ele>
        <time>2021-01-16T08:41:44Z</time>
      </trkpt>
      <trkpt lat="45.32466" lon="6.04698">
        <ele>1454.4</ele>
        <time>2021-01-16T08:41:45Z</time>
      </trkpt>
      <trkpt lat="45.32466" lon="6.04698">
        <ele>1454.4</ele>
        <time>2021-01-16T08:41:46Z</time>
      </trkpt>
      <trkpt lat="45.32466" lon="6.04698">
        <ele>1454.6</ele>
        <time>2021-01-16T08:41:47Z</time>
      </trkpt>
      <trkpt lat="45.32466" lon="6.04698">
        <ele>1454.6</ele>
        <time>2021-01-16T08:41:48Z</time>
      </trkpt>
      <trkpt lat="45.32466" lon="6.04698">
        <ele>1454.6</ele>
        <time>2021-01-16T08:41:49Z</time>
      </trkpt>
      <trkpt lat="45.32466" lon="6.04698">
        <ele>1454.6</ele>
        <time>2021-01-16T08:41:50Z</time>
      </trkpt>
      <trkpt lat="45.32466" lon="6.04698">
        <ele>1454.6</ele>
        <time>2021-01-16T08:41:51Z</time>
      </trkpt>
      <trkpt lat="45.32466" lon="6.04698">
        <ele>1454.6</ele>
        <time>2021-01-16T08:41:52Z</time>
      </trkpt>
      <trkpt lat="45.32466" lon="6.04698">
        <ele>1454.4</ele>
        <time>2021-01-16T08:41:53Z</time>
      </trkpt>
      <trkpt lat="45.32466" lon="6.04698">
        <ele>1454.4</ele>
        <time>2021-01-16T08:41:54Z</time>
      </trkpt>
      <trkpt lat="45.32466" lon="6.04698">
        <ele>1454.4</ele>
        <time>2021-01-16T08:41:55Z</time>
      </trkpt>
      <trkpt lat="45.32466" lon="6.04698">
        <ele>1454.4</ele>
        <time>2021-01-16T08:41:56Z</time>
      </trkpt>
      <trkpt lat="45.32466" lon="6.04698">
        <ele>1454.4</ele>
        <time>2021-01-16T08:41:57Z</time>
      </trkpt>
      <trkpt lat="45.32466" lon="6.04698">
        <ele>1454.4</ele>
        <time>2021-01-16T08:41:58Z</time>
      </trkpt>
      <trkpt lat="45.32466" lon="6.04698">
        <ele>1454.4</ele>
        <time>2021-01-16T08:41:59Z</time>
      </trkpt>
      <trkpt lat="45.32466" lon="6.04698">
        <ele>1454.4</ele>
        <time>2021-01-16T08:42:00Z</time>
      </trkpt>
      <trkpt lat="45.32466" lon="6.04698">
        <ele>1454.4</ele>
        <time>2021-01-16T08:42:01Z</time>
      </trkpt>
      <trkpt lat="45.32466" lon="6.04698">
        <ele>1454.4</ele>
        <time>2021-01-16T08:42:02Z</time>
      </trkpt>
      <trkpt lat="45.32466" lon="6.04698">
        <ele>1454.6</ele>
        <time>2021-01-16T08:42:03Z</time>
      </trkpt>
      <trkpt lat="45.32466" lon="6.04698">
        <ele>1454.6</ele>
        <time>2021-01-16T08:42:04Z</time>
      </trkpt>
      <trkpt lat="45.32466" lon="6.04698">
        <ele>1454.4</ele>
        <time>2021-01-16T08:42:05Z</time>
      </trkpt>
      <trkpt lat="45.32466" lon="6.04698">
        <ele>1454.4</ele>
        <time>2021-01-16T08:42:06Z</time>
      </trkpt>
      <trkpt lat="45.32466" lon="6.04698">
        <ele>1454.4</ele>
        <time>2021-01-16T08:42:07Z</time>
      </trkpt>
      <trkpt lat="45.32466" lon="6.04698">
        <ele>1454.4</ele>
        <time>2021-01-16T08:42:08Z</time>
      </trkpt>
      <trkpt lat="45.32466" lon="6.04698">
        <ele>1454.2</ele>
        <time>2021-01-16T08:42:09Z</time>
      </trkpt>
      <trkpt lat="45.32466" lon="6.04698">
        <ele>1454.6</ele>
        <time>2021-01-16T08:42:10Z</time>
      </trkpt>
      <trkpt lat="45.32466" lon="6.04698">
        <ele>1454.6</ele>
        <time>2021-01-16T08:42:11Z</time>
      </trkpt>
      <trkpt lat="45.32466" lon="6.04698">
        <ele>1454.6</ele>
        <time>2021-01-16T08:42:12Z</time>
      </trkpt>
      <trkpt lat="45.32466" lon="6.04698">
        <ele>1454.4</ele>
        <time>2021-01-16T08:42:13Z</time>
      </trkpt>
      <trkpt lat="45.32466" lon="6.04698">
        <ele>1454.4</ele>
        <time>2021-01-16T08:42:14Z</time>
      </trkpt>
      <trkpt lat="45.32466" lon="6.04698">
        <ele>1454.4</ele>
        <time>2021-01-16T08:42:15Z</time>
      </trkpt>
      <trkpt lat="45.32466" lon="6.04698">
        <ele>1454.4</ele>
        <time>2021-01-16T08:42:16Z</time>
      </trkpt>
      <trkpt lat="45.32466" lon="6.04698">
        <ele>1454.4</ele>
        <time>2021-01-16T08:42:17Z</time>
      </trkpt>
      <trkpt lat="45.32466" lon="6.04698">
        <ele>1454.4</ele>
        <time>2021-01-16T08:42:18Z</time>
      </trkpt>
      <trkpt lat="45.32466" lon="6.04698">
        <ele>1454.4</ele>
        <time>2021-01-16T08:42:19Z</time>
      </trkpt>
      <trkpt lat="45.32466" lon="6.04698">
        <ele>1454.4</ele>
        <time>2021-01-16T08:42:20Z</time>
      </trkpt>
      <trkpt lat="45.32466" lon="6.04698">
        <ele>1454.4</ele>
        <time>2021-01-16T08:42:21Z</time>
      </trkpt>
      <trkpt lat="45.32466" lon="6.04698">
        <ele>1454.4</ele>
        <time>2021-01-16T08:42:22Z</time>
      </trkpt>
      <trkpt lat="45.32466" lon="6.04698">
        <ele>1454.4</ele>
        <time>2021-01-16T08:42:23Z</time>
      </trkpt>
      <trkpt lat="45.32466" lon="6.04698">
        <ele>1454.4</ele>
        <time>2021-01-16T08:42:24Z</time>
      </trkpt>
      <trkpt lat="45.32466" lon="6.04698">
        <ele>1454.4</ele>
        <time>2021-01-16T08:42:25Z</time>
      </trkpt>
      <trkpt lat="45.32466" lon="6.04698">
        <ele>1454.4</ele>
        <time>2021-01-16T08:42:26Z</time>
      </trkpt>
      <trkpt lat="45.32466" lon="6.04698">
        <ele>1454.4</ele>
        <time>2021-01-16T08:42:27Z</time>
      </trkpt>
      <trkpt lat="45.32466" lon="6.04698">
        <ele>1454.4</ele>
        <time>2021-01-16T08:42:28Z</time>
      </trkpt>
      <trkpt lat="45.32466" lon="6.04698">
        <ele>1454.4</ele>
        <time>2021-01-16T08:42:29Z</time>
      </trkpt>
      <trkpt lat="45.32466" lon="6.04698">
        <ele>1454.4</ele>
        <time>2021-01-16T08:42:30Z</time>
      </trkpt>
      <trkpt lat="45.32466" lon="6.04698">
        <ele>1454.4</ele>
        <time>2021-01-16T08:42:31Z</time>
      </trkpt>
      <trkpt lat="45.32466" lon="6.04698">
        <ele>1454.4</ele>
        <time>2021-01-16T08:42:32Z</time>
      </trkpt>
      <trkpt lat="45.32466" lon="6.04698">
        <ele>1454.4</ele>
        <time>2021-01-16T08:42:33Z</time>
      </trkpt>
      <trkpt lat="45.32466" lon="6.04698">
        <ele>1454.4</ele>
        <time>2021-01-16T08:42:34Z</time>
      </trkpt>
      <trkpt lat="45.32466" lon="6.04698">
        <ele>1454.4</ele>
        <time>2021-01-16T08:42:35Z</time>
      </trkpt>
      <trkpt lat="45.32466" lon="6.04698">
        <ele>1454.4</ele>
        <time>2021-01-16T08:42:36Z</time>
      </trkpt>
      <trkpt lat="45.32466" lon="6.04698">
        <ele>1454.4</ele>
        <time>2021-01-16T08:42:37Z</time>
      </trkpt>
      <trkpt lat="45.32466" lon="6.04698">
        <ele>1454.4</ele>
        <time>2021-01-16T08:42:38Z</time>
      </trkpt>
      <trkpt lat="45.32466" lon="6.04698">
        <ele>1454.4</ele>
        <time>2021-01-16T08:42:39Z</time>
      </trkpt>
      <trkpt lat="45.32466" lon="6.04698">
        <ele>1454.4</ele>
        <time>2021-01-16T08:42:40Z</time>
      </trkpt>
      <trkpt lat="45.32466" lon="6.04698">
        <ele>1454.4</ele>
        <time>2021-01-16T08:42:41Z</time>
      </trkpt>
      <trkpt lat="45.32466" lon="6.04698">
        <ele>1454.4</ele>
        <time>2021-01-16T08:42:42Z</time>
      </trkpt>
      <trkpt lat="45.32466" lon="6.04698">
        <ele>1454.4</ele>
        <time>2021-01-16T08:42:43Z</time>
      </trkpt>
      <trkpt lat="45.32466" lon="6.04698">
        <ele>1454.4</ele>
        <time>2021-01-16T08:42:44Z</time>
      </trkpt>
      <trkpt lat="45.32466" lon="6.04698">
        <ele>1454.4</ele>
        <time>2021-01-16T08:42:45Z</time>
      </trkpt>
      <trkpt lat="45.32466" lon="6.04698">
        <ele>1454.4</ele>
        <time>2021-01-16T08:42:46Z</time>
      </trkpt>
      <trkpt lat="45.32466" lon="6.04698">
        <ele>1454.4</ele>
        <time>2021-01-16T08:42:47Z</time>
      </trkpt>
      <trkpt lat="45.32466" lon="6.04698">
        <ele>1454.4</ele>
        <time>2021-01-16T08:42:48Z</time>
      </trkpt>
      <trkpt lat="45.32466" lon="6.04698">
        <ele>1454.4</ele>
        <time>2021-01-16T08:42:49Z</time>
      </trkpt>
      <trkpt lat="45.32466" lon="6.04698">
        <ele>1454.4</ele>
        <time>2021-01-16T08:42:50Z</time>
      </trkpt>
      <trkpt lat="45.32466" lon="6.04698">
        <ele>1454.4</ele>
        <time>2021-01-16T08:42:51Z</time>
      </trkpt>
      <trkpt lat="45.32466" lon="6.04698">
        <ele>1454.4</ele>
        <time>2021-01-16T08:42:52Z</time>
      </trkpt>
      <trkpt lat="45.32466" lon="6.04698">
        <ele>1454.4</ele>
        <time>2021-01-16T08:42:53Z</time>
      </trkpt>
      <trkpt lat="45.32466" lon="6.04698">
        <ele>1454.4</ele>
        <time>2021-01-16T08:42:54Z</time>
      </trkpt>
      <trkpt lat="45.32466" lon="6.04698">
        <ele>1454.4</ele>
        <time>2021-01-16T08:42:55Z</time>
      </trkpt>
      <trkpt lat="45.32466" lon="6.04698">
        <ele>1454.4</ele>
        <time>2021-01-16T08:42:56Z</time>
      </trkpt>
      <trkpt lat="45.32466" lon="6.04698">
        <ele>1454.4</ele>
        <time>2021-01-16T08:42:57Z</time>
      </trkpt>
      <trkpt lat="45.32466" lon="6.04698">
        <ele>1454.6</ele>
        <time>2021-01-16T08:42:58Z</time>
      </trkpt>
      <trkpt lat="45.32466" lon="6.04698">
        <ele>1454.6</ele>
        <time>2021-01-16T08:42:59Z</time>
      </trkpt>
      <trkpt lat="45.32466" lon="6.04698">
        <ele>1454.6</ele>
        <time>2021-01-16T08:43:00Z</time>
      </trkpt>
      <trkpt lat="45.32466" lon="6.04698">
        <ele>1454.6</ele>
        <time>2021-01-16T08:43:01Z</time>
      </trkpt>
      <trkpt lat="45.32465" lon="6.04697">
        <ele>1454.6</ele>
        <time>2021-01-16T08:43:02Z</time>
      </trkpt>
      <trkpt lat="45.32462" lon="6.04697">
        <ele>1454.6</ele>
        <time>2021-01-16T08:43:03Z</time>
      </trkpt>
      <trkpt lat="45.32461" lon="6.04696">
        <ele>1454.6</ele>
        <time>2021-01-16T08:43:04Z</time>
      </trkpt>
      <trkpt lat="45.32461" lon="6.04694">
        <ele>1454.4</ele>
        <time>2021-01-16T08:43:05Z</time>
      </trkpt>
      <trkpt lat="45.32459" lon="6.04692">
        <ele>1454.4</ele>
        <time>2021-01-16T08:43:06Z</time>
      </trkpt>
      <trkpt lat="45.32457" lon="6.0469">
        <ele>1454.2</ele>
        <time>2021-01-16T08:43:07Z</time>
      </trkpt>
      <trkpt lat="45.32456" lon="6.04687">
        <ele>1454.2</ele>
        <time>2021-01-16T08:43:08Z</time>
      </trkpt>
      <trkpt lat="45.32454" lon="6.04685">
        <ele>1454</ele>
        <time>2021-01-16T08:43:09Z</time>
      </trkpt>
      <trkpt lat="45.32452" lon="6.04682">
        <ele>1454</ele>
        <time>2021-01-16T08:43:10Z</time>
      </trkpt>
      <trkpt lat="45.32451" lon="6.0468">
        <ele>1454.2</ele>
        <time>2021-01-16T08:43:11Z</time>
      </trkpt>
      <trkpt lat="45.32451" lon="6.04678">
        <ele>1454</ele>
        <time>2021-01-16T08:43:12Z</time>
      </trkpt>
      <trkpt lat="45.32451" lon="6.04678">
        <ele>1454</ele>
        <time>2021-01-16T08:43:13Z</time>
      </trkpt>
      <trkpt lat="45.32451" lon="6.04677">
        <ele>1454</ele>
        <time>2021-01-16T08:43:14Z</time>
      </trkpt>
      <trkpt lat="45.3245" lon="6.04677">
        <ele>1454.2</ele>
        <time>2021-01-16T08:43:15Z</time>
      </trkpt>
      <trkpt lat="45.3245" lon="6.04676">
        <ele>1454.2</ele>
        <time>2021-01-16T08:43:16Z</time>
      </trkpt>
      <trkpt lat="45.3245" lon="6.04674">
        <ele>1454.2</ele>
        <time>2021-01-16T08:43:17Z</time>
      </trkpt>
      <trkpt lat="45.32449" lon="6.04673">
        <ele>1454.2</ele>
        <time>2021-01-16T08:43:18Z</time>
      </trkpt>
      <trkpt lat="45.32449" lon="6.04672">
        <ele>1454.2</ele>
        <time>2021-01-16T08:43:19Z</time>
      </trkpt>
      <trkpt lat="45.32449" lon="6.0467">
        <ele>1454.2</ele>
        <time>2021-01-16T08:43:20Z</time>
      </trkpt>
      <trkpt lat="45.32449" lon="6.04669">
        <ele>1454.2</ele>
        <time>2021-01-16T08:43:21Z</time>
      </trkpt>
      <trkpt lat="45.32448" lon="6.04667">
        <ele>1454.2</ele>
        <time>2021-01-16T08:43:22Z</time>
      </trkpt>
      <trkpt lat="45.32448" lon="6.04666">
        <ele>1454.2</ele>
        <time>2021-01-16T08:43:23Z</time>
      </trkpt>
      <trkpt lat="45.32448" lon="6.04664">
        <ele>1454.2</ele>
        <time>2021-01-16T08:43:24Z</time>
      </trkpt>
      <trkpt lat="45.32447" lon="6.04663">
        <ele>1454.2</ele>
        <time>2021-01-16T08:43:25Z</time>
      </trkpt>
      <trkpt lat="45.32447" lon="6.04661">
        <ele>1454.4</ele>
        <time>2021-01-16T08:43:26Z</time>
      </trkpt>
      <trkpt lat="45.32446" lon="6.0466">
        <ele>1454.2</ele>
        <time>2021-01-16T08:43:27Z</time>
      </trkpt>
      <trkpt lat="45.32446" lon="6.04658">
        <ele>1454.2</ele>
        <time>2021-01-16T08:43:28Z</time>
      </trkpt>
      <trkpt lat="45.32445" lon="6.04656">
        <ele>1454.2</ele>
        <time>2021-01-16T08:43:29Z</time>
      </trkpt>
      <trkpt lat="45.32444" lon="6.04655">
        <ele>1454.2</ele>
        <time>2021-01-16T08:43:30Z</time>
      </trkpt>
      <trkpt lat="45.32444" lon="6.04653">
        <ele>1454.4</ele>
        <time>2021-01-16T08:43:31Z</time>
      </trkpt>
      <trkpt lat="45.32444" lon="6.04652">
        <ele>1454.4</ele>
        <time>2021-01-16T08:43:32Z</time>
      </trkpt>
      <trkpt lat="45.32443" lon="6.04651">
        <ele>1454.4</ele>
        <time>2021-01-16T08:43:33Z</time>
      </trkpt>
      <trkpt lat="45.32443" lon="6.04649">
        <ele>1454.4</ele>
        <time>2021-01-16T08:43:34Z</time>
      </trkpt>
      <trkpt lat="45.32442" lon="6.04648">
        <ele>1454.4</ele>
        <time>2021-01-16T08:43:35Z</time>
      </trkpt>
      <trkpt lat="45.32442" lon="6.04646">
        <ele>1454.4</ele>
        <time>2021-01-16T08:43:36Z</time>
      </trkpt>
      <trkpt lat="45.32441" lon="6.04645">
        <ele>1454.6</ele>
        <time>2021-01-16T08:43:37Z</time>
      </trkpt>
      <trkpt lat="45.3244" lon="6.04643">
        <ele>1454.4</ele>
        <time>2021-01-16T08:43:38Z</time>
      </trkpt>
      <trkpt lat="45.3244" lon="6.0464">
        <ele>1454.4</ele>
        <time>2021-01-16T08:43:39Z</time>
      </trkpt>
      <trkpt lat="45.32439" lon="6.04639">
        <ele>1454.4</ele>
        <time>2021-01-16T08:43:40Z</time>
      </trkpt>
      <trkpt lat="45.32438" lon="6.04637">
        <ele>1454.4</ele>
        <time>2021-01-16T08:43:41Z</time>
      </trkpt>
      <trkpt lat="45.32437" lon="6.04636">
        <ele>1454.6</ele>
        <time>2021-01-16T08:43:42Z</time>
      </trkpt>
      <trkpt lat="45.32437" lon="6.04634">
        <ele>1454.6</ele>
        <time>2021-01-16T08:43:43Z</time>
      </trkpt>
      <trkpt lat="45.32436" lon="6.04633">
        <ele>1454.6</ele>
        <time>2021-01-16T08:43:44Z</time>
      </trkpt>
      <trkpt lat="45.32436" lon="6.04632">
        <ele>1454.4</ele>
        <time>2021-01-16T08:43:45Z</time>
      </trkpt>
      <trkpt lat="45.32435" lon="6.04632">
        <ele>1454.2</ele>
        <time>2021-01-16T08:43:46Z</time>
      </trkpt>
      <trkpt lat="45.32435" lon="6.04631">
        <ele>1454.6</ele>
        <time>2021-01-16T08:43:47Z</time>
      </trkpt>
      <trkpt lat="45.32435" lon="6.0463">
        <ele>1454.6</ele>
        <time>2021-01-16T08:43:48Z</time>
      </trkpt>
      <trkpt lat="45.32434" lon="6.04629">
        <ele>1454.6</ele>
        <time>2021-01-16T08:43:49Z</time>
      </trkpt>
      <trkpt lat="45.32433" lon="6.04628">
        <ele>1454.6</ele>
        <time>2021-01-16T08:43:50Z</time>
      </trkpt>
      <trkpt lat="45.32433" lon="6.04627">
        <ele>1454.6</ele>
        <time>2021-01-16T08:43:51Z</time>
      </trkpt>
      <trkpt lat="45.32432" lon="6.04626">
        <ele>1454.6</ele>
        <time>2021-01-16T08:43:52Z</time>
      </trkpt>
      <trkpt lat="45.32431" lon="6.04625">
        <ele>1454.6</ele>
        <time>2021-01-16T08:43:53Z</time>
      </trkpt>
      <trkpt lat="45.32431" lon="6.04623">
        <ele>1454.6</ele>
        <time>2021-01-16T08:43:54Z</time>
      </trkpt>
      <trkpt lat="45.3243" lon="6.04622">
        <ele>1454.6</ele>
        <time>2021-01-16T08:43:55Z</time>
      </trkpt>
      <trkpt lat="45.32429" lon="6.0462">
        <ele>1454.6</ele>
        <time>2021-01-16T08:43:56Z</time>
      </trkpt>
      <trkpt lat="45.32429" lon="6.04618">
        <ele>1454.6</ele>
        <time>2021-01-16T08:43:57Z</time>
      </trkpt>
      <trkpt lat="45.32428" lon="6.04617">
        <ele>1454.6</ele>
        <time>2021-01-16T08:43:58Z</time>
      </trkpt>
      <trkpt lat="45.32427" lon="6.04615">
        <ele>1454.6</ele>
        <time>2021-01-16T08:43:59Z</time>
      </trkpt>
      <trkpt lat="45.32426" lon="6.04614">
        <ele>1454.6</ele>
        <time>2021-01-16T08:44:00Z</time>
      </trkpt>
      <trkpt lat="45.32426" lon="6.04612">
        <ele>1454.6</ele>
        <time>2021-01-16T08:44:01Z</time>
      </trkpt>
      <trkpt lat="45.32425" lon="6.04611">
        <ele>1454.6</ele>
        <time>2021-01-16T08:44:02Z</time>
      </trkpt>
      <trkpt lat="45.32424" lon="6.04609">
        <ele>1454.4</ele>
        <time>2021-01-16T08:44:03Z</time>
      </trkpt>
      <trkpt lat="45.32424" lon="6.04608">
        <ele>1454.4</ele>
        <time>2021-01-16T08:44:04Z</time>
      </trkpt>
      <trkpt lat="45.32423" lon="6.04607">
        <ele>1454.4</ele>
        <time>2021-01-16T08:44:05Z</time>
      </trkpt>
      <trkpt lat="45.32423" lon="6.04606">
        <ele>1454.4</ele>
        <time>2021-01-16T08:44:06Z</time>
      </trkpt>
      <trkpt lat="45.32422" lon="6.04605">
        <ele>1454.4</ele>
        <time>2021-01-16T08:44:07Z</time>
      </trkpt>
      <trkpt lat="45.32421" lon="6.04604">
        <ele>1454.4</ele>
        <time>2021-01-16T08:44:08Z</time>
      </trkpt>
      <trkpt lat="45.32421" lon="6.04603">
        <ele>1454.6</ele>
        <time>2021-01-16T08:44:09Z</time>
      </trkpt>
      <trkpt lat="45.3242" lon="6.04601">
        <ele>1454.6</ele>
        <time>2021-01-16T08:44:10Z</time>
      </trkpt>
      <trkpt lat="45.32419" lon="6.046">
        <ele>1454.6</ele>
        <time>2021-01-16T08:44:11Z</time>
      </trkpt>
      <trkpt lat="45.32419" lon="6.04598">
        <ele>1454.6</ele>
        <time>2021-01-16T08:44:12Z</time>
      </trkpt>
      <trkpt lat="45.32418" lon="6.04597">
        <ele>1454.6</ele>
        <time>2021-01-16T08:44:13Z</time>
      </trkpt>
      <trkpt lat="45.32418" lon="6.04595">
        <ele>1454.6</ele>
        <time>2021-01-16T08:44:14Z</time>
      </trkpt>
      <trkpt lat="45.32417" lon="6.04594">
        <ele>1454.6</ele>
        <time>2021-01-16T08:44:15Z</time>
      </trkpt>
      <trkpt lat="45.32416" lon="6.04592">
        <ele>1454.6</ele>
        <time>2021-01-16T08:44:16Z</time>
      </trkpt>
      <trkpt lat="45.32416" lon="6.04591">
        <ele>1454.6</ele>
        <time>2021-01-16T08:44:17Z</time>
      </trkpt>
      <trkpt lat="45.32415" lon="6.0459">
        <ele>1454.6</ele>
        <time>2021-01-16T08:44:18Z</time>
      </trkpt>
      <trkpt lat="45.32415" lon="6.04588">
        <ele>1454.6</ele>
        <time>2021-01-16T08:44:19Z</time>
      </trkpt>
      <trkpt lat="45.32414" lon="6.04587">
        <ele>1454.6</ele>
        <time>2021-01-16T08:44:20Z</time>
      </trkpt>
      <trkpt lat="45.32414" lon="6.04585">
        <ele>1454.6</ele>
        <time>2021-01-16T08:44:21Z</time>
      </trkpt>
      <trkpt lat="45.32413" lon="6.04584">
        <ele>1454.8</ele>
        <time>2021-01-16T08:44:22Z</time>
      </trkpt>
      <trkpt lat="45.32413" lon="6.04583">
        <ele>1454.6</ele>
        <time>2021-01-16T08:44:23Z</time>
      </trkpt>
      <trkpt lat="45.32413" lon="6.04581">
        <ele>1454.8</ele>
        <time>2021-01-16T08:44:24Z</time>
      </trkpt>
      <trkpt lat="45.32412" lon="6.0458">
        <ele>1454.8</ele>
        <time>2021-01-16T08:44:25Z</time>
      </trkpt>
      <trkpt lat="45.32412" lon="6.04578">
        <ele>1454.8</ele>
        <time>2021-01-16T08:44:26Z</time>
      </trkpt>
      <trkpt lat="45.32412" lon="6.04576">
        <ele>1455</ele>
        <time>2021-01-16T08:44:27Z</time>
      </trkpt>
      <trkpt lat="45.32412" lon="6.04574">
        <ele>1455</ele>
        <time>2021-01-16T08:44:28Z</time>
      </trkpt>
      <trkpt lat="45.32412" lon="6.04572">
        <ele>1455</ele>
        <time>2021-01-16T08:44:29Z</time>
      </trkpt>
      <trkpt lat="45.32411" lon="6.0457">
        <ele>1455</ele>
        <time>2021-01-16T08:44:30Z</time>
      </trkpt>
      <trkpt lat="45.32411" lon="6.04569">
        <ele>1455</ele>
        <time>2021-01-16T08:44:31Z</time>
      </trkpt>
      <trkpt lat="45.32411" lon="6.04567">
        <ele>1455</ele>
        <time>2021-01-16T08:44:32Z</time>
      </trkpt>
      <trkpt lat="45.3241" lon="6.04566">
        <ele>1455</ele>
        <time>2021-01-16T08:44:33Z</time>
      </trkpt>
      <trkpt lat="45.3241" lon="6.04564">
        <ele>1455</ele>
        <time>2021-01-16T08:44:34Z</time>
      </trkpt>
      <trkpt lat="45.3241" lon="6.04562">
        <ele>1454.8</ele>
        <time>2021-01-16T08:44:35Z</time>
      </trkpt>
      <trkpt lat="45.3241" lon="6.0456">
        <ele>1455</ele>
        <time>2021-01-16T08:44:36Z</time>
      </trkpt>
      <trkpt lat="45.3241" lon="6.04558">
        <ele>1455</ele>
        <time>2021-01-16T08:44:37Z</time>
      </trkpt>
      <trkpt lat="45.3241" lon="6.04557">
        <ele>1455</ele>
        <time>2021-01-16T08:44:38Z</time>
      </trkpt>
      <trkpt lat="45.32409" lon="6.04555">
        <ele>1455</ele>
        <time>2021-01-16T08:44:39Z</time>
      </trkpt>
      <trkpt lat="45.32409" lon="6.04553">
        <ele>1455.2</ele>
        <time>2021-01-16T08:44:40Z</time>
      </trkpt>
      <trkpt lat="45.32409" lon="6.04552">
        <ele>1455</ele>
        <time>2021-01-16T08:44:41Z</time>
      </trkpt>
      <trkpt lat="45.32409" lon="6.0455">
        <ele>1455</ele>
        <time>2021-01-16T08:44:42Z</time>
      </trkpt>
      <trkpt lat="45.32409" lon="6.04548">
        <ele>1455.2</ele>
        <time>2021-01-16T08:44:43Z</time>
      </trkpt>
      <trkpt lat="45.32409" lon="6.04547">
        <ele>1455.2</ele>
        <time>2021-01-16T08:44:44Z</time>
      </trkpt>
      <trkpt lat="45.32409" lon="6.04545">
        <ele>1455.2</ele>
        <time>2021-01-16T08:44:45Z</time>
      </trkpt>
      <trkpt lat="45.32409" lon="6.04543">
        <ele>1455.4</ele>
        <time>2021-01-16T08:44:46Z</time>
      </trkpt>
      <trkpt lat="45.32409" lon="6.04542">
        <ele>1455.4</ele>
        <time>2021-01-16T08:44:47Z</time>
      </trkpt>
      <trkpt lat="45.32408" lon="6.0454">
        <ele>1455.4</ele>
        <time>2021-01-16T08:44:48Z</time>
      </trkpt>
      <trkpt lat="45.32408" lon="6.04538">
        <ele>1455.4</ele>
        <time>2021-01-16T08:44:49Z</time>
      </trkpt>
      <trkpt lat="45.32407" lon="6.04536">
        <ele>1455.6</ele>
        <time>2021-01-16T08:44:50Z</time>
      </trkpt>
      <trkpt lat="45.32407" lon="6.04534">
        <ele>1455.4</ele>
        <time>2021-01-16T08:44:51Z</time>
      </trkpt>
      <trkpt lat="45.32408" lon="6.04532">
        <ele>1455.6</ele>
        <time>2021-01-16T08:44:52Z</time>
      </trkpt>
      <trkpt lat="45.32408" lon="6.04531">
        <ele>1455.6</ele>
        <time>2021-01-16T08:44:53Z</time>
      </trkpt>
      <trkpt lat="45.32407" lon="6.04529">
        <ele>1455.6</ele>
        <time>2021-01-16T08:44:54Z</time>
      </trkpt>
      <trkpt lat="45.32407" lon="6.04527">
        <ele>1455.6</ele>
        <time>2021-01-16T08:44:55Z</time>
      </trkpt>
      <trkpt lat="45.32407" lon="6.04526">
        <ele>1455.8</ele>
        <time>2021-01-16T08:44:56Z</time>
      </trkpt>
      <trkpt lat="45.32407" lon="6.04524">
        <ele>1455.8</ele>
        <time>2021-01-16T08:44:57Z</time>
      </trkpt>
      <trkpt lat="45.32407" lon="6.04522">
        <ele>1455.8</ele>
        <time>2021-01-16T08:44:58Z</time>
      </trkpt>
      <trkpt lat="45.32407" lon="6.04521">
        <ele>1456</ele>
        <time>2021-01-16T08:44:59Z</time>
      </trkpt>
      <trkpt lat="45.32407" lon="6.04519">
        <ele>1456</ele>
        <time>2021-01-16T08:45:00Z</time>
      </trkpt>
      <trkpt lat="45.32407" lon="6.04517">
        <ele>1456</ele>
        <time>2021-01-16T08:45:01Z</time>
      </trkpt>
      <trkpt lat="45.32406" lon="6.04516">
        <ele>1456</ele>
        <time>2021-01-16T08:45:02Z</time>
      </trkpt>
      <trkpt lat="45.32406" lon="6.04514">
        <ele>1456.2</ele>
        <time>2021-01-16T08:45:03Z</time>
      </trkpt>
      <trkpt lat="45.32406" lon="6.04513">
        <ele>1456.2</ele>
        <time>2021-01-16T08:45:04Z</time>
      </trkpt>
      <trkpt lat="45.32406" lon="6.04512">
        <ele>1456.2</ele>
        <time>2021-01-16T08:45:05Z</time>
      </trkpt>
      <trkpt lat="45.32406" lon="6.0451">
        <ele>1456.2</ele>
        <time>2021-01-16T08:45:06Z</time>
      </trkpt>
      <trkpt lat="45.32405" lon="6.04509">
        <ele>1456.4</ele>
        <time>2021-01-16T08:45:07Z</time>
      </trkpt>
      <trkpt lat="45.32405" lon="6.04507">
        <ele>1456.4</ele>
        <time>2021-01-16T08:45:08Z</time>
      </trkpt>
      <trkpt lat="45.32405" lon="6.04505">
        <ele>1456.4</ele>
        <time>2021-01-16T08:45:09Z</time>
      </trkpt>
      <trkpt lat="45.32405" lon="6.04503">
        <ele>1456.4</ele>
        <time>2021-01-16T08:45:10Z</time>
      </trkpt>
      <trkpt lat="45.32405" lon="6.04501">
        <ele>1456.6</ele>
        <time>2021-01-16T08:45:11Z</time>
      </trkpt>
      <trkpt lat="45.32405" lon="6.045">
        <ele>1456.6</ele>
        <time>2021-01-16T08:45:12Z</time>
      </trkpt>
      <trkpt lat="45.32405" lon="6.04498">
        <ele>1456.6</ele>
        <time>2021-01-16T08:45:13Z</time>
      </trkpt>
      <trkpt lat="45.32406" lon="6.04496">
        <ele>1456.6</ele>
        <time>2021-01-16T08:45:14Z</time>
      </trkpt>
      <trkpt lat="45.32406" lon="6.04495">
        <ele>1456.6</ele>
        <time>2021-01-16T08:45:15Z</time>
      </trkpt>
      <trkpt lat="45.32405" lon="6.04493">
        <ele>1456.6</ele>
        <time>2021-01-16T08:45:16Z</time>
      </trkpt>
      <trkpt lat="45.32405" lon="6.04492">
        <ele>1456.6</ele>
        <time>2021-01-16T08:45:17Z</time>
      </trkpt>
      <trkpt lat="45.32406" lon="6.0449">
        <ele>1456.8</ele>
        <time>2021-01-16T08:45:18Z</time>
      </trkpt>
      <trkpt lat="45.32406" lon="6.04489">
        <ele>1456.8</ele>
        <time>2021-01-16T08:45:19Z</time>
      </trkpt>
      <trkpt lat="45.32406" lon="6.04487">
        <ele>1456.8</ele>
        <time>2021-01-16T08:45:20Z</time>
      </trkpt>
      <trkpt lat="45.32406" lon="6.04486">
        <ele>1456.8</ele>
        <time>2021-01-16T08:45:21Z</time>
      </trkpt>
      <trkpt lat="45.32406" lon="6.04484">
        <ele>1456.8</ele>
        <time>2021-01-16T08:45:22Z</time>
      </trkpt>
      <trkpt lat="45.32406" lon="6.04482">
        <ele>1456.8</ele>
        <time>2021-01-16T08:45:23Z</time>
      </trkpt>
      <trkpt lat="45.32406" lon="6.0448">
        <ele>1457</ele>
        <time>2021-01-16T08:45:24Z</time>
      </trkpt>
      <trkpt lat="45.32406" lon="6.04478">
        <ele>1457</ele>
        <time>2021-01-16T08:45:25Z</time>
      </trkpt>
      <trkpt lat="45.32405" lon="6.04476">
        <ele>1457</ele>
        <time>2021-01-16T08:45:26Z</time>
      </trkpt>
      <trkpt lat="45.32405" lon="6.04474">
        <ele>1457</ele>
        <time>2021-01-16T08:45:27Z</time>
      </trkpt>
      <trkpt lat="45.32405" lon="6.04471">
        <ele>1457.2</ele>
        <time>2021-01-16T08:45:28Z</time>
      </trkpt>
      <trkpt lat="45.32404" lon="6.0447">
        <ele>1457.2</ele>
        <time>2021-01-16T08:45:29Z</time>
      </trkpt>
      <trkpt lat="45.32404" lon="6.04468">
        <ele>1457.4</ele>
        <time>2021-01-16T08:45:30Z</time>
      </trkpt>
      <trkpt lat="45.32404" lon="6.04467">
        <ele>1457.4</ele>
        <time>2021-01-16T08:45:31Z</time>
      </trkpt>
      <trkpt lat="45.32403" lon="6.04465">
        <ele>1457.4</ele>
        <time>2021-01-16T08:45:32Z</time>
      </trkpt>
      <trkpt lat="45.32403" lon="6.04463">
        <ele>1457.6</ele>
        <time>2021-01-16T08:45:33Z</time>
      </trkpt>
      <trkpt lat="45.32403" lon="6.04462">
        <ele>1457.6</ele>
        <time>2021-01-16T08:45:34Z</time>
      </trkpt>
      <trkpt lat="45.32403" lon="6.0446">
        <ele>1457.6</ele>
        <time>2021-01-16T08:45:35Z</time>
      </trkpt>
      <trkpt lat="45.32402" lon="6.04459">
        <ele>1457.6</ele>
        <time>2021-01-16T08:45:36Z</time>
      </trkpt>
      <trkpt lat="45.32402" lon="6.04457">
        <ele>1457.6</ele>
        <time>2021-01-16T08:45:37Z</time>
      </trkpt>
      <trkpt lat="45.32402" lon="6.04456">
        <ele>1457.6</ele>
        <time>2021-01-16T08:45:38Z</time>
      </trkpt>
      <trkpt lat="45.32401" lon="6.04454">
        <ele>1457.8</ele>
        <time>2021-01-16T08:45:39Z</time>
      </trkpt>
      <trkpt lat="45.324" lon="6.04452">
        <ele>1457.6</ele>
        <time>2021-01-16T08:45:40Z</time>
      </trkpt>
      <trkpt lat="45.324" lon="6.0445">
        <ele>1457.8</ele>
        <time>2021-01-16T08:45:41Z</time>
      </trkpt>
      <trkpt lat="45.324" lon="6.04448">
        <ele>1457.8</ele>
        <time>2021-01-16T08:45:42Z</time>
      </trkpt>
      <trkpt lat="45.32399" lon="6.04447">
        <ele>1457.8</ele>
        <time>2021-01-16T08:45:43Z</time>
      </trkpt>
      <trkpt lat="45.32398" lon="6.04445">
        <ele>1457.8</ele>
        <time>2021-01-16T08:45:44Z</time>
      </trkpt>
      <trkpt lat="45.32398" lon="6.04444">
        <ele>1458</ele>
        <time>2021-01-16T08:45:45Z</time>
      </trkpt>
      <trkpt lat="45.32397" lon="6.04443">
        <ele>1458</ele>
        <time>2021-01-16T08:45:46Z</time>
      </trkpt>
      <trkpt lat="45.32397" lon="6.04441">
        <ele>1458</ele>
        <time>2021-01-16T08:45:47Z</time>
      </trkpt>
      <trkpt lat="45.32396" lon="6.04439">
        <ele>1458</ele>
        <time>2021-01-16T08:45:48Z</time>
      </trkpt>
      <trkpt lat="45.32396" lon="6.04438">
        <ele>1458</ele>
        <time>2021-01-16T08:45:49Z</time>
      </trkpt>
      <trkpt lat="45.32395" lon="6.04436">
        <ele>1458</ele>
        <time>2021-01-16T08:45:50Z</time>
      </trkpt>
      <trkpt lat="45.32395" lon="6.04435">
        <ele>1458</ele>
        <time>2021-01-16T08:45:51Z</time>
      </trkpt>
      <trkpt lat="45.32394" lon="6.04433">
        <ele>1458</ele>
        <time>2021-01-16T08:45:52Z</time>
      </trkpt>
      <trkpt lat="45.32394" lon="6.04432">
        <ele>1458</ele>
        <time>2021-01-16T08:45:53Z</time>
      </trkpt>
      <trkpt lat="45.32393" lon="6.04431">
        <ele>1458</ele>
        <time>2021-01-16T08:45:54Z</time>
      </trkpt>
      <trkpt lat="45.32393" lon="6.0443">
        <ele>1458</ele>
        <time>2021-01-16T08:45:55Z</time>
      </trkpt>
      <trkpt lat="45.32393" lon="6.04428">
        <ele>1458</ele>
        <time>2021-01-16T08:45:56Z</time>
      </trkpt>
      <trkpt lat="45.32393" lon="6.04426">
        <ele>1458.2</ele>
        <time>2021-01-16T08:45:57Z</time>
      </trkpt>
      <trkpt lat="45.32392" lon="6.04424">
        <ele>1458.2</ele>
        <time>2021-01-16T08:45:58Z</time>
      </trkpt>
      <trkpt lat="45.32392" lon="6.04422">
        <ele>1458</ele>
        <time>2021-01-16T08:45:59Z</time>
      </trkpt>
      <trkpt lat="45.32392" lon="6.04421">
        <ele>1458.2</ele>
        <time>2021-01-16T08:46:00Z</time>
      </trkpt>
      <trkpt lat="45.32391" lon="6.0442">
        <ele>1458.2</ele>
        <time>2021-01-16T08:46:01Z</time>
      </trkpt>
      <trkpt lat="45.32391" lon="6.04419">
        <ele>1458.2</ele>
        <time>2021-01-16T08:46:02Z</time>
      </trkpt>
      <trkpt lat="45.3239" lon="6.04417">
        <ele>1458.2</ele>
        <time>2021-01-16T08:46:03Z</time>
      </trkpt>
      <trkpt lat="45.32389" lon="6.04415">
        <ele>1458.2</ele>
        <time>2021-01-16T08:46:04Z</time>
      </trkpt>
      <trkpt lat="45.32388" lon="6.04414">
        <ele>1458.2</ele>
        <time>2021-01-16T08:46:05Z</time>
      </trkpt>
      <trkpt lat="45.32388" lon="6.04412">
        <ele>1458.2</ele>
        <time>2021-01-16T08:46:06Z</time>
      </trkpt>
      <trkpt lat="45.32387" lon="6.04411">
        <ele>1458.2</ele>
        <time>2021-01-16T08:46:07Z</time>
      </trkpt>
      <trkpt lat="45.32386" lon="6.04409">
        <ele>1458.2</ele>
        <time>2021-01-16T08:46:08Z</time>
      </trkpt>
      <trkpt lat="45.32386" lon="6.04408">
        <ele>1458.2</ele>
        <time>2021-01-16T08:46:09Z</time>
      </trkpt>
      <trkpt lat="45.32385" lon="6.04407">
        <ele>1458.2</ele>
        <time>2021-01-16T08:46:10Z</time>
      </trkpt>
      <trkpt lat="45.32384" lon="6.04405">
        <ele>1458.2</ele>
        <time>2021-01-16T08:46:11Z</time>
      </trkpt>
      <trkpt lat="45.32384" lon="6.04404">
        <ele>1458.2</ele>
        <time>2021-01-16T08:46:12Z</time>
      </trkpt>
      <trkpt lat="45.32383" lon="6.04403">
        <ele>1458.2</ele>
        <time>2021-01-16T08:46:13Z</time>
      </trkpt>
      <trkpt lat="45.32382" lon="6.04402">
        <ele>1458.2</ele>
        <time>2021-01-16T08:46:14Z</time>
      </trkpt>
      <trkpt lat="45.32381" lon="6.044">
        <ele>1458.2</ele>
        <time>2021-01-16T08:46:15Z</time>
      </trkpt>
      <trkpt lat="45.32381" lon="6.04399">
        <ele>1458.2</ele>
        <time>2021-01-16T08:46:16Z</time>
      </trkpt>
      <trkpt lat="45.3238" lon="6.04398">
        <ele>1458.2</ele>
        <time>2021-01-16T08:46:17Z</time>
      </trkpt>
      <trkpt lat="45.32379" lon="6.04397">
        <ele>1458.2</ele>
        <time>2021-01-16T08:46:18Z</time>
      </trkpt>
      <trkpt lat="45.32377" lon="6.04397">
        <ele>1458.2</ele>
        <time>2021-01-16T08:46:19Z</time>
      </trkpt>
      <trkpt lat="45.32376" lon="6.04397">
        <ele>1458.2</ele>
        <time>2021-01-16T08:46:20Z</time>
      </trkpt>
      <trkpt lat="45.32376" lon="6.04396">
        <ele>1458.4</ele>
        <time>2021-01-16T08:46:21Z</time>
      </trkpt>
      <trkpt lat="45.32375" lon="6.04396">
        <ele>1458.4</ele>
        <time>2021-01-16T08:46:22Z</time>
      </trkpt>
      <trkpt lat="45.32374" lon="6.04396">
        <ele>1458.4</ele>
        <time>2021-01-16T08:46:23Z</time>
      </trkpt>
      <trkpt lat="45.32373" lon="6.04396">
        <ele>1458.6</ele>
        <time>2021-01-16T08:46:24Z</time>
      </trkpt>
      <trkpt lat="45.32371" lon="6.04396">
        <ele>1458.6</ele>
        <time>2021-01-16T08:46:25Z</time>
      </trkpt>
      <trkpt lat="45.3237" lon="6.04396">
        <ele>1458.6</ele>
        <time>2021-01-16T08:46:26Z</time>
      </trkpt>
      <trkpt lat="45.32369" lon="6.04397">
        <ele>1458.8</ele>
        <time>2021-01-16T08:46:27Z</time>
      </trkpt>
      <trkpt lat="45.32368" lon="6.04397">
        <ele>1458.8</ele>
        <time>2021-01-16T08:46:28Z</time>
      </trkpt>
      <trkpt lat="45.32367" lon="6.04397">
        <ele>1458.8</ele>
        <time>2021-01-16T08:46:29Z</time>
      </trkpt>
      <trkpt lat="45.32366" lon="6.04397">
        <ele>1459</ele>
        <time>2021-01-16T08:46:30Z</time>
      </trkpt>
      <trkpt lat="45.32364" lon="6.04397">
        <ele>1459.2</ele>
        <time>2021-01-16T08:46:31Z</time>
      </trkpt>
      <trkpt lat="45.32363" lon="6.04397">
        <ele>1459.2</ele>
        <time>2021-01-16T08:46:32Z</time>
      </trkpt>
      <trkpt lat="45.32363" lon="6.04397">
        <ele>1459.4</ele>
        <time>2021-01-16T08:46:33Z</time>
      </trkpt>
      <trkpt lat="45.32362" lon="6.04397">
        <ele>1459.6</ele>
        <time>2021-01-16T08:46:34Z</time>
      </trkpt>
      <trkpt lat="45.32361" lon="6.04397">
        <ele>1459.6</ele>
        <time>2021-01-16T08:46:35Z</time>
      </trkpt>
      <trkpt lat="45.3236" lon="6.04397">
        <ele>1459.6</ele>
        <time>2021-01-16T08:46:36Z</time>
      </trkpt>
      <trkpt lat="45.32359" lon="6.04397">
        <ele>1459.8</ele>
        <time>2021-01-16T08:46:37Z</time>
      </trkpt>
      <trkpt lat="45.32358" lon="6.04396">
        <ele>1459.8</ele>
        <time>2021-01-16T08:46:38Z</time>
      </trkpt>
      <trkpt lat="45.32357" lon="6.04396">
        <ele>1460</ele>
        <time>2021-01-16T08:46:39Z</time>
      </trkpt>
      <trkpt lat="45.32356" lon="6.04396">
        <ele>1460</ele>
        <time>2021-01-16T08:46:40Z</time>
      </trkpt>
      <trkpt lat="45.32355" lon="6.04396">
        <ele>1460.2</ele>
        <time>2021-01-16T08:46:41Z</time>
      </trkpt>
      <trkpt lat="45.32354" lon="6.04396">
        <ele>1460.2</ele>
        <time>2021-01-16T08:46:42Z</time>
      </trkpt>
      <trkpt lat="45.32353" lon="6.04396">
        <ele>1460.4</ele>
        <time>2021-01-16T08:46:43Z</time>
      </trkpt>
      <trkpt lat="45.32352" lon="6.04396">
        <ele>1460.4</ele>
        <time>2021-01-16T08:46:44Z</time>
      </trkpt>
      <trkpt lat="45.32351" lon="6.04396">
        <ele>1460.6</ele>
        <time>2021-01-16T08:46:45Z</time>
      </trkpt>
      <trkpt lat="45.3235" lon="6.04395">
        <ele>1460.6</ele>
        <time>2021-01-16T08:46:46Z</time>
      </trkpt>
      <trkpt lat="45.3235" lon="6.04395">
        <ele>1460.6</ele>
        <time>2021-01-16T08:46:47Z</time>
      </trkpt>
      <trkpt lat="45.32349" lon="6.04395">
        <ele>1460.8</ele>
        <time>2021-01-16T08:46:48Z</time>
      </trkpt>
      <trkpt lat="45.32349" lon="6.04394">
        <ele>1460.8</ele>
        <time>2021-01-16T08:46:49Z</time>
      </trkpt>
      <trkpt lat="45.32348" lon="6.04394">
        <ele>1461</ele>
        <time>2021-01-16T08:46:50Z</time>
      </trkpt>
      <trkpt lat="45.32347" lon="6.04393">
        <ele>1461</ele>
        <time>2021-01-16T08:46:51Z</time>
      </trkpt>
      <trkpt lat="45.32347" lon="6.04393">
        <ele>1461.2</ele>
        <time>2021-01-16T08:46:52Z</time>
      </trkpt>
      <trkpt lat="45.32346" lon="6.04392">
        <ele>1461.4</ele>
        <time>2021-01-16T08:46:53Z</time>
      </trkpt>
      <trkpt lat="45.32345" lon="6.04392">
        <ele>1461.4</ele>
        <time>2021-01-16T08:46:54Z</time>
      </trkpt>
      <trkpt lat="45.32344" lon="6.04392">
        <ele>1461.4</ele>
        <time>2021-01-16T08:46:55Z</time>
      </trkpt>
      <trkpt lat="45.32344" lon="6.04392">
        <ele>1461.6</ele>
        <time>2021-01-16T08:46:56Z</time>
      </trkpt>
      <trkpt lat="45.32343" lon="6.04391">
        <ele>1461.6</ele>
        <time>2021-01-16T08:46:57Z</time>
      </trkpt>
      <trkpt lat="45.32342" lon="6.0439">
        <ele>1461.8</ele>
        <time>2021-01-16T08:46:58Z</time>
      </trkpt>
      <trkpt lat="45.32342" lon="6.0439">
        <ele>1462</ele>
        <time>2021-01-16T08:46:59Z</time>
      </trkpt>
      <trkpt lat="45.32341" lon="6.04389">
        <ele>1462</ele>
        <time>2021-01-16T08:47:00Z</time>
      </trkpt>
      <trkpt lat="45.3234" lon="6.04389">
        <ele>1462</ele>
        <time>2021-01-16T08:47:01Z</time>
      </trkpt>
      <trkpt lat="45.32339" lon="6.04389">
        <ele>1462.4</ele>
        <time>2021-01-16T08:47:02Z</time>
      </trkpt>
      <trkpt lat="45.32339" lon="6.04388">
        <ele>1462.4</ele>
        <time>2021-01-16T08:47:03Z</time>
      </trkpt>
      <trkpt lat="45.32338" lon="6.04388">
        <ele>1462.6</ele>
        <time>2021-01-16T08:47:04Z</time>
      </trkpt>
      <trkpt lat="45.32337" lon="6.04387">
        <ele>1462.8</ele>
        <time>2021-01-16T08:47:05Z</time>
      </trkpt>
      <trkpt lat="45.32336" lon="6.04388">
        <ele>1463</ele>
        <time>2021-01-16T08:47:06Z</time>
      </trkpt>
      <trkpt lat="45.32335" lon="6.04387">
        <ele>1463.2</ele>
        <time>2021-01-16T08:47:07Z</time>
      </trkpt>
      <trkpt lat="45.32334" lon="6.04387">
        <ele>1463.4</ele>
        <time>2021-01-16T08:47:08Z</time>
      </trkpt>
      <trkpt lat="45.32334" lon="6.04387">
        <ele>1463.4</ele>
        <time>2021-01-16T08:47:09Z</time>
      </trkpt>
      <trkpt lat="45.32333" lon="6.04387">
        <ele>1463.6</ele>
        <time>2021-01-16T08:47:10Z</time>
      </trkpt>
      <trkpt lat="45.32333" lon="6.04386">
        <ele>1463.8</ele>
        <time>2021-01-16T08:47:11Z</time>
      </trkpt>
      <trkpt lat="45.32332" lon="6.04386">
        <ele>1463.8</ele>
        <time>2021-01-16T08:47:12Z</time>
      </trkpt>
      <trkpt lat="45.32331" lon="6.04385">
        <ele>1464.2</ele>
        <time>2021-01-16T08:47:13Z</time>
      </trkpt>
      <trkpt lat="45.3233" lon="6.04385">
        <ele>1464.2</ele>
        <time>2021-01-16T08:47:14Z</time>
      </trkpt>
      <trkpt lat="45.3233" lon="6.04385">
        <ele>1464.4</ele>
        <time>2021-01-16T08:47:15Z</time>
      </trkpt>
      <trkpt lat="45.32329" lon="6.04384">
        <ele>1464.6</ele>
        <time>2021-01-16T08:47:16Z</time>
      </trkpt>
      <trkpt lat="45.32328" lon="6.04385">
        <ele>1464.8</ele>
        <time>2021-01-16T08:47:17Z</time>
      </trkpt>
      <trkpt lat="45.32328" lon="6.04384">
        <ele>1465</ele>
        <time>2021-01-16T08:47:18Z</time>
      </trkpt>
      <trkpt lat="45.32327" lon="6.04384">
        <ele>1465</ele>
        <time>2021-01-16T08:47:19Z</time>
      </trkpt>
      <trkpt lat="45.32326" lon="6.04384">
        <ele>1465</ele>
        <time>2021-01-16T08:47:20Z</time>
      </trkpt>
      <trkpt lat="45.32325" lon="6.04384">
        <ele>1465.2</ele>
        <time>2021-01-16T08:47:21Z</time>
      </trkpt>
      <trkpt lat="45.32324" lon="6.04384">
        <ele>1465.4</ele>
        <time>2021-01-16T08:47:22Z</time>
      </trkpt>
      <trkpt lat="45.32323" lon="6.04384">
        <ele>1465.6</ele>
        <time>2021-01-16T08:47:23Z</time>
      </trkpt>
      <trkpt lat="45.32322" lon="6.04383">
        <ele>1465.6</ele>
        <time>2021-01-16T08:47:24Z</time>
      </trkpt>
      <trkpt lat="45.32322" lon="6.04383">
        <ele>1465.8</ele>
        <time>2021-01-16T08:47:25Z</time>
      </trkpt>
      <trkpt lat="45.32321" lon="6.04383">
        <ele>1466</ele>
        <time>2021-01-16T08:47:26Z</time>
      </trkpt>
      <trkpt lat="45.3232" lon="6.04383">
        <ele>1466.2</ele>
        <time>2021-01-16T08:47:27Z</time>
      </trkpt>
      <trkpt lat="45.3232" lon="6.04382">
        <ele>1466.4</ele>
        <time>2021-01-16T08:47:28Z</time>
      </trkpt>
      <trkpt lat="45.32319" lon="6.04382">
        <ele>1466.8</ele>
        <time>2021-01-16T08:47:29Z</time>
      </trkpt>
      <trkpt lat="45.32318" lon="6.04381">
        <ele>1467</ele>
        <time>2021-01-16T08:47:30Z</time>
      </trkpt>
      <trkpt lat="45.32317" lon="6.0438">
        <ele>1467.2</ele>
        <time>2021-01-16T08:47:31Z</time>
      </trkpt>
      <trkpt lat="45.32317" lon="6.0438">
        <ele>1467.4</ele>
        <time>2021-01-16T08:47:32Z</time>
      </trkpt>
      <trkpt lat="45.32316" lon="6.0438">
        <ele>1467.6</ele>
        <time>2021-01-16T08:47:33Z</time>
      </trkpt>
      <trkpt lat="45.32315" lon="6.0438">
        <ele>1467.6</ele>
        <time>2021-01-16T08:47:34Z</time>
      </trkpt>
      <trkpt lat="45.32315" lon="6.0438">
        <ele>1468</ele>
        <time>2021-01-16T08:47:35Z</time>
      </trkpt>
      <trkpt lat="45.32314" lon="6.04379">
        <ele>1468.2</ele>
        <time>2021-01-16T08:47:36Z</time>
      </trkpt>
      <trkpt lat="45.32313" lon="6.0438">
        <ele>1468.4</ele>
        <time>2021-01-16T08:47:37Z</time>
      </trkpt>
      <trkpt lat="45.32312" lon="6.0438">
        <ele>1468.6</ele>
        <time>2021-01-16T08:47:38Z</time>
      </trkpt>
      <trkpt lat="45.32312" lon="6.0438">
        <ele>1468.8</ele>
        <time>2021-01-16T08:47:39Z</time>
      </trkpt>
      <trkpt lat="45.32311" lon="6.0438">
        <ele>1469</ele>
        <time>2021-01-16T08:47:40Z</time>
      </trkpt>
      <trkpt lat="45.3231" lon="6.0438">
        <ele>1469.4</ele>
        <time>2021-01-16T08:47:41Z</time>
      </trkpt>
      <trkpt lat="45.3231" lon="6.0438">
        <ele>1469.6</ele>
        <time>2021-01-16T08:47:42Z</time>
      </trkpt>
      <trkpt lat="45.32309" lon="6.0438">
        <ele>1469.8</ele>
        <time>2021-01-16T08:47:43Z</time>
      </trkpt>
      <trkpt lat="45.32309" lon="6.04379">
        <ele>1470</ele>
        <time>2021-01-16T08:47:44Z</time>
      </trkpt>
      <trkpt lat="45.32308" lon="6.04379">
        <ele>1470.2</ele>
        <time>2021-01-16T08:47:45Z</time>
      </trkpt>
      <trkpt lat="45.32308" lon="6.04378">
        <ele>1470.4</ele>
        <time>2021-01-16T08:47:46Z</time>
      </trkpt>
      <trkpt lat="45.32306" lon="6.04377">
        <ele>1470.8</ele>
        <time>2021-01-16T08:47:47Z</time>
      </trkpt>
      <trkpt lat="45.32305" lon="6.04377">
        <ele>1471</ele>
        <time>2021-01-16T08:47:48Z</time>
      </trkpt>
      <trkpt lat="45.32305" lon="6.04377">
        <ele>1471</ele>
        <time>2021-01-16T08:47:49Z</time>
      </trkpt>
      <trkpt lat="45.32304" lon="6.04377">
        <ele>1471.6</ele>
        <time>2021-01-16T08:47:50Z</time>
      </trkpt>
      <trkpt lat="45.32304" lon="6.04377">
        <ele>1471.8</ele>
        <time>2021-01-16T08:47:51Z</time>
      </trkpt>
      <trkpt lat="45.32303" lon="6.04377">
        <ele>1472</ele>
        <time>2021-01-16T08:47:52Z</time>
      </trkpt>
      <trkpt lat="45.32302" lon="6.04377">
        <ele>1472.2</ele>
        <time>2021-01-16T08:47:53Z</time>
      </trkpt>
      <trkpt lat="45.32302" lon="6.04376">
        <ele>1472.4</ele>
        <time>2021-01-16T08:47:54Z</time>
      </trkpt>
      <trkpt lat="45.32301" lon="6.04376">
        <ele>1472.6</ele>
        <time>2021-01-16T08:47:55Z</time>
      </trkpt>
      <trkpt lat="45.32301" lon="6.04375">
        <ele>1473</ele>
        <time>2021-01-16T08:47:56Z</time>
      </trkpt>
      <trkpt lat="45.323" lon="6.04375">
        <ele>1473.2</ele>
        <time>2021-01-16T08:47:57Z</time>
      </trkpt>
      <trkpt lat="45.323" lon="6.04374">
        <ele>1473.4</ele>
        <time>2021-01-16T08:47:58Z</time>
      </trkpt>
      <trkpt lat="45.32298" lon="6.04374">
        <ele>1473.8</ele>
        <time>2021-01-16T08:47:59Z</time>
      </trkpt>
      <trkpt lat="45.32297" lon="6.04374">
        <ele>1473.8</ele>
        <time>2021-01-16T08:48:00Z</time>
      </trkpt>
      <trkpt lat="45.32297" lon="6.04374">
        <ele>1474</ele>
        <time>2021-01-16T08:48:01Z</time>
      </trkpt>
      <trkpt lat="45.32296" lon="6.04374">
        <ele>1474.4</ele>
        <time>2021-01-16T08:48:02Z</time>
      </trkpt>
      <trkpt lat="45.32295" lon="6.04375">
        <ele>1474.6</ele>
        <time>2021-01-16T08:48:03Z</time>
      </trkpt>
      <trkpt lat="45.32294" lon="6.04374">
        <ele>1474.6</ele>
        <time>2021-01-16T08:48:04Z</time>
      </trkpt>
      <trkpt lat="45.32293" lon="6.04374">
        <ele>1475</ele>
        <time>2021-01-16T08:48:05Z</time>
      </trkpt>
      <trkpt lat="45.32293" lon="6.04374">
        <ele>1475.2</ele>
        <time>2021-01-16T08:48:06Z</time>
      </trkpt>
      <trkpt lat="45.32292" lon="6.04373">
        <ele>1475.4</ele>
        <time>2021-01-16T08:48:07Z</time>
      </trkpt>
      <trkpt lat="45.32291" lon="6.04373">
        <ele>1475.6</ele>
        <time>2021-01-16T08:48:08Z</time>
      </trkpt>
      <trkpt lat="45.3229" lon="6.04372">
        <ele>1475.8</ele>
        <time>2021-01-16T08:48:09Z</time>
      </trkpt>
      <trkpt lat="45.32289" lon="6.04372">
        <ele>1476</ele>
        <time>2021-01-16T08:48:10Z</time>
      </trkpt>
      <trkpt lat="45.32289" lon="6.04372">
        <ele>1476.4</ele>
        <time>2021-01-16T08:48:11Z</time>
      </trkpt>
      <trkpt lat="45.32288" lon="6.04372">
        <ele>1476.6</ele>
        <time>2021-01-16T08:48:12Z</time>
      </trkpt>
      <trkpt lat="45.32287" lon="6.04372">
        <ele>1476.8</ele>
        <time>2021-01-16T08:48:13Z</time>
      </trkpt>
      <trkpt lat="45.32286" lon="6.04372">
        <ele>1477</ele>
        <time>2021-01-16T08:48:14Z</time>
      </trkpt>
      <trkpt lat="45.32286" lon="6.04373">
        <ele>1477.2</ele>
        <time>2021-01-16T08:48:15Z</time>
      </trkpt>
      <trkpt lat="45.32285" lon="6.04372">
        <ele>1477.4</ele>
        <time>2021-01-16T08:48:16Z</time>
      </trkpt>
      <trkpt lat="45.32284" lon="6.04373">
        <ele>1477.6</ele>
        <time>2021-01-16T08:48:17Z</time>
      </trkpt>
      <trkpt lat="45.32283" lon="6.04372">
        <ele>1477.8</ele>
        <time>2021-01-16T08:48:18Z</time>
      </trkpt>
      <trkpt lat="45.32282" lon="6.04372">
        <ele>1478</ele>
        <time>2021-01-16T08:48:19Z</time>
      </trkpt>
      <trkpt lat="45.32281" lon="6.04372">
        <ele>1478.2</ele>
        <time>2021-01-16T08:48:20Z</time>
      </trkpt>
      <trkpt lat="45.32281" lon="6.04371">
        <ele>1478.2</ele>
        <time>2021-01-16T08:48:21Z</time>
      </trkpt>
      <trkpt lat="45.3228" lon="6.04371">
        <ele>1478.4</ele>
        <time>2021-01-16T08:48:22Z</time>
      </trkpt>
      <trkpt lat="45.32279" lon="6.04371">
        <ele>1478.6</ele>
        <time>2021-01-16T08:48:23Z</time>
      </trkpt>
      <trkpt lat="45.32279" lon="6.0437">
        <ele>1478.8</ele>
        <time>2021-01-16T08:48:24Z</time>
      </trkpt>
      <trkpt lat="45.32278" lon="6.0437">
        <ele>1478.8</ele>
        <time>2021-01-16T08:48:25Z</time>
      </trkpt>
      <trkpt lat="45.32278" lon="6.0437">
        <ele>1479.2</ele>
        <time>2021-01-16T08:48:26Z</time>
      </trkpt>
      <trkpt lat="45.32277" lon="6.04369">
        <ele>1479.2</ele>
        <time>2021-01-16T08:48:27Z</time>
      </trkpt>
      <trkpt lat="45.32276" lon="6.04369">
        <ele>1479.4</ele>
        <time>2021-01-16T08:48:28Z</time>
      </trkpt>
      <trkpt lat="45.32276" lon="6.04369">
        <ele>1479.6</ele>
        <time>2021-01-16T08:48:29Z</time>
      </trkpt>
      <trkpt lat="45.32276" lon="6.04369">
        <ele>1479.6</ele>
        <time>2021-01-16T08:48:30Z</time>
      </trkpt>
      <trkpt lat="45.32275" lon="6.04369">
        <ele>1479.8</ele>
        <time>2021-01-16T08:48:31Z</time>
      </trkpt>
      <trkpt lat="45.32274" lon="6.04369">
        <ele>1480</ele>
        <time>2021-01-16T08:48:32Z</time>
      </trkpt>
      <trkpt lat="45.32273" lon="6.04369">
        <ele>1480.2</ele>
        <time>2021-01-16T08:48:33Z</time>
      </trkpt>
      <trkpt lat="45.32273" lon="6.04369">
        <ele>1480.4</ele>
        <time>2021-01-16T08:48:34Z</time>
      </trkpt>
      <trkpt lat="45.32272" lon="6.04369">
        <ele>1480.6</ele>
        <time>2021-01-16T08:48:35Z</time>
      </trkpt>
      <trkpt lat="45.32271" lon="6.04369">
        <ele>1480.6</ele>
        <time>2021-01-16T08:48:36Z</time>
      </trkpt>
      <trkpt lat="45.3227" lon="6.04369">
        <ele>1481</ele>
        <time>2021-01-16T08:48:37Z</time>
      </trkpt>
      <trkpt lat="45.3227" lon="6.04369">
        <ele>1481</ele>
        <time>2021-01-16T08:48:38Z</time>
      </trkpt>
      <trkpt lat="45.32269" lon="6.04369">
        <ele>1481.2</ele>
        <time>2021-01-16T08:48:39Z</time>
      </trkpt>
      <trkpt lat="45.32268" lon="6.04369">
        <ele>1481.4</ele>
        <time>2021-01-16T08:48:40Z</time>
      </trkpt>
      <trkpt lat="45.32267" lon="6.04369">
        <ele>1481.4</ele>
        <time>2021-01-16T08:48:41Z</time>
      </trkpt>
      <trkpt lat="45.32266" lon="6.04369">
        <ele>1481.6</ele>
        <time>2021-01-16T08:48:42Z</time>
      </trkpt>
      <trkpt lat="45.32265" lon="6.04369">
        <ele>1482</ele>
        <time>2021-01-16T08:48:43Z</time>
      </trkpt>
      <trkpt lat="45.32264" lon="6.04369">
        <ele>1482.2</ele>
        <time>2021-01-16T08:48:44Z</time>
      </trkpt>
      <trkpt lat="45.32264" lon="6.0437">
        <ele>1482.2</ele>
        <time>2021-01-16T08:48:45Z</time>
      </trkpt>
      <trkpt lat="45.32263" lon="6.0437">
        <ele>1482.6</ele>
        <time>2021-01-16T08:48:46Z</time>
      </trkpt>
      <trkpt lat="45.32262" lon="6.0437">
        <ele>1482.6</ele>
        <time>2021-01-16T08:48:47Z</time>
      </trkpt>
      <trkpt lat="45.32262" lon="6.04371">
        <ele>1482.8</ele>
        <time>2021-01-16T08:48:48Z</time>
      </trkpt>
      <trkpt lat="45.32261" lon="6.04371">
        <ele>1483</ele>
        <time>2021-01-16T08:48:49Z</time>
      </trkpt>
      <trkpt lat="45.3226" lon="6.04371">
        <ele>1483.2</ele>
        <time>2021-01-16T08:48:50Z</time>
      </trkpt>
      <trkpt lat="45.3226" lon="6.04371">
        <ele>1483.4</ele>
        <time>2021-01-16T08:48:51Z</time>
      </trkpt>
      <trkpt lat="45.32259" lon="6.04371">
        <ele>1483.6</ele>
        <time>2021-01-16T08:48:52Z</time>
      </trkpt>
      <trkpt lat="45.32259" lon="6.04371">
        <ele>1483.8</ele>
        <time>2021-01-16T08:48:53Z</time>
      </trkpt>
      <trkpt lat="45.32258" lon="6.04371">
        <ele>1484</ele>
        <time>2021-01-16T08:48:54Z</time>
      </trkpt>
      <trkpt lat="45.32257" lon="6.04371">
        <ele>1484.4</ele>
        <time>2021-01-16T08:48:55Z</time>
      </trkpt>
      <trkpt lat="45.32256" lon="6.04371">
        <ele>1484.6</ele>
        <time>2021-01-16T08:48:56Z</time>
      </trkpt>
      <trkpt lat="45.32255" lon="6.04371">
        <ele>1484.8</ele>
        <time>2021-01-16T08:48:57Z</time>
      </trkpt>
      <trkpt lat="45.32254" lon="6.04372">
        <ele>1485</ele>
        <time>2021-01-16T08:48:58Z</time>
      </trkpt>
      <trkpt lat="45.32254" lon="6.04372">
        <ele>1485</ele>
        <time>2021-01-16T08:48:59Z</time>
      </trkpt>
      <trkpt lat="45.32253" lon="6.04372">
        <ele>1485.2</ele>
        <time>2021-01-16T08:49:00Z</time>
      </trkpt>
      <trkpt lat="45.32252" lon="6.04372">
        <ele>1485.6</ele>
        <time>2021-01-16T08:49:01Z</time>
      </trkpt>
      <trkpt lat="45.32251" lon="6.04372">
        <ele>1485.8</ele>
        <time>2021-01-16T08:49:02Z</time>
      </trkpt>
      <trkpt lat="45.32251" lon="6.04372">
        <ele>1485.8</ele>
        <time>2021-01-16T08:49:03Z</time>
      </trkpt>
      <trkpt lat="45.3225" lon="6.04372">
        <ele>1486.2</ele>
        <time>2021-01-16T08:49:04Z</time>
      </trkpt>
      <trkpt lat="45.32249" lon="6.04373">
        <ele>1486.4</ele>
        <time>2021-01-16T08:49:05Z</time>
      </trkpt>
      <trkpt lat="45.32248" lon="6.04373">
        <ele>1486.6</ele>
        <time>2021-01-16T08:49:06Z</time>
      </trkpt>
      <trkpt lat="45.32247" lon="6.04373">
        <ele>1486.8</ele>
        <time>2021-01-16T08:49:07Z</time>
      </trkpt>
      <trkpt lat="45.32247" lon="6.04374">
        <ele>1487</ele>
        <time>2021-01-16T08:49:08Z</time>
      </trkpt>
      <trkpt lat="45.32246" lon="6.04374">
        <ele>1487.2</ele>
        <time>2021-01-16T08:49:09Z</time>
      </trkpt>
      <trkpt lat="45.32245" lon="6.04374">
        <ele>1487.6</ele>
        <time>2021-01-16T08:49:10Z</time>
      </trkpt>
      <trkpt lat="45.32244" lon="6.04374">
        <ele>1487.8</ele>
        <time>2021-01-16T08:49:11Z</time>
      </trkpt>
      <trkpt lat="45.32244" lon="6.04374">
        <ele>1488</ele>
        <time>2021-01-16T08:49:12Z</time>
      </trkpt>
      <trkpt lat="45.32243" lon="6.04374">
        <ele>1488.4</ele>
        <time>2021-01-16T08:49:13Z</time>
      </trkpt>
      <trkpt lat="45.32242" lon="6.04374">
        <ele>1488.4</ele>
        <time>2021-01-16T08:49:14Z</time>
      </trkpt>
      <trkpt lat="45.32241" lon="6.04374">
        <ele>1488.8</ele>
        <time>2021-01-16T08:49:15Z</time>
      </trkpt>
      <trkpt lat="45.3224" lon="6.04375">
        <ele>1489</ele>
        <time>2021-01-16T08:49:16Z</time>
      </trkpt>
      <trkpt lat="45.3224" lon="6.04375">
        <ele>1489.2</ele>
        <time>2021-01-16T08:49:17Z</time>
      </trkpt>
      <trkpt lat="45.32239" lon="6.04375">
        <ele>1489.6</ele>
        <time>2021-01-16T08:49:18Z</time>
      </trkpt>
      <trkpt lat="45.32238" lon="6.04375">
        <ele>1489.8</ele>
        <time>2021-01-16T08:49:19Z</time>
      </trkpt>
      <trkpt lat="45.32237" lon="6.04375">
        <ele>1490</ele>
        <time>2021-01-16T08:49:20Z</time>
      </trkpt>
      <trkpt lat="45.32236" lon="6.04375">
        <ele>1490.2</ele>
        <time>2021-01-16T08:49:21Z</time>
      </trkpt>
      <trkpt lat="45.32236" lon="6.04375">
        <ele>1490.6</ele>
        <time>2021-01-16T08:49:22Z</time>
      </trkpt>
      <trkpt lat="45.32235" lon="6.04375">
        <ele>1490.8</ele>
        <time>2021-01-16T08:49:23Z</time>
      </trkpt>
      <trkpt lat="45.32234" lon="6.04376">
        <ele>1490.8</ele>
        <time>2021-01-16T08:49:24Z</time>
      </trkpt>
      <trkpt lat="45.32233" lon="6.04376">
        <ele>1491.2</ele>
        <time>2021-01-16T08:49:25Z</time>
      </trkpt>
      <trkpt lat="45.32232" lon="6.04376">
        <ele>1491.4</ele>
        <time>2021-01-16T08:49:26Z</time>
      </trkpt>
      <trkpt lat="45.32231" lon="6.04376">
        <ele>1491.8</ele>
        <time>2021-01-16T08:49:27Z</time>
      </trkpt>
      <trkpt lat="45.3223" lon="6.04377">
        <ele>1492</ele>
        <time>2021-01-16T08:49:28Z</time>
      </trkpt>
      <trkpt lat="45.3223" lon="6.04377">
        <ele>1492.2</ele>
        <time>2021-01-16T08:49:29Z</time>
      </trkpt>
      <trkpt lat="45.3223" lon="6.04378">
        <ele>1492.4</ele>
        <time>2021-01-16T08:49:30Z</time>
      </trkpt>
      <trkpt lat="45.32229" lon="6.04378">
        <ele>1492.8</ele>
        <time>2021-01-16T08:49:31Z</time>
      </trkpt>
      <trkpt lat="45.32229" lon="6.04378">
        <ele>1493</ele>
        <time>2021-01-16T08:49:32Z</time>
      </trkpt>
      <trkpt lat="45.32227" lon="6.04379">
        <ele>1493.2</ele>
        <time>2021-01-16T08:49:33Z</time>
      </trkpt>
      <trkpt lat="45.32227" lon="6.04379">
        <ele>1493.4</ele>
        <time>2021-01-16T08:49:34Z</time>
      </trkpt>
      <trkpt lat="45.32226" lon="6.04379">
        <ele>1493.6</ele>
        <time>2021-01-16T08:49:35Z</time>
      </trkpt>
      <trkpt lat="45.32226" lon="6.04379">
        <ele>1493.8</ele>
        <time>2021-01-16T08:49:36Z</time>
      </trkpt>
      <trkpt lat="45.32225" lon="6.0438">
        <ele>1494.2</ele>
        <time>2021-01-16T08:49:37Z</time>
      </trkpt>
      <trkpt lat="45.32225" lon="6.0438">
        <ele>1494.4</ele>
        <time>2021-01-16T08:49:38Z</time>
      </trkpt>
      <trkpt lat="45.32224" lon="6.04379">
        <ele>1494.4</ele>
        <time>2021-01-16T08:49:39Z</time>
      </trkpt>
      <trkpt lat="45.32223" lon="6.04379">
        <ele>1494.8</ele>
        <time>2021-01-16T08:49:40Z</time>
      </trkpt>
      <trkpt lat="45.32222" lon="6.04379">
        <ele>1495</ele>
        <time>2021-01-16T08:49:41Z</time>
      </trkpt>
      <trkpt lat="45.32222" lon="6.04379">
        <ele>1495.4</ele>
        <time>2021-01-16T08:49:42Z</time>
      </trkpt>
      <trkpt lat="45.32221" lon="6.0438">
        <ele>1495.8</ele>
        <time>2021-01-16T08:49:43Z</time>
      </trkpt>
      <trkpt lat="45.3222" lon="6.0438">
        <ele>1496</ele>
        <time>2021-01-16T08:49:44Z</time>
      </trkpt>
      <trkpt lat="45.32219" lon="6.0438">
        <ele>1496.2</ele>
        <time>2021-01-16T08:49:45Z</time>
      </trkpt>
      <trkpt lat="45.32219" lon="6.04381">
        <ele>1496.4</ele>
        <time>2021-01-16T08:49:46Z</time>
      </trkpt>
      <trkpt lat="45.32218" lon="6.04381">
        <ele>1496.6</ele>
        <time>2021-01-16T08:49:47Z</time>
      </trkpt>
      <trkpt lat="45.32217" lon="6.04381">
        <ele>1496.6</ele>
        <time>2021-01-16T08:49:48Z</time>
      </trkpt>
      <trkpt lat="45.32217" lon="6.04382">
        <ele>1497</ele>
        <time>2021-01-16T08:49:49Z</time>
      </trkpt>
      <trkpt lat="45.32216" lon="6.04382">
        <ele>1497.2</ele>
        <time>2021-01-16T08:49:50Z</time>
      </trkpt>
      <trkpt lat="45.32215" lon="6.04382">
        <ele>1497.6</ele>
        <time>2021-01-16T08:49:51Z</time>
      </trkpt>
      <trkpt lat="45.32215" lon="6.04383">
        <ele>1497.8</ele>
        <time>2021-01-16T08:49:52Z</time>
      </trkpt>
      <trkpt lat="45.32214" lon="6.04383">
        <ele>1498</ele>
        <time>2021-01-16T08:49:53Z</time>
      </trkpt>
      <trkpt lat="45.32213" lon="6.04383">
        <ele>1498.2</ele>
        <time>2021-01-16T08:49:54Z</time>
      </trkpt>
      <trkpt lat="45.32213" lon="6.04383">
        <ele>1498.4</ele>
        <time>2021-01-16T08:49:55Z</time>
      </trkpt>
      <trkpt lat="45.32212" lon="6.04383">
        <ele>1498.6</ele>
        <time>2021-01-16T08:49:56Z</time>
      </trkpt>
      <trkpt lat="45.32211" lon="6.04383">
        <ele>1498.8</ele>
        <time>2021-01-16T08:49:57Z</time>
      </trkpt>
      <trkpt lat="45.32211" lon="6.04384">
        <ele>1499</ele>
        <time>2021-01-16T08:49:58Z</time>
      </trkpt>
      <trkpt lat="45.3221" lon="6.04384">
        <ele>1499.2</ele>
        <time>2021-01-16T08:49:59Z</time>
      </trkpt>
      <trkpt lat="45.32209" lon="6.04384">
        <ele>1499.4</ele>
        <time>2021-01-16T08:50:00Z</time>
      </trkpt>
      <trkpt lat="45.32209" lon="6.04384">
        <ele>1499.4</ele>
        <time>2021-01-16T08:50:01Z</time>
      </trkpt>
      <trkpt lat="45.32208" lon="6.04385">
        <ele>1499.6</ele>
        <time>2021-01-16T08:50:02Z</time>
      </trkpt>
      <trkpt lat="45.32208" lon="6.04385">
        <ele>1499.6</ele>
        <time>2021-01-16T08:50:03Z</time>
      </trkpt>
      <trkpt lat="45.32208" lon="6.04385">
        <ele>1499.8</ele>
        <time>2021-01-16T08:50:04Z</time>
      </trkpt>
      <trkpt lat="45.32208" lon="6.04385">
        <ele>1499.8</ele>
        <time>2021-01-16T08:50:05Z</time>
      </trkpt>
      <trkpt lat="45.32208" lon="6.04385">
        <ele>1500</ele>
        <time>2021-01-16T08:50:06Z</time>
      </trkpt>
      <trkpt lat="45.32207" lon="6.04386">
        <ele>1500</ele>
        <time>2021-01-16T08:50:07Z</time>
      </trkpt>
      <trkpt lat="45.32206" lon="6.04386">
        <ele>1500.2</ele>
        <time>2021-01-16T08:50:08Z</time>
      </trkpt>
      <trkpt lat="45.32205" lon="6.04387">
        <ele>1500.2</ele>
        <time>2021-01-16T08:50:09Z</time>
      </trkpt>
      <trkpt lat="45.32205" lon="6.04387">
        <ele>1500.4</ele>
        <time>2021-01-16T08:50:10Z</time>
      </trkpt>
      <trkpt lat="45.32204" lon="6.04387">
        <ele>1500.6</ele>
        <time>2021-01-16T08:50:11Z</time>
      </trkpt>
      <trkpt lat="45.32204" lon="6.04387">
        <ele>1500.6</ele>
        <time>2021-01-16T08:50:12Z</time>
      </trkpt>
      <trkpt lat="45.32203" lon="6.04388">
        <ele>1500.8</ele>
        <time>2021-01-16T08:50:13Z</time>
      </trkpt>
      <trkpt lat="45.32203" lon="6.04388">
        <ele>1501</ele>
        <time>2021-01-16T08:50:14Z</time>
      </trkpt>
      <trkpt lat="45.32202" lon="6.04388">
        <ele>1501</ele>
        <time>2021-01-16T08:50:15Z</time>
      </trkpt>
      <trkpt lat="45.32201" lon="6.04388">
        <ele>1501.2</ele>
        <time>2021-01-16T08:50:16Z</time>
      </trkpt>
      <trkpt lat="45.32201" lon="6.04388">
        <ele>1501.2</ele>
        <time>2021-01-16T08:50:17Z</time>
      </trkpt>
      <trkpt lat="45.322" lon="6.04389">
        <ele>1501.4</ele>
        <time>2021-01-16T08:50:18Z</time>
      </trkpt>
      <trkpt lat="45.32199" lon="6.04388">
        <ele>1501.6</ele>
        <time>2021-01-16T08:50:19Z</time>
      </trkpt>
      <trkpt lat="45.32199" lon="6.04388">
        <ele>1501.6</ele>
        <time>2021-01-16T08:50:20Z</time>
      </trkpt>
      <trkpt lat="45.32198" lon="6.04388">
        <ele>1501.8</ele>
        <time>2021-01-16T08:50:21Z</time>
      </trkpt>
      <trkpt lat="45.32198" lon="6.04389">
        <ele>1501.8</ele>
        <time>2021-01-16T08:50:22Z</time>
      </trkpt>
      <trkpt lat="45.32197" lon="6.04389">
        <ele>1502</ele>
        <time>2021-01-16T08:50:23Z</time>
      </trkpt>
      <trkpt lat="45.32197" lon="6.04389">
        <ele>1502.2</ele>
        <time>2021-01-16T08:50:24Z</time>
      </trkpt>
      <trkpt lat="45.32196" lon="6.04389">
        <ele>1502.4</ele>
        <time>2021-01-16T08:50:25Z</time>
      </trkpt>
      <trkpt lat="45.32195" lon="6.0439">
        <ele>1502.2</ele>
        <time>2021-01-16T08:50:26Z</time>
      </trkpt>
      <trkpt lat="45.32194" lon="6.0439">
        <ele>1502.4</ele>
        <time>2021-01-16T08:50:27Z</time>
      </trkpt>
      <trkpt lat="45.32194" lon="6.0439">
        <ele>1502.6</ele>
        <time>2021-01-16T08:50:28Z</time>
      </trkpt>
      <trkpt lat="45.32193" lon="6.0439">
        <ele>1502.6</ele>
        <time>2021-01-16T08:50:29Z</time>
      </trkpt>
      <trkpt lat="45.32193" lon="6.0439">
        <ele>1502.8</ele>
        <time>2021-01-16T08:50:30Z</time>
      </trkpt>
      <trkpt lat="45.32192" lon="6.0439">
        <ele>1502.8</ele>
        <time>2021-01-16T08:50:31Z</time>
      </trkpt>
      <trkpt lat="45.32191" lon="6.0439">
        <ele>1503</ele>
        <time>2021-01-16T08:50:32Z</time>
      </trkpt>
      <trkpt lat="45.3219" lon="6.0439">
        <ele>1503</ele>
        <time>2021-01-16T08:50:33Z</time>
      </trkpt>
      <trkpt lat="45.3219" lon="6.0439">
        <ele>1503.2</ele>
        <time>2021-01-16T08:50:34Z</time>
      </trkpt>
      <trkpt lat="45.32189" lon="6.0439">
        <ele>1503.2</ele>
        <time>2021-01-16T08:50:35Z</time>
      </trkpt>
      <trkpt lat="45.32189" lon="6.0439">
        <ele>1503.4</ele>
        <time>2021-01-16T08:50:36Z</time>
      </trkpt>
      <trkpt lat="45.32188" lon="6.0439">
        <ele>1503.4</ele>
        <time>2021-01-16T08:50:37Z</time>
      </trkpt>
      <trkpt lat="45.32187" lon="6.04391">
        <ele>1503.6</ele>
        <time>2021-01-16T08:50:38Z</time>
      </trkpt>
      <trkpt lat="45.32186" lon="6.04391">
        <ele>1503.6</ele>
        <time>2021-01-16T08:50:39Z</time>
      </trkpt>
      <trkpt lat="45.32186" lon="6.04391">
        <ele>1503.8</ele>
        <time>2021-01-16T08:50:40Z</time>
      </trkpt>
      <trkpt lat="45.32185" lon="6.04391">
        <ele>1503.8</ele>
        <time>2021-01-16T08:50:41Z</time>
      </trkpt>
      <trkpt lat="45.32184" lon="6.04391">
        <ele>1503.8</ele>
        <time>2021-01-16T08:50:42Z</time>
      </trkpt>
      <trkpt lat="45.32183" lon="6.04391">
        <ele>1503.8</ele>
        <time>2021-01-16T08:50:43Z</time>
      </trkpt>
      <trkpt lat="45.32181" lon="6.04391">
        <ele>1504</ele>
        <time>2021-01-16T08:50:44Z</time>
      </trkpt>
      <trkpt lat="45.32181" lon="6.04392">
        <ele>1504</ele>
        <time>2021-01-16T08:50:45Z</time>
      </trkpt>
      <trkpt lat="45.32179" lon="6.04392">
        <ele>1504</ele>
        <time>2021-01-16T08:50:46Z</time>
      </trkpt>
      <trkpt lat="45.32178" lon="6.04392">
        <ele>1504.2</ele>
        <time>2021-01-16T08:50:47Z</time>
      </trkpt>
      <trkpt lat="45.32177" lon="6.04392">
        <ele>1504.2</ele>
        <time>2021-01-16T08:50:48Z</time>
      </trkpt>
      <trkpt lat="45.32176" lon="6.04393">
        <ele>1504.2</ele>
        <time>2021-01-16T08:50:49Z</time>
      </trkpt>
      <trkpt lat="45.32175" lon="6.04393">
        <ele>1504.4</ele>
        <time>2021-01-16T08:50:50Z</time>
      </trkpt>
      <trkpt lat="45.32174" lon="6.04393">
        <ele>1504.4</ele>
        <time>2021-01-16T08:50:51Z</time>
      </trkpt>
      <trkpt lat="45.32173" lon="6.04394">
        <ele>1504.6</ele>
        <time>2021-01-16T08:50:52Z</time>
      </trkpt>
      <trkpt lat="45.32172" lon="6.04394">
        <ele>1504.6</ele>
        <time>2021-01-16T08:50:53Z</time>
      </trkpt>
      <trkpt lat="45.32171" lon="6.04395">
        <ele>1504.8</ele>
        <time>2021-01-16T08:50:54Z</time>
      </trkpt>
      <trkpt lat="45.3217" lon="6.04395">
        <ele>1504.8</ele>
        <time>2021-01-16T08:50:55Z</time>
      </trkpt>
      <trkpt lat="45.3217" lon="6.04396">
        <ele>1504.8</ele>
        <time>2021-01-16T08:50:56Z</time>
      </trkpt>
      <trkpt lat="45.32168" lon="6.04396">
        <ele>1505</ele>
        <time>2021-01-16T08:50:57Z</time>
      </trkpt>
      <trkpt lat="45.32168" lon="6.04397">
        <ele>1505</ele>
        <time>2021-01-16T08:50:58Z</time>
      </trkpt>
      <trkpt lat="45.32167" lon="6.04397">
        <ele>1505</ele>
        <time>2021-01-16T08:50:59Z</time>
      </trkpt>
      <trkpt lat="45.32167" lon="6.04397">
        <ele>1505.2</ele>
        <time>2021-01-16T08:51:00Z</time>
      </trkpt>
      <trkpt lat="45.32167" lon="6.04398">
        <ele>1505.2</ele>
        <time>2021-01-16T08:51:01Z</time>
      </trkpt>
      <trkpt lat="45.32166" lon="6.04398">
        <ele>1505.2</ele>
        <time>2021-01-16T08:51:02Z</time>
      </trkpt>
      <trkpt lat="45.32166" lon="6.04398">
        <ele>1505.4</ele>
        <time>2021-01-16T08:51:03Z</time>
      </trkpt>
      <trkpt lat="45.32166" lon="6.04398">
        <ele>1505.4</ele>
        <time>2021-01-16T08:51:04Z</time>
      </trkpt>
      <trkpt lat="45.32166" lon="6.04398">
        <ele>1505.2</ele>
        <time>2021-01-16T08:51:05Z</time>
      </trkpt>
      <trkpt lat="45.32166" lon="6.04398">
        <ele>1505.2</ele>
        <time>2021-01-16T08:51:06Z</time>
      </trkpt>
      <trkpt lat="45.32166" lon="6.04398">
        <ele>1505.4</ele>
        <time>2021-01-16T08:51:07Z</time>
      </trkpt>
      <trkpt lat="45.32166" lon="6.04398">
        <ele>1505.4</ele>
        <time>2021-01-16T08:51:08Z</time>
      </trkpt>
      <trkpt lat="45.32166" lon="6.04398">
        <ele>1505.4</ele>
        <time>2021-01-16T08:51:09Z</time>
      </trkpt>
      <trkpt lat="45.32166" lon="6.04398">
        <ele>1505.4</ele>
        <time>2021-01-16T08:51:10Z</time>
      </trkpt>
      <trkpt lat="45.32166" lon="6.04398">
        <ele>1505.4</ele>
        <time>2021-01-16T08:51:11Z</time>
      </trkpt>
      <trkpt lat="45.32166" lon="6.04398">
        <ele>1505.4</ele>
        <time>2021-01-16T08:51:12Z</time>
      </trkpt>
      <trkpt lat="45.32166" lon="6.04398">
        <ele>1505.4</ele>
        <time>2021-01-16T08:51:13Z</time>
      </trkpt>
      <trkpt lat="45.32166" lon="6.04398">
        <ele>1505.4</ele>
        <time>2021-01-16T08:51:14Z</time>
      </trkpt>
      <trkpt lat="45.32166" lon="6.04398">
        <ele>1505.4</ele>
        <time>2021-01-16T08:51:15Z</time>
      </trkpt>
      <trkpt lat="45.32166" lon="6.04398">
        <ele>1505.4</ele>
        <time>2021-01-16T08:51:16Z</time>
      </trkpt>
      <trkpt lat="45.32166" lon="6.04398">
        <ele>1505.4</ele>
        <time>2021-01-16T08:51:17Z</time>
      </trkpt>
      <trkpt lat="45.32166" lon="6.04398">
        <ele>1505.4</ele>
        <time>2021-01-16T08:51:18Z</time>
      </trkpt>
      <trkpt lat="45.32166" lon="6.04398">
        <ele>1505.4</ele>
        <time>2021-01-16T08:51:19Z</time>
      </trkpt>
      <trkpt lat="45.32166" lon="6.04398">
        <ele>1505.4</ele>
        <time>2021-01-16T08:51:20Z</time>
      </trkpt>
      <trkpt lat="45.32166" lon="6.04398">
        <ele>1505.4</ele>
        <time>2021-01-16T08:51:21Z</time>
      </trkpt>
      <trkpt lat="45.32166" lon="6.04398">
        <ele>1505.4</ele>
        <time>2021-01-16T08:51:22Z</time>
      </trkpt>
      <trkpt lat="45.32166" lon="6.04398">
        <ele>1505.4</ele>
        <time>2021-01-16T08:51:23Z</time>
      </trkpt>
      <trkpt lat="45.32166" lon="6.04398">
        <ele>1505.6</ele>
        <time>2021-01-16T08:51:24Z</time>
      </trkpt>
      <trkpt lat="45.32166" lon="6.04398">
        <ele>1505.4</ele>
        <time>2021-01-16T08:51:25Z</time>
      </trkpt>
      <trkpt lat="45.32166" lon="6.04398">
        <ele>1505.4</ele>
        <time>2021-01-16T08:51:26Z</time>
      </trkpt>
      <trkpt lat="45.32166" lon="6.04398">
        <ele>1505.4</ele>
        <time>2021-01-16T08:51:27Z</time>
      </trkpt>
      <trkpt lat="45.32166" lon="6.04398">
        <ele>1505.6</ele>
        <time>2021-01-16T08:51:28Z</time>
      </trkpt>
      <trkpt lat="45.32166" lon="6.04398">
        <ele>1505.6</ele>
        <time>2021-01-16T08:51:29Z</time>
      </trkpt>
      <trkpt lat="45.32166" lon="6.04398">
        <ele>1505.6</ele>
        <time>2021-01-16T08:51:30Z</time>
      </trkpt>
      <trkpt lat="45.32166" lon="6.04398">
        <ele>1505.6</ele>
        <time>2021-01-16T08:51:31Z</time>
      </trkpt>
      <trkpt lat="45.32166" lon="6.04398">
        <ele>1505.6</ele>
        <time>2021-01-16T08:51:32Z</time>
      </trkpt>
      <trkpt lat="45.32166" lon="6.04398">
        <ele>1505.6</ele>
        <time>2021-01-16T08:51:33Z</time>
      </trkpt>
      <trkpt lat="45.32166" lon="6.04398">
        <ele>1505.6</ele>
        <time>2021-01-16T08:51:34Z</time>
      </trkpt>
      <trkpt lat="45.32166" lon="6.04398">
        <ele>1505.6</ele>
        <time>2021-01-16T08:51:35Z</time>
      </trkpt>
      <trkpt lat="45.32166" lon="6.04398">
        <ele>1505.4</ele>
        <time>2021-01-16T08:51:36Z</time>
      </trkpt>
      <trkpt lat="45.32166" lon="6.04398">
        <ele>1505.4</ele>
        <time>2021-01-16T08:51:37Z</time>
      </trkpt>
      <trkpt lat="45.32166" lon="6.04398">
        <ele>1505.4</ele>
        <time>2021-01-16T08:51:38Z</time>
      </trkpt>
      <trkpt lat="45.32166" lon="6.04398">
        <ele>1505.6</ele>
        <time>2021-01-16T08:51:39Z</time>
      </trkpt>
      <trkpt lat="45.32166" lon="6.04398">
        <ele>1505.6</ele>
        <time>2021-01-16T08:51:40Z</time>
      </trkpt>
      <trkpt lat="45.32166" lon="6.04398">
        <ele>1505.6</ele>
        <time>2021-01-16T08:51:41Z</time>
      </trkpt>
      <trkpt lat="45.32166" lon="6.04398">
        <ele>1505.6</ele>
        <time>2021-01-16T08:51:42Z</time>
      </trkpt>
      <trkpt lat="45.32166" lon="6.04398">
        <ele>1505.6</ele>
        <time>2021-01-16T08:51:43Z</time>
      </trkpt>
      <trkpt lat="45.32166" lon="6.04398">
        <ele>1505.6</ele>
        <time>2021-01-16T08:51:44Z</time>
      </trkpt>
      <trkpt lat="45.32166" lon="6.04398">
        <ele>1505.6</ele>
        <time>2021-01-16T08:51:45Z</time>
      </trkpt>
      <trkpt lat="45.32166" lon="6.04398">
        <ele>1505.4</ele>
        <time>2021-01-16T08:51:46Z</time>
      </trkpt>
      <trkpt lat="45.32166" lon="6.04398">
        <ele>1505.4</ele>
        <time>2021-01-16T08:51:47Z</time>
      </trkpt>
      <trkpt lat="45.32166" lon="6.04398">
        <ele>1505.4</ele>
        <time>2021-01-16T08:51:48Z</time>
      </trkpt>
      <trkpt lat="45.32166" lon="6.04398">
        <ele>1505.4</ele>
        <time>2021-01-16T08:51:49Z</time>
      </trkpt>
      <trkpt lat="45.32166" lon="6.04398">
        <ele>1505.4</ele>
        <time>2021-01-16T08:51:50Z</time>
      </trkpt>
      <trkpt lat="45.32166" lon="6.04398">
        <ele>1505.4</ele>
        <time>2021-01-16T08:51:51Z</time>
      </trkpt>
      <trkpt lat="45.32166" lon="6.04398">
        <ele>1505.4</ele>
        <time>2021-01-16T08:51:52Z</time>
      </trkpt>
      <trkpt lat="45.32166" lon="6.04398">
        <ele>1505.4</ele>
        <time>2021-01-16T08:51:53Z</time>
      </trkpt>
      <trkpt lat="45.32166" lon="6.04398">
        <ele>1505.4</ele>
        <time>2021-01-16T08:51:54Z</time>
      </trkpt>
      <trkpt lat="45.32166" lon="6.04398">
        <ele>1505.4</ele>
        <time>2021-01-16T08:51:55Z</time>
      </trkpt>
      <trkpt lat="45.32166" lon="6.04398">
        <ele>1505.4</ele>
        <time>2021-01-16T08:51:56Z</time>
      </trkpt>
      <trkpt lat="45.32166" lon="6.04398">
        <ele>1505.4</ele>
        <time>2021-01-16T08:51:57Z</time>
      </trkpt>
      <trkpt lat="45.32166" lon="6.04398">
        <ele>1505.4</ele>
        <time>2021-01-16T08:51:58Z</time>
      </trkpt>
      <trkpt lat="45.32166" lon="6.04398">
        <ele>1505.4</ele>
        <time>2021-01-16T08:51:59Z</time>
      </trkpt>
      <trkpt lat="45.32166" lon="6.04398">
        <ele>1505.4</ele>
        <time>2021-01-16T08:52:00Z</time>
      </trkpt>
      <trkpt lat="45.32166" lon="6.04398">
        <ele>1505.4</ele>
        <time>2021-01-16T08:52:01Z</time>
      </trkpt>
      <trkpt lat="45.32166" lon="6.04398">
        <ele>1505.4</ele>
        <time>2021-01-16T08:52:02Z</time>
      </trkpt>
      <trkpt lat="45.32166" lon="6.04398">
        <ele>1505.4</ele>
        <time>2021-01-16T08:52:03Z</time>
      </trkpt>
      <trkpt lat="45.32166" lon="6.04398">
        <ele>1505.4</ele>
        <time>2021-01-16T08:52:04Z</time>
      </trkpt>
      <trkpt lat="45.32166" lon="6.04398">
        <ele>1505.4</ele>
        <time>2021-01-16T08:52:05Z</time>
      </trkpt>
      <trkpt lat="45.32166" lon="6.04398">
        <ele>1505.4</ele>
        <time>2021-01-16T08:52:06Z</time>
      </trkpt>
      <trkpt lat="45.32166" lon="6.04398">
        <ele>1505.4</ele>
        <time>2021-01-16T08:52:07Z</time>
      </trkpt>
      <trkpt lat="45.32166" lon="6.04398">
        <ele>1505.4</ele>
        <time>2021-01-16T08:52:08Z</time>
      </trkpt>
      <trkpt lat="45.32166" lon="6.04398">
        <ele>1505.4</ele>
        <time>2021-01-16T08:52:09Z</time>
      </trkpt>
      <trkpt lat="45.32166" lon="6.04398">
        <ele>1505.4</ele>
        <time>2021-01-16T08:52:10Z</time>
      </trkpt>
      <trkpt lat="45.32166" lon="6.04398">
        <ele>1505.4</ele>
        <time>2021-01-16T08:52:11Z</time>
      </trkpt>
      <trkpt lat="45.32166" lon="6.04398">
        <ele>1505.4</ele>
        <time>2021-01-16T08:52:12Z</time>
      </trkpt>
      <trkpt lat="45.32166" lon="6.04398">
        <ele>1505.4</ele>
        <time>2021-01-16T08:52:13Z</time>
      </trkpt>
      <trkpt lat="45.32166" lon="6.04398">
        <ele>1505.4</ele>
        <time>2021-01-16T08:52:14Z</time>
      </trkpt>
      <trkpt lat="45.32166" lon="6.04398">
        <ele>1505.4</ele>
        <time>2021-01-16T08:52:15Z</time>
      </trkpt>
      <trkpt lat="45.32166" lon="6.04398">
        <ele>1505.4</ele>
        <time>2021-01-16T08:52:16Z</time>
      </trkpt>
      <trkpt lat="45.32166" lon="6.04398">
        <ele>1505.4</ele>
        <time>2021-01-16T08:52:17Z</time>
      </trkpt>
      <trkpt lat="45.32166" lon="6.04398">
        <ele>1505.4</ele>
        <time>2021-01-16T08:52:18Z</time>
      </trkpt>
      <trkpt lat="45.32166" lon="6.04398">
        <ele>1505.4</ele>
        <time>2021-01-16T08:52:19Z</time>
      </trkpt>
      <trkpt lat="45.32166" lon="6.04398">
        <ele>1505.2</ele>
        <time>2021-01-16T08:52:20Z</time>
      </trkpt>
      <trkpt lat="45.32166" lon="6.04398">
        <ele>1505.4</ele>
        <time>2021-01-16T08:52:21Z</time>
      </trkpt>
      <trkpt lat="45.32166" lon="6.04398">
        <ele>1505.4</ele>
        <time>2021-01-16T08:52:22Z</time>
      </trkpt>
      <trkpt lat="45.32166" lon="6.04398">
        <ele>1505.2</ele>
        <time>2021-01-16T08:52:23Z</time>
      </trkpt>
      <trkpt lat="45.32166" lon="6.04398">
        <ele>1505</ele>
        <time>2021-01-16T08:52:24Z</time>
      </trkpt>
      <trkpt lat="45.32166" lon="6.04398">
        <ele>1505.2</ele>
        <time>2021-01-16T08:52:25Z</time>
      </trkpt>
      <trkpt lat="45.32166" lon="6.04398">
        <ele>1505.4</ele>
        <time>2021-01-16T08:52:26Z</time>
      </trkpt>
      <trkpt lat="45.32166" lon="6.04398">
        <ele>1505.2</ele>
        <time>2021-01-16T08:52:27Z</time>
      </trkpt>
      <trkpt lat="45.32166" lon="6.04398">
        <ele>1505.2</ele>
        <time>2021-01-16T08:52:28Z</time>
      </trkpt>
      <trkpt lat="45.32166" lon="6.04398">
        <ele>1505.2</ele>
        <time>2021-01-16T08:52:29Z</time>
      </trkpt>
      <trkpt lat="45.32166" lon="6.04398">
        <ele>1505.2</ele>
        <time>2021-01-16T08:52:30Z</time>
      </trkpt>
      <trkpt lat="45.32166" lon="6.04398">
        <ele>1505.2</ele>
        <time>2021-01-16T08:52:31Z</time>
      </trkpt>
      <trkpt lat="45.32166" lon="6.04398">
        <ele>1505.2</ele>
        <time>2021-01-16T08:52:32Z</time>
      </trkpt>
      <trkpt lat="45.32166" lon="6.04398">
        <ele>1505.2</ele>
        <time>2021-01-16T08:52:33Z</time>
      </trkpt>
      <trkpt lat="45.32166" lon="6.04398">
        <ele>1505.2</ele>
        <time>2021-01-16T08:52:34Z</time>
      </trkpt>
      <trkpt lat="45.32166" lon="6.04398">
        <ele>1505.2</ele>
        <time>2021-01-16T08:52:35Z</time>
      </trkpt>
      <trkpt lat="45.32166" lon="6.04398">
        <ele>1505.2</ele>
        <time>2021-01-16T08:52:36Z</time>
      </trkpt>
      <trkpt lat="45.32166" lon="6.04398">
        <ele>1505.2</ele>
        <time>2021-01-16T08:52:37Z</time>
      </trkpt>
      <trkpt lat="45.32166" lon="6.04398">
        <ele>1505.4</ele>
        <time>2021-01-16T08:52:38Z</time>
      </trkpt>
      <trkpt lat="45.32166" lon="6.04398">
        <ele>1505.4</ele>
        <time>2021-01-16T08:52:39Z</time>
      </trkpt>
      <trkpt lat="45.32166" lon="6.04398">
        <ele>1505.4</ele>
        <time>2021-01-16T08:52:40Z</time>
      </trkpt>
      <trkpt lat="45.32166" lon="6.04398">
        <ele>1505.4</ele>
        <time>2021-01-16T08:52:41Z</time>
      </trkpt>
      <trkpt lat="45.32166" lon="6.04398">
        <ele>1505.4</ele>
        <time>2021-01-16T08:52:42Z</time>
      </trkpt>
      <trkpt lat="45.32166" lon="6.04398">
        <ele>1505.2</ele>
        <time>2021-01-16T08:52:43Z</time>
      </trkpt>
      <trkpt lat="45.32166" lon="6.04398">
        <ele>1505.2</ele>
        <time>2021-01-16T08:52:44Z</time>
      </trkpt>
      <trkpt lat="45.32166" lon="6.04398">
        <ele>1505.2</ele>
        <time>2021-01-16T08:52:45Z</time>
      </trkpt>
      <trkpt lat="45.32166" lon="6.04398">
        <ele>1505.2</ele>
        <time>2021-01-16T08:52:46Z</time>
      </trkpt>
      <trkpt lat="45.32166" lon="6.04398">
        <ele>1505.2</ele>
        <time>2021-01-16T08:52:47Z</time>
      </trkpt>
      <trkpt lat="45.32166" lon="6.04398">
        <ele>1505.2</ele>
        <time>2021-01-16T08:52:48Z</time>
      </trkpt>
      <trkpt lat="45.32166" lon="6.04398">
        <ele>1505.2</ele>
        <time>2021-01-16T08:52:49Z</time>
      </trkpt>
      <trkpt lat="45.32166" lon="6.04398">
        <ele>1505.2</ele>
        <time>2021-01-16T08:52:50Z</time>
      </trkpt>
      <trkpt lat="45.32166" lon="6.04398">
        <ele>1505.2</ele>
        <time>2021-01-16T08:52:51Z</time>
      </trkpt>
      <trkpt lat="45.32166" lon="6.04398">
        <ele>1505.2</ele>
        <time>2021-01-16T08:52:52Z</time>
      </trkpt>
      <trkpt lat="45.32166" lon="6.04398">
        <ele>1505.2</ele>
        <time>2021-01-16T08:52:53Z</time>
      </trkpt>
      <trkpt lat="45.32166" lon="6.04398">
        <ele>1505.2</ele>
        <time>2021-01-16T08:52:54Z</time>
      </trkpt>
      <trkpt lat="45.32166" lon="6.04398">
        <ele>1505.4</ele>
        <time>2021-01-16T08:52:55Z</time>
      </trkpt>
      <trkpt lat="45.32166" lon="6.04398">
        <ele>1505.4</ele>
        <time>2021-01-16T08:52:56Z</time>
      </trkpt>
      <trkpt lat="45.32166" lon="6.04398">
        <ele>1505.4</ele>
        <time>2021-01-16T08:52:57Z</time>
      </trkpt>
      <trkpt lat="45.32166" lon="6.04398">
        <ele>1505.4</ele>
        <time>2021-01-16T08:52:58Z</time>
      </trkpt>
      <trkpt lat="45.32166" lon="6.04398">
        <ele>1505.4</ele>
        <time>2021-01-16T08:52:59Z</time>
      </trkpt>
      <trkpt lat="45.32166" lon="6.04398">
        <ele>1505.4</ele>
        <time>2021-01-16T08:53:00Z</time>
      </trkpt>
      <trkpt lat="45.32166" lon="6.04398">
        <ele>1505.4</ele>
        <time>2021-01-16T08:53:01Z</time>
      </trkpt>
      <trkpt lat="45.32166" lon="6.04398">
        <ele>1505.4</ele>
        <time>2021-01-16T08:53:02Z</time>
      </trkpt>
      <trkpt lat="45.32166" lon="6.04398">
        <ele>1505.2</ele>
        <time>2021-01-16T08:53:03Z</time>
      </trkpt>
      <trkpt lat="45.32166" lon="6.04398">
        <ele>1505.4</ele>
        <time>2021-01-16T08:53:04Z</time>
      </trkpt>
      <trkpt lat="45.32166" lon="6.04398">
        <ele>1505.4</ele>
        <time>2021-01-16T08:53:05Z</time>
      </trkpt>
      <trkpt lat="45.32166" lon="6.04398">
        <ele>1505.6</ele>
        <time>2021-01-16T08:53:06Z</time>
      </trkpt>
      <trkpt lat="45.32165" lon="6.04398">
        <ele>1505.6</ele>
        <time>2021-01-16T08:53:07Z</time>
      </trkpt>
      <trkpt lat="45.32161" lon="6.04399">
        <ele>1505.6</ele>
        <time>2021-01-16T08:53:08Z</time>
      </trkpt>
      <trkpt lat="45.32161" lon="6.04399">
        <ele>1505.6</ele>
        <time>2021-01-16T08:53:09Z</time>
      </trkpt>
      <trkpt lat="45.3216" lon="6.044">
        <ele>1505.6</ele>
        <time>2021-01-16T08:53:10Z</time>
      </trkpt>
      <trkpt lat="45.32159" lon="6.044">
        <ele>1505.8</ele>
        <time>2021-01-16T08:53:11Z</time>
      </trkpt>
      <trkpt lat="45.32158" lon="6.044">
        <ele>1505.8</ele>
        <time>2021-01-16T08:53:12Z</time>
      </trkpt>
      <trkpt lat="45.32158" lon="6.04401">
        <ele>1505.8</ele>
        <time>2021-01-16T08:53:13Z</time>
      </trkpt>
      <trkpt lat="45.32157" lon="6.04401">
        <ele>1506</ele>
        <time>2021-01-16T08:53:14Z</time>
      </trkpt>
      <trkpt lat="45.32157" lon="6.04401">
        <ele>1506.2</ele>
        <time>2021-01-16T08:53:15Z</time>
      </trkpt>
      <trkpt lat="45.32156" lon="6.04401">
        <ele>1506.2</ele>
        <time>2021-01-16T08:53:16Z</time>
      </trkpt>
      <trkpt lat="45.32156" lon="6.04401">
        <ele>1506.4</ele>
        <time>2021-01-16T08:53:17Z</time>
      </trkpt>
      <trkpt lat="45.32155" lon="6.04401">
        <ele>1506.6</ele>
        <time>2021-01-16T08:53:18Z</time>
      </trkpt>
      <trkpt lat="45.32155" lon="6.04401">
        <ele>1506.6</ele>
        <time>2021-01-16T08:53:19Z</time>
      </trkpt>
      <trkpt lat="45.32154" lon="6.04401">
        <ele>1506.8</ele>
        <time>2021-01-16T08:53:20Z</time>
      </trkpt>
      <trkpt lat="45.32152" lon="6.04402">
        <ele>1507</ele>
        <time>2021-01-16T08:53:21Z</time>
      </trkpt>
      <trkpt lat="45.32151" lon="6.04402">
        <ele>1507.2</ele>
        <time>2021-01-16T08:53:22Z</time>
      </trkpt>
      <trkpt lat="45.3215" lon="6.04402">
        <ele>1507.4</ele>
        <time>2021-01-16T08:53:23Z</time>
      </trkpt>
      <trkpt lat="45.32149" lon="6.04402">
        <ele>1507.6</ele>
        <time>2021-01-16T08:53:24Z</time>
      </trkpt>
      <trkpt lat="45.32149" lon="6.04402">
        <ele>1507.8</ele>
        <time>2021-01-16T08:53:25Z</time>
      </trkpt>
      <trkpt lat="45.32147" lon="6.04402">
        <ele>1507.8</ele>
        <time>2021-01-16T08:53:26Z</time>
      </trkpt>
      <trkpt lat="45.32147" lon="6.04402">
        <ele>1508.2</ele>
        <time>2021-01-16T08:53:27Z</time>
      </trkpt>
      <trkpt lat="45.32146" lon="6.04402">
        <ele>1508.4</ele>
        <time>2021-01-16T08:53:28Z</time>
      </trkpt>
      <trkpt lat="45.32145" lon="6.04402">
        <ele>1508.4</ele>
        <time>2021-01-16T08:53:29Z</time>
      </trkpt>
      <trkpt lat="45.32144" lon="6.04402">
        <ele>1508.6</ele>
        <time>2021-01-16T08:53:30Z</time>
      </trkpt>
      <trkpt lat="45.32143" lon="6.04402">
        <ele>1509</ele>
        <time>2021-01-16T08:53:31Z</time>
      </trkpt>
      <trkpt lat="45.32143" lon="6.04402">
        <ele>1509</ele>
        <time>2021-01-16T08:53:32Z</time>
      </trkpt>
      <trkpt lat="45.32143" lon="6.04401">
        <ele>1509.2</ele>
        <time>2021-01-16T08:53:33Z</time>
      </trkpt>
      <trkpt lat="45.32142" lon="6.04401">
        <ele>1509.4</ele>
        <time>2021-01-16T08:53:34Z</time>
      </trkpt>
      <trkpt lat="45.32142" lon="6.04401">
        <ele>1509.6</ele>
        <time>2021-01-16T08:53:35Z</time>
      </trkpt>
      <trkpt lat="45.32141" lon="6.04401">
        <ele>1509.8</ele>
        <time>2021-01-16T08:53:36Z</time>
      </trkpt>
      <trkpt lat="45.32141" lon="6.044">
        <ele>1510</ele>
        <time>2021-01-16T08:53:37Z</time>
      </trkpt>
      <trkpt lat="45.3214" lon="6.044">
        <ele>1510.2</ele>
        <time>2021-01-16T08:53:38Z</time>
      </trkpt>
      <trkpt lat="45.32139" lon="6.044">
        <ele>1510.4</ele>
        <time>2021-01-16T08:53:39Z</time>
      </trkpt>
      <trkpt lat="45.32138" lon="6.044">
        <ele>1510.6</ele>
        <time>2021-01-16T08:53:40Z</time>
      </trkpt>
      <trkpt lat="45.32138" lon="6.044">
        <ele>1510.8</ele>
        <time>2021-01-16T08:53:41Z</time>
      </trkpt>
      <trkpt lat="45.32136" lon="6.044">
        <ele>1511</ele>
        <time>2021-01-16T08:53:42Z</time>
      </trkpt>
      <trkpt lat="45.32136" lon="6.044">
        <ele>1511.2</ele>
        <time>2021-01-16T08:53:43Z</time>
      </trkpt>
      <trkpt lat="45.32135" lon="6.04401">
        <ele>1511.4</ele>
        <time>2021-01-16T08:53:44Z</time>
      </trkpt>
      <trkpt lat="45.32135" lon="6.04401">
        <ele>1511.6</ele>
        <time>2021-01-16T08:53:45Z</time>
      </trkpt>
      <trkpt lat="45.32134" lon="6.04401">
        <ele>1511.8</ele>
        <time>2021-01-16T08:53:46Z</time>
      </trkpt>
      <trkpt lat="45.32133" lon="6.04401">
        <ele>1512</ele>
        <time>2021-01-16T08:53:47Z</time>
      </trkpt>
      <trkpt lat="45.32133" lon="6.044">
        <ele>1512.2</ele>
        <time>2021-01-16T08:53:48Z</time>
      </trkpt>
      <trkpt lat="45.32132" lon="6.04401">
        <ele>1512.4</ele>
        <time>2021-01-16T08:53:49Z</time>
      </trkpt>
      <trkpt lat="45.32132" lon="6.04401">
        <ele>1512.8</ele>
        <time>2021-01-16T08:53:50Z</time>
      </trkpt>
      <trkpt lat="45.32131" lon="6.04401">
        <ele>1512.8</ele>
        <time>2021-01-16T08:53:51Z</time>
      </trkpt>
      <trkpt lat="45.32131" lon="6.04402">
        <ele>1513.2</ele>
        <time>2021-01-16T08:53:52Z</time>
      </trkpt>
      <trkpt lat="45.3213" lon="6.04402">
        <ele>1513.4</ele>
        <time>2021-01-16T08:53:53Z</time>
      </trkpt>
      <trkpt lat="45.3213" lon="6.04403">
        <ele>1513.6</ele>
        <time>2021-01-16T08:53:54Z</time>
      </trkpt>
      <trkpt lat="45.32129" lon="6.04404">
        <ele>1513.8</ele>
        <time>2021-01-16T08:53:55Z</time>
      </trkpt>
      <trkpt lat="45.32129" lon="6.04405">
        <ele>1514</ele>
        <time>2021-01-16T08:53:56Z</time>
      </trkpt>
      <trkpt lat="45.32128" lon="6.04405">
        <ele>1514.2</ele>
        <time>2021-01-16T08:53:57Z</time>
      </trkpt>
      <trkpt lat="45.32128" lon="6.04406">
        <ele>1514.2</ele>
        <time>2021-01-16T08:53:58Z</time>
      </trkpt>
      <trkpt lat="45.32127" lon="6.04406">
        <ele>1514.4</ele>
        <time>2021-01-16T08:53:59Z</time>
      </trkpt>
      <trkpt lat="45.32126" lon="6.04406">
        <ele>1514.4</ele>
        <time>2021-01-16T08:54:00Z</time>
      </trkpt>
      <trkpt lat="45.32125" lon="6.04406">
        <ele>1514.4</ele>
        <time>2021-01-16T08:54:01Z</time>
      </trkpt>
      <trkpt lat="45.32123" lon="6.04407">
        <ele>1514.4</ele>
        <time>2021-01-16T08:54:02Z</time>
      </trkpt>
      <trkpt lat="45.32123" lon="6.04407">
        <ele>1514.6</ele>
        <time>2021-01-16T08:54:03Z</time>
      </trkpt>
      <trkpt lat="45.32122" lon="6.04407">
        <ele>1514.6</ele>
        <time>2021-01-16T08:54:04Z</time>
      </trkpt>
      <trkpt lat="45.32121" lon="6.04406">
        <ele>1514.8</ele>
        <time>2021-01-16T08:54:05Z</time>
      </trkpt>
      <trkpt lat="45.3212" lon="6.04406">
        <ele>1515</ele>
        <time>2021-01-16T08:54:06Z</time>
      </trkpt>
      <trkpt lat="45.3212" lon="6.04405">
        <ele>1515</ele>
        <time>2021-01-16T08:54:07Z</time>
      </trkpt>
      <trkpt lat="45.32119" lon="6.04405">
        <ele>1515.2</ele>
        <time>2021-01-16T08:54:08Z</time>
      </trkpt>
      <trkpt lat="45.32119" lon="6.04405">
        <ele>1515.4</ele>
        <time>2021-01-16T08:54:09Z</time>
      </trkpt>
      <trkpt lat="45.32118" lon="6.04404">
        <ele>1515.6</ele>
        <time>2021-01-16T08:54:10Z</time>
      </trkpt>
      <trkpt lat="45.32117" lon="6.04404">
        <ele>1515.6</ele>
        <time>2021-01-16T08:54:11Z</time>
      </trkpt>
      <trkpt lat="45.32117" lon="6.04404">
        <ele>1516</ele>
        <time>2021-01-16T08:54:12Z</time>
      </trkpt>
      <trkpt lat="45.32116" lon="6.04404">
        <ele>1516.2</ele>
        <time>2021-01-16T08:54:13Z</time>
      </trkpt>
      <trkpt lat="45.32115" lon="6.04404">
        <ele>1516.4</ele>
        <time>2021-01-16T08:54:14Z</time>
      </trkpt>
      <trkpt lat="45.32115" lon="6.04404">
        <ele>1516.8</ele>
        <time>2021-01-16T08:54:15Z</time>
      </trkpt>
      <trkpt lat="45.32114" lon="6.04404">
        <ele>1516.8</ele>
        <time>2021-01-16T08:54:16Z</time>
      </trkpt>
      <trkpt lat="45.32114" lon="6.04404">
        <ele>1517.2</ele>
        <time>2021-01-16T08:54:17Z</time>
      </trkpt>
      <trkpt lat="45.32113" lon="6.04405">
        <ele>1517.4</ele>
        <time>2021-01-16T08:54:18Z</time>
      </trkpt>
      <trkpt lat="45.32112" lon="6.04405">
        <ele>1517.6</ele>
        <time>2021-01-16T08:54:19Z</time>
      </trkpt>
      <trkpt lat="45.32112" lon="6.04405">
        <ele>1517.8</ele>
        <time>2021-01-16T08:54:20Z</time>
      </trkpt>
      <trkpt lat="45.32111" lon="6.04405">
        <ele>1518</ele>
        <time>2021-01-16T08:54:21Z</time>
      </trkpt>
      <trkpt lat="45.32111" lon="6.04405">
        <ele>1518.2</ele>
        <time>2021-01-16T08:54:22Z</time>
      </trkpt>
      <trkpt lat="45.32111" lon="6.04405">
        <ele>1518.4</ele>
        <time>2021-01-16T08:54:23Z</time>
      </trkpt>
      <trkpt lat="45.3211" lon="6.04404">
        <ele>1518.6</ele>
        <time>2021-01-16T08:54:24Z</time>
      </trkpt>
      <trkpt lat="45.32109" lon="6.04404">
        <ele>1518.8</ele>
        <time>2021-01-16T08:54:25Z</time>
      </trkpt>
      <trkpt lat="45.32109" lon="6.04404">
        <ele>1518.8</ele>
        <time>2021-01-16T08:54:26Z</time>
      </trkpt>
      <trkpt lat="45.32108" lon="6.04404">
        <ele>1518.8</ele>
        <time>2021-01-16T08:54:27Z</time>
      </trkpt>
      <trkpt lat="45.32107" lon="6.04404">
        <ele>1519.2</ele>
        <time>2021-01-16T08:54:28Z</time>
      </trkpt>
      <trkpt lat="45.32107" lon="6.04404">
        <ele>1519.2</ele>
        <time>2021-01-16T08:54:29Z</time>
      </trkpt>
      <trkpt lat="45.32106" lon="6.04403">
        <ele>1519.4</ele>
        <time>2021-01-16T08:54:30Z</time>
      </trkpt>
      <trkpt lat="45.32105" lon="6.04403">
        <ele>1519.6</ele>
        <time>2021-01-16T08:54:31Z</time>
      </trkpt>
      <trkpt lat="45.32105" lon="6.04403">
        <ele>1519.6</ele>
        <time>2021-01-16T08:54:32Z</time>
      </trkpt>
      <trkpt lat="45.32104" lon="6.04402">
        <ele>1519.8</ele>
        <time>2021-01-16T08:54:33Z</time>
      </trkpt>
      <trkpt lat="45.32103" lon="6.04402">
        <ele>1519.8</ele>
        <time>2021-01-16T08:54:34Z</time>
      </trkpt>
      <trkpt lat="45.32103" lon="6.04401">
        <ele>1520</ele>
        <time>2021-01-16T08:54:35Z</time>
      </trkpt>
      <trkpt lat="45.32102" lon="6.04401">
        <ele>1520</ele>
        <time>2021-01-16T08:54:36Z</time>
      </trkpt>
      <trkpt lat="45.32101" lon="6.04401">
        <ele>1520.2</ele>
        <time>2021-01-16T08:54:37Z</time>
      </trkpt>
      <trkpt lat="45.321" lon="6.04401">
        <ele>1520.2</ele>
        <time>2021-01-16T08:54:38Z</time>
      </trkpt>
      <trkpt lat="45.32099" lon="6.04401">
        <ele>1520.4</ele>
        <time>2021-01-16T08:54:39Z</time>
      </trkpt>
      <trkpt lat="45.32098" lon="6.04401">
        <ele>1520.4</ele>
        <time>2021-01-16T08:54:40Z</time>
      </trkpt>
      <trkpt lat="45.32097" lon="6.04401">
        <ele>1520.6</ele>
        <time>2021-01-16T08:54:41Z</time>
      </trkpt>
      <trkpt lat="45.32096" lon="6.04401">
        <ele>1520.8</ele>
        <time>2021-01-16T08:54:42Z</time>
      </trkpt>
      <trkpt lat="45.32095" lon="6.04401">
        <ele>1520.8</ele>
        <time>2021-01-16T08:54:43Z</time>
      </trkpt>
      <trkpt lat="45.32094" lon="6.04401">
        <ele>1521</ele>
        <time>2021-01-16T08:54:44Z</time>
      </trkpt>
      <trkpt lat="45.32093" lon="6.044">
        <ele>1521.2</ele>
        <time>2021-01-16T08:54:45Z</time>
      </trkpt>
      <trkpt lat="45.32092" lon="6.044">
        <ele>1521.2</ele>
        <time>2021-01-16T08:54:46Z</time>
      </trkpt>
      <trkpt lat="45.32091" lon="6.044">
        <ele>1521.4</ele>
        <time>2021-01-16T08:54:47Z</time>
      </trkpt>
      <trkpt lat="45.32091" lon="6.04399">
        <ele>1521.6</ele>
        <time>2021-01-16T08:54:48Z</time>
      </trkpt>
      <trkpt lat="45.32089" lon="6.04399">
        <ele>1521.6</ele>
        <time>2021-01-16T08:54:49Z</time>
      </trkpt>
      <trkpt lat="45.32088" lon="6.04399">
        <ele>1521.8</ele>
        <time>2021-01-16T08:54:50Z</time>
      </trkpt>
      <trkpt lat="45.32087" lon="6.04399">
        <ele>1522</ele>
        <time>2021-01-16T08:54:51Z</time>
      </trkpt>
      <trkpt lat="45.32086" lon="6.04399">
        <ele>1522</ele>
        <time>2021-01-16T08:54:52Z</time>
      </trkpt>
      <trkpt lat="45.32085" lon="6.044">
        <ele>1522.2</ele>
        <time>2021-01-16T08:54:53Z</time>
      </trkpt>
      <trkpt lat="45.32084" lon="6.044">
        <ele>1522.4</ele>
        <time>2021-01-16T08:54:54Z</time>
      </trkpt>
      <trkpt lat="45.32083" lon="6.044">
        <ele>1522.4</ele>
        <time>2021-01-16T08:54:55Z</time>
      </trkpt>
      <trkpt lat="45.32082" lon="6.04401">
        <ele>1522.6</ele>
        <time>2021-01-16T08:54:56Z</time>
      </trkpt>
      <trkpt lat="45.32082" lon="6.04401">
        <ele>1522.8</ele>
        <time>2021-01-16T08:54:57Z</time>
      </trkpt>
      <trkpt lat="45.32081" lon="6.04402">
        <ele>1522.8</ele>
        <time>2021-01-16T08:54:58Z</time>
      </trkpt>
      <trkpt lat="45.3208" lon="6.04403">
        <ele>1523</ele>
        <time>2021-01-16T08:54:59Z</time>
      </trkpt>
      <trkpt lat="45.32079" lon="6.04403">
        <ele>1523.2</ele>
        <time>2021-01-16T08:55:00Z</time>
      </trkpt>
      <trkpt lat="45.32078" lon="6.04404">
        <ele>1523.2</ele>
        <time>2021-01-16T08:55:01Z</time>
      </trkpt>
      <trkpt lat="45.32078" lon="6.04404">
        <ele>1523.4</ele>
        <time>2021-01-16T08:55:02Z</time>
      </trkpt>
      <trkpt lat="45.32077" lon="6.04404">
        <ele>1523.6</ele>
        <time>2021-01-16T08:55:03Z</time>
      </trkpt>
      <trkpt lat="45.32076" lon="6.04405">
        <ele>1523.6</ele>
        <time>2021-01-16T08:55:04Z</time>
      </trkpt>
      <trkpt lat="45.32075" lon="6.04406">
        <ele>1524</ele>
        <time>2021-01-16T08:55:05Z</time>
      </trkpt>
      <trkpt lat="45.32074" lon="6.04406">
        <ele>1524</ele>
        <time>2021-01-16T08:55:06Z</time>
      </trkpt>
      <trkpt lat="45.32074" lon="6.04407">
        <ele>1524.2</ele>
        <time>2021-01-16T08:55:07Z</time>
      </trkpt>
      <trkpt lat="45.32073" lon="6.04408">
        <ele>1524.4</ele>
        <time>2021-01-16T08:55:08Z</time>
      </trkpt>
      <trkpt lat="45.32072" lon="6.04408">
        <ele>1524.4</ele>
        <time>2021-01-16T08:55:09Z</time>
      </trkpt>
      <trkpt lat="45.32072" lon="6.04409">
        <ele>1524.6</ele>
        <time>2021-01-16T08:55:10Z</time>
      </trkpt>
      <trkpt lat="45.32072" lon="6.04409">
        <ele>1524.6</ele>
        <time>2021-01-16T08:55:11Z</time>
      </trkpt>
      <trkpt lat="45.32071" lon="6.0441">
        <ele>1524.8</ele>
        <time>2021-01-16T08:55:12Z</time>
      </trkpt>
      <trkpt lat="45.32071" lon="6.0441">
        <ele>1524.8</ele>
        <time>2021-01-16T08:55:13Z</time>
      </trkpt>
      <trkpt lat="45.32071" lon="6.0441">
        <ele>1524.8</ele>
        <time>2021-01-16T08:55:14Z</time>
      </trkpt>
      <trkpt lat="45.32071" lon="6.0441">
        <ele>1525</ele>
        <time>2021-01-16T08:55:15Z</time>
      </trkpt>
      <trkpt lat="45.32071" lon="6.0441">
        <ele>1525</ele>
        <time>2021-01-16T08:55:16Z</time>
      </trkpt>
      <trkpt lat="45.32071" lon="6.0441">
        <ele>1525</ele>
        <time>2021-01-16T08:55:17Z</time>
      </trkpt>
      <trkpt lat="45.32071" lon="6.0441">
        <ele>1525</ele>
        <time>2021-01-16T08:55:18Z</time>
      </trkpt>
      <trkpt lat="45.32071" lon="6.0441">
        <ele>1525</ele>
        <time>2021-01-16T08:55:19Z</time>
      </trkpt>
      <trkpt lat="45.32071" lon="6.0441">
        <ele>1525</ele>
        <time>2021-01-16T08:55:20Z</time>
      </trkpt>
      <trkpt lat="45.32071" lon="6.0441">
        <ele>1525</ele>
        <time>2021-01-16T08:55:21Z</time>
      </trkpt>
      <trkpt lat="45.32071" lon="6.0441">
        <ele>1525</ele>
        <time>2021-01-16T08:55:22Z</time>
      </trkpt>
      <trkpt lat="45.32071" lon="6.0441">
        <ele>1525</ele>
        <time>2021-01-16T08:55:23Z</time>
      </trkpt>
      <trkpt lat="45.32071" lon="6.0441">
        <ele>1525</ele>
        <time>2021-01-16T08:55:24Z</time>
      </trkpt>
      <trkpt lat="45.32071" lon="6.0441">
        <ele>1525.2</ele>
        <time>2021-01-16T08:55:25Z</time>
      </trkpt>
      <trkpt lat="45.32069" lon="6.04409">
        <ele>1525.2</ele>
        <time>2021-01-16T08:55:26Z</time>
      </trkpt>
      <trkpt lat="45.32069" lon="6.0441">
        <ele>1525.2</ele>
        <time>2021-01-16T08:55:27Z</time>
      </trkpt>
      <trkpt lat="45.32068" lon="6.04411">
        <ele>1525.4</ele>
        <time>2021-01-16T08:55:28Z</time>
      </trkpt>
      <trkpt lat="45.32067" lon="6.04411">
        <ele>1525.4</ele>
        <time>2021-01-16T08:55:29Z</time>
      </trkpt>
      <trkpt lat="45.32067" lon="6.04411">
        <ele>1525.4</ele>
        <time>2021-01-16T08:55:30Z</time>
      </trkpt>
      <trkpt lat="45.32065" lon="6.04412">
        <ele>1525.6</ele>
        <time>2021-01-16T08:55:31Z</time>
      </trkpt>
      <trkpt lat="45.32065" lon="6.04413">
        <ele>1525.6</ele>
        <time>2021-01-16T08:55:32Z</time>
      </trkpt>
      <trkpt lat="45.32064" lon="6.04414">
        <ele>1525.8</ele>
        <time>2021-01-16T08:55:33Z</time>
      </trkpt>
      <trkpt lat="45.32064" lon="6.04414">
        <ele>1525.8</ele>
        <time>2021-01-16T08:55:34Z</time>
      </trkpt>
      <trkpt lat="45.32062" lon="6.04415">
        <ele>1525.8</ele>
        <time>2021-01-16T08:55:35Z</time>
      </trkpt>
      <trkpt lat="45.32062" lon="6.04415">
        <ele>1525.8</ele>
        <time>2021-01-16T08:55:36Z</time>
      </trkpt>
      <trkpt lat="45.3206" lon="6.04415">
        <ele>1526</ele>
        <time>2021-01-16T08:55:37Z</time>
      </trkpt>
      <trkpt lat="45.32059" lon="6.04415">
        <ele>1526</ele>
        <time>2021-01-16T08:55:38Z</time>
      </trkpt>
      <trkpt lat="45.32059" lon="6.04415">
        <ele>1526.2</ele>
        <time>2021-01-16T08:55:39Z</time>
      </trkpt>
      <trkpt lat="45.32057" lon="6.04415">
        <ele>1526.2</ele>
        <time>2021-01-16T08:55:40Z</time>
      </trkpt>
      <trkpt lat="45.32056" lon="6.04415">
        <ele>1526.2</ele>
        <time>2021-01-16T08:55:41Z</time>
      </trkpt>
      <trkpt lat="45.32055" lon="6.04415">
        <ele>1526.4</ele>
        <time>2021-01-16T08:55:42Z</time>
      </trkpt>
      <trkpt lat="45.32054" lon="6.04416">
        <ele>1526.4</ele>
        <time>2021-01-16T08:55:43Z</time>
      </trkpt>
      <trkpt lat="45.32053" lon="6.04416">
        <ele>1526.4</ele>
        <time>2021-01-16T08:55:44Z</time>
      </trkpt>
      <trkpt lat="45.32052" lon="6.04416">
        <ele>1526.6</ele>
        <time>2021-01-16T08:55:45Z</time>
      </trkpt>
      <trkpt lat="45.32051" lon="6.04416">
        <ele>1526.6</ele>
        <time>2021-01-16T08:55:46Z</time>
      </trkpt>
      <trkpt lat="45.3205" lon="6.04416">
        <ele>1526.6</ele>
        <time>2021-01-16T08:55:47Z</time>
      </trkpt>
      <trkpt lat="45.32049" lon="6.04416">
        <ele>1526.8</ele>
        <time>2021-01-16T08:55:48Z</time>
      </trkpt>
      <trkpt lat="45.32048" lon="6.04416">
        <ele>1527</ele>
        <time>2021-01-16T08:55:49Z</time>
      </trkpt>
      <trkpt lat="45.32047" lon="6.04416">
        <ele>1527</ele>
        <time>2021-01-16T08:55:50Z</time>
      </trkpt>
      <trkpt lat="45.32046" lon="6.04416">
        <ele>1527.2</ele>
        <time>2021-01-16T08:55:51Z</time>
      </trkpt>
      <trkpt lat="45.32045" lon="6.04416">
        <ele>1527.4</ele>
        <time>2021-01-16T08:55:52Z</time>
      </trkpt>
      <trkpt lat="45.32045" lon="6.04415">
        <ele>1527.2</ele>
        <time>2021-01-16T08:55:53Z</time>
      </trkpt>
      <trkpt lat="45.32044" lon="6.04415">
        <ele>1527.6</ele>
        <time>2021-01-16T08:55:54Z</time>
      </trkpt>
      <trkpt lat="45.32043" lon="6.04414">
        <ele>1527.8</ele>
        <time>2021-01-16T08:55:55Z</time>
      </trkpt>
      <trkpt lat="45.32042" lon="6.04414">
        <ele>1527.8</ele>
        <time>2021-01-16T08:55:56Z</time>
      </trkpt>
      <trkpt lat="45.32041" lon="6.04413">
        <ele>1528</ele>
        <time>2021-01-16T08:55:57Z</time>
      </trkpt>
      <trkpt lat="45.3204" lon="6.04413">
        <ele>1528.2</ele>
        <time>2021-01-16T08:55:58Z</time>
      </trkpt>
      <trkpt lat="45.3204" lon="6.04412">
        <ele>1528.4</ele>
        <time>2021-01-16T08:55:59Z</time>
      </trkpt>
      <trkpt lat="45.32038" lon="6.04411">
        <ele>1528.6</ele>
        <time>2021-01-16T08:56:00Z</time>
      </trkpt>
      <trkpt lat="45.32037" lon="6.04409">
        <ele>1528.8</ele>
        <time>2021-01-16T08:56:01Z</time>
      </trkpt>
      <trkpt lat="45.32035" lon="6.04407">
        <ele>1529</ele>
        <time>2021-01-16T08:56:02Z</time>
      </trkpt>
      <trkpt lat="45.32034" lon="6.04406">
        <ele>1529.2</ele>
        <time>2021-01-16T08:56:03Z</time>
      </trkpt>
      <trkpt lat="45.32032" lon="6.04405">
        <ele>1529.4</ele>
        <time>2021-01-16T08:56:04Z</time>
      </trkpt>
      <trkpt lat="45.32031" lon="6.04405">
        <ele>1529.6</ele>
        <time>2021-01-16T08:56:05Z</time>
      </trkpt>
      <trkpt lat="45.3203" lon="6.04404">
        <ele>1529.6</ele>
        <time>2021-01-16T08:56:06Z</time>
      </trkpt>
      <trkpt lat="45.3203" lon="6.04404">
        <ele>1529.8</ele>
        <time>2021-01-16T08:56:07Z</time>
      </trkpt>
      <trkpt lat="45.32029" lon="6.04403">
        <ele>1530</ele>
        <time>2021-01-16T08:56:08Z</time>
      </trkpt>
      <trkpt lat="45.32028" lon="6.04403">
        <ele>1530</ele>
        <time>2021-01-16T08:56:09Z</time>
      </trkpt>
      <trkpt lat="45.32027" lon="6.04402">
        <ele>1530</ele>
        <time>2021-01-16T08:56:10Z</time>
      </trkpt>
      <trkpt lat="45.32027" lon="6.04402">
        <ele>1530.2</ele>
        <time>2021-01-16T08:56:11Z</time>
      </trkpt>
      <trkpt lat="45.32025" lon="6.04402">
        <ele>1530.4</ele>
        <time>2021-01-16T08:56:12Z</time>
      </trkpt>
      <trkpt lat="45.32025" lon="6.04401">
        <ele>1530.4</ele>
        <time>2021-01-16T08:56:13Z</time>
      </trkpt>
      <trkpt lat="45.32023" lon="6.04401">
        <ele>1530.6</ele>
        <time>2021-01-16T08:56:14Z</time>
      </trkpt>
      <trkpt lat="45.32022" lon="6.04401">
        <ele>1530.8</ele>
        <time>2021-01-16T08:56:15Z</time>
      </trkpt>
      <trkpt lat="45.32021" lon="6.044">
        <ele>1531</ele>
        <time>2021-01-16T08:56:16Z</time>
      </trkpt>
      <trkpt lat="45.3202" lon="6.044">
        <ele>1531</ele>
        <time>2021-01-16T08:56:17Z</time>
      </trkpt>
      <trkpt lat="45.32019" lon="6.044">
        <ele>1531.2</ele>
        <time>2021-01-16T08:56:18Z</time>
      </trkpt>
      <trkpt lat="45.32017" lon="6.04399">
        <ele>1531.4</ele>
        <time>2021-01-16T08:56:19Z</time>
      </trkpt>
      <trkpt lat="45.32016" lon="6.04398">
        <ele>1531.4</ele>
        <time>2021-01-16T08:56:20Z</time>
      </trkpt>
      <trkpt lat="45.32015" lon="6.04398">
        <ele>1531.6</ele>
        <time>2021-01-16T08:56:21Z</time>
      </trkpt>
      <trkpt lat="45.32014" lon="6.04397">
        <ele>1531.8</ele>
        <time>2021-01-16T08:56:22Z</time>
      </trkpt>
      <trkpt lat="45.32013" lon="6.04397">
        <ele>1531.8</ele>
        <time>2021-01-16T08:56:23Z</time>
      </trkpt>
      <trkpt lat="45.32012" lon="6.04396">
        <ele>1531.8</ele>
        <time>2021-01-16T08:56:24Z</time>
      </trkpt>
      <trkpt lat="45.32011" lon="6.04396">
        <ele>1532</ele>
        <time>2021-01-16T08:56:25Z</time>
      </trkpt>
      <trkpt lat="45.3201" lon="6.04395">
        <ele>1532.2</ele>
        <time>2021-01-16T08:56:26Z</time>
      </trkpt>
      <trkpt lat="45.32009" lon="6.04395">
        <ele>1532.2</ele>
        <time>2021-01-16T08:56:27Z</time>
      </trkpt>
      <trkpt lat="45.32008" lon="6.04395">
        <ele>1532.4</ele>
        <time>2021-01-16T08:56:28Z</time>
      </trkpt>
      <trkpt lat="45.32007" lon="6.04394">
        <ele>1532.6</ele>
        <time>2021-01-16T08:56:29Z</time>
      </trkpt>
      <trkpt lat="45.32006" lon="6.04394">
        <ele>1532.6</ele>
        <time>2021-01-16T08:56:30Z</time>
      </trkpt>
      <trkpt lat="45.32005" lon="6.04394">
        <ele>1532.8</ele>
        <time>2021-01-16T08:56:31Z</time>
      </trkpt>
      <trkpt lat="45.32004" lon="6.04393">
        <ele>1532.8</ele>
        <time>2021-01-16T08:56:32Z</time>
      </trkpt>
      <trkpt lat="45.32002" lon="6.04393">
        <ele>1532.8</ele>
        <time>2021-01-16T08:56:33Z</time>
      </trkpt>
      <trkpt lat="45.32001" lon="6.04393">
        <ele>1533</ele>
        <time>2021-01-16T08:56:34Z</time>
      </trkpt>
      <trkpt lat="45.32" lon="6.04393">
        <ele>1533</ele>
        <time>2021-01-16T08:56:35Z</time>
      </trkpt>
      <trkpt lat="45.31999" lon="6.04393">
        <ele>1533</ele>
        <time>2021-01-16T08:56:36Z</time>
      </trkpt>
      <trkpt lat="45.31998" lon="6.04393">
        <ele>1533</ele>
        <time>2021-01-16T08:56:37Z</time>
      </trkpt>
      <trkpt lat="45.31997" lon="6.04392">
        <ele>1533.2</ele>
        <time>2021-01-16T08:56:38Z</time>
      </trkpt>
      <trkpt lat="45.31996" lon="6.04393">
        <ele>1533.2</ele>
        <time>2021-01-16T08:56:39Z</time>
      </trkpt>
      <trkpt lat="45.31995" lon="6.04392">
        <ele>1533.2</ele>
        <time>2021-01-16T08:56:40Z</time>
      </trkpt>
      <trkpt lat="45.31994" lon="6.04393">
        <ele>1533.4</ele>
        <time>2021-01-16T08:56:41Z</time>
      </trkpt>
      <trkpt lat="45.31993" lon="6.04393">
        <ele>1533.6</ele>
        <time>2021-01-16T08:56:42Z</time>
      </trkpt>
      <trkpt lat="45.31992" lon="6.04393">
        <ele>1533.4</ele>
        <time>2021-01-16T08:56:43Z</time>
      </trkpt>
      <trkpt lat="45.31991" lon="6.04393">
        <ele>1533.6</ele>
        <time>2021-01-16T08:56:44Z</time>
      </trkpt>
      <trkpt lat="45.3199" lon="6.04392">
        <ele>1533.6</ele>
        <time>2021-01-16T08:56:45Z</time>
      </trkpt>
      <trkpt lat="45.31989" lon="6.04392">
        <ele>1533.6</ele>
        <time>2021-01-16T08:56:46Z</time>
      </trkpt>
      <trkpt lat="45.31988" lon="6.04392">
        <ele>1533.6</ele>
        <time>2021-01-16T08:56:47Z</time>
      </trkpt>
      <trkpt lat="45.31987" lon="6.04391">
        <ele>1533.8</ele>
        <time>2021-01-16T08:56:48Z</time>
      </trkpt>
      <trkpt lat="45.31986" lon="6.04391">
        <ele>1533.6</ele>
        <time>2021-01-16T08:56:49Z</time>
      </trkpt>
      <trkpt lat="45.31985" lon="6.0439">
        <ele>1533.8</ele>
        <time>2021-01-16T08:56:50Z</time>
      </trkpt>
      <trkpt lat="45.31984" lon="6.0439">
        <ele>1533.8</ele>
        <time>2021-01-16T08:56:51Z</time>
      </trkpt>
      <trkpt lat="45.31983" lon="6.0439">
        <ele>1533.8</ele>
        <time>2021-01-16T08:56:52Z</time>
      </trkpt>
      <trkpt lat="45.31982" lon="6.0439">
        <ele>1533.8</ele>
        <time>2021-01-16T08:56:53Z</time>
      </trkpt>
      <trkpt lat="45.31981" lon="6.0439">
        <ele>1533.8</ele>
        <time>2021-01-16T08:56:54Z</time>
      </trkpt>
      <trkpt lat="45.3198" lon="6.04389">
        <ele>1534</ele>
        <time>2021-01-16T08:56:55Z</time>
      </trkpt>
      <trkpt lat="45.31979" lon="6.04389">
        <ele>1534</ele>
        <time>2021-01-16T08:56:56Z</time>
      </trkpt>
      <trkpt lat="45.31978" lon="6.04389">
        <ele>1534</ele>
        <time>2021-01-16T08:56:57Z</time>
      </trkpt>
      <trkpt lat="45.31977" lon="6.04388">
        <ele>1534</ele>
        <time>2021-01-16T08:56:58Z</time>
      </trkpt>
      <trkpt lat="45.31976" lon="6.04388">
        <ele>1534</ele>
        <time>2021-01-16T08:56:59Z</time>
      </trkpt>
      <trkpt lat="45.31975" lon="6.04388">
        <ele>1534</ele>
        <time>2021-01-16T08:57:00Z</time>
      </trkpt>
      <trkpt lat="45.31975" lon="6.04388">
        <ele>1534</ele>
        <time>2021-01-16T08:57:01Z</time>
      </trkpt>
      <trkpt lat="45.31973" lon="6.04387">
        <ele>1534.2</ele>
        <time>2021-01-16T08:57:02Z</time>
      </trkpt>
      <trkpt lat="45.31972" lon="6.04386">
        <ele>1534.2</ele>
        <time>2021-01-16T08:57:03Z</time>
      </trkpt>
      <trkpt lat="45.31971" lon="6.04386">
        <ele>1534.2</ele>
        <time>2021-01-16T08:57:04Z</time>
      </trkpt>
      <trkpt lat="45.3197" lon="6.04386">
        <ele>1534.4</ele>
        <time>2021-01-16T08:57:05Z</time>
      </trkpt>
      <trkpt lat="45.31969" lon="6.04386">
        <ele>1534.4</ele>
        <time>2021-01-16T08:57:06Z</time>
      </trkpt>
      <trkpt lat="45.31969" lon="6.04385">
        <ele>1534.6</ele>
        <time>2021-01-16T08:57:07Z</time>
      </trkpt>
      <trkpt lat="45.31967" lon="6.04385">
        <ele>1534.6</ele>
        <time>2021-01-16T08:57:08Z</time>
      </trkpt>
      <trkpt lat="45.31967" lon="6.04385">
        <ele>1534.8</ele>
        <time>2021-01-16T08:57:09Z</time>
      </trkpt>
      <trkpt lat="45.31966" lon="6.04385">
        <ele>1534.8</ele>
        <time>2021-01-16T08:57:10Z</time>
      </trkpt>
      <trkpt lat="45.31965" lon="6.04385">
        <ele>1535</ele>
        <time>2021-01-16T08:57:11Z</time>
      </trkpt>
      <trkpt lat="45.31964" lon="6.04385">
        <ele>1535</ele>
        <time>2021-01-16T08:57:12Z</time>
      </trkpt>
      <trkpt lat="45.31963" lon="6.04385">
        <ele>1535</ele>
        <time>2021-01-16T08:57:13Z</time>
      </trkpt>
      <trkpt lat="45.31962" lon="6.04385">
        <ele>1535.2</ele>
        <time>2021-01-16T08:57:14Z</time>
      </trkpt>
      <trkpt lat="45.31961" lon="6.04386">
        <ele>1535.2</ele>
        <time>2021-01-16T08:57:15Z</time>
      </trkpt>
      <trkpt lat="45.3196" lon="6.04386">
        <ele>1535.2</ele>
        <time>2021-01-16T08:57:16Z</time>
      </trkpt>
      <trkpt lat="45.31959" lon="6.04387">
        <ele>1535.2</ele>
        <time>2021-01-16T08:57:17Z</time>
      </trkpt>
      <trkpt lat="45.31959" lon="6.04388">
        <ele>1535.4</ele>
        <time>2021-01-16T08:57:18Z</time>
      </trkpt>
      <trkpt lat="45.31958" lon="6.04388">
        <ele>1535.4</ele>
        <time>2021-01-16T08:57:19Z</time>
      </trkpt>
      <trkpt lat="45.31957" lon="6.04388">
        <ele>1535.6</ele>
        <time>2021-01-16T08:57:20Z</time>
      </trkpt>
      <trkpt lat="45.31956" lon="6.04389">
        <ele>1535.8</ele>
        <time>2021-01-16T08:57:21Z</time>
      </trkpt>
      <trkpt lat="45.31955" lon="6.04389">
        <ele>1535.8</ele>
        <time>2021-01-16T08:57:22Z</time>
      </trkpt>
      <trkpt lat="45.31954" lon="6.0439">
        <ele>1535.8</ele>
        <time>2021-01-16T08:57:23Z</time>
      </trkpt>
      <trkpt lat="45.31953" lon="6.04391">
        <ele>1536</ele>
        <time>2021-01-16T08:57:24Z</time>
      </trkpt>
      <trkpt lat="45.31953" lon="6.04392">
        <ele>1536</ele>
        <time>2021-01-16T08:57:25Z</time>
      </trkpt>
      <trkpt lat="45.31951" lon="6.04392">
        <ele>1536</ele>
        <time>2021-01-16T08:57:26Z</time>
      </trkpt>
      <trkpt lat="45.31951" lon="6.04393">
        <ele>1536.2</ele>
        <time>2021-01-16T08:57:27Z</time>
      </trkpt>
      <trkpt lat="45.3195" lon="6.04393">
        <ele>1536.4</ele>
        <time>2021-01-16T08:57:28Z</time>
      </trkpt>
      <trkpt lat="45.31949" lon="6.04394">
        <ele>1536.4</ele>
        <time>2021-01-16T08:57:29Z</time>
      </trkpt>
      <trkpt lat="45.31948" lon="6.04395">
        <ele>1536.6</ele>
        <time>2021-01-16T08:57:30Z</time>
      </trkpt>
      <trkpt lat="45.31947" lon="6.04395">
        <ele>1536.6</ele>
        <time>2021-01-16T08:57:31Z</time>
      </trkpt>
      <trkpt lat="45.31946" lon="6.04395">
        <ele>1536.8</ele>
        <time>2021-01-16T08:57:32Z</time>
      </trkpt>
      <trkpt lat="45.31946" lon="6.04396">
        <ele>1537</ele>
        <time>2021-01-16T08:57:33Z</time>
      </trkpt>
      <trkpt lat="45.31945" lon="6.04396">
        <ele>1537</ele>
        <time>2021-01-16T08:57:34Z</time>
      </trkpt>
      <trkpt lat="45.31944" lon="6.04398">
        <ele>1537.2</ele>
        <time>2021-01-16T08:57:35Z</time>
      </trkpt>
      <trkpt lat="45.31943" lon="6.04398">
        <ele>1537.4</ele>
        <time>2021-01-16T08:57:36Z</time>
      </trkpt>
      <trkpt lat="45.31943" lon="6.04399">
        <ele>1537.4</ele>
        <time>2021-01-16T08:57:37Z</time>
      </trkpt>
      <trkpt lat="45.31942" lon="6.04399">
        <ele>1537.6</ele>
        <time>2021-01-16T08:57:38Z</time>
      </trkpt>
      <trkpt lat="45.31941" lon="6.044">
        <ele>1537.8</ele>
        <time>2021-01-16T08:57:39Z</time>
      </trkpt>
      <trkpt lat="45.3194" lon="6.04401">
        <ele>1537.8</ele>
        <time>2021-01-16T08:57:40Z</time>
      </trkpt>
      <trkpt lat="45.31939" lon="6.04401">
        <ele>1537.8</ele>
        <time>2021-01-16T08:57:41Z</time>
      </trkpt>
      <trkpt lat="45.31938" lon="6.04402">
        <ele>1538.2</ele>
        <time>2021-01-16T08:57:42Z</time>
      </trkpt>
      <trkpt lat="45.31936" lon="6.04402">
        <ele>1538.2</ele>
        <time>2021-01-16T08:57:43Z</time>
      </trkpt>
      <trkpt lat="45.31935" lon="6.04403">
        <ele>1538.4</ele>
        <time>2021-01-16T08:57:44Z</time>
      </trkpt>
      <trkpt lat="45.31935" lon="6.04404">
        <ele>1538.4</ele>
        <time>2021-01-16T08:57:45Z</time>
      </trkpt>
      <trkpt lat="45.31934" lon="6.04404">
        <ele>1538.6</ele>
        <time>2021-01-16T08:57:46Z</time>
      </trkpt>
      <trkpt lat="45.31933" lon="6.04404">
        <ele>1538.6</ele>
        <time>2021-01-16T08:57:47Z</time>
      </trkpt>
      <trkpt lat="45.31932" lon="6.04405">
        <ele>1538.8</ele>
        <time>2021-01-16T08:57:48Z</time>
      </trkpt>
      <trkpt lat="45.31931" lon="6.04405">
        <ele>1538.8</ele>
        <time>2021-01-16T08:57:49Z</time>
      </trkpt>
      <trkpt lat="45.3193" lon="6.04406">
        <ele>1539</ele>
        <time>2021-01-16T08:57:50Z</time>
      </trkpt>
      <trkpt lat="45.31929" lon="6.04406">
        <ele>1539</ele>
        <time>2021-01-16T08:57:51Z</time>
      </trkpt>
      <trkpt lat="45.31928" lon="6.04407">
        <ele>1539.2</ele>
        <time>2021-01-16T08:57:52Z</time>
      </trkpt>
      <trkpt lat="45.31927" lon="6.04407">
        <ele>1539.2</ele>
        <time>2021-01-16T08:57:53Z</time>
      </trkpt>
      <trkpt lat="45.31926" lon="6.04408">
        <ele>1539.4</ele>
        <time>2021-01-16T08:57:54Z</time>
      </trkpt>
      <trkpt lat="45.31925" lon="6.04409">
        <ele>1539.4</ele>
        <time>2021-01-16T08:57:55Z</time>
      </trkpt>
      <trkpt lat="45.31924" lon="6.04409">
        <ele>1539.6</ele>
        <time>2021-01-16T08:57:56Z</time>
      </trkpt>
      <trkpt lat="45.31923" lon="6.04409">
        <ele>1539.6</ele>
        <time>2021-01-16T08:57:57Z</time>
      </trkpt>
      <trkpt lat="45.31922" lon="6.04409">
        <ele>1539.8</ele>
        <time>2021-01-16T08:57:58Z</time>
      </trkpt>
      <trkpt lat="45.31921" lon="6.0441">
        <ele>1539.8</ele>
        <time>2021-01-16T08:57:59Z</time>
      </trkpt>
      <trkpt lat="45.31921" lon="6.0441">
        <ele>1539.8</ele>
        <time>2021-01-16T08:58:00Z</time>
      </trkpt>
      <trkpt lat="45.3192" lon="6.04411">
        <ele>1540</ele>
        <time>2021-01-16T08:58:01Z</time>
      </trkpt>
      <trkpt lat="45.31919" lon="6.04411">
        <ele>1540</ele>
        <time>2021-01-16T08:58:02Z</time>
      </trkpt>
      <trkpt lat="45.31918" lon="6.04411">
        <ele>1540</ele>
        <time>2021-01-16T08:58:03Z</time>
      </trkpt>
      <trkpt lat="45.31917" lon="6.04411">
        <ele>1540.2</ele>
        <time>2021-01-16T08:58:04Z</time>
      </trkpt>
      <trkpt lat="45.31917" lon="6.04412">
        <ele>1540.4</ele>
        <time>2021-01-16T08:58:05Z</time>
      </trkpt>
      <trkpt lat="45.31916" lon="6.04413">
        <ele>1540.4</ele>
        <time>2021-01-16T08:58:06Z</time>
      </trkpt>
      <trkpt lat="45.31915" lon="6.04413">
        <ele>1540.4</ele>
        <time>2021-01-16T08:58:07Z</time>
      </trkpt>
      <trkpt lat="45.31914" lon="6.04414">
        <ele>1540.6</ele>
        <time>2021-01-16T08:58:08Z</time>
      </trkpt>
      <trkpt lat="45.31913" lon="6.04414">
        <ele>1540.6</ele>
        <time>2021-01-16T08:58:09Z</time>
      </trkpt>
      <trkpt lat="45.31912" lon="6.04415">
        <ele>1540.8</ele>
        <time>2021-01-16T08:58:10Z</time>
      </trkpt>
      <trkpt lat="45.31911" lon="6.04415">
        <ele>1541</ele>
        <time>2021-01-16T08:58:11Z</time>
      </trkpt>
      <trkpt lat="45.3191" lon="6.04416">
        <ele>1541</ele>
        <time>2021-01-16T08:58:12Z</time>
      </trkpt>
      <trkpt lat="45.31909" lon="6.04417">
        <ele>1541</ele>
        <time>2021-01-16T08:58:13Z</time>
      </trkpt>
      <trkpt lat="45.31908" lon="6.04417">
        <ele>1541.2</ele>
        <time>2021-01-16T08:58:14Z</time>
      </trkpt>
      <trkpt lat="45.31907" lon="6.04418">
        <ele>1541.4</ele>
        <time>2021-01-16T08:58:15Z</time>
      </trkpt>
      <trkpt lat="45.31906" lon="6.04419">
        <ele>1541.4</ele>
        <time>2021-01-16T08:58:16Z</time>
      </trkpt>
      <trkpt lat="45.31905" lon="6.04419">
        <ele>1541.4</ele>
        <time>2021-01-16T08:58:17Z</time>
      </trkpt>
      <trkpt lat="45.31904" lon="6.0442">
        <ele>1541.6</ele>
        <time>2021-01-16T08:58:18Z</time>
      </trkpt>
      <trkpt lat="45.31903" lon="6.0442">
        <ele>1541.8</ele>
        <time>2021-01-16T08:58:19Z</time>
      </trkpt>
      <trkpt lat="45.31902" lon="6.04421">
        <ele>1541.8</ele>
        <time>2021-01-16T08:58:20Z</time>
      </trkpt>
      <trkpt lat="45.31901" lon="6.04421">
        <ele>1542</ele>
        <time>2021-01-16T08:58:21Z</time>
      </trkpt>
      <trkpt lat="45.31901" lon="6.04422">
        <ele>1542.2</ele>
        <time>2021-01-16T08:58:22Z</time>
      </trkpt>
      <trkpt lat="45.31899" lon="6.04422">
        <ele>1542.2</ele>
        <time>2021-01-16T08:58:23Z</time>
      </trkpt>
      <trkpt lat="45.31898" lon="6.04423">
        <ele>1542.4</ele>
        <time>2021-01-16T08:58:24Z</time>
      </trkpt>
      <trkpt lat="45.31898" lon="6.04423">
        <ele>1542.6</ele>
        <time>2021-01-16T08:58:25Z</time>
      </trkpt>
      <trkpt lat="45.31896" lon="6.04423">
        <ele>1542.8</ele>
        <time>2021-01-16T08:58:26Z</time>
      </trkpt>
      <trkpt lat="45.31895" lon="6.04423">
        <ele>1542.8</ele>
        <time>2021-01-16T08:58:27Z</time>
      </trkpt>
      <trkpt lat="45.31894" lon="6.04423">
        <ele>1543</ele>
        <time>2021-01-16T08:58:28Z</time>
      </trkpt>
      <trkpt lat="45.31893" lon="6.04424">
        <ele>1543</ele>
        <time>2021-01-16T08:58:29Z</time>
      </trkpt>
      <trkpt lat="45.31892" lon="6.04424">
        <ele>1543.2</ele>
        <time>2021-01-16T08:58:30Z</time>
      </trkpt>
      <trkpt lat="45.31891" lon="6.04424">
        <ele>1543.4</ele>
        <time>2021-01-16T08:58:31Z</time>
      </trkpt>
      <trkpt lat="45.3189" lon="6.04424">
        <ele>1543.4</ele>
        <time>2021-01-16T08:58:32Z</time>
      </trkpt>
      <trkpt lat="45.31889" lon="6.04425">
        <ele>1543.6</ele>
        <time>2021-01-16T08:58:33Z</time>
      </trkpt>
      <trkpt lat="45.31888" lon="6.04425">
        <ele>1543.6</ele>
        <time>2021-01-16T08:58:34Z</time>
      </trkpt>
      <trkpt lat="45.31887" lon="6.04426">
        <ele>1543.8</ele>
        <time>2021-01-16T08:58:35Z</time>
      </trkpt>
      <trkpt lat="45.31886" lon="6.04426">
        <ele>1543.8</ele>
        <time>2021-01-16T08:58:36Z</time>
      </trkpt>
      <trkpt lat="45.31885" lon="6.04426">
        <ele>1544</ele>
        <time>2021-01-16T08:58:37Z</time>
      </trkpt>
      <trkpt lat="45.31884" lon="6.04426">
        <ele>1544.2</ele>
        <time>2021-01-16T08:58:38Z</time>
      </trkpt>
      <trkpt lat="45.31883" lon="6.04427">
        <ele>1544.2</ele>
        <time>2021-01-16T08:58:39Z</time>
      </trkpt>
      <trkpt lat="45.31882" lon="6.04427">
        <ele>1544.6</ele>
        <time>2021-01-16T08:58:40Z</time>
      </trkpt>
      <trkpt lat="45.31881" lon="6.04428">
        <ele>1544.8</ele>
        <time>2021-01-16T08:58:41Z</time>
      </trkpt>
      <trkpt lat="45.3188" lon="6.04429">
        <ele>1544.8</ele>
        <time>2021-01-16T08:58:42Z</time>
      </trkpt>
      <trkpt lat="45.31878" lon="6.04429">
        <ele>1545</ele>
        <time>2021-01-16T08:58:43Z</time>
      </trkpt>
      <trkpt lat="45.31877" lon="6.04429">
        <ele>1545.2</ele>
        <time>2021-01-16T08:58:44Z</time>
      </trkpt>
      <trkpt lat="45.31876" lon="6.04429">
        <ele>1545.4</ele>
        <time>2021-01-16T08:58:45Z</time>
      </trkpt>
      <trkpt lat="45.31875" lon="6.0443">
        <ele>1545.6</ele>
        <time>2021-01-16T08:58:46Z</time>
      </trkpt>
      <trkpt lat="45.31874" lon="6.0443">
        <ele>1545.8</ele>
        <time>2021-01-16T08:58:47Z</time>
      </trkpt>
      <trkpt lat="45.31873" lon="6.04431">
        <ele>1546</ele>
        <time>2021-01-16T08:58:48Z</time>
      </trkpt>
      <trkpt lat="45.31872" lon="6.04431">
        <ele>1546</ele>
        <time>2021-01-16T08:58:49Z</time>
      </trkpt>
      <trkpt lat="45.31871" lon="6.04432">
        <ele>1546.4</ele>
        <time>2021-01-16T08:58:50Z</time>
      </trkpt>
      <trkpt lat="45.3187" lon="6.04432">
        <ele>1546.6</ele>
        <time>2021-01-16T08:58:51Z</time>
      </trkpt>
      <trkpt lat="45.31869" lon="6.04432">
        <ele>1546.6</ele>
        <time>2021-01-16T08:58:52Z</time>
      </trkpt>
      <trkpt lat="45.31868" lon="6.04432">
        <ele>1547</ele>
        <time>2021-01-16T08:58:53Z</time>
      </trkpt>
      <trkpt lat="45.31867" lon="6.04432">
        <ele>1547.2</ele>
        <time>2021-01-16T08:58:54Z</time>
      </trkpt>
      <trkpt lat="45.31866" lon="6.04432">
        <ele>1547.2</ele>
        <time>2021-01-16T08:58:55Z</time>
      </trkpt>
      <trkpt lat="45.31865" lon="6.04433">
        <ele>1547.4</ele>
        <time>2021-01-16T08:58:56Z</time>
      </trkpt>
      <trkpt lat="45.31864" lon="6.04433">
        <ele>1547.4</ele>
        <time>2021-01-16T08:58:57Z</time>
      </trkpt>
      <trkpt lat="45.31862" lon="6.04433">
        <ele>1547.6</ele>
        <time>2021-01-16T08:58:58Z</time>
      </trkpt>
      <trkpt lat="45.31861" lon="6.04433">
        <ele>1547.6</ele>
        <time>2021-01-16T08:58:59Z</time>
      </trkpt>
      <trkpt lat="45.31861" lon="6.04433">
        <ele>1547.8</ele>
        <time>2021-01-16T08:59:00Z</time>
      </trkpt>
      <trkpt lat="45.3186" lon="6.04433">
        <ele>1547.8</ele>
        <time>2021-01-16T08:59:01Z</time>
      </trkpt>
      <trkpt lat="45.31859" lon="6.04433">
        <ele>1548</ele>
        <time>2021-01-16T08:59:02Z</time>
      </trkpt>
      <trkpt lat="45.31858" lon="6.04432">
        <ele>1548</ele>
        <time>2021-01-16T08:59:03Z</time>
      </trkpt>
      <trkpt lat="45.31857" lon="6.04432">
        <ele>1548.2</ele>
        <time>2021-01-16T08:59:04Z</time>
      </trkpt>
      <trkpt lat="45.31856" lon="6.04432">
        <ele>1548.2</ele>
        <time>2021-01-16T08:59:05Z</time>
      </trkpt>
      <trkpt lat="45.31856" lon="6.04433">
        <ele>1548.4</ele>
        <time>2021-01-16T08:59:06Z</time>
      </trkpt>
      <trkpt lat="45.31855" lon="6.04433">
        <ele>1548.4</ele>
        <time>2021-01-16T08:59:07Z</time>
      </trkpt>
      <trkpt lat="45.31854" lon="6.04433">
        <ele>1548.4</ele>
        <time>2021-01-16T08:59:08Z</time>
      </trkpt>
      <trkpt lat="45.31853" lon="6.04433">
        <ele>1548.6</ele>
        <time>2021-01-16T08:59:09Z</time>
      </trkpt>
      <trkpt lat="45.31852" lon="6.04434">
        <ele>1548.8</ele>
        <time>2021-01-16T08:59:10Z</time>
      </trkpt>
      <trkpt lat="45.31851" lon="6.04434">
        <ele>1548.8</ele>
        <time>2021-01-16T08:59:11Z</time>
      </trkpt>
      <trkpt lat="45.31851" lon="6.04434">
        <ele>1549</ele>
        <time>2021-01-16T08:59:12Z</time>
      </trkpt>
      <trkpt lat="45.3185" lon="6.04434">
        <ele>1549</ele>
        <time>2021-01-16T08:59:13Z</time>
      </trkpt>
      <trkpt lat="45.31849" lon="6.04435">
        <ele>1549.2</ele>
        <time>2021-01-16T08:59:14Z</time>
      </trkpt>
      <trkpt lat="45.31848" lon="6.04436">
        <ele>1549.2</ele>
        <time>2021-01-16T08:59:15Z</time>
      </trkpt>
      <trkpt lat="45.31847" lon="6.04437">
        <ele>1549.4</ele>
        <time>2021-01-16T08:59:16Z</time>
      </trkpt>
      <trkpt lat="45.31847" lon="6.04438">
        <ele>1549.6</ele>
        <time>2021-01-16T08:59:17Z</time>
      </trkpt>
      <trkpt lat="45.31846" lon="6.04439">
        <ele>1549.8</ele>
        <time>2021-01-16T08:59:18Z</time>
      </trkpt>
      <trkpt lat="45.31845" lon="6.0444">
        <ele>1549.8</ele>
        <time>2021-01-16T08:59:19Z</time>
      </trkpt>
      <trkpt lat="45.31844" lon="6.04441">
        <ele>1549.8</ele>
        <time>2021-01-16T08:59:20Z</time>
      </trkpt>
      <trkpt lat="45.31844" lon="6.04442">
        <ele>1550</ele>
        <time>2021-01-16T08:59:21Z</time>
      </trkpt>
      <trkpt lat="45.31843" lon="6.04443">
        <ele>1550</ele>
        <time>2021-01-16T08:59:22Z</time>
      </trkpt>
      <trkpt lat="45.31843" lon="6.04444">
        <ele>1550.2</ele>
        <time>2021-01-16T08:59:23Z</time>
      </trkpt>
      <trkpt lat="45.31843" lon="6.04445">
        <ele>1550.2</ele>
        <time>2021-01-16T08:59:24Z</time>
      </trkpt>
      <trkpt lat="45.31842" lon="6.04446">
        <ele>1550.4</ele>
        <time>2021-01-16T08:59:25Z</time>
      </trkpt>
      <trkpt lat="45.31841" lon="6.04447">
        <ele>1550.4</ele>
        <time>2021-01-16T08:59:26Z</time>
      </trkpt>
      <trkpt lat="45.3184" lon="6.04448">
        <ele>1550.6</ele>
        <time>2021-01-16T08:59:27Z</time>
      </trkpt>
      <trkpt lat="45.3184" lon="6.04449">
        <ele>1550.8</ele>
        <time>2021-01-16T08:59:28Z</time>
      </trkpt>
      <trkpt lat="45.31839" lon="6.0445">
        <ele>1550.8</ele>
        <time>2021-01-16T08:59:29Z</time>
      </trkpt>
      <trkpt lat="45.31839" lon="6.04451">
        <ele>1550.8</ele>
        <time>2021-01-16T08:59:30Z</time>
      </trkpt>
      <trkpt lat="45.31838" lon="6.04452">
        <ele>1551</ele>
        <time>2021-01-16T08:59:31Z</time>
      </trkpt>
      <trkpt lat="45.31837" lon="6.04454">
        <ele>1551</ele>
        <time>2021-01-16T08:59:32Z</time>
      </trkpt>
      <trkpt lat="45.31837" lon="6.04456">
        <ele>1551.2</ele>
        <time>2021-01-16T08:59:33Z</time>
      </trkpt>
      <trkpt lat="45.31837" lon="6.04457">
        <ele>1551.2</ele>
        <time>2021-01-16T08:59:34Z</time>
      </trkpt>
      <trkpt lat="45.31837" lon="6.04458">
        <ele>1551.4</ele>
        <time>2021-01-16T08:59:35Z</time>
      </trkpt>
      <trkpt lat="45.31837" lon="6.04459">
        <ele>1551.4</ele>
        <time>2021-01-16T08:59:36Z</time>
      </trkpt>
      <trkpt lat="45.31837" lon="6.0446">
        <ele>1551.6</ele>
        <time>2021-01-16T08:59:37Z</time>
      </trkpt>
      <trkpt lat="45.31837" lon="6.04462">
        <ele>1551.6</ele>
        <time>2021-01-16T08:59:38Z</time>
      </trkpt>
      <trkpt lat="45.31837" lon="6.04463">
        <ele>1551.8</ele>
        <time>2021-01-16T08:59:39Z</time>
      </trkpt>
      <trkpt lat="45.31837" lon="6.04464">
        <ele>1551.8</ele>
        <time>2021-01-16T08:59:40Z</time>
      </trkpt>
      <trkpt lat="45.31837" lon="6.04465">
        <ele>1552.2</ele>
        <time>2021-01-16T08:59:41Z</time>
      </trkpt>
      <trkpt lat="45.31837" lon="6.04466">
        <ele>1552.2</ele>
        <time>2021-01-16T08:59:42Z</time>
      </trkpt>
      <trkpt lat="45.31837" lon="6.04468">
        <ele>1552.4</ele>
        <time>2021-01-16T08:59:43Z</time>
      </trkpt>
      <trkpt lat="45.31837" lon="6.04469">
        <ele>1552.6</ele>
        <time>2021-01-16T08:59:44Z</time>
      </trkpt>
      <trkpt lat="45.31837" lon="6.0447">
        <ele>1552.6</ele>
        <time>2021-01-16T08:59:45Z</time>
      </trkpt>
      <trkpt lat="45.31837" lon="6.04471">
        <ele>1552.6</ele>
        <time>2021-01-16T08:59:46Z</time>
      </trkpt>
      <trkpt lat="45.31837" lon="6.04473">
        <ele>1552.8</ele>
        <time>2021-01-16T08:59:47Z</time>
      </trkpt>
      <trkpt lat="45.31837" lon="6.04474">
        <ele>1553</ele>
        <time>2021-01-16T08:59:48Z</time>
      </trkpt>
      <trkpt lat="45.31837" lon="6.04475">
        <ele>1553</ele>
        <time>2021-01-16T08:59:49Z</time>
      </trkpt>
      <trkpt lat="45.31838" lon="6.04476">
        <ele>1553.2</ele>
        <time>2021-01-16T08:59:50Z</time>
      </trkpt>
      <trkpt lat="45.31838" lon="6.04477">
        <ele>1553.2</ele>
        <time>2021-01-16T08:59:51Z</time>
      </trkpt>
      <trkpt lat="45.31837" lon="6.04479">
        <ele>1553.2</ele>
        <time>2021-01-16T08:59:52Z</time>
      </trkpt>
      <trkpt lat="45.31837" lon="6.0448">
        <ele>1553.4</ele>
        <time>2021-01-16T08:59:53Z</time>
      </trkpt>
      <trkpt lat="45.31838" lon="6.04481">
        <ele>1553.4</ele>
        <time>2021-01-16T08:59:54Z</time>
      </trkpt>
      <trkpt lat="45.31838" lon="6.04483">
        <ele>1553.6</ele>
        <time>2021-01-16T08:59:55Z</time>
      </trkpt>
      <trkpt lat="45.31838" lon="6.04484">
        <ele>1553.6</ele>
        <time>2021-01-16T08:59:56Z</time>
      </trkpt>
      <trkpt lat="45.31838" lon="6.04485">
        <ele>1553.8</ele>
        <time>2021-01-16T08:59:57Z</time>
      </trkpt>
      <trkpt lat="45.31838" lon="6.04486">
        <ele>1553.8</ele>
        <time>2021-01-16T08:59:58Z</time>
      </trkpt>
      <trkpt lat="45.31838" lon="6.04487">
        <ele>1554</ele>
        <time>2021-01-16T08:59:59Z</time>
      </trkpt>
      <trkpt lat="45.31838" lon="6.04487">
        <ele>1554</ele>
        <time>2021-01-16T09:00:00Z</time>
      </trkpt>
      <trkpt lat="45.31838" lon="6.04488">
        <ele>1554</ele>
        <time>2021-01-16T09:00:01Z</time>
      </trkpt>
      <trkpt lat="45.31838" lon="6.04488">
        <ele>1554.2</ele>
        <time>2021-01-16T09:00:02Z</time>
      </trkpt>
      <trkpt lat="45.31838" lon="6.04488">
        <ele>1554</ele>
        <time>2021-01-16T09:00:03Z</time>
      </trkpt>
      <trkpt lat="45.31838" lon="6.04488">
        <ele>1554.2</ele>
        <time>2021-01-16T09:00:04Z</time>
      </trkpt>
      <trkpt lat="45.31838" lon="6.04488">
        <ele>1554.2</ele>
        <time>2021-01-16T09:00:05Z</time>
      </trkpt>
      <trkpt lat="45.31838" lon="6.04488">
        <ele>1554.2</ele>
        <time>2021-01-16T09:00:06Z</time>
      </trkpt>
      <trkpt lat="45.31838" lon="6.04488">
        <ele>1554.2</ele>
        <time>2021-01-16T09:00:07Z</time>
      </trkpt>
      <trkpt lat="45.31838" lon="6.04488">
        <ele>1554.2</ele>
        <time>2021-01-16T09:00:08Z</time>
      </trkpt>
      <trkpt lat="45.31838" lon="6.04488">
        <ele>1554.2</ele>
        <time>2021-01-16T09:00:09Z</time>
      </trkpt>
      <trkpt lat="45.31838" lon="6.04489">
        <ele>1554.2</ele>
        <time>2021-01-16T09:00:10Z</time>
      </trkpt>
      <trkpt lat="45.31838" lon="6.0449">
        <ele>1554.4</ele>
        <time>2021-01-16T09:00:11Z</time>
      </trkpt>
      <trkpt lat="45.31838" lon="6.04491">
        <ele>1554.4</ele>
        <time>2021-01-16T09:00:12Z</time>
      </trkpt>
      <trkpt lat="45.31838" lon="6.04493">
        <ele>1554.4</ele>
        <time>2021-01-16T09:00:13Z</time>
      </trkpt>
      <trkpt lat="45.31838" lon="6.04494">
        <ele>1554.6</ele>
        <time>2021-01-16T09:00:14Z</time>
      </trkpt>
      <trkpt lat="45.31838" lon="6.04495">
        <ele>1554.8</ele>
        <time>2021-01-16T09:00:15Z</time>
      </trkpt>
      <trkpt lat="45.31839" lon="6.04496">
        <ele>1555</ele>
        <time>2021-01-16T09:00:16Z</time>
      </trkpt>
      <trkpt lat="45.31839" lon="6.04497">
        <ele>1555.2</ele>
        <time>2021-01-16T09:00:17Z</time>
      </trkpt>
      <trkpt lat="45.31839" lon="6.04499">
        <ele>1555.2</ele>
        <time>2021-01-16T09:00:18Z</time>
      </trkpt>
      <trkpt lat="45.31839" lon="6.045">
        <ele>1555.4</ele>
        <time>2021-01-16T09:00:19Z</time>
      </trkpt>
      <trkpt lat="45.31839" lon="6.04501">
        <ele>1555.8</ele>
        <time>2021-01-16T09:00:20Z</time>
      </trkpt>
      <trkpt lat="45.31839" lon="6.04501">
        <ele>1555.8</ele>
        <time>2021-01-16T09:00:21Z</time>
      </trkpt>
      <trkpt lat="45.3184" lon="6.04503">
        <ele>1556</ele>
        <time>2021-01-16T09:00:22Z</time>
      </trkpt>
      <trkpt lat="45.3184" lon="6.04504">
        <ele>1556.2</ele>
        <time>2021-01-16T09:00:23Z</time>
      </trkpt>
      <trkpt lat="45.31841" lon="6.04505">
        <ele>1556.4</ele>
        <time>2021-01-16T09:00:24Z</time>
      </trkpt>
      <trkpt lat="45.31841" lon="6.04506">
        <ele>1556.4</ele>
        <time>2021-01-16T09:00:25Z</time>
      </trkpt>
      <trkpt lat="45.31841" lon="6.04507">
        <ele>1556.6</ele>
        <time>2021-01-16T09:00:26Z</time>
      </trkpt>
      <trkpt lat="45.31841" lon="6.04508">
        <ele>1556.6</ele>
        <time>2021-01-16T09:00:27Z</time>
      </trkpt>
      <trkpt lat="45.31842" lon="6.04509">
        <ele>1556.8</ele>
        <time>2021-01-16T09:00:28Z</time>
      </trkpt>
      <trkpt lat="45.31843" lon="6.0451">
        <ele>1557</ele>
        <time>2021-01-16T09:00:29Z</time>
      </trkpt>
      <trkpt lat="45.31843" lon="6.04511">
        <ele>1557</ele>
        <time>2021-01-16T09:00:30Z</time>
      </trkpt>
      <trkpt lat="45.31844" lon="6.04511">
        <ele>1557.4</ele>
        <time>2021-01-16T09:00:31Z</time>
      </trkpt>
      <trkpt lat="45.31844" lon="6.04512">
        <ele>1557.6</ele>
        <time>2021-01-16T09:00:32Z</time>
      </trkpt>
      <trkpt lat="45.31845" lon="6.04512">
        <ele>1557.6</ele>
        <time>2021-01-16T09:00:33Z</time>
      </trkpt>
      <trkpt lat="45.31845" lon="6.04513">
        <ele>1558</ele>
        <time>2021-01-16T09:00:34Z</time>
      </trkpt>
      <trkpt lat="45.31846" lon="6.04514">
        <ele>1558</ele>
        <time>2021-01-16T09:00:35Z</time>
      </trkpt>
      <trkpt lat="45.31846" lon="6.04515">
        <ele>1558.2</ele>
        <time>2021-01-16T09:00:36Z</time>
      </trkpt>
      <trkpt lat="45.31847" lon="6.04515">
        <ele>1558.6</ele>
        <time>2021-01-16T09:00:37Z</time>
      </trkpt>
      <trkpt lat="45.31847" lon="6.04516">
        <ele>1558.6</ele>
        <time>2021-01-16T09:00:38Z</time>
      </trkpt>
      <trkpt lat="45.31848" lon="6.04516">
        <ele>1558.8</ele>
        <time>2021-01-16T09:00:39Z</time>
      </trkpt>
      <trkpt lat="45.31848" lon="6.04517">
        <ele>1559</ele>
        <time>2021-01-16T09:00:40Z</time>
      </trkpt>
      <trkpt lat="45.31849" lon="6.04518">
        <ele>1559</ele>
        <time>2021-01-16T09:00:41Z</time>
      </trkpt>
      <trkpt lat="45.31849" lon="6.04519">
        <ele>1559.2</ele>
        <time>2021-01-16T09:00:42Z</time>
      </trkpt>
      <trkpt lat="45.3185" lon="6.04519">
        <ele>1559.8</ele>
        <time>2021-01-16T09:00:43Z</time>
      </trkpt>
      <trkpt lat="45.31851" lon="6.0452">
        <ele>1559.8</ele>
        <time>2021-01-16T09:00:44Z</time>
      </trkpt>
      <trkpt lat="45.31851" lon="6.04521">
        <ele>1560.2</ele>
        <time>2021-01-16T09:00:45Z</time>
      </trkpt>
      <trkpt lat="45.31851" lon="6.04521">
        <ele>1560.4</ele>
        <time>2021-01-16T09:00:46Z</time>
      </trkpt>
      <trkpt lat="45.31852" lon="6.04522">
        <ele>1560.4</ele>
        <time>2021-01-16T09:00:47Z</time>
      </trkpt>
      <trkpt lat="45.31852" lon="6.04523">
        <ele>1560.6</ele>
        <time>2021-01-16T09:00:48Z</time>
      </trkpt>
      <trkpt lat="45.31852" lon="6.04524">
        <ele>1560.8</ele>
        <time>2021-01-16T09:00:49Z</time>
      </trkpt>
      <trkpt lat="45.31852" lon="6.04525">
        <ele>1561</ele>
        <time>2021-01-16T09:00:50Z</time>
      </trkpt>
      <trkpt lat="45.31853" lon="6.04526">
        <ele>1561.2</ele>
        <time>2021-01-16T09:00:51Z</time>
      </trkpt>
      <trkpt lat="45.31854" lon="6.04527">
        <ele>1561.4</ele>
        <time>2021-01-16T09:00:52Z</time>
      </trkpt>
      <trkpt lat="45.31854" lon="6.04528">
        <ele>1561.4</ele>
        <time>2021-01-16T09:00:53Z</time>
      </trkpt>
      <trkpt lat="45.31854" lon="6.04529">
        <ele>1561.6</ele>
        <time>2021-01-16T09:00:54Z</time>
      </trkpt>
      <trkpt lat="45.31855" lon="6.0453">
        <ele>1561.8</ele>
        <time>2021-01-16T09:00:55Z</time>
      </trkpt>
      <trkpt lat="45.31855" lon="6.0453">
        <ele>1562</ele>
        <time>2021-01-16T09:00:56Z</time>
      </trkpt>
      <trkpt lat="45.31856" lon="6.04531">
        <ele>1562.2</ele>
        <time>2021-01-16T09:00:57Z</time>
      </trkpt>
      <trkpt lat="45.31856" lon="6.04532">
        <ele>1562.2</ele>
        <time>2021-01-16T09:00:58Z</time>
      </trkpt>
      <trkpt lat="45.31856" lon="6.04533">
        <ele>1562.4</ele>
        <time>2021-01-16T09:00:59Z</time>
      </trkpt>
      <trkpt lat="45.31856" lon="6.04533">
        <ele>1562.6</ele>
        <time>2021-01-16T09:01:00Z</time>
      </trkpt>
      <trkpt lat="45.31857" lon="6.04534">
        <ele>1562.8</ele>
        <time>2021-01-16T09:01:01Z</time>
      </trkpt>
      <trkpt lat="45.31857" lon="6.04534">
        <ele>1563.2</ele>
        <time>2021-01-16T09:01:02Z</time>
      </trkpt>
      <trkpt lat="45.31858" lon="6.04535">
        <ele>1563.2</ele>
        <time>2021-01-16T09:01:03Z</time>
      </trkpt>
      <trkpt lat="45.31858" lon="6.04536">
        <ele>1563.6</ele>
        <time>2021-01-16T09:01:04Z</time>
      </trkpt>
      <trkpt lat="45.31859" lon="6.04536">
        <ele>1563.8</ele>
        <time>2021-01-16T09:01:05Z</time>
      </trkpt>
      <trkpt lat="45.31859" lon="6.04537">
        <ele>1564</ele>
        <time>2021-01-16T09:01:06Z</time>
      </trkpt>
      <trkpt lat="45.31859" lon="6.04538">
        <ele>1564.2</ele>
        <time>2021-01-16T09:01:07Z</time>
      </trkpt>
      <trkpt lat="45.31859" lon="6.04538">
        <ele>1564.2</ele>
        <time>2021-01-16T09:01:08Z</time>
      </trkpt>
      <trkpt lat="45.3186" lon="6.04539">
        <ele>1564.4</ele>
        <time>2021-01-16T09:01:09Z</time>
      </trkpt>
      <trkpt lat="45.3186" lon="6.0454">
        <ele>1564.6</ele>
        <time>2021-01-16T09:01:10Z</time>
      </trkpt>
      <trkpt lat="45.3186" lon="6.0454">
        <ele>1564.8</ele>
        <time>2021-01-16T09:01:11Z</time>
      </trkpt>
      <trkpt lat="45.3186" lon="6.0454">
        <ele>1565</ele>
        <time>2021-01-16T09:01:12Z</time>
      </trkpt>
      <trkpt lat="45.3186" lon="6.0454">
        <ele>1565.2</ele>
        <time>2021-01-16T09:01:13Z</time>
      </trkpt>
      <trkpt lat="45.3186" lon="6.0454">
        <ele>1565.4</ele>
        <time>2021-01-16T09:01:14Z</time>
      </trkpt>
      <trkpt lat="45.31861" lon="6.04541">
        <ele>1565.6</ele>
        <time>2021-01-16T09:01:15Z</time>
      </trkpt>
      <trkpt lat="45.31862" lon="6.04543">
        <ele>1565.8</ele>
        <time>2021-01-16T09:01:16Z</time>
      </trkpt>
      <trkpt lat="45.31862" lon="6.04544">
        <ele>1566</ele>
        <time>2021-01-16T09:01:17Z</time>
      </trkpt>
      <trkpt lat="45.31863" lon="6.04545">
        <ele>1566</ele>
        <time>2021-01-16T09:01:18Z</time>
      </trkpt>
      <trkpt lat="45.31864" lon="6.04546">
        <ele>1566.4</ele>
        <time>2021-01-16T09:01:19Z</time>
      </trkpt>
      <trkpt lat="45.31864" lon="6.04547">
        <ele>1566.4</ele>
        <time>2021-01-16T09:01:20Z</time>
      </trkpt>
      <trkpt lat="45.31865" lon="6.04547">
        <ele>1566.6</ele>
        <time>2021-01-16T09:01:21Z</time>
      </trkpt>
      <trkpt lat="45.31865" lon="6.04548">
        <ele>1566.8</ele>
        <time>2021-01-16T09:01:22Z</time>
      </trkpt>
      <trkpt lat="45.31865" lon="6.04549">
        <ele>1567</ele>
        <time>2021-01-16T09:01:23Z</time>
      </trkpt>
      <trkpt lat="45.31866" lon="6.0455">
        <ele>1567.2</ele>
        <time>2021-01-16T09:01:24Z</time>
      </trkpt>
      <trkpt lat="45.31867" lon="6.0455">
        <ele>1567.4</ele>
        <time>2021-01-16T09:01:25Z</time>
      </trkpt>
      <trkpt lat="45.31867" lon="6.04551">
        <ele>1567.4</ele>
        <time>2021-01-16T09:01:26Z</time>
      </trkpt>
      <trkpt lat="45.31868" lon="6.04551">
        <ele>1567.8</ele>
        <time>2021-01-16T09:01:27Z</time>
      </trkpt>
      <trkpt lat="45.31868" lon="6.04552">
        <ele>1567.8</ele>
        <time>2021-01-16T09:01:28Z</time>
      </trkpt>
      <trkpt lat="45.31869" lon="6.04552">
        <ele>1568</ele>
        <time>2021-01-16T09:01:29Z</time>
      </trkpt>
      <trkpt lat="45.31869" lon="6.04553">
        <ele>1568.2</ele>
        <time>2021-01-16T09:01:30Z</time>
      </trkpt>
      <trkpt lat="45.3187" lon="6.04554">
        <ele>1568.4</ele>
        <time>2021-01-16T09:01:31Z</time>
      </trkpt>
      <trkpt lat="45.3187" lon="6.04555">
        <ele>1568.6</ele>
        <time>2021-01-16T09:01:32Z</time>
      </trkpt>
      <trkpt lat="45.31871" lon="6.04556">
        <ele>1568.6</ele>
        <time>2021-01-16T09:01:33Z</time>
      </trkpt>
      <trkpt lat="45.31871" lon="6.04557">
        <ele>1568.8</ele>
        <time>2021-01-16T09:01:34Z</time>
      </trkpt>
      <trkpt lat="45.31871" lon="6.04558">
        <ele>1569</ele>
        <time>2021-01-16T09:01:35Z</time>
      </trkpt>
      <trkpt lat="45.31872" lon="6.04559">
        <ele>1569.2</ele>
        <time>2021-01-16T09:01:36Z</time>
      </trkpt>
      <trkpt lat="45.31872" lon="6.0456">
        <ele>1569.4</ele>
        <time>2021-01-16T09:01:37Z</time>
      </trkpt>
      <trkpt lat="45.31872" lon="6.0456">
        <ele>1569.6</ele>
        <time>2021-01-16T09:01:38Z</time>
      </trkpt>
      <trkpt lat="45.31873" lon="6.04561">
        <ele>1569.6</ele>
        <time>2021-01-16T09:01:39Z</time>
      </trkpt>
      <trkpt lat="45.31873" lon="6.04562">
        <ele>1569.6</ele>
        <time>2021-01-16T09:01:40Z</time>
      </trkpt>
      <trkpt lat="45.31873" lon="6.04563">
        <ele>1570</ele>
        <time>2021-01-16T09:01:41Z</time>
      </trkpt>
      <trkpt lat="45.31874" lon="6.04564">
        <ele>1570</ele>
        <time>2021-01-16T09:01:42Z</time>
      </trkpt>
      <trkpt lat="45.31874" lon="6.04565">
        <ele>1570</ele>
        <time>2021-01-16T09:01:43Z</time>
      </trkpt>
      <trkpt lat="45.31874" lon="6.04565">
        <ele>1570.2</ele>
        <time>2021-01-16T09:01:44Z</time>
      </trkpt>
      <trkpt lat="45.31874" lon="6.04565">
        <ele>1570.2</ele>
        <time>2021-01-16T09:01:45Z</time>
      </trkpt>
      <trkpt lat="45.31874" lon="6.04565">
        <ele>1570.2</ele>
        <time>2021-01-16T09:01:46Z</time>
      </trkpt>
      <trkpt lat="45.31874" lon="6.04565">
        <ele>1570.2</ele>
        <time>2021-01-16T09:01:47Z</time>
      </trkpt>
      <trkpt lat="45.31874" lon="6.04565">
        <ele>1570.2</ele>
        <time>2021-01-16T09:01:48Z</time>
      </trkpt>
      <trkpt lat="45.31874" lon="6.04565">
        <ele>1570.2</ele>
        <time>2021-01-16T09:01:49Z</time>
      </trkpt>
      <trkpt lat="45.31874" lon="6.04565">
        <ele>1570.2</ele>
        <time>2021-01-16T09:01:50Z</time>
      </trkpt>
      <trkpt lat="45.31874" lon="6.04565">
        <ele>1570.2</ele>
        <time>2021-01-16T09:01:51Z</time>
      </trkpt>
      <trkpt lat="45.31874" lon="6.04565">
        <ele>1570.2</ele>
        <time>2021-01-16T09:01:52Z</time>
      </trkpt>
      <trkpt lat="45.31874" lon="6.04565">
        <ele>1570.2</ele>
        <time>2021-01-16T09:01:53Z</time>
      </trkpt>
      <trkpt lat="45.31874" lon="6.04565">
        <ele>1570.2</ele>
        <time>2021-01-16T09:01:54Z</time>
      </trkpt>
      <trkpt lat="45.31874" lon="6.04565">
        <ele>1570.2</ele>
        <time>2021-01-16T09:01:55Z</time>
      </trkpt>
      <trkpt lat="45.31874" lon="6.04565">
        <ele>1570.2</ele>
        <time>2021-01-16T09:01:56Z</time>
      </trkpt>
      <trkpt lat="45.31874" lon="6.04565">
        <ele>1570.2</ele>
        <time>2021-01-16T09:01:57Z</time>
      </trkpt>
      <trkpt lat="45.31874" lon="6.04565">
        <ele>1570.2</ele>
        <time>2021-01-16T09:01:58Z</time>
      </trkpt>
      <trkpt lat="45.31874" lon="6.04565">
        <ele>1570.2</ele>
        <time>2021-01-16T09:01:59Z</time>
      </trkpt>
      <trkpt lat="45.31874" lon="6.04565">
        <ele>1570.2</ele>
        <time>2021-01-16T09:02:00Z</time>
      </trkpt>
      <trkpt lat="45.31874" lon="6.04565">
        <ele>1570.2</ele>
        <time>2021-01-16T09:02:01Z</time>
      </trkpt>
      <trkpt lat="45.31874" lon="6.04565">
        <ele>1570.2</ele>
        <time>2021-01-16T09:02:02Z</time>
      </trkpt>
      <trkpt lat="45.31874" lon="6.04565">
        <ele>1570.2</ele>
        <time>2021-01-16T09:02:03Z</time>
      </trkpt>
      <trkpt lat="45.31874" lon="6.04565">
        <ele>1570.2</ele>
        <time>2021-01-16T09:02:04Z</time>
      </trkpt>
      <trkpt lat="45.31874" lon="6.04565">
        <ele>1570.2</ele>
        <time>2021-01-16T09:02:05Z</time>
      </trkpt>
      <trkpt lat="45.31874" lon="6.04565">
        <ele>1570.2</ele>
        <time>2021-01-16T09:02:06Z</time>
      </trkpt>
      <trkpt lat="45.31874" lon="6.04565">
        <ele>1570.2</ele>
        <time>2021-01-16T09:02:07Z</time>
      </trkpt>
      <trkpt lat="45.31874" lon="6.04565">
        <ele>1570.2</ele>
        <time>2021-01-16T09:02:08Z</time>
      </trkpt>
      <trkpt lat="45.31874" lon="6.04565">
        <ele>1570.2</ele>
        <time>2021-01-16T09:02:09Z</time>
      </trkpt>
      <trkpt lat="45.31874" lon="6.04565">
        <ele>1570.2</ele>
        <time>2021-01-16T09:02:10Z</time>
      </trkpt>
      <trkpt lat="45.31874" lon="6.04565">
        <ele>1570.2</ele>
        <time>2021-01-16T09:02:11Z</time>
      </trkpt>
      <trkpt lat="45.31874" lon="6.04565">
        <ele>1570.2</ele>
        <time>2021-01-16T09:02:12Z</time>
      </trkpt>
      <trkpt lat="45.31874" lon="6.04565">
        <ele>1570.2</ele>
        <time>2021-01-16T09:02:13Z</time>
      </trkpt>
      <trkpt lat="45.31874" lon="6.04565">
        <ele>1570.2</ele>
        <time>2021-01-16T09:02:14Z</time>
      </trkpt>
      <trkpt lat="45.31874" lon="6.04565">
        <ele>1570.2</ele>
        <time>2021-01-16T09:02:15Z</time>
      </trkpt>
      <trkpt lat="45.31874" lon="6.04565">
        <ele>1570.2</ele>
        <time>2021-01-16T09:02:16Z</time>
      </trkpt>
      <trkpt lat="45.31874" lon="6.04565">
        <ele>1570.2</ele>
        <time>2021-01-16T09:02:17Z</time>
      </trkpt>
      <trkpt lat="45.31874" lon="6.04565">
        <ele>1570</ele>
        <time>2021-01-16T09:02:18Z</time>
      </trkpt>
      <trkpt lat="45.31874" lon="6.04565">
        <ele>1570.4</ele>
        <time>2021-01-16T09:02:19Z</time>
      </trkpt>
      <trkpt lat="45.31876" lon="6.04566">
        <ele>1570.2</ele>
        <time>2021-01-16T09:02:20Z</time>
      </trkpt>
      <trkpt lat="45.31876" lon="6.04567">
        <ele>1570.4</ele>
        <time>2021-01-16T09:02:21Z</time>
      </trkpt>
      <trkpt lat="45.31877" lon="6.04568">
        <ele>1570.4</ele>
        <time>2021-01-16T09:02:22Z</time>
      </trkpt>
      <trkpt lat="45.31878" lon="6.04569">
        <ele>1570.4</ele>
        <time>2021-01-16T09:02:23Z</time>
      </trkpt>
      <trkpt lat="45.31878" lon="6.0457">
        <ele>1570.6</ele>
        <time>2021-01-16T09:02:24Z</time>
      </trkpt>
      <trkpt lat="45.3188" lon="6.04571">
        <ele>1570.8</ele>
        <time>2021-01-16T09:02:25Z</time>
      </trkpt>
      <trkpt lat="45.3188" lon="6.04572">
        <ele>1571</ele>
        <time>2021-01-16T09:02:26Z</time>
      </trkpt>
      <trkpt lat="45.31881" lon="6.04573">
        <ele>1571</ele>
        <time>2021-01-16T09:02:27Z</time>
      </trkpt>
      <trkpt lat="45.31882" lon="6.04573">
        <ele>1571.2</ele>
        <time>2021-01-16T09:02:28Z</time>
      </trkpt>
      <trkpt lat="45.31882" lon="6.04574">
        <ele>1571.2</ele>
        <time>2021-01-16T09:02:29Z</time>
      </trkpt>
      <trkpt lat="45.31883" lon="6.04574">
        <ele>1571.4</ele>
        <time>2021-01-16T09:02:30Z</time>
      </trkpt>
      <trkpt lat="45.31883" lon="6.04575">
        <ele>1571.6</ele>
        <time>2021-01-16T09:02:31Z</time>
      </trkpt>
      <trkpt lat="45.31884" lon="6.04575">
        <ele>1571.8</ele>
        <time>2021-01-16T09:02:32Z</time>
      </trkpt>
      <trkpt lat="45.31884" lon="6.04575">
        <ele>1572</ele>
        <time>2021-01-16T09:02:33Z</time>
      </trkpt>
      <trkpt lat="45.31884" lon="6.04576">
        <ele>1572</ele>
        <time>2021-01-16T09:02:34Z</time>
      </trkpt>
      <trkpt lat="45.31884" lon="6.04576">
        <ele>1572.2</ele>
        <time>2021-01-16T09:02:35Z</time>
      </trkpt>
      <trkpt lat="45.31885" lon="6.04577">
        <ele>1572.2</ele>
        <time>2021-01-16T09:02:36Z</time>
      </trkpt>
      <trkpt lat="45.31885" lon="6.04577">
        <ele>1572.4</ele>
        <time>2021-01-16T09:02:37Z</time>
      </trkpt>
      <trkpt lat="45.31885" lon="6.04578">
        <ele>1572.6</ele>
        <time>2021-01-16T09:02:38Z</time>
      </trkpt>
      <trkpt lat="45.31885" lon="6.04579">
        <ele>1572.6</ele>
        <time>2021-01-16T09:02:39Z</time>
      </trkpt>
      <trkpt lat="45.31886" lon="6.0458">
        <ele>1572.6</ele>
        <time>2021-01-16T09:02:40Z</time>
      </trkpt>
      <trkpt lat="45.31886" lon="6.0458">
        <ele>1573</ele>
        <time>2021-01-16T09:02:41Z</time>
      </trkpt>
      <trkpt lat="45.31886" lon="6.04581">
        <ele>1573</ele>
        <time>2021-01-16T09:02:42Z</time>
      </trkpt>
      <trkpt lat="45.31887" lon="6.04582">
        <ele>1573.4</ele>
        <time>2021-01-16T09:02:43Z</time>
      </trkpt>
      <trkpt lat="45.31888" lon="6.04583">
        <ele>1573.6</ele>
        <time>2021-01-16T09:02:44Z</time>
      </trkpt>
      <trkpt lat="45.31888" lon="6.04584">
        <ele>1573.8</ele>
        <time>2021-01-16T09:02:45Z</time>
      </trkpt>
      <trkpt lat="45.31889" lon="6.04585">
        <ele>1574</ele>
        <time>2021-01-16T09:02:46Z</time>
      </trkpt>
      <trkpt lat="45.3189" lon="6.04585">
        <ele>1574</ele>
        <time>2021-01-16T09:02:47Z</time>
      </trkpt>
      <trkpt lat="45.3189" lon="6.04586">
        <ele>1574.2</ele>
        <time>2021-01-16T09:02:48Z</time>
      </trkpt>
      <trkpt lat="45.31891" lon="6.04587">
        <ele>1574.4</ele>
        <time>2021-01-16T09:02:49Z</time>
      </trkpt>
      <trkpt lat="45.31891" lon="6.04588">
        <ele>1574.6</ele>
        <time>2021-01-16T09:02:50Z</time>
      </trkpt>
      <trkpt lat="45.31891" lon="6.04588">
        <ele>1574.6</ele>
        <time>2021-01-16T09:02:51Z</time>
      </trkpt>
      <trkpt lat="45.31892" lon="6.04589">
        <ele>1574.8</ele>
        <time>2021-01-16T09:02:52Z</time>
      </trkpt>
      <trkpt lat="45.31892" lon="6.04589">
        <ele>1575</ele>
        <time>2021-01-16T09:02:53Z</time>
      </trkpt>
      <trkpt lat="45.31892" lon="6.0459">
        <ele>1575.2</ele>
        <time>2021-01-16T09:02:54Z</time>
      </trkpt>
      <trkpt lat="45.31893" lon="6.04591">
        <ele>1575.4</ele>
        <time>2021-01-16T09:02:55Z</time>
      </trkpt>
      <trkpt lat="45.31893" lon="6.04592">
        <ele>1575.4</ele>
        <time>2021-01-16T09:02:56Z</time>
      </trkpt>
      <trkpt lat="45.31893" lon="6.04593">
        <ele>1575.8</ele>
        <time>2021-01-16T09:02:57Z</time>
      </trkpt>
      <trkpt lat="45.31894" lon="6.04594">
        <ele>1576</ele>
        <time>2021-01-16T09:02:58Z</time>
      </trkpt>
      <trkpt lat="45.31894" lon="6.04596">
        <ele>1576</ele>
        <time>2021-01-16T09:02:59Z</time>
      </trkpt>
      <trkpt lat="45.31894" lon="6.04597">
        <ele>1576.2</ele>
        <time>2021-01-16T09:03:00Z</time>
      </trkpt>
      <trkpt lat="45.31895" lon="6.04597">
        <ele>1576.4</ele>
        <time>2021-01-16T09:03:01Z</time>
      </trkpt>
      <trkpt lat="45.31895" lon="6.04599">
        <ele>1576.4</ele>
        <time>2021-01-16T09:03:02Z</time>
      </trkpt>
      <trkpt lat="45.31895" lon="6.046">
        <ele>1576.6</ele>
        <time>2021-01-16T09:03:03Z</time>
      </trkpt>
      <trkpt lat="45.31896" lon="6.046">
        <ele>1576.8</ele>
        <time>2021-01-16T09:03:04Z</time>
      </trkpt>
      <trkpt lat="45.31896" lon="6.04601">
        <ele>1576.8</ele>
        <time>2021-01-16T09:03:05Z</time>
      </trkpt>
      <trkpt lat="45.31896" lon="6.04602">
        <ele>1577</ele>
        <time>2021-01-16T09:03:06Z</time>
      </trkpt>
      <trkpt lat="45.31897" lon="6.04603">
        <ele>1577</ele>
        <time>2021-01-16T09:03:07Z</time>
      </trkpt>
      <trkpt lat="45.31897" lon="6.04604">
        <ele>1577.2</ele>
        <time>2021-01-16T09:03:08Z</time>
      </trkpt>
      <trkpt lat="45.31897" lon="6.04605">
        <ele>1577.4</ele>
        <time>2021-01-16T09:03:09Z</time>
      </trkpt>
      <trkpt lat="45.31898" lon="6.04606">
        <ele>1577.6</ele>
        <time>2021-01-16T09:03:10Z</time>
      </trkpt>
      <trkpt lat="45.31898" lon="6.04607">
        <ele>1577.6</ele>
        <time>2021-01-16T09:03:11Z</time>
      </trkpt>
      <trkpt lat="45.31899" lon="6.04608">
        <ele>1577.8</ele>
        <time>2021-01-16T09:03:12Z</time>
      </trkpt>
      <trkpt lat="45.31899" lon="6.04609">
        <ele>1578</ele>
        <time>2021-01-16T09:03:13Z</time>
      </trkpt>
      <trkpt lat="45.319" lon="6.0461">
        <ele>1578</ele>
        <time>2021-01-16T09:03:14Z</time>
      </trkpt>
      <trkpt lat="45.319" lon="6.04611">
        <ele>1578.2</ele>
        <time>2021-01-16T09:03:15Z</time>
      </trkpt>
      <trkpt lat="45.31901" lon="6.04612">
        <ele>1578.4</ele>
        <time>2021-01-16T09:03:16Z</time>
      </trkpt>
      <trkpt lat="45.31901" lon="6.04613">
        <ele>1578.4</ele>
        <time>2021-01-16T09:03:17Z</time>
      </trkpt>
      <trkpt lat="45.31901" lon="6.04614">
        <ele>1578.8</ele>
        <time>2021-01-16T09:03:18Z</time>
      </trkpt>
      <trkpt lat="45.31902" lon="6.04614">
        <ele>1578.8</ele>
        <time>2021-01-16T09:03:19Z</time>
      </trkpt>
      <trkpt lat="45.31902" lon="6.04615">
        <ele>1578.8</ele>
        <time>2021-01-16T09:03:20Z</time>
      </trkpt>
      <trkpt lat="45.31903" lon="6.04616">
        <ele>1579</ele>
        <time>2021-01-16T09:03:21Z</time>
      </trkpt>
      <trkpt lat="45.31903" lon="6.04617">
        <ele>1579.2</ele>
        <time>2021-01-16T09:03:22Z</time>
      </trkpt>
      <trkpt lat="45.31903" lon="6.04618">
        <ele>1579.4</ele>
        <time>2021-01-16T09:03:23Z</time>
      </trkpt>
      <trkpt lat="45.31904" lon="6.04619">
        <ele>1579.6</ele>
        <time>2021-01-16T09:03:24Z</time>
      </trkpt>
      <trkpt lat="45.31904" lon="6.0462">
        <ele>1579.8</ele>
        <time>2021-01-16T09:03:25Z</time>
      </trkpt>
      <trkpt lat="45.31905" lon="6.0462">
        <ele>1580</ele>
        <time>2021-01-16T09:03:26Z</time>
      </trkpt>
      <trkpt lat="45.31905" lon="6.04621">
        <ele>1580.2</ele>
        <time>2021-01-16T09:03:27Z</time>
      </trkpt>
      <trkpt lat="45.31906" lon="6.04622">
        <ele>1580.4</ele>
        <time>2021-01-16T09:03:28Z</time>
      </trkpt>
      <trkpt lat="45.31907" lon="6.04622">
        <ele>1580.4</ele>
        <time>2021-01-16T09:03:29Z</time>
      </trkpt>
      <trkpt lat="45.31907" lon="6.04623">
        <ele>1580.8</ele>
        <time>2021-01-16T09:03:30Z</time>
      </trkpt>
      <trkpt lat="45.31908" lon="6.04624">
        <ele>1580.8</ele>
        <time>2021-01-16T09:03:31Z</time>
      </trkpt>
      <trkpt lat="45.31908" lon="6.04625">
        <ele>1581</ele>
        <time>2021-01-16T09:03:32Z</time>
      </trkpt>
      <trkpt lat="45.31909" lon="6.04626">
        <ele>1581.2</ele>
        <time>2021-01-16T09:03:33Z</time>
      </trkpt>
      <trkpt lat="45.31909" lon="6.04626">
        <ele>1581.2</ele>
        <time>2021-01-16T09:03:34Z</time>
      </trkpt>
      <trkpt lat="45.3191" lon="6.04627">
        <ele>1581.4</ele>
        <time>2021-01-16T09:03:35Z</time>
      </trkpt>
      <trkpt lat="45.3191" lon="6.04628">
        <ele>1581.6</ele>
        <time>2021-01-16T09:03:36Z</time>
      </trkpt>
      <trkpt lat="45.31911" lon="6.04629">
        <ele>1581.8</ele>
        <time>2021-01-16T09:03:37Z</time>
      </trkpt>
      <trkpt lat="45.31912" lon="6.0463">
        <ele>1582</ele>
        <time>2021-01-16T09:03:38Z</time>
      </trkpt>
      <trkpt lat="45.31912" lon="6.04631">
        <ele>1582.2</ele>
        <time>2021-01-16T09:03:39Z</time>
      </trkpt>
      <trkpt lat="45.31912" lon="6.04632">
        <ele>1582.2</ele>
        <time>2021-01-16T09:03:40Z</time>
      </trkpt>
      <trkpt lat="45.31913" lon="6.04633">
        <ele>1582.4</ele>
        <time>2021-01-16T09:03:41Z</time>
      </trkpt>
      <trkpt lat="45.31913" lon="6.04634">
        <ele>1582.6</ele>
        <time>2021-01-16T09:03:42Z</time>
      </trkpt>
      <trkpt lat="45.31913" lon="6.04635">
        <ele>1582.6</ele>
        <time>2021-01-16T09:03:43Z</time>
      </trkpt>
      <trkpt lat="45.31914" lon="6.04636">
        <ele>1582.8</ele>
        <time>2021-01-16T09:03:44Z</time>
      </trkpt>
      <trkpt lat="45.31914" lon="6.04637">
        <ele>1583</ele>
        <time>2021-01-16T09:03:45Z</time>
      </trkpt>
      <trkpt lat="45.31914" lon="6.04638">
        <ele>1583.2</ele>
        <time>2021-01-16T09:03:46Z</time>
      </trkpt>
      <trkpt lat="45.31914" lon="6.04639">
        <ele>1583.4</ele>
        <time>2021-01-16T09:03:47Z</time>
      </trkpt>
      <trkpt lat="45.31915" lon="6.0464">
        <ele>1583.6</ele>
        <time>2021-01-16T09:03:48Z</time>
      </trkpt>
      <trkpt lat="45.31915" lon="6.04641">
        <ele>1583.8</ele>
        <time>2021-01-16T09:03:49Z</time>
      </trkpt>
      <trkpt lat="45.31915" lon="6.04642">
        <ele>1583.8</ele>
        <time>2021-01-16T09:03:50Z</time>
      </trkpt>
      <trkpt lat="45.31915" lon="6.04642">
        <ele>1584</ele>
        <time>2021-01-16T09:03:51Z</time>
      </trkpt>
      <trkpt lat="45.31916" lon="6.04643">
        <ele>1584.2</ele>
        <time>2021-01-16T09:03:52Z</time>
      </trkpt>
      <trkpt lat="45.31916" lon="6.04644">
        <ele>1584.4</ele>
        <time>2021-01-16T09:03:53Z</time>
      </trkpt>
      <trkpt lat="45.31916" lon="6.04645">
        <ele>1584.4</ele>
        <time>2021-01-16T09:03:54Z</time>
      </trkpt>
      <trkpt lat="45.31917" lon="6.04646">
        <ele>1584.8</ele>
        <time>2021-01-16T09:03:55Z</time>
      </trkpt>
      <trkpt lat="45.31917" lon="6.04647">
        <ele>1584.8</ele>
        <time>2021-01-16T09:03:56Z</time>
      </trkpt>
      <trkpt lat="45.31917" lon="6.04648">
        <ele>1585.2</ele>
        <time>2021-01-16T09:03:57Z</time>
      </trkpt>
      <trkpt lat="45.31917" lon="6.04649">
        <ele>1585.2</ele>
        <time>2021-01-16T09:03:58Z</time>
      </trkpt>
      <trkpt lat="45.31917" lon="6.0465">
        <ele>1585.4</ele>
        <time>2021-01-16T09:03:59Z</time>
      </trkpt>
      <trkpt lat="45.31917" lon="6.04651">
        <ele>1585.6</ele>
        <time>2021-01-16T09:04:00Z</time>
      </trkpt>
      <trkpt lat="45.31917" lon="6.04652">
        <ele>1585.8</ele>
        <time>2021-01-16T09:04:01Z</time>
      </trkpt>
      <trkpt lat="45.31917" lon="6.04653">
        <ele>1586</ele>
        <time>2021-01-16T09:04:02Z</time>
      </trkpt>
      <trkpt lat="45.31918" lon="6.04654">
        <ele>1586.2</ele>
        <time>2021-01-16T09:04:03Z</time>
      </trkpt>
      <trkpt lat="45.31918" lon="6.04655">
        <ele>1586.4</ele>
        <time>2021-01-16T09:04:04Z</time>
      </trkpt>
      <trkpt lat="45.31918" lon="6.04656">
        <ele>1586.4</ele>
        <time>2021-01-16T09:04:05Z</time>
      </trkpt>
      <trkpt lat="45.31918" lon="6.04657">
        <ele>1586.8</ele>
        <time>2021-01-16T09:04:06Z</time>
      </trkpt>
      <trkpt lat="45.31918" lon="6.04659">
        <ele>1586.8</ele>
        <time>2021-01-16T09:04:07Z</time>
      </trkpt>
      <trkpt lat="45.31918" lon="6.0466">
        <ele>1587</ele>
        <time>2021-01-16T09:04:08Z</time>
      </trkpt>
      <trkpt lat="45.31918" lon="6.04661">
        <ele>1587</ele>
        <time>2021-01-16T09:04:09Z</time>
      </trkpt>
      <trkpt lat="45.31917" lon="6.04662">
        <ele>1587.2</ele>
        <time>2021-01-16T09:04:10Z</time>
      </trkpt>
      <trkpt lat="45.31917" lon="6.04663">
        <ele>1587.4</ele>
        <time>2021-01-16T09:04:11Z</time>
      </trkpt>
      <trkpt lat="45.31917" lon="6.04664">
        <ele>1587.6</ele>
        <time>2021-01-16T09:04:12Z</time>
      </trkpt>
      <trkpt lat="45.31917" lon="6.04665">
        <ele>1587.8</ele>
        <time>2021-01-16T09:04:13Z</time>
      </trkpt>
      <trkpt lat="45.31916" lon="6.04666">
        <ele>1588</ele>
        <time>2021-01-16T09:04:14Z</time>
      </trkpt>
      <trkpt lat="45.31916" lon="6.04667">
        <ele>1588</ele>
        <time>2021-01-16T09:04:15Z</time>
      </trkpt>
      <trkpt lat="45.31916" lon="6.04668">
        <ele>1588.2</ele>
        <time>2021-01-16T09:04:16Z</time>
      </trkpt>
      <trkpt lat="45.31915" lon="6.04669">
        <ele>1588.4</ele>
        <time>2021-01-16T09:04:17Z</time>
      </trkpt>
      <trkpt lat="45.31915" lon="6.0467">
        <ele>1588.6</ele>
        <time>2021-01-16T09:04:18Z</time>
      </trkpt>
      <trkpt lat="45.31915" lon="6.04671">
        <ele>1588.6</ele>
        <time>2021-01-16T09:04:19Z</time>
      </trkpt>
      <trkpt lat="45.31914" lon="6.04672">
        <ele>1588.8</ele>
        <time>2021-01-16T09:04:20Z</time>
      </trkpt>
      <trkpt lat="45.31913" lon="6.04672">
        <ele>1589</ele>
        <time>2021-01-16T09:04:21Z</time>
      </trkpt>
      <trkpt lat="45.31913" lon="6.04673">
        <ele>1589.2</ele>
        <time>2021-01-16T09:04:22Z</time>
      </trkpt>
      <trkpt lat="45.31913" lon="6.04674">
        <ele>1589.4</ele>
        <time>2021-01-16T09:04:23Z</time>
      </trkpt>
      <trkpt lat="45.31912" lon="6.04674">
        <ele>1589.6</ele>
        <time>2021-01-16T09:04:24Z</time>
      </trkpt>
      <trkpt lat="45.31912" lon="6.04675">
        <ele>1589.8</ele>
        <time>2021-01-16T09:04:25Z</time>
      </trkpt>
      <trkpt lat="45.31911" lon="6.04676">
        <ele>1590</ele>
        <time>2021-01-16T09:04:26Z</time>
      </trkpt>
      <trkpt lat="45.31911" lon="6.04676">
        <ele>1590</ele>
        <time>2021-01-16T09:04:27Z</time>
      </trkpt>
      <trkpt lat="45.3191" lon="6.04677">
        <ele>1590.2</ele>
        <time>2021-01-16T09:04:28Z</time>
      </trkpt>
      <trkpt lat="45.3191" lon="6.04677">
        <ele>1590.4</ele>
        <time>2021-01-16T09:04:29Z</time>
      </trkpt>
      <trkpt lat="45.31909" lon="6.04678">
        <ele>1590.6</ele>
        <time>2021-01-16T09:04:30Z</time>
      </trkpt>
      <trkpt lat="45.31909" lon="6.04678">
        <ele>1590.8</ele>
        <time>2021-01-16T09:04:31Z</time>
      </trkpt>
      <trkpt lat="45.31908" lon="6.04679">
        <ele>1591</ele>
        <time>2021-01-16T09:04:32Z</time>
      </trkpt>
      <trkpt lat="45.31908" lon="6.04679">
        <ele>1591</ele>
        <time>2021-01-16T09:04:33Z</time>
      </trkpt>
      <trkpt lat="45.31907" lon="6.0468">
        <ele>1591.4</ele>
        <time>2021-01-16T09:04:34Z</time>
      </trkpt>
      <trkpt lat="45.31906" lon="6.0468">
        <ele>1591.6</ele>
        <time>2021-01-16T09:04:35Z</time>
      </trkpt>
      <trkpt lat="45.31906" lon="6.04681">
        <ele>1591.6</ele>
        <time>2021-01-16T09:04:36Z</time>
      </trkpt>
      <trkpt lat="45.31906" lon="6.04681">
        <ele>1591.8</ele>
        <time>2021-01-16T09:04:37Z</time>
      </trkpt>
      <trkpt lat="45.31906" lon="6.04681">
        <ele>1591.8</ele>
        <time>2021-01-16T09:04:38Z</time>
      </trkpt>
      <trkpt lat="45.31906" lon="6.04681">
        <ele>1591.8</ele>
        <time>2021-01-16T09:04:39Z</time>
      </trkpt>
      <trkpt lat="45.31906" lon="6.04681">
        <ele>1592</ele>
        <time>2021-01-16T09:04:40Z</time>
      </trkpt>
      <trkpt lat="45.31906" lon="6.04681">
        <ele>1592</ele>
        <time>2021-01-16T09:04:41Z</time>
      </trkpt>
      <trkpt lat="45.31906" lon="6.04681">
        <ele>1591.8</ele>
        <time>2021-01-16T09:04:42Z</time>
      </trkpt>
      <trkpt lat="45.31906" lon="6.04681">
        <ele>1592</ele>
        <time>2021-01-16T09:04:43Z</time>
      </trkpt>
      <trkpt lat="45.31906" lon="6.04681">
        <ele>1592</ele>
        <time>2021-01-16T09:04:44Z</time>
      </trkpt>
      <trkpt lat="45.31906" lon="6.04681">
        <ele>1592</ele>
        <time>2021-01-16T09:04:45Z</time>
      </trkpt>
      <trkpt lat="45.31906" lon="6.04681">
        <ele>1592</ele>
        <time>2021-01-16T09:04:46Z</time>
      </trkpt>
      <trkpt lat="45.31906" lon="6.04681">
        <ele>1592</ele>
        <time>2021-01-16T09:04:47Z</time>
      </trkpt>
      <trkpt lat="45.31906" lon="6.04681">
        <ele>1592</ele>
        <time>2021-01-16T09:04:48Z</time>
      </trkpt>
      <trkpt lat="45.31906" lon="6.04681">
        <ele>1592.2</ele>
        <time>2021-01-16T09:04:49Z</time>
      </trkpt>
      <trkpt lat="45.31905" lon="6.04681">
        <ele>1592.2</ele>
        <time>2021-01-16T09:04:50Z</time>
      </trkpt>
      <trkpt lat="45.31904" lon="6.04683">
        <ele>1592.4</ele>
        <time>2021-01-16T09:04:51Z</time>
      </trkpt>
      <trkpt lat="45.31903" lon="6.04684">
        <ele>1592.6</ele>
        <time>2021-01-16T09:04:52Z</time>
      </trkpt>
      <trkpt lat="45.31903" lon="6.04685">
        <ele>1592.8</ele>
        <time>2021-01-16T09:04:53Z</time>
      </trkpt>
      <trkpt lat="45.31902" lon="6.04685">
        <ele>1593</ele>
        <time>2021-01-16T09:04:54Z</time>
      </trkpt>
      <trkpt lat="45.31902" lon="6.04686">
        <ele>1593</ele>
        <time>2021-01-16T09:04:55Z</time>
      </trkpt>
      <trkpt lat="45.31901" lon="6.04686">
        <ele>1593.4</ele>
        <time>2021-01-16T09:04:56Z</time>
      </trkpt>
      <trkpt lat="45.319" lon="6.04687">
        <ele>1593.4</ele>
        <time>2021-01-16T09:04:57Z</time>
      </trkpt>
      <trkpt lat="45.319" lon="6.04687">
        <ele>1593.6</ele>
        <time>2021-01-16T09:04:58Z</time>
      </trkpt>
      <trkpt lat="45.31899" lon="6.04688">
        <ele>1594</ele>
        <time>2021-01-16T09:04:59Z</time>
      </trkpt>
      <trkpt lat="45.31898" lon="6.04689">
        <ele>1594</ele>
        <time>2021-01-16T09:05:00Z</time>
      </trkpt>
      <trkpt lat="45.31898" lon="6.04689">
        <ele>1594.2</ele>
        <time>2021-01-16T09:05:01Z</time>
      </trkpt>
      <trkpt lat="45.31897" lon="6.0469">
        <ele>1594.4</ele>
        <time>2021-01-16T09:05:02Z</time>
      </trkpt>
      <trkpt lat="45.31897" lon="6.04691">
        <ele>1594.6</ele>
        <time>2021-01-16T09:05:03Z</time>
      </trkpt>
      <trkpt lat="45.31897" lon="6.04692">
        <ele>1595</ele>
        <time>2021-01-16T09:05:04Z</time>
      </trkpt>
      <trkpt lat="45.31897" lon="6.04693">
        <ele>1595.2</ele>
        <time>2021-01-16T09:05:05Z</time>
      </trkpt>
      <trkpt lat="45.31897" lon="6.04694">
        <ele>1595.2</ele>
        <time>2021-01-16T09:05:06Z</time>
      </trkpt>
      <trkpt lat="45.31897" lon="6.04695">
        <ele>1595.6</ele>
        <time>2021-01-16T09:05:07Z</time>
      </trkpt>
      <trkpt lat="45.31897" lon="6.04696">
        <ele>1595.6</ele>
        <time>2021-01-16T09:05:08Z</time>
      </trkpt>
      <trkpt lat="45.31898" lon="6.04696">
        <ele>1596</ele>
        <time>2021-01-16T09:05:09Z</time>
      </trkpt>
      <trkpt lat="45.31899" lon="6.04697">
        <ele>1596.2</ele>
        <time>2021-01-16T09:05:10Z</time>
      </trkpt>
      <trkpt lat="45.31899" lon="6.04698">
        <ele>1596.2</ele>
        <time>2021-01-16T09:05:11Z</time>
      </trkpt>
      <trkpt lat="45.31899" lon="6.04699">
        <ele>1596.4</ele>
        <time>2021-01-16T09:05:12Z</time>
      </trkpt>
      <trkpt lat="45.319" lon="6.047">
        <ele>1596.6</ele>
        <time>2021-01-16T09:05:13Z</time>
      </trkpt>
      <trkpt lat="45.319" lon="6.04701">
        <ele>1596.8</ele>
        <time>2021-01-16T09:05:14Z</time>
      </trkpt>
      <trkpt lat="45.31901" lon="6.04701">
        <ele>1597</ele>
        <time>2021-01-16T09:05:15Z</time>
      </trkpt>
      <trkpt lat="45.31901" lon="6.04702">
        <ele>1597.2</ele>
        <time>2021-01-16T09:05:16Z</time>
      </trkpt>
      <trkpt lat="45.31901" lon="6.04702">
        <ele>1597.2</ele>
        <time>2021-01-16T09:05:17Z</time>
      </trkpt>
      <trkpt lat="45.31901" lon="6.04702">
        <ele>1597.2</ele>
        <time>2021-01-16T09:05:18Z</time>
      </trkpt>
      <trkpt lat="45.31901" lon="6.04702">
        <ele>1597.6</ele>
        <time>2021-01-16T09:05:19Z</time>
      </trkpt>
      <trkpt lat="45.31901" lon="6.04702">
        <ele>1597.6</ele>
        <time>2021-01-16T09:05:20Z</time>
      </trkpt>
      <trkpt lat="45.31902" lon="6.04703">
        <ele>1598</ele>
        <time>2021-01-16T09:05:21Z</time>
      </trkpt>
      <trkpt lat="45.31902" lon="6.04704">
        <ele>1598</ele>
        <time>2021-01-16T09:05:22Z</time>
      </trkpt>
      <trkpt lat="45.31902" lon="6.04705">
        <ele>1598.2</ele>
        <time>2021-01-16T09:05:23Z</time>
      </trkpt>
      <trkpt lat="45.31902" lon="6.04706">
        <ele>1598.4</ele>
        <time>2021-01-16T09:05:24Z</time>
      </trkpt>
      <trkpt lat="45.31902" lon="6.04706">
        <ele>1598.6</ele>
        <time>2021-01-16T09:05:25Z</time>
      </trkpt>
      <trkpt lat="45.31902" lon="6.04707">
        <ele>1598.8</ele>
        <time>2021-01-16T09:05:26Z</time>
      </trkpt>
      <trkpt lat="45.31902" lon="6.04708">
        <ele>1599</ele>
        <time>2021-01-16T09:05:27Z</time>
      </trkpt>
      <trkpt lat="45.31901" lon="6.04708">
        <ele>1599.2</ele>
        <time>2021-01-16T09:05:28Z</time>
      </trkpt>
      <trkpt lat="45.319" lon="6.04709">
        <ele>1599.4</ele>
        <time>2021-01-16T09:05:29Z</time>
      </trkpt>
      <trkpt lat="45.319" lon="6.0471">
        <ele>1599.4</ele>
        <time>2021-01-16T09:05:30Z</time>
      </trkpt>
      <trkpt lat="45.31899" lon="6.0471">
        <ele>1599.6</ele>
        <time>2021-01-16T09:05:31Z</time>
      </trkpt>
      <trkpt lat="45.31898" lon="6.04711">
        <ele>1599.8</ele>
        <time>2021-01-16T09:05:32Z</time>
      </trkpt>
      <trkpt lat="45.31898" lon="6.04712">
        <ele>1600</ele>
        <time>2021-01-16T09:05:33Z</time>
      </trkpt>
      <trkpt lat="45.31897" lon="6.04712">
        <ele>1600.2</ele>
        <time>2021-01-16T09:05:34Z</time>
      </trkpt>
      <trkpt lat="45.31896" lon="6.04713">
        <ele>1600.4</ele>
        <time>2021-01-16T09:05:35Z</time>
      </trkpt>
      <trkpt lat="45.31896" lon="6.04714">
        <ele>1600.4</ele>
        <time>2021-01-16T09:05:36Z</time>
      </trkpt>
      <trkpt lat="45.31895" lon="6.04715">
        <ele>1600.6</ele>
        <time>2021-01-16T09:05:37Z</time>
      </trkpt>
      <trkpt lat="45.31895" lon="6.04716">
        <ele>1600.8</ele>
        <time>2021-01-16T09:05:38Z</time>
      </trkpt>
      <trkpt lat="45.31894" lon="6.04716">
        <ele>1600.8</ele>
        <time>2021-01-16T09:05:39Z</time>
      </trkpt>
      <trkpt lat="45.31893" lon="6.04717">
        <ele>1601</ele>
        <time>2021-01-16T09:05:40Z</time>
      </trkpt>
      <trkpt lat="45.31893" lon="6.04718">
        <ele>1601.2</ele>
        <time>2021-01-16T09:05:41Z</time>
      </trkpt>
      <trkpt lat="45.31892" lon="6.04718">
        <ele>1601.2</ele>
        <time>2021-01-16T09:05:42Z</time>
      </trkpt>
      <trkpt lat="45.31892" lon="6.04719">
        <ele>1601.4</ele>
        <time>2021-01-16T09:05:43Z</time>
      </trkpt>
      <trkpt lat="45.31891" lon="6.0472">
        <ele>1601.4</ele>
        <time>2021-01-16T09:05:44Z</time>
      </trkpt>
      <trkpt lat="45.31891" lon="6.0472">
        <ele>1601.6</ele>
        <time>2021-01-16T09:05:45Z</time>
      </trkpt>
      <trkpt lat="45.3189" lon="6.04721">
        <ele>1601.8</ele>
        <time>2021-01-16T09:05:46Z</time>
      </trkpt>
      <trkpt lat="45.3189" lon="6.04721">
        <ele>1602</ele>
        <time>2021-01-16T09:05:47Z</time>
      </trkpt>
      <trkpt lat="45.3189" lon="6.04721">
        <ele>1602.2</ele>
        <time>2021-01-16T09:05:48Z</time>
      </trkpt>
      <trkpt lat="45.3189" lon="6.04721">
        <ele>1602.4</ele>
        <time>2021-01-16T09:05:49Z</time>
      </trkpt>
      <trkpt lat="45.3189" lon="6.04721">
        <ele>1602.6</ele>
        <time>2021-01-16T09:05:50Z</time>
      </trkpt>
      <trkpt lat="45.3189" lon="6.04721">
        <ele>1602.8</ele>
        <time>2021-01-16T09:05:51Z</time>
      </trkpt>
      <trkpt lat="45.3189" lon="6.04721">
        <ele>1602.8</ele>
        <time>2021-01-16T09:05:52Z</time>
      </trkpt>
      <trkpt lat="45.3189" lon="6.04721">
        <ele>1603.2</ele>
        <time>2021-01-16T09:05:53Z</time>
      </trkpt>
      <trkpt lat="45.3189" lon="6.04721">
        <ele>1603.2</ele>
        <time>2021-01-16T09:05:54Z</time>
      </trkpt>
      <trkpt lat="45.3189" lon="6.04721">
        <ele>1603.6</ele>
        <time>2021-01-16T09:05:55Z</time>
      </trkpt>
      <trkpt lat="45.3189" lon="6.04721">
        <ele>1603.6</ele>
        <time>2021-01-16T09:05:56Z</time>
      </trkpt>
      <trkpt lat="45.3189" lon="6.04721">
        <ele>1604</ele>
        <time>2021-01-16T09:05:57Z</time>
      </trkpt>
      <trkpt lat="45.3189" lon="6.04721">
        <ele>1604</ele>
        <time>2021-01-16T09:05:58Z</time>
      </trkpt>
      <trkpt lat="45.3189" lon="6.04721">
        <ele>1604.2</ele>
        <time>2021-01-16T09:05:59Z</time>
      </trkpt>
      <trkpt lat="45.31889" lon="6.04722">
        <ele>1604.4</ele>
        <time>2021-01-16T09:06:00Z</time>
      </trkpt>
      <trkpt lat="45.31882" lon="6.04725">
        <ele>1604.6</ele>
        <time>2021-01-16T09:06:01Z</time>
      </trkpt>
      <trkpt lat="45.31882" lon="6.04725">
        <ele>1604.8</ele>
        <time>2021-01-16T09:06:02Z</time>
      </trkpt>
      <trkpt lat="45.31881" lon="6.04725">
        <ele>1605</ele>
        <time>2021-01-16T09:06:03Z</time>
      </trkpt>
      <trkpt lat="45.31881" lon="6.04725">
        <ele>1605</ele>
        <time>2021-01-16T09:06:04Z</time>
      </trkpt>
      <trkpt lat="45.3188" lon="6.04725">
        <ele>1605.4</ele>
        <time>2021-01-16T09:06:05Z</time>
      </trkpt>
      <trkpt lat="45.3188" lon="6.04726">
        <ele>1605.6</ele>
        <time>2021-01-16T09:06:06Z</time>
      </trkpt>
      <trkpt lat="45.31879" lon="6.04725">
        <ele>1605.6</ele>
        <time>2021-01-16T09:06:07Z</time>
      </trkpt>
      <trkpt lat="45.31878" lon="6.04726">
        <ele>1606</ele>
        <time>2021-01-16T09:06:08Z</time>
      </trkpt>
      <trkpt lat="45.31877" lon="6.04726">
        <ele>1606.2</ele>
        <time>2021-01-16T09:06:09Z</time>
      </trkpt>
      <trkpt lat="45.31876" lon="6.04725">
        <ele>1606.4</ele>
        <time>2021-01-16T09:06:10Z</time>
      </trkpt>
      <trkpt lat="45.31876" lon="6.04725">
        <ele>1606.6</ele>
        <time>2021-01-16T09:06:11Z</time>
      </trkpt>
      <trkpt lat="45.31875" lon="6.04725">
        <ele>1606.8</ele>
        <time>2021-01-16T09:06:12Z</time>
      </trkpt>
      <trkpt lat="45.31874" lon="6.04725">
        <ele>1607</ele>
        <time>2021-01-16T09:06:13Z</time>
      </trkpt>
      <trkpt lat="45.31874" lon="6.04725">
        <ele>1607.2</ele>
        <time>2021-01-16T09:06:14Z</time>
      </trkpt>
      <trkpt lat="45.31873" lon="6.04725">
        <ele>1607.2</ele>
        <time>2021-01-16T09:06:15Z</time>
      </trkpt>
      <trkpt lat="45.31872" lon="6.04725">
        <ele>1607.4</ele>
        <time>2021-01-16T09:06:16Z</time>
      </trkpt>
      <trkpt lat="45.31872" lon="6.04726">
        <ele>1607.8</ele>
        <time>2021-01-16T09:06:17Z</time>
      </trkpt>
      <trkpt lat="45.31872" lon="6.04727">
        <ele>1608</ele>
        <time>2021-01-16T09:06:18Z</time>
      </trkpt>
      <trkpt lat="45.31872" lon="6.04728">
        <ele>1608.2</ele>
        <time>2021-01-16T09:06:19Z</time>
      </trkpt>
      <trkpt lat="45.31872" lon="6.04729">
        <ele>1608.4</ele>
        <time>2021-01-16T09:06:20Z</time>
      </trkpt>
      <trkpt lat="45.31872" lon="6.04731">
        <ele>1608.4</ele>
        <time>2021-01-16T09:06:21Z</time>
      </trkpt>
      <trkpt lat="45.31872" lon="6.04732">
        <ele>1608.6</ele>
        <time>2021-01-16T09:06:22Z</time>
      </trkpt>
      <trkpt lat="45.31872" lon="6.04733">
        <ele>1608.6</ele>
        <time>2021-01-16T09:06:23Z</time>
      </trkpt>
      <trkpt lat="45.31872" lon="6.04734">
        <ele>1608.8</ele>
        <time>2021-01-16T09:06:24Z</time>
      </trkpt>
      <trkpt lat="45.31872" lon="6.04735">
        <ele>1608.8</ele>
        <time>2021-01-16T09:06:25Z</time>
      </trkpt>
      <trkpt lat="45.31872" lon="6.04736">
        <ele>1609</ele>
        <time>2021-01-16T09:06:26Z</time>
      </trkpt>
      <trkpt lat="45.31872" lon="6.04737">
        <ele>1609</ele>
        <time>2021-01-16T09:06:27Z</time>
      </trkpt>
      <trkpt lat="45.31872" lon="6.04738">
        <ele>1609.2</ele>
        <time>2021-01-16T09:06:28Z</time>
      </trkpt>
      <trkpt lat="45.31872" lon="6.04739">
        <ele>1609.4</ele>
        <time>2021-01-16T09:06:29Z</time>
      </trkpt>
      <trkpt lat="45.31872" lon="6.0474">
        <ele>1609.6</ele>
        <time>2021-01-16T09:06:30Z</time>
      </trkpt>
      <trkpt lat="45.31872" lon="6.04741">
        <ele>1609.4</ele>
        <time>2021-01-16T09:06:31Z</time>
      </trkpt>
      <trkpt lat="45.31872" lon="6.04742">
        <ele>1609.8</ele>
        <time>2021-01-16T09:06:32Z</time>
      </trkpt>
      <trkpt lat="45.31872" lon="6.04742">
        <ele>1610</ele>
        <time>2021-01-16T09:06:33Z</time>
      </trkpt>
      <trkpt lat="45.31872" lon="6.04743">
        <ele>1610</ele>
        <time>2021-01-16T09:06:34Z</time>
      </trkpt>
      <trkpt lat="45.31872" lon="6.04744">
        <ele>1610.4</ele>
        <time>2021-01-16T09:06:35Z</time>
      </trkpt>
      <trkpt lat="45.31872" lon="6.04745">
        <ele>1610.4</ele>
        <time>2021-01-16T09:06:36Z</time>
      </trkpt>
      <trkpt lat="45.31872" lon="6.04746">
        <ele>1610.6</ele>
        <time>2021-01-16T09:06:37Z</time>
      </trkpt>
      <trkpt lat="45.31871" lon="6.04746">
        <ele>1610.8</ele>
        <time>2021-01-16T09:06:38Z</time>
      </trkpt>
      <trkpt lat="45.3187" lon="6.04747">
        <ele>1611</ele>
        <time>2021-01-16T09:06:39Z</time>
      </trkpt>
      <trkpt lat="45.31869" lon="6.04747">
        <ele>1611.2</ele>
        <time>2021-01-16T09:06:40Z</time>
      </trkpt>
      <trkpt lat="45.31869" lon="6.04747">
        <ele>1611.4</ele>
        <time>2021-01-16T09:06:41Z</time>
      </trkpt>
      <trkpt lat="45.31868" lon="6.04747">
        <ele>1611.6</ele>
        <time>2021-01-16T09:06:42Z</time>
      </trkpt>
      <trkpt lat="45.31868" lon="6.04747">
        <ele>1611.8</ele>
        <time>2021-01-16T09:06:43Z</time>
      </trkpt>
      <trkpt lat="45.31867" lon="6.04746">
        <ele>1611.8</ele>
        <time>2021-01-16T09:06:44Z</time>
      </trkpt>
      <trkpt lat="45.31867" lon="6.04746">
        <ele>1612</ele>
        <time>2021-01-16T09:06:45Z</time>
      </trkpt>
      <trkpt lat="45.31866" lon="6.04746">
        <ele>1612.2</ele>
        <time>2021-01-16T09:06:46Z</time>
      </trkpt>
      <trkpt lat="45.31866" lon="6.04745">
        <ele>1612.2</ele>
        <time>2021-01-16T09:06:47Z</time>
      </trkpt>
      <trkpt lat="45.31865" lon="6.04745">
        <ele>1612.4</ele>
        <time>2021-01-16T09:06:48Z</time>
      </trkpt>
      <trkpt lat="45.31865" lon="6.04744">
        <ele>1612.4</ele>
        <time>2021-01-16T09:06:49Z</time>
      </trkpt>
      <trkpt lat="45.31864" lon="6.04743">
        <ele>1612.6</ele>
        <time>2021-01-16T09:06:50Z</time>
      </trkpt>
      <trkpt lat="45.31864" lon="6.04743">
        <ele>1612.8</ele>
        <time>2021-01-16T09:06:51Z</time>
      </trkpt>
      <trkpt lat="45.31863" lon="6.04743">
        <ele>1613</ele>
        <time>2021-01-16T09:06:52Z</time>
      </trkpt>
      <trkpt lat="45.31863" lon="6.04742">
        <ele>1613.2</ele>
        <time>2021-01-16T09:06:53Z</time>
      </trkpt>
      <trkpt lat="45.31862" lon="6.04742">
        <ele>1613.4</ele>
        <time>2021-01-16T09:06:54Z</time>
      </trkpt>
      <trkpt lat="45.31862" lon="6.04742">
        <ele>1613.6</ele>
        <time>2021-01-16T09:06:55Z</time>
      </trkpt>
      <trkpt lat="45.31862" lon="6.04742">
        <ele>1613.6</ele>
        <time>2021-01-16T09:06:56Z</time>
      </trkpt>
      <trkpt lat="45.31861" lon="6.04741">
        <ele>1613.8</ele>
        <time>2021-01-16T09:06:57Z</time>
      </trkpt>
      <trkpt lat="45.31861" lon="6.04741">
        <ele>1613.6</ele>
        <time>2021-01-16T09:06:58Z</time>
      </trkpt>
      <trkpt lat="45.31861" lon="6.04741">
        <ele>1613.8</ele>
        <time>2021-01-16T09:06:59Z</time>
      </trkpt>
      <trkpt lat="45.3186" lon="6.04741">
        <ele>1613.8</ele>
        <time>2021-01-16T09:07:00Z</time>
      </trkpt>
      <trkpt lat="45.3186" lon="6.0474">
        <ele>1613.8</ele>
        <time>2021-01-16T09:07:01Z</time>
      </trkpt>
      <trkpt lat="45.3186" lon="6.0474">
        <ele>1614</ele>
        <time>2021-01-16T09:07:02Z</time>
      </trkpt>
      <trkpt lat="45.3186" lon="6.0474">
        <ele>1614</ele>
        <time>2021-01-16T09:07:03Z</time>
      </trkpt>
      <trkpt lat="45.31859" lon="6.0474">
        <ele>1614</ele>
        <time>2021-01-16T09:07:04Z</time>
      </trkpt>
      <trkpt lat="45.31859" lon="6.04741">
        <ele>1614.4</ele>
        <time>2021-01-16T09:07:05Z</time>
      </trkpt>
      <trkpt lat="45.31858" lon="6.04741">
        <ele>1614.4</ele>
        <time>2021-01-16T09:07:06Z</time>
      </trkpt>
      <trkpt lat="45.31858" lon="6.04741">
        <ele>1614.8</ele>
        <time>2021-01-16T09:07:07Z</time>
      </trkpt>
      <trkpt lat="45.31857" lon="6.04741">
        <ele>1615</ele>
        <time>2021-01-16T09:07:08Z</time>
      </trkpt>
      <trkpt lat="45.31856" lon="6.04741">
        <ele>1615.2</ele>
        <time>2021-01-16T09:07:09Z</time>
      </trkpt>
      <trkpt lat="45.31855" lon="6.04742">
        <ele>1615.4</ele>
        <time>2021-01-16T09:07:10Z</time>
      </trkpt>
      <trkpt lat="45.31855" lon="6.04742">
        <ele>1615.4</ele>
        <time>2021-01-16T09:07:11Z</time>
      </trkpt>
      <trkpt lat="45.31854" lon="6.04743">
        <ele>1615.8</ele>
        <time>2021-01-16T09:07:12Z</time>
      </trkpt>
      <trkpt lat="45.31854" lon="6.04744">
        <ele>1615.8</ele>
        <time>2021-01-16T09:07:13Z</time>
      </trkpt>
      <trkpt lat="45.31854" lon="6.04744">
        <ele>1616</ele>
        <time>2021-01-16T09:07:14Z</time>
      </trkpt>
      <trkpt lat="45.31854" lon="6.04745">
        <ele>1616.2</ele>
        <time>2021-01-16T09:07:15Z</time>
      </trkpt>
      <trkpt lat="45.31854" lon="6.04745">
        <ele>1616.4</ele>
        <time>2021-01-16T09:07:16Z</time>
      </trkpt>
      <trkpt lat="45.31854" lon="6.04746">
        <ele>1616.4</ele>
        <time>2021-01-16T09:07:17Z</time>
      </trkpt>
      <trkpt lat="45.31854" lon="6.04746">
        <ele>1616.4</ele>
        <time>2021-01-16T09:07:18Z</time>
      </trkpt>
      <trkpt lat="45.31854" lon="6.04746">
        <ele>1616.6</ele>
        <time>2021-01-16T09:07:19Z</time>
      </trkpt>
      <trkpt lat="45.31854" lon="6.04746">
        <ele>1616.6</ele>
        <time>2021-01-16T09:07:20Z</time>
      </trkpt>
      <trkpt lat="45.31854" lon="6.04746">
        <ele>1616.6</ele>
        <time>2021-01-16T09:07:21Z</time>
      </trkpt>
      <trkpt lat="45.31854" lon="6.04746">
        <ele>1616.6</ele>
        <time>2021-01-16T09:07:22Z</time>
      </trkpt>
      <trkpt lat="45.31854" lon="6.04746">
        <ele>1616.6</ele>
        <time>2021-01-16T09:07:23Z</time>
      </trkpt>
      <trkpt lat="45.31854" lon="6.04746">
        <ele>1616.6</ele>
        <time>2021-01-16T09:07:24Z</time>
      </trkpt>
      <trkpt lat="45.31854" lon="6.04746">
        <ele>1616.6</ele>
        <time>2021-01-16T09:07:25Z</time>
      </trkpt>
      <trkpt lat="45.31854" lon="6.04746">
        <ele>1616.6</ele>
        <time>2021-01-16T09:07:26Z</time>
      </trkpt>
      <trkpt lat="45.31854" lon="6.04746">
        <ele>1616.8</ele>
        <time>2021-01-16T09:07:27Z</time>
      </trkpt>
      <trkpt lat="45.31854" lon="6.04746">
        <ele>1616.6</ele>
        <time>2021-01-16T09:07:28Z</time>
      </trkpt>
      <trkpt lat="45.31854" lon="6.04746">
        <ele>1616.8</ele>
        <time>2021-01-16T09:07:29Z</time>
      </trkpt>
      <trkpt lat="45.31854" lon="6.04746">
        <ele>1616.8</ele>
        <time>2021-01-16T09:07:30Z</time>
      </trkpt>
      <trkpt lat="45.31854" lon="6.04746">
        <ele>1616.8</ele>
        <time>2021-01-16T09:07:31Z</time>
      </trkpt>
      <trkpt lat="45.31854" lon="6.04746">
        <ele>1617</ele>
        <time>2021-01-16T09:07:32Z</time>
      </trkpt>
      <trkpt lat="45.31854" lon="6.04746">
        <ele>1617</ele>
        <time>2021-01-16T09:07:33Z</time>
      </trkpt>
      <trkpt lat="45.31854" lon="6.04746">
        <ele>1617</ele>
        <time>2021-01-16T09:07:34Z</time>
      </trkpt>
      <trkpt lat="45.31854" lon="6.04746">
        <ele>1617</ele>
        <time>2021-01-16T09:07:35Z</time>
      </trkpt>
      <trkpt lat="45.31854" lon="6.04746">
        <ele>1617</ele>
        <time>2021-01-16T09:07:36Z</time>
      </trkpt>
      <trkpt lat="45.31854" lon="6.04746">
        <ele>1617</ele>
        <time>2021-01-16T09:07:37Z</time>
      </trkpt>
      <trkpt lat="45.31854" lon="6.04746">
        <ele>1617.2</ele>
        <time>2021-01-16T09:07:38Z</time>
      </trkpt>
      <trkpt lat="45.31854" lon="6.04746">
        <ele>1617.2</ele>
        <time>2021-01-16T09:07:39Z</time>
      </trkpt>
      <trkpt lat="45.31854" lon="6.04746">
        <ele>1617.2</ele>
        <time>2021-01-16T09:07:40Z</time>
      </trkpt>
      <trkpt lat="45.31853" lon="6.04749">
        <ele>1617.4</ele>
        <time>2021-01-16T09:07:41Z</time>
      </trkpt>
      <trkpt lat="45.31853" lon="6.0475">
        <ele>1617</ele>
        <time>2021-01-16T09:07:42Z</time>
      </trkpt>
      <trkpt lat="45.31853" lon="6.04751">
        <ele>1617.4</ele>
        <time>2021-01-16T09:07:43Z</time>
      </trkpt>
      <trkpt lat="45.31853" lon="6.04751">
        <ele>1617.2</ele>
        <time>2021-01-16T09:07:44Z</time>
      </trkpt>
      <trkpt lat="45.31853" lon="6.04752">
        <ele>1617.6</ele>
        <time>2021-01-16T09:07:45Z</time>
      </trkpt>
      <trkpt lat="45.31854" lon="6.04752">
        <ele>1617.6</ele>
        <time>2021-01-16T09:07:46Z</time>
      </trkpt>
      <trkpt lat="45.31854" lon="6.04753">
        <ele>1617.8</ele>
        <time>2021-01-16T09:07:47Z</time>
      </trkpt>
      <trkpt lat="45.31854" lon="6.04753">
        <ele>1618</ele>
        <time>2021-01-16T09:07:48Z</time>
      </trkpt>
      <trkpt lat="45.31854" lon="6.04754">
        <ele>1618.2</ele>
        <time>2021-01-16T09:07:49Z</time>
      </trkpt>
      <trkpt lat="45.31853" lon="6.04755">
        <ele>1618.4</ele>
        <time>2021-01-16T09:07:50Z</time>
      </trkpt>
      <trkpt lat="45.31853" lon="6.04756">
        <ele>1618.6</ele>
        <time>2021-01-16T09:07:51Z</time>
      </trkpt>
      <trkpt lat="45.31853" lon="6.04757">
        <ele>1618.8</ele>
        <time>2021-01-16T09:07:52Z</time>
      </trkpt>
      <trkpt lat="45.31852" lon="6.04758">
        <ele>1618.8</ele>
        <time>2021-01-16T09:07:53Z</time>
      </trkpt>
      <trkpt lat="45.31853" lon="6.04759">
        <ele>1619</ele>
        <time>2021-01-16T09:07:54Z</time>
      </trkpt>
      <trkpt lat="45.31852" lon="6.0476">
        <ele>1618.6</ele>
        <time>2021-01-16T09:07:55Z</time>
      </trkpt>
      <trkpt lat="45.31852" lon="6.04761">
        <ele>1619.2</ele>
        <time>2021-01-16T09:07:56Z</time>
      </trkpt>
      <trkpt lat="45.31852" lon="6.04761">
        <ele>1618.8</ele>
        <time>2021-01-16T09:07:57Z</time>
      </trkpt>
      <trkpt lat="45.31853" lon="6.04762">
        <ele>1619.2</ele>
        <time>2021-01-16T09:07:58Z</time>
      </trkpt>
      <trkpt lat="45.31853" lon="6.04763">
        <ele>1619.2</ele>
        <time>2021-01-16T09:07:59Z</time>
      </trkpt>
      <trkpt lat="45.31853" lon="6.04764">
        <ele>1619.6</ele>
        <time>2021-01-16T09:08:00Z</time>
      </trkpt>
      <trkpt lat="45.31853" lon="6.04764">
        <ele>1619.8</ele>
        <time>2021-01-16T09:08:01Z</time>
      </trkpt>
      <trkpt lat="45.31853" lon="6.04765">
        <ele>1620</ele>
        <time>2021-01-16T09:08:02Z</time>
      </trkpt>
      <trkpt lat="45.31853" lon="6.04766">
        <ele>1620.4</ele>
        <time>2021-01-16T09:08:03Z</time>
      </trkpt>
      <trkpt lat="45.31853" lon="6.04767">
        <ele>1620.4</ele>
        <time>2021-01-16T09:08:04Z</time>
      </trkpt>
      <trkpt lat="45.31854" lon="6.04767">
        <ele>1620.6</ele>
        <time>2021-01-16T09:08:05Z</time>
      </trkpt>
      <trkpt lat="45.31854" lon="6.04768">
        <ele>1620.6</ele>
        <time>2021-01-16T09:08:06Z</time>
      </trkpt>
      <trkpt lat="45.31854" lon="6.04768">
        <ele>1620.6</ele>
        <time>2021-01-16T09:08:07Z</time>
      </trkpt>
      <trkpt lat="45.31853" lon="6.04769">
        <ele>1621</ele>
        <time>2021-01-16T09:08:08Z</time>
      </trkpt>
      <trkpt lat="45.31853" lon="6.0477">
        <ele>1620.8</ele>
        <time>2021-01-16T09:08:09Z</time>
      </trkpt>
      <trkpt lat="45.31854" lon="6.0477">
        <ele>1621</ele>
        <time>2021-01-16T09:08:10Z</time>
      </trkpt>
      <trkpt lat="45.31853" lon="6.0477">
        <ele>1621.4</ele>
        <time>2021-01-16T09:08:11Z</time>
      </trkpt>
      <trkpt lat="45.31853" lon="6.04771">
        <ele>1621.2</ele>
        <time>2021-01-16T09:08:12Z</time>
      </trkpt>
      <trkpt lat="45.31854" lon="6.04771">
        <ele>1621.4</ele>
        <time>2021-01-16T09:08:13Z</time>
      </trkpt>
      <trkpt lat="45.31854" lon="6.04772">
        <ele>1621.6</ele>
        <time>2021-01-16T09:08:14Z</time>
      </trkpt>
      <trkpt lat="45.31854" lon="6.04773">
        <ele>1621.6</ele>
        <time>2021-01-16T09:08:15Z</time>
      </trkpt>
      <trkpt lat="45.31854" lon="6.04773">
        <ele>1621.8</ele>
        <time>2021-01-16T09:08:16Z</time>
      </trkpt>
      <trkpt lat="45.31854" lon="6.04774">
        <ele>1622</ele>
        <time>2021-01-16T09:08:17Z</time>
      </trkpt>
      <trkpt lat="45.31854" lon="6.04775">
        <ele>1622.2</ele>
        <time>2021-01-16T09:08:18Z</time>
      </trkpt>
      <trkpt lat="45.31855" lon="6.04776">
        <ele>1622.2</ele>
        <time>2021-01-16T09:08:19Z</time>
      </trkpt>
      <trkpt lat="45.31855" lon="6.04777">
        <ele>1622.6</ele>
        <time>2021-01-16T09:08:20Z</time>
      </trkpt>
      <trkpt lat="45.31855" lon="6.04777">
        <ele>1622.6</ele>
        <time>2021-01-16T09:08:21Z</time>
      </trkpt>
      <trkpt lat="45.31855" lon="6.04778">
        <ele>1622.6</ele>
        <time>2021-01-16T09:08:22Z</time>
      </trkpt>
      <trkpt lat="45.31855" lon="6.04779">
        <ele>1622.8</ele>
        <time>2021-01-16T09:08:23Z</time>
      </trkpt>
      <trkpt lat="45.31856" lon="6.04779">
        <ele>1623</ele>
        <time>2021-01-16T09:08:24Z</time>
      </trkpt>
      <trkpt lat="45.31856" lon="6.04779">
        <ele>1623</ele>
        <time>2021-01-16T09:08:25Z</time>
      </trkpt>
      <trkpt lat="45.31856" lon="6.0478">
        <ele>1623.2</ele>
        <time>2021-01-16T09:08:26Z</time>
      </trkpt>
      <trkpt lat="45.31856" lon="6.0478">
        <ele>1623.2</ele>
        <time>2021-01-16T09:08:27Z</time>
      </trkpt>
      <trkpt lat="45.31856" lon="6.0478">
        <ele>1623.2</ele>
        <time>2021-01-16T09:08:28Z</time>
      </trkpt>
      <trkpt lat="45.31856" lon="6.0478">
        <ele>1623.6</ele>
        <time>2021-01-16T09:08:29Z</time>
      </trkpt>
      <trkpt lat="45.31856" lon="6.0478">
        <ele>1623.4</ele>
        <time>2021-01-16T09:08:30Z</time>
      </trkpt>
      <trkpt lat="45.31857" lon="6.04784">
        <ele>1623.6</ele>
        <time>2021-01-16T09:08:31Z</time>
      </trkpt>
      <trkpt lat="45.31857" lon="6.04784">
        <ele>1624</ele>
        <time>2021-01-16T09:08:32Z</time>
      </trkpt>
      <trkpt lat="45.31858" lon="6.04785">
        <ele>1624.2</ele>
        <time>2021-01-16T09:08:33Z</time>
      </trkpt>
      <trkpt lat="45.31858" lon="6.04785">
        <ele>1623.8</ele>
        <time>2021-01-16T09:08:34Z</time>
      </trkpt>
      <trkpt lat="45.31858" lon="6.04786">
        <ele>1624.2</ele>
        <time>2021-01-16T09:08:35Z</time>
      </trkpt>
      <trkpt lat="45.31858" lon="6.04787">
        <ele>1624.4</ele>
        <time>2021-01-16T09:08:36Z</time>
      </trkpt>
      <trkpt lat="45.31858" lon="6.04788">
        <ele>1624.4</ele>
        <time>2021-01-16T09:08:37Z</time>
      </trkpt>
      <trkpt lat="45.31858" lon="6.04789">
        <ele>1624.6</ele>
        <time>2021-01-16T09:08:38Z</time>
      </trkpt>
      <trkpt lat="45.31858" lon="6.04789">
        <ele>1624.6</ele>
        <time>2021-01-16T09:08:39Z</time>
      </trkpt>
      <trkpt lat="45.31859" lon="6.0479">
        <ele>1624.6</ele>
        <time>2021-01-16T09:08:40Z</time>
      </trkpt>
      <trkpt lat="45.31859" lon="6.04791">
        <ele>1624.8</ele>
        <time>2021-01-16T09:08:41Z</time>
      </trkpt>
      <trkpt lat="45.31859" lon="6.04792">
        <ele>1625</ele>
        <time>2021-01-16T09:08:42Z</time>
      </trkpt>
      <trkpt lat="45.31858" lon="6.04793">
        <ele>1624.8</ele>
        <time>2021-01-16T09:08:43Z</time>
      </trkpt>
      <trkpt lat="45.31859" lon="6.04794">
        <ele>1625.2</ele>
        <time>2021-01-16T09:08:44Z</time>
      </trkpt>
      <trkpt lat="45.31859" lon="6.04794">
        <ele>1625</ele>
        <time>2021-01-16T09:08:45Z</time>
      </trkpt>
      <trkpt lat="45.3186" lon="6.04795">
        <ele>1625.4</ele>
        <time>2021-01-16T09:08:46Z</time>
      </trkpt>
      <trkpt lat="45.3186" lon="6.04796">
        <ele>1625.6</ele>
        <time>2021-01-16T09:08:47Z</time>
      </trkpt>
      <trkpt lat="45.3186" lon="6.04796">
        <ele>1625.6</ele>
        <time>2021-01-16T09:08:48Z</time>
      </trkpt>
      <trkpt lat="45.31861" lon="6.04797">
        <ele>1625.8</ele>
        <time>2021-01-16T09:08:49Z</time>
      </trkpt>
      <trkpt lat="45.31861" lon="6.04796">
        <ele>1625.8</ele>
        <time>2021-01-16T09:08:50Z</time>
      </trkpt>
      <trkpt lat="45.31861" lon="6.04797">
        <ele>1625.8</ele>
        <time>2021-01-16T09:08:51Z</time>
      </trkpt>
      <trkpt lat="45.31861" lon="6.04797">
        <ele>1625.8</ele>
        <time>2021-01-16T09:08:52Z</time>
      </trkpt>
      <trkpt lat="45.31862" lon="6.04797">
        <ele>1625.8</ele>
        <time>2021-01-16T09:08:53Z</time>
      </trkpt>
      <trkpt lat="45.31862" lon="6.04797">
        <ele>1626</ele>
        <time>2021-01-16T09:08:54Z</time>
      </trkpt>
      <trkpt lat="45.31862" lon="6.04797">
        <ele>1626</ele>
        <time>2021-01-16T09:08:55Z</time>
      </trkpt>
      <trkpt lat="45.31862" lon="6.04797">
        <ele>1626</ele>
        <time>2021-01-16T09:08:56Z</time>
      </trkpt>
      <trkpt lat="45.31862" lon="6.04797">
        <ele>1626</ele>
        <time>2021-01-16T09:08:57Z</time>
      </trkpt>
      <trkpt lat="45.31862" lon="6.04797">
        <ele>1626</ele>
        <time>2021-01-16T09:08:58Z</time>
      </trkpt>
      <trkpt lat="45.31862" lon="6.04797">
        <ele>1625.8</ele>
        <time>2021-01-16T09:08:59Z</time>
      </trkpt>
      <trkpt lat="45.31862" lon="6.04797">
        <ele>1625.8</ele>
        <time>2021-01-16T09:09:00Z</time>
      </trkpt>
      <trkpt lat="45.31862" lon="6.04797">
        <ele>1625.8</ele>
        <time>2021-01-16T09:09:01Z</time>
      </trkpt>
      <trkpt lat="45.31862" lon="6.04797">
        <ele>1625.8</ele>
        <time>2021-01-16T09:09:02Z</time>
      </trkpt>
      <trkpt lat="45.31862" lon="6.04797">
        <ele>1625.8</ele>
        <time>2021-01-16T09:09:03Z</time>
      </trkpt>
      <trkpt lat="45.31862" lon="6.04797">
        <ele>1625.8</ele>
        <time>2021-01-16T09:09:04Z</time>
      </trkpt>
      <trkpt lat="45.31862" lon="6.04797">
        <ele>1625.8</ele>
        <time>2021-01-16T09:09:05Z</time>
      </trkpt>
      <trkpt lat="45.31862" lon="6.04797">
        <ele>1625.8</ele>
        <time>2021-01-16T09:09:06Z</time>
      </trkpt>
      <trkpt lat="45.31862" lon="6.04797">
        <ele>1625.8</ele>
        <time>2021-01-16T09:09:07Z</time>
      </trkpt>
      <trkpt lat="45.31862" lon="6.04797">
        <ele>1626</ele>
        <time>2021-01-16T09:09:08Z</time>
      </trkpt>
      <trkpt lat="45.31862" lon="6.04797">
        <ele>1625.8</ele>
        <time>2021-01-16T09:09:09Z</time>
      </trkpt>
      <trkpt lat="45.31862" lon="6.04797">
        <ele>1625.8</ele>
        <time>2021-01-16T09:09:10Z</time>
      </trkpt>
      <trkpt lat="45.31862" lon="6.04797">
        <ele>1625.8</ele>
        <time>2021-01-16T09:09:11Z</time>
      </trkpt>
      <trkpt lat="45.31862" lon="6.04797">
        <ele>1625.8</ele>
        <time>2021-01-16T09:09:12Z</time>
      </trkpt>
      <trkpt lat="45.31862" lon="6.04797">
        <ele>1625.8</ele>
        <time>2021-01-16T09:09:13Z</time>
      </trkpt>
      <trkpt lat="45.31862" lon="6.04797">
        <ele>1625.8</ele>
        <time>2021-01-16T09:09:14Z</time>
      </trkpt>
      <trkpt lat="45.31862" lon="6.04797">
        <ele>1625.6</ele>
        <time>2021-01-16T09:09:15Z</time>
      </trkpt>
      <trkpt lat="45.31862" lon="6.04797">
        <ele>1625.6</ele>
        <time>2021-01-16T09:09:16Z</time>
      </trkpt>
      <trkpt lat="45.31862" lon="6.04797">
        <ele>1625.6</ele>
        <time>2021-01-16T09:09:17Z</time>
      </trkpt>
      <trkpt lat="45.31862" lon="6.04797">
        <ele>1625.6</ele>
        <time>2021-01-16T09:09:18Z</time>
      </trkpt>
      <trkpt lat="45.31862" lon="6.04797">
        <ele>1625.6</ele>
        <time>2021-01-16T09:09:19Z</time>
      </trkpt>
      <trkpt lat="45.31862" lon="6.04797">
        <ele>1625.6</ele>
        <time>2021-01-16T09:09:20Z</time>
      </trkpt>
      <trkpt lat="45.31862" lon="6.04797">
        <ele>1625.6</ele>
        <time>2021-01-16T09:09:21Z</time>
      </trkpt>
      <trkpt lat="45.31862" lon="6.04797">
        <ele>1625.6</ele>
        <time>2021-01-16T09:09:22Z</time>
      </trkpt>
      <trkpt lat="45.31862" lon="6.04797">
        <ele>1625.6</ele>
        <time>2021-01-16T09:09:23Z</time>
      </trkpt>
      <trkpt lat="45.31862" lon="6.04797">
        <ele>1625.6</ele>
        <time>2021-01-16T09:09:24Z</time>
      </trkpt>
      <trkpt lat="45.31862" lon="6.04797">
        <ele>1625.6</ele>
        <time>2021-01-16T09:09:25Z</time>
      </trkpt>
      <trkpt lat="45.31862" lon="6.04797">
        <ele>1625.6</ele>
        <time>2021-01-16T09:09:26Z</time>
      </trkpt>
      <trkpt lat="45.31862" lon="6.04797">
        <ele>1625.6</ele>
        <time>2021-01-16T09:09:27Z</time>
      </trkpt>
      <trkpt lat="45.31862" lon="6.04797">
        <ele>1625.6</ele>
        <time>2021-01-16T09:09:28Z</time>
      </trkpt>
      <trkpt lat="45.31862" lon="6.04797">
        <ele>1625.4</ele>
        <time>2021-01-16T09:09:29Z</time>
      </trkpt>
      <trkpt lat="45.31862" lon="6.04797">
        <ele>1625.4</ele>
        <time>2021-01-16T09:09:30Z</time>
      </trkpt>
      <trkpt lat="45.31862" lon="6.04797">
        <ele>1625.4</ele>
        <time>2021-01-16T09:09:31Z</time>
      </trkpt>
      <trkpt lat="45.31862" lon="6.04797">
        <ele>1625.4</ele>
        <time>2021-01-16T09:09:32Z</time>
      </trkpt>
      <trkpt lat="45.31862" lon="6.04797">
        <ele>1625.4</ele>
        <time>2021-01-16T09:09:33Z</time>
      </trkpt>
      <trkpt lat="45.31862" lon="6.04797">
        <ele>1625.4</ele>
        <time>2021-01-16T09:09:34Z</time>
      </trkpt>
      <trkpt lat="45.31862" lon="6.04797">
        <ele>1625.4</ele>
        <time>2021-01-16T09:09:35Z</time>
      </trkpt>
      <trkpt lat="45.31862" lon="6.04797">
        <ele>1625.4</ele>
        <time>2021-01-16T09:09:36Z</time>
      </trkpt>
      <trkpt lat="45.31862" lon="6.04797">
        <ele>1625.4</ele>
        <time>2021-01-16T09:09:37Z</time>
      </trkpt>
      <trkpt lat="45.31862" lon="6.04797">
        <ele>1625.4</ele>
        <time>2021-01-16T09:09:38Z</time>
      </trkpt>
      <trkpt lat="45.31862" lon="6.04797">
        <ele>1625.4</ele>
        <time>2021-01-16T09:09:39Z</time>
      </trkpt>
      <trkpt lat="45.31862" lon="6.04797">
        <ele>1625.4</ele>
        <time>2021-01-16T09:09:40Z</time>
      </trkpt>
      <trkpt lat="45.31862" lon="6.04797">
        <ele>1625.6</ele>
        <time>2021-01-16T09:09:41Z</time>
      </trkpt>
      <trkpt lat="45.31862" lon="6.04797">
        <ele>1625.6</ele>
        <time>2021-01-16T09:09:42Z</time>
      </trkpt>
      <trkpt lat="45.31862" lon="6.04797">
        <ele>1625.6</ele>
        <time>2021-01-16T09:09:43Z</time>
      </trkpt>
      <trkpt lat="45.31862" lon="6.04797">
        <ele>1625.6</ele>
        <time>2021-01-16T09:09:44Z</time>
      </trkpt>
      <trkpt lat="45.31862" lon="6.04797">
        <ele>1625.6</ele>
        <time>2021-01-16T09:09:45Z</time>
      </trkpt>
      <trkpt lat="45.31862" lon="6.04797">
        <ele>1625.6</ele>
        <time>2021-01-16T09:09:46Z</time>
      </trkpt>
      <trkpt lat="45.31862" lon="6.04797">
        <ele>1625.6</ele>
        <time>2021-01-16T09:09:47Z</time>
      </trkpt>
      <trkpt lat="45.31862" lon="6.04797">
        <ele>1625.6</ele>
        <time>2021-01-16T09:09:48Z</time>
      </trkpt>
      <trkpt lat="45.31861" lon="6.04796">
        <ele>1625.6</ele>
        <time>2021-01-16T09:09:49Z</time>
      </trkpt>
      <trkpt lat="45.31859" lon="6.04794">
        <ele>1625.8</ele>
        <time>2021-01-16T09:09:50Z</time>
      </trkpt>
      <trkpt lat="45.31859" lon="6.04794">
        <ele>1625.8</ele>
        <time>2021-01-16T09:09:51Z</time>
      </trkpt>
      <trkpt lat="45.31858" lon="6.04794">
        <ele>1625.8</ele>
        <time>2021-01-16T09:09:52Z</time>
      </trkpt>
      <trkpt lat="45.31858" lon="6.04794">
        <ele>1625.8</ele>
        <time>2021-01-16T09:09:53Z</time>
      </trkpt>
      <trkpt lat="45.31858" lon="6.04794">
        <ele>1625.8</ele>
        <time>2021-01-16T09:09:54Z</time>
      </trkpt>
      <trkpt lat="45.31858" lon="6.04794">
        <ele>1625.8</ele>
        <time>2021-01-16T09:09:55Z</time>
      </trkpt>
      <trkpt lat="45.31858" lon="6.04794">
        <ele>1625.6</ele>
        <time>2021-01-16T09:09:56Z</time>
      </trkpt>
      <trkpt lat="45.31858" lon="6.04794">
        <ele>1625.6</ele>
        <time>2021-01-16T09:09:57Z</time>
      </trkpt>
      <trkpt lat="45.31858" lon="6.04794">
        <ele>1625.6</ele>
        <time>2021-01-16T09:09:58Z</time>
      </trkpt>
      <trkpt lat="45.31858" lon="6.04794">
        <ele>1625.6</ele>
        <time>2021-01-16T09:09:59Z</time>
      </trkpt>
      <trkpt lat="45.31858" lon="6.04794">
        <ele>1625.6</ele>
        <time>2021-01-16T09:10:00Z</time>
      </trkpt>
      <trkpt lat="45.31858" lon="6.04793">
        <ele>1625.6</ele>
        <time>2021-01-16T09:10:01Z</time>
      </trkpt>
      <trkpt lat="45.31858" lon="6.04793">
        <ele>1625.6</ele>
        <time>2021-01-16T09:10:02Z</time>
      </trkpt>
      <trkpt lat="45.31857" lon="6.04793">
        <ele>1625.6</ele>
        <time>2021-01-16T09:10:03Z</time>
      </trkpt>
      <trkpt lat="45.31857" lon="6.04793">
        <ele>1625.6</ele>
        <time>2021-01-16T09:10:04Z</time>
      </trkpt>
      <trkpt lat="45.31856" lon="6.04793">
        <ele>1625.6</ele>
        <time>2021-01-16T09:10:05Z</time>
      </trkpt>
      <trkpt lat="45.31856" lon="6.04793">
        <ele>1625.6</ele>
        <time>2021-01-16T09:10:06Z</time>
      </trkpt>
      <trkpt lat="45.31856" lon="6.04793">
        <ele>1625.8</ele>
        <time>2021-01-16T09:10:07Z</time>
      </trkpt>
      <trkpt lat="45.31856" lon="6.04793">
        <ele>1625.8</ele>
        <time>2021-01-16T09:10:08Z</time>
      </trkpt>
      <trkpt lat="45.31856" lon="6.04793">
        <ele>1626</ele>
        <time>2021-01-16T09:10:09Z</time>
      </trkpt>
      <trkpt lat="45.31855" lon="6.04793">
        <ele>1625.8</ele>
        <time>2021-01-16T09:10:10Z</time>
      </trkpt>
      <trkpt lat="45.31853" lon="6.04793">
        <ele>1626</ele>
        <time>2021-01-16T09:10:11Z</time>
      </trkpt>
      <trkpt lat="45.31853" lon="6.04793">
        <ele>1626</ele>
        <time>2021-01-16T09:10:12Z</time>
      </trkpt>
      <trkpt lat="45.31852" lon="6.04792">
        <ele>1626.2</ele>
        <time>2021-01-16T09:10:13Z</time>
      </trkpt>
      <trkpt lat="45.31852" lon="6.04792">
        <ele>1626.2</ele>
        <time>2021-01-16T09:10:14Z</time>
      </trkpt>
      <trkpt lat="45.31851" lon="6.04792">
        <ele>1626.2</ele>
        <time>2021-01-16T09:10:15Z</time>
      </trkpt>
      <trkpt lat="45.3185" lon="6.04792">
        <ele>1626.4</ele>
        <time>2021-01-16T09:10:16Z</time>
      </trkpt>
      <trkpt lat="45.3185" lon="6.04791">
        <ele>1626.4</ele>
        <time>2021-01-16T09:10:17Z</time>
      </trkpt>
      <trkpt lat="45.31849" lon="6.04792">
        <ele>1626.6</ele>
        <time>2021-01-16T09:10:18Z</time>
      </trkpt>
      <trkpt lat="45.31848" lon="6.04792">
        <ele>1626.6</ele>
        <time>2021-01-16T09:10:19Z</time>
      </trkpt>
      <trkpt lat="45.31848" lon="6.04792">
        <ele>1626.8</ele>
        <time>2021-01-16T09:10:20Z</time>
      </trkpt>
      <trkpt lat="45.31847" lon="6.04791">
        <ele>1626.8</ele>
        <time>2021-01-16T09:10:21Z</time>
      </trkpt>
      <trkpt lat="45.31847" lon="6.04792">
        <ele>1627</ele>
        <time>2021-01-16T09:10:22Z</time>
      </trkpt>
      <trkpt lat="45.31846" lon="6.04792">
        <ele>1627</ele>
        <time>2021-01-16T09:10:23Z</time>
      </trkpt>
      <trkpt lat="45.31845" lon="6.04792">
        <ele>1627.2</ele>
        <time>2021-01-16T09:10:24Z</time>
      </trkpt>
      <trkpt lat="45.31845" lon="6.04792">
        <ele>1627.2</ele>
        <time>2021-01-16T09:10:25Z</time>
      </trkpt>
      <trkpt lat="45.31844" lon="6.04792">
        <ele>1627.2</ele>
        <time>2021-01-16T09:10:26Z</time>
      </trkpt>
      <trkpt lat="45.31844" lon="6.04792">
        <ele>1627.4</ele>
        <time>2021-01-16T09:10:27Z</time>
      </trkpt>
      <trkpt lat="45.31844" lon="6.04792">
        <ele>1627.4</ele>
        <time>2021-01-16T09:10:28Z</time>
      </trkpt>
      <trkpt lat="45.31844" lon="6.04792">
        <ele>1627.6</ele>
        <time>2021-01-16T09:10:29Z</time>
      </trkpt>
      <trkpt lat="45.31842" lon="6.04792">
        <ele>1627.8</ele>
        <time>2021-01-16T09:10:30Z</time>
      </trkpt>
      <trkpt lat="45.31842" lon="6.04792">
        <ele>1627.8</ele>
        <time>2021-01-16T09:10:31Z</time>
      </trkpt>
      <trkpt lat="45.31841" lon="6.04792">
        <ele>1628</ele>
        <time>2021-01-16T09:10:32Z</time>
      </trkpt>
      <trkpt lat="45.3184" lon="6.04792">
        <ele>1628.2</ele>
        <time>2021-01-16T09:10:33Z</time>
      </trkpt>
      <trkpt lat="45.3184" lon="6.04792">
        <ele>1628.2</ele>
        <time>2021-01-16T09:10:34Z</time>
      </trkpt>
      <trkpt lat="45.31839" lon="6.04792">
        <ele>1628.4</ele>
        <time>2021-01-16T09:10:35Z</time>
      </trkpt>
      <trkpt lat="45.31839" lon="6.04792">
        <ele>1628.6</ele>
        <time>2021-01-16T09:10:36Z</time>
      </trkpt>
      <trkpt lat="45.31838" lon="6.04792">
        <ele>1628.4</ele>
        <time>2021-01-16T09:10:37Z</time>
      </trkpt>
      <trkpt lat="45.31837" lon="6.04791">
        <ele>1628.6</ele>
        <time>2021-01-16T09:10:38Z</time>
      </trkpt>
      <trkpt lat="45.31837" lon="6.04791">
        <ele>1628.6</ele>
        <time>2021-01-16T09:10:39Z</time>
      </trkpt>
      <trkpt lat="45.31836" lon="6.04791">
        <ele>1628.6</ele>
        <time>2021-01-16T09:10:40Z</time>
      </trkpt>
      <trkpt lat="45.31836" lon="6.04791">
        <ele>1628.8</ele>
        <time>2021-01-16T09:10:41Z</time>
      </trkpt>
      <trkpt lat="45.31835" lon="6.04791">
        <ele>1628.8</ele>
        <time>2021-01-16T09:10:42Z</time>
      </trkpt>
      <trkpt lat="45.31835" lon="6.0479">
        <ele>1629</ele>
        <time>2021-01-16T09:10:43Z</time>
      </trkpt>
      <trkpt lat="45.31835" lon="6.0479">
        <ele>1629</ele>
        <time>2021-01-16T09:10:44Z</time>
      </trkpt>
      <trkpt lat="45.31835" lon="6.0479">
        <ele>1629</ele>
        <time>2021-01-16T09:10:45Z</time>
      </trkpt>
      <trkpt lat="45.31835" lon="6.0479">
        <ele>1629</ele>
        <time>2021-01-16T09:10:46Z</time>
      </trkpt>
      <trkpt lat="45.31835" lon="6.0479">
        <ele>1629</ele>
        <time>2021-01-16T09:10:47Z</time>
      </trkpt>
      <trkpt lat="45.31835" lon="6.0479">
        <ele>1629</ele>
        <time>2021-01-16T09:10:48Z</time>
      </trkpt>
      <trkpt lat="45.31835" lon="6.0479">
        <ele>1629</ele>
        <time>2021-01-16T09:10:49Z</time>
      </trkpt>
      <trkpt lat="45.31835" lon="6.0479">
        <ele>1629</ele>
        <time>2021-01-16T09:10:50Z</time>
      </trkpt>
      <trkpt lat="45.31835" lon="6.0479">
        <ele>1628.8</ele>
        <time>2021-01-16T09:10:51Z</time>
      </trkpt>
      <trkpt lat="45.31835" lon="6.0479">
        <ele>1628.8</ele>
        <time>2021-01-16T09:10:52Z</time>
      </trkpt>
      <trkpt lat="45.31835" lon="6.0479">
        <ele>1629</ele>
        <time>2021-01-16T09:10:53Z</time>
      </trkpt>
      <trkpt lat="45.31835" lon="6.0479">
        <ele>1629</ele>
        <time>2021-01-16T09:10:54Z</time>
      </trkpt>
      <trkpt lat="45.31835" lon="6.04791">
        <ele>1628.8</ele>
        <time>2021-01-16T09:10:55Z</time>
      </trkpt>
      <trkpt lat="45.31836" lon="6.04792">
        <ele>1629</ele>
        <time>2021-01-16T09:10:56Z</time>
      </trkpt>
      <trkpt lat="45.31837" lon="6.04792">
        <ele>1628.8</ele>
        <time>2021-01-16T09:10:57Z</time>
      </trkpt>
      <trkpt lat="45.31837" lon="6.04792">
        <ele>1629</ele>
        <time>2021-01-16T09:10:58Z</time>
      </trkpt>
      <trkpt lat="45.31837" lon="6.04793">
        <ele>1629</ele>
        <time>2021-01-16T09:10:59Z</time>
      </trkpt>
      <trkpt lat="45.31837" lon="6.04793">
        <ele>1629</ele>
        <time>2021-01-16T09:11:00Z</time>
      </trkpt>
      <trkpt lat="45.31837" lon="6.04793">
        <ele>1629</ele>
        <time>2021-01-16T09:11:01Z</time>
      </trkpt>
      <trkpt lat="45.31837" lon="6.04793">
        <ele>1629.2</ele>
        <time>2021-01-16T09:11:02Z</time>
      </trkpt>
      <trkpt lat="45.31837" lon="6.04793">
        <ele>1629.2</ele>
        <time>2021-01-16T09:11:03Z</time>
      </trkpt>
      <trkpt lat="45.31837" lon="6.04793">
        <ele>1629.2</ele>
        <time>2021-01-16T09:11:04Z</time>
      </trkpt>
      <trkpt lat="45.31837" lon="6.04793">
        <ele>1629.2</ele>
        <time>2021-01-16T09:11:05Z</time>
      </trkpt>
      <trkpt lat="45.31837" lon="6.04793">
        <ele>1629.2</ele>
        <time>2021-01-16T09:11:06Z</time>
      </trkpt>
      <trkpt lat="45.31837" lon="6.04793">
        <ele>1629.2</ele>
        <time>2021-01-16T09:11:07Z</time>
      </trkpt>
      <trkpt lat="45.31837" lon="6.04793">
        <ele>1629.2</ele>
        <time>2021-01-16T09:11:08Z</time>
      </trkpt>
      <trkpt lat="45.31837" lon="6.04793">
        <ele>1629.2</ele>
        <time>2021-01-16T09:11:09Z</time>
      </trkpt>
      <trkpt lat="45.31837" lon="6.04793">
        <ele>1629.2</ele>
        <time>2021-01-16T09:11:10Z</time>
      </trkpt>
      <trkpt lat="45.31837" lon="6.04793">
        <ele>1629.2</ele>
        <time>2021-01-16T09:11:11Z</time>
      </trkpt>
      <trkpt lat="45.31837" lon="6.04793">
        <ele>1629.2</ele>
        <time>2021-01-16T09:11:12Z</time>
      </trkpt>
      <trkpt lat="45.31837" lon="6.04793">
        <ele>1629.2</ele>
        <time>2021-01-16T09:11:13Z</time>
      </trkpt>
      <trkpt lat="45.31837" lon="6.04793">
        <ele>1629.2</ele>
        <time>2021-01-16T09:11:14Z</time>
      </trkpt>
      <trkpt lat="45.31837" lon="6.04793">
        <ele>1629.2</ele>
        <time>2021-01-16T09:11:15Z</time>
      </trkpt>
      <trkpt lat="45.31837" lon="6.04793">
        <ele>1629</ele>
        <time>2021-01-16T09:11:16Z</time>
      </trkpt>
      <trkpt lat="45.31839" lon="6.04793">
        <ele>1629.2</ele>
        <time>2021-01-16T09:11:17Z</time>
      </trkpt>
      <trkpt lat="45.31839" lon="6.04794">
        <ele>1629</ele>
        <time>2021-01-16T09:11:18Z</time>
      </trkpt>
      <trkpt lat="45.3184" lon="6.04794">
        <ele>1629.2</ele>
        <time>2021-01-16T09:11:19Z</time>
      </trkpt>
      <trkpt lat="45.3184" lon="6.04794">
        <ele>1629.2</ele>
        <time>2021-01-16T09:11:20Z</time>
      </trkpt>
      <trkpt lat="45.31841" lon="6.04794">
        <ele>1629.4</ele>
        <time>2021-01-16T09:11:21Z</time>
      </trkpt>
      <trkpt lat="45.31841" lon="6.04795">
        <ele>1629.4</ele>
        <time>2021-01-16T09:11:22Z</time>
      </trkpt>
      <trkpt lat="45.31841" lon="6.04795">
        <ele>1629.6</ele>
        <time>2021-01-16T09:11:23Z</time>
      </trkpt>
      <trkpt lat="45.31841" lon="6.04795">
        <ele>1629.6</ele>
        <time>2021-01-16T09:11:24Z</time>
      </trkpt>
      <trkpt lat="45.31842" lon="6.04796">
        <ele>1629.8</ele>
        <time>2021-01-16T09:11:25Z</time>
      </trkpt>
      <trkpt lat="45.31842" lon="6.04797">
        <ele>1629.8</ele>
        <time>2021-01-16T09:11:26Z</time>
      </trkpt>
      <trkpt lat="45.31843" lon="6.04797">
        <ele>1630</ele>
        <time>2021-01-16T09:11:27Z</time>
      </trkpt>
      <trkpt lat="45.31844" lon="6.04797">
        <ele>1630</ele>
        <time>2021-01-16T09:11:28Z</time>
      </trkpt>
      <trkpt lat="45.31845" lon="6.04798">
        <ele>1630.2</ele>
        <time>2021-01-16T09:11:29Z</time>
      </trkpt>
      <trkpt lat="45.31845" lon="6.04798">
        <ele>1630.4</ele>
        <time>2021-01-16T09:11:30Z</time>
      </trkpt>
      <trkpt lat="45.31846" lon="6.04798">
        <ele>1630.4</ele>
        <time>2021-01-16T09:11:31Z</time>
      </trkpt>
      <trkpt lat="45.31846" lon="6.04799">
        <ele>1630.6</ele>
        <time>2021-01-16T09:11:32Z</time>
      </trkpt>
      <trkpt lat="45.31847" lon="6.04799">
        <ele>1630.6</ele>
        <time>2021-01-16T09:11:33Z</time>
      </trkpt>
      <trkpt lat="45.31846" lon="6.04799">
        <ele>1630.8</ele>
        <time>2021-01-16T09:11:34Z</time>
      </trkpt>
      <trkpt lat="45.31846" lon="6.04799">
        <ele>1630.8</ele>
        <time>2021-01-16T09:11:35Z</time>
      </trkpt>
      <trkpt lat="45.31846" lon="6.048">
        <ele>1630.8</ele>
        <time>2021-01-16T09:11:36Z</time>
      </trkpt>
      <trkpt lat="45.31846" lon="6.048">
        <ele>1630.8</ele>
        <time>2021-01-16T09:11:37Z</time>
      </trkpt>
      <trkpt lat="45.31846" lon="6.048">
        <ele>1630.8</ele>
        <time>2021-01-16T09:11:38Z</time>
      </trkpt>
      <trkpt lat="45.31846" lon="6.048">
        <ele>1630.8</ele>
        <time>2021-01-16T09:11:39Z</time>
      </trkpt>
      <trkpt lat="45.31846" lon="6.048">
        <ele>1630.8</ele>
        <time>2021-01-16T09:11:40Z</time>
      </trkpt>
      <trkpt lat="45.31846" lon="6.048">
        <ele>1630.8</ele>
        <time>2021-01-16T09:11:41Z</time>
      </trkpt>
      <trkpt lat="45.31846" lon="6.048">
        <ele>1630.8</ele>
        <time>2021-01-16T09:11:42Z</time>
      </trkpt>
      <trkpt lat="45.31846" lon="6.048">
        <ele>1630.8</ele>
        <time>2021-01-16T09:11:43Z</time>
      </trkpt>
      <trkpt lat="45.31846" lon="6.048">
        <ele>1631</ele>
        <time>2021-01-16T09:11:44Z</time>
      </trkpt>
      <trkpt lat="45.31846" lon="6.048">
        <ele>1631</ele>
        <time>2021-01-16T09:11:45Z</time>
      </trkpt>
      <trkpt lat="45.31846" lon="6.048">
        <ele>1631</ele>
        <time>2021-01-16T09:11:46Z</time>
      </trkpt>
      <trkpt lat="45.31846" lon="6.04802">
        <ele>1630.8</ele>
        <time>2021-01-16T09:11:47Z</time>
      </trkpt>
      <trkpt lat="45.31847" lon="6.04802">
        <ele>1631</ele>
        <time>2021-01-16T09:11:48Z</time>
      </trkpt>
      <trkpt lat="45.31848" lon="6.04802">
        <ele>1631</ele>
        <time>2021-01-16T09:11:49Z</time>
      </trkpt>
      <trkpt lat="45.31848" lon="6.04803">
        <ele>1631</ele>
        <time>2021-01-16T09:11:50Z</time>
      </trkpt>
      <trkpt lat="45.31848" lon="6.04803">
        <ele>1631</ele>
        <time>2021-01-16T09:11:51Z</time>
      </trkpt>
      <trkpt lat="45.31849" lon="6.04804">
        <ele>1631.2</ele>
        <time>2021-01-16T09:11:52Z</time>
      </trkpt>
      <trkpt lat="45.31849" lon="6.04805">
        <ele>1631.4</ele>
        <time>2021-01-16T09:11:53Z</time>
      </trkpt>
      <trkpt lat="45.3185" lon="6.04806">
        <ele>1631.4</ele>
        <time>2021-01-16T09:11:54Z</time>
      </trkpt>
      <trkpt lat="45.3185" lon="6.04806">
        <ele>1631.6</ele>
        <time>2021-01-16T09:11:55Z</time>
      </trkpt>
      <trkpt lat="45.31851" lon="6.04808">
        <ele>1631.4</ele>
        <time>2021-01-16T09:11:56Z</time>
      </trkpt>
      <trkpt lat="45.31851" lon="6.04808">
        <ele>1631.8</ele>
        <time>2021-01-16T09:11:57Z</time>
      </trkpt>
      <trkpt lat="45.31851" lon="6.04809">
        <ele>1631.8</ele>
        <time>2021-01-16T09:11:58Z</time>
      </trkpt>
      <trkpt lat="45.31851" lon="6.0481">
        <ele>1632</ele>
        <time>2021-01-16T09:11:59Z</time>
      </trkpt>
      <trkpt lat="45.31851" lon="6.0481">
        <ele>1632</ele>
        <time>2021-01-16T09:12:00Z</time>
      </trkpt>
      <trkpt lat="45.31852" lon="6.04811">
        <ele>1632</ele>
        <time>2021-01-16T09:12:01Z</time>
      </trkpt>
      <trkpt lat="45.31852" lon="6.0481">
        <ele>1632.2</ele>
        <time>2021-01-16T09:12:02Z</time>
      </trkpt>
      <trkpt lat="45.31851" lon="6.0481">
        <ele>1632.2</ele>
        <time>2021-01-16T09:12:03Z</time>
      </trkpt>
      <trkpt lat="45.31851" lon="6.04809">
        <ele>1632.2</ele>
        <time>2021-01-16T09:12:04Z</time>
      </trkpt>
      <trkpt lat="45.31851" lon="6.04809">
        <ele>1632.2</ele>
        <time>2021-01-16T09:12:05Z</time>
      </trkpt>
      <trkpt lat="45.31851" lon="6.04809">
        <ele>1632.2</ele>
        <time>2021-01-16T09:12:06Z</time>
      </trkpt>
      <trkpt lat="45.31851" lon="6.04809">
        <ele>1632</ele>
        <time>2021-01-16T09:12:07Z</time>
      </trkpt>
      <trkpt lat="45.31851" lon="6.04809">
        <ele>1632.2</ele>
        <time>2021-01-16T09:12:08Z</time>
      </trkpt>
      <trkpt lat="45.31851" lon="6.04809">
        <ele>1632.2</ele>
        <time>2021-01-16T09:12:09Z</time>
      </trkpt>
      <trkpt lat="45.31851" lon="6.04809">
        <ele>1632.2</ele>
        <time>2021-01-16T09:12:10Z</time>
      </trkpt>
      <trkpt lat="45.31851" lon="6.04809">
        <ele>1632.2</ele>
        <time>2021-01-16T09:12:11Z</time>
      </trkpt>
      <trkpt lat="45.31851" lon="6.04809">
        <ele>1632.2</ele>
        <time>2021-01-16T09:12:12Z</time>
      </trkpt>
      <trkpt lat="45.31851" lon="6.04809">
        <ele>1632.2</ele>
        <time>2021-01-16T09:12:13Z</time>
      </trkpt>
      <trkpt lat="45.31851" lon="6.04809">
        <ele>1632.2</ele>
        <time>2021-01-16T09:12:14Z</time>
      </trkpt>
      <trkpt lat="45.31851" lon="6.04809">
        <ele>1632.2</ele>
        <time>2021-01-16T09:12:15Z</time>
      </trkpt>
      <trkpt lat="45.31851" lon="6.04809">
        <ele>1632.2</ele>
        <time>2021-01-16T09:12:16Z</time>
      </trkpt>
      <trkpt lat="45.31851" lon="6.04809">
        <ele>1632.2</ele>
        <time>2021-01-16T09:12:17Z</time>
      </trkpt>
      <trkpt lat="45.31851" lon="6.04809">
        <ele>1632.2</ele>
        <time>2021-01-16T09:12:18Z</time>
      </trkpt>
      <trkpt lat="45.31851" lon="6.04809">
        <ele>1632</ele>
        <time>2021-01-16T09:12:19Z</time>
      </trkpt>
      <trkpt lat="45.31851" lon="6.04809">
        <ele>1632</ele>
        <time>2021-01-16T09:12:20Z</time>
      </trkpt>
      <trkpt lat="45.31851" lon="6.04809">
        <ele>1632</ele>
        <time>2021-01-16T09:12:21Z</time>
      </trkpt>
      <trkpt lat="45.31851" lon="6.04809">
        <ele>1632</ele>
        <time>2021-01-16T09:12:22Z</time>
      </trkpt>
      <trkpt lat="45.31851" lon="6.04809">
        <ele>1632</ele>
        <time>2021-01-16T09:12:23Z</time>
      </trkpt>
      <trkpt lat="45.31851" lon="6.04809">
        <ele>1632</ele>
        <time>2021-01-16T09:12:24Z</time>
      </trkpt>
      <trkpt lat="45.31851" lon="6.04809">
        <ele>1632</ele>
        <time>2021-01-16T09:12:25Z</time>
      </trkpt>
      <trkpt lat="45.31851" lon="6.04809">
        <ele>1632</ele>
        <time>2021-01-16T09:12:26Z</time>
      </trkpt>
      <trkpt lat="45.31851" lon="6.04809">
        <ele>1632</ele>
        <time>2021-01-16T09:12:27Z</time>
      </trkpt>
      <trkpt lat="45.31851" lon="6.04809">
        <ele>1632</ele>
        <time>2021-01-16T09:12:28Z</time>
      </trkpt>
      <trkpt lat="45.31851" lon="6.04809">
        <ele>1632</ele>
        <time>2021-01-16T09:12:29Z</time>
      </trkpt>
      <trkpt lat="45.31851" lon="6.04809">
        <ele>1632</ele>
        <time>2021-01-16T09:12:30Z</time>
      </trkpt>
      <trkpt lat="45.31851" lon="6.04809">
        <ele>1632</ele>
        <time>2021-01-16T09:12:31Z</time>
      </trkpt>
      <trkpt lat="45.31851" lon="6.04809">
        <ele>1632</ele>
        <time>2021-01-16T09:12:32Z</time>
      </trkpt>
      <trkpt lat="45.31851" lon="6.04809">
        <ele>1632</ele>
        <time>2021-01-16T09:12:33Z</time>
      </trkpt>
      <trkpt lat="45.31851" lon="6.04809">
        <ele>1632</ele>
        <time>2021-01-16T09:12:34Z</time>
      </trkpt>
      <trkpt lat="45.31851" lon="6.04809">
        <ele>1632</ele>
        <time>2021-01-16T09:12:35Z</time>
      </trkpt>
      <trkpt lat="45.31851" lon="6.04809">
        <ele>1632</ele>
        <time>2021-01-16T09:12:36Z</time>
      </trkpt>
      <trkpt lat="45.31851" lon="6.04809">
        <ele>1632</ele>
        <time>2021-01-16T09:12:37Z</time>
      </trkpt>
      <trkpt lat="45.31851" lon="6.04809">
        <ele>1632</ele>
        <time>2021-01-16T09:12:38Z</time>
      </trkpt>
      <trkpt lat="45.31851" lon="6.04809">
        <ele>1632</ele>
        <time>2021-01-16T09:12:39Z</time>
      </trkpt>
      <trkpt lat="45.31851" lon="6.04809">
        <ele>1632</ele>
        <time>2021-01-16T09:12:40Z</time>
      </trkpt>
      <trkpt lat="45.3185" lon="6.04809">
        <ele>1632</ele>
        <time>2021-01-16T09:12:41Z</time>
      </trkpt>
      <trkpt lat="45.31849" lon="6.0481">
        <ele>1632.2</ele>
        <time>2021-01-16T09:12:42Z</time>
      </trkpt>
      <trkpt lat="45.31848" lon="6.0481">
        <ele>1632.2</ele>
        <time>2021-01-16T09:12:43Z</time>
      </trkpt>
      <trkpt lat="45.31848" lon="6.0481">
        <ele>1632.2</ele>
        <time>2021-01-16T09:12:44Z</time>
      </trkpt>
      <trkpt lat="45.31847" lon="6.0481">
        <ele>1632.2</ele>
        <time>2021-01-16T09:12:45Z</time>
      </trkpt>
      <trkpt lat="45.31847" lon="6.0481">
        <ele>1632.4</ele>
        <time>2021-01-16T09:12:46Z</time>
      </trkpt>
      <trkpt lat="45.31846" lon="6.04809">
        <ele>1632.6</ele>
        <time>2021-01-16T09:12:47Z</time>
      </trkpt>
      <trkpt lat="45.31846" lon="6.04809">
        <ele>1632.6</ele>
        <time>2021-01-16T09:12:48Z</time>
      </trkpt>
      <trkpt lat="45.31846" lon="6.04809">
        <ele>1632.6</ele>
        <time>2021-01-16T09:12:49Z</time>
      </trkpt>
      <trkpt lat="45.31846" lon="6.04809">
        <ele>1632.6</ele>
        <time>2021-01-16T09:12:50Z</time>
      </trkpt>
      <trkpt lat="45.31846" lon="6.04809">
        <ele>1632.6</ele>
        <time>2021-01-16T09:12:51Z</time>
      </trkpt>
      <trkpt lat="45.31846" lon="6.04809">
        <ele>1632.6</ele>
        <time>2021-01-16T09:12:52Z</time>
      </trkpt>
      <trkpt lat="45.31846" lon="6.04809">
        <ele>1632.6</ele>
        <time>2021-01-16T09:12:53Z</time>
      </trkpt>
      <trkpt lat="45.31846" lon="6.04809">
        <ele>1632.6</ele>
        <time>2021-01-16T09:12:54Z</time>
      </trkpt>
      <trkpt lat="45.31846" lon="6.04809">
        <ele>1632.6</ele>
        <time>2021-01-16T09:12:55Z</time>
      </trkpt>
      <trkpt lat="45.31846" lon="6.04809">
        <ele>1632.6</ele>
        <time>2021-01-16T09:12:56Z</time>
      </trkpt>
      <trkpt lat="45.31846" lon="6.04809">
        <ele>1632.6</ele>
        <time>2021-01-16T09:12:57Z</time>
      </trkpt>
      <trkpt lat="45.31846" lon="6.04809">
        <ele>1632.6</ele>
        <time>2021-01-16T09:12:58Z</time>
      </trkpt>
      <trkpt lat="45.31846" lon="6.04809">
        <ele>1632.6</ele>
        <time>2021-01-16T09:12:59Z</time>
      </trkpt>
      <trkpt lat="45.31846" lon="6.04809">
        <ele>1632.6</ele>
        <time>2021-01-16T09:13:00Z</time>
      </trkpt>
      <trkpt lat="45.31846" lon="6.04809">
        <ele>1632.6</ele>
        <time>2021-01-16T09:13:01Z</time>
      </trkpt>
      <trkpt lat="45.31846" lon="6.04809">
        <ele>1632.6</ele>
        <time>2021-01-16T09:13:02Z</time>
      </trkpt>
      <trkpt lat="45.31846" lon="6.04809">
        <ele>1632.6</ele>
        <time>2021-01-16T09:13:03Z</time>
      </trkpt>
      <trkpt lat="45.31846" lon="6.04809">
        <ele>1632.6</ele>
        <time>2021-01-16T09:13:04Z</time>
      </trkpt>
      <trkpt lat="45.31846" lon="6.04809">
        <ele>1632.6</ele>
        <time>2021-01-16T09:13:05Z</time>
      </trkpt>
      <trkpt lat="45.31846" lon="6.04809">
        <ele>1632.6</ele>
        <time>2021-01-16T09:13:06Z</time>
      </trkpt>
      <trkpt lat="45.31846" lon="6.04809">
        <ele>1632.4</ele>
        <time>2021-01-16T09:13:07Z</time>
      </trkpt>
      <trkpt lat="45.31846" lon="6.04809">
        <ele>1632.4</ele>
        <time>2021-01-16T09:13:08Z</time>
      </trkpt>
      <trkpt lat="45.31846" lon="6.04809">
        <ele>1632.4</ele>
        <time>2021-01-16T09:13:09Z</time>
      </trkpt>
      <trkpt lat="45.31846" lon="6.04809">
        <ele>1632.4</ele>
        <time>2021-01-16T09:13:10Z</time>
      </trkpt>
      <trkpt lat="45.31846" lon="6.04809">
        <ele>1632.4</ele>
        <time>2021-01-16T09:13:11Z</time>
      </trkpt>
      <trkpt lat="45.31846" lon="6.04809">
        <ele>1632.4</ele>
        <time>2021-01-16T09:13:12Z</time>
      </trkpt>
      <trkpt lat="45.31846" lon="6.04809">
        <ele>1632.6</ele>
        <time>2021-01-16T09:13:13Z</time>
      </trkpt>
      <trkpt lat="45.31846" lon="6.04809">
        <ele>1632.6</ele>
        <time>2021-01-16T09:13:14Z</time>
      </trkpt>
      <trkpt lat="45.31846" lon="6.04809">
        <ele>1632.4</ele>
        <time>2021-01-16T09:13:15Z</time>
      </trkpt>
      <trkpt lat="45.31846" lon="6.04809">
        <ele>1632.4</ele>
        <time>2021-01-16T09:13:16Z</time>
      </trkpt>
      <trkpt lat="45.31846" lon="6.04809">
        <ele>1632.4</ele>
        <time>2021-01-16T09:13:17Z</time>
      </trkpt>
      <trkpt lat="45.31846" lon="6.04809">
        <ele>1632.4</ele>
        <time>2021-01-16T09:13:18Z</time>
      </trkpt>
      <trkpt lat="45.31846" lon="6.04809">
        <ele>1632.4</ele>
        <time>2021-01-16T09:13:19Z</time>
      </trkpt>
      <trkpt lat="45.31846" lon="6.04809">
        <ele>1632.4</ele>
        <time>2021-01-16T09:13:20Z</time>
      </trkpt>
      <trkpt lat="45.31846" lon="6.04809">
        <ele>1632.4</ele>
        <time>2021-01-16T09:13:21Z</time>
      </trkpt>
      <trkpt lat="45.31846" lon="6.04809">
        <ele>1632.4</ele>
        <time>2021-01-16T09:13:22Z</time>
      </trkpt>
      <trkpt lat="45.31846" lon="6.04809">
        <ele>1632.4</ele>
        <time>2021-01-16T09:13:23Z</time>
      </trkpt>
      <trkpt lat="45.31846" lon="6.04809">
        <ele>1632.4</ele>
        <time>2021-01-16T09:13:24Z</time>
      </trkpt>
      <trkpt lat="45.31846" lon="6.04809">
        <ele>1632.4</ele>
        <time>2021-01-16T09:13:25Z</time>
      </trkpt>
      <trkpt lat="45.31846" lon="6.04809">
        <ele>1632.4</ele>
        <time>2021-01-16T09:13:26Z</time>
      </trkpt>
      <trkpt lat="45.31846" lon="6.04809">
        <ele>1632.4</ele>
        <time>2021-01-16T09:13:27Z</time>
      </trkpt>
      <trkpt lat="45.31846" lon="6.04809">
        <ele>1632.4</ele>
        <time>2021-01-16T09:13:28Z</time>
      </trkpt>
      <trkpt lat="45.31846" lon="6.04809">
        <ele>1632.4</ele>
        <time>2021-01-16T09:13:29Z</time>
      </trkpt>
      <trkpt lat="45.31846" lon="6.04809">
        <ele>1632.4</ele>
        <time>2021-01-16T09:13:30Z</time>
      </trkpt>
      <trkpt lat="45.31846" lon="6.04809">
        <ele>1632.2</ele>
        <time>2021-01-16T09:13:31Z</time>
      </trkpt>
      <trkpt lat="45.31846" lon="6.04809">
        <ele>1632.2</ele>
        <time>2021-01-16T09:13:32Z</time>
      </trkpt>
      <trkpt lat="45.31846" lon="6.04809">
        <ele>1632.2</ele>
        <time>2021-01-16T09:13:33Z</time>
      </trkpt>
      <trkpt lat="45.31846" lon="6.04809">
        <ele>1632.2</ele>
        <time>2021-01-16T09:13:34Z</time>
      </trkpt>
      <trkpt lat="45.31846" lon="6.04809">
        <ele>1632.2</ele>
        <time>2021-01-16T09:13:35Z</time>
      </trkpt>
      <trkpt lat="45.31846" lon="6.04809">
        <ele>1632.2</ele>
        <time>2021-01-16T09:13:36Z</time>
      </trkpt>
      <trkpt lat="45.31846" lon="6.04809">
        <ele>1632.2</ele>
        <time>2021-01-16T09:13:37Z</time>
      </trkpt>
      <trkpt lat="45.31846" lon="6.04809">
        <ele>1632.2</ele>
        <time>2021-01-16T09:13:38Z</time>
      </trkpt>
      <trkpt lat="45.31846" lon="6.04809">
        <ele>1632.2</ele>
        <time>2021-01-16T09:13:39Z</time>
      </trkpt>
      <trkpt lat="45.31846" lon="6.04809">
        <ele>1632.2</ele>
        <time>2021-01-16T09:13:40Z</time>
      </trkpt>
      <trkpt lat="45.31846" lon="6.04809">
        <ele>1632.2</ele>
        <time>2021-01-16T09:13:41Z</time>
      </trkpt>
      <trkpt lat="45.31846" lon="6.04809">
        <ele>1632.2</ele>
        <time>2021-01-16T09:13:42Z</time>
      </trkpt>
      <trkpt lat="45.31846" lon="6.04809">
        <ele>1632.2</ele>
        <time>2021-01-16T09:13:43Z</time>
      </trkpt>
      <trkpt lat="45.31846" lon="6.04809">
        <ele>1632.2</ele>
        <time>2021-01-16T09:13:44Z</time>
      </trkpt>
      <trkpt lat="45.31846" lon="6.04809">
        <ele>1632.2</ele>
        <time>2021-01-16T09:13:45Z</time>
      </trkpt>
      <trkpt lat="45.31846" lon="6.04809">
        <ele>1632.2</ele>
        <time>2021-01-16T09:13:46Z</time>
      </trkpt>
      <trkpt lat="45.31846" lon="6.04809">
        <ele>1632.4</ele>
        <time>2021-01-16T09:13:47Z</time>
      </trkpt>
      <trkpt lat="45.31846" lon="6.04809">
        <ele>1632.4</ele>
        <time>2021-01-16T09:13:48Z</time>
      </trkpt>
      <trkpt lat="45.31846" lon="6.04809">
        <ele>1632.4</ele>
        <time>2021-01-16T09:13:49Z</time>
      </trkpt>
      <trkpt lat="45.31846" lon="6.04809">
        <ele>1632.4</ele>
        <time>2021-01-16T09:13:50Z</time>
      </trkpt>
      <trkpt lat="45.31846" lon="6.04809">
        <ele>1632.4</ele>
        <time>2021-01-16T09:13:51Z</time>
      </trkpt>
      <trkpt lat="45.31846" lon="6.04809">
        <ele>1632.2</ele>
        <time>2021-01-16T09:13:52Z</time>
      </trkpt>
      <trkpt lat="45.31846" lon="6.04809">
        <ele>1632.2</ele>
        <time>2021-01-16T09:13:53Z</time>
      </trkpt>
      <trkpt lat="45.31846" lon="6.04809">
        <ele>1632</ele>
        <time>2021-01-16T09:13:54Z</time>
      </trkpt>
      <trkpt lat="45.31845" lon="6.04809">
        <ele>1632.2</ele>
        <time>2021-01-16T09:13:55Z</time>
      </trkpt>
      <trkpt lat="45.31844" lon="6.04809">
        <ele>1632.2</ele>
        <time>2021-01-16T09:13:56Z</time>
      </trkpt>
      <trkpt lat="45.31844" lon="6.04809">
        <ele>1632.4</ele>
        <time>2021-01-16T09:13:57Z</time>
      </trkpt>
      <trkpt lat="45.31843" lon="6.04809">
        <ele>1632.2</ele>
        <time>2021-01-16T09:13:58Z</time>
      </trkpt>
      <trkpt lat="45.31842" lon="6.04809">
        <ele>1632.4</ele>
        <time>2021-01-16T09:13:59Z</time>
      </trkpt>
      <trkpt lat="45.31842" lon="6.04809">
        <ele>1632.6</ele>
        <time>2021-01-16T09:14:00Z</time>
      </trkpt>
      <trkpt lat="45.31841" lon="6.04809">
        <ele>1632.6</ele>
        <time>2021-01-16T09:14:01Z</time>
      </trkpt>
      <trkpt lat="45.3184" lon="6.04809">
        <ele>1632.6</ele>
        <time>2021-01-16T09:14:02Z</time>
      </trkpt>
      <trkpt lat="45.3184" lon="6.04809">
        <ele>1632.8</ele>
        <time>2021-01-16T09:14:03Z</time>
      </trkpt>
      <trkpt lat="45.31839" lon="6.04809">
        <ele>1633</ele>
        <time>2021-01-16T09:14:04Z</time>
      </trkpt>
      <trkpt lat="45.31838" lon="6.04809">
        <ele>1633</ele>
        <time>2021-01-16T09:14:05Z</time>
      </trkpt>
      <trkpt lat="45.31837" lon="6.04809">
        <ele>1633</ele>
        <time>2021-01-16T09:14:06Z</time>
      </trkpt>
      <trkpt lat="45.31837" lon="6.04809">
        <ele>1633</ele>
        <time>2021-01-16T09:14:07Z</time>
      </trkpt>
      <trkpt lat="45.31836" lon="6.04809">
        <ele>1633.2</ele>
        <time>2021-01-16T09:14:08Z</time>
      </trkpt>
      <trkpt lat="45.31835" lon="6.04809">
        <ele>1633.2</ele>
        <time>2021-01-16T09:14:09Z</time>
      </trkpt>
      <trkpt lat="45.31835" lon="6.04809">
        <ele>1633.6</ele>
        <time>2021-01-16T09:14:10Z</time>
      </trkpt>
      <trkpt lat="45.31834" lon="6.04808">
        <ele>1633.4</ele>
        <time>2021-01-16T09:14:11Z</time>
      </trkpt>
      <trkpt lat="45.31833" lon="6.04808">
        <ele>1633.6</ele>
        <time>2021-01-16T09:14:12Z</time>
      </trkpt>
      <trkpt lat="45.31832" lon="6.04808">
        <ele>1634</ele>
        <time>2021-01-16T09:14:13Z</time>
      </trkpt>
      <trkpt lat="45.31831" lon="6.04808">
        <ele>1634.2</ele>
        <time>2021-01-16T09:14:14Z</time>
      </trkpt>
      <trkpt lat="45.31831" lon="6.04808">
        <ele>1634.2</ele>
        <time>2021-01-16T09:14:15Z</time>
      </trkpt>
      <trkpt lat="45.31831" lon="6.04808">
        <ele>1634.2</ele>
        <time>2021-01-16T09:14:16Z</time>
      </trkpt>
      <trkpt lat="45.31831" lon="6.04808">
        <ele>1634.4</ele>
        <time>2021-01-16T09:14:17Z</time>
      </trkpt>
      <trkpt lat="45.31831" lon="6.04808">
        <ele>1634.4</ele>
        <time>2021-01-16T09:14:18Z</time>
      </trkpt>
      <trkpt lat="45.3183" lon="6.04807">
        <ele>1634.6</ele>
        <time>2021-01-16T09:14:19Z</time>
      </trkpt>
      <trkpt lat="45.31829" lon="6.04807">
        <ele>1634.6</ele>
        <time>2021-01-16T09:14:20Z</time>
      </trkpt>
      <trkpt lat="45.31829" lon="6.04808">
        <ele>1634.8</ele>
        <time>2021-01-16T09:14:21Z</time>
      </trkpt>
      <trkpt lat="45.31828" lon="6.04808">
        <ele>1634.6</ele>
        <time>2021-01-16T09:14:22Z</time>
      </trkpt>
      <trkpt lat="45.31828" lon="6.04809">
        <ele>1635</ele>
        <time>2021-01-16T09:14:23Z</time>
      </trkpt>
      <trkpt lat="45.31827" lon="6.04809">
        <ele>1635</ele>
        <time>2021-01-16T09:14:24Z</time>
      </trkpt>
      <trkpt lat="45.31826" lon="6.04809">
        <ele>1635.2</ele>
        <time>2021-01-16T09:14:25Z</time>
      </trkpt>
      <trkpt lat="45.31825" lon="6.04809">
        <ele>1635.2</ele>
        <time>2021-01-16T09:14:26Z</time>
      </trkpt>
      <trkpt lat="45.31824" lon="6.04809">
        <ele>1635.4</ele>
        <time>2021-01-16T09:14:27Z</time>
      </trkpt>
      <trkpt lat="45.31823" lon="6.04809">
        <ele>1635.4</ele>
        <time>2021-01-16T09:14:28Z</time>
      </trkpt>
      <trkpt lat="45.31822" lon="6.04809">
        <ele>1635.6</ele>
        <time>2021-01-16T09:14:29Z</time>
      </trkpt>
      <trkpt lat="45.31821" lon="6.04808">
        <ele>1635.6</ele>
        <time>2021-01-16T09:14:30Z</time>
      </trkpt>
      <trkpt lat="45.31821" lon="6.04808">
        <ele>1635.6</ele>
        <time>2021-01-16T09:14:31Z</time>
      </trkpt>
      <trkpt lat="45.3182" lon="6.04808">
        <ele>1635.6</ele>
        <time>2021-01-16T09:14:32Z</time>
      </trkpt>
      <trkpt lat="45.31819" lon="6.04808">
        <ele>1635.8</ele>
        <time>2021-01-16T09:14:33Z</time>
      </trkpt>
      <trkpt lat="45.31818" lon="6.04808">
        <ele>1635.8</ele>
        <time>2021-01-16T09:14:34Z</time>
      </trkpt>
      <trkpt lat="45.31818" lon="6.04807">
        <ele>1636</ele>
        <time>2021-01-16T09:14:35Z</time>
      </trkpt>
      <trkpt lat="45.31817" lon="6.04807">
        <ele>1636</ele>
        <time>2021-01-16T09:14:36Z</time>
      </trkpt>
      <trkpt lat="45.31816" lon="6.04807">
        <ele>1636.2</ele>
        <time>2021-01-16T09:14:37Z</time>
      </trkpt>
      <trkpt lat="45.31815" lon="6.04807">
        <ele>1636.2</ele>
        <time>2021-01-16T09:14:38Z</time>
      </trkpt>
      <trkpt lat="45.31815" lon="6.04807">
        <ele>1636.4</ele>
        <time>2021-01-16T09:14:39Z</time>
      </trkpt>
      <trkpt lat="45.31814" lon="6.04806">
        <ele>1636.6</ele>
        <time>2021-01-16T09:14:40Z</time>
      </trkpt>
      <trkpt lat="45.31814" lon="6.04806">
        <ele>1636.6</ele>
        <time>2021-01-16T09:14:41Z</time>
      </trkpt>
      <trkpt lat="45.31813" lon="6.04806">
        <ele>1636.6</ele>
        <time>2021-01-16T09:14:42Z</time>
      </trkpt>
      <trkpt lat="45.31812" lon="6.04805">
        <ele>1636.8</ele>
        <time>2021-01-16T09:14:43Z</time>
      </trkpt>
      <trkpt lat="45.31812" lon="6.04805">
        <ele>1637</ele>
        <time>2021-01-16T09:14:44Z</time>
      </trkpt>
      <trkpt lat="45.31811" lon="6.04805">
        <ele>1637.2</ele>
        <time>2021-01-16T09:14:45Z</time>
      </trkpt>
      <trkpt lat="45.31811" lon="6.04804">
        <ele>1637.2</ele>
        <time>2021-01-16T09:14:46Z</time>
      </trkpt>
      <trkpt lat="45.3181" lon="6.04804">
        <ele>1637.6</ele>
        <time>2021-01-16T09:14:47Z</time>
      </trkpt>
      <trkpt lat="45.3181" lon="6.04804">
        <ele>1637.6</ele>
        <time>2021-01-16T09:14:48Z</time>
      </trkpt>
      <trkpt lat="45.31809" lon="6.04804">
        <ele>1637.8</ele>
        <time>2021-01-16T09:14:49Z</time>
      </trkpt>
      <trkpt lat="45.31808" lon="6.04804">
        <ele>1638</ele>
        <time>2021-01-16T09:14:50Z</time>
      </trkpt>
      <trkpt lat="45.31808" lon="6.04804">
        <ele>1638</ele>
        <time>2021-01-16T09:14:51Z</time>
      </trkpt>
      <trkpt lat="45.31807" lon="6.04804">
        <ele>1638.2</ele>
        <time>2021-01-16T09:14:52Z</time>
      </trkpt>
      <trkpt lat="45.31807" lon="6.04803">
        <ele>1638.2</ele>
        <time>2021-01-16T09:14:53Z</time>
      </trkpt>
      <trkpt lat="45.31806" lon="6.04803">
        <ele>1638.4</ele>
        <time>2021-01-16T09:14:54Z</time>
      </trkpt>
      <trkpt lat="45.31805" lon="6.04803">
        <ele>1638.4</ele>
        <time>2021-01-16T09:14:55Z</time>
      </trkpt>
      <trkpt lat="45.31805" lon="6.04802">
        <ele>1638.6</ele>
        <time>2021-01-16T09:14:56Z</time>
      </trkpt>
      <trkpt lat="45.31804" lon="6.04802">
        <ele>1638.6</ele>
        <time>2021-01-16T09:14:57Z</time>
      </trkpt>
      <trkpt lat="45.31803" lon="6.04802">
        <ele>1638.8</ele>
        <time>2021-01-16T09:14:58Z</time>
      </trkpt>
      <trkpt lat="45.31803" lon="6.04802">
        <ele>1638.8</ele>
        <time>2021-01-16T09:14:59Z</time>
      </trkpt>
      <trkpt lat="45.31802" lon="6.04802">
        <ele>1639</ele>
        <time>2021-01-16T09:15:00Z</time>
      </trkpt>
      <trkpt lat="45.31801" lon="6.04801">
        <ele>1639.2</ele>
        <time>2021-01-16T09:15:01Z</time>
      </trkpt>
      <trkpt lat="45.318" lon="6.04801">
        <ele>1639</ele>
        <time>2021-01-16T09:15:02Z</time>
      </trkpt>
      <trkpt lat="45.318" lon="6.04801">
        <ele>1639.2</ele>
        <time>2021-01-16T09:15:03Z</time>
      </trkpt>
      <trkpt lat="45.31798" lon="6.04802">
        <ele>1639.2</ele>
        <time>2021-01-16T09:15:04Z</time>
      </trkpt>
      <trkpt lat="45.31798" lon="6.04802">
        <ele>1639.2</ele>
        <time>2021-01-16T09:15:05Z</time>
      </trkpt>
      <trkpt lat="45.31796" lon="6.04802">
        <ele>1639.2</ele>
        <time>2021-01-16T09:15:06Z</time>
      </trkpt>
      <trkpt lat="45.31795" lon="6.04802">
        <ele>1639.2</ele>
        <time>2021-01-16T09:15:07Z</time>
      </trkpt>
      <trkpt lat="45.31794" lon="6.04802">
        <ele>1639.2</ele>
        <time>2021-01-16T09:15:08Z</time>
      </trkpt>
      <trkpt lat="45.31793" lon="6.04802">
        <ele>1639.2</ele>
        <time>2021-01-16T09:15:09Z</time>
      </trkpt>
      <trkpt lat="45.31793" lon="6.04803">
        <ele>1639.2</ele>
        <time>2021-01-16T09:15:10Z</time>
      </trkpt>
      <trkpt lat="45.31792" lon="6.04803">
        <ele>1639.4</ele>
        <time>2021-01-16T09:15:11Z</time>
      </trkpt>
      <trkpt lat="45.31791" lon="6.04804">
        <ele>1639.4</ele>
        <time>2021-01-16T09:15:12Z</time>
      </trkpt>
      <trkpt lat="45.3179" lon="6.04804">
        <ele>1639.6</ele>
        <time>2021-01-16T09:15:13Z</time>
      </trkpt>
      <trkpt lat="45.3179" lon="6.04805">
        <ele>1639.6</ele>
        <time>2021-01-16T09:15:14Z</time>
      </trkpt>
      <trkpt lat="45.31789" lon="6.04806">
        <ele>1639.6</ele>
        <time>2021-01-16T09:15:15Z</time>
      </trkpt>
      <trkpt lat="45.31788" lon="6.04806">
        <ele>1639.8</ele>
        <time>2021-01-16T09:15:16Z</time>
      </trkpt>
      <trkpt lat="45.31788" lon="6.04807">
        <ele>1640</ele>
        <time>2021-01-16T09:15:17Z</time>
      </trkpt>
      <trkpt lat="45.31787" lon="6.04808">
        <ele>1640</ele>
        <time>2021-01-16T09:15:18Z</time>
      </trkpt>
      <trkpt lat="45.31786" lon="6.04808">
        <ele>1640.2</ele>
        <time>2021-01-16T09:15:19Z</time>
      </trkpt>
      <trkpt lat="45.31786" lon="6.0481">
        <ele>1640.2</ele>
        <time>2021-01-16T09:15:20Z</time>
      </trkpt>
      <trkpt lat="45.31786" lon="6.04811">
        <ele>1640.4</ele>
        <time>2021-01-16T09:15:21Z</time>
      </trkpt>
      <trkpt lat="45.31785" lon="6.04812">
        <ele>1640.6</ele>
        <time>2021-01-16T09:15:22Z</time>
      </trkpt>
      <trkpt lat="45.31784" lon="6.04813">
        <ele>1640.6</ele>
        <time>2021-01-16T09:15:23Z</time>
      </trkpt>
      <trkpt lat="45.31784" lon="6.04813">
        <ele>1640.8</ele>
        <time>2021-01-16T09:15:24Z</time>
      </trkpt>
      <trkpt lat="45.31783" lon="6.04814">
        <ele>1641</ele>
        <time>2021-01-16T09:15:25Z</time>
      </trkpt>
      <trkpt lat="45.31782" lon="6.04814">
        <ele>1641</ele>
        <time>2021-01-16T09:15:26Z</time>
      </trkpt>
      <trkpt lat="45.31782" lon="6.04815">
        <ele>1641.2</ele>
        <time>2021-01-16T09:15:27Z</time>
      </trkpt>
      <trkpt lat="45.31781" lon="6.04815">
        <ele>1641.4</ele>
        <time>2021-01-16T09:15:28Z</time>
      </trkpt>
      <trkpt lat="45.31781" lon="6.04816">
        <ele>1641.6</ele>
        <time>2021-01-16T09:15:29Z</time>
      </trkpt>
      <trkpt lat="45.31781" lon="6.04817">
        <ele>1641.8</ele>
        <time>2021-01-16T09:15:30Z</time>
      </trkpt>
      <trkpt lat="45.3178" lon="6.04818">
        <ele>1642</ele>
        <time>2021-01-16T09:15:31Z</time>
      </trkpt>
      <trkpt lat="45.3178" lon="6.04818">
        <ele>1642</ele>
        <time>2021-01-16T09:15:32Z</time>
      </trkpt>
      <trkpt lat="45.3178" lon="6.04819">
        <ele>1642.4</ele>
        <time>2021-01-16T09:15:33Z</time>
      </trkpt>
      <trkpt lat="45.31779" lon="6.04819">
        <ele>1642.6</ele>
        <time>2021-01-16T09:15:34Z</time>
      </trkpt>
      <trkpt lat="45.31779" lon="6.04819">
        <ele>1642.8</ele>
        <time>2021-01-16T09:15:35Z</time>
      </trkpt>
      <trkpt lat="45.31778" lon="6.0482">
        <ele>1643</ele>
        <time>2021-01-16T09:15:36Z</time>
      </trkpt>
      <trkpt lat="45.31777" lon="6.0482">
        <ele>1643.2</ele>
        <time>2021-01-16T09:15:37Z</time>
      </trkpt>
      <trkpt lat="45.31777" lon="6.04819">
        <ele>1643.4</ele>
        <time>2021-01-16T09:15:38Z</time>
      </trkpt>
      <trkpt lat="45.31776" lon="6.04819">
        <ele>1643.6</ele>
        <time>2021-01-16T09:15:39Z</time>
      </trkpt>
      <trkpt lat="45.31776" lon="6.0482">
        <ele>1643.8</ele>
        <time>2021-01-16T09:15:40Z</time>
      </trkpt>
      <trkpt lat="45.31775" lon="6.0482">
        <ele>1644</ele>
        <time>2021-01-16T09:15:41Z</time>
      </trkpt>
      <trkpt lat="45.31775" lon="6.0482">
        <ele>1644.2</ele>
        <time>2021-01-16T09:15:42Z</time>
      </trkpt>
      <trkpt lat="45.31775" lon="6.04821">
        <ele>1644.4</ele>
        <time>2021-01-16T09:15:43Z</time>
      </trkpt>
      <trkpt lat="45.31774" lon="6.04822">
        <ele>1644.6</ele>
        <time>2021-01-16T09:15:44Z</time>
      </trkpt>
      <trkpt lat="45.31774" lon="6.04823">
        <ele>1644.6</ele>
        <time>2021-01-16T09:15:45Z</time>
      </trkpt>
      <trkpt lat="45.31775" lon="6.04824">
        <ele>1645</ele>
        <time>2021-01-16T09:15:46Z</time>
      </trkpt>
      <trkpt lat="45.31775" lon="6.04824">
        <ele>1645</ele>
        <time>2021-01-16T09:15:47Z</time>
      </trkpt>
      <trkpt lat="45.31775" lon="6.04825">
        <ele>1645.4</ele>
        <time>2021-01-16T09:15:48Z</time>
      </trkpt>
      <trkpt lat="45.31775" lon="6.04826">
        <ele>1645.6</ele>
        <time>2021-01-16T09:15:49Z</time>
      </trkpt>
      <trkpt lat="45.31774" lon="6.04826">
        <ele>1645.8</ele>
        <time>2021-01-16T09:15:50Z</time>
      </trkpt>
      <trkpt lat="45.31774" lon="6.04826">
        <ele>1646</ele>
        <time>2021-01-16T09:15:51Z</time>
      </trkpt>
      <trkpt lat="45.31774" lon="6.04827">
        <ele>1646.2</ele>
        <time>2021-01-16T09:15:52Z</time>
      </trkpt>
      <trkpt lat="45.31774" lon="6.04827">
        <ele>1646.2</ele>
        <time>2021-01-16T09:15:53Z</time>
      </trkpt>
      <trkpt lat="45.31774" lon="6.04827">
        <ele>1646.4</ele>
        <time>2021-01-16T09:15:54Z</time>
      </trkpt>
      <trkpt lat="45.31773" lon="6.04827">
        <ele>1646.4</ele>
        <time>2021-01-16T09:15:55Z</time>
      </trkpt>
      <trkpt lat="45.31772" lon="6.04829">
        <ele>1646.6</ele>
        <time>2021-01-16T09:15:56Z</time>
      </trkpt>
      <trkpt lat="45.31771" lon="6.04829">
        <ele>1646.6</ele>
        <time>2021-01-16T09:15:57Z</time>
      </trkpt>
      <trkpt lat="45.3177" lon="6.0483">
        <ele>1647</ele>
        <time>2021-01-16T09:15:58Z</time>
      </trkpt>
      <trkpt lat="45.3177" lon="6.04831">
        <ele>1647.2</ele>
        <time>2021-01-16T09:15:59Z</time>
      </trkpt>
      <trkpt lat="45.31769" lon="6.04832">
        <ele>1647</ele>
        <time>2021-01-16T09:16:00Z</time>
      </trkpt>
      <trkpt lat="45.31769" lon="6.04833">
        <ele>1647.4</ele>
        <time>2021-01-16T09:16:01Z</time>
      </trkpt>
      <trkpt lat="45.31768" lon="6.04833">
        <ele>1647.4</ele>
        <time>2021-01-16T09:16:02Z</time>
      </trkpt>
      <trkpt lat="45.31768" lon="6.04834">
        <ele>1647.8</ele>
        <time>2021-01-16T09:16:03Z</time>
      </trkpt>
      <trkpt lat="45.31768" lon="6.04835">
        <ele>1648</ele>
        <time>2021-01-16T09:16:04Z</time>
      </trkpt>
      <trkpt lat="45.31767" lon="6.04836">
        <ele>1648.2</ele>
        <time>2021-01-16T09:16:05Z</time>
      </trkpt>
      <trkpt lat="45.31767" lon="6.04836">
        <ele>1648.4</ele>
        <time>2021-01-16T09:16:06Z</time>
      </trkpt>
      <trkpt lat="45.31766" lon="6.04836">
        <ele>1648.6</ele>
        <time>2021-01-16T09:16:07Z</time>
      </trkpt>
      <trkpt lat="45.31766" lon="6.04837">
        <ele>1648.8</ele>
        <time>2021-01-16T09:16:08Z</time>
      </trkpt>
      <trkpt lat="45.31765" lon="6.04837">
        <ele>1649</ele>
        <time>2021-01-16T09:16:09Z</time>
      </trkpt>
      <trkpt lat="45.31765" lon="6.04837">
        <ele>1649.2</ele>
        <time>2021-01-16T09:16:10Z</time>
      </trkpt>
      <trkpt lat="45.31764" lon="6.04838">
        <ele>1649.4</ele>
        <time>2021-01-16T09:16:11Z</time>
      </trkpt>
      <trkpt lat="45.31764" lon="6.04838">
        <ele>1649.8</ele>
        <time>2021-01-16T09:16:12Z</time>
      </trkpt>
      <trkpt lat="45.31763" lon="6.04838">
        <ele>1649.8</ele>
        <time>2021-01-16T09:16:13Z</time>
      </trkpt>
      <trkpt lat="45.31763" lon="6.04839">
        <ele>1650</ele>
        <time>2021-01-16T09:16:14Z</time>
      </trkpt>
      <trkpt lat="45.31762" lon="6.04839">
        <ele>1650.2</ele>
        <time>2021-01-16T09:16:15Z</time>
      </trkpt>
      <trkpt lat="45.31762" lon="6.0484">
        <ele>1650.2</ele>
        <time>2021-01-16T09:16:16Z</time>
      </trkpt>
      <trkpt lat="45.31762" lon="6.0484">
        <ele>1650.4</ele>
        <time>2021-01-16T09:16:17Z</time>
      </trkpt>
      <trkpt lat="45.31763" lon="6.0484">
        <ele>1650.6</ele>
        <time>2021-01-16T09:16:18Z</time>
      </trkpt>
      <trkpt lat="45.31763" lon="6.04841">
        <ele>1650.8</ele>
        <time>2021-01-16T09:16:19Z</time>
      </trkpt>
      <trkpt lat="45.31763" lon="6.04842">
        <ele>1651</ele>
        <time>2021-01-16T09:16:20Z</time>
      </trkpt>
      <trkpt lat="45.31763" lon="6.04843">
        <ele>1651.2</ele>
        <time>2021-01-16T09:16:21Z</time>
      </trkpt>
      <trkpt lat="45.31763" lon="6.04844">
        <ele>1651.4</ele>
        <time>2021-01-16T09:16:22Z</time>
      </trkpt>
      <trkpt lat="45.31764" lon="6.04845">
        <ele>1651.4</ele>
        <time>2021-01-16T09:16:23Z</time>
      </trkpt>
      <trkpt lat="45.31764" lon="6.04845">
        <ele>1651.8</ele>
        <time>2021-01-16T09:16:24Z</time>
      </trkpt>
      <trkpt lat="45.31765" lon="6.04846">
        <ele>1651.8</ele>
        <time>2021-01-16T09:16:25Z</time>
      </trkpt>
      <trkpt lat="45.31765" lon="6.04847">
        <ele>1652</ele>
        <time>2021-01-16T09:16:26Z</time>
      </trkpt>
      <trkpt lat="45.31765" lon="6.04848">
        <ele>1652.2</ele>
        <time>2021-01-16T09:16:27Z</time>
      </trkpt>
      <trkpt lat="45.31765" lon="6.04849">
        <ele>1652.4</ele>
        <time>2021-01-16T09:16:28Z</time>
      </trkpt>
      <trkpt lat="45.31765" lon="6.0485">
        <ele>1652.8</ele>
        <time>2021-01-16T09:16:29Z</time>
      </trkpt>
      <trkpt lat="45.31765" lon="6.04851">
        <ele>1653</ele>
        <time>2021-01-16T09:16:30Z</time>
      </trkpt>
      <trkpt lat="45.31765" lon="6.04851">
        <ele>1653.2</ele>
        <time>2021-01-16T09:16:31Z</time>
      </trkpt>
      <trkpt lat="45.31765" lon="6.04852">
        <ele>1653.4</ele>
        <time>2021-01-16T09:16:32Z</time>
      </trkpt>
      <trkpt lat="45.31765" lon="6.04852">
        <ele>1653.4</ele>
        <time>2021-01-16T09:16:33Z</time>
      </trkpt>
      <trkpt lat="45.31765" lon="6.04853">
        <ele>1653.4</ele>
        <time>2021-01-16T09:16:34Z</time>
      </trkpt>
      <trkpt lat="45.31765" lon="6.04853">
        <ele>1653.8</ele>
        <time>2021-01-16T09:16:35Z</time>
      </trkpt>
      <trkpt lat="45.31765" lon="6.04853">
        <ele>1653.8</ele>
        <time>2021-01-16T09:16:36Z</time>
      </trkpt>
      <trkpt lat="45.31764" lon="6.04854">
        <ele>1654.2</ele>
        <time>2021-01-16T09:16:37Z</time>
      </trkpt>
      <trkpt lat="45.31763" lon="6.04854">
        <ele>1654.4</ele>
        <time>2021-01-16T09:16:38Z</time>
      </trkpt>
      <trkpt lat="45.31763" lon="6.04854">
        <ele>1654.6</ele>
        <time>2021-01-16T09:16:39Z</time>
      </trkpt>
      <trkpt lat="45.31763" lon="6.04855">
        <ele>1654.6</ele>
        <time>2021-01-16T09:16:40Z</time>
      </trkpt>
      <trkpt lat="45.31763" lon="6.04855">
        <ele>1654.8</ele>
        <time>2021-01-16T09:16:41Z</time>
      </trkpt>
      <trkpt lat="45.31764" lon="6.04855">
        <ele>1655</ele>
        <time>2021-01-16T09:16:42Z</time>
      </trkpt>
      <trkpt lat="45.31764" lon="6.04856">
        <ele>1655</ele>
        <time>2021-01-16T09:16:43Z</time>
      </trkpt>
      <trkpt lat="45.31765" lon="6.04857">
        <ele>1655</ele>
        <time>2021-01-16T09:16:44Z</time>
      </trkpt>
      <trkpt lat="45.31765" lon="6.04857">
        <ele>1655.4</ele>
        <time>2021-01-16T09:16:45Z</time>
      </trkpt>
      <trkpt lat="45.31765" lon="6.04857">
        <ele>1655.6</ele>
        <time>2021-01-16T09:16:46Z</time>
      </trkpt>
      <trkpt lat="45.31765" lon="6.04857">
        <ele>1655.6</ele>
        <time>2021-01-16T09:16:47Z</time>
      </trkpt>
      <trkpt lat="45.31765" lon="6.04857">
        <ele>1655.6</ele>
        <time>2021-01-16T09:16:48Z</time>
      </trkpt>
      <trkpt lat="45.31765" lon="6.04857">
        <ele>1655.8</ele>
        <time>2021-01-16T09:16:49Z</time>
      </trkpt>
      <trkpt lat="45.31765" lon="6.04857">
        <ele>1655.6</ele>
        <time>2021-01-16T09:16:50Z</time>
      </trkpt>
      <trkpt lat="45.31765" lon="6.04857">
        <ele>1655.8</ele>
        <time>2021-01-16T09:16:51Z</time>
      </trkpt>
      <trkpt lat="45.31765" lon="6.04857">
        <ele>1655.8</ele>
        <time>2021-01-16T09:16:52Z</time>
      </trkpt>
      <trkpt lat="45.31765" lon="6.04857">
        <ele>1656</ele>
        <time>2021-01-16T09:16:53Z</time>
      </trkpt>
      <trkpt lat="45.31765" lon="6.04857">
        <ele>1656.2</ele>
        <time>2021-01-16T09:16:54Z</time>
      </trkpt>
      <trkpt lat="45.31765" lon="6.04857">
        <ele>1656.4</ele>
        <time>2021-01-16T09:16:55Z</time>
      </trkpt>
      <trkpt lat="45.31767" lon="6.04858">
        <ele>1656.6</ele>
        <time>2021-01-16T09:16:56Z</time>
      </trkpt>
      <trkpt lat="45.31768" lon="6.04859">
        <ele>1656.8</ele>
        <time>2021-01-16T09:16:57Z</time>
      </trkpt>
      <trkpt lat="45.31768" lon="6.04859">
        <ele>1656.8</ele>
        <time>2021-01-16T09:16:58Z</time>
      </trkpt>
      <trkpt lat="45.31768" lon="6.0486">
        <ele>1657.2</ele>
        <time>2021-01-16T09:16:59Z</time>
      </trkpt>
      <trkpt lat="45.31769" lon="6.0486">
        <ele>1657.4</ele>
        <time>2021-01-16T09:17:00Z</time>
      </trkpt>
      <trkpt lat="45.31769" lon="6.04861">
        <ele>1657.6</ele>
        <time>2021-01-16T09:17:01Z</time>
      </trkpt>
      <trkpt lat="45.3177" lon="6.04862">
        <ele>1657.8</ele>
        <time>2021-01-16T09:17:02Z</time>
      </trkpt>
      <trkpt lat="45.3177" lon="6.04862">
        <ele>1658</ele>
        <time>2021-01-16T09:17:03Z</time>
      </trkpt>
      <trkpt lat="45.3177" lon="6.04863">
        <ele>1658.2</ele>
        <time>2021-01-16T09:17:04Z</time>
      </trkpt>
      <trkpt lat="45.3177" lon="6.04864">
        <ele>1658.4</ele>
        <time>2021-01-16T09:17:05Z</time>
      </trkpt>
      <trkpt lat="45.31771" lon="6.04864">
        <ele>1658.4</ele>
        <time>2021-01-16T09:17:06Z</time>
      </trkpt>
      <trkpt lat="45.31771" lon="6.04864">
        <ele>1658.4</ele>
        <time>2021-01-16T09:17:07Z</time>
      </trkpt>
      <trkpt lat="45.31772" lon="6.04865">
        <ele>1658.8</ele>
        <time>2021-01-16T09:17:08Z</time>
      </trkpt>
      <trkpt lat="45.31772" lon="6.04865">
        <ele>1659</ele>
        <time>2021-01-16T09:17:09Z</time>
      </trkpt>
      <trkpt lat="45.31772" lon="6.04865">
        <ele>1659.2</ele>
        <time>2021-01-16T09:17:10Z</time>
      </trkpt>
      <trkpt lat="45.31772" lon="6.04865">
        <ele>1659.4</ele>
        <time>2021-01-16T09:17:11Z</time>
      </trkpt>
      <trkpt lat="45.31772" lon="6.04865">
        <ele>1659.4</ele>
        <time>2021-01-16T09:17:12Z</time>
      </trkpt>
      <trkpt lat="45.31772" lon="6.04865">
        <ele>1659.6</ele>
        <time>2021-01-16T09:17:13Z</time>
      </trkpt>
      <trkpt lat="45.31772" lon="6.04865">
        <ele>1659.6</ele>
        <time>2021-01-16T09:17:14Z</time>
      </trkpt>
      <trkpt lat="45.31772" lon="6.04865">
        <ele>1659.6</ele>
        <time>2021-01-16T09:17:15Z</time>
      </trkpt>
      <trkpt lat="45.3177" lon="6.04867">
        <ele>1659.6</ele>
        <time>2021-01-16T09:17:16Z</time>
      </trkpt>
      <trkpt lat="45.3177" lon="6.04866">
        <ele>1659.6</ele>
        <time>2021-01-16T09:17:17Z</time>
      </trkpt>
      <trkpt lat="45.31769" lon="6.04867">
        <ele>1659.6</ele>
        <time>2021-01-16T09:17:18Z</time>
      </trkpt>
      <trkpt lat="45.31769" lon="6.04867">
        <ele>1659.6</ele>
        <time>2021-01-16T09:17:19Z</time>
      </trkpt>
      <trkpt lat="45.31768" lon="6.04866">
        <ele>1659.6</ele>
        <time>2021-01-16T09:17:20Z</time>
      </trkpt>
      <trkpt lat="45.31768" lon="6.04866">
        <ele>1659.6</ele>
        <time>2021-01-16T09:17:21Z</time>
      </trkpt>
      <trkpt lat="45.31768" lon="6.04866">
        <ele>1659.6</ele>
        <time>2021-01-16T09:17:22Z</time>
      </trkpt>
      <trkpt lat="45.31767" lon="6.04866">
        <ele>1659.4</ele>
        <time>2021-01-16T09:17:23Z</time>
      </trkpt>
      <trkpt lat="45.31767" lon="6.04866">
        <ele>1659.4</ele>
        <time>2021-01-16T09:17:24Z</time>
      </trkpt>
      <trkpt lat="45.31767" lon="6.04866">
        <ele>1659.4</ele>
        <time>2021-01-16T09:17:25Z</time>
      </trkpt>
      <trkpt lat="45.31767" lon="6.04866">
        <ele>1659.4</ele>
        <time>2021-01-16T09:17:26Z</time>
      </trkpt>
      <trkpt lat="45.31767" lon="6.04866">
        <ele>1659.2</ele>
        <time>2021-01-16T09:17:27Z</time>
      </trkpt>
      <trkpt lat="45.31767" lon="6.04866">
        <ele>1659.2</ele>
        <time>2021-01-16T09:17:28Z</time>
      </trkpt>
      <trkpt lat="45.31767" lon="6.04866">
        <ele>1659.2</ele>
        <time>2021-01-16T09:17:29Z</time>
      </trkpt>
      <trkpt lat="45.31767" lon="6.04866">
        <ele>1659.2</ele>
        <time>2021-01-16T09:17:30Z</time>
      </trkpt>
      <trkpt lat="45.31765" lon="6.04867">
        <ele>1659.2</ele>
        <time>2021-01-16T09:17:31Z</time>
      </trkpt>
      <trkpt lat="45.31764" lon="6.04868">
        <ele>1659.2</ele>
        <time>2021-01-16T09:17:32Z</time>
      </trkpt>
      <trkpt lat="45.31764" lon="6.04868">
        <ele>1659</ele>
        <time>2021-01-16T09:17:33Z</time>
      </trkpt>
      <trkpt lat="45.31763" lon="6.04868">
        <ele>1659.2</ele>
        <time>2021-01-16T09:17:34Z</time>
      </trkpt>
      <trkpt lat="45.31763" lon="6.04869">
        <ele>1659.2</ele>
        <time>2021-01-16T09:17:35Z</time>
      </trkpt>
      <trkpt lat="45.31763" lon="6.04869">
        <ele>1659.2</ele>
        <time>2021-01-16T09:17:36Z</time>
      </trkpt>
      <trkpt lat="45.31763" lon="6.04869">
        <ele>1659</ele>
        <time>2021-01-16T09:17:37Z</time>
      </trkpt>
      <trkpt lat="45.31763" lon="6.04869">
        <ele>1659</ele>
        <time>2021-01-16T09:17:38Z</time>
      </trkpt>
      <trkpt lat="45.31763" lon="6.04869">
        <ele>1659</ele>
        <time>2021-01-16T09:17:39Z</time>
      </trkpt>
      <trkpt lat="45.31763" lon="6.04869">
        <ele>1659</ele>
        <time>2021-01-16T09:17:40Z</time>
      </trkpt>
      <trkpt lat="45.31763" lon="6.04869">
        <ele>1659</ele>
        <time>2021-01-16T09:17:41Z</time>
      </trkpt>
      <trkpt lat="45.31763" lon="6.04869">
        <ele>1659</ele>
        <time>2021-01-16T09:17:42Z</time>
      </trkpt>
      <trkpt lat="45.31763" lon="6.04869">
        <ele>1659</ele>
        <time>2021-01-16T09:17:43Z</time>
      </trkpt>
      <trkpt lat="45.31763" lon="6.04869">
        <ele>1659</ele>
        <time>2021-01-16T09:17:44Z</time>
      </trkpt>
      <trkpt lat="45.31763" lon="6.04869">
        <ele>1659.2</ele>
        <time>2021-01-16T09:17:45Z</time>
      </trkpt>
      <trkpt lat="45.31763" lon="6.04869">
        <ele>1659</ele>
        <time>2021-01-16T09:17:46Z</time>
      </trkpt>
      <trkpt lat="45.31763" lon="6.04869">
        <ele>1659</ele>
        <time>2021-01-16T09:17:47Z</time>
      </trkpt>
      <trkpt lat="45.31763" lon="6.04869">
        <ele>1659</ele>
        <time>2021-01-16T09:17:48Z</time>
      </trkpt>
      <trkpt lat="45.31763" lon="6.04869">
        <ele>1659</ele>
        <time>2021-01-16T09:17:49Z</time>
      </trkpt>
      <trkpt lat="45.31763" lon="6.04869">
        <ele>1659</ele>
        <time>2021-01-16T09:17:50Z</time>
      </trkpt>
      <trkpt lat="45.31763" lon="6.04869">
        <ele>1658.8</ele>
        <time>2021-01-16T09:17:51Z</time>
      </trkpt>
      <trkpt lat="45.31763" lon="6.04869">
        <ele>1658.8</ele>
        <time>2021-01-16T09:17:52Z</time>
      </trkpt>
      <trkpt lat="45.31763" lon="6.04869">
        <ele>1658.8</ele>
        <time>2021-01-16T09:17:53Z</time>
      </trkpt>
      <trkpt lat="45.31763" lon="6.04869">
        <ele>1658.8</ele>
        <time>2021-01-16T09:17:54Z</time>
      </trkpt>
      <trkpt lat="45.31763" lon="6.04869">
        <ele>1658.8</ele>
        <time>2021-01-16T09:17:55Z</time>
      </trkpt>
      <trkpt lat="45.31763" lon="6.04869">
        <ele>1658.8</ele>
        <time>2021-01-16T09:17:56Z</time>
      </trkpt>
      <trkpt lat="45.31763" lon="6.04869">
        <ele>1658.8</ele>
        <time>2021-01-16T09:17:57Z</time>
      </trkpt>
      <trkpt lat="45.31763" lon="6.04869">
        <ele>1658.8</ele>
        <time>2021-01-16T09:17:58Z</time>
      </trkpt>
      <trkpt lat="45.31763" lon="6.04869">
        <ele>1658.8</ele>
        <time>2021-01-16T09:17:59Z</time>
      </trkpt>
      <trkpt lat="45.31763" lon="6.04869">
        <ele>1658.8</ele>
        <time>2021-01-16T09:18:00Z</time>
      </trkpt>
      <trkpt lat="45.31763" lon="6.04869">
        <ele>1658.8</ele>
        <time>2021-01-16T09:18:01Z</time>
      </trkpt>
      <trkpt lat="45.31763" lon="6.04869">
        <ele>1658.8</ele>
        <time>2021-01-16T09:18:02Z</time>
      </trkpt>
      <trkpt lat="45.31763" lon="6.04869">
        <ele>1658.8</ele>
        <time>2021-01-16T09:18:03Z</time>
      </trkpt>
      <trkpt lat="45.31763" lon="6.04869">
        <ele>1658.8</ele>
        <time>2021-01-16T09:18:04Z</time>
      </trkpt>
      <trkpt lat="45.31763" lon="6.04869">
        <ele>1658.8</ele>
        <time>2021-01-16T09:18:05Z</time>
      </trkpt>
      <trkpt lat="45.31763" lon="6.04869">
        <ele>1658.8</ele>
        <time>2021-01-16T09:18:06Z</time>
      </trkpt>
      <trkpt lat="45.31763" lon="6.04869">
        <ele>1658.8</ele>
        <time>2021-01-16T09:18:07Z</time>
      </trkpt>
      <trkpt lat="45.31763" lon="6.04869">
        <ele>1658.8</ele>
        <time>2021-01-16T09:18:08Z</time>
      </trkpt>
      <trkpt lat="45.31763" lon="6.04869">
        <ele>1658.8</ele>
        <time>2021-01-16T09:18:09Z</time>
      </trkpt>
      <trkpt lat="45.31763" lon="6.04869">
        <ele>1658.8</ele>
        <time>2021-01-16T09:18:10Z</time>
      </trkpt>
      <trkpt lat="45.31763" lon="6.04869">
        <ele>1658.8</ele>
        <time>2021-01-16T09:18:11Z</time>
      </trkpt>
      <trkpt lat="45.31763" lon="6.04869">
        <ele>1658.6</ele>
        <time>2021-01-16T09:18:12Z</time>
      </trkpt>
      <trkpt lat="45.31763" lon="6.04869">
        <ele>1658.6</ele>
        <time>2021-01-16T09:18:13Z</time>
      </trkpt>
      <trkpt lat="45.31763" lon="6.04869">
        <ele>1658.6</ele>
        <time>2021-01-16T09:18:14Z</time>
      </trkpt>
      <trkpt lat="45.31763" lon="6.04869">
        <ele>1658.6</ele>
        <time>2021-01-16T09:18:15Z</time>
      </trkpt>
      <trkpt lat="45.31763" lon="6.04869">
        <ele>1658.6</ele>
        <time>2021-01-16T09:18:16Z</time>
      </trkpt>
      <trkpt lat="45.31763" lon="6.04869">
        <ele>1658.6</ele>
        <time>2021-01-16T09:18:17Z</time>
      </trkpt>
      <trkpt lat="45.31763" lon="6.04869">
        <ele>1658.6</ele>
        <time>2021-01-16T09:18:18Z</time>
      </trkpt>
      <trkpt lat="45.31763" lon="6.04869">
        <ele>1658.6</ele>
        <time>2021-01-16T09:18:19Z</time>
      </trkpt>
      <trkpt lat="45.31763" lon="6.04869">
        <ele>1658.6</ele>
        <time>2021-01-16T09:18:20Z</time>
      </trkpt>
      <trkpt lat="45.31763" lon="6.04869">
        <ele>1658.6</ele>
        <time>2021-01-16T09:18:21Z</time>
      </trkpt>
      <trkpt lat="45.31763" lon="6.04869">
        <ele>1658.6</ele>
        <time>2021-01-16T09:18:22Z</time>
      </trkpt>
      <trkpt lat="45.31763" lon="6.04869">
        <ele>1658.6</ele>
        <time>2021-01-16T09:18:23Z</time>
      </trkpt>
      <trkpt lat="45.31763" lon="6.04869">
        <ele>1658.6</ele>
        <time>2021-01-16T09:18:24Z</time>
      </trkpt>
      <trkpt lat="45.31763" lon="6.04869">
        <ele>1658.6</ele>
        <time>2021-01-16T09:18:25Z</time>
      </trkpt>
      <trkpt lat="45.31763" lon="6.04869">
        <ele>1658.6</ele>
        <time>2021-01-16T09:18:26Z</time>
      </trkpt>
      <trkpt lat="45.31763" lon="6.04869">
        <ele>1658.6</ele>
        <time>2021-01-16T09:18:27Z</time>
      </trkpt>
      <trkpt lat="45.31763" lon="6.04869">
        <ele>1658.6</ele>
        <time>2021-01-16T09:18:28Z</time>
      </trkpt>
      <trkpt lat="45.31763" lon="6.04869">
        <ele>1658.6</ele>
        <time>2021-01-16T09:18:29Z</time>
      </trkpt>
      <trkpt lat="45.31763" lon="6.04869">
        <ele>1658.6</ele>
        <time>2021-01-16T09:18:30Z</time>
      </trkpt>
      <trkpt lat="45.31763" lon="6.04869">
        <ele>1658.4</ele>
        <time>2021-01-16T09:18:31Z</time>
      </trkpt>
      <trkpt lat="45.31763" lon="6.04869">
        <ele>1658.4</ele>
        <time>2021-01-16T09:18:32Z</time>
      </trkpt>
      <trkpt lat="45.31763" lon="6.04869">
        <ele>1658.4</ele>
        <time>2021-01-16T09:18:33Z</time>
      </trkpt>
      <trkpt lat="45.31763" lon="6.04869">
        <ele>1658.4</ele>
        <time>2021-01-16T09:18:34Z</time>
      </trkpt>
      <trkpt lat="45.31763" lon="6.04869">
        <ele>1658.4</ele>
        <time>2021-01-16T09:18:35Z</time>
      </trkpt>
      <trkpt lat="45.31763" lon="6.04869">
        <ele>1658.4</ele>
        <time>2021-01-16T09:18:36Z</time>
      </trkpt>
      <trkpt lat="45.31763" lon="6.04869">
        <ele>1658.4</ele>
        <time>2021-01-16T09:18:37Z</time>
      </trkpt>
      <trkpt lat="45.31763" lon="6.04869">
        <ele>1658.4</ele>
        <time>2021-01-16T09:18:38Z</time>
      </trkpt>
      <trkpt lat="45.31763" lon="6.04869">
        <ele>1658.4</ele>
        <time>2021-01-16T09:18:39Z</time>
      </trkpt>
      <trkpt lat="45.31763" lon="6.04869">
        <ele>1658.4</ele>
        <time>2021-01-16T09:18:40Z</time>
      </trkpt>
      <trkpt lat="45.31763" lon="6.04869">
        <ele>1658.4</ele>
        <time>2021-01-16T09:18:41Z</time>
      </trkpt>
      <trkpt lat="45.31763" lon="6.04869">
        <ele>1658.4</ele>
        <time>2021-01-16T09:18:42Z</time>
      </trkpt>
      <trkpt lat="45.31763" lon="6.04869">
        <ele>1658.4</ele>
        <time>2021-01-16T09:18:43Z</time>
      </trkpt>
      <trkpt lat="45.31763" lon="6.04869">
        <ele>1658.4</ele>
        <time>2021-01-16T09:18:44Z</time>
      </trkpt>
      <trkpt lat="45.31763" lon="6.04869">
        <ele>1658.4</ele>
        <time>2021-01-16T09:18:45Z</time>
      </trkpt>
      <trkpt lat="45.31763" lon="6.04869">
        <ele>1658.2</ele>
        <time>2021-01-16T09:18:46Z</time>
      </trkpt>
      <trkpt lat="45.31763" lon="6.04869">
        <ele>1658.2</ele>
        <time>2021-01-16T09:18:47Z</time>
      </trkpt>
      <trkpt lat="45.31763" lon="6.04869">
        <ele>1658.2</ele>
        <time>2021-01-16T09:18:48Z</time>
      </trkpt>
      <trkpt lat="45.31763" lon="6.04869">
        <ele>1658.2</ele>
        <time>2021-01-16T09:18:49Z</time>
      </trkpt>
      <trkpt lat="45.31763" lon="6.04869">
        <ele>1658.2</ele>
        <time>2021-01-16T09:18:50Z</time>
      </trkpt>
      <trkpt lat="45.31763" lon="6.04869">
        <ele>1658.2</ele>
        <time>2021-01-16T09:18:51Z</time>
      </trkpt>
      <trkpt lat="45.31763" lon="6.04869">
        <ele>1658.2</ele>
        <time>2021-01-16T09:18:52Z</time>
      </trkpt>
      <trkpt lat="45.31763" lon="6.04869">
        <ele>1658.2</ele>
        <time>2021-01-16T09:18:53Z</time>
      </trkpt>
      <trkpt lat="45.31763" lon="6.04869">
        <ele>1658.2</ele>
        <time>2021-01-16T09:18:54Z</time>
      </trkpt>
      <trkpt lat="45.31763" lon="6.04869">
        <ele>1658.2</ele>
        <time>2021-01-16T09:18:55Z</time>
      </trkpt>
      <trkpt lat="45.31763" lon="6.04869">
        <ele>1658.2</ele>
        <time>2021-01-16T09:18:56Z</time>
      </trkpt>
      <trkpt lat="45.31763" lon="6.04869">
        <ele>1658.2</ele>
        <time>2021-01-16T09:18:57Z</time>
      </trkpt>
      <trkpt lat="45.31763" lon="6.04869">
        <ele>1658.2</ele>
        <time>2021-01-16T09:18:58Z</time>
      </trkpt>
      <trkpt lat="45.31763" lon="6.04869">
        <ele>1658</ele>
        <time>2021-01-16T09:18:59Z</time>
      </trkpt>
      <trkpt lat="45.31763" lon="6.04869">
        <ele>1658</ele>
        <time>2021-01-16T09:19:00Z</time>
      </trkpt>
      <trkpt lat="45.31763" lon="6.04869">
        <ele>1658</ele>
        <time>2021-01-16T09:19:01Z</time>
      </trkpt>
      <trkpt lat="45.31763" lon="6.04869">
        <ele>1658</ele>
        <time>2021-01-16T09:19:02Z</time>
      </trkpt>
      <trkpt lat="45.31763" lon="6.04869">
        <ele>1658.2</ele>
        <time>2021-01-16T09:19:03Z</time>
      </trkpt>
      <trkpt lat="45.31763" lon="6.04869">
        <ele>1658.2</ele>
        <time>2021-01-16T09:19:04Z</time>
      </trkpt>
      <trkpt lat="45.31763" lon="6.04869">
        <ele>1658</ele>
        <time>2021-01-16T09:19:05Z</time>
      </trkpt>
      <trkpt lat="45.31763" lon="6.04869">
        <ele>1658</ele>
        <time>2021-01-16T09:19:06Z</time>
      </trkpt>
      <trkpt lat="45.31763" lon="6.04869">
        <ele>1658</ele>
        <time>2021-01-16T09:19:07Z</time>
      </trkpt>
      <trkpt lat="45.31763" lon="6.04869">
        <ele>1658</ele>
        <time>2021-01-16T09:19:08Z</time>
      </trkpt>
      <trkpt lat="45.31761" lon="6.04869">
        <ele>1657.8</ele>
        <time>2021-01-16T09:19:09Z</time>
      </trkpt>
      <trkpt lat="45.3176" lon="6.04868">
        <ele>1657.8</ele>
        <time>2021-01-16T09:19:10Z</time>
      </trkpt>
      <trkpt lat="45.31759" lon="6.04868">
        <ele>1657.6</ele>
        <time>2021-01-16T09:19:11Z</time>
      </trkpt>
      <trkpt lat="45.31758" lon="6.04868">
        <ele>1657.6</ele>
        <time>2021-01-16T09:19:12Z</time>
      </trkpt>
      <trkpt lat="45.31757" lon="6.04868">
        <ele>1657.6</ele>
        <time>2021-01-16T09:19:13Z</time>
      </trkpt>
      <trkpt lat="45.31756" lon="6.04868">
        <ele>1657.8</ele>
        <time>2021-01-16T09:19:14Z</time>
      </trkpt>
      <trkpt lat="45.31755" lon="6.04868">
        <ele>1657.8</ele>
        <time>2021-01-16T09:19:15Z</time>
      </trkpt>
      <trkpt lat="45.31755" lon="6.04868">
        <ele>1657.8</ele>
        <time>2021-01-16T09:19:16Z</time>
      </trkpt>
      <trkpt lat="45.31754" lon="6.04868">
        <ele>1658</ele>
        <time>2021-01-16T09:19:17Z</time>
      </trkpt>
      <trkpt lat="45.31753" lon="6.04868">
        <ele>1658.2</ele>
        <time>2021-01-16T09:19:18Z</time>
      </trkpt>
      <trkpt lat="45.31752" lon="6.04867">
        <ele>1658.2</ele>
        <time>2021-01-16T09:19:19Z</time>
      </trkpt>
      <trkpt lat="45.31752" lon="6.04867">
        <ele>1658.2</ele>
        <time>2021-01-16T09:19:20Z</time>
      </trkpt>
      <trkpt lat="45.31751" lon="6.04867">
        <ele>1658.6</ele>
        <time>2021-01-16T09:19:21Z</time>
      </trkpt>
      <trkpt lat="45.3175" lon="6.04867">
        <ele>1658.6</ele>
        <time>2021-01-16T09:19:22Z</time>
      </trkpt>
      <trkpt lat="45.3175" lon="6.04867">
        <ele>1658.8</ele>
        <time>2021-01-16T09:19:23Z</time>
      </trkpt>
      <trkpt lat="45.31749" lon="6.04868">
        <ele>1659</ele>
        <time>2021-01-16T09:19:24Z</time>
      </trkpt>
      <trkpt lat="45.31749" lon="6.04868">
        <ele>1659.2</ele>
        <time>2021-01-16T09:19:25Z</time>
      </trkpt>
      <trkpt lat="45.31748" lon="6.04867">
        <ele>1659.4</ele>
        <time>2021-01-16T09:19:26Z</time>
      </trkpt>
      <trkpt lat="45.31748" lon="6.04867">
        <ele>1659.4</ele>
        <time>2021-01-16T09:19:27Z</time>
      </trkpt>
      <trkpt lat="45.31747" lon="6.04866">
        <ele>1659.4</ele>
        <time>2021-01-16T09:19:28Z</time>
      </trkpt>
      <trkpt lat="45.31747" lon="6.04866">
        <ele>1659.6</ele>
        <time>2021-01-16T09:19:29Z</time>
      </trkpt>
      <trkpt lat="45.31746" lon="6.04867">
        <ele>1659.8</ele>
        <time>2021-01-16T09:19:30Z</time>
      </trkpt>
      <trkpt lat="45.31745" lon="6.04867">
        <ele>1660</ele>
        <time>2021-01-16T09:19:31Z</time>
      </trkpt>
      <trkpt lat="45.31744" lon="6.04867">
        <ele>1660</ele>
        <time>2021-01-16T09:19:32Z</time>
      </trkpt>
      <trkpt lat="45.31744" lon="6.04867">
        <ele>1660.4</ele>
        <time>2021-01-16T09:19:33Z</time>
      </trkpt>
      <trkpt lat="45.31744" lon="6.04867">
        <ele>1660.6</ele>
        <time>2021-01-16T09:19:34Z</time>
      </trkpt>
      <trkpt lat="45.31743" lon="6.04866">
        <ele>1660.8</ele>
        <time>2021-01-16T09:19:35Z</time>
      </trkpt>
      <trkpt lat="45.31742" lon="6.04866">
        <ele>1661</ele>
        <time>2021-01-16T09:19:36Z</time>
      </trkpt>
      <trkpt lat="45.31742" lon="6.04866">
        <ele>1661</ele>
        <time>2021-01-16T09:19:37Z</time>
      </trkpt>
      <trkpt lat="45.31742" lon="6.04865">
        <ele>1661.4</ele>
        <time>2021-01-16T09:19:38Z</time>
      </trkpt>
      <trkpt lat="45.31741" lon="6.04864">
        <ele>1661.6</ele>
        <time>2021-01-16T09:19:39Z</time>
      </trkpt>
      <trkpt lat="45.31741" lon="6.04864">
        <ele>1661.6</ele>
        <time>2021-01-16T09:19:40Z</time>
      </trkpt>
      <trkpt lat="45.3174" lon="6.04864">
        <ele>1661.8</ele>
        <time>2021-01-16T09:19:41Z</time>
      </trkpt>
      <trkpt lat="45.3174" lon="6.04864">
        <ele>1662.2</ele>
        <time>2021-01-16T09:19:42Z</time>
      </trkpt>
      <trkpt lat="45.31739" lon="6.04864">
        <ele>1662.2</ele>
        <time>2021-01-16T09:19:43Z</time>
      </trkpt>
      <trkpt lat="45.31738" lon="6.04864">
        <ele>1662.4</ele>
        <time>2021-01-16T09:19:44Z</time>
      </trkpt>
      <trkpt lat="45.31738" lon="6.04864">
        <ele>1662.6</ele>
        <time>2021-01-16T09:19:45Z</time>
      </trkpt>
      <trkpt lat="45.31737" lon="6.04863">
        <ele>1662.8</ele>
        <time>2021-01-16T09:19:46Z</time>
      </trkpt>
      <trkpt lat="45.31737" lon="6.04863">
        <ele>1663</ele>
        <time>2021-01-16T09:19:47Z</time>
      </trkpt>
      <trkpt lat="45.31736" lon="6.04863">
        <ele>1663.2</ele>
        <time>2021-01-16T09:19:48Z</time>
      </trkpt>
      <trkpt lat="45.31735" lon="6.04864">
        <ele>1663.2</ele>
        <time>2021-01-16T09:19:49Z</time>
      </trkpt>
      <trkpt lat="45.31734" lon="6.04864">
        <ele>1663.6</ele>
        <time>2021-01-16T09:19:50Z</time>
      </trkpt>
      <trkpt lat="45.31733" lon="6.04865">
        <ele>1663.6</ele>
        <time>2021-01-16T09:19:51Z</time>
      </trkpt>
      <trkpt lat="45.31733" lon="6.04865">
        <ele>1663.8</ele>
        <time>2021-01-16T09:19:52Z</time>
      </trkpt>
      <trkpt lat="45.31732" lon="6.04865">
        <ele>1664</ele>
        <time>2021-01-16T09:19:53Z</time>
      </trkpt>
      <trkpt lat="45.31732" lon="6.04864">
        <ele>1664.2</ele>
        <time>2021-01-16T09:19:54Z</time>
      </trkpt>
      <trkpt lat="45.31731" lon="6.04864">
        <ele>1664.4</ele>
        <time>2021-01-16T09:19:55Z</time>
      </trkpt>
      <trkpt lat="45.31731" lon="6.04864">
        <ele>1664.6</ele>
        <time>2021-01-16T09:19:56Z</time>
      </trkpt>
      <trkpt lat="45.3173" lon="6.04864">
        <ele>1664.6</ele>
        <time>2021-01-16T09:19:57Z</time>
      </trkpt>
      <trkpt lat="45.31729" lon="6.04864">
        <ele>1665</ele>
        <time>2021-01-16T09:19:58Z</time>
      </trkpt>
      <trkpt lat="45.31728" lon="6.04863">
        <ele>1665.2</ele>
        <time>2021-01-16T09:19:59Z</time>
      </trkpt>
      <trkpt lat="45.31728" lon="6.04863">
        <ele>1665.2</ele>
        <time>2021-01-16T09:20:00Z</time>
      </trkpt>
      <trkpt lat="45.31728" lon="6.04863">
        <ele>1665.6</ele>
        <time>2021-01-16T09:20:01Z</time>
      </trkpt>
      <trkpt lat="45.31727" lon="6.04862">
        <ele>1665.6</ele>
        <time>2021-01-16T09:20:02Z</time>
      </trkpt>
      <trkpt lat="45.31726" lon="6.04862">
        <ele>1665.8</ele>
        <time>2021-01-16T09:20:03Z</time>
      </trkpt>
      <trkpt lat="45.31726" lon="6.04861">
        <ele>1666.2</ele>
        <time>2021-01-16T09:20:04Z</time>
      </trkpt>
      <trkpt lat="45.31725" lon="6.0486">
        <ele>1666.2</ele>
        <time>2021-01-16T09:20:05Z</time>
      </trkpt>
      <trkpt lat="45.31725" lon="6.0486">
        <ele>1666.4</ele>
        <time>2021-01-16T09:20:06Z</time>
      </trkpt>
      <trkpt lat="45.31724" lon="6.04859">
        <ele>1666.6</ele>
        <time>2021-01-16T09:20:07Z</time>
      </trkpt>
      <trkpt lat="45.31724" lon="6.04858">
        <ele>1666.8</ele>
        <time>2021-01-16T09:20:08Z</time>
      </trkpt>
      <trkpt lat="45.31723" lon="6.04858">
        <ele>1667.2</ele>
        <time>2021-01-16T09:20:09Z</time>
      </trkpt>
      <trkpt lat="45.31723" lon="6.04858">
        <ele>1667.2</ele>
        <time>2021-01-16T09:20:10Z</time>
      </trkpt>
      <trkpt lat="45.31723" lon="6.04857">
        <ele>1667.4</ele>
        <time>2021-01-16T09:20:11Z</time>
      </trkpt>
      <trkpt lat="45.31722" lon="6.04857">
        <ele>1667.8</ele>
        <time>2021-01-16T09:20:12Z</time>
      </trkpt>
      <trkpt lat="45.31721" lon="6.04856">
        <ele>1667.8</ele>
        <time>2021-01-16T09:20:13Z</time>
      </trkpt>
      <trkpt lat="45.31721" lon="6.04856">
        <ele>1668.2</ele>
        <time>2021-01-16T09:20:14Z</time>
      </trkpt>
      <trkpt lat="45.3172" lon="6.04857">
        <ele>1668.2</ele>
        <time>2021-01-16T09:20:15Z</time>
      </trkpt>
      <trkpt lat="45.31719" lon="6.04857">
        <ele>1668.4</ele>
        <time>2021-01-16T09:20:16Z</time>
      </trkpt>
      <trkpt lat="45.31718" lon="6.04857">
        <ele>1668.6</ele>
        <time>2021-01-16T09:20:17Z</time>
      </trkpt>
      <trkpt lat="45.31718" lon="6.04857">
        <ele>1668.8</ele>
        <time>2021-01-16T09:20:18Z</time>
      </trkpt>
      <trkpt lat="45.31717" lon="6.04858">
        <ele>1669.2</ele>
        <time>2021-01-16T09:20:19Z</time>
      </trkpt>
      <trkpt lat="45.31717" lon="6.04858">
        <ele>1669.2</ele>
        <time>2021-01-16T09:20:20Z</time>
      </trkpt>
      <trkpt lat="45.31716" lon="6.04858">
        <ele>1669.4</ele>
        <time>2021-01-16T09:20:21Z</time>
      </trkpt>
      <trkpt lat="45.31715" lon="6.04859">
        <ele>1669.8</ele>
        <time>2021-01-16T09:20:22Z</time>
      </trkpt>
      <trkpt lat="45.31715" lon="6.04859">
        <ele>1669.8</ele>
        <time>2021-01-16T09:20:23Z</time>
      </trkpt>
      <trkpt lat="45.31715" lon="6.0486">
        <ele>1670.2</ele>
        <time>2021-01-16T09:20:24Z</time>
      </trkpt>
      <trkpt lat="45.31714" lon="6.04861">
        <ele>1670.2</ele>
        <time>2021-01-16T09:20:25Z</time>
      </trkpt>
      <trkpt lat="45.31714" lon="6.04861">
        <ele>1670.4</ele>
        <time>2021-01-16T09:20:26Z</time>
      </trkpt>
      <trkpt lat="45.31714" lon="6.04862">
        <ele>1670.8</ele>
        <time>2021-01-16T09:20:27Z</time>
      </trkpt>
      <trkpt lat="45.31713" lon="6.04862">
        <ele>1670.8</ele>
        <time>2021-01-16T09:20:28Z</time>
      </trkpt>
      <trkpt lat="45.31713" lon="6.04863">
        <ele>1671</ele>
        <time>2021-01-16T09:20:29Z</time>
      </trkpt>
      <trkpt lat="45.31713" lon="6.04864">
        <ele>1671.2</ele>
        <time>2021-01-16T09:20:30Z</time>
      </trkpt>
      <trkpt lat="45.31713" lon="6.04865">
        <ele>1671.4</ele>
        <time>2021-01-16T09:20:31Z</time>
      </trkpt>
      <trkpt lat="45.31712" lon="6.04866">
        <ele>1671.6</ele>
        <time>2021-01-16T09:20:32Z</time>
      </trkpt>
      <trkpt lat="45.31712" lon="6.04867">
        <ele>1671.8</ele>
        <time>2021-01-16T09:20:33Z</time>
      </trkpt>
      <trkpt lat="45.31711" lon="6.04868">
        <ele>1672</ele>
        <time>2021-01-16T09:20:34Z</time>
      </trkpt>
      <trkpt lat="45.31711" lon="6.04869">
        <ele>1672.2</ele>
        <time>2021-01-16T09:20:35Z</time>
      </trkpt>
      <trkpt lat="45.31711" lon="6.04869">
        <ele>1672.2</ele>
        <time>2021-01-16T09:20:36Z</time>
      </trkpt>
      <trkpt lat="45.31711" lon="6.0487">
        <ele>1672.6</ele>
        <time>2021-01-16T09:20:37Z</time>
      </trkpt>
      <trkpt lat="45.3171" lon="6.0487">
        <ele>1672.6</ele>
        <time>2021-01-16T09:20:38Z</time>
      </trkpt>
      <trkpt lat="45.3171" lon="6.04871">
        <ele>1672.8</ele>
        <time>2021-01-16T09:20:39Z</time>
      </trkpt>
      <trkpt lat="45.31709" lon="6.04872">
        <ele>1673</ele>
        <time>2021-01-16T09:20:40Z</time>
      </trkpt>
      <trkpt lat="45.31709" lon="6.04872">
        <ele>1673.2</ele>
        <time>2021-01-16T09:20:41Z</time>
      </trkpt>
      <trkpt lat="45.31708" lon="6.04873">
        <ele>1673.4</ele>
        <time>2021-01-16T09:20:42Z</time>
      </trkpt>
      <trkpt lat="45.31708" lon="6.04874">
        <ele>1673.6</ele>
        <time>2021-01-16T09:20:43Z</time>
      </trkpt>
      <trkpt lat="45.31707" lon="6.04874">
        <ele>1673.6</ele>
        <time>2021-01-16T09:20:44Z</time>
      </trkpt>
      <trkpt lat="45.31706" lon="6.04874">
        <ele>1673.8</ele>
        <time>2021-01-16T09:20:45Z</time>
      </trkpt>
      <trkpt lat="45.31705" lon="6.04875">
        <ele>1674</ele>
        <time>2021-01-16T09:20:46Z</time>
      </trkpt>
      <trkpt lat="45.31705" lon="6.04874">
        <ele>1674</ele>
        <time>2021-01-16T09:20:47Z</time>
      </trkpt>
      <trkpt lat="45.31704" lon="6.04874">
        <ele>1674.4</ele>
        <time>2021-01-16T09:20:48Z</time>
      </trkpt>
      <trkpt lat="45.31704" lon="6.04874">
        <ele>1674.6</ele>
        <time>2021-01-16T09:20:49Z</time>
      </trkpt>
      <trkpt lat="45.31703" lon="6.04873">
        <ele>1674.8</ele>
        <time>2021-01-16T09:20:50Z</time>
      </trkpt>
      <trkpt lat="45.31702" lon="6.04873">
        <ele>1675</ele>
        <time>2021-01-16T09:20:51Z</time>
      </trkpt>
      <trkpt lat="45.31702" lon="6.04873">
        <ele>1675</ele>
        <time>2021-01-16T09:20:52Z</time>
      </trkpt>
      <trkpt lat="45.317" lon="6.04873">
        <ele>1675.2</ele>
        <time>2021-01-16T09:20:53Z</time>
      </trkpt>
      <trkpt lat="45.317" lon="6.04873">
        <ele>1675.4</ele>
        <time>2021-01-16T09:20:54Z</time>
      </trkpt>
      <trkpt lat="45.31699" lon="6.04873">
        <ele>1675.6</ele>
        <time>2021-01-16T09:20:55Z</time>
      </trkpt>
      <trkpt lat="45.31699" lon="6.04872">
        <ele>1675.8</ele>
        <time>2021-01-16T09:20:56Z</time>
      </trkpt>
      <trkpt lat="45.31698" lon="6.04873">
        <ele>1676</ele>
        <time>2021-01-16T09:20:57Z</time>
      </trkpt>
      <trkpt lat="45.31697" lon="6.04873">
        <ele>1676</ele>
        <time>2021-01-16T09:20:58Z</time>
      </trkpt>
      <trkpt lat="45.31696" lon="6.04872">
        <ele>1676.4</ele>
        <time>2021-01-16T09:20:59Z</time>
      </trkpt>
      <trkpt lat="45.31696" lon="6.04872">
        <ele>1676.4</ele>
        <time>2021-01-16T09:21:00Z</time>
      </trkpt>
      <trkpt lat="45.31695" lon="6.04872">
        <ele>1676.6</ele>
        <time>2021-01-16T09:21:01Z</time>
      </trkpt>
      <trkpt lat="45.31694" lon="6.04872">
        <ele>1676.8</ele>
        <time>2021-01-16T09:21:02Z</time>
      </trkpt>
      <trkpt lat="45.31694" lon="6.04872">
        <ele>1677</ele>
        <time>2021-01-16T09:21:03Z</time>
      </trkpt>
      <trkpt lat="45.31693" lon="6.04872">
        <ele>1677.2</ele>
        <time>2021-01-16T09:21:04Z</time>
      </trkpt>
      <trkpt lat="45.31692" lon="6.04872">
        <ele>1677.4</ele>
        <time>2021-01-16T09:21:05Z</time>
      </trkpt>
      <trkpt lat="45.31692" lon="6.04873">
        <ele>1677.6</ele>
        <time>2021-01-16T09:21:06Z</time>
      </trkpt>
      <trkpt lat="45.31691" lon="6.04873">
        <ele>1677.8</ele>
        <time>2021-01-16T09:21:07Z</time>
      </trkpt>
      <trkpt lat="45.3169" lon="6.04873">
        <ele>1678</ele>
        <time>2021-01-16T09:21:08Z</time>
      </trkpt>
      <trkpt lat="45.31689" lon="6.04873">
        <ele>1678</ele>
        <time>2021-01-16T09:21:09Z</time>
      </trkpt>
      <trkpt lat="45.31689" lon="6.04873">
        <ele>1678.2</ele>
        <time>2021-01-16T09:21:10Z</time>
      </trkpt>
      <trkpt lat="45.31688" lon="6.04873">
        <ele>1678.4</ele>
        <time>2021-01-16T09:21:11Z</time>
      </trkpt>
      <trkpt lat="45.31687" lon="6.04874">
        <ele>1678.4</ele>
        <time>2021-01-16T09:21:12Z</time>
      </trkpt>
      <trkpt lat="45.31686" lon="6.04875">
        <ele>1678.8</ele>
        <time>2021-01-16T09:21:13Z</time>
      </trkpt>
      <trkpt lat="45.31686" lon="6.04875">
        <ele>1679</ele>
        <time>2021-01-16T09:21:14Z</time>
      </trkpt>
      <trkpt lat="45.31685" lon="6.04875">
        <ele>1679.2</ele>
        <time>2021-01-16T09:21:15Z</time>
      </trkpt>
      <trkpt lat="45.31684" lon="6.04876">
        <ele>1679.2</ele>
        <time>2021-01-16T09:21:16Z</time>
      </trkpt>
      <trkpt lat="45.31683" lon="6.04876">
        <ele>1679.4</ele>
        <time>2021-01-16T09:21:17Z</time>
      </trkpt>
      <trkpt lat="45.31683" lon="6.04877">
        <ele>1679.4</ele>
        <time>2021-01-16T09:21:18Z</time>
      </trkpt>
      <trkpt lat="45.31682" lon="6.04878">
        <ele>1679.6</ele>
        <time>2021-01-16T09:21:19Z</time>
      </trkpt>
      <trkpt lat="45.31681" lon="6.04879">
        <ele>1679.6</ele>
        <time>2021-01-16T09:21:20Z</time>
      </trkpt>
      <trkpt lat="45.3168" lon="6.04879">
        <ele>1679.8</ele>
        <time>2021-01-16T09:21:21Z</time>
      </trkpt>
      <trkpt lat="45.31679" lon="6.0488">
        <ele>1679.8</ele>
        <time>2021-01-16T09:21:22Z</time>
      </trkpt>
      <trkpt lat="45.31678" lon="6.04881">
        <ele>1679.8</ele>
        <time>2021-01-16T09:21:23Z</time>
      </trkpt>
      <trkpt lat="45.31678" lon="6.04882">
        <ele>1679.8</ele>
        <time>2021-01-16T09:21:24Z</time>
      </trkpt>
      <trkpt lat="45.31677" lon="6.04883">
        <ele>1680</ele>
        <time>2021-01-16T09:21:25Z</time>
      </trkpt>
      <trkpt lat="45.31676" lon="6.04884">
        <ele>1680</ele>
        <time>2021-01-16T09:21:26Z</time>
      </trkpt>
      <trkpt lat="45.31676" lon="6.04885">
        <ele>1680</ele>
        <time>2021-01-16T09:21:27Z</time>
      </trkpt>
      <trkpt lat="45.31675" lon="6.04886">
        <ele>1680</ele>
        <time>2021-01-16T09:21:28Z</time>
      </trkpt>
      <trkpt lat="45.31674" lon="6.04887">
        <ele>1680</ele>
        <time>2021-01-16T09:21:29Z</time>
      </trkpt>
      <trkpt lat="45.31674" lon="6.04887">
        <ele>1680</ele>
        <time>2021-01-16T09:21:30Z</time>
      </trkpt>
      <trkpt lat="45.31673" lon="6.04888">
        <ele>1680.2</ele>
        <time>2021-01-16T09:21:31Z</time>
      </trkpt>
      <trkpt lat="45.31673" lon="6.04889">
        <ele>1680.2</ele>
        <time>2021-01-16T09:21:32Z</time>
      </trkpt>
      <trkpt lat="45.31672" lon="6.0489">
        <ele>1680.2</ele>
        <time>2021-01-16T09:21:33Z</time>
      </trkpt>
      <trkpt lat="45.31672" lon="6.04891">
        <ele>1680.2</ele>
        <time>2021-01-16T09:21:34Z</time>
      </trkpt>
      <trkpt lat="45.31671" lon="6.04892">
        <ele>1680.2</ele>
        <time>2021-01-16T09:21:35Z</time>
      </trkpt>
      <trkpt lat="45.3167" lon="6.04892">
        <ele>1680.2</ele>
        <time>2021-01-16T09:21:36Z</time>
      </trkpt>
      <trkpt lat="45.3167" lon="6.04893">
        <ele>1680.2</ele>
        <time>2021-01-16T09:21:37Z</time>
      </trkpt>
      <trkpt lat="45.31669" lon="6.04894">
        <ele>1680.4</ele>
        <time>2021-01-16T09:21:38Z</time>
      </trkpt>
      <trkpt lat="45.31668" lon="6.04895">
        <ele>1680.4</ele>
        <time>2021-01-16T09:21:39Z</time>
      </trkpt>
      <trkpt lat="45.31668" lon="6.04896">
        <ele>1680.4</ele>
        <time>2021-01-16T09:21:40Z</time>
      </trkpt>
      <trkpt lat="45.31667" lon="6.04898">
        <ele>1680.2</ele>
        <time>2021-01-16T09:21:41Z</time>
      </trkpt>
      <trkpt lat="45.31666" lon="6.04899">
        <ele>1680.2</ele>
        <time>2021-01-16T09:21:42Z</time>
      </trkpt>
      <trkpt lat="45.31666" lon="6.049">
        <ele>1680.2</ele>
        <time>2021-01-16T09:21:43Z</time>
      </trkpt>
      <trkpt lat="45.31665" lon="6.04901">
        <ele>1680.2</ele>
        <time>2021-01-16T09:21:44Z</time>
      </trkpt>
      <trkpt lat="45.31665" lon="6.04902">
        <ele>1680.4</ele>
        <time>2021-01-16T09:21:45Z</time>
      </trkpt>
      <trkpt lat="45.31665" lon="6.04903">
        <ele>1680.4</ele>
        <time>2021-01-16T09:21:46Z</time>
      </trkpt>
      <trkpt lat="45.31664" lon="6.04904">
        <ele>1680.4</ele>
        <time>2021-01-16T09:21:47Z</time>
      </trkpt>
      <trkpt lat="45.31663" lon="6.04905">
        <ele>1680.4</ele>
        <time>2021-01-16T09:21:48Z</time>
      </trkpt>
      <trkpt lat="45.31663" lon="6.04905">
        <ele>1680.4</ele>
        <time>2021-01-16T09:21:49Z</time>
      </trkpt>
      <trkpt lat="45.31663" lon="6.04906">
        <ele>1680.6</ele>
        <time>2021-01-16T09:21:50Z</time>
      </trkpt>
      <trkpt lat="45.31662" lon="6.04907">
        <ele>1680.6</ele>
        <time>2021-01-16T09:21:51Z</time>
      </trkpt>
      <trkpt lat="45.31661" lon="6.04908">
        <ele>1680.6</ele>
        <time>2021-01-16T09:21:52Z</time>
      </trkpt>
      <trkpt lat="45.31661" lon="6.04909">
        <ele>1680.8</ele>
        <time>2021-01-16T09:21:53Z</time>
      </trkpt>
      <trkpt lat="45.3166" lon="6.0491">
        <ele>1680.8</ele>
        <time>2021-01-16T09:21:54Z</time>
      </trkpt>
      <trkpt lat="45.3166" lon="6.04911">
        <ele>1681</ele>
        <time>2021-01-16T09:21:55Z</time>
      </trkpt>
      <trkpt lat="45.31659" lon="6.04911">
        <ele>1681</ele>
        <time>2021-01-16T09:21:56Z</time>
      </trkpt>
      <trkpt lat="45.31659" lon="6.04912">
        <ele>1681.2</ele>
        <time>2021-01-16T09:21:57Z</time>
      </trkpt>
      <trkpt lat="45.31658" lon="6.04913">
        <ele>1681.2</ele>
        <time>2021-01-16T09:21:58Z</time>
      </trkpt>
      <trkpt lat="45.31657" lon="6.04913">
        <ele>1681.2</ele>
        <time>2021-01-16T09:21:59Z</time>
      </trkpt>
      <trkpt lat="45.31657" lon="6.04914">
        <ele>1681.4</ele>
        <time>2021-01-16T09:22:00Z</time>
      </trkpt>
      <trkpt lat="45.31656" lon="6.04915">
        <ele>1681.4</ele>
        <time>2021-01-16T09:22:01Z</time>
      </trkpt>
      <trkpt lat="45.31655" lon="6.04915">
        <ele>1681.4</ele>
        <time>2021-01-16T09:22:02Z</time>
      </trkpt>
      <trkpt lat="45.31655" lon="6.04916">
        <ele>1681.6</ele>
        <time>2021-01-16T09:22:03Z</time>
      </trkpt>
      <trkpt lat="45.31654" lon="6.04917">
        <ele>1681.6</ele>
        <time>2021-01-16T09:22:04Z</time>
      </trkpt>
      <trkpt lat="45.31654" lon="6.04917">
        <ele>1681.8</ele>
        <time>2021-01-16T09:22:05Z</time>
      </trkpt>
      <trkpt lat="45.31653" lon="6.04918">
        <ele>1681.8</ele>
        <time>2021-01-16T09:22:06Z</time>
      </trkpt>
      <trkpt lat="45.31653" lon="6.04919">
        <ele>1682</ele>
        <time>2021-01-16T09:22:07Z</time>
      </trkpt>
      <trkpt lat="45.31652" lon="6.04919">
        <ele>1682.2</ele>
        <time>2021-01-16T09:22:08Z</time>
      </trkpt>
      <trkpt lat="45.31652" lon="6.0492">
        <ele>1682.2</ele>
        <time>2021-01-16T09:22:09Z</time>
      </trkpt>
      <trkpt lat="45.31651" lon="6.0492">
        <ele>1682.2</ele>
        <time>2021-01-16T09:22:10Z</time>
      </trkpt>
      <trkpt lat="45.31651" lon="6.04921">
        <ele>1682.4</ele>
        <time>2021-01-16T09:22:11Z</time>
      </trkpt>
      <trkpt lat="45.3165" lon="6.04922">
        <ele>1682.4</ele>
        <time>2021-01-16T09:22:12Z</time>
      </trkpt>
      <trkpt lat="45.3165" lon="6.04922">
        <ele>1682.6</ele>
        <time>2021-01-16T09:22:13Z</time>
      </trkpt>
      <trkpt lat="45.31649" lon="6.04923">
        <ele>1682.6</ele>
        <time>2021-01-16T09:22:14Z</time>
      </trkpt>
      <trkpt lat="45.31648" lon="6.04924">
        <ele>1682.8</ele>
        <time>2021-01-16T09:22:15Z</time>
      </trkpt>
      <trkpt lat="45.31648" lon="6.04924">
        <ele>1683</ele>
        <time>2021-01-16T09:22:16Z</time>
      </trkpt>
      <trkpt lat="45.31647" lon="6.04925">
        <ele>1683</ele>
        <time>2021-01-16T09:22:17Z</time>
      </trkpt>
      <trkpt lat="45.31647" lon="6.04926">
        <ele>1683.2</ele>
        <time>2021-01-16T09:22:18Z</time>
      </trkpt>
      <trkpt lat="45.31647" lon="6.04926">
        <ele>1683.4</ele>
        <time>2021-01-16T09:22:19Z</time>
      </trkpt>
      <trkpt lat="45.31646" lon="6.04927">
        <ele>1683.4</ele>
        <time>2021-01-16T09:22:20Z</time>
      </trkpt>
      <trkpt lat="45.31646" lon="6.04927">
        <ele>1683.6</ele>
        <time>2021-01-16T09:22:21Z</time>
      </trkpt>
      <trkpt lat="45.31645" lon="6.04928">
        <ele>1683.6</ele>
        <time>2021-01-16T09:22:22Z</time>
      </trkpt>
      <trkpt lat="45.31644" lon="6.04929">
        <ele>1684</ele>
        <time>2021-01-16T09:22:23Z</time>
      </trkpt>
      <trkpt lat="45.31644" lon="6.04929">
        <ele>1684</ele>
        <time>2021-01-16T09:22:24Z</time>
      </trkpt>
      <trkpt lat="45.31643" lon="6.0493">
        <ele>1684</ele>
        <time>2021-01-16T09:22:25Z</time>
      </trkpt>
      <trkpt lat="45.31643" lon="6.0493">
        <ele>1684.4</ele>
        <time>2021-01-16T09:22:26Z</time>
      </trkpt>
      <trkpt lat="45.31642" lon="6.04931">
        <ele>1684.4</ele>
        <time>2021-01-16T09:22:27Z</time>
      </trkpt>
      <trkpt lat="45.31642" lon="6.04931">
        <ele>1684.6</ele>
        <time>2021-01-16T09:22:28Z</time>
      </trkpt>
      <trkpt lat="45.31641" lon="6.04932">
        <ele>1684.8</ele>
        <time>2021-01-16T09:22:29Z</time>
      </trkpt>
      <trkpt lat="45.31641" lon="6.04932">
        <ele>1685</ele>
        <time>2021-01-16T09:22:30Z</time>
      </trkpt>
      <trkpt lat="45.3164" lon="6.04933">
        <ele>1685</ele>
        <time>2021-01-16T09:22:31Z</time>
      </trkpt>
      <trkpt lat="45.31639" lon="6.04933">
        <ele>1685.2</ele>
        <time>2021-01-16T09:22:32Z</time>
      </trkpt>
      <trkpt lat="45.31639" lon="6.04934">
        <ele>1685.4</ele>
        <time>2021-01-16T09:22:33Z</time>
      </trkpt>
      <trkpt lat="45.31638" lon="6.04934">
        <ele>1685.4</ele>
        <time>2021-01-16T09:22:34Z</time>
      </trkpt>
      <trkpt lat="45.31638" lon="6.04934">
        <ele>1685.6</ele>
        <time>2021-01-16T09:22:35Z</time>
      </trkpt>
      <trkpt lat="45.31637" lon="6.04935">
        <ele>1685.6</ele>
        <time>2021-01-16T09:22:36Z</time>
      </trkpt>
      <trkpt lat="45.31637" lon="6.04936">
        <ele>1685.8</ele>
        <time>2021-01-16T09:22:37Z</time>
      </trkpt>
      <trkpt lat="45.31636" lon="6.04936">
        <ele>1686</ele>
        <time>2021-01-16T09:22:38Z</time>
      </trkpt>
      <trkpt lat="45.31636" lon="6.04937">
        <ele>1686.2</ele>
        <time>2021-01-16T09:22:39Z</time>
      </trkpt>
      <trkpt lat="45.31635" lon="6.04938">
        <ele>1686.2</ele>
        <time>2021-01-16T09:22:40Z</time>
      </trkpt>
      <trkpt lat="45.31634" lon="6.04938">
        <ele>1686.4</ele>
        <time>2021-01-16T09:22:41Z</time>
      </trkpt>
      <trkpt lat="45.31634" lon="6.04939">
        <ele>1686.6</ele>
        <time>2021-01-16T09:22:42Z</time>
      </trkpt>
      <trkpt lat="45.31633" lon="6.04939">
        <ele>1686.8</ele>
        <time>2021-01-16T09:22:43Z</time>
      </trkpt>
      <trkpt lat="45.31633" lon="6.04939">
        <ele>1686.8</ele>
        <time>2021-01-16T09:22:44Z</time>
      </trkpt>
      <trkpt lat="45.31632" lon="6.0494">
        <ele>1687</ele>
        <time>2021-01-16T09:22:45Z</time>
      </trkpt>
      <trkpt lat="45.31631" lon="6.04941">
        <ele>1687.2</ele>
        <time>2021-01-16T09:22:46Z</time>
      </trkpt>
      <trkpt lat="45.31631" lon="6.04941">
        <ele>1687.4</ele>
        <time>2021-01-16T09:22:47Z</time>
      </trkpt>
      <trkpt lat="45.3163" lon="6.04942">
        <ele>1687.4</ele>
        <time>2021-01-16T09:22:48Z</time>
      </trkpt>
      <trkpt lat="45.31629" lon="6.04942">
        <ele>1687.6</ele>
        <time>2021-01-16T09:22:49Z</time>
      </trkpt>
      <trkpt lat="45.31629" lon="6.04942">
        <ele>1687.6</ele>
        <time>2021-01-16T09:22:50Z</time>
      </trkpt>
      <trkpt lat="45.31628" lon="6.04943">
        <ele>1687.8</ele>
        <time>2021-01-16T09:22:51Z</time>
      </trkpt>
      <trkpt lat="45.31628" lon="6.04944">
        <ele>1688</ele>
        <time>2021-01-16T09:22:52Z</time>
      </trkpt>
      <trkpt lat="45.31626" lon="6.04944">
        <ele>1688</ele>
        <time>2021-01-16T09:22:53Z</time>
      </trkpt>
      <trkpt lat="45.31626" lon="6.04944">
        <ele>1688.2</ele>
        <time>2021-01-16T09:22:54Z</time>
      </trkpt>
      <trkpt lat="45.31625" lon="6.04945">
        <ele>1688.4</ele>
        <time>2021-01-16T09:22:55Z</time>
      </trkpt>
      <trkpt lat="45.31625" lon="6.04945">
        <ele>1688.4</ele>
        <time>2021-01-16T09:22:56Z</time>
      </trkpt>
      <trkpt lat="45.31624" lon="6.04946">
        <ele>1688.6</ele>
        <time>2021-01-16T09:22:57Z</time>
      </trkpt>
      <trkpt lat="45.31623" lon="6.04947">
        <ele>1688.8</ele>
        <time>2021-01-16T09:22:58Z</time>
      </trkpt>
      <trkpt lat="45.31622" lon="6.04947">
        <ele>1688.8</ele>
        <time>2021-01-16T09:22:59Z</time>
      </trkpt>
      <trkpt lat="45.31622" lon="6.04948">
        <ele>1689</ele>
        <time>2021-01-16T09:23:00Z</time>
      </trkpt>
      <trkpt lat="45.31621" lon="6.04949">
        <ele>1689</ele>
        <time>2021-01-16T09:23:01Z</time>
      </trkpt>
      <trkpt lat="45.3162" lon="6.0495">
        <ele>1689.2</ele>
        <time>2021-01-16T09:23:02Z</time>
      </trkpt>
      <trkpt lat="45.3162" lon="6.0495">
        <ele>1689.4</ele>
        <time>2021-01-16T09:23:03Z</time>
      </trkpt>
      <trkpt lat="45.31619" lon="6.04951">
        <ele>1689.4</ele>
        <time>2021-01-16T09:23:04Z</time>
      </trkpt>
      <trkpt lat="45.31618" lon="6.04951">
        <ele>1689.6</ele>
        <time>2021-01-16T09:23:05Z</time>
      </trkpt>
      <trkpt lat="45.31618" lon="6.04952">
        <ele>1689.8</ele>
        <time>2021-01-16T09:23:06Z</time>
      </trkpt>
      <trkpt lat="45.31617" lon="6.04952">
        <ele>1690</ele>
        <time>2021-01-16T09:23:07Z</time>
      </trkpt>
      <trkpt lat="45.31617" lon="6.04953">
        <ele>1690</ele>
        <time>2021-01-16T09:23:08Z</time>
      </trkpt>
      <trkpt lat="45.31617" lon="6.04953">
        <ele>1690.2</ele>
        <time>2021-01-16T09:23:09Z</time>
      </trkpt>
      <trkpt lat="45.31616" lon="6.04953">
        <ele>1690.4</ele>
        <time>2021-01-16T09:23:10Z</time>
      </trkpt>
      <trkpt lat="45.31616" lon="6.04953">
        <ele>1690.6</ele>
        <time>2021-01-16T09:23:11Z</time>
      </trkpt>
      <trkpt lat="45.31615" lon="6.04954">
        <ele>1690.6</ele>
        <time>2021-01-16T09:23:12Z</time>
      </trkpt>
      <trkpt lat="45.31615" lon="6.04954">
        <ele>1690.6</ele>
        <time>2021-01-16T09:23:13Z</time>
      </trkpt>
      <trkpt lat="45.31614" lon="6.04955">
        <ele>1691</ele>
        <time>2021-01-16T09:23:14Z</time>
      </trkpt>
      <trkpt lat="45.31613" lon="6.04956">
        <ele>1691</ele>
        <time>2021-01-16T09:23:15Z</time>
      </trkpt>
      <trkpt lat="45.31613" lon="6.04956">
        <ele>1691.2</ele>
        <time>2021-01-16T09:23:16Z</time>
      </trkpt>
      <trkpt lat="45.31612" lon="6.04957">
        <ele>1691.4</ele>
        <time>2021-01-16T09:23:17Z</time>
      </trkpt>
      <trkpt lat="45.31612" lon="6.04957">
        <ele>1691.4</ele>
        <time>2021-01-16T09:23:18Z</time>
      </trkpt>
      <trkpt lat="45.31611" lon="6.04958">
        <ele>1691.6</ele>
        <time>2021-01-16T09:23:19Z</time>
      </trkpt>
      <trkpt lat="45.3161" lon="6.04959">
        <ele>1691.8</ele>
        <time>2021-01-16T09:23:20Z</time>
      </trkpt>
      <trkpt lat="45.3161" lon="6.04959">
        <ele>1692</ele>
        <time>2021-01-16T09:23:21Z</time>
      </trkpt>
      <trkpt lat="45.31609" lon="6.0496">
        <ele>1692.2</ele>
        <time>2021-01-16T09:23:22Z</time>
      </trkpt>
      <trkpt lat="45.31608" lon="6.04961">
        <ele>1692.4</ele>
        <time>2021-01-16T09:23:23Z</time>
      </trkpt>
      <trkpt lat="45.31608" lon="6.04961">
        <ele>1692.4</ele>
        <time>2021-01-16T09:23:24Z</time>
      </trkpt>
      <trkpt lat="45.31607" lon="6.04962">
        <ele>1692.6</ele>
        <time>2021-01-16T09:23:25Z</time>
      </trkpt>
      <trkpt lat="45.31606" lon="6.04962">
        <ele>1692.8</ele>
        <time>2021-01-16T09:23:26Z</time>
      </trkpt>
      <trkpt lat="45.31606" lon="6.04962">
        <ele>1693</ele>
        <time>2021-01-16T09:23:27Z</time>
      </trkpt>
      <trkpt lat="45.31605" lon="6.04963">
        <ele>1693.2</ele>
        <time>2021-01-16T09:23:28Z</time>
      </trkpt>
      <trkpt lat="45.31605" lon="6.04963">
        <ele>1693.2</ele>
        <time>2021-01-16T09:23:29Z</time>
      </trkpt>
      <trkpt lat="45.31604" lon="6.04964">
        <ele>1693.4</ele>
        <time>2021-01-16T09:23:30Z</time>
      </trkpt>
      <trkpt lat="45.31604" lon="6.04964">
        <ele>1693.6</ele>
        <time>2021-01-16T09:23:31Z</time>
      </trkpt>
      <trkpt lat="45.31603" lon="6.04965">
        <ele>1693.8</ele>
        <time>2021-01-16T09:23:32Z</time>
      </trkpt>
      <trkpt lat="45.31602" lon="6.04966">
        <ele>1694</ele>
        <time>2021-01-16T09:23:33Z</time>
      </trkpt>
      <trkpt lat="45.31602" lon="6.04966">
        <ele>1694</ele>
        <time>2021-01-16T09:23:34Z</time>
      </trkpt>
      <trkpt lat="45.31601" lon="6.04967">
        <ele>1694.2</ele>
        <time>2021-01-16T09:23:35Z</time>
      </trkpt>
      <trkpt lat="45.316" lon="6.04967">
        <ele>1694.6</ele>
        <time>2021-01-16T09:23:36Z</time>
      </trkpt>
      <trkpt lat="45.316" lon="6.04968">
        <ele>1694.6</ele>
        <time>2021-01-16T09:23:37Z</time>
      </trkpt>
      <trkpt lat="45.31599" lon="6.04968">
        <ele>1694.8</ele>
        <time>2021-01-16T09:23:38Z</time>
      </trkpt>
      <trkpt lat="45.31599" lon="6.04969">
        <ele>1694.8</ele>
        <time>2021-01-16T09:23:39Z</time>
      </trkpt>
      <trkpt lat="45.31598" lon="6.04969">
        <ele>1695.2</ele>
        <time>2021-01-16T09:23:40Z</time>
      </trkpt>
      <trkpt lat="45.31597" lon="6.04969">
        <ele>1695.4</ele>
        <time>2021-01-16T09:23:41Z</time>
      </trkpt>
      <trkpt lat="45.31597" lon="6.04969">
        <ele>1695.4</ele>
        <time>2021-01-16T09:23:42Z</time>
      </trkpt>
      <trkpt lat="45.31596" lon="6.0497">
        <ele>1695.8</ele>
        <time>2021-01-16T09:23:43Z</time>
      </trkpt>
      <trkpt lat="45.31596" lon="6.0497">
        <ele>1695.8</ele>
        <time>2021-01-16T09:23:44Z</time>
      </trkpt>
      <trkpt lat="45.31595" lon="6.04971">
        <ele>1696</ele>
        <time>2021-01-16T09:23:45Z</time>
      </trkpt>
      <trkpt lat="45.31594" lon="6.04971">
        <ele>1696.2</ele>
        <time>2021-01-16T09:23:46Z</time>
      </trkpt>
      <trkpt lat="45.31593" lon="6.04971">
        <ele>1696.2</ele>
        <time>2021-01-16T09:23:47Z</time>
      </trkpt>
      <trkpt lat="45.31593" lon="6.04971">
        <ele>1696.6</ele>
        <time>2021-01-16T09:23:48Z</time>
      </trkpt>
      <trkpt lat="45.31592" lon="6.04971">
        <ele>1696.6</ele>
        <time>2021-01-16T09:23:49Z</time>
      </trkpt>
      <trkpt lat="45.31592" lon="6.04971">
        <ele>1696.8</ele>
        <time>2021-01-16T09:23:50Z</time>
      </trkpt>
      <trkpt lat="45.31591" lon="6.04972">
        <ele>1697</ele>
        <time>2021-01-16T09:23:51Z</time>
      </trkpt>
      <trkpt lat="45.31591" lon="6.04971">
        <ele>1697</ele>
        <time>2021-01-16T09:23:52Z</time>
      </trkpt>
      <trkpt lat="45.3159" lon="6.04971">
        <ele>1697.2</ele>
        <time>2021-01-16T09:23:53Z</time>
      </trkpt>
      <trkpt lat="45.31589" lon="6.04971">
        <ele>1697.4</ele>
        <time>2021-01-16T09:23:54Z</time>
      </trkpt>
      <trkpt lat="45.31589" lon="6.04971">
        <ele>1697.6</ele>
        <time>2021-01-16T09:23:55Z</time>
      </trkpt>
      <trkpt lat="45.31589" lon="6.04971">
        <ele>1697.6</ele>
        <time>2021-01-16T09:23:56Z</time>
      </trkpt>
      <trkpt lat="45.31588" lon="6.04971">
        <ele>1697.8</ele>
        <time>2021-01-16T09:23:57Z</time>
      </trkpt>
      <trkpt lat="45.31588" lon="6.04971">
        <ele>1698</ele>
        <time>2021-01-16T09:23:58Z</time>
      </trkpt>
      <trkpt lat="45.31587" lon="6.04971">
        <ele>1698.2</ele>
        <time>2021-01-16T09:23:59Z</time>
      </trkpt>
      <trkpt lat="45.31586" lon="6.04971">
        <ele>1698.2</ele>
        <time>2021-01-16T09:24:00Z</time>
      </trkpt>
      <trkpt lat="45.31586" lon="6.04971">
        <ele>1698.4</ele>
        <time>2021-01-16T09:24:01Z</time>
      </trkpt>
      <trkpt lat="45.31585" lon="6.04971">
        <ele>1698.6</ele>
        <time>2021-01-16T09:24:02Z</time>
      </trkpt>
      <trkpt lat="45.31584" lon="6.04972">
        <ele>1698.6</ele>
        <time>2021-01-16T09:24:03Z</time>
      </trkpt>
      <trkpt lat="45.31583" lon="6.04972">
        <ele>1698.8</ele>
        <time>2021-01-16T09:24:04Z</time>
      </trkpt>
      <trkpt lat="45.31583" lon="6.04972">
        <ele>1699</ele>
        <time>2021-01-16T09:24:05Z</time>
      </trkpt>
      <trkpt lat="45.31582" lon="6.04973">
        <ele>1699.2</ele>
        <time>2021-01-16T09:24:06Z</time>
      </trkpt>
      <trkpt lat="45.31581" lon="6.04973">
        <ele>1699.2</ele>
        <time>2021-01-16T09:24:07Z</time>
      </trkpt>
      <trkpt lat="45.3158" lon="6.04973">
        <ele>1699.2</ele>
        <time>2021-01-16T09:24:08Z</time>
      </trkpt>
      <trkpt lat="45.31579" lon="6.04973">
        <ele>1699.4</ele>
        <time>2021-01-16T09:24:09Z</time>
      </trkpt>
      <trkpt lat="45.31578" lon="6.04973">
        <ele>1699.4</ele>
        <time>2021-01-16T09:24:10Z</time>
      </trkpt>
      <trkpt lat="45.31577" lon="6.04974">
        <ele>1699.4</ele>
        <time>2021-01-16T09:24:11Z</time>
      </trkpt>
      <trkpt lat="45.31576" lon="6.04974">
        <ele>1699.4</ele>
        <time>2021-01-16T09:24:12Z</time>
      </trkpt>
      <trkpt lat="45.31576" lon="6.04974">
        <ele>1699.6</ele>
        <time>2021-01-16T09:24:13Z</time>
      </trkpt>
      <trkpt lat="45.31575" lon="6.04975">
        <ele>1699.4</ele>
        <time>2021-01-16T09:24:14Z</time>
      </trkpt>
      <trkpt lat="45.31575" lon="6.04975">
        <ele>1699.8</ele>
        <time>2021-01-16T09:24:15Z</time>
      </trkpt>
      <trkpt lat="45.31574" lon="6.04975">
        <ele>1699.8</ele>
        <time>2021-01-16T09:24:16Z</time>
      </trkpt>
      <trkpt lat="45.31574" lon="6.04976">
        <ele>1700</ele>
        <time>2021-01-16T09:24:17Z</time>
      </trkpt>
      <trkpt lat="45.31574" lon="6.04976">
        <ele>1700.4</ele>
        <time>2021-01-16T09:24:18Z</time>
      </trkpt>
      <trkpt lat="45.31573" lon="6.04977">
        <ele>1700.4</ele>
        <time>2021-01-16T09:24:19Z</time>
      </trkpt>
      <trkpt lat="45.31572" lon="6.04977">
        <ele>1700.6</ele>
        <time>2021-01-16T09:24:20Z</time>
      </trkpt>
      <trkpt lat="45.31572" lon="6.04977">
        <ele>1700.8</ele>
        <time>2021-01-16T09:24:21Z</time>
      </trkpt>
      <trkpt lat="45.31572" lon="6.04977">
        <ele>1701</ele>
        <time>2021-01-16T09:24:22Z</time>
      </trkpt>
      <trkpt lat="45.31571" lon="6.04978">
        <ele>1701.2</ele>
        <time>2021-01-16T09:24:23Z</time>
      </trkpt>
      <trkpt lat="45.31571" lon="6.04978">
        <ele>1701.4</ele>
        <time>2021-01-16T09:24:24Z</time>
      </trkpt>
      <trkpt lat="45.3157" lon="6.04978">
        <ele>1701.6</ele>
        <time>2021-01-16T09:24:25Z</time>
      </trkpt>
      <trkpt lat="45.3157" lon="6.04979">
        <ele>1701.8</ele>
        <time>2021-01-16T09:24:26Z</time>
      </trkpt>
      <trkpt lat="45.3157" lon="6.04979">
        <ele>1702</ele>
        <time>2021-01-16T09:24:27Z</time>
      </trkpt>
      <trkpt lat="45.3157" lon="6.0498">
        <ele>1702.2</ele>
        <time>2021-01-16T09:24:28Z</time>
      </trkpt>
      <trkpt lat="45.3157" lon="6.0498">
        <ele>1702.2</ele>
        <time>2021-01-16T09:24:29Z</time>
      </trkpt>
      <trkpt lat="45.3157" lon="6.0498">
        <ele>1702.4</ele>
        <time>2021-01-16T09:24:30Z</time>
      </trkpt>
      <trkpt lat="45.3157" lon="6.0498">
        <ele>1702.6</ele>
        <time>2021-01-16T09:24:31Z</time>
      </trkpt>
      <trkpt lat="45.3157" lon="6.0498">
        <ele>1702.6</ele>
        <time>2021-01-16T09:24:32Z</time>
      </trkpt>
      <trkpt lat="45.3157" lon="6.04983">
        <ele>1702.8</ele>
        <time>2021-01-16T09:24:33Z</time>
      </trkpt>
      <trkpt lat="45.3157" lon="6.04983">
        <ele>1702.8</ele>
        <time>2021-01-16T09:24:34Z</time>
      </trkpt>
      <trkpt lat="45.3157" lon="6.04984">
        <ele>1702.8</ele>
        <time>2021-01-16T09:24:35Z</time>
      </trkpt>
      <trkpt lat="45.3157" lon="6.04985">
        <ele>1703</ele>
        <time>2021-01-16T09:24:36Z</time>
      </trkpt>
      <trkpt lat="45.31571" lon="6.04986">
        <ele>1703</ele>
        <time>2021-01-16T09:24:37Z</time>
      </trkpt>
      <trkpt lat="45.31571" lon="6.04987">
        <ele>1703.2</ele>
        <time>2021-01-16T09:24:38Z</time>
      </trkpt>
      <trkpt lat="45.31571" lon="6.04987">
        <ele>1703.4</ele>
        <time>2021-01-16T09:24:39Z</time>
      </trkpt>
      <trkpt lat="45.31571" lon="6.04988">
        <ele>1703.6</ele>
        <time>2021-01-16T09:24:40Z</time>
      </trkpt>
      <trkpt lat="45.31571" lon="6.04989">
        <ele>1703.8</ele>
        <time>2021-01-16T09:24:41Z</time>
      </trkpt>
      <trkpt lat="45.31571" lon="6.0499">
        <ele>1703.8</ele>
        <time>2021-01-16T09:24:42Z</time>
      </trkpt>
      <trkpt lat="45.31569" lon="6.04994">
        <ele>1704</ele>
        <time>2021-01-16T09:24:43Z</time>
      </trkpt>
      <trkpt lat="45.31567" lon="6.04998">
        <ele>1704</ele>
        <time>2021-01-16T09:24:44Z</time>
      </trkpt>
      <trkpt lat="45.31566" lon="6.05001">
        <ele>1704.2</ele>
        <time>2021-01-16T09:24:45Z</time>
      </trkpt>
      <trkpt lat="45.31566" lon="6.05">
        <ele>1704.4</ele>
        <time>2021-01-16T09:24:46Z</time>
      </trkpt>
      <trkpt lat="45.31565" lon="6.05">
        <ele>1704.6</ele>
        <time>2021-01-16T09:24:47Z</time>
      </trkpt>
      <trkpt lat="45.31565" lon="6.05001">
        <ele>1704.4</ele>
        <time>2021-01-16T09:24:48Z</time>
      </trkpt>
      <trkpt lat="45.31566" lon="6.05002">
        <ele>1704.8</ele>
        <time>2021-01-16T09:24:49Z</time>
      </trkpt>
      <trkpt lat="45.31567" lon="6.05003">
        <ele>1704.6</ele>
        <time>2021-01-16T09:24:50Z</time>
      </trkpt>
      <trkpt lat="45.31568" lon="6.05004">
        <ele>1704.8</ele>
        <time>2021-01-16T09:24:51Z</time>
      </trkpt>
      <trkpt lat="45.31568" lon="6.05004">
        <ele>1704.8</ele>
        <time>2021-01-16T09:24:52Z</time>
      </trkpt>
      <trkpt lat="45.31569" lon="6.05004">
        <ele>1705</ele>
        <time>2021-01-16T09:24:53Z</time>
      </trkpt>
      <trkpt lat="45.31569" lon="6.05004">
        <ele>1705</ele>
        <time>2021-01-16T09:24:54Z</time>
      </trkpt>
      <trkpt lat="45.3157" lon="6.05004">
        <ele>1705.2</ele>
        <time>2021-01-16T09:24:55Z</time>
      </trkpt>
      <trkpt lat="45.31571" lon="6.05004">
        <ele>1705.4</ele>
        <time>2021-01-16T09:24:56Z</time>
      </trkpt>
      <trkpt lat="45.31571" lon="6.05004">
        <ele>1705.6</ele>
        <time>2021-01-16T09:24:57Z</time>
      </trkpt>
      <trkpt lat="45.31571" lon="6.05005">
        <ele>1705.6</ele>
        <time>2021-01-16T09:24:58Z</time>
      </trkpt>
      <trkpt lat="45.31571" lon="6.05005">
        <ele>1706</ele>
        <time>2021-01-16T09:24:59Z</time>
      </trkpt>
      <trkpt lat="45.31572" lon="6.05006">
        <ele>1705.8</ele>
        <time>2021-01-16T09:25:00Z</time>
      </trkpt>
      <trkpt lat="45.31573" lon="6.05007">
        <ele>1706</ele>
        <time>2021-01-16T09:25:01Z</time>
      </trkpt>
      <trkpt lat="45.31573" lon="6.05007">
        <ele>1706.2</ele>
        <time>2021-01-16T09:25:02Z</time>
      </trkpt>
      <trkpt lat="45.31574" lon="6.05007">
        <ele>1706.2</ele>
        <time>2021-01-16T09:25:03Z</time>
      </trkpt>
      <trkpt lat="45.31574" lon="6.05008">
        <ele>1706.4</ele>
        <time>2021-01-16T09:25:04Z</time>
      </trkpt>
      <trkpt lat="45.31574" lon="6.05009">
        <ele>1706.2</ele>
        <time>2021-01-16T09:25:05Z</time>
      </trkpt>
      <trkpt lat="45.31575" lon="6.0501">
        <ele>1706.4</ele>
        <time>2021-01-16T09:25:06Z</time>
      </trkpt>
      <trkpt lat="45.31575" lon="6.0501">
        <ele>1706.6</ele>
        <time>2021-01-16T09:25:07Z</time>
      </trkpt>
      <trkpt lat="45.31575" lon="6.05011">
        <ele>1706.6</ele>
        <time>2021-01-16T09:25:08Z</time>
      </trkpt>
      <trkpt lat="45.31576" lon="6.05012">
        <ele>1706.8</ele>
        <time>2021-01-16T09:25:09Z</time>
      </trkpt>
      <trkpt lat="45.31576" lon="6.05012">
        <ele>1706.8</ele>
        <time>2021-01-16T09:25:10Z</time>
      </trkpt>
      <trkpt lat="45.31576" lon="6.05013">
        <ele>1706.8</ele>
        <time>2021-01-16T09:25:11Z</time>
      </trkpt>
      <trkpt lat="45.31576" lon="6.05013">
        <ele>1707.2</ele>
        <time>2021-01-16T09:25:12Z</time>
      </trkpt>
      <trkpt lat="45.31576" lon="6.05014">
        <ele>1707</ele>
        <time>2021-01-16T09:25:13Z</time>
      </trkpt>
      <trkpt lat="45.31576" lon="6.05014">
        <ele>1707</ele>
        <time>2021-01-16T09:25:14Z</time>
      </trkpt>
      <trkpt lat="45.31576" lon="6.05014">
        <ele>1707</ele>
        <time>2021-01-16T09:25:15Z</time>
      </trkpt>
      <trkpt lat="45.31576" lon="6.05014">
        <ele>1707</ele>
        <time>2021-01-16T09:25:16Z</time>
      </trkpt>
      <trkpt lat="45.31576" lon="6.05014">
        <ele>1707.2</ele>
        <time>2021-01-16T09:25:17Z</time>
      </trkpt>
      <trkpt lat="45.31577" lon="6.05014">
        <ele>1707.2</ele>
        <time>2021-01-16T09:25:18Z</time>
      </trkpt>
      <trkpt lat="45.31577" lon="6.05014">
        <ele>1707</ele>
        <time>2021-01-16T09:25:19Z</time>
      </trkpt>
      <trkpt lat="45.31577" lon="6.05014">
        <ele>1707</ele>
        <time>2021-01-16T09:25:20Z</time>
      </trkpt>
      <trkpt lat="45.31577" lon="6.05014">
        <ele>1707</ele>
        <time>2021-01-16T09:25:21Z</time>
      </trkpt>
      <trkpt lat="45.31577" lon="6.05014">
        <ele>1707</ele>
        <time>2021-01-16T09:25:22Z</time>
      </trkpt>
      <trkpt lat="45.31577" lon="6.05014">
        <ele>1707</ele>
        <time>2021-01-16T09:25:23Z</time>
      </trkpt>
      <trkpt lat="45.31577" lon="6.05014">
        <ele>1707</ele>
        <time>2021-01-16T09:25:24Z</time>
      </trkpt>
      <trkpt lat="45.31577" lon="6.05014">
        <ele>1707</ele>
        <time>2021-01-16T09:25:25Z</time>
      </trkpt>
      <trkpt lat="45.31577" lon="6.05014">
        <ele>1707</ele>
        <time>2021-01-16T09:25:26Z</time>
      </trkpt>
      <trkpt lat="45.31577" lon="6.05014">
        <ele>1707</ele>
        <time>2021-01-16T09:25:27Z</time>
      </trkpt>
      <trkpt lat="45.31577" lon="6.05014">
        <ele>1707</ele>
        <time>2021-01-16T09:25:28Z</time>
      </trkpt>
      <trkpt lat="45.31577" lon="6.05014">
        <ele>1707</ele>
        <time>2021-01-16T09:25:29Z</time>
      </trkpt>
      <trkpt lat="45.31577" lon="6.05014">
        <ele>1707</ele>
        <time>2021-01-16T09:25:30Z</time>
      </trkpt>
      <trkpt lat="45.31577" lon="6.05014">
        <ele>1707</ele>
        <time>2021-01-16T09:25:31Z</time>
      </trkpt>
      <trkpt lat="45.31577" lon="6.05014">
        <ele>1707</ele>
        <time>2021-01-16T09:25:32Z</time>
      </trkpt>
      <trkpt lat="45.31577" lon="6.05014">
        <ele>1706.8</ele>
        <time>2021-01-16T09:25:33Z</time>
      </trkpt>
      <trkpt lat="45.31577" lon="6.05014">
        <ele>1707</ele>
        <time>2021-01-16T09:25:34Z</time>
      </trkpt>
      <trkpt lat="45.31577" lon="6.05014">
        <ele>1707</ele>
        <time>2021-01-16T09:25:35Z</time>
      </trkpt>
      <trkpt lat="45.31577" lon="6.05014">
        <ele>1707</ele>
        <time>2021-01-16T09:25:36Z</time>
      </trkpt>
      <trkpt lat="45.31577" lon="6.05014">
        <ele>1706.8</ele>
        <time>2021-01-16T09:25:37Z</time>
      </trkpt>
      <trkpt lat="45.31577" lon="6.05014">
        <ele>1707</ele>
        <time>2021-01-16T09:25:38Z</time>
      </trkpt>
      <trkpt lat="45.31577" lon="6.05014">
        <ele>1706.6</ele>
        <time>2021-01-16T09:25:39Z</time>
      </trkpt>
      <trkpt lat="45.31577" lon="6.05014">
        <ele>1706.8</ele>
        <time>2021-01-16T09:25:40Z</time>
      </trkpt>
      <trkpt lat="45.31577" lon="6.05014">
        <ele>1707</ele>
        <time>2021-01-16T09:25:41Z</time>
      </trkpt>
      <trkpt lat="45.31577" lon="6.05014">
        <ele>1707</ele>
        <time>2021-01-16T09:25:42Z</time>
      </trkpt>
      <trkpt lat="45.31577" lon="6.05014">
        <ele>1707</ele>
        <time>2021-01-16T09:25:43Z</time>
      </trkpt>
      <trkpt lat="45.31577" lon="6.05014">
        <ele>1707</ele>
        <time>2021-01-16T09:25:44Z</time>
      </trkpt>
      <trkpt lat="45.31577" lon="6.05014">
        <ele>1707</ele>
        <time>2021-01-16T09:25:45Z</time>
      </trkpt>
      <trkpt lat="45.31577" lon="6.05014">
        <ele>1707</ele>
        <time>2021-01-16T09:25:46Z</time>
      </trkpt>
      <trkpt lat="45.31577" lon="6.05014">
        <ele>1707</ele>
        <time>2021-01-16T09:25:47Z</time>
      </trkpt>
      <trkpt lat="45.31577" lon="6.05014">
        <ele>1707</ele>
        <time>2021-01-16T09:25:48Z</time>
      </trkpt>
      <trkpt lat="45.31577" lon="6.05014">
        <ele>1707</ele>
        <time>2021-01-16T09:25:49Z</time>
      </trkpt>
      <trkpt lat="45.31577" lon="6.05014">
        <ele>1707</ele>
        <time>2021-01-16T09:25:50Z</time>
      </trkpt>
      <trkpt lat="45.31577" lon="6.05014">
        <ele>1707</ele>
        <time>2021-01-16T09:25:51Z</time>
      </trkpt>
      <trkpt lat="45.31577" lon="6.05014">
        <ele>1706.8</ele>
        <time>2021-01-16T09:25:52Z</time>
      </trkpt>
      <trkpt lat="45.31577" lon="6.05014">
        <ele>1706.8</ele>
        <time>2021-01-16T09:25:53Z</time>
      </trkpt>
      <trkpt lat="45.31577" lon="6.05014">
        <ele>1706.8</ele>
        <time>2021-01-16T09:25:54Z</time>
      </trkpt>
      <trkpt lat="45.31577" lon="6.05014">
        <ele>1706.8</ele>
        <time>2021-01-16T09:25:55Z</time>
      </trkpt>
      <trkpt lat="45.31577" lon="6.05014">
        <ele>1707</ele>
        <time>2021-01-16T09:25:56Z</time>
      </trkpt>
      <trkpt lat="45.31577" lon="6.05014">
        <ele>1707</ele>
        <time>2021-01-16T09:25:57Z</time>
      </trkpt>
      <trkpt lat="45.31577" lon="6.05014">
        <ele>1707</ele>
        <time>2021-01-16T09:25:58Z</time>
      </trkpt>
      <trkpt lat="45.31577" lon="6.05014">
        <ele>1707</ele>
        <time>2021-01-16T09:25:59Z</time>
      </trkpt>
      <trkpt lat="45.31577" lon="6.05014">
        <ele>1706.8</ele>
        <time>2021-01-16T09:26:00Z</time>
      </trkpt>
      <trkpt lat="45.31577" lon="6.05014">
        <ele>1706.8</ele>
        <time>2021-01-16T09:26:01Z</time>
      </trkpt>
      <trkpt lat="45.31577" lon="6.05014">
        <ele>1706.8</ele>
        <time>2021-01-16T09:26:02Z</time>
      </trkpt>
      <trkpt lat="45.31577" lon="6.05014">
        <ele>1706.8</ele>
        <time>2021-01-16T09:26:03Z</time>
      </trkpt>
      <trkpt lat="45.31577" lon="6.05014">
        <ele>1706.8</ele>
        <time>2021-01-16T09:26:04Z</time>
      </trkpt>
      <trkpt lat="45.31577" lon="6.05014">
        <ele>1706.8</ele>
        <time>2021-01-16T09:26:05Z</time>
      </trkpt>
      <trkpt lat="45.31577" lon="6.05014">
        <ele>1706.8</ele>
        <time>2021-01-16T09:26:06Z</time>
      </trkpt>
      <trkpt lat="45.31577" lon="6.05014">
        <ele>1706.6</ele>
        <time>2021-01-16T09:26:07Z</time>
      </trkpt>
      <trkpt lat="45.31577" lon="6.05014">
        <ele>1706.6</ele>
        <time>2021-01-16T09:26:08Z</time>
      </trkpt>
      <trkpt lat="45.31577" lon="6.05014">
        <ele>1706.6</ele>
        <time>2021-01-16T09:26:09Z</time>
      </trkpt>
      <trkpt lat="45.31577" lon="6.05014">
        <ele>1706.6</ele>
        <time>2021-01-16T09:26:10Z</time>
      </trkpt>
      <trkpt lat="45.31577" lon="6.05014">
        <ele>1706.6</ele>
        <time>2021-01-16T09:26:11Z</time>
      </trkpt>
      <trkpt lat="45.31577" lon="6.05014">
        <ele>1706.6</ele>
        <time>2021-01-16T09:26:12Z</time>
      </trkpt>
      <trkpt lat="45.31577" lon="6.05014">
        <ele>1706.6</ele>
        <time>2021-01-16T09:26:13Z</time>
      </trkpt>
      <trkpt lat="45.31577" lon="6.05014">
        <ele>1706.6</ele>
        <time>2021-01-16T09:26:14Z</time>
      </trkpt>
      <trkpt lat="45.31577" lon="6.05014">
        <ele>1706.6</ele>
        <time>2021-01-16T09:26:15Z</time>
      </trkpt>
      <trkpt lat="45.31577" lon="6.05014">
        <ele>1706.6</ele>
        <time>2021-01-16T09:26:16Z</time>
      </trkpt>
      <trkpt lat="45.31577" lon="6.05014">
        <ele>1706.6</ele>
        <time>2021-01-16T09:26:17Z</time>
      </trkpt>
      <trkpt lat="45.31577" lon="6.05014">
        <ele>1706.6</ele>
        <time>2021-01-16T09:26:18Z</time>
      </trkpt>
      <trkpt lat="45.31577" lon="6.05014">
        <ele>1706.6</ele>
        <time>2021-01-16T09:26:19Z</time>
      </trkpt>
      <trkpt lat="45.31577" lon="6.05014">
        <ele>1706.4</ele>
        <time>2021-01-16T09:26:20Z</time>
      </trkpt>
      <trkpt lat="45.31577" lon="6.05014">
        <ele>1706.4</ele>
        <time>2021-01-16T09:26:21Z</time>
      </trkpt>
      <trkpt lat="45.31577" lon="6.05014">
        <ele>1706.4</ele>
        <time>2021-01-16T09:26:22Z</time>
      </trkpt>
      <trkpt lat="45.31577" lon="6.05014">
        <ele>1706.4</ele>
        <time>2021-01-16T09:26:23Z</time>
      </trkpt>
      <trkpt lat="45.31577" lon="6.05014">
        <ele>1706.4</ele>
        <time>2021-01-16T09:26:24Z</time>
      </trkpt>
      <trkpt lat="45.31577" lon="6.05014">
        <ele>1706.4</ele>
        <time>2021-01-16T09:26:25Z</time>
      </trkpt>
      <trkpt lat="45.31577" lon="6.05014">
        <ele>1706.4</ele>
        <time>2021-01-16T09:26:26Z</time>
      </trkpt>
      <trkpt lat="45.31577" lon="6.05014">
        <ele>1706.4</ele>
        <time>2021-01-16T09:26:27Z</time>
      </trkpt>
      <trkpt lat="45.31577" lon="6.05014">
        <ele>1706.4</ele>
        <time>2021-01-16T09:26:28Z</time>
      </trkpt>
      <trkpt lat="45.31577" lon="6.05014">
        <ele>1706.4</ele>
        <time>2021-01-16T09:26:29Z</time>
      </trkpt>
      <trkpt lat="45.31577" lon="6.05014">
        <ele>1706.4</ele>
        <time>2021-01-16T09:26:30Z</time>
      </trkpt>
      <trkpt lat="45.31577" lon="6.05014">
        <ele>1706.2</ele>
        <time>2021-01-16T09:26:31Z</time>
      </trkpt>
      <trkpt lat="45.31577" lon="6.05014">
        <ele>1706</ele>
        <time>2021-01-16T09:26:32Z</time>
      </trkpt>
      <trkpt lat="45.31577" lon="6.05014">
        <ele>1706</ele>
        <time>2021-01-16T09:26:33Z</time>
      </trkpt>
      <trkpt lat="45.31577" lon="6.05014">
        <ele>1706</ele>
        <time>2021-01-16T09:26:34Z</time>
      </trkpt>
      <trkpt lat="45.31577" lon="6.05014">
        <ele>1706</ele>
        <time>2021-01-16T09:26:35Z</time>
      </trkpt>
      <trkpt lat="45.31577" lon="6.05014">
        <ele>1706</ele>
        <time>2021-01-16T09:26:36Z</time>
      </trkpt>
      <trkpt lat="45.31577" lon="6.05014">
        <ele>1706</ele>
        <time>2021-01-16T09:26:37Z</time>
      </trkpt>
      <trkpt lat="45.31577" lon="6.05014">
        <ele>1706</ele>
        <time>2021-01-16T09:26:38Z</time>
      </trkpt>
      <trkpt lat="45.31577" lon="6.05014">
        <ele>1706</ele>
        <time>2021-01-16T09:26:39Z</time>
      </trkpt>
      <trkpt lat="45.31577" lon="6.05014">
        <ele>1706</ele>
        <time>2021-01-16T09:26:40Z</time>
      </trkpt>
      <trkpt lat="45.31577" lon="6.05014">
        <ele>1705.8</ele>
        <time>2021-01-16T09:26:41Z</time>
      </trkpt>
      <trkpt lat="45.31577" lon="6.05014">
        <ele>1706</ele>
        <time>2021-01-16T09:26:42Z</time>
      </trkpt>
      <trkpt lat="45.31577" lon="6.05014">
        <ele>1706</ele>
        <time>2021-01-16T09:26:43Z</time>
      </trkpt>
      <trkpt lat="45.31577" lon="6.05014">
        <ele>1706</ele>
        <time>2021-01-16T09:26:44Z</time>
      </trkpt>
      <trkpt lat="45.31577" lon="6.05014">
        <ele>1706</ele>
        <time>2021-01-16T09:26:45Z</time>
      </trkpt>
      <trkpt lat="45.31577" lon="6.05014">
        <ele>1706</ele>
        <time>2021-01-16T09:26:46Z</time>
      </trkpt>
      <trkpt lat="45.31577" lon="6.05014">
        <ele>1706</ele>
        <time>2021-01-16T09:26:47Z</time>
      </trkpt>
      <trkpt lat="45.31577" lon="6.05014">
        <ele>1705.8</ele>
        <time>2021-01-16T09:26:48Z</time>
      </trkpt>
      <trkpt lat="45.31577" lon="6.05014">
        <ele>1705.8</ele>
        <time>2021-01-16T09:26:49Z</time>
      </trkpt>
      <trkpt lat="45.31577" lon="6.05014">
        <ele>1706</ele>
        <time>2021-01-16T09:26:50Z</time>
      </trkpt>
      <trkpt lat="45.31577" lon="6.05014">
        <ele>1705.8</ele>
        <time>2021-01-16T09:26:51Z</time>
      </trkpt>
      <trkpt lat="45.31577" lon="6.05014">
        <ele>1705.8</ele>
        <time>2021-01-16T09:26:52Z</time>
      </trkpt>
      <trkpt lat="45.31577" lon="6.05014">
        <ele>1705.8</ele>
        <time>2021-01-16T09:26:53Z</time>
      </trkpt>
      <trkpt lat="45.31577" lon="6.05014">
        <ele>1705.8</ele>
        <time>2021-01-16T09:26:54Z</time>
      </trkpt>
      <trkpt lat="45.31577" lon="6.05014">
        <ele>1705.8</ele>
        <time>2021-01-16T09:26:55Z</time>
      </trkpt>
      <trkpt lat="45.31577" lon="6.05014">
        <ele>1705.8</ele>
        <time>2021-01-16T09:26:56Z</time>
      </trkpt>
      <trkpt lat="45.31577" lon="6.05014">
        <ele>1705.8</ele>
        <time>2021-01-16T09:26:57Z</time>
      </trkpt>
      <trkpt lat="45.31577" lon="6.05014">
        <ele>1705.8</ele>
        <time>2021-01-16T09:26:58Z</time>
      </trkpt>
      <trkpt lat="45.31577" lon="6.05014">
        <ele>1705.8</ele>
        <time>2021-01-16T09:26:59Z</time>
      </trkpt>
      <trkpt lat="45.31577" lon="6.05014">
        <ele>1705.8</ele>
        <time>2021-01-16T09:27:00Z</time>
      </trkpt>
      <trkpt lat="45.31577" lon="6.05014">
        <ele>1705.8</ele>
        <time>2021-01-16T09:27:01Z</time>
      </trkpt>
      <trkpt lat="45.31577" lon="6.05014">
        <ele>1705.8</ele>
        <time>2021-01-16T09:27:02Z</time>
      </trkpt>
      <trkpt lat="45.31577" lon="6.05014">
        <ele>1705.8</ele>
        <time>2021-01-16T09:27:03Z</time>
      </trkpt>
      <trkpt lat="45.31577" lon="6.05014">
        <ele>1705.8</ele>
        <time>2021-01-16T09:27:04Z</time>
      </trkpt>
      <trkpt lat="45.31577" lon="6.05014">
        <ele>1705.8</ele>
        <time>2021-01-16T09:27:05Z</time>
      </trkpt>
      <trkpt lat="45.31577" lon="6.05014">
        <ele>1705.8</ele>
        <time>2021-01-16T09:27:06Z</time>
      </trkpt>
      <trkpt lat="45.31577" lon="6.05014">
        <ele>1705.8</ele>
        <time>2021-01-16T09:27:07Z</time>
      </trkpt>
      <trkpt lat="45.31577" lon="6.05014">
        <ele>1705.8</ele>
        <time>2021-01-16T09:27:08Z</time>
      </trkpt>
      <trkpt lat="45.31577" lon="6.05014">
        <ele>1705.8</ele>
        <time>2021-01-16T09:27:09Z</time>
      </trkpt>
      <trkpt lat="45.31577" lon="6.05014">
        <ele>1705.8</ele>
        <time>2021-01-16T09:27:10Z</time>
      </trkpt>
      <trkpt lat="45.31577" lon="6.05014">
        <ele>1705.8</ele>
        <time>2021-01-16T09:27:11Z</time>
      </trkpt>
      <trkpt lat="45.31577" lon="6.05014">
        <ele>1705.6</ele>
        <time>2021-01-16T09:27:12Z</time>
      </trkpt>
      <trkpt lat="45.31577" lon="6.05014">
        <ele>1705.6</ele>
        <time>2021-01-16T09:27:13Z</time>
      </trkpt>
      <trkpt lat="45.31577" lon="6.05014">
        <ele>1705.6</ele>
        <time>2021-01-16T09:27:14Z</time>
      </trkpt>
      <trkpt lat="45.31577" lon="6.05014">
        <ele>1705.6</ele>
        <time>2021-01-16T09:27:15Z</time>
      </trkpt>
      <trkpt lat="45.31577" lon="6.05014">
        <ele>1705.6</ele>
        <time>2021-01-16T09:27:16Z</time>
      </trkpt>
      <trkpt lat="45.31577" lon="6.05014">
        <ele>1705.6</ele>
        <time>2021-01-16T09:27:17Z</time>
      </trkpt>
      <trkpt lat="45.31577" lon="6.05014">
        <ele>1705.6</ele>
        <time>2021-01-16T09:27:18Z</time>
      </trkpt>
      <trkpt lat="45.31577" lon="6.05014">
        <ele>1705.6</ele>
        <time>2021-01-16T09:27:19Z</time>
      </trkpt>
      <trkpt lat="45.31577" lon="6.05014">
        <ele>1705.6</ele>
        <time>2021-01-16T09:27:20Z</time>
      </trkpt>
      <trkpt lat="45.31577" lon="6.05014">
        <ele>1705.6</ele>
        <time>2021-01-16T09:27:21Z</time>
      </trkpt>
      <trkpt lat="45.31577" lon="6.05014">
        <ele>1705.6</ele>
        <time>2021-01-16T09:27:22Z</time>
      </trkpt>
      <trkpt lat="45.31577" lon="6.05014">
        <ele>1705.6</ele>
        <time>2021-01-16T09:27:23Z</time>
      </trkpt>
      <trkpt lat="45.31577" lon="6.05014">
        <ele>1705.6</ele>
        <time>2021-01-16T09:27:24Z</time>
      </trkpt>
      <trkpt lat="45.31577" lon="6.05014">
        <ele>1705.6</ele>
        <time>2021-01-16T09:27:25Z</time>
      </trkpt>
      <trkpt lat="45.31577" lon="6.05014">
        <ele>1705.6</ele>
        <time>2021-01-16T09:27:26Z</time>
      </trkpt>
      <trkpt lat="45.31577" lon="6.05014">
        <ele>1705.6</ele>
        <time>2021-01-16T09:27:27Z</time>
      </trkpt>
      <trkpt lat="45.31577" lon="6.05014">
        <ele>1705.6</ele>
        <time>2021-01-16T09:27:28Z</time>
      </trkpt>
      <trkpt lat="45.31577" lon="6.05014">
        <ele>1705.6</ele>
        <time>2021-01-16T09:27:29Z</time>
      </trkpt>
      <trkpt lat="45.31577" lon="6.05014">
        <ele>1705.6</ele>
        <time>2021-01-16T09:27:30Z</time>
      </trkpt>
      <trkpt lat="45.31577" lon="6.05014">
        <ele>1705.6</ele>
        <time>2021-01-16T09:27:31Z</time>
      </trkpt>
      <trkpt lat="45.31577" lon="6.05014">
        <ele>1705.6</ele>
        <time>2021-01-16T09:27:32Z</time>
      </trkpt>
      <trkpt lat="45.31577" lon="6.05014">
        <ele>1705.6</ele>
        <time>2021-01-16T09:27:33Z</time>
      </trkpt>
      <trkpt lat="45.31577" lon="6.05014">
        <ele>1705.6</ele>
        <time>2021-01-16T09:27:34Z</time>
      </trkpt>
      <trkpt lat="45.31577" lon="6.05014">
        <ele>1705.6</ele>
        <time>2021-01-16T09:27:35Z</time>
      </trkpt>
      <trkpt lat="45.31577" lon="6.05014">
        <ele>1705.6</ele>
        <time>2021-01-16T09:27:36Z</time>
      </trkpt>
      <trkpt lat="45.31577" lon="6.05014">
        <ele>1705.6</ele>
        <time>2021-01-16T09:27:37Z</time>
      </trkpt>
      <trkpt lat="45.31577" lon="6.05014">
        <ele>1705.6</ele>
        <time>2021-01-16T09:27:38Z</time>
      </trkpt>
      <trkpt lat="45.31577" lon="6.05014">
        <ele>1705.6</ele>
        <time>2021-01-16T09:27:39Z</time>
      </trkpt>
      <trkpt lat="45.31577" lon="6.05014">
        <ele>1705.4</ele>
        <time>2021-01-16T09:27:40Z</time>
      </trkpt>
      <trkpt lat="45.31577" lon="6.05014">
        <ele>1705.4</ele>
        <time>2021-01-16T09:27:41Z</time>
      </trkpt>
      <trkpt lat="45.31577" lon="6.05014">
        <ele>1705.4</ele>
        <time>2021-01-16T09:27:42Z</time>
      </trkpt>
      <trkpt lat="45.31577" lon="6.05014">
        <ele>1705.4</ele>
        <time>2021-01-16T09:27:43Z</time>
      </trkpt>
      <trkpt lat="45.31577" lon="6.05014">
        <ele>1705.6</ele>
        <time>2021-01-16T09:27:44Z</time>
      </trkpt>
      <trkpt lat="45.31577" lon="6.05014">
        <ele>1705.6</ele>
        <time>2021-01-16T09:27:45Z</time>
      </trkpt>
      <trkpt lat="45.31577" lon="6.05014">
        <ele>1705.6</ele>
        <time>2021-01-16T09:27:46Z</time>
      </trkpt>
      <trkpt lat="45.31577" lon="6.05014">
        <ele>1705.6</ele>
        <time>2021-01-16T09:27:47Z</time>
      </trkpt>
      <trkpt lat="45.31577" lon="6.05014">
        <ele>1705.4</ele>
        <time>2021-01-16T09:27:48Z</time>
      </trkpt>
      <trkpt lat="45.31577" lon="6.05014">
        <ele>1705.4</ele>
        <time>2021-01-16T09:27:49Z</time>
      </trkpt>
      <trkpt lat="45.31577" lon="6.05014">
        <ele>1705.2</ele>
        <time>2021-01-16T09:27:50Z</time>
      </trkpt>
      <trkpt lat="45.31577" lon="6.05014">
        <ele>1705.2</ele>
        <time>2021-01-16T09:27:51Z</time>
      </trkpt>
      <trkpt lat="45.31577" lon="6.05014">
        <ele>1705.2</ele>
        <time>2021-01-16T09:27:52Z</time>
      </trkpt>
      <trkpt lat="45.31577" lon="6.05014">
        <ele>1705.4</ele>
        <time>2021-01-16T09:27:53Z</time>
      </trkpt>
      <trkpt lat="45.31577" lon="6.05014">
        <ele>1705.4</ele>
        <time>2021-01-16T09:27:54Z</time>
      </trkpt>
      <trkpt lat="45.31577" lon="6.05014">
        <ele>1705.4</ele>
        <time>2021-01-16T09:27:55Z</time>
      </trkpt>
      <trkpt lat="45.31577" lon="6.05014">
        <ele>1705.4</ele>
        <time>2021-01-16T09:27:56Z</time>
      </trkpt>
      <trkpt lat="45.31577" lon="6.05014">
        <ele>1705.4</ele>
        <time>2021-01-16T09:27:57Z</time>
      </trkpt>
      <trkpt lat="45.31577" lon="6.05014">
        <ele>1705.4</ele>
        <time>2021-01-16T09:27:58Z</time>
      </trkpt>
      <trkpt lat="45.31577" lon="6.05014">
        <ele>1705.4</ele>
        <time>2021-01-16T09:27:59Z</time>
      </trkpt>
      <trkpt lat="45.31577" lon="6.05014">
        <ele>1705.2</ele>
        <time>2021-01-16T09:28:00Z</time>
      </trkpt>
      <trkpt lat="45.31577" lon="6.05014">
        <ele>1705.2</ele>
        <time>2021-01-16T09:28:01Z</time>
      </trkpt>
      <trkpt lat="45.31577" lon="6.05014">
        <ele>1705.2</ele>
        <time>2021-01-16T09:28:02Z</time>
      </trkpt>
      <trkpt lat="45.31577" lon="6.05014">
        <ele>1705.2</ele>
        <time>2021-01-16T09:28:03Z</time>
      </trkpt>
      <trkpt lat="45.31577" lon="6.05014">
        <ele>1705</ele>
        <time>2021-01-16T09:28:04Z</time>
      </trkpt>
      <trkpt lat="45.31577" lon="6.05014">
        <ele>1705.2</ele>
        <time>2021-01-16T09:28:05Z</time>
      </trkpt>
      <trkpt lat="45.31577" lon="6.05014">
        <ele>1705.2</ele>
        <time>2021-01-16T09:28:06Z</time>
      </trkpt>
      <trkpt lat="45.31577" lon="6.05014">
        <ele>1705.2</ele>
        <time>2021-01-16T09:28:07Z</time>
      </trkpt>
      <trkpt lat="45.31577" lon="6.05014">
        <ele>1705.4</ele>
        <time>2021-01-16T09:28:08Z</time>
      </trkpt>
      <trkpt lat="45.31577" lon="6.05014">
        <ele>1705.4</ele>
        <time>2021-01-16T09:28:09Z</time>
      </trkpt>
      <trkpt lat="45.31577" lon="6.05014">
        <ele>1705.6</ele>
        <time>2021-01-16T09:28:10Z</time>
      </trkpt>
      <trkpt lat="45.31577" lon="6.05014">
        <ele>1705.6</ele>
        <time>2021-01-16T09:28:11Z</time>
      </trkpt>
      <trkpt lat="45.31577" lon="6.05014">
        <ele>1705.6</ele>
        <time>2021-01-16T09:28:12Z</time>
      </trkpt>
      <trkpt lat="45.31577" lon="6.05014">
        <ele>1705.6</ele>
        <time>2021-01-16T09:28:13Z</time>
      </trkpt>
      <trkpt lat="45.31577" lon="6.05014">
        <ele>1705.6</ele>
        <time>2021-01-16T09:28:14Z</time>
      </trkpt>
      <trkpt lat="45.31577" lon="6.05014">
        <ele>1705.6</ele>
        <time>2021-01-16T09:28:15Z</time>
      </trkpt>
      <trkpt lat="45.31577" lon="6.05014">
        <ele>1705.6</ele>
        <time>2021-01-16T09:28:16Z</time>
      </trkpt>
      <trkpt lat="45.31577" lon="6.05014">
        <ele>1705.6</ele>
        <time>2021-01-16T09:28:17Z</time>
      </trkpt>
      <trkpt lat="45.31577" lon="6.05014">
        <ele>1705.6</ele>
        <time>2021-01-16T09:28:18Z</time>
      </trkpt>
      <trkpt lat="45.31577" lon="6.05014">
        <ele>1705.6</ele>
        <time>2021-01-16T09:28:19Z</time>
      </trkpt>
      <trkpt lat="45.31577" lon="6.05014">
        <ele>1705.6</ele>
        <time>2021-01-16T09:28:20Z</time>
      </trkpt>
      <trkpt lat="45.31577" lon="6.05014">
        <ele>1705.6</ele>
        <time>2021-01-16T09:28:21Z</time>
      </trkpt>
      <trkpt lat="45.31577" lon="6.05014">
        <ele>1705.4</ele>
        <time>2021-01-16T09:28:22Z</time>
      </trkpt>
      <trkpt lat="45.31577" lon="6.05014">
        <ele>1705.6</ele>
        <time>2021-01-16T09:28:23Z</time>
      </trkpt>
      <trkpt lat="45.31577" lon="6.05014">
        <ele>1705.6</ele>
        <time>2021-01-16T09:28:24Z</time>
      </trkpt>
      <trkpt lat="45.31577" lon="6.05014">
        <ele>1705.6</ele>
        <time>2021-01-16T09:28:25Z</time>
      </trkpt>
      <trkpt lat="45.31577" lon="6.05014">
        <ele>1705.4</ele>
        <time>2021-01-16T09:28:26Z</time>
      </trkpt>
      <trkpt lat="45.31577" lon="6.05014">
        <ele>1705.4</ele>
        <time>2021-01-16T09:28:27Z</time>
      </trkpt>
      <trkpt lat="45.31577" lon="6.05014">
        <ele>1705.4</ele>
        <time>2021-01-16T09:28:28Z</time>
      </trkpt>
      <trkpt lat="45.31577" lon="6.05014">
        <ele>1705.4</ele>
        <time>2021-01-16T09:28:29Z</time>
      </trkpt>
      <trkpt lat="45.31577" lon="6.05014">
        <ele>1705.4</ele>
        <time>2021-01-16T09:28:30Z</time>
      </trkpt>
      <trkpt lat="45.31577" lon="6.05014">
        <ele>1705.4</ele>
        <time>2021-01-16T09:28:31Z</time>
      </trkpt>
      <trkpt lat="45.31577" lon="6.05014">
        <ele>1705.4</ele>
        <time>2021-01-16T09:28:32Z</time>
      </trkpt>
      <trkpt lat="45.31577" lon="6.05014">
        <ele>1705.4</ele>
        <time>2021-01-16T09:28:33Z</time>
      </trkpt>
      <trkpt lat="45.31577" lon="6.05014">
        <ele>1705.4</ele>
        <time>2021-01-16T09:28:34Z</time>
      </trkpt>
      <trkpt lat="45.31577" lon="6.05014">
        <ele>1705.4</ele>
        <time>2021-01-16T09:28:35Z</time>
      </trkpt>
      <trkpt lat="45.31577" lon="6.05014">
        <ele>1705.4</ele>
        <time>2021-01-16T09:28:36Z</time>
      </trkpt>
      <trkpt lat="45.31577" lon="6.05014">
        <ele>1705.4</ele>
        <time>2021-01-16T09:28:37Z</time>
      </trkpt>
      <trkpt lat="45.31577" lon="6.05014">
        <ele>1705.2</ele>
        <time>2021-01-16T09:28:38Z</time>
      </trkpt>
      <trkpt lat="45.31577" lon="6.05014">
        <ele>1705.2</ele>
        <time>2021-01-16T09:28:39Z</time>
      </trkpt>
      <trkpt lat="45.31577" lon="6.05014">
        <ele>1705.2</ele>
        <time>2021-01-16T09:28:40Z</time>
      </trkpt>
      <trkpt lat="45.31577" lon="6.05014">
        <ele>1705.2</ele>
        <time>2021-01-16T09:28:41Z</time>
      </trkpt>
      <trkpt lat="45.31577" lon="6.05014">
        <ele>1705.4</ele>
        <time>2021-01-16T09:28:42Z</time>
      </trkpt>
      <trkpt lat="45.31577" lon="6.05014">
        <ele>1705.4</ele>
        <time>2021-01-16T09:28:43Z</time>
      </trkpt>
      <trkpt lat="45.31577" lon="6.05014">
        <ele>1705.2</ele>
        <time>2021-01-16T09:28:44Z</time>
      </trkpt>
      <trkpt lat="45.31577" lon="6.05014">
        <ele>1705.2</ele>
        <time>2021-01-16T09:28:45Z</time>
      </trkpt>
      <trkpt lat="45.31577" lon="6.05014">
        <ele>1705.2</ele>
        <time>2021-01-16T09:28:46Z</time>
      </trkpt>
      <trkpt lat="45.31577" lon="6.05014">
        <ele>1705.2</ele>
        <time>2021-01-16T09:28:47Z</time>
      </trkpt>
      <trkpt lat="45.31577" lon="6.05014">
        <ele>1705.2</ele>
        <time>2021-01-16T09:28:48Z</time>
      </trkpt>
      <trkpt lat="45.31577" lon="6.05014">
        <ele>1705.2</ele>
        <time>2021-01-16T09:28:49Z</time>
      </trkpt>
      <trkpt lat="45.31577" lon="6.05014">
        <ele>1705.2</ele>
        <time>2021-01-16T09:28:50Z</time>
      </trkpt>
      <trkpt lat="45.31577" lon="6.05014">
        <ele>1705.2</ele>
        <time>2021-01-16T09:28:51Z</time>
      </trkpt>
      <trkpt lat="45.31577" lon="6.05014">
        <ele>1705.2</ele>
        <time>2021-01-16T09:28:52Z</time>
      </trkpt>
      <trkpt lat="45.31577" lon="6.05014">
        <ele>1705.2</ele>
        <time>2021-01-16T09:28:53Z</time>
      </trkpt>
      <trkpt lat="45.31577" lon="6.05014">
        <ele>1705.2</ele>
        <time>2021-01-16T09:28:54Z</time>
      </trkpt>
      <trkpt lat="45.31577" lon="6.05014">
        <ele>1705.2</ele>
        <time>2021-01-16T09:28:55Z</time>
      </trkpt>
      <trkpt lat="45.31577" lon="6.05014">
        <ele>1705.2</ele>
        <time>2021-01-16T09:28:56Z</time>
      </trkpt>
      <trkpt lat="45.31577" lon="6.05014">
        <ele>1705.2</ele>
        <time>2021-01-16T09:28:57Z</time>
      </trkpt>
      <trkpt lat="45.31577" lon="6.05014">
        <ele>1705.2</ele>
        <time>2021-01-16T09:28:58Z</time>
      </trkpt>
      <trkpt lat="45.31577" lon="6.05014">
        <ele>1705.2</ele>
        <time>2021-01-16T09:28:59Z</time>
      </trkpt>
      <trkpt lat="45.31577" lon="6.05014">
        <ele>1705.2</ele>
        <time>2021-01-16T09:29:00Z</time>
      </trkpt>
      <trkpt lat="45.31577" lon="6.05014">
        <ele>1705.2</ele>
        <time>2021-01-16T09:29:01Z</time>
      </trkpt>
      <trkpt lat="45.31577" lon="6.05014">
        <ele>1705</ele>
        <time>2021-01-16T09:29:02Z</time>
      </trkpt>
      <trkpt lat="45.31577" lon="6.05014">
        <ele>1705</ele>
        <time>2021-01-16T09:29:03Z</time>
      </trkpt>
      <trkpt lat="45.31577" lon="6.05014">
        <ele>1705</ele>
        <time>2021-01-16T09:29:04Z</time>
      </trkpt>
      <trkpt lat="45.31577" lon="6.05014">
        <ele>1705</ele>
        <time>2021-01-16T09:29:05Z</time>
      </trkpt>
      <trkpt lat="45.31577" lon="6.05014">
        <ele>1705</ele>
        <time>2021-01-16T09:29:06Z</time>
      </trkpt>
      <trkpt lat="45.31577" lon="6.05014">
        <ele>1705</ele>
        <time>2021-01-16T09:29:07Z</time>
      </trkpt>
      <trkpt lat="45.31577" lon="6.05014">
        <ele>1705</ele>
        <time>2021-01-16T09:29:08Z</time>
      </trkpt>
      <trkpt lat="45.31577" lon="6.05014">
        <ele>1705</ele>
        <time>2021-01-16T09:29:09Z</time>
      </trkpt>
      <trkpt lat="45.31577" lon="6.05014">
        <ele>1705</ele>
        <time>2021-01-16T09:29:10Z</time>
      </trkpt>
      <trkpt lat="45.31577" lon="6.05014">
        <ele>1705</ele>
        <time>2021-01-16T09:29:11Z</time>
      </trkpt>
      <trkpt lat="45.31577" lon="6.05014">
        <ele>1705.2</ele>
        <time>2021-01-16T09:29:12Z</time>
      </trkpt>
      <trkpt lat="45.31577" lon="6.05014">
        <ele>1705</ele>
        <time>2021-01-16T09:29:13Z</time>
      </trkpt>
      <trkpt lat="45.31577" lon="6.05014">
        <ele>1704.8</ele>
        <time>2021-01-16T09:29:14Z</time>
      </trkpt>
      <trkpt lat="45.31577" lon="6.05014">
        <ele>1705</ele>
        <time>2021-01-16T09:29:15Z</time>
      </trkpt>
      <trkpt lat="45.31577" lon="6.05014">
        <ele>1705</ele>
        <time>2021-01-16T09:29:16Z</time>
      </trkpt>
      <trkpt lat="45.31577" lon="6.05014">
        <ele>1704.8</ele>
        <time>2021-01-16T09:29:17Z</time>
      </trkpt>
      <trkpt lat="45.31577" lon="6.05014">
        <ele>1705</ele>
        <time>2021-01-16T09:29:18Z</time>
      </trkpt>
      <trkpt lat="45.31577" lon="6.05014">
        <ele>1705.2</ele>
        <time>2021-01-16T09:29:19Z</time>
      </trkpt>
      <trkpt lat="45.31577" lon="6.05014">
        <ele>1705.4</ele>
        <time>2021-01-16T09:29:20Z</time>
      </trkpt>
      <trkpt lat="45.31577" lon="6.05014">
        <ele>1705.4</ele>
        <time>2021-01-16T09:29:21Z</time>
      </trkpt>
      <trkpt lat="45.31577" lon="6.05014">
        <ele>1705.4</ele>
        <time>2021-01-16T09:29:22Z</time>
      </trkpt>
      <trkpt lat="45.31577" lon="6.05014">
        <ele>1705.6</ele>
        <time>2021-01-16T09:29:23Z</time>
      </trkpt>
      <trkpt lat="45.31577" lon="6.05014">
        <ele>1705.4</ele>
        <time>2021-01-16T09:29:24Z</time>
      </trkpt>
      <trkpt lat="45.31577" lon="6.05014">
        <ele>1705.6</ele>
        <time>2021-01-16T09:29:25Z</time>
      </trkpt>
      <trkpt lat="45.31576" lon="6.05013">
        <ele>1705.6</ele>
        <time>2021-01-16T09:29:26Z</time>
      </trkpt>
      <trkpt lat="45.31573" lon="6.05008">
        <ele>1705.6</ele>
        <time>2021-01-16T09:29:27Z</time>
      </trkpt>
      <trkpt lat="45.31572" lon="6.05008">
        <ele>1705.8</ele>
        <time>2021-01-16T09:29:28Z</time>
      </trkpt>
      <trkpt lat="45.31572" lon="6.05008">
        <ele>1706</ele>
        <time>2021-01-16T09:29:29Z</time>
      </trkpt>
      <trkpt lat="45.31571" lon="6.05008">
        <ele>1706.2</ele>
        <time>2021-01-16T09:29:30Z</time>
      </trkpt>
      <trkpt lat="45.3157" lon="6.05008">
        <ele>1706.2</ele>
        <time>2021-01-16T09:29:31Z</time>
      </trkpt>
      <trkpt lat="45.3157" lon="6.05008">
        <ele>1706.4</ele>
        <time>2021-01-16T09:29:32Z</time>
      </trkpt>
      <trkpt lat="45.31569" lon="6.05008">
        <ele>1706.4</ele>
        <time>2021-01-16T09:29:33Z</time>
      </trkpt>
      <trkpt lat="45.31568" lon="6.05008">
        <ele>1706.6</ele>
        <time>2021-01-16T09:29:34Z</time>
      </trkpt>
      <trkpt lat="45.31567" lon="6.05008">
        <ele>1706.6</ele>
        <time>2021-01-16T09:29:35Z</time>
      </trkpt>
      <trkpt lat="45.31567" lon="6.05008">
        <ele>1706.8</ele>
        <time>2021-01-16T09:29:36Z</time>
      </trkpt>
      <trkpt lat="45.31566" lon="6.05008">
        <ele>1706.8</ele>
        <time>2021-01-16T09:29:37Z</time>
      </trkpt>
      <trkpt lat="45.31565" lon="6.05008">
        <ele>1707</ele>
        <time>2021-01-16T09:29:38Z</time>
      </trkpt>
      <trkpt lat="45.31564" lon="6.05007">
        <ele>1707</ele>
        <time>2021-01-16T09:29:39Z</time>
      </trkpt>
      <trkpt lat="45.31563" lon="6.05007">
        <ele>1707.2</ele>
        <time>2021-01-16T09:29:40Z</time>
      </trkpt>
      <trkpt lat="45.31563" lon="6.05006">
        <ele>1707.4</ele>
        <time>2021-01-16T09:29:41Z</time>
      </trkpt>
      <trkpt lat="45.31562" lon="6.05006">
        <ele>1707.4</ele>
        <time>2021-01-16T09:29:42Z</time>
      </trkpt>
      <trkpt lat="45.31561" lon="6.05007">
        <ele>1707.6</ele>
        <time>2021-01-16T09:29:43Z</time>
      </trkpt>
      <trkpt lat="45.3156" lon="6.05006">
        <ele>1707.6</ele>
        <time>2021-01-16T09:29:44Z</time>
      </trkpt>
      <trkpt lat="45.31559" lon="6.05006">
        <ele>1707.6</ele>
        <time>2021-01-16T09:29:45Z</time>
      </trkpt>
      <trkpt lat="45.31559" lon="6.05006">
        <ele>1707.8</ele>
        <time>2021-01-16T09:29:46Z</time>
      </trkpt>
      <trkpt lat="45.31558" lon="6.05006">
        <ele>1707.8</ele>
        <time>2021-01-16T09:29:47Z</time>
      </trkpt>
      <trkpt lat="45.31558" lon="6.05006">
        <ele>1708</ele>
        <time>2021-01-16T09:29:48Z</time>
      </trkpt>
      <trkpt lat="45.31557" lon="6.05006">
        <ele>1708</ele>
        <time>2021-01-16T09:29:49Z</time>
      </trkpt>
      <trkpt lat="45.31556" lon="6.05007">
        <ele>1708.2</ele>
        <time>2021-01-16T09:29:50Z</time>
      </trkpt>
      <trkpt lat="45.31555" lon="6.05006">
        <ele>1708.2</ele>
        <time>2021-01-16T09:29:51Z</time>
      </trkpt>
      <trkpt lat="45.31555" lon="6.05006">
        <ele>1708.4</ele>
        <time>2021-01-16T09:29:52Z</time>
      </trkpt>
      <trkpt lat="45.31554" lon="6.05006">
        <ele>1708.6</ele>
        <time>2021-01-16T09:29:53Z</time>
      </trkpt>
      <trkpt lat="45.31553" lon="6.05006">
        <ele>1708.6</ele>
        <time>2021-01-16T09:29:54Z</time>
      </trkpt>
      <trkpt lat="45.31552" lon="6.05006">
        <ele>1708.8</ele>
        <time>2021-01-16T09:29:55Z</time>
      </trkpt>
      <trkpt lat="45.31551" lon="6.05006">
        <ele>1708.8</ele>
        <time>2021-01-16T09:29:56Z</time>
      </trkpt>
      <trkpt lat="45.31551" lon="6.05006">
        <ele>1709</ele>
        <time>2021-01-16T09:29:57Z</time>
      </trkpt>
      <trkpt lat="45.31551" lon="6.05006">
        <ele>1709</ele>
        <time>2021-01-16T09:29:58Z</time>
      </trkpt>
      <trkpt lat="45.3155" lon="6.05006">
        <ele>1708.8</ele>
        <time>2021-01-16T09:29:59Z</time>
      </trkpt>
      <trkpt lat="45.31549" lon="6.05006">
        <ele>1709</ele>
        <time>2021-01-16T09:30:00Z</time>
      </trkpt>
      <trkpt lat="45.31549" lon="6.05006">
        <ele>1709</ele>
        <time>2021-01-16T09:30:01Z</time>
      </trkpt>
      <trkpt lat="45.31549" lon="6.05006">
        <ele>1709.2</ele>
        <time>2021-01-16T09:30:02Z</time>
      </trkpt>
      <trkpt lat="45.31549" lon="6.05006">
        <ele>1709.4</ele>
        <time>2021-01-16T09:30:03Z</time>
      </trkpt>
      <trkpt lat="45.31549" lon="6.05006">
        <ele>1709.4</ele>
        <time>2021-01-16T09:30:04Z</time>
      </trkpt>
      <trkpt lat="45.31549" lon="6.05006">
        <ele>1709.2</ele>
        <time>2021-01-16T09:30:05Z</time>
      </trkpt>
      <trkpt lat="45.31549" lon="6.05006">
        <ele>1709</ele>
        <time>2021-01-16T09:30:06Z</time>
      </trkpt>
      <trkpt lat="45.31549" lon="6.05006">
        <ele>1709.2</ele>
        <time>2021-01-16T09:30:07Z</time>
      </trkpt>
      <trkpt lat="45.31549" lon="6.05006">
        <ele>1709.2</ele>
        <time>2021-01-16T09:30:08Z</time>
      </trkpt>
      <trkpt lat="45.31549" lon="6.05006">
        <ele>1709.2</ele>
        <time>2021-01-16T09:30:09Z</time>
      </trkpt>
      <trkpt lat="45.31549" lon="6.05006">
        <ele>1709.2</ele>
        <time>2021-01-16T09:30:10Z</time>
      </trkpt>
      <trkpt lat="45.31549" lon="6.05006">
        <ele>1709.2</ele>
        <time>2021-01-16T09:30:11Z</time>
      </trkpt>
      <trkpt lat="45.31549" lon="6.05006">
        <ele>1709.2</ele>
        <time>2021-01-16T09:30:12Z</time>
      </trkpt>
      <trkpt lat="45.3155" lon="6.05007">
        <ele>1709.4</ele>
        <time>2021-01-16T09:30:13Z</time>
      </trkpt>
      <trkpt lat="45.3155" lon="6.05008">
        <ele>1709.4</ele>
        <time>2021-01-16T09:30:14Z</time>
      </trkpt>
      <trkpt lat="45.3155" lon="6.0501">
        <ele>1709.4</ele>
        <time>2021-01-16T09:30:15Z</time>
      </trkpt>
      <trkpt lat="45.3155" lon="6.05011">
        <ele>1709.4</ele>
        <time>2021-01-16T09:30:16Z</time>
      </trkpt>
      <trkpt lat="45.3155" lon="6.05011">
        <ele>1709.6</ele>
        <time>2021-01-16T09:30:17Z</time>
      </trkpt>
      <trkpt lat="45.3155" lon="6.05011">
        <ele>1709.6</ele>
        <time>2021-01-16T09:30:18Z</time>
      </trkpt>
      <trkpt lat="45.3155" lon="6.0501">
        <ele>1709.6</ele>
        <time>2021-01-16T09:30:19Z</time>
      </trkpt>
      <trkpt lat="45.3155" lon="6.0501">
        <ele>1709.6</ele>
        <time>2021-01-16T09:30:20Z</time>
      </trkpt>
      <trkpt lat="45.3155" lon="6.0501">
        <ele>1709.6</ele>
        <time>2021-01-16T09:30:21Z</time>
      </trkpt>
      <trkpt lat="45.3155" lon="6.0501">
        <ele>1709.6</ele>
        <time>2021-01-16T09:30:22Z</time>
      </trkpt>
      <trkpt lat="45.3155" lon="6.0501">
        <ele>1709.6</ele>
        <time>2021-01-16T09:30:23Z</time>
      </trkpt>
      <trkpt lat="45.3155" lon="6.0501">
        <ele>1709.6</ele>
        <time>2021-01-16T09:30:24Z</time>
      </trkpt>
      <trkpt lat="45.3155" lon="6.0501">
        <ele>1709.6</ele>
        <time>2021-01-16T09:30:25Z</time>
      </trkpt>
      <trkpt lat="45.3155" lon="6.0501">
        <ele>1709.6</ele>
        <time>2021-01-16T09:30:26Z</time>
      </trkpt>
      <trkpt lat="45.3155" lon="6.0501">
        <ele>1709.6</ele>
        <time>2021-01-16T09:30:27Z</time>
      </trkpt>
      <trkpt lat="45.3155" lon="6.0501">
        <ele>1709.6</ele>
        <time>2021-01-16T09:30:28Z</time>
      </trkpt>
      <trkpt lat="45.3155" lon="6.0501">
        <ele>1709.6</ele>
        <time>2021-01-16T09:30:29Z</time>
      </trkpt>
      <trkpt lat="45.3155" lon="6.0501">
        <ele>1709.6</ele>
        <time>2021-01-16T09:30:30Z</time>
      </trkpt>
      <trkpt lat="45.3155" lon="6.0501">
        <ele>1709.6</ele>
        <time>2021-01-16T09:30:31Z</time>
      </trkpt>
      <trkpt lat="45.3155" lon="6.0501">
        <ele>1709.6</ele>
        <time>2021-01-16T09:30:32Z</time>
      </trkpt>
      <trkpt lat="45.3155" lon="6.0501">
        <ele>1709.6</ele>
        <time>2021-01-16T09:30:33Z</time>
      </trkpt>
      <trkpt lat="45.3155" lon="6.0501">
        <ele>1709.6</ele>
        <time>2021-01-16T09:30:34Z</time>
      </trkpt>
      <trkpt lat="45.3155" lon="6.0501">
        <ele>1709.6</ele>
        <time>2021-01-16T09:30:35Z</time>
      </trkpt>
      <trkpt lat="45.3155" lon="6.0501">
        <ele>1709.4</ele>
        <time>2021-01-16T09:30:36Z</time>
      </trkpt>
      <trkpt lat="45.3155" lon="6.0501">
        <ele>1709.6</ele>
        <time>2021-01-16T09:30:37Z</time>
      </trkpt>
      <trkpt lat="45.3155" lon="6.0501">
        <ele>1709.6</ele>
        <time>2021-01-16T09:30:38Z</time>
      </trkpt>
      <trkpt lat="45.3155" lon="6.0501">
        <ele>1709.6</ele>
        <time>2021-01-16T09:30:39Z</time>
      </trkpt>
      <trkpt lat="45.3155" lon="6.0501">
        <ele>1709.8</ele>
        <time>2021-01-16T09:30:40Z</time>
      </trkpt>
      <trkpt lat="45.31551" lon="6.0501">
        <ele>1710</ele>
        <time>2021-01-16T09:30:41Z</time>
      </trkpt>
      <trkpt lat="45.31555" lon="6.0501">
        <ele>1710</ele>
        <time>2021-01-16T09:30:42Z</time>
      </trkpt>
      <trkpt lat="45.31555" lon="6.05011">
        <ele>1710</ele>
        <time>2021-01-16T09:30:43Z</time>
      </trkpt>
      <trkpt lat="45.31555" lon="6.05012">
        <ele>1710</ele>
        <time>2021-01-16T09:30:44Z</time>
      </trkpt>
      <trkpt lat="45.31556" lon="6.05013">
        <ele>1710.2</ele>
        <time>2021-01-16T09:30:45Z</time>
      </trkpt>
      <trkpt lat="45.31556" lon="6.05013">
        <ele>1710.4</ele>
        <time>2021-01-16T09:30:46Z</time>
      </trkpt>
      <trkpt lat="45.31556" lon="6.05014">
        <ele>1710.4</ele>
        <time>2021-01-16T09:30:47Z</time>
      </trkpt>
      <trkpt lat="45.31556" lon="6.05014">
        <ele>1710.4</ele>
        <time>2021-01-16T09:30:48Z</time>
      </trkpt>
      <trkpt lat="45.31556" lon="6.05015">
        <ele>1710.6</ele>
        <time>2021-01-16T09:30:49Z</time>
      </trkpt>
      <trkpt lat="45.31556" lon="6.05016">
        <ele>1710.6</ele>
        <time>2021-01-16T09:30:50Z</time>
      </trkpt>
      <trkpt lat="45.31556" lon="6.05017">
        <ele>1710.8</ele>
        <time>2021-01-16T09:30:51Z</time>
      </trkpt>
      <trkpt lat="45.31557" lon="6.05017">
        <ele>1710.8</ele>
        <time>2021-01-16T09:30:52Z</time>
      </trkpt>
      <trkpt lat="45.31557" lon="6.05018">
        <ele>1711</ele>
        <time>2021-01-16T09:30:53Z</time>
      </trkpt>
      <trkpt lat="45.31558" lon="6.05018">
        <ele>1711</ele>
        <time>2021-01-16T09:30:54Z</time>
      </trkpt>
      <trkpt lat="45.31558" lon="6.05019">
        <ele>1711.2</ele>
        <time>2021-01-16T09:30:55Z</time>
      </trkpt>
      <trkpt lat="45.31558" lon="6.0502">
        <ele>1711.2</ele>
        <time>2021-01-16T09:30:56Z</time>
      </trkpt>
      <trkpt lat="45.31559" lon="6.0502">
        <ele>1711.2</ele>
        <time>2021-01-16T09:30:57Z</time>
      </trkpt>
      <trkpt lat="45.31559" lon="6.05021">
        <ele>1711.6</ele>
        <time>2021-01-16T09:30:58Z</time>
      </trkpt>
      <trkpt lat="45.31559" lon="6.05021">
        <ele>1711.8</ele>
        <time>2021-01-16T09:30:59Z</time>
      </trkpt>
      <trkpt lat="45.31559" lon="6.05021">
        <ele>1711.8</ele>
        <time>2021-01-16T09:31:00Z</time>
      </trkpt>
      <trkpt lat="45.31558" lon="6.05021">
        <ele>1711.8</ele>
        <time>2021-01-16T09:31:01Z</time>
      </trkpt>
      <trkpt lat="45.31558" lon="6.05021">
        <ele>1712</ele>
        <time>2021-01-16T09:31:02Z</time>
      </trkpt>
      <trkpt lat="45.31558" lon="6.05021">
        <ele>1712</ele>
        <time>2021-01-16T09:31:03Z</time>
      </trkpt>
      <trkpt lat="45.31558" lon="6.05021">
        <ele>1712</ele>
        <time>2021-01-16T09:31:04Z</time>
      </trkpt>
      <trkpt lat="45.31557" lon="6.05021">
        <ele>1712.2</ele>
        <time>2021-01-16T09:31:05Z</time>
      </trkpt>
      <trkpt lat="45.31557" lon="6.05021">
        <ele>1712.2</ele>
        <time>2021-01-16T09:31:06Z</time>
      </trkpt>
      <trkpt lat="45.31557" lon="6.05021">
        <ele>1712.2</ele>
        <time>2021-01-16T09:31:07Z</time>
      </trkpt>
      <trkpt lat="45.31557" lon="6.05021">
        <ele>1712.2</ele>
        <time>2021-01-16T09:31:08Z</time>
      </trkpt>
      <trkpt lat="45.31557" lon="6.05021">
        <ele>1712.2</ele>
        <time>2021-01-16T09:31:09Z</time>
      </trkpt>
      <trkpt lat="45.31557" lon="6.05021">
        <ele>1712.2</ele>
        <time>2021-01-16T09:31:10Z</time>
      </trkpt>
      <trkpt lat="45.31557" lon="6.05021">
        <ele>1712.2</ele>
        <time>2021-01-16T09:31:11Z</time>
      </trkpt>
      <trkpt lat="45.31556" lon="6.05021">
        <ele>1712.2</ele>
        <time>2021-01-16T09:31:12Z</time>
      </trkpt>
      <trkpt lat="45.31555" lon="6.05021">
        <ele>1712.2</ele>
        <time>2021-01-16T09:31:13Z</time>
      </trkpt>
      <trkpt lat="45.31554" lon="6.05021">
        <ele>1712.2</ele>
        <time>2021-01-16T09:31:14Z</time>
      </trkpt>
      <trkpt lat="45.31554" lon="6.05021">
        <ele>1712.4</ele>
        <time>2021-01-16T09:31:15Z</time>
      </trkpt>
      <trkpt lat="45.31554" lon="6.05021">
        <ele>1712.4</ele>
        <time>2021-01-16T09:31:16Z</time>
      </trkpt>
      <trkpt lat="45.31553" lon="6.05021">
        <ele>1712.4</ele>
        <time>2021-01-16T09:31:17Z</time>
      </trkpt>
      <trkpt lat="45.31553" lon="6.0502">
        <ele>1712.6</ele>
        <time>2021-01-16T09:31:18Z</time>
      </trkpt>
      <trkpt lat="45.31553" lon="6.0502">
        <ele>1712.6</ele>
        <time>2021-01-16T09:31:19Z</time>
      </trkpt>
      <trkpt lat="45.31553" lon="6.0502">
        <ele>1712.8</ele>
        <time>2021-01-16T09:31:20Z</time>
      </trkpt>
      <trkpt lat="45.31553" lon="6.0502">
        <ele>1713</ele>
        <time>2021-01-16T09:31:21Z</time>
      </trkpt>
      <trkpt lat="45.31553" lon="6.0502">
        <ele>1713.2</ele>
        <time>2021-01-16T09:31:22Z</time>
      </trkpt>
      <trkpt lat="45.31553" lon="6.0502">
        <ele>1713.2</ele>
        <time>2021-01-16T09:31:23Z</time>
      </trkpt>
      <trkpt lat="45.31553" lon="6.0502">
        <ele>1713.2</ele>
        <time>2021-01-16T09:31:24Z</time>
      </trkpt>
      <trkpt lat="45.31553" lon="6.0502">
        <ele>1713.2</ele>
        <time>2021-01-16T09:31:25Z</time>
      </trkpt>
      <trkpt lat="45.31553" lon="6.0502">
        <ele>1713.4</ele>
        <time>2021-01-16T09:31:26Z</time>
      </trkpt>
      <trkpt lat="45.31553" lon="6.0502">
        <ele>1713.4</ele>
        <time>2021-01-16T09:31:27Z</time>
      </trkpt>
      <trkpt lat="45.31552" lon="6.0502">
        <ele>1713.4</ele>
        <time>2021-01-16T09:31:28Z</time>
      </trkpt>
      <trkpt lat="45.31549" lon="6.05021">
        <ele>1713.6</ele>
        <time>2021-01-16T09:31:29Z</time>
      </trkpt>
      <trkpt lat="45.31549" lon="6.05021">
        <ele>1713.6</ele>
        <time>2021-01-16T09:31:30Z</time>
      </trkpt>
      <trkpt lat="45.31548" lon="6.05021">
        <ele>1713.6</ele>
        <time>2021-01-16T09:31:31Z</time>
      </trkpt>
      <trkpt lat="45.31548" lon="6.05021">
        <ele>1713.8</ele>
        <time>2021-01-16T09:31:32Z</time>
      </trkpt>
      <trkpt lat="45.31547" lon="6.05021">
        <ele>1713.8</ele>
        <time>2021-01-16T09:31:33Z</time>
      </trkpt>
      <trkpt lat="45.31547" lon="6.05021">
        <ele>1714</ele>
        <time>2021-01-16T09:31:34Z</time>
      </trkpt>
      <trkpt lat="45.31546" lon="6.05021">
        <ele>1714</ele>
        <time>2021-01-16T09:31:35Z</time>
      </trkpt>
      <trkpt lat="45.31546" lon="6.05021">
        <ele>1714.2</ele>
        <time>2021-01-16T09:31:36Z</time>
      </trkpt>
      <trkpt lat="45.31545" lon="6.05021">
        <ele>1714.2</ele>
        <time>2021-01-16T09:31:37Z</time>
      </trkpt>
      <trkpt lat="45.31545" lon="6.05021">
        <ele>1714.6</ele>
        <time>2021-01-16T09:31:38Z</time>
      </trkpt>
      <trkpt lat="45.31544" lon="6.05021">
        <ele>1714.6</ele>
        <time>2021-01-16T09:31:39Z</time>
      </trkpt>
      <trkpt lat="45.31544" lon="6.05021">
        <ele>1714.8</ele>
        <time>2021-01-16T09:31:40Z</time>
      </trkpt>
      <trkpt lat="45.31544" lon="6.05021">
        <ele>1715</ele>
        <time>2021-01-16T09:31:41Z</time>
      </trkpt>
      <trkpt lat="45.31543" lon="6.05021">
        <ele>1715.2</ele>
        <time>2021-01-16T09:31:42Z</time>
      </trkpt>
      <trkpt lat="45.31542" lon="6.05021">
        <ele>1715.4</ele>
        <time>2021-01-16T09:31:43Z</time>
      </trkpt>
      <trkpt lat="45.31542" lon="6.05021">
        <ele>1715.4</ele>
        <time>2021-01-16T09:31:44Z</time>
      </trkpt>
      <trkpt lat="45.31541" lon="6.05021">
        <ele>1715.6</ele>
        <time>2021-01-16T09:31:45Z</time>
      </trkpt>
      <trkpt lat="45.3154" lon="6.05021">
        <ele>1715.8</ele>
        <time>2021-01-16T09:31:46Z</time>
      </trkpt>
      <trkpt lat="45.3154" lon="6.05021">
        <ele>1716</ele>
        <time>2021-01-16T09:31:47Z</time>
      </trkpt>
      <trkpt lat="45.31539" lon="6.05021">
        <ele>1716</ele>
        <time>2021-01-16T09:31:48Z</time>
      </trkpt>
      <trkpt lat="45.31538" lon="6.05021">
        <ele>1716.2</ele>
        <time>2021-01-16T09:31:49Z</time>
      </trkpt>
      <trkpt lat="45.31538" lon="6.0502">
        <ele>1716.2</ele>
        <time>2021-01-16T09:31:50Z</time>
      </trkpt>
      <trkpt lat="45.31537" lon="6.0502">
        <ele>1716.4</ele>
        <time>2021-01-16T09:31:51Z</time>
      </trkpt>
      <trkpt lat="45.31536" lon="6.0502">
        <ele>1716.4</ele>
        <time>2021-01-16T09:31:52Z</time>
      </trkpt>
      <trkpt lat="45.31536" lon="6.0502">
        <ele>1716.6</ele>
        <time>2021-01-16T09:31:53Z</time>
      </trkpt>
      <trkpt lat="45.31535" lon="6.0502">
        <ele>1716.6</ele>
        <time>2021-01-16T09:31:54Z</time>
      </trkpt>
      <trkpt lat="45.31534" lon="6.0502">
        <ele>1716.8</ele>
        <time>2021-01-16T09:31:55Z</time>
      </trkpt>
      <trkpt lat="45.31534" lon="6.05019">
        <ele>1716.8</ele>
        <time>2021-01-16T09:31:56Z</time>
      </trkpt>
      <trkpt lat="45.31533" lon="6.05019">
        <ele>1717</ele>
        <time>2021-01-16T09:31:57Z</time>
      </trkpt>
      <trkpt lat="45.31533" lon="6.05019">
        <ele>1717</ele>
        <time>2021-01-16T09:31:58Z</time>
      </trkpt>
      <trkpt lat="45.31532" lon="6.0502">
        <ele>1717.2</ele>
        <time>2021-01-16T09:31:59Z</time>
      </trkpt>
      <trkpt lat="45.31531" lon="6.0502">
        <ele>1717.2</ele>
        <time>2021-01-16T09:32:00Z</time>
      </trkpt>
      <trkpt lat="45.3153" lon="6.0502">
        <ele>1717.4</ele>
        <time>2021-01-16T09:32:01Z</time>
      </trkpt>
      <trkpt lat="45.3153" lon="6.0502">
        <ele>1717.4</ele>
        <time>2021-01-16T09:32:02Z</time>
      </trkpt>
      <trkpt lat="45.31529" lon="6.0502">
        <ele>1717.6</ele>
        <time>2021-01-16T09:32:03Z</time>
      </trkpt>
      <trkpt lat="45.31529" lon="6.0502">
        <ele>1717.6</ele>
        <time>2021-01-16T09:32:04Z</time>
      </trkpt>
      <trkpt lat="45.31528" lon="6.0502">
        <ele>1717.8</ele>
        <time>2021-01-16T09:32:05Z</time>
      </trkpt>
      <trkpt lat="45.31528" lon="6.05019">
        <ele>1717.8</ele>
        <time>2021-01-16T09:32:06Z</time>
      </trkpt>
      <trkpt lat="45.31527" lon="6.05019">
        <ele>1718</ele>
        <time>2021-01-16T09:32:07Z</time>
      </trkpt>
      <trkpt lat="45.31527" lon="6.05019">
        <ele>1718.2</ele>
        <time>2021-01-16T09:32:08Z</time>
      </trkpt>
      <trkpt lat="45.31527" lon="6.05019">
        <ele>1718.4</ele>
        <time>2021-01-16T09:32:09Z</time>
      </trkpt>
      <trkpt lat="45.31527" lon="6.05019">
        <ele>1718.4</ele>
        <time>2021-01-16T09:32:10Z</time>
      </trkpt>
      <trkpt lat="45.31527" lon="6.05019">
        <ele>1718.6</ele>
        <time>2021-01-16T09:32:11Z</time>
      </trkpt>
      <trkpt lat="45.31527" lon="6.05019">
        <ele>1718.6</ele>
        <time>2021-01-16T09:32:12Z</time>
      </trkpt>
      <trkpt lat="45.31526" lon="6.05018">
        <ele>1718.8</ele>
        <time>2021-01-16T09:32:13Z</time>
      </trkpt>
      <trkpt lat="45.31525" lon="6.05017">
        <ele>1718.8</ele>
        <time>2021-01-16T09:32:14Z</time>
      </trkpt>
      <trkpt lat="45.31525" lon="6.05017">
        <ele>1719</ele>
        <time>2021-01-16T09:32:15Z</time>
      </trkpt>
      <trkpt lat="45.31525" lon="6.05017">
        <ele>1719</ele>
        <time>2021-01-16T09:32:16Z</time>
      </trkpt>
      <trkpt lat="45.31524" lon="6.05017">
        <ele>1719.2</ele>
        <time>2021-01-16T09:32:17Z</time>
      </trkpt>
      <trkpt lat="45.31524" lon="6.05017">
        <ele>1719.2</ele>
        <time>2021-01-16T09:32:18Z</time>
      </trkpt>
      <trkpt lat="45.31523" lon="6.05017">
        <ele>1719.2</ele>
        <time>2021-01-16T09:32:19Z</time>
      </trkpt>
      <trkpt lat="45.31523" lon="6.05017">
        <ele>1719.4</ele>
        <time>2021-01-16T09:32:20Z</time>
      </trkpt>
      <trkpt lat="45.31522" lon="6.05016">
        <ele>1719.4</ele>
        <time>2021-01-16T09:32:21Z</time>
      </trkpt>
      <trkpt lat="45.31522" lon="6.05016">
        <ele>1719.6</ele>
        <time>2021-01-16T09:32:22Z</time>
      </trkpt>
      <trkpt lat="45.31521" lon="6.05016">
        <ele>1719.6</ele>
        <time>2021-01-16T09:32:23Z</time>
      </trkpt>
      <trkpt lat="45.31521" lon="6.05016">
        <ele>1720</ele>
        <time>2021-01-16T09:32:24Z</time>
      </trkpt>
      <trkpt lat="45.3152" lon="6.05016">
        <ele>1720</ele>
        <time>2021-01-16T09:32:25Z</time>
      </trkpt>
      <trkpt lat="45.31519" lon="6.05015">
        <ele>1720.2</ele>
        <time>2021-01-16T09:32:26Z</time>
      </trkpt>
      <trkpt lat="45.31519" lon="6.05015">
        <ele>1720.4</ele>
        <time>2021-01-16T09:32:27Z</time>
      </trkpt>
      <trkpt lat="45.31519" lon="6.05015">
        <ele>1720.6</ele>
        <time>2021-01-16T09:32:28Z</time>
      </trkpt>
      <trkpt lat="45.31518" lon="6.05015">
        <ele>1720.8</ele>
        <time>2021-01-16T09:32:29Z</time>
      </trkpt>
      <trkpt lat="45.31517" lon="6.05015">
        <ele>1720.8</ele>
        <time>2021-01-16T09:32:30Z</time>
      </trkpt>
      <trkpt lat="45.31517" lon="6.05014">
        <ele>1721</ele>
        <time>2021-01-16T09:32:31Z</time>
      </trkpt>
      <trkpt lat="45.31517" lon="6.05014">
        <ele>1721.2</ele>
        <time>2021-01-16T09:32:32Z</time>
      </trkpt>
      <trkpt lat="45.31516" lon="6.05014">
        <ele>1721.2</ele>
        <time>2021-01-16T09:32:33Z</time>
      </trkpt>
      <trkpt lat="45.31515" lon="6.05013">
        <ele>1721.4</ele>
        <time>2021-01-16T09:32:34Z</time>
      </trkpt>
      <trkpt lat="45.31515" lon="6.05013">
        <ele>1721.6</ele>
        <time>2021-01-16T09:32:35Z</time>
      </trkpt>
      <trkpt lat="45.31514" lon="6.05013">
        <ele>1721.8</ele>
        <time>2021-01-16T09:32:36Z</time>
      </trkpt>
      <trkpt lat="45.31514" lon="6.05013">
        <ele>1721.8</ele>
        <time>2021-01-16T09:32:37Z</time>
      </trkpt>
      <trkpt lat="45.31513" lon="6.05013">
        <ele>1721.8</ele>
        <time>2021-01-16T09:32:38Z</time>
      </trkpt>
      <trkpt lat="45.31513" lon="6.05013">
        <ele>1721.8</ele>
        <time>2021-01-16T09:32:39Z</time>
      </trkpt>
      <trkpt lat="45.31512" lon="6.05012">
        <ele>1722.2</ele>
        <time>2021-01-16T09:32:40Z</time>
      </trkpt>
      <trkpt lat="45.31512" lon="6.05012">
        <ele>1722.2</ele>
        <time>2021-01-16T09:32:41Z</time>
      </trkpt>
      <trkpt lat="45.31511" lon="6.05012">
        <ele>1722.4</ele>
        <time>2021-01-16T09:32:42Z</time>
      </trkpt>
      <trkpt lat="45.31511" lon="6.05012">
        <ele>1722.4</ele>
        <time>2021-01-16T09:32:43Z</time>
      </trkpt>
      <trkpt lat="45.3151" lon="6.05012">
        <ele>1722.6</ele>
        <time>2021-01-16T09:32:44Z</time>
      </trkpt>
      <trkpt lat="45.31509" lon="6.05012">
        <ele>1722.6</ele>
        <time>2021-01-16T09:32:45Z</time>
      </trkpt>
      <trkpt lat="45.31509" lon="6.05012">
        <ele>1722.8</ele>
        <time>2021-01-16T09:32:46Z</time>
      </trkpt>
      <trkpt lat="45.31509" lon="6.05011">
        <ele>1722.8</ele>
        <time>2021-01-16T09:32:47Z</time>
      </trkpt>
      <trkpt lat="45.31508" lon="6.05011">
        <ele>1722.8</ele>
        <time>2021-01-16T09:32:48Z</time>
      </trkpt>
      <trkpt lat="45.31507" lon="6.05011">
        <ele>1723</ele>
        <time>2021-01-16T09:32:49Z</time>
      </trkpt>
      <trkpt lat="45.31507" lon="6.05011">
        <ele>1723</ele>
        <time>2021-01-16T09:32:50Z</time>
      </trkpt>
      <trkpt lat="45.31506" lon="6.0501">
        <ele>1723</ele>
        <time>2021-01-16T09:32:51Z</time>
      </trkpt>
      <trkpt lat="45.31506" lon="6.0501">
        <ele>1723</ele>
        <time>2021-01-16T09:32:52Z</time>
      </trkpt>
      <trkpt lat="45.31505" lon="6.0501">
        <ele>1723</ele>
        <time>2021-01-16T09:32:53Z</time>
      </trkpt>
      <trkpt lat="45.31504" lon="6.0501">
        <ele>1723.2</ele>
        <time>2021-01-16T09:32:54Z</time>
      </trkpt>
      <trkpt lat="45.31504" lon="6.05009">
        <ele>1723.2</ele>
        <time>2021-01-16T09:32:55Z</time>
      </trkpt>
      <trkpt lat="45.31504" lon="6.05009">
        <ele>1723.2</ele>
        <time>2021-01-16T09:32:56Z</time>
      </trkpt>
      <trkpt lat="45.31503" lon="6.05008">
        <ele>1723.4</ele>
        <time>2021-01-16T09:32:57Z</time>
      </trkpt>
      <trkpt lat="45.31503" lon="6.05008">
        <ele>1723.4</ele>
        <time>2021-01-16T09:32:58Z</time>
      </trkpt>
      <trkpt lat="45.31503" lon="6.05008">
        <ele>1723.4</ele>
        <time>2021-01-16T09:32:59Z</time>
      </trkpt>
      <trkpt lat="45.31502" lon="6.05007">
        <ele>1723.6</ele>
        <time>2021-01-16T09:33:00Z</time>
      </trkpt>
      <trkpt lat="45.31502" lon="6.05007">
        <ele>1723.6</ele>
        <time>2021-01-16T09:33:01Z</time>
      </trkpt>
      <trkpt lat="45.31502" lon="6.05007">
        <ele>1723.6</ele>
        <time>2021-01-16T09:33:02Z</time>
      </trkpt>
      <trkpt lat="45.31502" lon="6.05006">
        <ele>1723.8</ele>
        <time>2021-01-16T09:33:03Z</time>
      </trkpt>
      <trkpt lat="45.31502" lon="6.05005">
        <ele>1723.6</ele>
        <time>2021-01-16T09:33:04Z</time>
      </trkpt>
      <trkpt lat="45.31501" lon="6.05005">
        <ele>1723.8</ele>
        <time>2021-01-16T09:33:05Z</time>
      </trkpt>
      <trkpt lat="45.31501" lon="6.05004">
        <ele>1723.8</ele>
        <time>2021-01-16T09:33:06Z</time>
      </trkpt>
      <trkpt lat="45.31501" lon="6.05004">
        <ele>1724</ele>
        <time>2021-01-16T09:33:07Z</time>
      </trkpt>
      <trkpt lat="45.31501" lon="6.05003">
        <ele>1724.2</ele>
        <time>2021-01-16T09:33:08Z</time>
      </trkpt>
      <trkpt lat="45.31501" lon="6.05003">
        <ele>1724.2</ele>
        <time>2021-01-16T09:33:09Z</time>
      </trkpt>
      <trkpt lat="45.31501" lon="6.05003">
        <ele>1724.4</ele>
        <time>2021-01-16T09:33:10Z</time>
      </trkpt>
      <trkpt lat="45.315" lon="6.05002">
        <ele>1724.6</ele>
        <time>2021-01-16T09:33:11Z</time>
      </trkpt>
      <trkpt lat="45.315" lon="6.05001">
        <ele>1724.6</ele>
        <time>2021-01-16T09:33:12Z</time>
      </trkpt>
      <trkpt lat="45.31499" lon="6.05">
        <ele>1724.8</ele>
        <time>2021-01-16T09:33:13Z</time>
      </trkpt>
      <trkpt lat="45.31499" lon="6.05">
        <ele>1724.8</ele>
        <time>2021-01-16T09:33:14Z</time>
      </trkpt>
      <trkpt lat="45.31498" lon="6.04999">
        <ele>1725</ele>
        <time>2021-01-16T09:33:15Z</time>
      </trkpt>
      <trkpt lat="45.31498" lon="6.04999">
        <ele>1725</ele>
        <time>2021-01-16T09:33:16Z</time>
      </trkpt>
      <trkpt lat="45.31497" lon="6.04999">
        <ele>1725.2</ele>
        <time>2021-01-16T09:33:17Z</time>
      </trkpt>
      <trkpt lat="45.31497" lon="6.04998">
        <ele>1725.2</ele>
        <time>2021-01-16T09:33:18Z</time>
      </trkpt>
      <trkpt lat="45.31496" lon="6.04997">
        <ele>1725.4</ele>
        <time>2021-01-16T09:33:19Z</time>
      </trkpt>
      <trkpt lat="45.31496" lon="6.04997">
        <ele>1725.4</ele>
        <time>2021-01-16T09:33:20Z</time>
      </trkpt>
      <trkpt lat="45.31496" lon="6.04996">
        <ele>1725.6</ele>
        <time>2021-01-16T09:33:21Z</time>
      </trkpt>
      <trkpt lat="45.31496" lon="6.04996">
        <ele>1725.8</ele>
        <time>2021-01-16T09:33:22Z</time>
      </trkpt>
      <trkpt lat="45.31495" lon="6.04995">
        <ele>1726</ele>
        <time>2021-01-16T09:33:23Z</time>
      </trkpt>
      <trkpt lat="45.31495" lon="6.04995">
        <ele>1726.2</ele>
        <time>2021-01-16T09:33:24Z</time>
      </trkpt>
      <trkpt lat="45.31495" lon="6.04995">
        <ele>1726.2</ele>
        <time>2021-01-16T09:33:25Z</time>
      </trkpt>
      <trkpt lat="45.31494" lon="6.04994">
        <ele>1726.4</ele>
        <time>2021-01-16T09:33:26Z</time>
      </trkpt>
      <trkpt lat="45.31494" lon="6.04993">
        <ele>1726.4</ele>
        <time>2021-01-16T09:33:27Z</time>
      </trkpt>
      <trkpt lat="45.31494" lon="6.04993">
        <ele>1726.4</ele>
        <time>2021-01-16T09:33:28Z</time>
      </trkpt>
      <trkpt lat="45.31494" lon="6.04992">
        <ele>1726.6</ele>
        <time>2021-01-16T09:33:29Z</time>
      </trkpt>
      <trkpt lat="45.31494" lon="6.04992">
        <ele>1726.6</ele>
        <time>2021-01-16T09:33:30Z</time>
      </trkpt>
      <trkpt lat="45.31494" lon="6.04991">
        <ele>1726.8</ele>
        <time>2021-01-16T09:33:31Z</time>
      </trkpt>
      <trkpt lat="45.31493" lon="6.04991">
        <ele>1726.8</ele>
        <time>2021-01-16T09:33:32Z</time>
      </trkpt>
      <trkpt lat="45.31494" lon="6.0499">
        <ele>1727</ele>
        <time>2021-01-16T09:33:33Z</time>
      </trkpt>
      <trkpt lat="45.31494" lon="6.0499">
        <ele>1727</ele>
        <time>2021-01-16T09:33:34Z</time>
      </trkpt>
      <trkpt lat="45.31494" lon="6.04989">
        <ele>1727.2</ele>
        <time>2021-01-16T09:33:35Z</time>
      </trkpt>
      <trkpt lat="45.31494" lon="6.04988">
        <ele>1727.2</ele>
        <time>2021-01-16T09:33:36Z</time>
      </trkpt>
      <trkpt lat="45.31493" lon="6.04988">
        <ele>1727.2</ele>
        <time>2021-01-16T09:33:37Z</time>
      </trkpt>
      <trkpt lat="45.31493" lon="6.04988">
        <ele>1727.2</ele>
        <time>2021-01-16T09:33:38Z</time>
      </trkpt>
      <trkpt lat="45.31493" lon="6.04988">
        <ele>1727.2</ele>
        <time>2021-01-16T09:33:39Z</time>
      </trkpt>
      <trkpt lat="45.31493" lon="6.04988">
        <ele>1727.4</ele>
        <time>2021-01-16T09:33:40Z</time>
      </trkpt>
      <trkpt lat="45.31493" lon="6.04987">
        <ele>1727.6</ele>
        <time>2021-01-16T09:33:41Z</time>
      </trkpt>
      <trkpt lat="45.31493" lon="6.04985">
        <ele>1727.6</ele>
        <time>2021-01-16T09:33:42Z</time>
      </trkpt>
      <trkpt lat="45.31493" lon="6.04984">
        <ele>1727.8</ele>
        <time>2021-01-16T09:33:43Z</time>
      </trkpt>
      <trkpt lat="45.31493" lon="6.04983">
        <ele>1728</ele>
        <time>2021-01-16T09:33:44Z</time>
      </trkpt>
      <trkpt lat="45.31493" lon="6.04983">
        <ele>1728</ele>
        <time>2021-01-16T09:33:45Z</time>
      </trkpt>
      <trkpt lat="45.31492" lon="6.04982">
        <ele>1728.2</ele>
        <time>2021-01-16T09:33:46Z</time>
      </trkpt>
      <trkpt lat="45.31492" lon="6.04982">
        <ele>1728.4</ele>
        <time>2021-01-16T09:33:47Z</time>
      </trkpt>
      <trkpt lat="45.31492" lon="6.04982">
        <ele>1728.6</ele>
        <time>2021-01-16T09:33:48Z</time>
      </trkpt>
      <trkpt lat="45.31491" lon="6.0498">
        <ele>1728.8</ele>
        <time>2021-01-16T09:33:49Z</time>
      </trkpt>
      <trkpt lat="45.31491" lon="6.04979">
        <ele>1728.8</ele>
        <time>2021-01-16T09:33:50Z</time>
      </trkpt>
      <trkpt lat="45.31491" lon="6.04978">
        <ele>1729</ele>
        <time>2021-01-16T09:33:51Z</time>
      </trkpt>
      <trkpt lat="45.31491" lon="6.04978">
        <ele>1729.2</ele>
        <time>2021-01-16T09:33:52Z</time>
      </trkpt>
      <trkpt lat="45.3149" lon="6.04977">
        <ele>1729.2</ele>
        <time>2021-01-16T09:33:53Z</time>
      </trkpt>
      <trkpt lat="45.3149" lon="6.04977">
        <ele>1729.4</ele>
        <time>2021-01-16T09:33:54Z</time>
      </trkpt>
      <trkpt lat="45.3149" lon="6.04977">
        <ele>1729.4</ele>
        <time>2021-01-16T09:33:55Z</time>
      </trkpt>
      <trkpt lat="45.3149" lon="6.04975">
        <ele>1729.6</ele>
        <time>2021-01-16T09:33:56Z</time>
      </trkpt>
      <trkpt lat="45.3149" lon="6.04974">
        <ele>1729.6</ele>
        <time>2021-01-16T09:33:57Z</time>
      </trkpt>
      <trkpt lat="45.31489" lon="6.04974">
        <ele>1729.8</ele>
        <time>2021-01-16T09:33:58Z</time>
      </trkpt>
      <trkpt lat="45.3149" lon="6.04973">
        <ele>1729.8</ele>
        <time>2021-01-16T09:33:59Z</time>
      </trkpt>
      <trkpt lat="45.31489" lon="6.04972">
        <ele>1730</ele>
        <time>2021-01-16T09:34:00Z</time>
      </trkpt>
      <trkpt lat="45.31489" lon="6.04971">
        <ele>1730.2</ele>
        <time>2021-01-16T09:34:01Z</time>
      </trkpt>
      <trkpt lat="45.31488" lon="6.04971">
        <ele>1730.2</ele>
        <time>2021-01-16T09:34:02Z</time>
      </trkpt>
      <trkpt lat="45.31488" lon="6.0497">
        <ele>1730.2</ele>
        <time>2021-01-16T09:34:03Z</time>
      </trkpt>
      <trkpt lat="45.31488" lon="6.0497">
        <ele>1730.4</ele>
        <time>2021-01-16T09:34:04Z</time>
      </trkpt>
      <trkpt lat="45.31488" lon="6.04969">
        <ele>1730.4</ele>
        <time>2021-01-16T09:34:05Z</time>
      </trkpt>
      <trkpt lat="45.31488" lon="6.04969">
        <ele>1730.6</ele>
        <time>2021-01-16T09:34:06Z</time>
      </trkpt>
      <trkpt lat="45.31488" lon="6.04968">
        <ele>1730.6</ele>
        <time>2021-01-16T09:34:07Z</time>
      </trkpt>
      <trkpt lat="45.31488" lon="6.04968">
        <ele>1730.6</ele>
        <time>2021-01-16T09:34:08Z</time>
      </trkpt>
      <trkpt lat="45.31488" lon="6.04967">
        <ele>1730.8</ele>
        <time>2021-01-16T09:34:09Z</time>
      </trkpt>
      <trkpt lat="45.31488" lon="6.04966">
        <ele>1731</ele>
        <time>2021-01-16T09:34:10Z</time>
      </trkpt>
      <trkpt lat="45.31488" lon="6.04966">
        <ele>1731</ele>
        <time>2021-01-16T09:34:11Z</time>
      </trkpt>
      <trkpt lat="45.31488" lon="6.04965">
        <ele>1731</ele>
        <time>2021-01-16T09:34:12Z</time>
      </trkpt>
      <trkpt lat="45.31488" lon="6.04965">
        <ele>1731.2</ele>
        <time>2021-01-16T09:34:13Z</time>
      </trkpt>
      <trkpt lat="45.31488" lon="6.04965">
        <ele>1731.2</ele>
        <time>2021-01-16T09:34:14Z</time>
      </trkpt>
      <trkpt lat="45.31488" lon="6.04964">
        <ele>1731.4</ele>
        <time>2021-01-16T09:34:15Z</time>
      </trkpt>
      <trkpt lat="45.31488" lon="6.04963">
        <ele>1731.4</ele>
        <time>2021-01-16T09:34:16Z</time>
      </trkpt>
      <trkpt lat="45.31488" lon="6.04962">
        <ele>1731.4</ele>
        <time>2021-01-16T09:34:17Z</time>
      </trkpt>
      <trkpt lat="45.31488" lon="6.04962">
        <ele>1731.6</ele>
        <time>2021-01-16T09:34:18Z</time>
      </trkpt>
      <trkpt lat="45.31488" lon="6.04962">
        <ele>1731.6</ele>
        <time>2021-01-16T09:34:19Z</time>
      </trkpt>
      <trkpt lat="45.31488" lon="6.04961">
        <ele>1731.8</ele>
        <time>2021-01-16T09:34:20Z</time>
      </trkpt>
      <trkpt lat="45.31488" lon="6.0496">
        <ele>1732</ele>
        <time>2021-01-16T09:34:21Z</time>
      </trkpt>
      <trkpt lat="45.31488" lon="6.04959">
        <ele>1732</ele>
        <time>2021-01-16T09:34:22Z</time>
      </trkpt>
      <trkpt lat="45.31487" lon="6.04958">
        <ele>1732</ele>
        <time>2021-01-16T09:34:23Z</time>
      </trkpt>
      <trkpt lat="45.31487" lon="6.04958">
        <ele>1732.2</ele>
        <time>2021-01-16T09:34:24Z</time>
      </trkpt>
      <trkpt lat="45.31487" lon="6.04957">
        <ele>1732.2</ele>
        <time>2021-01-16T09:34:25Z</time>
      </trkpt>
      <trkpt lat="45.31487" lon="6.04957">
        <ele>1732.4</ele>
        <time>2021-01-16T09:34:26Z</time>
      </trkpt>
      <trkpt lat="45.31486" lon="6.04956">
        <ele>1732.6</ele>
        <time>2021-01-16T09:34:27Z</time>
      </trkpt>
      <trkpt lat="45.31486" lon="6.04955">
        <ele>1732.8</ele>
        <time>2021-01-16T09:34:28Z</time>
      </trkpt>
      <trkpt lat="45.31486" lon="6.04954">
        <ele>1732.8</ele>
        <time>2021-01-16T09:34:29Z</time>
      </trkpt>
      <trkpt lat="45.31485" lon="6.04954">
        <ele>1733</ele>
        <time>2021-01-16T09:34:30Z</time>
      </trkpt>
      <trkpt lat="45.31485" lon="6.04953">
        <ele>1733</ele>
        <time>2021-01-16T09:34:31Z</time>
      </trkpt>
      <trkpt lat="45.31485" lon="6.04952">
        <ele>1733.2</ele>
        <time>2021-01-16T09:34:32Z</time>
      </trkpt>
      <trkpt lat="45.31484" lon="6.04951">
        <ele>1733.2</ele>
        <time>2021-01-16T09:34:33Z</time>
      </trkpt>
      <trkpt lat="45.31484" lon="6.04951">
        <ele>1733.4</ele>
        <time>2021-01-16T09:34:34Z</time>
      </trkpt>
      <trkpt lat="45.31484" lon="6.0495">
        <ele>1733.4</ele>
        <time>2021-01-16T09:34:35Z</time>
      </trkpt>
      <trkpt lat="45.31483" lon="6.0495">
        <ele>1733.6</ele>
        <time>2021-01-16T09:34:36Z</time>
      </trkpt>
      <trkpt lat="45.31483" lon="6.04949">
        <ele>1733.8</ele>
        <time>2021-01-16T09:34:37Z</time>
      </trkpt>
      <trkpt lat="45.31482" lon="6.04949">
        <ele>1733.8</ele>
        <time>2021-01-16T09:34:38Z</time>
      </trkpt>
      <trkpt lat="45.31482" lon="6.04948">
        <ele>1734</ele>
        <time>2021-01-16T09:34:39Z</time>
      </trkpt>
      <trkpt lat="45.31482" lon="6.04948">
        <ele>1733.8</ele>
        <time>2021-01-16T09:34:40Z</time>
      </trkpt>
      <trkpt lat="45.31481" lon="6.04947">
        <ele>1734</ele>
        <time>2021-01-16T09:34:41Z</time>
      </trkpt>
      <trkpt lat="45.31481" lon="6.04947">
        <ele>1734</ele>
        <time>2021-01-16T09:34:42Z</time>
      </trkpt>
      <trkpt lat="45.3148" lon="6.04946">
        <ele>1734.2</ele>
        <time>2021-01-16T09:34:43Z</time>
      </trkpt>
      <trkpt lat="45.3148" lon="6.04946">
        <ele>1734.2</ele>
        <time>2021-01-16T09:34:44Z</time>
      </trkpt>
      <trkpt lat="45.3148" lon="6.04945">
        <ele>1734.2</ele>
        <time>2021-01-16T09:34:45Z</time>
      </trkpt>
      <trkpt lat="45.31479" lon="6.04944">
        <ele>1734.4</ele>
        <time>2021-01-16T09:34:46Z</time>
      </trkpt>
      <trkpt lat="45.31479" lon="6.04944">
        <ele>1734.4</ele>
        <time>2021-01-16T09:34:47Z</time>
      </trkpt>
      <trkpt lat="45.31479" lon="6.04943">
        <ele>1734.8</ele>
        <time>2021-01-16T09:34:48Z</time>
      </trkpt>
      <trkpt lat="45.31479" lon="6.04943">
        <ele>1734.8</ele>
        <time>2021-01-16T09:34:49Z</time>
      </trkpt>
      <trkpt lat="45.31478" lon="6.04942">
        <ele>1735.2</ele>
        <time>2021-01-16T09:34:50Z</time>
      </trkpt>
      <trkpt lat="45.31478" lon="6.04942">
        <ele>1735.2</ele>
        <time>2021-01-16T09:34:51Z</time>
      </trkpt>
      <trkpt lat="45.31478" lon="6.04941">
        <ele>1735.4</ele>
        <time>2021-01-16T09:34:52Z</time>
      </trkpt>
      <trkpt lat="45.31477" lon="6.0494">
        <ele>1735.2</ele>
        <time>2021-01-16T09:34:53Z</time>
      </trkpt>
      <trkpt lat="45.31477" lon="6.0494">
        <ele>1735.4</ele>
        <time>2021-01-16T09:34:54Z</time>
      </trkpt>
      <trkpt lat="45.31477" lon="6.04939">
        <ele>1735.4</ele>
        <time>2021-01-16T09:34:55Z</time>
      </trkpt>
      <trkpt lat="45.31477" lon="6.04939">
        <ele>1735.6</ele>
        <time>2021-01-16T09:34:56Z</time>
      </trkpt>
      <trkpt lat="45.31477" lon="6.04938">
        <ele>1735.8</ele>
        <time>2021-01-16T09:34:57Z</time>
      </trkpt>
      <trkpt lat="45.31477" lon="6.04937">
        <ele>1736</ele>
        <time>2021-01-16T09:34:58Z</time>
      </trkpt>
      <trkpt lat="45.31476" lon="6.04936">
        <ele>1736.2</ele>
        <time>2021-01-16T09:34:59Z</time>
      </trkpt>
      <trkpt lat="45.31475" lon="6.04935">
        <ele>1736.4</ele>
        <time>2021-01-16T09:35:00Z</time>
      </trkpt>
      <trkpt lat="45.31475" lon="6.04934">
        <ele>1736.6</ele>
        <time>2021-01-16T09:35:01Z</time>
      </trkpt>
      <trkpt lat="45.31475" lon="6.04933">
        <ele>1736.4</ele>
        <time>2021-01-16T09:35:02Z</time>
      </trkpt>
      <trkpt lat="45.31474" lon="6.04932">
        <ele>1736.8</ele>
        <time>2021-01-16T09:35:03Z</time>
      </trkpt>
      <trkpt lat="45.31474" lon="6.04932">
        <ele>1736.8</ele>
        <time>2021-01-16T09:35:04Z</time>
      </trkpt>
      <trkpt lat="45.31474" lon="6.04931">
        <ele>1736.8</ele>
        <time>2021-01-16T09:35:05Z</time>
      </trkpt>
      <trkpt lat="45.31473" lon="6.0493">
        <ele>1737</ele>
        <time>2021-01-16T09:35:06Z</time>
      </trkpt>
      <trkpt lat="45.31473" lon="6.0493">
        <ele>1737</ele>
        <time>2021-01-16T09:35:07Z</time>
      </trkpt>
      <trkpt lat="45.31472" lon="6.04929">
        <ele>1737</ele>
        <time>2021-01-16T09:35:08Z</time>
      </trkpt>
      <trkpt lat="45.31472" lon="6.04929">
        <ele>1737.2</ele>
        <time>2021-01-16T09:35:09Z</time>
      </trkpt>
      <trkpt lat="45.31472" lon="6.04928">
        <ele>1737.4</ele>
        <time>2021-01-16T09:35:10Z</time>
      </trkpt>
      <trkpt lat="45.31471" lon="6.04928">
        <ele>1737.4</ele>
        <time>2021-01-16T09:35:11Z</time>
      </trkpt>
      <trkpt lat="45.3147" lon="6.04928">
        <ele>1737.6</ele>
        <time>2021-01-16T09:35:12Z</time>
      </trkpt>
      <trkpt lat="45.3147" lon="6.04927">
        <ele>1737.8</ele>
        <time>2021-01-16T09:35:13Z</time>
      </trkpt>
      <trkpt lat="45.3147" lon="6.04927">
        <ele>1738</ele>
        <time>2021-01-16T09:35:14Z</time>
      </trkpt>
      <trkpt lat="45.31469" lon="6.04927">
        <ele>1738</ele>
        <time>2021-01-16T09:35:15Z</time>
      </trkpt>
      <trkpt lat="45.31468" lon="6.04927">
        <ele>1738.2</ele>
        <time>2021-01-16T09:35:16Z</time>
      </trkpt>
      <trkpt lat="45.31468" lon="6.04926">
        <ele>1738.2</ele>
        <time>2021-01-16T09:35:17Z</time>
      </trkpt>
      <trkpt lat="45.31467" lon="6.04926">
        <ele>1738.6</ele>
        <time>2021-01-16T09:35:18Z</time>
      </trkpt>
      <trkpt lat="45.31467" lon="6.04927">
        <ele>1738.6</ele>
        <time>2021-01-16T09:35:19Z</time>
      </trkpt>
      <trkpt lat="45.31467" lon="6.04927">
        <ele>1738.8</ele>
        <time>2021-01-16T09:35:20Z</time>
      </trkpt>
      <trkpt lat="45.31467" lon="6.04927">
        <ele>1738.8</ele>
        <time>2021-01-16T09:35:21Z</time>
      </trkpt>
      <trkpt lat="45.31467" lon="6.04927">
        <ele>1738.8</ele>
        <time>2021-01-16T09:35:22Z</time>
      </trkpt>
      <trkpt lat="45.31466" lon="6.04928">
        <ele>1739</ele>
        <time>2021-01-16T09:35:23Z</time>
      </trkpt>
      <trkpt lat="45.31465" lon="6.04929">
        <ele>1739.2</ele>
        <time>2021-01-16T09:35:24Z</time>
      </trkpt>
      <trkpt lat="45.31465" lon="6.04929">
        <ele>1739.4</ele>
        <time>2021-01-16T09:35:25Z</time>
      </trkpt>
      <trkpt lat="45.31464" lon="6.04929">
        <ele>1739.4</ele>
        <time>2021-01-16T09:35:26Z</time>
      </trkpt>
      <trkpt lat="45.31464" lon="6.0493">
        <ele>1739.6</ele>
        <time>2021-01-16T09:35:27Z</time>
      </trkpt>
      <trkpt lat="45.31463" lon="6.0493">
        <ele>1739.6</ele>
        <time>2021-01-16T09:35:28Z</time>
      </trkpt>
      <trkpt lat="45.31463" lon="6.04931">
        <ele>1739.6</ele>
        <time>2021-01-16T09:35:29Z</time>
      </trkpt>
      <trkpt lat="45.31463" lon="6.04932">
        <ele>1739.8</ele>
        <time>2021-01-16T09:35:30Z</time>
      </trkpt>
      <trkpt lat="45.31462" lon="6.04932">
        <ele>1739.8</ele>
        <time>2021-01-16T09:35:31Z</time>
      </trkpt>
      <trkpt lat="45.31462" lon="6.04933">
        <ele>1740</ele>
        <time>2021-01-16T09:35:32Z</time>
      </trkpt>
      <trkpt lat="45.31461" lon="6.04933">
        <ele>1740</ele>
        <time>2021-01-16T09:35:33Z</time>
      </trkpt>
      <trkpt lat="45.31461" lon="6.04934">
        <ele>1740.2</ele>
        <time>2021-01-16T09:35:34Z</time>
      </trkpt>
      <trkpt lat="45.3146" lon="6.04934">
        <ele>1740.4</ele>
        <time>2021-01-16T09:35:35Z</time>
      </trkpt>
      <trkpt lat="45.3146" lon="6.04935">
        <ele>1740.6</ele>
        <time>2021-01-16T09:35:36Z</time>
      </trkpt>
      <trkpt lat="45.31459" lon="6.04935">
        <ele>1740.6</ele>
        <time>2021-01-16T09:35:37Z</time>
      </trkpt>
      <trkpt lat="45.31459" lon="6.04935">
        <ele>1740.8</ele>
        <time>2021-01-16T09:35:38Z</time>
      </trkpt>
      <trkpt lat="45.31459" lon="6.04936">
        <ele>1741</ele>
        <time>2021-01-16T09:35:39Z</time>
      </trkpt>
      <trkpt lat="45.31459" lon="6.04937">
        <ele>1741.2</ele>
        <time>2021-01-16T09:35:40Z</time>
      </trkpt>
      <trkpt lat="45.31458" lon="6.04937">
        <ele>1741.2</ele>
        <time>2021-01-16T09:35:41Z</time>
      </trkpt>
      <trkpt lat="45.31458" lon="6.04938">
        <ele>1741.2</ele>
        <time>2021-01-16T09:35:42Z</time>
      </trkpt>
      <trkpt lat="45.31458" lon="6.04938">
        <ele>1741.4</ele>
        <time>2021-01-16T09:35:43Z</time>
      </trkpt>
      <trkpt lat="45.31458" lon="6.04938">
        <ele>1741.4</ele>
        <time>2021-01-16T09:35:44Z</time>
      </trkpt>
      <trkpt lat="45.31458" lon="6.04938">
        <ele>1741.6</ele>
        <time>2021-01-16T09:35:45Z</time>
      </trkpt>
      <trkpt lat="45.31458" lon="6.04938">
        <ele>1741.6</ele>
        <time>2021-01-16T09:35:46Z</time>
      </trkpt>
      <trkpt lat="45.31458" lon="6.04938">
        <ele>1741.6</ele>
        <time>2021-01-16T09:35:47Z</time>
      </trkpt>
      <trkpt lat="45.31458" lon="6.04938">
        <ele>1741.6</ele>
        <time>2021-01-16T09:35:48Z</time>
      </trkpt>
      <trkpt lat="45.31458" lon="6.04938">
        <ele>1741.8</ele>
        <time>2021-01-16T09:35:49Z</time>
      </trkpt>
      <trkpt lat="45.31458" lon="6.04938">
        <ele>1741.8</ele>
        <time>2021-01-16T09:35:50Z</time>
      </trkpt>
      <trkpt lat="45.31458" lon="6.04938">
        <ele>1741.8</ele>
        <time>2021-01-16T09:35:51Z</time>
      </trkpt>
      <trkpt lat="45.31458" lon="6.04938">
        <ele>1741.8</ele>
        <time>2021-01-16T09:35:52Z</time>
      </trkpt>
      <trkpt lat="45.31458" lon="6.04938">
        <ele>1741.8</ele>
        <time>2021-01-16T09:35:53Z</time>
      </trkpt>
      <trkpt lat="45.31458" lon="6.04938">
        <ele>1741.8</ele>
        <time>2021-01-16T09:35:54Z</time>
      </trkpt>
      <trkpt lat="45.31458" lon="6.04938">
        <ele>1741.8</ele>
        <time>2021-01-16T09:35:55Z</time>
      </trkpt>
      <trkpt lat="45.31458" lon="6.04938">
        <ele>1741.8</ele>
        <time>2021-01-16T09:35:56Z</time>
      </trkpt>
      <trkpt lat="45.31458" lon="6.04938">
        <ele>1741.8</ele>
        <time>2021-01-16T09:35:57Z</time>
      </trkpt>
      <trkpt lat="45.31458" lon="6.04938">
        <ele>1741.8</ele>
        <time>2021-01-16T09:35:58Z</time>
      </trkpt>
      <trkpt lat="45.31458" lon="6.04938">
        <ele>1741.8</ele>
        <time>2021-01-16T09:35:59Z</time>
      </trkpt>
      <trkpt lat="45.31458" lon="6.04938">
        <ele>1741.8</ele>
        <time>2021-01-16T09:36:00Z</time>
      </trkpt>
      <trkpt lat="45.31458" lon="6.04938">
        <ele>1741.8</ele>
        <time>2021-01-16T09:36:01Z</time>
      </trkpt>
      <trkpt lat="45.31458" lon="6.04938">
        <ele>1741.8</ele>
        <time>2021-01-16T09:36:02Z</time>
      </trkpt>
      <trkpt lat="45.31458" lon="6.04938">
        <ele>1741.8</ele>
        <time>2021-01-16T09:36:03Z</time>
      </trkpt>
      <trkpt lat="45.31458" lon="6.04938">
        <ele>1741.8</ele>
        <time>2021-01-16T09:36:04Z</time>
      </trkpt>
      <trkpt lat="45.31458" lon="6.04938">
        <ele>1741.8</ele>
        <time>2021-01-16T09:36:05Z</time>
      </trkpt>
      <trkpt lat="45.31458" lon="6.04938">
        <ele>1741.8</ele>
        <time>2021-01-16T09:36:06Z</time>
      </trkpt>
      <trkpt lat="45.31458" lon="6.04938">
        <ele>1741.8</ele>
        <time>2021-01-16T09:36:07Z</time>
      </trkpt>
      <trkpt lat="45.31458" lon="6.04938">
        <ele>1741.8</ele>
        <time>2021-01-16T09:36:08Z</time>
      </trkpt>
      <trkpt lat="45.31458" lon="6.04938">
        <ele>1741.8</ele>
        <time>2021-01-16T09:36:09Z</time>
      </trkpt>
      <trkpt lat="45.31458" lon="6.04938">
        <ele>1741.8</ele>
        <time>2021-01-16T09:36:10Z</time>
      </trkpt>
      <trkpt lat="45.31458" lon="6.04938">
        <ele>1741.8</ele>
        <time>2021-01-16T09:36:11Z</time>
      </trkpt>
      <trkpt lat="45.31458" lon="6.04938">
        <ele>1741.8</ele>
        <time>2021-01-16T09:36:12Z</time>
      </trkpt>
      <trkpt lat="45.31458" lon="6.04938">
        <ele>1741.8</ele>
        <time>2021-01-16T09:36:13Z</time>
      </trkpt>
      <trkpt lat="45.31458" lon="6.04938">
        <ele>1741.8</ele>
        <time>2021-01-16T09:36:14Z</time>
      </trkpt>
      <trkpt lat="45.31458" lon="6.04938">
        <ele>1741.8</ele>
        <time>2021-01-16T09:36:15Z</time>
      </trkpt>
      <trkpt lat="45.31458" lon="6.04938">
        <ele>1741.8</ele>
        <time>2021-01-16T09:36:16Z</time>
      </trkpt>
      <trkpt lat="45.31458" lon="6.04938">
        <ele>1741.6</ele>
        <time>2021-01-16T09:36:17Z</time>
      </trkpt>
      <trkpt lat="45.31458" lon="6.04938">
        <ele>1741.6</ele>
        <time>2021-01-16T09:36:18Z</time>
      </trkpt>
      <trkpt lat="45.31458" lon="6.04938">
        <ele>1741.6</ele>
        <time>2021-01-16T09:36:19Z</time>
      </trkpt>
      <trkpt lat="45.31458" lon="6.04938">
        <ele>1741.6</ele>
        <time>2021-01-16T09:36:20Z</time>
      </trkpt>
      <trkpt lat="45.31458" lon="6.04938">
        <ele>1741.6</ele>
        <time>2021-01-16T09:36:21Z</time>
      </trkpt>
      <trkpt lat="45.31458" lon="6.04938">
        <ele>1741.6</ele>
        <time>2021-01-16T09:36:22Z</time>
      </trkpt>
      <trkpt lat="45.31458" lon="6.04938">
        <ele>1741.6</ele>
        <time>2021-01-16T09:36:23Z</time>
      </trkpt>
      <trkpt lat="45.31458" lon="6.04938">
        <ele>1741.6</ele>
        <time>2021-01-16T09:36:24Z</time>
      </trkpt>
      <trkpt lat="45.31458" lon="6.04938">
        <ele>1741.6</ele>
        <time>2021-01-16T09:36:25Z</time>
      </trkpt>
      <trkpt lat="45.31458" lon="6.04938">
        <ele>1741.6</ele>
        <time>2021-01-16T09:36:26Z</time>
      </trkpt>
      <trkpt lat="45.31458" lon="6.04938">
        <ele>1741.6</ele>
        <time>2021-01-16T09:36:27Z</time>
      </trkpt>
      <trkpt lat="45.31458" lon="6.04938">
        <ele>1741.6</ele>
        <time>2021-01-16T09:36:28Z</time>
      </trkpt>
      <trkpt lat="45.31458" lon="6.04938">
        <ele>1741.6</ele>
        <time>2021-01-16T09:36:29Z</time>
      </trkpt>
      <trkpt lat="45.31458" lon="6.04938">
        <ele>1741.6</ele>
        <time>2021-01-16T09:36:30Z</time>
      </trkpt>
      <trkpt lat="45.31458" lon="6.04938">
        <ele>1741.6</ele>
        <time>2021-01-16T09:36:31Z</time>
      </trkpt>
      <trkpt lat="45.31458" lon="6.04938">
        <ele>1741.6</ele>
        <time>2021-01-16T09:36:32Z</time>
      </trkpt>
      <trkpt lat="45.31458" lon="6.04938">
        <ele>1741.6</ele>
        <time>2021-01-16T09:36:33Z</time>
      </trkpt>
      <trkpt lat="45.31458" lon="6.04938">
        <ele>1741.6</ele>
        <time>2021-01-16T09:36:34Z</time>
      </trkpt>
      <trkpt lat="45.31458" lon="6.04938">
        <ele>1741.6</ele>
        <time>2021-01-16T09:36:35Z</time>
      </trkpt>
      <trkpt lat="45.31458" lon="6.04938">
        <ele>1741.6</ele>
        <time>2021-01-16T09:36:36Z</time>
      </trkpt>
      <trkpt lat="45.31458" lon="6.04938">
        <ele>1741.6</ele>
        <time>2021-01-16T09:36:37Z</time>
      </trkpt>
      <trkpt lat="45.31458" lon="6.04938">
        <ele>1741.6</ele>
        <time>2021-01-16T09:36:38Z</time>
      </trkpt>
      <trkpt lat="45.31458" lon="6.04938">
        <ele>1741.6</ele>
        <time>2021-01-16T09:36:39Z</time>
      </trkpt>
      <trkpt lat="45.31458" lon="6.04938">
        <ele>1741.6</ele>
        <time>2021-01-16T09:36:40Z</time>
      </trkpt>
      <trkpt lat="45.31458" lon="6.04938">
        <ele>1741.6</ele>
        <time>2021-01-16T09:36:41Z</time>
      </trkpt>
      <trkpt lat="45.31458" lon="6.04938">
        <ele>1741.6</ele>
        <time>2021-01-16T09:36:42Z</time>
      </trkpt>
      <trkpt lat="45.31458" lon="6.04938">
        <ele>1741.6</ele>
        <time>2021-01-16T09:36:43Z</time>
      </trkpt>
      <trkpt lat="45.31458" lon="6.04938">
        <ele>1741.6</ele>
        <time>2021-01-16T09:36:44Z</time>
      </trkpt>
      <trkpt lat="45.31458" lon="6.04938">
        <ele>1741.6</ele>
        <time>2021-01-16T09:36:45Z</time>
      </trkpt>
      <trkpt lat="45.31458" lon="6.04938">
        <ele>1741.6</ele>
        <time>2021-01-16T09:36:46Z</time>
      </trkpt>
      <trkpt lat="45.31458" lon="6.04938">
        <ele>1741.6</ele>
        <time>2021-01-16T09:36:47Z</time>
      </trkpt>
      <trkpt lat="45.31458" lon="6.04938">
        <ele>1741.6</ele>
        <time>2021-01-16T09:36:48Z</time>
      </trkpt>
      <trkpt lat="45.31458" lon="6.04938">
        <ele>1741.6</ele>
        <time>2021-01-16T09:36:49Z</time>
      </trkpt>
      <trkpt lat="45.31458" lon="6.04938">
        <ele>1741.6</ele>
        <time>2021-01-16T09:36:50Z</time>
      </trkpt>
      <trkpt lat="45.31458" lon="6.04938">
        <ele>1741.6</ele>
        <time>2021-01-16T09:36:51Z</time>
      </trkpt>
      <trkpt lat="45.31458" lon="6.04938">
        <ele>1741.6</ele>
        <time>2021-01-16T09:36:52Z</time>
      </trkpt>
      <trkpt lat="45.31458" lon="6.04938">
        <ele>1741.6</ele>
        <time>2021-01-16T09:36:53Z</time>
      </trkpt>
      <trkpt lat="45.31458" lon="6.04938">
        <ele>1741.4</ele>
        <time>2021-01-16T09:36:54Z</time>
      </trkpt>
      <trkpt lat="45.31458" lon="6.04938">
        <ele>1741.4</ele>
        <time>2021-01-16T09:36:55Z</time>
      </trkpt>
      <trkpt lat="45.31458" lon="6.04938">
        <ele>1741.4</ele>
        <time>2021-01-16T09:36:56Z</time>
      </trkpt>
      <trkpt lat="45.31458" lon="6.04938">
        <ele>1741.4</ele>
        <time>2021-01-16T09:36:57Z</time>
      </trkpt>
      <trkpt lat="45.31458" lon="6.04938">
        <ele>1741.4</ele>
        <time>2021-01-16T09:36:58Z</time>
      </trkpt>
      <trkpt lat="45.31458" lon="6.04939">
        <ele>1741.2</ele>
        <time>2021-01-16T09:36:59Z</time>
      </trkpt>
      <trkpt lat="45.31456" lon="6.04942">
        <ele>1741.4</ele>
        <time>2021-01-16T09:37:00Z</time>
      </trkpt>
      <trkpt lat="45.31455" lon="6.04942">
        <ele>1741.2</ele>
        <time>2021-01-16T09:37:01Z</time>
      </trkpt>
      <trkpt lat="45.31455" lon="6.04943">
        <ele>1741.6</ele>
        <time>2021-01-16T09:37:02Z</time>
      </trkpt>
      <trkpt lat="45.31454" lon="6.04944">
        <ele>1741.4</ele>
        <time>2021-01-16T09:37:03Z</time>
      </trkpt>
      <trkpt lat="45.31454" lon="6.04945">
        <ele>1741.6</ele>
        <time>2021-01-16T09:37:04Z</time>
      </trkpt>
      <trkpt lat="45.31454" lon="6.04946">
        <ele>1741.8</ele>
        <time>2021-01-16T09:37:05Z</time>
      </trkpt>
      <trkpt lat="45.31454" lon="6.04947">
        <ele>1741.8</ele>
        <time>2021-01-16T09:37:06Z</time>
      </trkpt>
      <trkpt lat="45.31453" lon="6.04948">
        <ele>1742</ele>
        <time>2021-01-16T09:37:07Z</time>
      </trkpt>
      <trkpt lat="45.31453" lon="6.04949">
        <ele>1742</ele>
        <time>2021-01-16T09:37:08Z</time>
      </trkpt>
      <trkpt lat="45.31453" lon="6.0495">
        <ele>1742</ele>
        <time>2021-01-16T09:37:09Z</time>
      </trkpt>
      <trkpt lat="45.31453" lon="6.04951">
        <ele>1742.2</ele>
        <time>2021-01-16T09:37:10Z</time>
      </trkpt>
      <trkpt lat="45.31453" lon="6.04952">
        <ele>1742.4</ele>
        <time>2021-01-16T09:37:11Z</time>
      </trkpt>
      <trkpt lat="45.31454" lon="6.04953">
        <ele>1742.6</ele>
        <time>2021-01-16T09:37:12Z</time>
      </trkpt>
      <trkpt lat="45.31454" lon="6.04954">
        <ele>1742.6</ele>
        <time>2021-01-16T09:37:13Z</time>
      </trkpt>
      <trkpt lat="45.31454" lon="6.04955">
        <ele>1742.4</ele>
        <time>2021-01-16T09:37:14Z</time>
      </trkpt>
      <trkpt lat="45.31455" lon="6.04956">
        <ele>1742.8</ele>
        <time>2021-01-16T09:37:15Z</time>
      </trkpt>
      <trkpt lat="45.31455" lon="6.04957">
        <ele>1742.8</ele>
        <time>2021-01-16T09:37:16Z</time>
      </trkpt>
      <trkpt lat="45.31455" lon="6.04957">
        <ele>1743.2</ele>
        <time>2021-01-16T09:37:17Z</time>
      </trkpt>
      <trkpt lat="45.31455" lon="6.04958">
        <ele>1743.2</ele>
        <time>2021-01-16T09:37:18Z</time>
      </trkpt>
      <trkpt lat="45.31456" lon="6.04959">
        <ele>1743.4</ele>
        <time>2021-01-16T09:37:19Z</time>
      </trkpt>
      <trkpt lat="45.31456" lon="6.0496">
        <ele>1743.4</ele>
        <time>2021-01-16T09:37:20Z</time>
      </trkpt>
      <trkpt lat="45.31456" lon="6.04961">
        <ele>1743.6</ele>
        <time>2021-01-16T09:37:21Z</time>
      </trkpt>
      <trkpt lat="45.31456" lon="6.04962">
        <ele>1743.8</ele>
        <time>2021-01-16T09:37:22Z</time>
      </trkpt>
      <trkpt lat="45.31456" lon="6.04963">
        <ele>1744</ele>
        <time>2021-01-16T09:37:23Z</time>
      </trkpt>
      <trkpt lat="45.31456" lon="6.04963">
        <ele>1744.2</ele>
        <time>2021-01-16T09:37:24Z</time>
      </trkpt>
      <trkpt lat="45.31456" lon="6.04964">
        <ele>1744.4</ele>
        <time>2021-01-16T09:37:25Z</time>
      </trkpt>
      <trkpt lat="45.31456" lon="6.04965">
        <ele>1744.6</ele>
        <time>2021-01-16T09:37:26Z</time>
      </trkpt>
      <trkpt lat="45.31456" lon="6.04966">
        <ele>1744.8</ele>
        <time>2021-01-16T09:37:27Z</time>
      </trkpt>
      <trkpt lat="45.31456" lon="6.04967">
        <ele>1744.8</ele>
        <time>2021-01-16T09:37:28Z</time>
      </trkpt>
      <trkpt lat="45.31456" lon="6.04968">
        <ele>1745</ele>
        <time>2021-01-16T09:37:29Z</time>
      </trkpt>
      <trkpt lat="45.31456" lon="6.04968">
        <ele>1745</ele>
        <time>2021-01-16T09:37:30Z</time>
      </trkpt>
      <trkpt lat="45.31456" lon="6.04969">
        <ele>1745.2</ele>
        <time>2021-01-16T09:37:31Z</time>
      </trkpt>
      <trkpt lat="45.31456" lon="6.0497">
        <ele>1745.4</ele>
        <time>2021-01-16T09:37:32Z</time>
      </trkpt>
      <trkpt lat="45.31456" lon="6.04971">
        <ele>1745.4</ele>
        <time>2021-01-16T09:37:33Z</time>
      </trkpt>
      <trkpt lat="45.31456" lon="6.04972">
        <ele>1745.8</ele>
        <time>2021-01-16T09:37:34Z</time>
      </trkpt>
      <trkpt lat="45.31456" lon="6.04973">
        <ele>1745.8</ele>
        <time>2021-01-16T09:37:35Z</time>
      </trkpt>
      <trkpt lat="45.31456" lon="6.04974">
        <ele>1746</ele>
        <time>2021-01-16T09:37:36Z</time>
      </trkpt>
      <trkpt lat="45.31456" lon="6.04975">
        <ele>1746</ele>
        <time>2021-01-16T09:37:37Z</time>
      </trkpt>
      <trkpt lat="45.31456" lon="6.04976">
        <ele>1746.2</ele>
        <time>2021-01-16T09:37:38Z</time>
      </trkpt>
      <trkpt lat="45.31456" lon="6.04976">
        <ele>1746.6</ele>
        <time>2021-01-16T09:37:39Z</time>
      </trkpt>
      <trkpt lat="45.31455" lon="6.04977">
        <ele>1746.6</ele>
        <time>2021-01-16T09:37:40Z</time>
      </trkpt>
      <trkpt lat="45.31455" lon="6.04977">
        <ele>1746.8</ele>
        <time>2021-01-16T09:37:41Z</time>
      </trkpt>
      <trkpt lat="45.31454" lon="6.04977">
        <ele>1746.8</ele>
        <time>2021-01-16T09:37:42Z</time>
      </trkpt>
      <trkpt lat="45.31454" lon="6.04977">
        <ele>1747</ele>
        <time>2021-01-16T09:37:43Z</time>
      </trkpt>
      <trkpt lat="45.31453" lon="6.04977">
        <ele>1747</ele>
        <time>2021-01-16T09:37:44Z</time>
      </trkpt>
      <trkpt lat="45.31452" lon="6.04977">
        <ele>1747.2</ele>
        <time>2021-01-16T09:37:45Z</time>
      </trkpt>
      <trkpt lat="45.31451" lon="6.04976">
        <ele>1747.4</ele>
        <time>2021-01-16T09:37:46Z</time>
      </trkpt>
      <trkpt lat="45.31451" lon="6.04976">
        <ele>1747.4</ele>
        <time>2021-01-16T09:37:47Z</time>
      </trkpt>
      <trkpt lat="45.3145" lon="6.04976">
        <ele>1747.6</ele>
        <time>2021-01-16T09:37:48Z</time>
      </trkpt>
      <trkpt lat="45.31449" lon="6.04976">
        <ele>1747.6</ele>
        <time>2021-01-16T09:37:49Z</time>
      </trkpt>
      <trkpt lat="45.31448" lon="6.04976">
        <ele>1747.6</ele>
        <time>2021-01-16T09:37:50Z</time>
      </trkpt>
      <trkpt lat="45.31448" lon="6.04975">
        <ele>1747.8</ele>
        <time>2021-01-16T09:37:51Z</time>
      </trkpt>
      <trkpt lat="45.31447" lon="6.04975">
        <ele>1747.8</ele>
        <time>2021-01-16T09:37:52Z</time>
      </trkpt>
      <trkpt lat="45.31446" lon="6.04975">
        <ele>1747.8</ele>
        <time>2021-01-16T09:37:53Z</time>
      </trkpt>
      <trkpt lat="45.31445" lon="6.04975">
        <ele>1747.8</ele>
        <time>2021-01-16T09:37:54Z</time>
      </trkpt>
      <trkpt lat="45.31444" lon="6.04975">
        <ele>1748</ele>
        <time>2021-01-16T09:37:55Z</time>
      </trkpt>
      <trkpt lat="45.31444" lon="6.04975">
        <ele>1748</ele>
        <time>2021-01-16T09:37:56Z</time>
      </trkpt>
      <trkpt lat="45.31443" lon="6.04976">
        <ele>1748</ele>
        <time>2021-01-16T09:37:57Z</time>
      </trkpt>
      <trkpt lat="45.31443" lon="6.04976">
        <ele>1748</ele>
        <time>2021-01-16T09:37:58Z</time>
      </trkpt>
      <trkpt lat="45.31442" lon="6.04976">
        <ele>1748.2</ele>
        <time>2021-01-16T09:37:59Z</time>
      </trkpt>
      <trkpt lat="45.31441" lon="6.04977">
        <ele>1748.2</ele>
        <time>2021-01-16T09:38:00Z</time>
      </trkpt>
      <trkpt lat="45.31441" lon="6.04977">
        <ele>1748.4</ele>
        <time>2021-01-16T09:38:01Z</time>
      </trkpt>
      <trkpt lat="45.3144" lon="6.04978">
        <ele>1748.4</ele>
        <time>2021-01-16T09:38:02Z</time>
      </trkpt>
      <trkpt lat="45.3144" lon="6.04978">
        <ele>1748.6</ele>
        <time>2021-01-16T09:38:03Z</time>
      </trkpt>
      <trkpt lat="45.31439" lon="6.04978">
        <ele>1748.6</ele>
        <time>2021-01-16T09:38:04Z</time>
      </trkpt>
      <trkpt lat="45.31439" lon="6.04979">
        <ele>1748.6</ele>
        <time>2021-01-16T09:38:05Z</time>
      </trkpt>
      <trkpt lat="45.31438" lon="6.0498">
        <ele>1749</ele>
        <time>2021-01-16T09:38:06Z</time>
      </trkpt>
      <trkpt lat="45.31437" lon="6.0498">
        <ele>1749</ele>
        <time>2021-01-16T09:38:07Z</time>
      </trkpt>
      <trkpt lat="45.31437" lon="6.04981">
        <ele>1749.2</ele>
        <time>2021-01-16T09:38:08Z</time>
      </trkpt>
      <trkpt lat="45.31436" lon="6.04982">
        <ele>1749.2</ele>
        <time>2021-01-16T09:38:09Z</time>
      </trkpt>
      <trkpt lat="45.31436" lon="6.04982">
        <ele>1749.4</ele>
        <time>2021-01-16T09:38:10Z</time>
      </trkpt>
      <trkpt lat="45.31435" lon="6.04983">
        <ele>1749.4</ele>
        <time>2021-01-16T09:38:11Z</time>
      </trkpt>
      <trkpt lat="45.31435" lon="6.04983">
        <ele>1749.6</ele>
        <time>2021-01-16T09:38:12Z</time>
      </trkpt>
      <trkpt lat="45.31434" lon="6.04984">
        <ele>1749.8</ele>
        <time>2021-01-16T09:38:13Z</time>
      </trkpt>
      <trkpt lat="45.31434" lon="6.04985">
        <ele>1749.8</ele>
        <time>2021-01-16T09:38:14Z</time>
      </trkpt>
      <trkpt lat="45.31433" lon="6.04986">
        <ele>1749.6</ele>
        <time>2021-01-16T09:38:15Z</time>
      </trkpt>
      <trkpt lat="45.31433" lon="6.04987">
        <ele>1750</ele>
        <time>2021-01-16T09:38:16Z</time>
      </trkpt>
      <trkpt lat="45.31432" lon="6.04988">
        <ele>1750</ele>
        <time>2021-01-16T09:38:17Z</time>
      </trkpt>
      <trkpt lat="45.31432" lon="6.04989">
        <ele>1750.2</ele>
        <time>2021-01-16T09:38:18Z</time>
      </trkpt>
      <trkpt lat="45.31432" lon="6.0499">
        <ele>1750.2</ele>
        <time>2021-01-16T09:38:19Z</time>
      </trkpt>
      <trkpt lat="45.31432" lon="6.04991">
        <ele>1750.2</ele>
        <time>2021-01-16T09:38:20Z</time>
      </trkpt>
      <trkpt lat="45.31431" lon="6.04991">
        <ele>1750.4</ele>
        <time>2021-01-16T09:38:21Z</time>
      </trkpt>
      <trkpt lat="45.31431" lon="6.04992">
        <ele>1750.6</ele>
        <time>2021-01-16T09:38:22Z</time>
      </trkpt>
      <trkpt lat="45.31431" lon="6.04993">
        <ele>1750.6</ele>
        <time>2021-01-16T09:38:23Z</time>
      </trkpt>
      <trkpt lat="45.31431" lon="6.04993">
        <ele>1750.8</ele>
        <time>2021-01-16T09:38:24Z</time>
      </trkpt>
      <trkpt lat="45.31431" lon="6.04994">
        <ele>1751</ele>
        <time>2021-01-16T09:38:25Z</time>
      </trkpt>
      <trkpt lat="45.31431" lon="6.04995">
        <ele>1751.2</ele>
        <time>2021-01-16T09:38:26Z</time>
      </trkpt>
      <trkpt lat="45.31431" lon="6.04996">
        <ele>1751</ele>
        <time>2021-01-16T09:38:27Z</time>
      </trkpt>
      <trkpt lat="45.31431" lon="6.04997">
        <ele>1751.4</ele>
        <time>2021-01-16T09:38:28Z</time>
      </trkpt>
      <trkpt lat="45.3143" lon="6.04998">
        <ele>1751.2</ele>
        <time>2021-01-16T09:38:29Z</time>
      </trkpt>
      <trkpt lat="45.3143" lon="6.04998">
        <ele>1751.4</ele>
        <time>2021-01-16T09:38:30Z</time>
      </trkpt>
      <trkpt lat="45.3143" lon="6.04999">
        <ele>1751.4</ele>
        <time>2021-01-16T09:38:31Z</time>
      </trkpt>
      <trkpt lat="45.3143" lon="6.05">
        <ele>1751.6</ele>
        <time>2021-01-16T09:38:32Z</time>
      </trkpt>
      <trkpt lat="45.3143" lon="6.05001">
        <ele>1751.6</ele>
        <time>2021-01-16T09:38:33Z</time>
      </trkpt>
      <trkpt lat="45.3143" lon="6.05002">
        <ele>1751.8</ele>
        <time>2021-01-16T09:38:34Z</time>
      </trkpt>
      <trkpt lat="45.3143" lon="6.05003">
        <ele>1751.8</ele>
        <time>2021-01-16T09:38:35Z</time>
      </trkpt>
      <trkpt lat="45.31431" lon="6.05003">
        <ele>1752</ele>
        <time>2021-01-16T09:38:36Z</time>
      </trkpt>
      <trkpt lat="45.31431" lon="6.05004">
        <ele>1752.2</ele>
        <time>2021-01-16T09:38:37Z</time>
      </trkpt>
      <trkpt lat="45.31431" lon="6.05005">
        <ele>1752.4</ele>
        <time>2021-01-16T09:38:38Z</time>
      </trkpt>
      <trkpt lat="45.31431" lon="6.05005">
        <ele>1752.2</ele>
        <time>2021-01-16T09:38:39Z</time>
      </trkpt>
      <trkpt lat="45.31431" lon="6.05006">
        <ele>1752.4</ele>
        <time>2021-01-16T09:38:40Z</time>
      </trkpt>
      <trkpt lat="45.31431" lon="6.05007">
        <ele>1752.4</ele>
        <time>2021-01-16T09:38:41Z</time>
      </trkpt>
      <trkpt lat="45.31431" lon="6.05008">
        <ele>1752.6</ele>
        <time>2021-01-16T09:38:42Z</time>
      </trkpt>
      <trkpt lat="45.31432" lon="6.05009">
        <ele>1752.6</ele>
        <time>2021-01-16T09:38:43Z</time>
      </trkpt>
      <trkpt lat="45.31432" lon="6.0501">
        <ele>1752.8</ele>
        <time>2021-01-16T09:38:44Z</time>
      </trkpt>
      <trkpt lat="45.31432" lon="6.0501">
        <ele>1752.8</ele>
        <time>2021-01-16T09:38:45Z</time>
      </trkpt>
      <trkpt lat="45.31432" lon="6.05011">
        <ele>1752.8</ele>
        <time>2021-01-16T09:38:46Z</time>
      </trkpt>
      <trkpt lat="45.31432" lon="6.05012">
        <ele>1753</ele>
        <time>2021-01-16T09:38:47Z</time>
      </trkpt>
      <trkpt lat="45.31433" lon="6.05013">
        <ele>1753</ele>
        <time>2021-01-16T09:38:48Z</time>
      </trkpt>
      <trkpt lat="45.31432" lon="6.05013">
        <ele>1753.2</ele>
        <time>2021-01-16T09:38:49Z</time>
      </trkpt>
      <trkpt lat="45.31433" lon="6.05013">
        <ele>1753.2</ele>
        <time>2021-01-16T09:38:50Z</time>
      </trkpt>
      <trkpt lat="45.31433" lon="6.05013">
        <ele>1753.6</ele>
        <time>2021-01-16T09:38:51Z</time>
      </trkpt>
      <trkpt lat="45.31433" lon="6.05014">
        <ele>1753.2</ele>
        <time>2021-01-16T09:38:52Z</time>
      </trkpt>
      <trkpt lat="45.31434" lon="6.05015">
        <ele>1753.6</ele>
        <time>2021-01-16T09:38:53Z</time>
      </trkpt>
      <trkpt lat="45.31434" lon="6.05015">
        <ele>1753.6</ele>
        <time>2021-01-16T09:38:54Z</time>
      </trkpt>
      <trkpt lat="45.31435" lon="6.05016">
        <ele>1754</ele>
        <time>2021-01-16T09:38:55Z</time>
      </trkpt>
      <trkpt lat="45.31435" lon="6.05016">
        <ele>1753.8</ele>
        <time>2021-01-16T09:38:56Z</time>
      </trkpt>
      <trkpt lat="45.31435" lon="6.05017">
        <ele>1754</ele>
        <time>2021-01-16T09:38:57Z</time>
      </trkpt>
      <trkpt lat="45.31436" lon="6.05017">
        <ele>1754.2</ele>
        <time>2021-01-16T09:38:58Z</time>
      </trkpt>
      <trkpt lat="45.31436" lon="6.05018">
        <ele>1754.4</ele>
        <time>2021-01-16T09:38:59Z</time>
      </trkpt>
      <trkpt lat="45.31436" lon="6.05018">
        <ele>1754.4</ele>
        <time>2021-01-16T09:39:00Z</time>
      </trkpt>
      <trkpt lat="45.31437" lon="6.05019">
        <ele>1754.6</ele>
        <time>2021-01-16T09:39:01Z</time>
      </trkpt>
      <trkpt lat="45.31438" lon="6.05019">
        <ele>1754.4</ele>
        <time>2021-01-16T09:39:02Z</time>
      </trkpt>
      <trkpt lat="45.31438" lon="6.0502">
        <ele>1754.6</ele>
        <time>2021-01-16T09:39:03Z</time>
      </trkpt>
      <trkpt lat="45.31438" lon="6.0502">
        <ele>1754.8</ele>
        <time>2021-01-16T09:39:04Z</time>
      </trkpt>
      <trkpt lat="45.31438" lon="6.0502">
        <ele>1754.6</ele>
        <time>2021-01-16T09:39:05Z</time>
      </trkpt>
      <trkpt lat="45.31438" lon="6.0502">
        <ele>1754.8</ele>
        <time>2021-01-16T09:39:06Z</time>
      </trkpt>
      <trkpt lat="45.31438" lon="6.0502">
        <ele>1754.8</ele>
        <time>2021-01-16T09:39:07Z</time>
      </trkpt>
      <trkpt lat="45.31438" lon="6.0502">
        <ele>1754.8</ele>
        <time>2021-01-16T09:39:08Z</time>
      </trkpt>
      <trkpt lat="45.31438" lon="6.0502">
        <ele>1755</ele>
        <time>2021-01-16T09:39:09Z</time>
      </trkpt>
      <trkpt lat="45.31438" lon="6.0502">
        <ele>1755</ele>
        <time>2021-01-16T09:39:10Z</time>
      </trkpt>
      <trkpt lat="45.31438" lon="6.0502">
        <ele>1755</ele>
        <time>2021-01-16T09:39:11Z</time>
      </trkpt>
      <trkpt lat="45.31438" lon="6.0502">
        <ele>1755</ele>
        <time>2021-01-16T09:39:12Z</time>
      </trkpt>
      <trkpt lat="45.31438" lon="6.0502">
        <ele>1755</ele>
        <time>2021-01-16T09:39:13Z</time>
      </trkpt>
      <trkpt lat="45.31438" lon="6.0502">
        <ele>1755</ele>
        <time>2021-01-16T09:39:14Z</time>
      </trkpt>
      <trkpt lat="45.31438" lon="6.0502">
        <ele>1754.8</ele>
        <time>2021-01-16T09:39:15Z</time>
      </trkpt>
      <trkpt lat="45.31438" lon="6.0502">
        <ele>1755</ele>
        <time>2021-01-16T09:39:16Z</time>
      </trkpt>
      <trkpt lat="45.31438" lon="6.0502">
        <ele>1755</ele>
        <time>2021-01-16T09:39:17Z</time>
      </trkpt>
      <trkpt lat="45.31438" lon="6.0502">
        <ele>1754.8</ele>
        <time>2021-01-16T09:39:18Z</time>
      </trkpt>
      <trkpt lat="45.31438" lon="6.0502">
        <ele>1755</ele>
        <time>2021-01-16T09:39:19Z</time>
      </trkpt>
      <trkpt lat="45.31438" lon="6.0502">
        <ele>1755</ele>
        <time>2021-01-16T09:39:20Z</time>
      </trkpt>
      <trkpt lat="45.31438" lon="6.0502">
        <ele>1755</ele>
        <time>2021-01-16T09:39:21Z</time>
      </trkpt>
      <trkpt lat="45.31438" lon="6.0502">
        <ele>1755</ele>
        <time>2021-01-16T09:39:22Z</time>
      </trkpt>
      <trkpt lat="45.31438" lon="6.0502">
        <ele>1755</ele>
        <time>2021-01-16T09:39:23Z</time>
      </trkpt>
      <trkpt lat="45.31438" lon="6.0502">
        <ele>1755</ele>
        <time>2021-01-16T09:39:24Z</time>
      </trkpt>
      <trkpt lat="45.31438" lon="6.0502">
        <ele>1755</ele>
        <time>2021-01-16T09:39:25Z</time>
      </trkpt>
      <trkpt lat="45.31438" lon="6.0502">
        <ele>1755</ele>
        <time>2021-01-16T09:39:26Z</time>
      </trkpt>
      <trkpt lat="45.31438" lon="6.0502">
        <ele>1755</ele>
        <time>2021-01-16T09:39:27Z</time>
      </trkpt>
      <trkpt lat="45.31438" lon="6.0502">
        <ele>1755</ele>
        <time>2021-01-16T09:39:28Z</time>
      </trkpt>
      <trkpt lat="45.31438" lon="6.0502">
        <ele>1755</ele>
        <time>2021-01-16T09:39:29Z</time>
      </trkpt>
      <trkpt lat="45.31438" lon="6.0502">
        <ele>1755</ele>
        <time>2021-01-16T09:39:30Z</time>
      </trkpt>
      <trkpt lat="45.31438" lon="6.0502">
        <ele>1755</ele>
        <time>2021-01-16T09:39:31Z</time>
      </trkpt>
      <trkpt lat="45.31438" lon="6.0502">
        <ele>1755</ele>
        <time>2021-01-16T09:39:32Z</time>
      </trkpt>
      <trkpt lat="45.31438" lon="6.0502">
        <ele>1755</ele>
        <time>2021-01-16T09:39:33Z</time>
      </trkpt>
      <trkpt lat="45.31438" lon="6.0502">
        <ele>1755</ele>
        <time>2021-01-16T09:39:34Z</time>
      </trkpt>
      <trkpt lat="45.31438" lon="6.0502">
        <ele>1755</ele>
        <time>2021-01-16T09:39:35Z</time>
      </trkpt>
      <trkpt lat="45.31438" lon="6.0502">
        <ele>1755</ele>
        <time>2021-01-16T09:39:36Z</time>
      </trkpt>
      <trkpt lat="45.31438" lon="6.0502">
        <ele>1755</ele>
        <time>2021-01-16T09:39:37Z</time>
      </trkpt>
      <trkpt lat="45.31438" lon="6.0502">
        <ele>1755</ele>
        <time>2021-01-16T09:39:38Z</time>
      </trkpt>
      <trkpt lat="45.31438" lon="6.0502">
        <ele>1755</ele>
        <time>2021-01-16T09:39:39Z</time>
      </trkpt>
      <trkpt lat="45.31438" lon="6.0502">
        <ele>1755</ele>
        <time>2021-01-16T09:39:40Z</time>
      </trkpt>
      <trkpt lat="45.31438" lon="6.0502">
        <ele>1755</ele>
        <time>2021-01-16T09:39:41Z</time>
      </trkpt>
      <trkpt lat="45.31438" lon="6.0502">
        <ele>1755.2</ele>
        <time>2021-01-16T09:39:42Z</time>
      </trkpt>
      <trkpt lat="45.31438" lon="6.0502">
        <ele>1755</ele>
        <time>2021-01-16T09:39:43Z</time>
      </trkpt>
      <trkpt lat="45.31438" lon="6.0502">
        <ele>1755.2</ele>
        <time>2021-01-16T09:39:44Z</time>
      </trkpt>
      <trkpt lat="45.31438" lon="6.0502">
        <ele>1755.2</ele>
        <time>2021-01-16T09:39:45Z</time>
      </trkpt>
      <trkpt lat="45.31436" lon="6.05022">
        <ele>1755.2</ele>
        <time>2021-01-16T09:39:46Z</time>
      </trkpt>
      <trkpt lat="45.31435" lon="6.05022">
        <ele>1755.4</ele>
        <time>2021-01-16T09:39:47Z</time>
      </trkpt>
      <trkpt lat="45.31435" lon="6.05022">
        <ele>1755.4</ele>
        <time>2021-01-16T09:39:48Z</time>
      </trkpt>
      <trkpt lat="45.31434" lon="6.05022">
        <ele>1755.6</ele>
        <time>2021-01-16T09:39:49Z</time>
      </trkpt>
      <trkpt lat="45.31434" lon="6.05022">
        <ele>1755.4</ele>
        <time>2021-01-16T09:39:50Z</time>
      </trkpt>
      <trkpt lat="45.31434" lon="6.05022">
        <ele>1755.8</ele>
        <time>2021-01-16T09:39:51Z</time>
      </trkpt>
      <trkpt lat="45.31433" lon="6.05022">
        <ele>1755.6</ele>
        <time>2021-01-16T09:39:52Z</time>
      </trkpt>
      <trkpt lat="45.31433" lon="6.05022">
        <ele>1755.8</ele>
        <time>2021-01-16T09:39:53Z</time>
      </trkpt>
      <trkpt lat="45.31433" lon="6.05022">
        <ele>1756</ele>
        <time>2021-01-16T09:39:54Z</time>
      </trkpt>
      <trkpt lat="45.31433" lon="6.05022">
        <ele>1756</ele>
        <time>2021-01-16T09:39:55Z</time>
      </trkpt>
      <trkpt lat="45.31432" lon="6.05022">
        <ele>1756</ele>
        <time>2021-01-16T09:39:56Z</time>
      </trkpt>
      <trkpt lat="45.31432" lon="6.05021">
        <ele>1756.2</ele>
        <time>2021-01-16T09:39:57Z</time>
      </trkpt>
      <trkpt lat="45.31432" lon="6.05021">
        <ele>1756.2</ele>
        <time>2021-01-16T09:39:58Z</time>
      </trkpt>
      <trkpt lat="45.31431" lon="6.05021">
        <ele>1756.4</ele>
        <time>2021-01-16T09:39:59Z</time>
      </trkpt>
      <trkpt lat="45.31431" lon="6.05021">
        <ele>1756.4</ele>
        <time>2021-01-16T09:40:00Z</time>
      </trkpt>
      <trkpt lat="45.3143" lon="6.0502">
        <ele>1756.6</ele>
        <time>2021-01-16T09:40:01Z</time>
      </trkpt>
      <trkpt lat="45.3143" lon="6.0502">
        <ele>1756.8</ele>
        <time>2021-01-16T09:40:02Z</time>
      </trkpt>
      <trkpt lat="45.31429" lon="6.0502">
        <ele>1757</ele>
        <time>2021-01-16T09:40:03Z</time>
      </trkpt>
      <trkpt lat="45.31428" lon="6.0502">
        <ele>1757</ele>
        <time>2021-01-16T09:40:04Z</time>
      </trkpt>
      <trkpt lat="45.31428" lon="6.0502">
        <ele>1757</ele>
        <time>2021-01-16T09:40:05Z</time>
      </trkpt>
      <trkpt lat="45.31427" lon="6.05019">
        <ele>1757.2</ele>
        <time>2021-01-16T09:40:06Z</time>
      </trkpt>
      <trkpt lat="45.31427" lon="6.05019">
        <ele>1757.4</ele>
        <time>2021-01-16T09:40:07Z</time>
      </trkpt>
      <trkpt lat="45.31426" lon="6.05018">
        <ele>1757.4</ele>
        <time>2021-01-16T09:40:08Z</time>
      </trkpt>
      <trkpt lat="45.31426" lon="6.05018">
        <ele>1757.6</ele>
        <time>2021-01-16T09:40:09Z</time>
      </trkpt>
      <trkpt lat="45.31426" lon="6.05018">
        <ele>1757.6</ele>
        <time>2021-01-16T09:40:10Z</time>
      </trkpt>
      <trkpt lat="45.31425" lon="6.05017">
        <ele>1757.8</ele>
        <time>2021-01-16T09:40:11Z</time>
      </trkpt>
      <trkpt lat="45.31425" lon="6.05017">
        <ele>1757.8</ele>
        <time>2021-01-16T09:40:12Z</time>
      </trkpt>
      <trkpt lat="45.31425" lon="6.05016">
        <ele>1758</ele>
        <time>2021-01-16T09:40:13Z</time>
      </trkpt>
      <trkpt lat="45.31424" lon="6.05016">
        <ele>1758</ele>
        <time>2021-01-16T09:40:14Z</time>
      </trkpt>
      <trkpt lat="45.31424" lon="6.05015">
        <ele>1758.2</ele>
        <time>2021-01-16T09:40:15Z</time>
      </trkpt>
      <trkpt lat="45.31423" lon="6.05015">
        <ele>1758.4</ele>
        <time>2021-01-16T09:40:16Z</time>
      </trkpt>
      <trkpt lat="45.31423" lon="6.05015">
        <ele>1758.6</ele>
        <time>2021-01-16T09:40:17Z</time>
      </trkpt>
      <trkpt lat="45.31422" lon="6.05014">
        <ele>1758.6</ele>
        <time>2021-01-16T09:40:18Z</time>
      </trkpt>
      <trkpt lat="45.31422" lon="6.05014">
        <ele>1758.8</ele>
        <time>2021-01-16T09:40:19Z</time>
      </trkpt>
      <trkpt lat="45.31422" lon="6.05013">
        <ele>1758.8</ele>
        <time>2021-01-16T09:40:20Z</time>
      </trkpt>
      <trkpt lat="45.31422" lon="6.05013">
        <ele>1759</ele>
        <time>2021-01-16T09:40:21Z</time>
      </trkpt>
      <trkpt lat="45.31422" lon="6.05013">
        <ele>1759.2</ele>
        <time>2021-01-16T09:40:22Z</time>
      </trkpt>
      <trkpt lat="45.31422" lon="6.05013">
        <ele>1759.2</ele>
        <time>2021-01-16T09:40:23Z</time>
      </trkpt>
      <trkpt lat="45.31422" lon="6.05013">
        <ele>1759.4</ele>
        <time>2021-01-16T09:40:24Z</time>
      </trkpt>
      <trkpt lat="45.31422" lon="6.05013">
        <ele>1759.4</ele>
        <time>2021-01-16T09:40:25Z</time>
      </trkpt>
      <trkpt lat="45.31422" lon="6.05013">
        <ele>1759.4</ele>
        <time>2021-01-16T09:40:26Z</time>
      </trkpt>
      <trkpt lat="45.31421" lon="6.05013">
        <ele>1759.2</ele>
        <time>2021-01-16T09:40:27Z</time>
      </trkpt>
      <trkpt lat="45.31421" lon="6.05014">
        <ele>1759.6</ele>
        <time>2021-01-16T09:40:28Z</time>
      </trkpt>
      <trkpt lat="45.31421" lon="6.05014">
        <ele>1759.6</ele>
        <time>2021-01-16T09:40:29Z</time>
      </trkpt>
      <trkpt lat="45.31421" lon="6.05015">
        <ele>1759.8</ele>
        <time>2021-01-16T09:40:30Z</time>
      </trkpt>
      <trkpt lat="45.31421" lon="6.05015">
        <ele>1759.8</ele>
        <time>2021-01-16T09:40:31Z</time>
      </trkpt>
      <trkpt lat="45.31421" lon="6.05016">
        <ele>1759.8</ele>
        <time>2021-01-16T09:40:32Z</time>
      </trkpt>
      <trkpt lat="45.31422" lon="6.05017">
        <ele>1759.8</ele>
        <time>2021-01-16T09:40:33Z</time>
      </trkpt>
      <trkpt lat="45.31422" lon="6.05018">
        <ele>1760</ele>
        <time>2021-01-16T09:40:34Z</time>
      </trkpt>
      <trkpt lat="45.31422" lon="6.05018">
        <ele>1760</ele>
        <time>2021-01-16T09:40:35Z</time>
      </trkpt>
      <trkpt lat="45.31422" lon="6.05019">
        <ele>1760</ele>
        <time>2021-01-16T09:40:36Z</time>
      </trkpt>
      <trkpt lat="45.31423" lon="6.0502">
        <ele>1760.2</ele>
        <time>2021-01-16T09:40:37Z</time>
      </trkpt>
      <trkpt lat="45.31423" lon="6.05021">
        <ele>1760.2</ele>
        <time>2021-01-16T09:40:38Z</time>
      </trkpt>
      <trkpt lat="45.31423" lon="6.05021">
        <ele>1760.2</ele>
        <time>2021-01-16T09:40:39Z</time>
      </trkpt>
      <trkpt lat="45.31423" lon="6.05022">
        <ele>1760.4</ele>
        <time>2021-01-16T09:40:40Z</time>
      </trkpt>
      <trkpt lat="45.31423" lon="6.05023">
        <ele>1760.4</ele>
        <time>2021-01-16T09:40:41Z</time>
      </trkpt>
      <trkpt lat="45.31424" lon="6.05023">
        <ele>1760.2</ele>
        <time>2021-01-16T09:40:42Z</time>
      </trkpt>
      <trkpt lat="45.31424" lon="6.05024">
        <ele>1760.4</ele>
        <time>2021-01-16T09:40:43Z</time>
      </trkpt>
      <trkpt lat="45.31424" lon="6.05025">
        <ele>1760.4</ele>
        <time>2021-01-16T09:40:44Z</time>
      </trkpt>
      <trkpt lat="45.31424" lon="6.05025">
        <ele>1760.6</ele>
        <time>2021-01-16T09:40:45Z</time>
      </trkpt>
      <trkpt lat="45.31424" lon="6.05025">
        <ele>1760.6</ele>
        <time>2021-01-16T09:40:46Z</time>
      </trkpt>
      <trkpt lat="45.31424" lon="6.05026">
        <ele>1760.6</ele>
        <time>2021-01-16T09:40:47Z</time>
      </trkpt>
      <trkpt lat="45.31424" lon="6.05027">
        <ele>1760.6</ele>
        <time>2021-01-16T09:40:48Z</time>
      </trkpt>
      <trkpt lat="45.31424" lon="6.05028">
        <ele>1760.8</ele>
        <time>2021-01-16T09:40:49Z</time>
      </trkpt>
      <trkpt lat="45.31424" lon="6.05029">
        <ele>1760.8</ele>
        <time>2021-01-16T09:40:50Z</time>
      </trkpt>
      <trkpt lat="45.31424" lon="6.0503">
        <ele>1761</ele>
        <time>2021-01-16T09:40:51Z</time>
      </trkpt>
      <trkpt lat="45.31424" lon="6.05031">
        <ele>1761.2</ele>
        <time>2021-01-16T09:40:52Z</time>
      </trkpt>
      <trkpt lat="45.31425" lon="6.05032">
        <ele>1761.2</ele>
        <time>2021-01-16T09:40:53Z</time>
      </trkpt>
      <trkpt lat="45.31425" lon="6.05032">
        <ele>1761.4</ele>
        <time>2021-01-16T09:40:54Z</time>
      </trkpt>
      <trkpt lat="45.31425" lon="6.05033">
        <ele>1761.4</ele>
        <time>2021-01-16T09:40:55Z</time>
      </trkpt>
      <trkpt lat="45.31425" lon="6.05034">
        <ele>1761.6</ele>
        <time>2021-01-16T09:40:56Z</time>
      </trkpt>
      <trkpt lat="45.31425" lon="6.05034">
        <ele>1761.6</ele>
        <time>2021-01-16T09:40:57Z</time>
      </trkpt>
      <trkpt lat="45.31425" lon="6.05035">
        <ele>1761.8</ele>
        <time>2021-01-16T09:40:58Z</time>
      </trkpt>
      <trkpt lat="45.31425" lon="6.05034">
        <ele>1761.8</ele>
        <time>2021-01-16T09:40:59Z</time>
      </trkpt>
      <trkpt lat="45.31425" lon="6.05034">
        <ele>1761.8</ele>
        <time>2021-01-16T09:41:00Z</time>
      </trkpt>
      <trkpt lat="45.31425" lon="6.05034">
        <ele>1761.8</ele>
        <time>2021-01-16T09:41:01Z</time>
      </trkpt>
      <trkpt lat="45.31425" lon="6.05034">
        <ele>1761.8</ele>
        <time>2021-01-16T09:41:02Z</time>
      </trkpt>
      <trkpt lat="45.31425" lon="6.05034">
        <ele>1762</ele>
        <time>2021-01-16T09:41:03Z</time>
      </trkpt>
      <trkpt lat="45.31425" lon="6.05034">
        <ele>1762</ele>
        <time>2021-01-16T09:41:04Z</time>
      </trkpt>
      <trkpt lat="45.31425" lon="6.05034">
        <ele>1762</ele>
        <time>2021-01-16T09:41:05Z</time>
      </trkpt>
      <trkpt lat="45.31425" lon="6.05034">
        <ele>1762</ele>
        <time>2021-01-16T09:41:06Z</time>
      </trkpt>
      <trkpt lat="45.31424" lon="6.05034">
        <ele>1762</ele>
        <time>2021-01-16T09:41:07Z</time>
      </trkpt>
      <trkpt lat="45.31424" lon="6.05033">
        <ele>1762.2</ele>
        <time>2021-01-16T09:41:08Z</time>
      </trkpt>
      <trkpt lat="45.31423" lon="6.05033">
        <ele>1762.4</ele>
        <time>2021-01-16T09:41:09Z</time>
      </trkpt>
      <trkpt lat="45.31423" lon="6.05032">
        <ele>1762.4</ele>
        <time>2021-01-16T09:41:10Z</time>
      </trkpt>
      <trkpt lat="45.31423" lon="6.05032">
        <ele>1762.6</ele>
        <time>2021-01-16T09:41:11Z</time>
      </trkpt>
      <trkpt lat="45.31423" lon="6.05032">
        <ele>1762.6</ele>
        <time>2021-01-16T09:41:12Z</time>
      </trkpt>
      <trkpt lat="45.31423" lon="6.05032">
        <ele>1762.6</ele>
        <time>2021-01-16T09:41:13Z</time>
      </trkpt>
      <trkpt lat="45.31423" lon="6.05032">
        <ele>1762.8</ele>
        <time>2021-01-16T09:41:14Z</time>
      </trkpt>
      <trkpt lat="45.31423" lon="6.05032">
        <ele>1762.8</ele>
        <time>2021-01-16T09:41:15Z</time>
      </trkpt>
      <trkpt lat="45.31421" lon="6.05032">
        <ele>1763</ele>
        <time>2021-01-16T09:41:16Z</time>
      </trkpt>
      <trkpt lat="45.3142" lon="6.05031">
        <ele>1763</ele>
        <time>2021-01-16T09:41:17Z</time>
      </trkpt>
      <trkpt lat="45.3142" lon="6.05031">
        <ele>1763.4</ele>
        <time>2021-01-16T09:41:18Z</time>
      </trkpt>
      <trkpt lat="45.3142" lon="6.0503">
        <ele>1763.4</ele>
        <time>2021-01-16T09:41:19Z</time>
      </trkpt>
      <trkpt lat="45.31419" lon="6.0503">
        <ele>1763.6</ele>
        <time>2021-01-16T09:41:20Z</time>
      </trkpt>
      <trkpt lat="45.31419" lon="6.0503">
        <ele>1763.8</ele>
        <time>2021-01-16T09:41:21Z</time>
      </trkpt>
      <trkpt lat="45.31418" lon="6.0503">
        <ele>1763.8</ele>
        <time>2021-01-16T09:41:22Z</time>
      </trkpt>
      <trkpt lat="45.31418" lon="6.05029">
        <ele>1764</ele>
        <time>2021-01-16T09:41:23Z</time>
      </trkpt>
      <trkpt lat="45.31417" lon="6.05029">
        <ele>1764.2</ele>
        <time>2021-01-16T09:41:24Z</time>
      </trkpt>
      <trkpt lat="45.31417" lon="6.05029">
        <ele>1764.2</ele>
        <time>2021-01-16T09:41:25Z</time>
      </trkpt>
      <trkpt lat="45.31416" lon="6.05028">
        <ele>1764.4</ele>
        <time>2021-01-16T09:41:26Z</time>
      </trkpt>
      <trkpt lat="45.31416" lon="6.05028">
        <ele>1764.6</ele>
        <time>2021-01-16T09:41:27Z</time>
      </trkpt>
      <trkpt lat="45.31415" lon="6.05028">
        <ele>1764.8</ele>
        <time>2021-01-16T09:41:28Z</time>
      </trkpt>
      <trkpt lat="45.31414" lon="6.05027">
        <ele>1765</ele>
        <time>2021-01-16T09:41:29Z</time>
      </trkpt>
      <trkpt lat="45.31414" lon="6.05027">
        <ele>1765.2</ele>
        <time>2021-01-16T09:41:30Z</time>
      </trkpt>
      <trkpt lat="45.31413" lon="6.05027">
        <ele>1765.4</ele>
        <time>2021-01-16T09:41:31Z</time>
      </trkpt>
      <trkpt lat="45.31412" lon="6.05026">
        <ele>1765.6</ele>
        <time>2021-01-16T09:41:32Z</time>
      </trkpt>
      <trkpt lat="45.31411" lon="6.05026">
        <ele>1765.8</ele>
        <time>2021-01-16T09:41:33Z</time>
      </trkpt>
      <trkpt lat="45.31411" lon="6.05026">
        <ele>1766</ele>
        <time>2021-01-16T09:41:34Z</time>
      </trkpt>
      <trkpt lat="45.3141" lon="6.05026">
        <ele>1766.2</ele>
        <time>2021-01-16T09:41:35Z</time>
      </trkpt>
      <trkpt lat="45.31409" lon="6.05026">
        <ele>1766.4</ele>
        <time>2021-01-16T09:41:36Z</time>
      </trkpt>
      <trkpt lat="45.31409" lon="6.05025">
        <ele>1766.4</ele>
        <time>2021-01-16T09:41:37Z</time>
      </trkpt>
      <trkpt lat="45.31409" lon="6.05025">
        <ele>1766.6</ele>
        <time>2021-01-16T09:41:38Z</time>
      </trkpt>
      <trkpt lat="45.31408" lon="6.05024">
        <ele>1766.6</ele>
        <time>2021-01-16T09:41:39Z</time>
      </trkpt>
      <trkpt lat="45.31408" lon="6.05024">
        <ele>1766.8</ele>
        <time>2021-01-16T09:41:40Z</time>
      </trkpt>
      <trkpt lat="45.31408" lon="6.05024">
        <ele>1766.8</ele>
        <time>2021-01-16T09:41:41Z</time>
      </trkpt>
      <trkpt lat="45.31407" lon="6.05023">
        <ele>1767</ele>
        <time>2021-01-16T09:41:42Z</time>
      </trkpt>
      <trkpt lat="45.31407" lon="6.05023">
        <ele>1767</ele>
        <time>2021-01-16T09:41:43Z</time>
      </trkpt>
      <trkpt lat="45.31407" lon="6.05023">
        <ele>1767.4</ele>
        <time>2021-01-16T09:41:44Z</time>
      </trkpt>
      <trkpt lat="45.31406" lon="6.05022">
        <ele>1767.6</ele>
        <time>2021-01-16T09:41:45Z</time>
      </trkpt>
      <trkpt lat="45.31406" lon="6.05022">
        <ele>1767.6</ele>
        <time>2021-01-16T09:41:46Z</time>
      </trkpt>
      <trkpt lat="45.31405" lon="6.05021">
        <ele>1767.8</ele>
        <time>2021-01-16T09:41:47Z</time>
      </trkpt>
      <trkpt lat="45.31405" lon="6.05021">
        <ele>1767.8</ele>
        <time>2021-01-16T09:41:48Z</time>
      </trkpt>
      <trkpt lat="45.31405" lon="6.05021">
        <ele>1768</ele>
        <time>2021-01-16T09:41:49Z</time>
      </trkpt>
      <trkpt lat="45.31405" lon="6.05021">
        <ele>1768.2</ele>
        <time>2021-01-16T09:41:50Z</time>
      </trkpt>
      <trkpt lat="45.31405" lon="6.05021">
        <ele>1768.2</ele>
        <time>2021-01-16T09:41:51Z</time>
      </trkpt>
      <trkpt lat="45.31405" lon="6.05021">
        <ele>1768.4</ele>
        <time>2021-01-16T09:41:52Z</time>
      </trkpt>
      <trkpt lat="45.31405" lon="6.05021">
        <ele>1768.4</ele>
        <time>2021-01-16T09:41:53Z</time>
      </trkpt>
      <trkpt lat="45.31405" lon="6.05021">
        <ele>1768.6</ele>
        <time>2021-01-16T09:41:54Z</time>
      </trkpt>
      <trkpt lat="45.31405" lon="6.05021">
        <ele>1768.6</ele>
        <time>2021-01-16T09:41:55Z</time>
      </trkpt>
      <trkpt lat="45.31405" lon="6.05021">
        <ele>1768.6</ele>
        <time>2021-01-16T09:41:56Z</time>
      </trkpt>
      <trkpt lat="45.31405" lon="6.05021">
        <ele>1768.8</ele>
        <time>2021-01-16T09:41:57Z</time>
      </trkpt>
      <trkpt lat="45.31405" lon="6.05021">
        <ele>1769</ele>
        <time>2021-01-16T09:41:58Z</time>
      </trkpt>
      <trkpt lat="45.31405" lon="6.05021">
        <ele>1769</ele>
        <time>2021-01-16T09:41:59Z</time>
      </trkpt>
      <trkpt lat="45.31404" lon="6.0502">
        <ele>1769.2</ele>
        <time>2021-01-16T09:42:00Z</time>
      </trkpt>
      <trkpt lat="45.31401" lon="6.05017">
        <ele>1769.2</ele>
        <time>2021-01-16T09:42:01Z</time>
      </trkpt>
      <trkpt lat="45.31401" lon="6.05017">
        <ele>1769.4</ele>
        <time>2021-01-16T09:42:02Z</time>
      </trkpt>
      <trkpt lat="45.314" lon="6.05017">
        <ele>1769.4</ele>
        <time>2021-01-16T09:42:03Z</time>
      </trkpt>
      <trkpt lat="45.31399" lon="6.05016">
        <ele>1769.6</ele>
        <time>2021-01-16T09:42:04Z</time>
      </trkpt>
      <trkpt lat="45.31399" lon="6.05016">
        <ele>1769.6</ele>
        <time>2021-01-16T09:42:05Z</time>
      </trkpt>
      <trkpt lat="45.31398" lon="6.05016">
        <ele>1769.8</ele>
        <time>2021-01-16T09:42:06Z</time>
      </trkpt>
      <trkpt lat="45.31398" lon="6.05016">
        <ele>1769.8</ele>
        <time>2021-01-16T09:42:07Z</time>
      </trkpt>
      <trkpt lat="45.31398" lon="6.05016">
        <ele>1769.8</ele>
        <time>2021-01-16T09:42:08Z</time>
      </trkpt>
      <trkpt lat="45.31397" lon="6.05016">
        <ele>1769.8</ele>
        <time>2021-01-16T09:42:09Z</time>
      </trkpt>
      <trkpt lat="45.31396" lon="6.05015">
        <ele>1770</ele>
        <time>2021-01-16T09:42:10Z</time>
      </trkpt>
      <trkpt lat="45.31396" lon="6.05015">
        <ele>1770.2</ele>
        <time>2021-01-16T09:42:11Z</time>
      </trkpt>
      <trkpt lat="45.31396" lon="6.05014">
        <ele>1770.2</ele>
        <time>2021-01-16T09:42:12Z</time>
      </trkpt>
      <trkpt lat="45.31395" lon="6.05014">
        <ele>1770.4</ele>
        <time>2021-01-16T09:42:13Z</time>
      </trkpt>
      <trkpt lat="45.31395" lon="6.05013">
        <ele>1770.4</ele>
        <time>2021-01-16T09:42:14Z</time>
      </trkpt>
      <trkpt lat="45.31394" lon="6.05012">
        <ele>1770.4</ele>
        <time>2021-01-16T09:42:15Z</time>
      </trkpt>
      <trkpt lat="45.31394" lon="6.05012">
        <ele>1770.6</ele>
        <time>2021-01-16T09:42:16Z</time>
      </trkpt>
      <trkpt lat="45.31393" lon="6.05011">
        <ele>1770.6</ele>
        <time>2021-01-16T09:42:17Z</time>
      </trkpt>
      <trkpt lat="45.31393" lon="6.0501">
        <ele>1770.8</ele>
        <time>2021-01-16T09:42:18Z</time>
      </trkpt>
      <trkpt lat="45.31393" lon="6.0501">
        <ele>1770.8</ele>
        <time>2021-01-16T09:42:19Z</time>
      </trkpt>
      <trkpt lat="45.31392" lon="6.05009">
        <ele>1771</ele>
        <time>2021-01-16T09:42:20Z</time>
      </trkpt>
      <trkpt lat="45.31392" lon="6.05009">
        <ele>1771</ele>
        <time>2021-01-16T09:42:21Z</time>
      </trkpt>
      <trkpt lat="45.31391" lon="6.05008">
        <ele>1771.2</ele>
        <time>2021-01-16T09:42:22Z</time>
      </trkpt>
      <trkpt lat="45.31391" lon="6.05008">
        <ele>1771.4</ele>
        <time>2021-01-16T09:42:23Z</time>
      </trkpt>
      <trkpt lat="45.3139" lon="6.05007">
        <ele>1771.6</ele>
        <time>2021-01-16T09:42:24Z</time>
      </trkpt>
      <trkpt lat="45.3139" lon="6.05007">
        <ele>1771.6</ele>
        <time>2021-01-16T09:42:25Z</time>
      </trkpt>
      <trkpt lat="45.31389" lon="6.05006">
        <ele>1771.8</ele>
        <time>2021-01-16T09:42:26Z</time>
      </trkpt>
      <trkpt lat="45.31388" lon="6.05006">
        <ele>1772</ele>
        <time>2021-01-16T09:42:27Z</time>
      </trkpt>
      <trkpt lat="45.31388" lon="6.05006">
        <ele>1772</ele>
        <time>2021-01-16T09:42:28Z</time>
      </trkpt>
      <trkpt lat="45.31388" lon="6.05005">
        <ele>1772.2</ele>
        <time>2021-01-16T09:42:29Z</time>
      </trkpt>
      <trkpt lat="45.31387" lon="6.05005">
        <ele>1772.2</ele>
        <time>2021-01-16T09:42:30Z</time>
      </trkpt>
      <trkpt lat="45.31387" lon="6.05005">
        <ele>1772.4</ele>
        <time>2021-01-16T09:42:31Z</time>
      </trkpt>
      <trkpt lat="45.31387" lon="6.05004">
        <ele>1772.4</ele>
        <time>2021-01-16T09:42:32Z</time>
      </trkpt>
      <trkpt lat="45.31386" lon="6.05003">
        <ele>1772.4</ele>
        <time>2021-01-16T09:42:33Z</time>
      </trkpt>
      <trkpt lat="45.31386" lon="6.05003">
        <ele>1772.6</ele>
        <time>2021-01-16T09:42:34Z</time>
      </trkpt>
      <trkpt lat="45.31385" lon="6.05002">
        <ele>1772.6</ele>
        <time>2021-01-16T09:42:35Z</time>
      </trkpt>
      <trkpt lat="45.31385" lon="6.05002">
        <ele>1772.6</ele>
        <time>2021-01-16T09:42:36Z</time>
      </trkpt>
      <trkpt lat="45.31384" lon="6.05002">
        <ele>1772.6</ele>
        <time>2021-01-16T09:42:37Z</time>
      </trkpt>
      <trkpt lat="45.31384" lon="6.05001">
        <ele>1772.8</ele>
        <time>2021-01-16T09:42:38Z</time>
      </trkpt>
      <trkpt lat="45.31384" lon="6.05001">
        <ele>1772.8</ele>
        <time>2021-01-16T09:42:39Z</time>
      </trkpt>
      <trkpt lat="45.31384" lon="6.05002">
        <ele>1772.8</ele>
        <time>2021-01-16T09:42:40Z</time>
      </trkpt>
      <trkpt lat="45.31384" lon="6.05002">
        <ele>1773</ele>
        <time>2021-01-16T09:42:41Z</time>
      </trkpt>
      <trkpt lat="45.31384" lon="6.05002">
        <ele>1772.8</ele>
        <time>2021-01-16T09:42:42Z</time>
      </trkpt>
      <trkpt lat="45.31384" lon="6.05002">
        <ele>1773</ele>
        <time>2021-01-16T09:42:43Z</time>
      </trkpt>
      <trkpt lat="45.31384" lon="6.05002">
        <ele>1773.2</ele>
        <time>2021-01-16T09:42:44Z</time>
      </trkpt>
      <trkpt lat="45.31384" lon="6.05004">
        <ele>1773.4</ele>
        <time>2021-01-16T09:42:45Z</time>
      </trkpt>
      <trkpt lat="45.31384" lon="6.05005">
        <ele>1773.4</ele>
        <time>2021-01-16T09:42:46Z</time>
      </trkpt>
      <trkpt lat="45.31384" lon="6.05006">
        <ele>1773.6</ele>
        <time>2021-01-16T09:42:47Z</time>
      </trkpt>
      <trkpt lat="45.31384" lon="6.05007">
        <ele>1773.6</ele>
        <time>2021-01-16T09:42:48Z</time>
      </trkpt>
      <trkpt lat="45.31384" lon="6.05008">
        <ele>1773.6</ele>
        <time>2021-01-16T09:42:49Z</time>
      </trkpt>
      <trkpt lat="45.31384" lon="6.05008">
        <ele>1773.8</ele>
        <time>2021-01-16T09:42:50Z</time>
      </trkpt>
      <trkpt lat="45.31384" lon="6.05009">
        <ele>1774</ele>
        <time>2021-01-16T09:42:51Z</time>
      </trkpt>
      <trkpt lat="45.31384" lon="6.0501">
        <ele>1774.2</ele>
        <time>2021-01-16T09:42:52Z</time>
      </trkpt>
      <trkpt lat="45.31384" lon="6.05011">
        <ele>1774.4</ele>
        <time>2021-01-16T09:42:53Z</time>
      </trkpt>
      <trkpt lat="45.31384" lon="6.05011">
        <ele>1774.4</ele>
        <time>2021-01-16T09:42:54Z</time>
      </trkpt>
      <trkpt lat="45.31383" lon="6.05012">
        <ele>1774.6</ele>
        <time>2021-01-16T09:42:55Z</time>
      </trkpt>
      <trkpt lat="45.31383" lon="6.05013">
        <ele>1774.6</ele>
        <time>2021-01-16T09:42:56Z</time>
      </trkpt>
      <trkpt lat="45.31383" lon="6.05013">
        <ele>1774.8</ele>
        <time>2021-01-16T09:42:57Z</time>
      </trkpt>
      <trkpt lat="45.31383" lon="6.05014">
        <ele>1774.8</ele>
        <time>2021-01-16T09:42:58Z</time>
      </trkpt>
      <trkpt lat="45.31383" lon="6.05015">
        <ele>1775</ele>
        <time>2021-01-16T09:42:59Z</time>
      </trkpt>
      <trkpt lat="45.31383" lon="6.05016">
        <ele>1775</ele>
        <time>2021-01-16T09:43:00Z</time>
      </trkpt>
      <trkpt lat="45.31383" lon="6.05016">
        <ele>1775.2</ele>
        <time>2021-01-16T09:43:01Z</time>
      </trkpt>
      <trkpt lat="45.31384" lon="6.05017">
        <ele>1775.2</ele>
        <time>2021-01-16T09:43:02Z</time>
      </trkpt>
      <trkpt lat="45.31384" lon="6.05018">
        <ele>1775.4</ele>
        <time>2021-01-16T09:43:03Z</time>
      </trkpt>
      <trkpt lat="45.31384" lon="6.05019">
        <ele>1775.4</ele>
        <time>2021-01-16T09:43:04Z</time>
      </trkpt>
      <trkpt lat="45.31384" lon="6.05019">
        <ele>1775.6</ele>
        <time>2021-01-16T09:43:05Z</time>
      </trkpt>
      <trkpt lat="45.31384" lon="6.0502">
        <ele>1775.8</ele>
        <time>2021-01-16T09:43:06Z</time>
      </trkpt>
      <trkpt lat="45.31384" lon="6.05021">
        <ele>1776</ele>
        <time>2021-01-16T09:43:07Z</time>
      </trkpt>
      <trkpt lat="45.31384" lon="6.05021">
        <ele>1775.8</ele>
        <time>2021-01-16T09:43:08Z</time>
      </trkpt>
      <trkpt lat="45.31383" lon="6.05022">
        <ele>1776.2</ele>
        <time>2021-01-16T09:43:09Z</time>
      </trkpt>
      <trkpt lat="45.31383" lon="6.05023">
        <ele>1776.2</ele>
        <time>2021-01-16T09:43:10Z</time>
      </trkpt>
      <trkpt lat="45.31383" lon="6.05023">
        <ele>1776.2</ele>
        <time>2021-01-16T09:43:11Z</time>
      </trkpt>
      <trkpt lat="45.31383" lon="6.05024">
        <ele>1776.4</ele>
        <time>2021-01-16T09:43:12Z</time>
      </trkpt>
      <trkpt lat="45.31382" lon="6.05025">
        <ele>1776.6</ele>
        <time>2021-01-16T09:43:13Z</time>
      </trkpt>
      <trkpt lat="45.31382" lon="6.05026">
        <ele>1776.6</ele>
        <time>2021-01-16T09:43:14Z</time>
      </trkpt>
      <trkpt lat="45.31382" lon="6.05026">
        <ele>1776.8</ele>
        <time>2021-01-16T09:43:15Z</time>
      </trkpt>
      <trkpt lat="45.31382" lon="6.05027">
        <ele>1777</ele>
        <time>2021-01-16T09:43:16Z</time>
      </trkpt>
      <trkpt lat="45.31382" lon="6.05028">
        <ele>1776.8</ele>
        <time>2021-01-16T09:43:17Z</time>
      </trkpt>
      <trkpt lat="45.31382" lon="6.05029">
        <ele>1777.2</ele>
        <time>2021-01-16T09:43:18Z</time>
      </trkpt>
      <trkpt lat="45.31382" lon="6.0503">
        <ele>1777</ele>
        <time>2021-01-16T09:43:19Z</time>
      </trkpt>
      <trkpt lat="45.31382" lon="6.05031">
        <ele>1777.2</ele>
        <time>2021-01-16T09:43:20Z</time>
      </trkpt>
      <trkpt lat="45.31382" lon="6.05031">
        <ele>1777.2</ele>
        <time>2021-01-16T09:43:21Z</time>
      </trkpt>
      <trkpt lat="45.31382" lon="6.05032">
        <ele>1777.6</ele>
        <time>2021-01-16T09:43:22Z</time>
      </trkpt>
      <trkpt lat="45.31382" lon="6.05033">
        <ele>1777.6</ele>
        <time>2021-01-16T09:43:23Z</time>
      </trkpt>
      <trkpt lat="45.31382" lon="6.05033">
        <ele>1777.8</ele>
        <time>2021-01-16T09:43:24Z</time>
      </trkpt>
      <trkpt lat="45.31382" lon="6.05034">
        <ele>1778</ele>
        <time>2021-01-16T09:43:25Z</time>
      </trkpt>
      <trkpt lat="45.31382" lon="6.05034">
        <ele>1778.2</ele>
        <time>2021-01-16T09:43:26Z</time>
      </trkpt>
      <trkpt lat="45.31382" lon="6.05034">
        <ele>1778.4</ele>
        <time>2021-01-16T09:43:27Z</time>
      </trkpt>
      <trkpt lat="45.31381" lon="6.05034">
        <ele>1778.4</ele>
        <time>2021-01-16T09:43:28Z</time>
      </trkpt>
      <trkpt lat="45.3138" lon="6.05036">
        <ele>1778.6</ele>
        <time>2021-01-16T09:43:29Z</time>
      </trkpt>
      <trkpt lat="45.3138" lon="6.05036">
        <ele>1778.8</ele>
        <time>2021-01-16T09:43:30Z</time>
      </trkpt>
      <trkpt lat="45.31379" lon="6.05036">
        <ele>1779</ele>
        <time>2021-01-16T09:43:31Z</time>
      </trkpt>
      <trkpt lat="45.31379" lon="6.05036">
        <ele>1779.2</ele>
        <time>2021-01-16T09:43:32Z</time>
      </trkpt>
      <trkpt lat="45.31379" lon="6.05036">
        <ele>1779.4</ele>
        <time>2021-01-16T09:43:33Z</time>
      </trkpt>
      <trkpt lat="45.31378" lon="6.05036">
        <ele>1779.4</ele>
        <time>2021-01-16T09:43:34Z</time>
      </trkpt>
      <trkpt lat="45.31378" lon="6.05035">
        <ele>1779.6</ele>
        <time>2021-01-16T09:43:35Z</time>
      </trkpt>
      <trkpt lat="45.31377" lon="6.05034">
        <ele>1779.8</ele>
        <time>2021-01-16T09:43:36Z</time>
      </trkpt>
      <trkpt lat="45.31377" lon="6.05034">
        <ele>1779.8</ele>
        <time>2021-01-16T09:43:37Z</time>
      </trkpt>
      <trkpt lat="45.31376" lon="6.05034">
        <ele>1780</ele>
        <time>2021-01-16T09:43:38Z</time>
      </trkpt>
      <trkpt lat="45.31375" lon="6.05033">
        <ele>1780</ele>
        <time>2021-01-16T09:43:39Z</time>
      </trkpt>
      <trkpt lat="45.31375" lon="6.05033">
        <ele>1780.2</ele>
        <time>2021-01-16T09:43:40Z</time>
      </trkpt>
      <trkpt lat="45.31374" lon="6.05033">
        <ele>1780.2</ele>
        <time>2021-01-16T09:43:41Z</time>
      </trkpt>
      <trkpt lat="45.31373" lon="6.05033">
        <ele>1780.4</ele>
        <time>2021-01-16T09:43:42Z</time>
      </trkpt>
      <trkpt lat="45.31373" lon="6.05032">
        <ele>1780.4</ele>
        <time>2021-01-16T09:43:43Z</time>
      </trkpt>
      <trkpt lat="45.31372" lon="6.05032">
        <ele>1780.6</ele>
        <time>2021-01-16T09:43:44Z</time>
      </trkpt>
      <trkpt lat="45.31372" lon="6.05032">
        <ele>1780.6</ele>
        <time>2021-01-16T09:43:45Z</time>
      </trkpt>
      <trkpt lat="45.31371" lon="6.05032">
        <ele>1780.8</ele>
        <time>2021-01-16T09:43:46Z</time>
      </trkpt>
      <trkpt lat="45.3137" lon="6.05031">
        <ele>1781</ele>
        <time>2021-01-16T09:43:47Z</time>
      </trkpt>
      <trkpt lat="45.31369" lon="6.05032">
        <ele>1781</ele>
        <time>2021-01-16T09:43:48Z</time>
      </trkpt>
      <trkpt lat="45.31369" lon="6.05031">
        <ele>1781.2</ele>
        <time>2021-01-16T09:43:49Z</time>
      </trkpt>
      <trkpt lat="45.31368" lon="6.05031">
        <ele>1781.4</ele>
        <time>2021-01-16T09:43:50Z</time>
      </trkpt>
      <trkpt lat="45.31367" lon="6.05031">
        <ele>1781.4</ele>
        <time>2021-01-16T09:43:51Z</time>
      </trkpt>
      <trkpt lat="45.31367" lon="6.05031">
        <ele>1781.6</ele>
        <time>2021-01-16T09:43:52Z</time>
      </trkpt>
      <trkpt lat="45.31366" lon="6.05031">
        <ele>1781.8</ele>
        <time>2021-01-16T09:43:53Z</time>
      </trkpt>
      <trkpt lat="45.31366" lon="6.0503">
        <ele>1782</ele>
        <time>2021-01-16T09:43:54Z</time>
      </trkpt>
      <trkpt lat="45.31365" lon="6.0503">
        <ele>1781.8</ele>
        <time>2021-01-16T09:43:55Z</time>
      </trkpt>
      <trkpt lat="45.31364" lon="6.0503">
        <ele>1782</ele>
        <time>2021-01-16T09:43:56Z</time>
      </trkpt>
      <trkpt lat="45.31364" lon="6.05029">
        <ele>1782</ele>
        <time>2021-01-16T09:43:57Z</time>
      </trkpt>
      <trkpt lat="45.31363" lon="6.05029">
        <ele>1782.2</ele>
        <time>2021-01-16T09:43:58Z</time>
      </trkpt>
      <trkpt lat="45.31363" lon="6.05029">
        <ele>1782.2</ele>
        <time>2021-01-16T09:43:59Z</time>
      </trkpt>
      <trkpt lat="45.31363" lon="6.05028">
        <ele>1782.4</ele>
        <time>2021-01-16T09:44:00Z</time>
      </trkpt>
      <trkpt lat="45.31362" lon="6.05028">
        <ele>1782.6</ele>
        <time>2021-01-16T09:44:01Z</time>
      </trkpt>
      <trkpt lat="45.31361" lon="6.05027">
        <ele>1782.6</ele>
        <time>2021-01-16T09:44:02Z</time>
      </trkpt>
      <trkpt lat="45.31361" lon="6.05027">
        <ele>1782.8</ele>
        <time>2021-01-16T09:44:03Z</time>
      </trkpt>
      <trkpt lat="45.3136" lon="6.05027">
        <ele>1782.8</ele>
        <time>2021-01-16T09:44:04Z</time>
      </trkpt>
      <trkpt lat="45.3136" lon="6.05026">
        <ele>1783</ele>
        <time>2021-01-16T09:44:05Z</time>
      </trkpt>
      <trkpt lat="45.3136" lon="6.05026">
        <ele>1783</ele>
        <time>2021-01-16T09:44:06Z</time>
      </trkpt>
      <trkpt lat="45.31359" lon="6.05025">
        <ele>1783.2</ele>
        <time>2021-01-16T09:44:07Z</time>
      </trkpt>
      <trkpt lat="45.31359" lon="6.05025">
        <ele>1783.2</ele>
        <time>2021-01-16T09:44:08Z</time>
      </trkpt>
      <trkpt lat="45.31358" lon="6.05025">
        <ele>1783.4</ele>
        <time>2021-01-16T09:44:09Z</time>
      </trkpt>
      <trkpt lat="45.31357" lon="6.05024">
        <ele>1783.8</ele>
        <time>2021-01-16T09:44:10Z</time>
      </trkpt>
      <trkpt lat="45.31357" lon="6.05024">
        <ele>1783.8</ele>
        <time>2021-01-16T09:44:11Z</time>
      </trkpt>
      <trkpt lat="45.31356" lon="6.05024">
        <ele>1784</ele>
        <time>2021-01-16T09:44:12Z</time>
      </trkpt>
      <trkpt lat="45.31356" lon="6.05024">
        <ele>1784.2</ele>
        <time>2021-01-16T09:44:13Z</time>
      </trkpt>
      <trkpt lat="45.31355" lon="6.05024">
        <ele>1784.2</ele>
        <time>2021-01-16T09:44:14Z</time>
      </trkpt>
      <trkpt lat="45.31354" lon="6.05024">
        <ele>1784.4</ele>
        <time>2021-01-16T09:44:15Z</time>
      </trkpt>
      <trkpt lat="45.31353" lon="6.05023">
        <ele>1784.6</ele>
        <time>2021-01-16T09:44:16Z</time>
      </trkpt>
      <trkpt lat="45.31353" lon="6.05023">
        <ele>1784.8</ele>
        <time>2021-01-16T09:44:17Z</time>
      </trkpt>
      <trkpt lat="45.31352" lon="6.05023">
        <ele>1784.8</ele>
        <time>2021-01-16T09:44:18Z</time>
      </trkpt>
      <trkpt lat="45.31352" lon="6.05023">
        <ele>1785</ele>
        <time>2021-01-16T09:44:19Z</time>
      </trkpt>
      <trkpt lat="45.31351" lon="6.05023">
        <ele>1785.2</ele>
        <time>2021-01-16T09:44:20Z</time>
      </trkpt>
      <trkpt lat="45.3135" lon="6.05023">
        <ele>1785.2</ele>
        <time>2021-01-16T09:44:21Z</time>
      </trkpt>
      <trkpt lat="45.31349" lon="6.05022">
        <ele>1785.4</ele>
        <time>2021-01-16T09:44:22Z</time>
      </trkpt>
      <trkpt lat="45.31348" lon="6.05022">
        <ele>1785.4</ele>
        <time>2021-01-16T09:44:23Z</time>
      </trkpt>
      <trkpt lat="45.31347" lon="6.05022">
        <ele>1785.6</ele>
        <time>2021-01-16T09:44:24Z</time>
      </trkpt>
      <trkpt lat="45.31346" lon="6.05022">
        <ele>1785.8</ele>
        <time>2021-01-16T09:44:25Z</time>
      </trkpt>
      <trkpt lat="45.31346" lon="6.05022">
        <ele>1786</ele>
        <time>2021-01-16T09:44:26Z</time>
      </trkpt>
      <trkpt lat="45.31346" lon="6.05022">
        <ele>1786</ele>
        <time>2021-01-16T09:44:27Z</time>
      </trkpt>
      <trkpt lat="45.31344" lon="6.05022">
        <ele>1786.2</ele>
        <time>2021-01-16T09:44:28Z</time>
      </trkpt>
      <trkpt lat="45.31344" lon="6.05023">
        <ele>1786.4</ele>
        <time>2021-01-16T09:44:29Z</time>
      </trkpt>
      <trkpt lat="45.31345" lon="6.05023">
        <ele>1786.4</ele>
        <time>2021-01-16T09:44:30Z</time>
      </trkpt>
      <trkpt lat="45.31345" lon="6.05024">
        <ele>1786.6</ele>
        <time>2021-01-16T09:44:31Z</time>
      </trkpt>
      <trkpt lat="45.31345" lon="6.05024">
        <ele>1786.6</ele>
        <time>2021-01-16T09:44:32Z</time>
      </trkpt>
      <trkpt lat="45.31346" lon="6.05025">
        <ele>1786.6</ele>
        <time>2021-01-16T09:44:33Z</time>
      </trkpt>
      <trkpt lat="45.31346" lon="6.05025">
        <ele>1786.8</ele>
        <time>2021-01-16T09:44:34Z</time>
      </trkpt>
      <trkpt lat="45.31346" lon="6.05025">
        <ele>1786.8</ele>
        <time>2021-01-16T09:44:35Z</time>
      </trkpt>
      <trkpt lat="45.31346" lon="6.05025">
        <ele>1786.8</ele>
        <time>2021-01-16T09:44:36Z</time>
      </trkpt>
      <trkpt lat="45.31346" lon="6.05025">
        <ele>1786.8</ele>
        <time>2021-01-16T09:44:37Z</time>
      </trkpt>
      <trkpt lat="45.31346" lon="6.05025">
        <ele>1786.8</ele>
        <time>2021-01-16T09:44:38Z</time>
      </trkpt>
      <trkpt lat="45.31346" lon="6.05025">
        <ele>1786.8</ele>
        <time>2021-01-16T09:44:39Z</time>
      </trkpt>
      <trkpt lat="45.31346" lon="6.05025">
        <ele>1786.8</ele>
        <time>2021-01-16T09:44:40Z</time>
      </trkpt>
      <trkpt lat="45.31346" lon="6.05025">
        <ele>1786.8</ele>
        <time>2021-01-16T09:44:41Z</time>
      </trkpt>
      <trkpt lat="45.31346" lon="6.05025">
        <ele>1786.8</ele>
        <time>2021-01-16T09:44:42Z</time>
      </trkpt>
      <trkpt lat="45.31346" lon="6.05025">
        <ele>1786.8</ele>
        <time>2021-01-16T09:44:43Z</time>
      </trkpt>
      <trkpt lat="45.31346" lon="6.05025">
        <ele>1786.8</ele>
        <time>2021-01-16T09:44:44Z</time>
      </trkpt>
      <trkpt lat="45.31346" lon="6.05025">
        <ele>1786.8</ele>
        <time>2021-01-16T09:44:45Z</time>
      </trkpt>
      <trkpt lat="45.31346" lon="6.05025">
        <ele>1786.8</ele>
        <time>2021-01-16T09:44:46Z</time>
      </trkpt>
      <trkpt lat="45.31346" lon="6.05025">
        <ele>1786.8</ele>
        <time>2021-01-16T09:44:47Z</time>
      </trkpt>
      <trkpt lat="45.31346" lon="6.05025">
        <ele>1786.8</ele>
        <time>2021-01-16T09:44:48Z</time>
      </trkpt>
      <trkpt lat="45.31346" lon="6.05025">
        <ele>1786.8</ele>
        <time>2021-01-16T09:44:49Z</time>
      </trkpt>
      <trkpt lat="45.31346" lon="6.05025">
        <ele>1786.8</ele>
        <time>2021-01-16T09:44:50Z</time>
      </trkpt>
      <trkpt lat="45.31346" lon="6.05025">
        <ele>1786.8</ele>
        <time>2021-01-16T09:44:51Z</time>
      </trkpt>
      <trkpt lat="45.31346" lon="6.05025">
        <ele>1786.8</ele>
        <time>2021-01-16T09:44:52Z</time>
      </trkpt>
      <trkpt lat="45.31346" lon="6.05025">
        <ele>1786.8</ele>
        <time>2021-01-16T09:44:53Z</time>
      </trkpt>
      <trkpt lat="45.31346" lon="6.05025">
        <ele>1786.8</ele>
        <time>2021-01-16T09:44:54Z</time>
      </trkpt>
      <trkpt lat="45.31346" lon="6.05025">
        <ele>1786.8</ele>
        <time>2021-01-16T09:44:55Z</time>
      </trkpt>
      <trkpt lat="45.31346" lon="6.05025">
        <ele>1786.8</ele>
        <time>2021-01-16T09:44:56Z</time>
      </trkpt>
      <trkpt lat="45.31346" lon="6.05025">
        <ele>1786.8</ele>
        <time>2021-01-16T09:44:57Z</time>
      </trkpt>
      <trkpt lat="45.31346" lon="6.05025">
        <ele>1786.8</ele>
        <time>2021-01-16T09:44:58Z</time>
      </trkpt>
      <trkpt lat="45.31346" lon="6.05025">
        <ele>1786.8</ele>
        <time>2021-01-16T09:44:59Z</time>
      </trkpt>
      <trkpt lat="45.31346" lon="6.05025">
        <ele>1786.8</ele>
        <time>2021-01-16T09:45:00Z</time>
      </trkpt>
      <trkpt lat="45.31346" lon="6.05025">
        <ele>1786.8</ele>
        <time>2021-01-16T09:45:01Z</time>
      </trkpt>
      <trkpt lat="45.31346" lon="6.05025">
        <ele>1786.8</ele>
        <time>2021-01-16T09:45:02Z</time>
      </trkpt>
      <trkpt lat="45.31346" lon="6.05025">
        <ele>1786.8</ele>
        <time>2021-01-16T09:45:03Z</time>
      </trkpt>
      <trkpt lat="45.31346" lon="6.05025">
        <ele>1786.8</ele>
        <time>2021-01-16T09:45:04Z</time>
      </trkpt>
      <trkpt lat="45.31346" lon="6.05025">
        <ele>1786.8</ele>
        <time>2021-01-16T09:45:05Z</time>
      </trkpt>
      <trkpt lat="45.31346" lon="6.05025">
        <ele>1786.8</ele>
        <time>2021-01-16T09:45:06Z</time>
      </trkpt>
      <trkpt lat="45.31346" lon="6.05025">
        <ele>1786.8</ele>
        <time>2021-01-16T09:45:07Z</time>
      </trkpt>
      <trkpt lat="45.31346" lon="6.05025">
        <ele>1786.8</ele>
        <time>2021-01-16T09:45:08Z</time>
      </trkpt>
      <trkpt lat="45.31346" lon="6.05025">
        <ele>1786.8</ele>
        <time>2021-01-16T09:45:09Z</time>
      </trkpt>
      <trkpt lat="45.31346" lon="6.05025">
        <ele>1786.8</ele>
        <time>2021-01-16T09:45:10Z</time>
      </trkpt>
      <trkpt lat="45.31346" lon="6.05025">
        <ele>1786.8</ele>
        <time>2021-01-16T09:45:11Z</time>
      </trkpt>
      <trkpt lat="45.31346" lon="6.05025">
        <ele>1786.8</ele>
        <time>2021-01-16T09:45:12Z</time>
      </trkpt>
      <trkpt lat="45.31346" lon="6.05025">
        <ele>1786.8</ele>
        <time>2021-01-16T09:45:13Z</time>
      </trkpt>
      <trkpt lat="45.31346" lon="6.05025">
        <ele>1786.8</ele>
        <time>2021-01-16T09:45:14Z</time>
      </trkpt>
      <trkpt lat="45.31346" lon="6.05025">
        <ele>1786.8</ele>
        <time>2021-01-16T09:45:15Z</time>
      </trkpt>
      <trkpt lat="45.31346" lon="6.05025">
        <ele>1786.8</ele>
        <time>2021-01-16T09:45:16Z</time>
      </trkpt>
      <trkpt lat="45.31346" lon="6.05025">
        <ele>1786.8</ele>
        <time>2021-01-16T09:45:17Z</time>
      </trkpt>
      <trkpt lat="45.31346" lon="6.05025">
        <ele>1786.8</ele>
        <time>2021-01-16T09:45:18Z</time>
      </trkpt>
      <trkpt lat="45.31346" lon="6.05025">
        <ele>1786.8</ele>
        <time>2021-01-16T09:45:19Z</time>
      </trkpt>
      <trkpt lat="45.31346" lon="6.05025">
        <ele>1786.8</ele>
        <time>2021-01-16T09:45:20Z</time>
      </trkpt>
      <trkpt lat="45.31346" lon="6.05025">
        <ele>1786.8</ele>
        <time>2021-01-16T09:45:21Z</time>
      </trkpt>
      <trkpt lat="45.31346" lon="6.05025">
        <ele>1786.8</ele>
        <time>2021-01-16T09:45:22Z</time>
      </trkpt>
      <trkpt lat="45.31346" lon="6.05025">
        <ele>1786.8</ele>
        <time>2021-01-16T09:45:23Z</time>
      </trkpt>
      <trkpt lat="45.31346" lon="6.05025">
        <ele>1786.8</ele>
        <time>2021-01-16T09:45:24Z</time>
      </trkpt>
      <trkpt lat="45.31346" lon="6.05025">
        <ele>1786.8</ele>
        <time>2021-01-16T09:45:25Z</time>
      </trkpt>
      <trkpt lat="45.31346" lon="6.05025">
        <ele>1786.8</ele>
        <time>2021-01-16T09:45:26Z</time>
      </trkpt>
      <trkpt lat="45.31346" lon="6.05025">
        <ele>1786.8</ele>
        <time>2021-01-16T09:45:27Z</time>
      </trkpt>
      <trkpt lat="45.31346" lon="6.05025">
        <ele>1786.8</ele>
        <time>2021-01-16T09:45:28Z</time>
      </trkpt>
      <trkpt lat="45.31346" lon="6.05025">
        <ele>1786.8</ele>
        <time>2021-01-16T09:45:29Z</time>
      </trkpt>
      <trkpt lat="45.31346" lon="6.05025">
        <ele>1786.8</ele>
        <time>2021-01-16T09:45:30Z</time>
      </trkpt>
      <trkpt lat="45.31346" lon="6.05025">
        <ele>1786.8</ele>
        <time>2021-01-16T09:45:31Z</time>
      </trkpt>
      <trkpt lat="45.31346" lon="6.05025">
        <ele>1786.8</ele>
        <time>2021-01-16T09:45:32Z</time>
      </trkpt>
      <trkpt lat="45.31346" lon="6.05025">
        <ele>1786.8</ele>
        <time>2021-01-16T09:45:33Z</time>
      </trkpt>
      <trkpt lat="45.31346" lon="6.05025">
        <ele>1786.8</ele>
        <time>2021-01-16T09:45:34Z</time>
      </trkpt>
      <trkpt lat="45.31346" lon="6.05025">
        <ele>1786.8</ele>
        <time>2021-01-16T09:45:35Z</time>
      </trkpt>
      <trkpt lat="45.31346" lon="6.05025">
        <ele>1786.8</ele>
        <time>2021-01-16T09:45:36Z</time>
      </trkpt>
      <trkpt lat="45.31346" lon="6.05025">
        <ele>1786.8</ele>
        <time>2021-01-16T09:45:37Z</time>
      </trkpt>
      <trkpt lat="45.31346" lon="6.05025">
        <ele>1786.8</ele>
        <time>2021-01-16T09:45:38Z</time>
      </trkpt>
      <trkpt lat="45.31346" lon="6.05025">
        <ele>1786.8</ele>
        <time>2021-01-16T09:45:39Z</time>
      </trkpt>
      <trkpt lat="45.31346" lon="6.05025">
        <ele>1786.8</ele>
        <time>2021-01-16T09:45:40Z</time>
      </trkpt>
      <trkpt lat="45.31346" lon="6.05025">
        <ele>1786.8</ele>
        <time>2021-01-16T09:45:41Z</time>
      </trkpt>
      <trkpt lat="45.31346" lon="6.05025">
        <ele>1786.8</ele>
        <time>2021-01-16T09:45:42Z</time>
      </trkpt>
      <trkpt lat="45.31346" lon="6.05025">
        <ele>1786.8</ele>
        <time>2021-01-16T09:45:43Z</time>
      </trkpt>
      <trkpt lat="45.31346" lon="6.05025">
        <ele>1786.8</ele>
        <time>2021-01-16T09:45:44Z</time>
      </trkpt>
      <trkpt lat="45.31346" lon="6.05025">
        <ele>1786.8</ele>
        <time>2021-01-16T09:45:45Z</time>
      </trkpt>
      <trkpt lat="45.31346" lon="6.05025">
        <ele>1786.8</ele>
        <time>2021-01-16T09:45:46Z</time>
      </trkpt>
      <trkpt lat="45.31346" lon="6.05025">
        <ele>1786.8</ele>
        <time>2021-01-16T09:45:47Z</time>
      </trkpt>
      <trkpt lat="45.31346" lon="6.05025">
        <ele>1786.8</ele>
        <time>2021-01-16T09:45:48Z</time>
      </trkpt>
      <trkpt lat="45.31346" lon="6.05025">
        <ele>1786.6</ele>
        <time>2021-01-16T09:45:49Z</time>
      </trkpt>
      <trkpt lat="45.31346" lon="6.05025">
        <ele>1786.6</ele>
        <time>2021-01-16T09:45:50Z</time>
      </trkpt>
      <trkpt lat="45.31346" lon="6.05025">
        <ele>1786.8</ele>
        <time>2021-01-16T09:45:51Z</time>
      </trkpt>
      <trkpt lat="45.31346" lon="6.05025">
        <ele>1786.8</ele>
        <time>2021-01-16T09:45:52Z</time>
      </trkpt>
      <trkpt lat="45.31346" lon="6.05025">
        <ele>1786.8</ele>
        <time>2021-01-16T09:45:53Z</time>
      </trkpt>
      <trkpt lat="45.31346" lon="6.05025">
        <ele>1786.6</ele>
        <time>2021-01-16T09:45:54Z</time>
      </trkpt>
      <trkpt lat="45.31346" lon="6.05025">
        <ele>1786.6</ele>
        <time>2021-01-16T09:45:55Z</time>
      </trkpt>
      <trkpt lat="45.31346" lon="6.05025">
        <ele>1786.6</ele>
        <time>2021-01-16T09:45:56Z</time>
      </trkpt>
      <trkpt lat="45.31346" lon="6.05025">
        <ele>1786.8</ele>
        <time>2021-01-16T09:45:57Z</time>
      </trkpt>
      <trkpt lat="45.31346" lon="6.05025">
        <ele>1786.6</ele>
        <time>2021-01-16T09:45:58Z</time>
      </trkpt>
      <trkpt lat="45.31346" lon="6.05027">
        <ele>1786.6</ele>
        <time>2021-01-16T09:45:59Z</time>
      </trkpt>
      <trkpt lat="45.31347" lon="6.05028">
        <ele>1786.6</ele>
        <time>2021-01-16T09:46:00Z</time>
      </trkpt>
      <trkpt lat="45.31347" lon="6.05029">
        <ele>1786.8</ele>
        <time>2021-01-16T09:46:01Z</time>
      </trkpt>
      <trkpt lat="45.31347" lon="6.05029">
        <ele>1786.8</ele>
        <time>2021-01-16T09:46:02Z</time>
      </trkpt>
      <trkpt lat="45.31348" lon="6.0503">
        <ele>1787</ele>
        <time>2021-01-16T09:46:03Z</time>
      </trkpt>
      <trkpt lat="45.31348" lon="6.05031">
        <ele>1787.2</ele>
        <time>2021-01-16T09:46:04Z</time>
      </trkpt>
      <trkpt lat="45.31348" lon="6.05032">
        <ele>1787.2</ele>
        <time>2021-01-16T09:46:05Z</time>
      </trkpt>
      <trkpt lat="45.31349" lon="6.05033">
        <ele>1787.2</ele>
        <time>2021-01-16T09:46:06Z</time>
      </trkpt>
      <trkpt lat="45.31349" lon="6.05034">
        <ele>1787.6</ele>
        <time>2021-01-16T09:46:07Z</time>
      </trkpt>
      <trkpt lat="45.31349" lon="6.05035">
        <ele>1787.6</ele>
        <time>2021-01-16T09:46:08Z</time>
      </trkpt>
      <trkpt lat="45.31349" lon="6.05036">
        <ele>1787.8</ele>
        <time>2021-01-16T09:46:09Z</time>
      </trkpt>
      <trkpt lat="45.31349" lon="6.05037">
        <ele>1787.8</ele>
        <time>2021-01-16T09:46:10Z</time>
      </trkpt>
      <trkpt lat="45.31349" lon="6.05038">
        <ele>1788</ele>
        <time>2021-01-16T09:46:11Z</time>
      </trkpt>
      <trkpt lat="45.31349" lon="6.05039">
        <ele>1788.2</ele>
        <time>2021-01-16T09:46:12Z</time>
      </trkpt>
      <trkpt lat="45.31349" lon="6.0504">
        <ele>1788.2</ele>
        <time>2021-01-16T09:46:13Z</time>
      </trkpt>
      <trkpt lat="45.3135" lon="6.05041">
        <ele>1788.4</ele>
        <time>2021-01-16T09:46:14Z</time>
      </trkpt>
      <trkpt lat="45.3135" lon="6.05042">
        <ele>1788.4</ele>
        <time>2021-01-16T09:46:15Z</time>
      </trkpt>
      <trkpt lat="45.3135" lon="6.05043">
        <ele>1788.6</ele>
        <time>2021-01-16T09:46:16Z</time>
      </trkpt>
      <trkpt lat="45.3135" lon="6.05044">
        <ele>1788.8</ele>
        <time>2021-01-16T09:46:17Z</time>
      </trkpt>
      <trkpt lat="45.31349" lon="6.05045">
        <ele>1789</ele>
        <time>2021-01-16T09:46:18Z</time>
      </trkpt>
      <trkpt lat="45.31349" lon="6.05046">
        <ele>1789</ele>
        <time>2021-01-16T09:46:19Z</time>
      </trkpt>
      <trkpt lat="45.31349" lon="6.05046">
        <ele>1789.2</ele>
        <time>2021-01-16T09:46:20Z</time>
      </trkpt>
      <trkpt lat="45.31349" lon="6.05047">
        <ele>1789.4</ele>
        <time>2021-01-16T09:46:21Z</time>
      </trkpt>
      <trkpt lat="45.3135" lon="6.05048">
        <ele>1789.4</ele>
        <time>2021-01-16T09:46:22Z</time>
      </trkpt>
      <trkpt lat="45.3135" lon="6.0505">
        <ele>1789.6</ele>
        <time>2021-01-16T09:46:23Z</time>
      </trkpt>
      <trkpt lat="45.3135" lon="6.0505">
        <ele>1789.6</ele>
        <time>2021-01-16T09:46:24Z</time>
      </trkpt>
      <trkpt lat="45.3135" lon="6.05051">
        <ele>1789.6</ele>
        <time>2021-01-16T09:46:25Z</time>
      </trkpt>
      <trkpt lat="45.3135" lon="6.05052">
        <ele>1789.8</ele>
        <time>2021-01-16T09:46:26Z</time>
      </trkpt>
      <trkpt lat="45.3135" lon="6.05053">
        <ele>1789.8</ele>
        <time>2021-01-16T09:46:27Z</time>
      </trkpt>
      <trkpt lat="45.3135" lon="6.05054">
        <ele>1790</ele>
        <time>2021-01-16T09:46:28Z</time>
      </trkpt>
      <trkpt lat="45.3135" lon="6.05054">
        <ele>1790.2</ele>
        <time>2021-01-16T09:46:29Z</time>
      </trkpt>
      <trkpt lat="45.3135" lon="6.05054">
        <ele>1790.2</ele>
        <time>2021-01-16T09:46:30Z</time>
      </trkpt>
      <trkpt lat="45.3135" lon="6.05054">
        <ele>1790.4</ele>
        <time>2021-01-16T09:46:31Z</time>
      </trkpt>
      <trkpt lat="45.3135" lon="6.05054">
        <ele>1790.6</ele>
        <time>2021-01-16T09:46:32Z</time>
      </trkpt>
      <trkpt lat="45.3135" lon="6.05054">
        <ele>1790.4</ele>
        <time>2021-01-16T09:46:33Z</time>
      </trkpt>
      <trkpt lat="45.3135" lon="6.05054">
        <ele>1790.4</ele>
        <time>2021-01-16T09:46:34Z</time>
      </trkpt>
      <trkpt lat="45.3135" lon="6.05054">
        <ele>1790.6</ele>
        <time>2021-01-16T09:46:35Z</time>
      </trkpt>
      <trkpt lat="45.3135" lon="6.05054">
        <ele>1790.6</ele>
        <time>2021-01-16T09:46:36Z</time>
      </trkpt>
      <trkpt lat="45.3135" lon="6.05054">
        <ele>1790.6</ele>
        <time>2021-01-16T09:46:37Z</time>
      </trkpt>
      <trkpt lat="45.3135" lon="6.05054">
        <ele>1790.6</ele>
        <time>2021-01-16T09:46:38Z</time>
      </trkpt>
      <trkpt lat="45.3135" lon="6.05054">
        <ele>1790.4</ele>
        <time>2021-01-16T09:46:39Z</time>
      </trkpt>
      <trkpt lat="45.3135" lon="6.05054">
        <ele>1790.4</ele>
        <time>2021-01-16T09:46:40Z</time>
      </trkpt>
      <trkpt lat="45.3135" lon="6.05054">
        <ele>1790.4</ele>
        <time>2021-01-16T09:46:41Z</time>
      </trkpt>
      <trkpt lat="45.3135" lon="6.05054">
        <ele>1790.4</ele>
        <time>2021-01-16T09:46:42Z</time>
      </trkpt>
      <trkpt lat="45.3135" lon="6.05054">
        <ele>1790.4</ele>
        <time>2021-01-16T09:46:43Z</time>
      </trkpt>
      <trkpt lat="45.31349" lon="6.05053">
        <ele>1790.6</ele>
        <time>2021-01-16T09:46:44Z</time>
      </trkpt>
      <trkpt lat="45.31348" lon="6.05053">
        <ele>1790.6</ele>
        <time>2021-01-16T09:46:45Z</time>
      </trkpt>
      <trkpt lat="45.31348" lon="6.05052">
        <ele>1790.6</ele>
        <time>2021-01-16T09:46:46Z</time>
      </trkpt>
      <trkpt lat="45.31347" lon="6.05052">
        <ele>1790.6</ele>
        <time>2021-01-16T09:46:47Z</time>
      </trkpt>
      <trkpt lat="45.31347" lon="6.05051">
        <ele>1790.8</ele>
        <time>2021-01-16T09:46:48Z</time>
      </trkpt>
      <trkpt lat="45.31346" lon="6.05051">
        <ele>1790.8</ele>
        <time>2021-01-16T09:46:49Z</time>
      </trkpt>
      <trkpt lat="45.31346" lon="6.05051">
        <ele>1790.8</ele>
        <time>2021-01-16T09:46:50Z</time>
      </trkpt>
      <trkpt lat="45.31346" lon="6.0505">
        <ele>1791</ele>
        <time>2021-01-16T09:46:51Z</time>
      </trkpt>
      <trkpt lat="45.31346" lon="6.0505">
        <ele>1791</ele>
        <time>2021-01-16T09:46:52Z</time>
      </trkpt>
      <trkpt lat="45.31346" lon="6.05049">
        <ele>1791</ele>
        <time>2021-01-16T09:46:53Z</time>
      </trkpt>
      <trkpt lat="45.31346" lon="6.05049">
        <ele>1791.2</ele>
        <time>2021-01-16T09:46:54Z</time>
      </trkpt>
      <trkpt lat="45.31346" lon="6.05049">
        <ele>1791.4</ele>
        <time>2021-01-16T09:46:55Z</time>
      </trkpt>
      <trkpt lat="45.31345" lon="6.05048">
        <ele>1791.4</ele>
        <time>2021-01-16T09:46:56Z</time>
      </trkpt>
      <trkpt lat="45.31344" lon="6.05048">
        <ele>1791.6</ele>
        <time>2021-01-16T09:46:57Z</time>
      </trkpt>
      <trkpt lat="45.31344" lon="6.05048">
        <ele>1791.6</ele>
        <time>2021-01-16T09:46:58Z</time>
      </trkpt>
      <trkpt lat="45.31344" lon="6.05048">
        <ele>1791.6</ele>
        <time>2021-01-16T09:46:59Z</time>
      </trkpt>
      <trkpt lat="45.31344" lon="6.05048">
        <ele>1791.6</ele>
        <time>2021-01-16T09:47:00Z</time>
      </trkpt>
      <trkpt lat="45.31344" lon="6.05048">
        <ele>1791.6</ele>
        <time>2021-01-16T09:47:01Z</time>
      </trkpt>
      <trkpt lat="45.31344" lon="6.05048">
        <ele>1791.6</ele>
        <time>2021-01-16T09:47:02Z</time>
      </trkpt>
      <trkpt lat="45.31344" lon="6.05048">
        <ele>1791.6</ele>
        <time>2021-01-16T09:47:03Z</time>
      </trkpt>
      <trkpt lat="45.31344" lon="6.05048">
        <ele>1791.6</ele>
        <time>2021-01-16T09:47:04Z</time>
      </trkpt>
      <trkpt lat="45.31344" lon="6.05048">
        <ele>1791.6</ele>
        <time>2021-01-16T09:47:05Z</time>
      </trkpt>
      <trkpt lat="45.31344" lon="6.05048">
        <ele>1791.6</ele>
        <time>2021-01-16T09:47:06Z</time>
      </trkpt>
      <trkpt lat="45.31344" lon="6.05048">
        <ele>1791.6</ele>
        <time>2021-01-16T09:47:07Z</time>
      </trkpt>
      <trkpt lat="45.31344" lon="6.05048">
        <ele>1791.6</ele>
        <time>2021-01-16T09:47:08Z</time>
      </trkpt>
      <trkpt lat="45.31344" lon="6.05048">
        <ele>1791.6</ele>
        <time>2021-01-16T09:47:09Z</time>
      </trkpt>
      <trkpt lat="45.31344" lon="6.05048">
        <ele>1791.6</ele>
        <time>2021-01-16T09:47:10Z</time>
      </trkpt>
      <trkpt lat="45.31344" lon="6.05048">
        <ele>1791.6</ele>
        <time>2021-01-16T09:47:11Z</time>
      </trkpt>
      <trkpt lat="45.31344" lon="6.05048">
        <ele>1791.6</ele>
        <time>2021-01-16T09:47:12Z</time>
      </trkpt>
      <trkpt lat="45.31344" lon="6.05048">
        <ele>1791.6</ele>
        <time>2021-01-16T09:47:13Z</time>
      </trkpt>
      <trkpt lat="45.31344" lon="6.05048">
        <ele>1791.6</ele>
        <time>2021-01-16T09:47:14Z</time>
      </trkpt>
      <trkpt lat="45.31344" lon="6.05048">
        <ele>1791.6</ele>
        <time>2021-01-16T09:47:15Z</time>
      </trkpt>
      <trkpt lat="45.31344" lon="6.05048">
        <ele>1791.6</ele>
        <time>2021-01-16T09:47:16Z</time>
      </trkpt>
      <trkpt lat="45.31344" lon="6.05048">
        <ele>1791.6</ele>
        <time>2021-01-16T09:47:17Z</time>
      </trkpt>
      <trkpt lat="45.31344" lon="6.05048">
        <ele>1791.6</ele>
        <time>2021-01-16T09:47:18Z</time>
      </trkpt>
      <trkpt lat="45.31344" lon="6.05048">
        <ele>1791.6</ele>
        <time>2021-01-16T09:47:19Z</time>
      </trkpt>
      <trkpt lat="45.31344" lon="6.05048">
        <ele>1791.6</ele>
        <time>2021-01-16T09:47:20Z</time>
      </trkpt>
      <trkpt lat="45.31344" lon="6.05048">
        <ele>1791.6</ele>
        <time>2021-01-16T09:47:21Z</time>
      </trkpt>
      <trkpt lat="45.31344" lon="6.05048">
        <ele>1791.6</ele>
        <time>2021-01-16T09:47:22Z</time>
      </trkpt>
      <trkpt lat="45.31344" lon="6.05048">
        <ele>1791.6</ele>
        <time>2021-01-16T09:47:23Z</time>
      </trkpt>
      <trkpt lat="45.31344" lon="6.05048">
        <ele>1791.6</ele>
        <time>2021-01-16T09:47:24Z</time>
      </trkpt>
      <trkpt lat="45.31344" lon="6.05048">
        <ele>1791.6</ele>
        <time>2021-01-16T09:47:25Z</time>
      </trkpt>
      <trkpt lat="45.31344" lon="6.05048">
        <ele>1791.6</ele>
        <time>2021-01-16T09:47:26Z</time>
      </trkpt>
      <trkpt lat="45.31344" lon="6.05048">
        <ele>1791.4</ele>
        <time>2021-01-16T09:47:27Z</time>
      </trkpt>
      <trkpt lat="45.31344" lon="6.05048">
        <ele>1791.4</ele>
        <time>2021-01-16T09:47:28Z</time>
      </trkpt>
      <trkpt lat="45.31344" lon="6.05048">
        <ele>1791.4</ele>
        <time>2021-01-16T09:47:29Z</time>
      </trkpt>
      <trkpt lat="45.31344" lon="6.05048">
        <ele>1791.4</ele>
        <time>2021-01-16T09:47:30Z</time>
      </trkpt>
      <trkpt lat="45.31344" lon="6.05048">
        <ele>1791.6</ele>
        <time>2021-01-16T09:47:31Z</time>
      </trkpt>
      <trkpt lat="45.31344" lon="6.05048">
        <ele>1791.6</ele>
        <time>2021-01-16T09:47:32Z</time>
      </trkpt>
      <trkpt lat="45.31344" lon="6.05048">
        <ele>1791.6</ele>
        <time>2021-01-16T09:47:33Z</time>
      </trkpt>
      <trkpt lat="45.31344" lon="6.05048">
        <ele>1791.6</ele>
        <time>2021-01-16T09:47:34Z</time>
      </trkpt>
      <trkpt lat="45.31344" lon="6.05048">
        <ele>1791.6</ele>
        <time>2021-01-16T09:47:35Z</time>
      </trkpt>
      <trkpt lat="45.31344" lon="6.05048">
        <ele>1791.6</ele>
        <time>2021-01-16T09:47:36Z</time>
      </trkpt>
      <trkpt lat="45.31344" lon="6.05048">
        <ele>1791.6</ele>
        <time>2021-01-16T09:47:37Z</time>
      </trkpt>
      <trkpt lat="45.31344" lon="6.05048">
        <ele>1791.6</ele>
        <time>2021-01-16T09:47:38Z</time>
      </trkpt>
      <trkpt lat="45.31344" lon="6.05048">
        <ele>1791.6</ele>
        <time>2021-01-16T09:47:39Z</time>
      </trkpt>
      <trkpt lat="45.31344" lon="6.05048">
        <ele>1791.8</ele>
        <time>2021-01-16T09:47:40Z</time>
      </trkpt>
      <trkpt lat="45.31343" lon="6.05047">
        <ele>1791.6</ele>
        <time>2021-01-16T09:47:41Z</time>
      </trkpt>
      <trkpt lat="45.31342" lon="6.05046">
        <ele>1791.8</ele>
        <time>2021-01-16T09:47:42Z</time>
      </trkpt>
      <trkpt lat="45.31342" lon="6.05046">
        <ele>1792</ele>
        <time>2021-01-16T09:47:43Z</time>
      </trkpt>
      <trkpt lat="45.31342" lon="6.05045">
        <ele>1792</ele>
        <time>2021-01-16T09:47:44Z</time>
      </trkpt>
      <trkpt lat="45.31341" lon="6.05045">
        <ele>1792</ele>
        <time>2021-01-16T09:47:45Z</time>
      </trkpt>
      <trkpt lat="45.31341" lon="6.05045">
        <ele>1792.2</ele>
        <time>2021-01-16T09:47:46Z</time>
      </trkpt>
      <trkpt lat="45.3134" lon="6.05045">
        <ele>1792.2</ele>
        <time>2021-01-16T09:47:47Z</time>
      </trkpt>
      <trkpt lat="45.3134" lon="6.05044">
        <ele>1792.2</ele>
        <time>2021-01-16T09:47:48Z</time>
      </trkpt>
      <trkpt lat="45.3134" lon="6.05044">
        <ele>1792.4</ele>
        <time>2021-01-16T09:47:49Z</time>
      </trkpt>
      <trkpt lat="45.3134" lon="6.05044">
        <ele>1792.4</ele>
        <time>2021-01-16T09:47:50Z</time>
      </trkpt>
      <trkpt lat="45.3134" lon="6.05044">
        <ele>1792.6</ele>
        <time>2021-01-16T09:47:51Z</time>
      </trkpt>
      <trkpt lat="45.3134" lon="6.05044">
        <ele>1792.6</ele>
        <time>2021-01-16T09:47:52Z</time>
      </trkpt>
      <trkpt lat="45.31339" lon="6.05044">
        <ele>1792.6</ele>
        <time>2021-01-16T09:47:53Z</time>
      </trkpt>
      <trkpt lat="45.31336" lon="6.05043">
        <ele>1792.8</ele>
        <time>2021-01-16T09:47:54Z</time>
      </trkpt>
      <trkpt lat="45.31336" lon="6.05043">
        <ele>1792.8</ele>
        <time>2021-01-16T09:47:55Z</time>
      </trkpt>
      <trkpt lat="45.31335" lon="6.05043">
        <ele>1793</ele>
        <time>2021-01-16T09:47:56Z</time>
      </trkpt>
      <trkpt lat="45.31335" lon="6.05043">
        <ele>1793.2</ele>
        <time>2021-01-16T09:47:57Z</time>
      </trkpt>
      <trkpt lat="45.31335" lon="6.05043">
        <ele>1793.2</ele>
        <time>2021-01-16T09:47:58Z</time>
      </trkpt>
      <trkpt lat="45.31335" lon="6.05043">
        <ele>1793.2</ele>
        <time>2021-01-16T09:47:59Z</time>
      </trkpt>
      <trkpt lat="45.31335" lon="6.05043">
        <ele>1793.4</ele>
        <time>2021-01-16T09:48:00Z</time>
      </trkpt>
      <trkpt lat="45.31335" lon="6.05043">
        <ele>1793.4</ele>
        <time>2021-01-16T09:48:01Z</time>
      </trkpt>
      <trkpt lat="45.31335" lon="6.05043">
        <ele>1793.4</ele>
        <time>2021-01-16T09:48:02Z</time>
      </trkpt>
      <trkpt lat="45.31335" lon="6.05043">
        <ele>1793.4</ele>
        <time>2021-01-16T09:48:03Z</time>
      </trkpt>
      <trkpt lat="45.31335" lon="6.05043">
        <ele>1793.4</ele>
        <time>2021-01-16T09:48:04Z</time>
      </trkpt>
      <trkpt lat="45.31335" lon="6.05043">
        <ele>1793.4</ele>
        <time>2021-01-16T09:48:05Z</time>
      </trkpt>
      <trkpt lat="45.31335" lon="6.05043">
        <ele>1793.4</ele>
        <time>2021-01-16T09:48:06Z</time>
      </trkpt>
      <trkpt lat="45.31335" lon="6.05043">
        <ele>1793.4</ele>
        <time>2021-01-16T09:48:07Z</time>
      </trkpt>
      <trkpt lat="45.31335" lon="6.05043">
        <ele>1793.4</ele>
        <time>2021-01-16T09:48:08Z</time>
      </trkpt>
      <trkpt lat="45.31335" lon="6.05043">
        <ele>1793.4</ele>
        <time>2021-01-16T09:48:09Z</time>
      </trkpt>
      <trkpt lat="45.31335" lon="6.05043">
        <ele>1793.4</ele>
        <time>2021-01-16T09:48:10Z</time>
      </trkpt>
      <trkpt lat="45.31335" lon="6.05043">
        <ele>1793.4</ele>
        <time>2021-01-16T09:48:11Z</time>
      </trkpt>
      <trkpt lat="45.31335" lon="6.05043">
        <ele>1793.4</ele>
        <time>2021-01-16T09:48:12Z</time>
      </trkpt>
      <trkpt lat="45.31335" lon="6.05043">
        <ele>1793.4</ele>
        <time>2021-01-16T09:48:13Z</time>
      </trkpt>
      <trkpt lat="45.31335" lon="6.05043">
        <ele>1793.4</ele>
        <time>2021-01-16T09:48:14Z</time>
      </trkpt>
      <trkpt lat="45.31335" lon="6.05043">
        <ele>1793.4</ele>
        <time>2021-01-16T09:48:15Z</time>
      </trkpt>
      <trkpt lat="45.31335" lon="6.05043">
        <ele>1793.4</ele>
        <time>2021-01-16T09:48:16Z</time>
      </trkpt>
      <trkpt lat="45.31335" lon="6.05043">
        <ele>1793.4</ele>
        <time>2021-01-16T09:48:17Z</time>
      </trkpt>
      <trkpt lat="45.31335" lon="6.05043">
        <ele>1793.6</ele>
        <time>2021-01-16T09:48:18Z</time>
      </trkpt>
      <trkpt lat="45.31335" lon="6.05043">
        <ele>1793.6</ele>
        <time>2021-01-16T09:48:19Z</time>
      </trkpt>
      <trkpt lat="45.31335" lon="6.05043">
        <ele>1793.6</ele>
        <time>2021-01-16T09:48:20Z</time>
      </trkpt>
      <trkpt lat="45.31335" lon="6.05043">
        <ele>1793.6</ele>
        <time>2021-01-16T09:48:21Z</time>
      </trkpt>
      <trkpt lat="45.31335" lon="6.05043">
        <ele>1793.6</ele>
        <time>2021-01-16T09:48:22Z</time>
      </trkpt>
      <trkpt lat="45.31335" lon="6.05043">
        <ele>1793.6</ele>
        <time>2021-01-16T09:48:23Z</time>
      </trkpt>
      <trkpt lat="45.31335" lon="6.05043">
        <ele>1793.6</ele>
        <time>2021-01-16T09:48:24Z</time>
      </trkpt>
      <trkpt lat="45.31335" lon="6.05043">
        <ele>1793.6</ele>
        <time>2021-01-16T09:48:25Z</time>
      </trkpt>
      <trkpt lat="45.31335" lon="6.05043">
        <ele>1793.6</ele>
        <time>2021-01-16T09:48:26Z</time>
      </trkpt>
      <trkpt lat="45.31335" lon="6.05043">
        <ele>1793.6</ele>
        <time>2021-01-16T09:48:27Z</time>
      </trkpt>
      <trkpt lat="45.31335" lon="6.05043">
        <ele>1793.6</ele>
        <time>2021-01-16T09:48:28Z</time>
      </trkpt>
      <trkpt lat="45.31335" lon="6.05043">
        <ele>1793.6</ele>
        <time>2021-01-16T09:48:29Z</time>
      </trkpt>
      <trkpt lat="45.31335" lon="6.05043">
        <ele>1793.6</ele>
        <time>2021-01-16T09:48:30Z</time>
      </trkpt>
      <trkpt lat="45.31335" lon="6.05043">
        <ele>1793.6</ele>
        <time>2021-01-16T09:48:31Z</time>
      </trkpt>
      <trkpt lat="45.31335" lon="6.05043">
        <ele>1793.6</ele>
        <time>2021-01-16T09:48:32Z</time>
      </trkpt>
      <trkpt lat="45.31335" lon="6.05043">
        <ele>1793.6</ele>
        <time>2021-01-16T09:48:33Z</time>
      </trkpt>
      <trkpt lat="45.31335" lon="6.05043">
        <ele>1793.6</ele>
        <time>2021-01-16T09:48:34Z</time>
      </trkpt>
      <trkpt lat="45.31335" lon="6.05043">
        <ele>1793.6</ele>
        <time>2021-01-16T09:48:35Z</time>
      </trkpt>
      <trkpt lat="45.31335" lon="6.05043">
        <ele>1793.6</ele>
        <time>2021-01-16T09:48:36Z</time>
      </trkpt>
      <trkpt lat="45.31335" lon="6.05043">
        <ele>1793.6</ele>
        <time>2021-01-16T09:48:37Z</time>
      </trkpt>
      <trkpt lat="45.31335" lon="6.05043">
        <ele>1793.6</ele>
        <time>2021-01-16T09:48:38Z</time>
      </trkpt>
      <trkpt lat="45.31335" lon="6.05043">
        <ele>1793.6</ele>
        <time>2021-01-16T09:48:39Z</time>
      </trkpt>
      <trkpt lat="45.31335" lon="6.05043">
        <ele>1793.6</ele>
        <time>2021-01-16T09:48:40Z</time>
      </trkpt>
      <trkpt lat="45.31335" lon="6.05043">
        <ele>1793.6</ele>
        <time>2021-01-16T09:48:41Z</time>
      </trkpt>
      <trkpt lat="45.31335" lon="6.05043">
        <ele>1793.6</ele>
        <time>2021-01-16T09:48:42Z</time>
      </trkpt>
      <trkpt lat="45.31335" lon="6.05043">
        <ele>1793.6</ele>
        <time>2021-01-16T09:48:43Z</time>
      </trkpt>
      <trkpt lat="45.31335" lon="6.05043">
        <ele>1793.4</ele>
        <time>2021-01-16T09:48:44Z</time>
      </trkpt>
      <trkpt lat="45.31335" lon="6.05043">
        <ele>1793.6</ele>
        <time>2021-01-16T09:48:45Z</time>
      </trkpt>
      <trkpt lat="45.31335" lon="6.05043">
        <ele>1793.6</ele>
        <time>2021-01-16T09:48:46Z</time>
      </trkpt>
      <trkpt lat="45.31335" lon="6.05043">
        <ele>1793.6</ele>
        <time>2021-01-16T09:48:47Z</time>
      </trkpt>
      <trkpt lat="45.31335" lon="6.05043">
        <ele>1793.6</ele>
        <time>2021-01-16T09:48:48Z</time>
      </trkpt>
      <trkpt lat="45.31335" lon="6.05043">
        <ele>1793.6</ele>
        <time>2021-01-16T09:48:49Z</time>
      </trkpt>
      <trkpt lat="45.31335" lon="6.05043">
        <ele>1793.6</ele>
        <time>2021-01-16T09:48:50Z</time>
      </trkpt>
      <trkpt lat="45.31335" lon="6.05043">
        <ele>1793.6</ele>
        <time>2021-01-16T09:48:51Z</time>
      </trkpt>
      <trkpt lat="45.31335" lon="6.05043">
        <ele>1793.6</ele>
        <time>2021-01-16T09:48:52Z</time>
      </trkpt>
      <trkpt lat="45.31335" lon="6.05043">
        <ele>1793.6</ele>
        <time>2021-01-16T09:48:53Z</time>
      </trkpt>
      <trkpt lat="45.31335" lon="6.05043">
        <ele>1793.6</ele>
        <time>2021-01-16T09:48:54Z</time>
      </trkpt>
      <trkpt lat="45.31335" lon="6.05043">
        <ele>1793.6</ele>
        <time>2021-01-16T09:48:55Z</time>
      </trkpt>
      <trkpt lat="45.31335" lon="6.05043">
        <ele>1793.6</ele>
        <time>2021-01-16T09:48:56Z</time>
      </trkpt>
      <trkpt lat="45.31335" lon="6.05043">
        <ele>1793.6</ele>
        <time>2021-01-16T09:48:57Z</time>
      </trkpt>
      <trkpt lat="45.31335" lon="6.05043">
        <ele>1793.6</ele>
        <time>2021-01-16T09:48:58Z</time>
      </trkpt>
      <trkpt lat="45.31335" lon="6.05043">
        <ele>1793.6</ele>
        <time>2021-01-16T09:48:59Z</time>
      </trkpt>
      <trkpt lat="45.31335" lon="6.05043">
        <ele>1793.6</ele>
        <time>2021-01-16T09:49:00Z</time>
      </trkpt>
      <trkpt lat="45.31335" lon="6.05043">
        <ele>1793.6</ele>
        <time>2021-01-16T09:49:01Z</time>
      </trkpt>
      <trkpt lat="45.31335" lon="6.05043">
        <ele>1793.6</ele>
        <time>2021-01-16T09:49:02Z</time>
      </trkpt>
      <trkpt lat="45.31335" lon="6.05043">
        <ele>1793.6</ele>
        <time>2021-01-16T09:49:03Z</time>
      </trkpt>
      <trkpt lat="45.31335" lon="6.05043">
        <ele>1793.6</ele>
        <time>2021-01-16T09:49:04Z</time>
      </trkpt>
      <trkpt lat="45.31335" lon="6.05043">
        <ele>1793.6</ele>
        <time>2021-01-16T09:49:05Z</time>
      </trkpt>
      <trkpt lat="45.31335" lon="6.05043">
        <ele>1793.6</ele>
        <time>2021-01-16T09:49:06Z</time>
      </trkpt>
      <trkpt lat="45.31335" lon="6.05043">
        <ele>1793.6</ele>
        <time>2021-01-16T09:49:07Z</time>
      </trkpt>
      <trkpt lat="45.31335" lon="6.05043">
        <ele>1793.6</ele>
        <time>2021-01-16T09:49:08Z</time>
      </trkpt>
      <trkpt lat="45.31335" lon="6.05043">
        <ele>1793.6</ele>
        <time>2021-01-16T09:49:09Z</time>
      </trkpt>
      <trkpt lat="45.31335" lon="6.05043">
        <ele>1793.6</ele>
        <time>2021-01-16T09:49:10Z</time>
      </trkpt>
      <trkpt lat="45.31335" lon="6.05043">
        <ele>1793.6</ele>
        <time>2021-01-16T09:49:11Z</time>
      </trkpt>
      <trkpt lat="45.31335" lon="6.05043">
        <ele>1793.6</ele>
        <time>2021-01-16T09:49:12Z</time>
      </trkpt>
      <trkpt lat="45.31333" lon="6.05042">
        <ele>1793.6</ele>
        <time>2021-01-16T09:49:13Z</time>
      </trkpt>
      <trkpt lat="45.31333" lon="6.05041">
        <ele>1793.8</ele>
        <time>2021-01-16T09:49:14Z</time>
      </trkpt>
      <trkpt lat="45.31332" lon="6.05041">
        <ele>1793.8</ele>
        <time>2021-01-16T09:49:15Z</time>
      </trkpt>
      <trkpt lat="45.31331" lon="6.0504">
        <ele>1793.8</ele>
        <time>2021-01-16T09:49:16Z</time>
      </trkpt>
      <trkpt lat="45.3133" lon="6.0504">
        <ele>1794</ele>
        <time>2021-01-16T09:49:17Z</time>
      </trkpt>
      <trkpt lat="45.3133" lon="6.05039">
        <ele>1794.2</ele>
        <time>2021-01-16T09:49:18Z</time>
      </trkpt>
      <trkpt lat="45.31329" lon="6.05039">
        <ele>1794.4</ele>
        <time>2021-01-16T09:49:19Z</time>
      </trkpt>
      <trkpt lat="45.31328" lon="6.05038">
        <ele>1794.4</ele>
        <time>2021-01-16T09:49:20Z</time>
      </trkpt>
      <trkpt lat="45.31328" lon="6.05038">
        <ele>1794.4</ele>
        <time>2021-01-16T09:49:21Z</time>
      </trkpt>
      <trkpt lat="45.31327" lon="6.05038">
        <ele>1794.6</ele>
        <time>2021-01-16T09:49:22Z</time>
      </trkpt>
      <trkpt lat="45.31326" lon="6.05037">
        <ele>1794.8</ele>
        <time>2021-01-16T09:49:23Z</time>
      </trkpt>
      <trkpt lat="45.31325" lon="6.05037">
        <ele>1794.8</ele>
        <time>2021-01-16T09:49:24Z</time>
      </trkpt>
      <trkpt lat="45.31324" lon="6.05037">
        <ele>1795</ele>
        <time>2021-01-16T09:49:25Z</time>
      </trkpt>
      <trkpt lat="45.31323" lon="6.05037">
        <ele>1795</ele>
        <time>2021-01-16T09:49:26Z</time>
      </trkpt>
      <trkpt lat="45.31322" lon="6.05036">
        <ele>1795</ele>
        <time>2021-01-16T09:49:27Z</time>
      </trkpt>
      <trkpt lat="45.31322" lon="6.05036">
        <ele>1795.4</ele>
        <time>2021-01-16T09:49:28Z</time>
      </trkpt>
      <trkpt lat="45.31321" lon="6.05036">
        <ele>1795.4</ele>
        <time>2021-01-16T09:49:29Z</time>
      </trkpt>
      <trkpt lat="45.3132" lon="6.05036">
        <ele>1795.6</ele>
        <time>2021-01-16T09:49:30Z</time>
      </trkpt>
      <trkpt lat="45.31319" lon="6.05034">
        <ele>1795.6</ele>
        <time>2021-01-16T09:49:31Z</time>
      </trkpt>
      <trkpt lat="45.31319" lon="6.05034">
        <ele>1795.8</ele>
        <time>2021-01-16T09:49:32Z</time>
      </trkpt>
      <trkpt lat="45.31317" lon="6.05034">
        <ele>1796</ele>
        <time>2021-01-16T09:49:33Z</time>
      </trkpt>
      <trkpt lat="45.31317" lon="6.05033">
        <ele>1796</ele>
        <time>2021-01-16T09:49:34Z</time>
      </trkpt>
      <trkpt lat="45.31316" lon="6.05033">
        <ele>1796.2</ele>
        <time>2021-01-16T09:49:35Z</time>
      </trkpt>
      <trkpt lat="45.31316" lon="6.05032">
        <ele>1796.4</ele>
        <time>2021-01-16T09:49:36Z</time>
      </trkpt>
      <trkpt lat="45.31315" lon="6.05032">
        <ele>1796.6</ele>
        <time>2021-01-16T09:49:37Z</time>
      </trkpt>
      <trkpt lat="45.31314" lon="6.05031">
        <ele>1796.6</ele>
        <time>2021-01-16T09:49:38Z</time>
      </trkpt>
      <trkpt lat="45.31314" lon="6.05031">
        <ele>1796.6</ele>
        <time>2021-01-16T09:49:39Z</time>
      </trkpt>
      <trkpt lat="45.31313" lon="6.05031">
        <ele>1796.6</ele>
        <time>2021-01-16T09:49:40Z</time>
      </trkpt>
      <trkpt lat="45.31312" lon="6.0503">
        <ele>1796.8</ele>
        <time>2021-01-16T09:49:41Z</time>
      </trkpt>
      <trkpt lat="45.31312" lon="6.0503">
        <ele>1796.8</ele>
        <time>2021-01-16T09:49:42Z</time>
      </trkpt>
      <trkpt lat="45.31311" lon="6.05029">
        <ele>1797</ele>
        <time>2021-01-16T09:49:43Z</time>
      </trkpt>
      <trkpt lat="45.3131" lon="6.05029">
        <ele>1797</ele>
        <time>2021-01-16T09:49:44Z</time>
      </trkpt>
      <trkpt lat="45.31309" lon="6.05028">
        <ele>1797.2</ele>
        <time>2021-01-16T09:49:45Z</time>
      </trkpt>
      <trkpt lat="45.31309" lon="6.05028">
        <ele>1797.4</ele>
        <time>2021-01-16T09:49:46Z</time>
      </trkpt>
      <trkpt lat="45.31308" lon="6.05028">
        <ele>1797.4</ele>
        <time>2021-01-16T09:49:47Z</time>
      </trkpt>
      <trkpt lat="45.31307" lon="6.05027">
        <ele>1797.6</ele>
        <time>2021-01-16T09:49:48Z</time>
      </trkpt>
      <trkpt lat="45.31306" lon="6.05026">
        <ele>1797.6</ele>
        <time>2021-01-16T09:49:49Z</time>
      </trkpt>
      <trkpt lat="45.31306" lon="6.05026">
        <ele>1797.8</ele>
        <time>2021-01-16T09:49:50Z</time>
      </trkpt>
      <trkpt lat="45.31304" lon="6.05025">
        <ele>1797.8</ele>
        <time>2021-01-16T09:49:51Z</time>
      </trkpt>
      <trkpt lat="45.31304" lon="6.05025">
        <ele>1798</ele>
        <time>2021-01-16T09:49:52Z</time>
      </trkpt>
      <trkpt lat="45.31303" lon="6.05024">
        <ele>1798.2</ele>
        <time>2021-01-16T09:49:53Z</time>
      </trkpt>
      <trkpt lat="45.31302" lon="6.05024">
        <ele>1798.2</ele>
        <time>2021-01-16T09:49:54Z</time>
      </trkpt>
      <trkpt lat="45.31301" lon="6.05024">
        <ele>1798.2</ele>
        <time>2021-01-16T09:49:55Z</time>
      </trkpt>
      <trkpt lat="45.313" lon="6.05023">
        <ele>1798.4</ele>
        <time>2021-01-16T09:49:56Z</time>
      </trkpt>
      <trkpt lat="45.31299" lon="6.05023">
        <ele>1798.6</ele>
        <time>2021-01-16T09:49:57Z</time>
      </trkpt>
      <trkpt lat="45.31298" lon="6.05023">
        <ele>1798.8</ele>
        <time>2021-01-16T09:49:58Z</time>
      </trkpt>
      <trkpt lat="45.31298" lon="6.05022">
        <ele>1799</ele>
        <time>2021-01-16T09:49:59Z</time>
      </trkpt>
      <trkpt lat="45.31297" lon="6.05022">
        <ele>1799</ele>
        <time>2021-01-16T09:50:00Z</time>
      </trkpt>
      <trkpt lat="45.31296" lon="6.05022">
        <ele>1799</ele>
        <time>2021-01-16T09:50:01Z</time>
      </trkpt>
      <trkpt lat="45.31295" lon="6.05021">
        <ele>1799.2</ele>
        <time>2021-01-16T09:50:02Z</time>
      </trkpt>
      <trkpt lat="45.31295" lon="6.05021">
        <ele>1799.4</ele>
        <time>2021-01-16T09:50:03Z</time>
      </trkpt>
      <trkpt lat="45.31294" lon="6.0502">
        <ele>1799.6</ele>
        <time>2021-01-16T09:50:04Z</time>
      </trkpt>
      <trkpt lat="45.31293" lon="6.0502">
        <ele>1799.6</ele>
        <time>2021-01-16T09:50:05Z</time>
      </trkpt>
      <trkpt lat="45.31292" lon="6.0502">
        <ele>1799.8</ele>
        <time>2021-01-16T09:50:06Z</time>
      </trkpt>
      <trkpt lat="45.31292" lon="6.05019">
        <ele>1800</ele>
        <time>2021-01-16T09:50:07Z</time>
      </trkpt>
      <trkpt lat="45.31291" lon="6.05019">
        <ele>1800</ele>
        <time>2021-01-16T09:50:08Z</time>
      </trkpt>
      <trkpt lat="45.31291" lon="6.05019">
        <ele>1800.4</ele>
        <time>2021-01-16T09:50:09Z</time>
      </trkpt>
      <trkpt lat="45.3129" lon="6.05018">
        <ele>1800.4</ele>
        <time>2021-01-16T09:50:10Z</time>
      </trkpt>
      <trkpt lat="45.31289" lon="6.05018">
        <ele>1800.6</ele>
        <time>2021-01-16T09:50:11Z</time>
      </trkpt>
      <trkpt lat="45.31288" lon="6.05018">
        <ele>1800.8</ele>
        <time>2021-01-16T09:50:12Z</time>
      </trkpt>
      <trkpt lat="45.31288" lon="6.05018">
        <ele>1801</ele>
        <time>2021-01-16T09:50:13Z</time>
      </trkpt>
      <trkpt lat="45.31287" lon="6.05018">
        <ele>1801.2</ele>
        <time>2021-01-16T09:50:14Z</time>
      </trkpt>
      <trkpt lat="45.31287" lon="6.05018">
        <ele>1801.4</ele>
        <time>2021-01-16T09:50:15Z</time>
      </trkpt>
      <trkpt lat="45.31286" lon="6.05018">
        <ele>1801.4</ele>
        <time>2021-01-16T09:50:16Z</time>
      </trkpt>
      <trkpt lat="45.31285" lon="6.05018">
        <ele>1801.6</ele>
        <time>2021-01-16T09:50:17Z</time>
      </trkpt>
      <trkpt lat="45.31284" lon="6.05019">
        <ele>1801.8</ele>
        <time>2021-01-16T09:50:18Z</time>
      </trkpt>
      <trkpt lat="45.31284" lon="6.05019">
        <ele>1801.8</ele>
        <time>2021-01-16T09:50:19Z</time>
      </trkpt>
      <trkpt lat="45.31283" lon="6.05019">
        <ele>1802</ele>
        <time>2021-01-16T09:50:20Z</time>
      </trkpt>
      <trkpt lat="45.31282" lon="6.0502">
        <ele>1802.2</ele>
        <time>2021-01-16T09:50:21Z</time>
      </trkpt>
      <trkpt lat="45.31282" lon="6.0502">
        <ele>1802.2</ele>
        <time>2021-01-16T09:50:22Z</time>
      </trkpt>
      <trkpt lat="45.31281" lon="6.0502">
        <ele>1802.4</ele>
        <time>2021-01-16T09:50:23Z</time>
      </trkpt>
      <trkpt lat="45.3128" lon="6.05021">
        <ele>1802.4</ele>
        <time>2021-01-16T09:50:24Z</time>
      </trkpt>
      <trkpt lat="45.3128" lon="6.05021">
        <ele>1802.6</ele>
        <time>2021-01-16T09:50:25Z</time>
      </trkpt>
      <trkpt lat="45.31279" lon="6.05021">
        <ele>1802.6</ele>
        <time>2021-01-16T09:50:26Z</time>
      </trkpt>
      <trkpt lat="45.31278" lon="6.05022">
        <ele>1802.8</ele>
        <time>2021-01-16T09:50:27Z</time>
      </trkpt>
      <trkpt lat="45.31277" lon="6.05022">
        <ele>1802.8</ele>
        <time>2021-01-16T09:50:28Z</time>
      </trkpt>
      <trkpt lat="45.31276" lon="6.05022">
        <ele>1803</ele>
        <time>2021-01-16T09:50:29Z</time>
      </trkpt>
      <trkpt lat="45.31276" lon="6.05023">
        <ele>1803</ele>
        <time>2021-01-16T09:50:30Z</time>
      </trkpt>
      <trkpt lat="45.31275" lon="6.05023">
        <ele>1803.2</ele>
        <time>2021-01-16T09:50:31Z</time>
      </trkpt>
      <trkpt lat="45.31274" lon="6.05023">
        <ele>1803.2</ele>
        <time>2021-01-16T09:50:32Z</time>
      </trkpt>
      <trkpt lat="45.31273" lon="6.05023">
        <ele>1803.4</ele>
        <time>2021-01-16T09:50:33Z</time>
      </trkpt>
      <trkpt lat="45.31272" lon="6.05022">
        <ele>1803.6</ele>
        <time>2021-01-16T09:50:34Z</time>
      </trkpt>
      <trkpt lat="45.31272" lon="6.05022">
        <ele>1803.6</ele>
        <time>2021-01-16T09:50:35Z</time>
      </trkpt>
      <trkpt lat="45.31271" lon="6.05022">
        <ele>1803.6</ele>
        <time>2021-01-16T09:50:36Z</time>
      </trkpt>
      <trkpt lat="45.3127" lon="6.05022">
        <ele>1803.6</ele>
        <time>2021-01-16T09:50:37Z</time>
      </trkpt>
      <trkpt lat="45.31269" lon="6.05022">
        <ele>1803.8</ele>
        <time>2021-01-16T09:50:38Z</time>
      </trkpt>
      <trkpt lat="45.31269" lon="6.05022">
        <ele>1803.8</ele>
        <time>2021-01-16T09:50:39Z</time>
      </trkpt>
      <trkpt lat="45.31268" lon="6.05022">
        <ele>1804</ele>
        <time>2021-01-16T09:50:40Z</time>
      </trkpt>
      <trkpt lat="45.31267" lon="6.05022">
        <ele>1804</ele>
        <time>2021-01-16T09:50:41Z</time>
      </trkpt>
      <trkpt lat="45.31266" lon="6.05022">
        <ele>1804.2</ele>
        <time>2021-01-16T09:50:42Z</time>
      </trkpt>
      <trkpt lat="45.31266" lon="6.05022">
        <ele>1804</ele>
        <time>2021-01-16T09:50:43Z</time>
      </trkpt>
      <trkpt lat="45.31265" lon="6.05022">
        <ele>1804.4</ele>
        <time>2021-01-16T09:50:44Z</time>
      </trkpt>
      <trkpt lat="45.31264" lon="6.05022">
        <ele>1804.4</ele>
        <time>2021-01-16T09:50:45Z</time>
      </trkpt>
      <trkpt lat="45.31264" lon="6.05022">
        <ele>1804.6</ele>
        <time>2021-01-16T09:50:46Z</time>
      </trkpt>
      <trkpt lat="45.31263" lon="6.05022">
        <ele>1804.8</ele>
        <time>2021-01-16T09:50:47Z</time>
      </trkpt>
      <trkpt lat="45.31262" lon="6.05021">
        <ele>1804.8</ele>
        <time>2021-01-16T09:50:48Z</time>
      </trkpt>
      <trkpt lat="45.31261" lon="6.05021">
        <ele>1805</ele>
        <time>2021-01-16T09:50:49Z</time>
      </trkpt>
      <trkpt lat="45.31261" lon="6.05021">
        <ele>1805.2</ele>
        <time>2021-01-16T09:50:50Z</time>
      </trkpt>
      <trkpt lat="45.3126" lon="6.0502">
        <ele>1805.2</ele>
        <time>2021-01-16T09:50:51Z</time>
      </trkpt>
      <trkpt lat="45.31259" lon="6.0502">
        <ele>1805.4</ele>
        <time>2021-01-16T09:50:52Z</time>
      </trkpt>
      <trkpt lat="45.31259" lon="6.05019">
        <ele>1805.4</ele>
        <time>2021-01-16T09:50:53Z</time>
      </trkpt>
      <trkpt lat="45.31258" lon="6.05019">
        <ele>1805.6</ele>
        <time>2021-01-16T09:50:54Z</time>
      </trkpt>
      <trkpt lat="45.31257" lon="6.05019">
        <ele>1805.8</ele>
        <time>2021-01-16T09:50:55Z</time>
      </trkpt>
      <trkpt lat="45.31256" lon="6.05019">
        <ele>1805.8</ele>
        <time>2021-01-16T09:50:56Z</time>
      </trkpt>
      <trkpt lat="45.31256" lon="6.05018">
        <ele>1806</ele>
        <time>2021-01-16T09:50:57Z</time>
      </trkpt>
      <trkpt lat="45.31255" lon="6.05018">
        <ele>1806.2</ele>
        <time>2021-01-16T09:50:58Z</time>
      </trkpt>
      <trkpt lat="45.31254" lon="6.05018">
        <ele>1806.4</ele>
        <time>2021-01-16T09:50:59Z</time>
      </trkpt>
      <trkpt lat="45.31254" lon="6.05018">
        <ele>1806.4</ele>
        <time>2021-01-16T09:51:00Z</time>
      </trkpt>
      <trkpt lat="45.31253" lon="6.05017">
        <ele>1806.6</ele>
        <time>2021-01-16T09:51:01Z</time>
      </trkpt>
      <trkpt lat="45.31253" lon="6.05017">
        <ele>1806.8</ele>
        <time>2021-01-16T09:51:02Z</time>
      </trkpt>
      <trkpt lat="45.31252" lon="6.05017">
        <ele>1806.8</ele>
        <time>2021-01-16T09:51:03Z</time>
      </trkpt>
      <trkpt lat="45.31251" lon="6.05016">
        <ele>1807</ele>
        <time>2021-01-16T09:51:04Z</time>
      </trkpt>
      <trkpt lat="45.31251" lon="6.05016">
        <ele>1807.2</ele>
        <time>2021-01-16T09:51:05Z</time>
      </trkpt>
      <trkpt lat="45.3125" lon="6.05016">
        <ele>1807.2</ele>
        <time>2021-01-16T09:51:06Z</time>
      </trkpt>
      <trkpt lat="45.3125" lon="6.05015">
        <ele>1807.4</ele>
        <time>2021-01-16T09:51:07Z</time>
      </trkpt>
      <trkpt lat="45.31249" lon="6.05015">
        <ele>1807.4</ele>
        <time>2021-01-16T09:51:08Z</time>
      </trkpt>
      <trkpt lat="45.31248" lon="6.05015">
        <ele>1807.6</ele>
        <time>2021-01-16T09:51:09Z</time>
      </trkpt>
      <trkpt lat="45.31247" lon="6.05014">
        <ele>1807.6</ele>
        <time>2021-01-16T09:51:10Z</time>
      </trkpt>
      <trkpt lat="45.31247" lon="6.05014">
        <ele>1807.8</ele>
        <time>2021-01-16T09:51:11Z</time>
      </trkpt>
      <trkpt lat="45.31246" lon="6.05014">
        <ele>1807.8</ele>
        <time>2021-01-16T09:51:12Z</time>
      </trkpt>
      <trkpt lat="45.31245" lon="6.05014">
        <ele>1808</ele>
        <time>2021-01-16T09:51:13Z</time>
      </trkpt>
      <trkpt lat="45.31245" lon="6.05014">
        <ele>1808.2</ele>
        <time>2021-01-16T09:51:14Z</time>
      </trkpt>
      <trkpt lat="45.31244" lon="6.05013">
        <ele>1808.2</ele>
        <time>2021-01-16T09:51:15Z</time>
      </trkpt>
      <trkpt lat="45.31243" lon="6.05013">
        <ele>1808.2</ele>
        <time>2021-01-16T09:51:16Z</time>
      </trkpt>
      <trkpt lat="45.31242" lon="6.05013">
        <ele>1808.4</ele>
        <time>2021-01-16T09:51:17Z</time>
      </trkpt>
      <trkpt lat="45.31242" lon="6.05013">
        <ele>1808.4</ele>
        <time>2021-01-16T09:51:18Z</time>
      </trkpt>
      <trkpt lat="45.31241" lon="6.05013">
        <ele>1808.8</ele>
        <time>2021-01-16T09:51:19Z</time>
      </trkpt>
      <trkpt lat="45.3124" lon="6.05013">
        <ele>1808.8</ele>
        <time>2021-01-16T09:51:20Z</time>
      </trkpt>
      <trkpt lat="45.3124" lon="6.05013">
        <ele>1809</ele>
        <time>2021-01-16T09:51:21Z</time>
      </trkpt>
      <trkpt lat="45.31239" lon="6.05012">
        <ele>1809.2</ele>
        <time>2021-01-16T09:51:22Z</time>
      </trkpt>
      <trkpt lat="45.31239" lon="6.05012">
        <ele>1809.2</ele>
        <time>2021-01-16T09:51:23Z</time>
      </trkpt>
      <trkpt lat="45.31238" lon="6.05012">
        <ele>1809.4</ele>
        <time>2021-01-16T09:51:24Z</time>
      </trkpt>
      <trkpt lat="45.31237" lon="6.05011">
        <ele>1809.4</ele>
        <time>2021-01-16T09:51:25Z</time>
      </trkpt>
      <trkpt lat="45.31237" lon="6.05011">
        <ele>1809.6</ele>
        <time>2021-01-16T09:51:26Z</time>
      </trkpt>
      <trkpt lat="45.31236" lon="6.05011">
        <ele>1809.8</ele>
        <time>2021-01-16T09:51:27Z</time>
      </trkpt>
      <trkpt lat="45.31235" lon="6.05011">
        <ele>1809.8</ele>
        <time>2021-01-16T09:51:28Z</time>
      </trkpt>
      <trkpt lat="45.31235" lon="6.05011">
        <ele>1810</ele>
        <time>2021-01-16T09:51:29Z</time>
      </trkpt>
      <trkpt lat="45.31235" lon="6.05011">
        <ele>1810</ele>
        <time>2021-01-16T09:51:30Z</time>
      </trkpt>
      <trkpt lat="45.31235" lon="6.05011">
        <ele>1810</ele>
        <time>2021-01-16T09:51:31Z</time>
      </trkpt>
      <trkpt lat="45.31235" lon="6.05011">
        <ele>1810</ele>
        <time>2021-01-16T09:51:32Z</time>
      </trkpt>
      <trkpt lat="45.31235" lon="6.05011">
        <ele>1810.2</ele>
        <time>2021-01-16T09:51:33Z</time>
      </trkpt>
      <trkpt lat="45.31235" lon="6.05012">
        <ele>1810</ele>
        <time>2021-01-16T09:51:34Z</time>
      </trkpt>
      <trkpt lat="45.31236" lon="6.05014">
        <ele>1810.2</ele>
        <time>2021-01-16T09:51:35Z</time>
      </trkpt>
      <trkpt lat="45.31237" lon="6.05015">
        <ele>1810.2</ele>
        <time>2021-01-16T09:51:36Z</time>
      </trkpt>
      <trkpt lat="45.31237" lon="6.05016">
        <ele>1810.4</ele>
        <time>2021-01-16T09:51:37Z</time>
      </trkpt>
      <trkpt lat="45.31238" lon="6.05016">
        <ele>1810.6</ele>
        <time>2021-01-16T09:51:38Z</time>
      </trkpt>
      <trkpt lat="45.31238" lon="6.05017">
        <ele>1810.6</ele>
        <time>2021-01-16T09:51:39Z</time>
      </trkpt>
      <trkpt lat="45.31239" lon="6.05018">
        <ele>1810.8</ele>
        <time>2021-01-16T09:51:40Z</time>
      </trkpt>
      <trkpt lat="45.31239" lon="6.05019">
        <ele>1811</ele>
        <time>2021-01-16T09:51:41Z</time>
      </trkpt>
      <trkpt lat="45.3124" lon="6.05019">
        <ele>1811</ele>
        <time>2021-01-16T09:51:42Z</time>
      </trkpt>
      <trkpt lat="45.3124" lon="6.0502">
        <ele>1811.2</ele>
        <time>2021-01-16T09:51:43Z</time>
      </trkpt>
      <trkpt lat="45.31241" lon="6.05021">
        <ele>1811.2</ele>
        <time>2021-01-16T09:51:44Z</time>
      </trkpt>
      <trkpt lat="45.31241" lon="6.05022">
        <ele>1811.6</ele>
        <time>2021-01-16T09:51:45Z</time>
      </trkpt>
      <trkpt lat="45.31241" lon="6.05022">
        <ele>1811.6</ele>
        <time>2021-01-16T09:51:46Z</time>
      </trkpt>
      <trkpt lat="45.31242" lon="6.05023">
        <ele>1811.8</ele>
        <time>2021-01-16T09:51:47Z</time>
      </trkpt>
      <trkpt lat="45.31242" lon="6.05024">
        <ele>1812</ele>
        <time>2021-01-16T09:51:48Z</time>
      </trkpt>
      <trkpt lat="45.31243" lon="6.05025">
        <ele>1812</ele>
        <time>2021-01-16T09:51:49Z</time>
      </trkpt>
      <trkpt lat="45.31243" lon="6.05026">
        <ele>1812.2</ele>
        <time>2021-01-16T09:51:50Z</time>
      </trkpt>
      <trkpt lat="45.31244" lon="6.05027">
        <ele>1812.4</ele>
        <time>2021-01-16T09:51:51Z</time>
      </trkpt>
      <trkpt lat="45.31244" lon="6.05028">
        <ele>1812.4</ele>
        <time>2021-01-16T09:51:52Z</time>
      </trkpt>
      <trkpt lat="45.31244" lon="6.05029">
        <ele>1812.6</ele>
        <time>2021-01-16T09:51:53Z</time>
      </trkpt>
      <trkpt lat="45.31245" lon="6.05029">
        <ele>1812.8</ele>
        <time>2021-01-16T09:51:54Z</time>
      </trkpt>
      <trkpt lat="45.31245" lon="6.0503">
        <ele>1813</ele>
        <time>2021-01-16T09:51:55Z</time>
      </trkpt>
      <trkpt lat="45.31245" lon="6.05031">
        <ele>1813</ele>
        <time>2021-01-16T09:51:56Z</time>
      </trkpt>
      <trkpt lat="45.31245" lon="6.05032">
        <ele>1813</ele>
        <time>2021-01-16T09:51:57Z</time>
      </trkpt>
      <trkpt lat="45.31245" lon="6.05033">
        <ele>1813</ele>
        <time>2021-01-16T09:51:58Z</time>
      </trkpt>
      <trkpt lat="45.31245" lon="6.05033">
        <ele>1813.2</ele>
        <time>2021-01-16T09:51:59Z</time>
      </trkpt>
      <trkpt lat="45.31245" lon="6.05033">
        <ele>1813.4</ele>
        <time>2021-01-16T09:52:00Z</time>
      </trkpt>
      <trkpt lat="45.31245" lon="6.05033">
        <ele>1813.4</ele>
        <time>2021-01-16T09:52:01Z</time>
      </trkpt>
      <trkpt lat="45.31245" lon="6.05033">
        <ele>1813.4</ele>
        <time>2021-01-16T09:52:02Z</time>
      </trkpt>
      <trkpt lat="45.31245" lon="6.05033">
        <ele>1813.4</ele>
        <time>2021-01-16T09:52:03Z</time>
      </trkpt>
      <trkpt lat="45.31245" lon="6.05033">
        <ele>1813.6</ele>
        <time>2021-01-16T09:52:04Z</time>
      </trkpt>
      <trkpt lat="45.31245" lon="6.05033">
        <ele>1813.6</ele>
        <time>2021-01-16T09:52:05Z</time>
      </trkpt>
      <trkpt lat="45.31245" lon="6.05033">
        <ele>1813.6</ele>
        <time>2021-01-16T09:52:06Z</time>
      </trkpt>
      <trkpt lat="45.31244" lon="6.05033">
        <ele>1813.6</ele>
        <time>2021-01-16T09:52:07Z</time>
      </trkpt>
      <trkpt lat="45.31243" lon="6.05032">
        <ele>1813.6</ele>
        <time>2021-01-16T09:52:08Z</time>
      </trkpt>
      <trkpt lat="45.31242" lon="6.05032">
        <ele>1813.6</ele>
        <time>2021-01-16T09:52:09Z</time>
      </trkpt>
      <trkpt lat="45.31242" lon="6.05032">
        <ele>1813.8</ele>
        <time>2021-01-16T09:52:10Z</time>
      </trkpt>
      <trkpt lat="45.31241" lon="6.05032">
        <ele>1814</ele>
        <time>2021-01-16T09:52:11Z</time>
      </trkpt>
      <trkpt lat="45.3124" lon="6.05032">
        <ele>1814</ele>
        <time>2021-01-16T09:52:12Z</time>
      </trkpt>
      <trkpt lat="45.31239" lon="6.05032">
        <ele>1814</ele>
        <time>2021-01-16T09:52:13Z</time>
      </trkpt>
      <trkpt lat="45.31239" lon="6.05031">
        <ele>1814</ele>
        <time>2021-01-16T09:52:14Z</time>
      </trkpt>
      <trkpt lat="45.31238" lon="6.05031">
        <ele>1814.2</ele>
        <time>2021-01-16T09:52:15Z</time>
      </trkpt>
      <trkpt lat="45.31237" lon="6.05031">
        <ele>1814.2</ele>
        <time>2021-01-16T09:52:16Z</time>
      </trkpt>
      <trkpt lat="45.31236" lon="6.05031">
        <ele>1814.4</ele>
        <time>2021-01-16T09:52:17Z</time>
      </trkpt>
      <trkpt lat="45.31235" lon="6.05031">
        <ele>1814.4</ele>
        <time>2021-01-16T09:52:18Z</time>
      </trkpt>
      <trkpt lat="45.31235" lon="6.05031">
        <ele>1814.6</ele>
        <time>2021-01-16T09:52:19Z</time>
      </trkpt>
      <trkpt lat="45.31234" lon="6.05031">
        <ele>1814.8</ele>
        <time>2021-01-16T09:52:20Z</time>
      </trkpt>
      <trkpt lat="45.31233" lon="6.05031">
        <ele>1814.8</ele>
        <time>2021-01-16T09:52:21Z</time>
      </trkpt>
      <trkpt lat="45.31232" lon="6.05031">
        <ele>1815</ele>
        <time>2021-01-16T09:52:22Z</time>
      </trkpt>
      <trkpt lat="45.31232" lon="6.05031">
        <ele>1815.2</ele>
        <time>2021-01-16T09:52:23Z</time>
      </trkpt>
      <trkpt lat="45.31231" lon="6.0503">
        <ele>1815.2</ele>
        <time>2021-01-16T09:52:24Z</time>
      </trkpt>
      <trkpt lat="45.3123" lon="6.0503">
        <ele>1815.2</ele>
        <time>2021-01-16T09:52:25Z</time>
      </trkpt>
      <trkpt lat="45.31229" lon="6.0503">
        <ele>1815.4</ele>
        <time>2021-01-16T09:52:26Z</time>
      </trkpt>
      <trkpt lat="45.31228" lon="6.0503">
        <ele>1815.4</ele>
        <time>2021-01-16T09:52:27Z</time>
      </trkpt>
      <trkpt lat="45.31227" lon="6.0503">
        <ele>1815.6</ele>
        <time>2021-01-16T09:52:28Z</time>
      </trkpt>
      <trkpt lat="45.31227" lon="6.0503">
        <ele>1815.6</ele>
        <time>2021-01-16T09:52:29Z</time>
      </trkpt>
      <trkpt lat="45.31226" lon="6.0503">
        <ele>1815.8</ele>
        <time>2021-01-16T09:52:30Z</time>
      </trkpt>
      <trkpt lat="45.31226" lon="6.0503">
        <ele>1816</ele>
        <time>2021-01-16T09:52:31Z</time>
      </trkpt>
      <trkpt lat="45.31225" lon="6.0503">
        <ele>1816.2</ele>
        <time>2021-01-16T09:52:32Z</time>
      </trkpt>
      <trkpt lat="45.31224" lon="6.0503">
        <ele>1816.2</ele>
        <time>2021-01-16T09:52:33Z</time>
      </trkpt>
      <trkpt lat="45.31224" lon="6.0503">
        <ele>1816.4</ele>
        <time>2021-01-16T09:52:34Z</time>
      </trkpt>
      <trkpt lat="45.31223" lon="6.0503">
        <ele>1816.6</ele>
        <time>2021-01-16T09:52:35Z</time>
      </trkpt>
      <trkpt lat="45.31223" lon="6.0503">
        <ele>1816.6</ele>
        <time>2021-01-16T09:52:36Z</time>
      </trkpt>
      <trkpt lat="45.31222" lon="6.0503">
        <ele>1816.8</ele>
        <time>2021-01-16T09:52:37Z</time>
      </trkpt>
      <trkpt lat="45.31221" lon="6.0503">
        <ele>1816.8</ele>
        <time>2021-01-16T09:52:38Z</time>
      </trkpt>
      <trkpt lat="45.31221" lon="6.0503">
        <ele>1816.8</ele>
        <time>2021-01-16T09:52:39Z</time>
      </trkpt>
      <trkpt lat="45.3122" lon="6.0503">
        <ele>1817</ele>
        <time>2021-01-16T09:52:40Z</time>
      </trkpt>
      <trkpt lat="45.3122" lon="6.05031">
        <ele>1817</ele>
        <time>2021-01-16T09:52:41Z</time>
      </trkpt>
      <trkpt lat="45.31219" lon="6.05031">
        <ele>1817.2</ele>
        <time>2021-01-16T09:52:42Z</time>
      </trkpt>
      <trkpt lat="45.31219" lon="6.05031">
        <ele>1817.2</ele>
        <time>2021-01-16T09:52:43Z</time>
      </trkpt>
      <trkpt lat="45.31219" lon="6.05031">
        <ele>1817.4</ele>
        <time>2021-01-16T09:52:44Z</time>
      </trkpt>
      <trkpt lat="45.31218" lon="6.05031">
        <ele>1817.4</ele>
        <time>2021-01-16T09:52:45Z</time>
      </trkpt>
      <trkpt lat="45.31217" lon="6.05031">
        <ele>1817.6</ele>
        <time>2021-01-16T09:52:46Z</time>
      </trkpt>
      <trkpt lat="45.31217" lon="6.05031">
        <ele>1817.6</ele>
        <time>2021-01-16T09:52:47Z</time>
      </trkpt>
      <trkpt lat="45.31216" lon="6.05031">
        <ele>1817.8</ele>
        <time>2021-01-16T09:52:48Z</time>
      </trkpt>
      <trkpt lat="45.31216" lon="6.05031">
        <ele>1818</ele>
        <time>2021-01-16T09:52:49Z</time>
      </trkpt>
      <trkpt lat="45.31215" lon="6.05032">
        <ele>1818</ele>
        <time>2021-01-16T09:52:50Z</time>
      </trkpt>
      <trkpt lat="45.31215" lon="6.05032">
        <ele>1818.2</ele>
        <time>2021-01-16T09:52:51Z</time>
      </trkpt>
      <trkpt lat="45.31214" lon="6.05033">
        <ele>1818.4</ele>
        <time>2021-01-16T09:52:52Z</time>
      </trkpt>
      <trkpt lat="45.31213" lon="6.05033">
        <ele>1818.6</ele>
        <time>2021-01-16T09:52:53Z</time>
      </trkpt>
      <trkpt lat="45.31213" lon="6.05033">
        <ele>1818.6</ele>
        <time>2021-01-16T09:52:54Z</time>
      </trkpt>
      <trkpt lat="45.31212" lon="6.05033">
        <ele>1818.6</ele>
        <time>2021-01-16T09:52:55Z</time>
      </trkpt>
      <trkpt lat="45.31211" lon="6.05034">
        <ele>1819</ele>
        <time>2021-01-16T09:52:56Z</time>
      </trkpt>
      <trkpt lat="45.3121" lon="6.05034">
        <ele>1819</ele>
        <time>2021-01-16T09:52:57Z</time>
      </trkpt>
      <trkpt lat="45.31209" lon="6.05034">
        <ele>1819.2</ele>
        <time>2021-01-16T09:52:58Z</time>
      </trkpt>
      <trkpt lat="45.31209" lon="6.05034">
        <ele>1819.2</ele>
        <time>2021-01-16T09:52:59Z</time>
      </trkpt>
      <trkpt lat="45.31208" lon="6.05035">
        <ele>1819.4</ele>
        <time>2021-01-16T09:53:00Z</time>
      </trkpt>
      <trkpt lat="45.31208" lon="6.05035">
        <ele>1819.4</ele>
        <time>2021-01-16T09:53:01Z</time>
      </trkpt>
      <trkpt lat="45.31207" lon="6.05035">
        <ele>1819.6</ele>
        <time>2021-01-16T09:53:02Z</time>
      </trkpt>
      <trkpt lat="45.31206" lon="6.05035">
        <ele>1819.8</ele>
        <time>2021-01-16T09:53:03Z</time>
      </trkpt>
      <trkpt lat="45.31206" lon="6.05035">
        <ele>1819.8</ele>
        <time>2021-01-16T09:53:04Z</time>
      </trkpt>
      <trkpt lat="45.31205" lon="6.05035">
        <ele>1820</ele>
        <time>2021-01-16T09:53:05Z</time>
      </trkpt>
      <trkpt lat="45.31205" lon="6.05035">
        <ele>1820</ele>
        <time>2021-01-16T09:53:06Z</time>
      </trkpt>
      <trkpt lat="45.31204" lon="6.05035">
        <ele>1820</ele>
        <time>2021-01-16T09:53:07Z</time>
      </trkpt>
      <trkpt lat="45.31203" lon="6.05035">
        <ele>1820.2</ele>
        <time>2021-01-16T09:53:08Z</time>
      </trkpt>
      <trkpt lat="45.31203" lon="6.05036">
        <ele>1820.2</ele>
        <time>2021-01-16T09:53:09Z</time>
      </trkpt>
      <trkpt lat="45.31202" lon="6.05035">
        <ele>1820.4</ele>
        <time>2021-01-16T09:53:10Z</time>
      </trkpt>
      <trkpt lat="45.31201" lon="6.05035">
        <ele>1820.6</ele>
        <time>2021-01-16T09:53:11Z</time>
      </trkpt>
      <trkpt lat="45.31201" lon="6.05036">
        <ele>1820.8</ele>
        <time>2021-01-16T09:53:12Z</time>
      </trkpt>
      <trkpt lat="45.312" lon="6.05036">
        <ele>1820.8</ele>
        <time>2021-01-16T09:53:13Z</time>
      </trkpt>
      <trkpt lat="45.31199" lon="6.05036">
        <ele>1821</ele>
        <time>2021-01-16T09:53:14Z</time>
      </trkpt>
      <trkpt lat="45.31198" lon="6.05036">
        <ele>1821.2</ele>
        <time>2021-01-16T09:53:15Z</time>
      </trkpt>
      <trkpt lat="45.31198" lon="6.05035">
        <ele>1821.2</ele>
        <time>2021-01-16T09:53:16Z</time>
      </trkpt>
      <trkpt lat="45.31196" lon="6.05035">
        <ele>1821.2</ele>
        <time>2021-01-16T09:53:17Z</time>
      </trkpt>
      <trkpt lat="45.31196" lon="6.05035">
        <ele>1821.4</ele>
        <time>2021-01-16T09:53:18Z</time>
      </trkpt>
      <trkpt lat="45.31195" lon="6.05036">
        <ele>1821.4</ele>
        <time>2021-01-16T09:53:19Z</time>
      </trkpt>
      <trkpt lat="45.31195" lon="6.05036">
        <ele>1821.6</ele>
        <time>2021-01-16T09:53:20Z</time>
      </trkpt>
      <trkpt lat="45.31194" lon="6.05035">
        <ele>1821.6</ele>
        <time>2021-01-16T09:53:21Z</time>
      </trkpt>
      <trkpt lat="45.31193" lon="6.05035">
        <ele>1821.8</ele>
        <time>2021-01-16T09:53:22Z</time>
      </trkpt>
      <trkpt lat="45.31192" lon="6.05035">
        <ele>1821.8</ele>
        <time>2021-01-16T09:53:23Z</time>
      </trkpt>
      <trkpt lat="45.31192" lon="6.05035">
        <ele>1821.8</ele>
        <time>2021-01-16T09:53:24Z</time>
      </trkpt>
      <trkpt lat="45.31191" lon="6.05035">
        <ele>1822</ele>
        <time>2021-01-16T09:53:25Z</time>
      </trkpt>
      <trkpt lat="45.3119" lon="6.05035">
        <ele>1822</ele>
        <time>2021-01-16T09:53:26Z</time>
      </trkpt>
      <trkpt lat="45.3119" lon="6.05036">
        <ele>1822</ele>
        <time>2021-01-16T09:53:27Z</time>
      </trkpt>
      <trkpt lat="45.31189" lon="6.05035">
        <ele>1822.2</ele>
        <time>2021-01-16T09:53:28Z</time>
      </trkpt>
      <trkpt lat="45.31188" lon="6.05036">
        <ele>1822.2</ele>
        <time>2021-01-16T09:53:29Z</time>
      </trkpt>
      <trkpt lat="45.31188" lon="6.05036">
        <ele>1822.4</ele>
        <time>2021-01-16T09:53:30Z</time>
      </trkpt>
      <trkpt lat="45.31187" lon="6.05035">
        <ele>1822.6</ele>
        <time>2021-01-16T09:53:31Z</time>
      </trkpt>
      <trkpt lat="45.31187" lon="6.05035">
        <ele>1822.6</ele>
        <time>2021-01-16T09:53:32Z</time>
      </trkpt>
      <trkpt lat="45.31186" lon="6.05035">
        <ele>1822.8</ele>
        <time>2021-01-16T09:53:33Z</time>
      </trkpt>
      <trkpt lat="45.31186" lon="6.05035">
        <ele>1822.8</ele>
        <time>2021-01-16T09:53:34Z</time>
      </trkpt>
      <trkpt lat="45.31186" lon="6.05035">
        <ele>1823</ele>
        <time>2021-01-16T09:53:35Z</time>
      </trkpt>
      <trkpt lat="45.31186" lon="6.05035">
        <ele>1823</ele>
        <time>2021-01-16T09:53:36Z</time>
      </trkpt>
      <trkpt lat="45.31184" lon="6.05035">
        <ele>1823.2</ele>
        <time>2021-01-16T09:53:37Z</time>
      </trkpt>
      <trkpt lat="45.31183" lon="6.05035">
        <ele>1823.2</ele>
        <time>2021-01-16T09:53:38Z</time>
      </trkpt>
      <trkpt lat="45.31182" lon="6.05035">
        <ele>1823.2</ele>
        <time>2021-01-16T09:53:39Z</time>
      </trkpt>
      <trkpt lat="45.31181" lon="6.05034">
        <ele>1823.4</ele>
        <time>2021-01-16T09:53:40Z</time>
      </trkpt>
      <trkpt lat="45.31181" lon="6.05035">
        <ele>1823.4</ele>
        <time>2021-01-16T09:53:41Z</time>
      </trkpt>
      <trkpt lat="45.3118" lon="6.05035">
        <ele>1823.6</ele>
        <time>2021-01-16T09:53:42Z</time>
      </trkpt>
      <trkpt lat="45.3118" lon="6.05035">
        <ele>1823.6</ele>
        <time>2021-01-16T09:53:43Z</time>
      </trkpt>
      <trkpt lat="45.31179" lon="6.05035">
        <ele>1823.6</ele>
        <time>2021-01-16T09:53:44Z</time>
      </trkpt>
      <trkpt lat="45.31178" lon="6.05034">
        <ele>1823.8</ele>
        <time>2021-01-16T09:53:45Z</time>
      </trkpt>
      <trkpt lat="45.31177" lon="6.05034">
        <ele>1823.8</ele>
        <time>2021-01-16T09:53:46Z</time>
      </trkpt>
      <trkpt lat="45.31177" lon="6.05034">
        <ele>1824</ele>
        <time>2021-01-16T09:53:47Z</time>
      </trkpt>
      <trkpt lat="45.31176" lon="6.05034">
        <ele>1824.2</ele>
        <time>2021-01-16T09:53:48Z</time>
      </trkpt>
      <trkpt lat="45.31176" lon="6.05034">
        <ele>1824.2</ele>
        <time>2021-01-16T09:53:49Z</time>
      </trkpt>
      <trkpt lat="45.31175" lon="6.05034">
        <ele>1824.4</ele>
        <time>2021-01-16T09:53:50Z</time>
      </trkpt>
      <trkpt lat="45.31174" lon="6.05033">
        <ele>1824.4</ele>
        <time>2021-01-16T09:53:51Z</time>
      </trkpt>
      <trkpt lat="45.31173" lon="6.05033">
        <ele>1824.6</ele>
        <time>2021-01-16T09:53:52Z</time>
      </trkpt>
      <trkpt lat="45.31172" lon="6.05033">
        <ele>1824.6</ele>
        <time>2021-01-16T09:53:53Z</time>
      </trkpt>
      <trkpt lat="45.31172" lon="6.05033">
        <ele>1824.8</ele>
        <time>2021-01-16T09:53:54Z</time>
      </trkpt>
      <trkpt lat="45.31171" lon="6.05033">
        <ele>1825</ele>
        <time>2021-01-16T09:53:55Z</time>
      </trkpt>
      <trkpt lat="45.31171" lon="6.05033">
        <ele>1825</ele>
        <time>2021-01-16T09:53:56Z</time>
      </trkpt>
      <trkpt lat="45.3117" lon="6.05033">
        <ele>1825.2</ele>
        <time>2021-01-16T09:53:57Z</time>
      </trkpt>
      <trkpt lat="45.31169" lon="6.05033">
        <ele>1825.2</ele>
        <time>2021-01-16T09:53:58Z</time>
      </trkpt>
      <trkpt lat="45.31168" lon="6.05032">
        <ele>1825.4</ele>
        <time>2021-01-16T09:53:59Z</time>
      </trkpt>
      <trkpt lat="45.31168" lon="6.05032">
        <ele>1825.6</ele>
        <time>2021-01-16T09:54:00Z</time>
      </trkpt>
      <trkpt lat="45.31167" lon="6.05032">
        <ele>1825.6</ele>
        <time>2021-01-16T09:54:01Z</time>
      </trkpt>
      <trkpt lat="45.31166" lon="6.05032">
        <ele>1825.8</ele>
        <time>2021-01-16T09:54:02Z</time>
      </trkpt>
      <trkpt lat="45.31165" lon="6.05032">
        <ele>1826</ele>
        <time>2021-01-16T09:54:03Z</time>
      </trkpt>
      <trkpt lat="45.31165" lon="6.05031">
        <ele>1826</ele>
        <time>2021-01-16T09:54:04Z</time>
      </trkpt>
      <trkpt lat="45.31164" lon="6.05031">
        <ele>1826.2</ele>
        <time>2021-01-16T09:54:05Z</time>
      </trkpt>
      <trkpt lat="45.31163" lon="6.05031">
        <ele>1826.4</ele>
        <time>2021-01-16T09:54:06Z</time>
      </trkpt>
      <trkpt lat="45.31163" lon="6.05031">
        <ele>1826.4</ele>
        <time>2021-01-16T09:54:07Z</time>
      </trkpt>
      <trkpt lat="45.31162" lon="6.05031">
        <ele>1826.6</ele>
        <time>2021-01-16T09:54:08Z</time>
      </trkpt>
      <trkpt lat="45.31161" lon="6.05031">
        <ele>1826.6</ele>
        <time>2021-01-16T09:54:09Z</time>
      </trkpt>
      <trkpt lat="45.31161" lon="6.05031">
        <ele>1826.8</ele>
        <time>2021-01-16T09:54:10Z</time>
      </trkpt>
      <trkpt lat="45.3116" lon="6.05031">
        <ele>1826.8</ele>
        <time>2021-01-16T09:54:11Z</time>
      </trkpt>
      <trkpt lat="45.31159" lon="6.0503">
        <ele>1826.8</ele>
        <time>2021-01-16T09:54:12Z</time>
      </trkpt>
      <trkpt lat="45.31159" lon="6.0503">
        <ele>1826.8</ele>
        <time>2021-01-16T09:54:13Z</time>
      </trkpt>
      <trkpt lat="45.31158" lon="6.0503">
        <ele>1827</ele>
        <time>2021-01-16T09:54:14Z</time>
      </trkpt>
      <trkpt lat="45.31158" lon="6.0503">
        <ele>1827</ele>
        <time>2021-01-16T09:54:15Z</time>
      </trkpt>
      <trkpt lat="45.31157" lon="6.0503">
        <ele>1827.2</ele>
        <time>2021-01-16T09:54:16Z</time>
      </trkpt>
      <trkpt lat="45.31156" lon="6.05031">
        <ele>1827.2</ele>
        <time>2021-01-16T09:54:17Z</time>
      </trkpt>
      <trkpt lat="45.31156" lon="6.05031">
        <ele>1827.4</ele>
        <time>2021-01-16T09:54:18Z</time>
      </trkpt>
      <trkpt lat="45.31155" lon="6.05031">
        <ele>1827.4</ele>
        <time>2021-01-16T09:54:19Z</time>
      </trkpt>
      <trkpt lat="45.31155" lon="6.05031">
        <ele>1827.6</ele>
        <time>2021-01-16T09:54:20Z</time>
      </trkpt>
      <trkpt lat="45.31154" lon="6.05031">
        <ele>1827.4</ele>
        <time>2021-01-16T09:54:21Z</time>
      </trkpt>
      <trkpt lat="45.31153" lon="6.05031">
        <ele>1827.6</ele>
        <time>2021-01-16T09:54:22Z</time>
      </trkpt>
      <trkpt lat="45.31153" lon="6.05032">
        <ele>1827.8</ele>
        <time>2021-01-16T09:54:23Z</time>
      </trkpt>
      <trkpt lat="45.31152" lon="6.05032">
        <ele>1827.8</ele>
        <time>2021-01-16T09:54:24Z</time>
      </trkpt>
      <trkpt lat="45.31151" lon="6.05032">
        <ele>1828</ele>
        <time>2021-01-16T09:54:25Z</time>
      </trkpt>
      <trkpt lat="45.31151" lon="6.05032">
        <ele>1828</ele>
        <time>2021-01-16T09:54:26Z</time>
      </trkpt>
      <trkpt lat="45.3115" lon="6.05032">
        <ele>1828.2</ele>
        <time>2021-01-16T09:54:27Z</time>
      </trkpt>
      <trkpt lat="45.31149" lon="6.05032">
        <ele>1828.2</ele>
        <time>2021-01-16T09:54:28Z</time>
      </trkpt>
      <trkpt lat="45.31148" lon="6.05032">
        <ele>1828.4</ele>
        <time>2021-01-16T09:54:29Z</time>
      </trkpt>
      <trkpt lat="45.31148" lon="6.05032">
        <ele>1828.4</ele>
        <time>2021-01-16T09:54:30Z</time>
      </trkpt>
      <trkpt lat="45.31147" lon="6.05032">
        <ele>1828.4</ele>
        <time>2021-01-16T09:54:31Z</time>
      </trkpt>
      <trkpt lat="45.31147" lon="6.05032">
        <ele>1828.6</ele>
        <time>2021-01-16T09:54:32Z</time>
      </trkpt>
      <trkpt lat="45.31146" lon="6.05032">
        <ele>1828.6</ele>
        <time>2021-01-16T09:54:33Z</time>
      </trkpt>
      <trkpt lat="45.31145" lon="6.05032">
        <ele>1828.6</ele>
        <time>2021-01-16T09:54:34Z</time>
      </trkpt>
      <trkpt lat="45.31144" lon="6.05032">
        <ele>1828.8</ele>
        <time>2021-01-16T09:54:35Z</time>
      </trkpt>
      <trkpt lat="45.31144" lon="6.05033">
        <ele>1829</ele>
        <time>2021-01-16T09:54:36Z</time>
      </trkpt>
      <trkpt lat="45.31143" lon="6.05033">
        <ele>1829</ele>
        <time>2021-01-16T09:54:37Z</time>
      </trkpt>
      <trkpt lat="45.31142" lon="6.05033">
        <ele>1829.2</ele>
        <time>2021-01-16T09:54:38Z</time>
      </trkpt>
      <trkpt lat="45.31142" lon="6.05033">
        <ele>1829.2</ele>
        <time>2021-01-16T09:54:39Z</time>
      </trkpt>
      <trkpt lat="45.31141" lon="6.05033">
        <ele>1829.4</ele>
        <time>2021-01-16T09:54:40Z</time>
      </trkpt>
      <trkpt lat="45.3114" lon="6.05034">
        <ele>1829.4</ele>
        <time>2021-01-16T09:54:41Z</time>
      </trkpt>
      <trkpt lat="45.3114" lon="6.05034">
        <ele>1829.4</ele>
        <time>2021-01-16T09:54:42Z</time>
      </trkpt>
      <trkpt lat="45.31139" lon="6.05034">
        <ele>1829.4</ele>
        <time>2021-01-16T09:54:43Z</time>
      </trkpt>
      <trkpt lat="45.31138" lon="6.05034">
        <ele>1829.4</ele>
        <time>2021-01-16T09:54:44Z</time>
      </trkpt>
      <trkpt lat="45.31137" lon="6.05035">
        <ele>1829.2</ele>
        <time>2021-01-16T09:54:45Z</time>
      </trkpt>
      <trkpt lat="45.31136" lon="6.05035">
        <ele>1829.4</ele>
        <time>2021-01-16T09:54:46Z</time>
      </trkpt>
      <trkpt lat="45.31136" lon="6.05035">
        <ele>1829.6</ele>
        <time>2021-01-16T09:54:47Z</time>
      </trkpt>
      <trkpt lat="45.31135" lon="6.05035">
        <ele>1829.8</ele>
        <time>2021-01-16T09:54:48Z</time>
      </trkpt>
      <trkpt lat="45.31134" lon="6.05036">
        <ele>1829.8</ele>
        <time>2021-01-16T09:54:49Z</time>
      </trkpt>
      <trkpt lat="45.31134" lon="6.05036">
        <ele>1830</ele>
        <time>2021-01-16T09:54:50Z</time>
      </trkpt>
      <trkpt lat="45.31133" lon="6.05036">
        <ele>1830</ele>
        <time>2021-01-16T09:54:51Z</time>
      </trkpt>
      <trkpt lat="45.31132" lon="6.05036">
        <ele>1830.2</ele>
        <time>2021-01-16T09:54:52Z</time>
      </trkpt>
      <trkpt lat="45.31132" lon="6.05037">
        <ele>1830.2</ele>
        <time>2021-01-16T09:54:53Z</time>
      </trkpt>
      <trkpt lat="45.31132" lon="6.05037">
        <ele>1830.4</ele>
        <time>2021-01-16T09:54:54Z</time>
      </trkpt>
      <trkpt lat="45.31131" lon="6.05038">
        <ele>1830.6</ele>
        <time>2021-01-16T09:54:55Z</time>
      </trkpt>
      <trkpt lat="45.3113" lon="6.05038">
        <ele>1830.6</ele>
        <time>2021-01-16T09:54:56Z</time>
      </trkpt>
      <trkpt lat="45.3113" lon="6.05039">
        <ele>1830.8</ele>
        <time>2021-01-16T09:54:57Z</time>
      </trkpt>
      <trkpt lat="45.31129" lon="6.05039">
        <ele>1831</ele>
        <time>2021-01-16T09:54:58Z</time>
      </trkpt>
      <trkpt lat="45.31129" lon="6.0504">
        <ele>1831</ele>
        <time>2021-01-16T09:54:59Z</time>
      </trkpt>
      <trkpt lat="45.31128" lon="6.05041">
        <ele>1831</ele>
        <time>2021-01-16T09:55:00Z</time>
      </trkpt>
      <trkpt lat="45.31127" lon="6.05042">
        <ele>1831</ele>
        <time>2021-01-16T09:55:01Z</time>
      </trkpt>
      <trkpt lat="45.31127" lon="6.05043">
        <ele>1831</ele>
        <time>2021-01-16T09:55:02Z</time>
      </trkpt>
      <trkpt lat="45.31125" lon="6.05045">
        <ele>1830.6</ele>
        <time>2021-01-16T09:55:03Z</time>
      </trkpt>
      <trkpt lat="45.31124" lon="6.05047">
        <ele>1830.4</ele>
        <time>2021-01-16T09:55:04Z</time>
      </trkpt>
      <trkpt lat="45.31122" lon="6.05049">
        <ele>1830</ele>
        <time>2021-01-16T09:55:05Z</time>
      </trkpt>
      <trkpt lat="45.31121" lon="6.0505">
        <ele>1829.8</ele>
        <time>2021-01-16T09:55:06Z</time>
      </trkpt>
      <trkpt lat="45.3112" lon="6.05051">
        <ele>1829.6</ele>
        <time>2021-01-16T09:55:07Z</time>
      </trkpt>
      <trkpt lat="45.31119" lon="6.05052">
        <ele>1829.4</ele>
        <time>2021-01-16T09:55:08Z</time>
      </trkpt>
      <trkpt lat="45.31119" lon="6.05052">
        <ele>1829.4</ele>
        <time>2021-01-16T09:55:09Z</time>
      </trkpt>
      <trkpt lat="45.31118" lon="6.05053">
        <ele>1829.4</ele>
        <time>2021-01-16T09:55:10Z</time>
      </trkpt>
      <trkpt lat="45.31118" lon="6.05054">
        <ele>1829.4</ele>
        <time>2021-01-16T09:55:11Z</time>
      </trkpt>
      <trkpt lat="45.31117" lon="6.05054">
        <ele>1829.4</ele>
        <time>2021-01-16T09:55:12Z</time>
      </trkpt>
      <trkpt lat="45.31116" lon="6.05055">
        <ele>1829.4</ele>
        <time>2021-01-16T09:55:13Z</time>
      </trkpt>
      <trkpt lat="45.31116" lon="6.05056">
        <ele>1829.6</ele>
        <time>2021-01-16T09:55:14Z</time>
      </trkpt>
      <trkpt lat="45.31115" lon="6.05056">
        <ele>1829.6</ele>
        <time>2021-01-16T09:55:15Z</time>
      </trkpt>
      <trkpt lat="45.31114" lon="6.05056">
        <ele>1829.8</ele>
        <time>2021-01-16T09:55:16Z</time>
      </trkpt>
      <trkpt lat="45.31114" lon="6.05057">
        <ele>1829.8</ele>
        <time>2021-01-16T09:55:17Z</time>
      </trkpt>
      <trkpt lat="45.31113" lon="6.05058">
        <ele>1830</ele>
        <time>2021-01-16T09:55:18Z</time>
      </trkpt>
      <trkpt lat="45.31113" lon="6.05058">
        <ele>1830</ele>
        <time>2021-01-16T09:55:19Z</time>
      </trkpt>
      <trkpt lat="45.31112" lon="6.05059">
        <ele>1830.2</ele>
        <time>2021-01-16T09:55:20Z</time>
      </trkpt>
      <trkpt lat="45.31112" lon="6.05059">
        <ele>1830.4</ele>
        <time>2021-01-16T09:55:21Z</time>
      </trkpt>
      <trkpt lat="45.31111" lon="6.0506">
        <ele>1830.4</ele>
        <time>2021-01-16T09:55:22Z</time>
      </trkpt>
      <trkpt lat="45.3111" lon="6.0506">
        <ele>1830.6</ele>
        <time>2021-01-16T09:55:23Z</time>
      </trkpt>
      <trkpt lat="45.3111" lon="6.05061">
        <ele>1830.6</ele>
        <time>2021-01-16T09:55:24Z</time>
      </trkpt>
      <trkpt lat="45.31109" lon="6.05062">
        <ele>1830.6</ele>
        <time>2021-01-16T09:55:25Z</time>
      </trkpt>
      <trkpt lat="45.31109" lon="6.05062">
        <ele>1830.8</ele>
        <time>2021-01-16T09:55:26Z</time>
      </trkpt>
      <trkpt lat="45.31108" lon="6.05063">
        <ele>1830.8</ele>
        <time>2021-01-16T09:55:27Z</time>
      </trkpt>
      <trkpt lat="45.31108" lon="6.05063">
        <ele>1831</ele>
        <time>2021-01-16T09:55:28Z</time>
      </trkpt>
      <trkpt lat="45.31108" lon="6.05063">
        <ele>1831</ele>
        <time>2021-01-16T09:55:29Z</time>
      </trkpt>
      <trkpt lat="45.31108" lon="6.05063">
        <ele>1831</ele>
        <time>2021-01-16T09:55:30Z</time>
      </trkpt>
      <trkpt lat="45.31108" lon="6.05063">
        <ele>1831</ele>
        <time>2021-01-16T09:55:31Z</time>
      </trkpt>
      <trkpt lat="45.31108" lon="6.05063">
        <ele>1831</ele>
        <time>2021-01-16T09:55:32Z</time>
      </trkpt>
      <trkpt lat="45.31108" lon="6.05063">
        <ele>1831</ele>
        <time>2021-01-16T09:55:33Z</time>
      </trkpt>
      <trkpt lat="45.31108" lon="6.05063">
        <ele>1831</ele>
        <time>2021-01-16T09:55:34Z</time>
      </trkpt>
      <trkpt lat="45.31108" lon="6.05063">
        <ele>1831</ele>
        <time>2021-01-16T09:55:35Z</time>
      </trkpt>
      <trkpt lat="45.31108" lon="6.05063">
        <ele>1831</ele>
        <time>2021-01-16T09:55:36Z</time>
      </trkpt>
      <trkpt lat="45.31108" lon="6.05063">
        <ele>1831</ele>
        <time>2021-01-16T09:55:37Z</time>
      </trkpt>
      <trkpt lat="45.31107" lon="6.05063">
        <ele>1831</ele>
        <time>2021-01-16T09:55:38Z</time>
      </trkpt>
      <trkpt lat="45.31106" lon="6.05064">
        <ele>1831</ele>
        <time>2021-01-16T09:55:39Z</time>
      </trkpt>
      <trkpt lat="45.31106" lon="6.05065">
        <ele>1830.8</ele>
        <time>2021-01-16T09:55:40Z</time>
      </trkpt>
      <trkpt lat="45.31105" lon="6.05066">
        <ele>1830.8</ele>
        <time>2021-01-16T09:55:41Z</time>
      </trkpt>
      <trkpt lat="45.31104" lon="6.05066">
        <ele>1831</ele>
        <time>2021-01-16T09:55:42Z</time>
      </trkpt>
      <trkpt lat="45.31104" lon="6.05067">
        <ele>1831</ele>
        <time>2021-01-16T09:55:43Z</time>
      </trkpt>
      <trkpt lat="45.31104" lon="6.05068">
        <ele>1831</ele>
        <time>2021-01-16T09:55:44Z</time>
      </trkpt>
      <trkpt lat="45.31104" lon="6.05068">
        <ele>1831.2</ele>
        <time>2021-01-16T09:55:45Z</time>
      </trkpt>
      <trkpt lat="45.31104" lon="6.05069">
        <ele>1831.2</ele>
        <time>2021-01-16T09:55:46Z</time>
      </trkpt>
      <trkpt lat="45.31104" lon="6.0507">
        <ele>1831.4</ele>
        <time>2021-01-16T09:55:47Z</time>
      </trkpt>
      <trkpt lat="45.31105" lon="6.05071">
        <ele>1831.4</ele>
        <time>2021-01-16T09:55:48Z</time>
      </trkpt>
      <trkpt lat="45.31105" lon="6.05071">
        <ele>1831.4</ele>
        <time>2021-01-16T09:55:49Z</time>
      </trkpt>
      <trkpt lat="45.31105" lon="6.05073">
        <ele>1831.6</ele>
        <time>2021-01-16T09:55:50Z</time>
      </trkpt>
      <trkpt lat="45.31105" lon="6.05074">
        <ele>1831.8</ele>
        <time>2021-01-16T09:55:51Z</time>
      </trkpt>
      <trkpt lat="45.31105" lon="6.05075">
        <ele>1831.8</ele>
        <time>2021-01-16T09:55:52Z</time>
      </trkpt>
      <trkpt lat="45.31105" lon="6.05075">
        <ele>1832</ele>
        <time>2021-01-16T09:55:53Z</time>
      </trkpt>
      <trkpt lat="45.31105" lon="6.05076">
        <ele>1832</ele>
        <time>2021-01-16T09:55:54Z</time>
      </trkpt>
      <trkpt lat="45.31105" lon="6.05077">
        <ele>1832.2</ele>
        <time>2021-01-16T09:55:55Z</time>
      </trkpt>
      <trkpt lat="45.31105" lon="6.05078">
        <ele>1832.2</ele>
        <time>2021-01-16T09:55:56Z</time>
      </trkpt>
      <trkpt lat="45.31105" lon="6.05079">
        <ele>1832.4</ele>
        <time>2021-01-16T09:55:57Z</time>
      </trkpt>
      <trkpt lat="45.31105" lon="6.05079">
        <ele>1832.4</ele>
        <time>2021-01-16T09:55:58Z</time>
      </trkpt>
      <trkpt lat="45.31105" lon="6.05079">
        <ele>1832.6</ele>
        <time>2021-01-16T09:55:59Z</time>
      </trkpt>
      <trkpt lat="45.31105" lon="6.0508">
        <ele>1832.8</ele>
        <time>2021-01-16T09:56:00Z</time>
      </trkpt>
      <trkpt lat="45.31105" lon="6.05083">
        <ele>1832.8</ele>
        <time>2021-01-16T09:56:01Z</time>
      </trkpt>
      <trkpt lat="45.31105" lon="6.05084">
        <ele>1833</ele>
        <time>2021-01-16T09:56:02Z</time>
      </trkpt>
      <trkpt lat="45.31105" lon="6.05085">
        <ele>1833</ele>
        <time>2021-01-16T09:56:03Z</time>
      </trkpt>
      <trkpt lat="45.31105" lon="6.05086">
        <ele>1833.2</ele>
        <time>2021-01-16T09:56:04Z</time>
      </trkpt>
      <trkpt lat="45.31105" lon="6.05087">
        <ele>1833.2</ele>
        <time>2021-01-16T09:56:05Z</time>
      </trkpt>
      <trkpt lat="45.31105" lon="6.05088">
        <ele>1833.4</ele>
        <time>2021-01-16T09:56:06Z</time>
      </trkpt>
      <trkpt lat="45.31105" lon="6.05089">
        <ele>1833.6</ele>
        <time>2021-01-16T09:56:07Z</time>
      </trkpt>
      <trkpt lat="45.31105" lon="6.05089">
        <ele>1833.6</ele>
        <time>2021-01-16T09:56:08Z</time>
      </trkpt>
      <trkpt lat="45.31105" lon="6.0509">
        <ele>1833.8</ele>
        <time>2021-01-16T09:56:09Z</time>
      </trkpt>
      <trkpt lat="45.31105" lon="6.05091">
        <ele>1833.8</ele>
        <time>2021-01-16T09:56:10Z</time>
      </trkpt>
      <trkpt lat="45.31105" lon="6.05092">
        <ele>1834</ele>
        <time>2021-01-16T09:56:11Z</time>
      </trkpt>
      <trkpt lat="45.31105" lon="6.05093">
        <ele>1834.2</ele>
        <time>2021-01-16T09:56:12Z</time>
      </trkpt>
      <trkpt lat="45.31105" lon="6.05094">
        <ele>1834.2</ele>
        <time>2021-01-16T09:56:13Z</time>
      </trkpt>
      <trkpt lat="45.31105" lon="6.05095">
        <ele>1834.2</ele>
        <time>2021-01-16T09:56:14Z</time>
      </trkpt>
      <trkpt lat="45.31105" lon="6.05095">
        <ele>1834.4</ele>
        <time>2021-01-16T09:56:15Z</time>
      </trkpt>
      <trkpt lat="45.31105" lon="6.05096">
        <ele>1834.6</ele>
        <time>2021-01-16T09:56:16Z</time>
      </trkpt>
      <trkpt lat="45.31105" lon="6.05097">
        <ele>1834.8</ele>
        <time>2021-01-16T09:56:17Z</time>
      </trkpt>
      <trkpt lat="45.31105" lon="6.05098">
        <ele>1834.8</ele>
        <time>2021-01-16T09:56:18Z</time>
      </trkpt>
      <trkpt lat="45.31105" lon="6.05099">
        <ele>1835</ele>
        <time>2021-01-16T09:56:19Z</time>
      </trkpt>
      <trkpt lat="45.31106" lon="6.05099">
        <ele>1835</ele>
        <time>2021-01-16T09:56:20Z</time>
      </trkpt>
      <trkpt lat="45.31106" lon="6.05101">
        <ele>1835</ele>
        <time>2021-01-16T09:56:21Z</time>
      </trkpt>
      <trkpt lat="45.31106" lon="6.05102">
        <ele>1835.2</ele>
        <time>2021-01-16T09:56:22Z</time>
      </trkpt>
      <trkpt lat="45.31106" lon="6.05103">
        <ele>1835.2</ele>
        <time>2021-01-16T09:56:23Z</time>
      </trkpt>
      <trkpt lat="45.31106" lon="6.05104">
        <ele>1835.4</ele>
        <time>2021-01-16T09:56:24Z</time>
      </trkpt>
      <trkpt lat="45.31106" lon="6.05104">
        <ele>1835.4</ele>
        <time>2021-01-16T09:56:25Z</time>
      </trkpt>
      <trkpt lat="45.31106" lon="6.05105">
        <ele>1835.6</ele>
        <time>2021-01-16T09:56:26Z</time>
      </trkpt>
      <trkpt lat="45.31106" lon="6.05105">
        <ele>1835.8</ele>
        <time>2021-01-16T09:56:27Z</time>
      </trkpt>
      <trkpt lat="45.31106" lon="6.05105">
        <ele>1835.8</ele>
        <time>2021-01-16T09:56:28Z</time>
      </trkpt>
      <trkpt lat="45.31106" lon="6.05106">
        <ele>1836</ele>
        <time>2021-01-16T09:56:29Z</time>
      </trkpt>
      <trkpt lat="45.31107" lon="6.05109">
        <ele>1836.2</ele>
        <time>2021-01-16T09:56:30Z</time>
      </trkpt>
      <trkpt lat="45.31107" lon="6.0511">
        <ele>1836.2</ele>
        <time>2021-01-16T09:56:31Z</time>
      </trkpt>
      <trkpt lat="45.31107" lon="6.05111">
        <ele>1836.4</ele>
        <time>2021-01-16T09:56:32Z</time>
      </trkpt>
      <trkpt lat="45.31107" lon="6.05112">
        <ele>1836.4</ele>
        <time>2021-01-16T09:56:33Z</time>
      </trkpt>
      <trkpt lat="45.31107" lon="6.05113">
        <ele>1836.4</ele>
        <time>2021-01-16T09:56:34Z</time>
      </trkpt>
      <trkpt lat="45.31107" lon="6.05114">
        <ele>1836.4</ele>
        <time>2021-01-16T09:56:35Z</time>
      </trkpt>
      <trkpt lat="45.31107" lon="6.05115">
        <ele>1836.6</ele>
        <time>2021-01-16T09:56:36Z</time>
      </trkpt>
      <trkpt lat="45.31107" lon="6.05116">
        <ele>1836.6</ele>
        <time>2021-01-16T09:56:37Z</time>
      </trkpt>
      <trkpt lat="45.31108" lon="6.05117">
        <ele>1836.8</ele>
        <time>2021-01-16T09:56:38Z</time>
      </trkpt>
      <trkpt lat="45.31108" lon="6.05118">
        <ele>1837</ele>
        <time>2021-01-16T09:56:39Z</time>
      </trkpt>
      <trkpt lat="45.31108" lon="6.05119">
        <ele>1837</ele>
        <time>2021-01-16T09:56:40Z</time>
      </trkpt>
      <trkpt lat="45.31108" lon="6.05119">
        <ele>1837.2</ele>
        <time>2021-01-16T09:56:41Z</time>
      </trkpt>
      <trkpt lat="45.31109" lon="6.0512">
        <ele>1837.2</ele>
        <time>2021-01-16T09:56:42Z</time>
      </trkpt>
      <trkpt lat="45.31109" lon="6.05121">
        <ele>1837.4</ele>
        <time>2021-01-16T09:56:43Z</time>
      </trkpt>
      <trkpt lat="45.31109" lon="6.05122">
        <ele>1837.4</ele>
        <time>2021-01-16T09:56:44Z</time>
      </trkpt>
      <trkpt lat="45.31109" lon="6.05123">
        <ele>1837.6</ele>
        <time>2021-01-16T09:56:45Z</time>
      </trkpt>
      <trkpt lat="45.31109" lon="6.05123">
        <ele>1837.6</ele>
        <time>2021-01-16T09:56:46Z</time>
      </trkpt>
      <trkpt lat="45.31109" lon="6.05124">
        <ele>1837.8</ele>
        <time>2021-01-16T09:56:47Z</time>
      </trkpt>
      <trkpt lat="45.31109" lon="6.05124">
        <ele>1838</ele>
        <time>2021-01-16T09:56:48Z</time>
      </trkpt>
      <trkpt lat="45.31109" lon="6.05125">
        <ele>1838.2</ele>
        <time>2021-01-16T09:56:49Z</time>
      </trkpt>
      <trkpt lat="45.31109" lon="6.05126">
        <ele>1838.2</ele>
        <time>2021-01-16T09:56:50Z</time>
      </trkpt>
      <trkpt lat="45.31109" lon="6.05127">
        <ele>1838.4</ele>
        <time>2021-01-16T09:56:51Z</time>
      </trkpt>
      <trkpt lat="45.31109" lon="6.05127">
        <ele>1838.4</ele>
        <time>2021-01-16T09:56:52Z</time>
      </trkpt>
      <trkpt lat="45.31109" lon="6.05128">
        <ele>1838.6</ele>
        <time>2021-01-16T09:56:53Z</time>
      </trkpt>
      <trkpt lat="45.31109" lon="6.05129">
        <ele>1838.6</ele>
        <time>2021-01-16T09:56:54Z</time>
      </trkpt>
      <trkpt lat="45.31109" lon="6.0513">
        <ele>1838.8</ele>
        <time>2021-01-16T09:56:55Z</time>
      </trkpt>
      <trkpt lat="45.31109" lon="6.0513">
        <ele>1839</ele>
        <time>2021-01-16T09:56:56Z</time>
      </trkpt>
      <trkpt lat="45.31109" lon="6.05131">
        <ele>1839.2</ele>
        <time>2021-01-16T09:56:57Z</time>
      </trkpt>
      <trkpt lat="45.31109" lon="6.05131">
        <ele>1839.4</ele>
        <time>2021-01-16T09:56:58Z</time>
      </trkpt>
      <trkpt lat="45.31109" lon="6.05132">
        <ele>1839.4</ele>
        <time>2021-01-16T09:56:59Z</time>
      </trkpt>
      <trkpt lat="45.31109" lon="6.05133">
        <ele>1839.8</ele>
        <time>2021-01-16T09:57:00Z</time>
      </trkpt>
      <trkpt lat="45.31108" lon="6.05134">
        <ele>1839.8</ele>
        <time>2021-01-16T09:57:01Z</time>
      </trkpt>
      <trkpt lat="45.31108" lon="6.05134">
        <ele>1840</ele>
        <time>2021-01-16T09:57:02Z</time>
      </trkpt>
      <trkpt lat="45.31108" lon="6.05135">
        <ele>1840</ele>
        <time>2021-01-16T09:57:03Z</time>
      </trkpt>
      <trkpt lat="45.31108" lon="6.05135">
        <ele>1840.2</ele>
        <time>2021-01-16T09:57:04Z</time>
      </trkpt>
      <trkpt lat="45.31108" lon="6.05136">
        <ele>1840.2</ele>
        <time>2021-01-16T09:57:05Z</time>
      </trkpt>
      <trkpt lat="45.31108" lon="6.05136">
        <ele>1840.4</ele>
        <time>2021-01-16T09:57:06Z</time>
      </trkpt>
      <trkpt lat="45.31108" lon="6.05138">
        <ele>1840.4</ele>
        <time>2021-01-16T09:57:07Z</time>
      </trkpt>
      <trkpt lat="45.31108" lon="6.05139">
        <ele>1840.4</ele>
        <time>2021-01-16T09:57:08Z</time>
      </trkpt>
      <trkpt lat="45.31108" lon="6.0514">
        <ele>1840.6</ele>
        <time>2021-01-16T09:57:09Z</time>
      </trkpt>
      <trkpt lat="45.31108" lon="6.0514">
        <ele>1840.8</ele>
        <time>2021-01-16T09:57:10Z</time>
      </trkpt>
      <trkpt lat="45.31108" lon="6.05141">
        <ele>1841</ele>
        <time>2021-01-16T09:57:11Z</time>
      </trkpt>
      <trkpt lat="45.31108" lon="6.05141">
        <ele>1841</ele>
        <time>2021-01-16T09:57:12Z</time>
      </trkpt>
      <trkpt lat="45.31108" lon="6.05142">
        <ele>1841.2</ele>
        <time>2021-01-16T09:57:13Z</time>
      </trkpt>
      <trkpt lat="45.31108" lon="6.05143">
        <ele>1841.2</ele>
        <time>2021-01-16T09:57:14Z</time>
      </trkpt>
      <trkpt lat="45.31108" lon="6.05143">
        <ele>1841.4</ele>
        <time>2021-01-16T09:57:15Z</time>
      </trkpt>
      <trkpt lat="45.31108" lon="6.05144">
        <ele>1841.4</ele>
        <time>2021-01-16T09:57:16Z</time>
      </trkpt>
      <trkpt lat="45.31108" lon="6.05145">
        <ele>1841.6</ele>
        <time>2021-01-16T09:57:17Z</time>
      </trkpt>
      <trkpt lat="45.31108" lon="6.05146">
        <ele>1841.6</ele>
        <time>2021-01-16T09:57:18Z</time>
      </trkpt>
      <trkpt lat="45.31108" lon="6.05146">
        <ele>1841.8</ele>
        <time>2021-01-16T09:57:19Z</time>
      </trkpt>
      <trkpt lat="45.31108" lon="6.05147">
        <ele>1842</ele>
        <time>2021-01-16T09:57:20Z</time>
      </trkpt>
      <trkpt lat="45.31108" lon="6.05147">
        <ele>1842</ele>
        <time>2021-01-16T09:57:21Z</time>
      </trkpt>
      <trkpt lat="45.31108" lon="6.05147">
        <ele>1842.2</ele>
        <time>2021-01-16T09:57:22Z</time>
      </trkpt>
      <trkpt lat="45.31108" lon="6.05147">
        <ele>1842.2</ele>
        <time>2021-01-16T09:57:23Z</time>
      </trkpt>
      <trkpt lat="45.31108" lon="6.05147">
        <ele>1842.4</ele>
        <time>2021-01-16T09:57:24Z</time>
      </trkpt>
      <trkpt lat="45.31108" lon="6.05147">
        <ele>1842.4</ele>
        <time>2021-01-16T09:57:25Z</time>
      </trkpt>
      <trkpt lat="45.31108" lon="6.05151">
        <ele>1842.6</ele>
        <time>2021-01-16T09:57:26Z</time>
      </trkpt>
      <trkpt lat="45.31108" lon="6.05152">
        <ele>1842.8</ele>
        <time>2021-01-16T09:57:27Z</time>
      </trkpt>
      <trkpt lat="45.31108" lon="6.05153">
        <ele>1843</ele>
        <time>2021-01-16T09:57:28Z</time>
      </trkpt>
      <trkpt lat="45.31108" lon="6.05153">
        <ele>1843</ele>
        <time>2021-01-16T09:57:29Z</time>
      </trkpt>
      <trkpt lat="45.31108" lon="6.05154">
        <ele>1843.2</ele>
        <time>2021-01-16T09:57:30Z</time>
      </trkpt>
      <trkpt lat="45.31108" lon="6.05155">
        <ele>1843.4</ele>
        <time>2021-01-16T09:57:31Z</time>
      </trkpt>
      <trkpt lat="45.31108" lon="6.05155">
        <ele>1843.6</ele>
        <time>2021-01-16T09:57:32Z</time>
      </trkpt>
      <trkpt lat="45.31108" lon="6.05155">
        <ele>1843.8</ele>
        <time>2021-01-16T09:57:33Z</time>
      </trkpt>
      <trkpt lat="45.31108" lon="6.05155">
        <ele>1843.8</ele>
        <time>2021-01-16T09:57:34Z</time>
      </trkpt>
      <trkpt lat="45.31109" lon="6.05158">
        <ele>1844.2</ele>
        <time>2021-01-16T09:57:35Z</time>
      </trkpt>
      <trkpt lat="45.31109" lon="6.05159">
        <ele>1844.2</ele>
        <time>2021-01-16T09:57:36Z</time>
      </trkpt>
      <trkpt lat="45.31109" lon="6.0516">
        <ele>1844.4</ele>
        <time>2021-01-16T09:57:37Z</time>
      </trkpt>
      <trkpt lat="45.31109" lon="6.05161">
        <ele>1844.6</ele>
        <time>2021-01-16T09:57:38Z</time>
      </trkpt>
      <trkpt lat="45.31108" lon="6.05161">
        <ele>1844.6</ele>
        <time>2021-01-16T09:57:39Z</time>
      </trkpt>
      <trkpt lat="45.31108" lon="6.05162">
        <ele>1845</ele>
        <time>2021-01-16T09:57:40Z</time>
      </trkpt>
      <trkpt lat="45.31108" lon="6.05163">
        <ele>1845</ele>
        <time>2021-01-16T09:57:41Z</time>
      </trkpt>
      <trkpt lat="45.31109" lon="6.05164">
        <ele>1845</ele>
        <time>2021-01-16T09:57:42Z</time>
      </trkpt>
      <trkpt lat="45.31109" lon="6.05165">
        <ele>1845.2</ele>
        <time>2021-01-16T09:57:43Z</time>
      </trkpt>
      <trkpt lat="45.31109" lon="6.05166">
        <ele>1845.4</ele>
        <time>2021-01-16T09:57:44Z</time>
      </trkpt>
      <trkpt lat="45.31109" lon="6.05166">
        <ele>1845.6</ele>
        <time>2021-01-16T09:57:45Z</time>
      </trkpt>
      <trkpt lat="45.31109" lon="6.05167">
        <ele>1845.8</ele>
        <time>2021-01-16T09:57:46Z</time>
      </trkpt>
      <trkpt lat="45.31109" lon="6.05168">
        <ele>1846</ele>
        <time>2021-01-16T09:57:47Z</time>
      </trkpt>
      <trkpt lat="45.31109" lon="6.05169">
        <ele>1846</ele>
        <time>2021-01-16T09:57:48Z</time>
      </trkpt>
      <trkpt lat="45.31109" lon="6.0517">
        <ele>1846</ele>
        <time>2021-01-16T09:57:49Z</time>
      </trkpt>
      <trkpt lat="45.31109" lon="6.05171">
        <ele>1846.2</ele>
        <time>2021-01-16T09:57:50Z</time>
      </trkpt>
      <trkpt lat="45.31109" lon="6.05172">
        <ele>1846.4</ele>
        <time>2021-01-16T09:57:51Z</time>
      </trkpt>
      <trkpt lat="45.31109" lon="6.05174">
        <ele>1846.4</ele>
        <time>2021-01-16T09:57:52Z</time>
      </trkpt>
      <trkpt lat="45.31109" lon="6.05174">
        <ele>1846.6</ele>
        <time>2021-01-16T09:57:53Z</time>
      </trkpt>
      <trkpt lat="45.31109" lon="6.05176">
        <ele>1846.8</ele>
        <time>2021-01-16T09:57:54Z</time>
      </trkpt>
      <trkpt lat="45.31109" lon="6.05176">
        <ele>1847</ele>
        <time>2021-01-16T09:57:55Z</time>
      </trkpt>
      <trkpt lat="45.31109" lon="6.05177">
        <ele>1847</ele>
        <time>2021-01-16T09:57:56Z</time>
      </trkpt>
      <trkpt lat="45.31109" lon="6.05178">
        <ele>1847</ele>
        <time>2021-01-16T09:57:57Z</time>
      </trkpt>
      <trkpt lat="45.31109" lon="6.05179">
        <ele>1847.4</ele>
        <time>2021-01-16T09:57:58Z</time>
      </trkpt>
      <trkpt lat="45.31109" lon="6.0518">
        <ele>1847.4</ele>
        <time>2021-01-16T09:57:59Z</time>
      </trkpt>
      <trkpt lat="45.31109" lon="6.05181">
        <ele>1847.6</ele>
        <time>2021-01-16T09:58:00Z</time>
      </trkpt>
      <trkpt lat="45.31109" lon="6.05183">
        <ele>1847.8</ele>
        <time>2021-01-16T09:58:01Z</time>
      </trkpt>
      <trkpt lat="45.31109" lon="6.05184">
        <ele>1847.6</ele>
        <time>2021-01-16T09:58:02Z</time>
      </trkpt>
      <trkpt lat="45.31109" lon="6.05185">
        <ele>1847.8</ele>
        <time>2021-01-16T09:58:03Z</time>
      </trkpt>
      <trkpt lat="45.3111" lon="6.05186">
        <ele>1847.8</ele>
        <time>2021-01-16T09:58:04Z</time>
      </trkpt>
      <trkpt lat="45.3111" lon="6.05187">
        <ele>1848</ele>
        <time>2021-01-16T09:58:05Z</time>
      </trkpt>
      <trkpt lat="45.3111" lon="6.05188">
        <ele>1848.2</ele>
        <time>2021-01-16T09:58:06Z</time>
      </trkpt>
      <trkpt lat="45.3111" lon="6.05189">
        <ele>1848.2</ele>
        <time>2021-01-16T09:58:07Z</time>
      </trkpt>
      <trkpt lat="45.3111" lon="6.0519">
        <ele>1848.4</ele>
        <time>2021-01-16T09:58:08Z</time>
      </trkpt>
      <trkpt lat="45.3111" lon="6.05191">
        <ele>1848.6</ele>
        <time>2021-01-16T09:58:09Z</time>
      </trkpt>
      <trkpt lat="45.31111" lon="6.05192">
        <ele>1848.6</ele>
        <time>2021-01-16T09:58:10Z</time>
      </trkpt>
      <trkpt lat="45.31111" lon="6.05193">
        <ele>1848.8</ele>
        <time>2021-01-16T09:58:11Z</time>
      </trkpt>
      <trkpt lat="45.31111" lon="6.05194">
        <ele>1849</ele>
        <time>2021-01-16T09:58:12Z</time>
      </trkpt>
      <trkpt lat="45.31111" lon="6.05195">
        <ele>1849.2</ele>
        <time>2021-01-16T09:58:13Z</time>
      </trkpt>
      <trkpt lat="45.31111" lon="6.05196">
        <ele>1849.4</ele>
        <time>2021-01-16T09:58:14Z</time>
      </trkpt>
      <trkpt lat="45.31111" lon="6.05196">
        <ele>1849.2</ele>
        <time>2021-01-16T09:58:15Z</time>
      </trkpt>
      <trkpt lat="45.31111" lon="6.05198">
        <ele>1849.4</ele>
        <time>2021-01-16T09:58:16Z</time>
      </trkpt>
      <trkpt lat="45.31111" lon="6.05199">
        <ele>1849.6</ele>
        <time>2021-01-16T09:58:17Z</time>
      </trkpt>
      <trkpt lat="45.31111" lon="6.052">
        <ele>1849.6</ele>
        <time>2021-01-16T09:58:18Z</time>
      </trkpt>
      <trkpt lat="45.31111" lon="6.05201">
        <ele>1849.8</ele>
        <time>2021-01-16T09:58:19Z</time>
      </trkpt>
      <trkpt lat="45.31111" lon="6.05202">
        <ele>1849.8</ele>
        <time>2021-01-16T09:58:20Z</time>
      </trkpt>
      <trkpt lat="45.31111" lon="6.05203">
        <ele>1850</ele>
        <time>2021-01-16T09:58:21Z</time>
      </trkpt>
      <trkpt lat="45.31111" lon="6.05204">
        <ele>1850.2</ele>
        <time>2021-01-16T09:58:22Z</time>
      </trkpt>
      <trkpt lat="45.31111" lon="6.05205">
        <ele>1850.2</ele>
        <time>2021-01-16T09:58:23Z</time>
      </trkpt>
      <trkpt lat="45.31111" lon="6.05206">
        <ele>1850.4</ele>
        <time>2021-01-16T09:58:24Z</time>
      </trkpt>
      <trkpt lat="45.31111" lon="6.05207">
        <ele>1850.4</ele>
        <time>2021-01-16T09:58:25Z</time>
      </trkpt>
      <trkpt lat="45.31111" lon="6.05207">
        <ele>1850.6</ele>
        <time>2021-01-16T09:58:26Z</time>
      </trkpt>
      <trkpt lat="45.3111" lon="6.05208">
        <ele>1850.8</ele>
        <time>2021-01-16T09:58:27Z</time>
      </trkpt>
      <trkpt lat="45.3111" lon="6.05209">
        <ele>1851</ele>
        <time>2021-01-16T09:58:28Z</time>
      </trkpt>
      <trkpt lat="45.31109" lon="6.0521">
        <ele>1851.2</ele>
        <time>2021-01-16T09:58:29Z</time>
      </trkpt>
      <trkpt lat="45.31108" lon="6.0521">
        <ele>1851.4</ele>
        <time>2021-01-16T09:58:30Z</time>
      </trkpt>
      <trkpt lat="45.31108" lon="6.05211">
        <ele>1851.4</ele>
        <time>2021-01-16T09:58:31Z</time>
      </trkpt>
      <trkpt lat="45.31107" lon="6.05211">
        <ele>1851.6</ele>
        <time>2021-01-16T09:58:32Z</time>
      </trkpt>
      <trkpt lat="45.31106" lon="6.05211">
        <ele>1851.8</ele>
        <time>2021-01-16T09:58:33Z</time>
      </trkpt>
      <trkpt lat="45.31106" lon="6.05211">
        <ele>1852</ele>
        <time>2021-01-16T09:58:34Z</time>
      </trkpt>
      <trkpt lat="45.31105" lon="6.05211">
        <ele>1852.2</ele>
        <time>2021-01-16T09:58:35Z</time>
      </trkpt>
      <trkpt lat="45.31104" lon="6.05211">
        <ele>1852.2</ele>
        <time>2021-01-16T09:58:36Z</time>
      </trkpt>
      <trkpt lat="45.31103" lon="6.05211">
        <ele>1852.4</ele>
        <time>2021-01-16T09:58:37Z</time>
      </trkpt>
      <trkpt lat="45.31103" lon="6.0521">
        <ele>1852.6</ele>
        <time>2021-01-16T09:58:38Z</time>
      </trkpt>
      <trkpt lat="45.31102" lon="6.0521">
        <ele>1852.6</ele>
        <time>2021-01-16T09:58:39Z</time>
      </trkpt>
      <trkpt lat="45.31102" lon="6.0521">
        <ele>1852.6</ele>
        <time>2021-01-16T09:58:40Z</time>
      </trkpt>
      <trkpt lat="45.31101" lon="6.0521">
        <ele>1852.8</ele>
        <time>2021-01-16T09:58:41Z</time>
      </trkpt>
      <trkpt lat="45.311" lon="6.05209">
        <ele>1852.8</ele>
        <time>2021-01-16T09:58:42Z</time>
      </trkpt>
      <trkpt lat="45.31099" lon="6.05209">
        <ele>1852.8</ele>
        <time>2021-01-16T09:58:43Z</time>
      </trkpt>
      <trkpt lat="45.31099" lon="6.05209">
        <ele>1853</ele>
        <time>2021-01-16T09:58:44Z</time>
      </trkpt>
      <trkpt lat="45.31098" lon="6.05209">
        <ele>1853</ele>
        <time>2021-01-16T09:58:45Z</time>
      </trkpt>
      <trkpt lat="45.31097" lon="6.05208">
        <ele>1853.2</ele>
        <time>2021-01-16T09:58:46Z</time>
      </trkpt>
      <trkpt lat="45.31097" lon="6.05208">
        <ele>1853.4</ele>
        <time>2021-01-16T09:58:47Z</time>
      </trkpt>
      <trkpt lat="45.31097" lon="6.05208">
        <ele>1853.4</ele>
        <time>2021-01-16T09:58:48Z</time>
      </trkpt>
      <trkpt lat="45.31097" lon="6.05208">
        <ele>1853.6</ele>
        <time>2021-01-16T09:58:49Z</time>
      </trkpt>
      <trkpt lat="45.31097" lon="6.05208">
        <ele>1853.6</ele>
        <time>2021-01-16T09:58:50Z</time>
      </trkpt>
      <trkpt lat="45.31097" lon="6.05208">
        <ele>1853.6</ele>
        <time>2021-01-16T09:58:51Z</time>
      </trkpt>
      <trkpt lat="45.31097" lon="6.05208">
        <ele>1853.6</ele>
        <time>2021-01-16T09:58:52Z</time>
      </trkpt>
      <trkpt lat="45.31097" lon="6.05208">
        <ele>1853.6</ele>
        <time>2021-01-16T09:58:53Z</time>
      </trkpt>
      <trkpt lat="45.31097" lon="6.05208">
        <ele>1853.6</ele>
        <time>2021-01-16T09:58:54Z</time>
      </trkpt>
      <trkpt lat="45.31097" lon="6.05208">
        <ele>1853.6</ele>
        <time>2021-01-16T09:58:55Z</time>
      </trkpt>
      <trkpt lat="45.31097" lon="6.05208">
        <ele>1853.8</ele>
        <time>2021-01-16T09:58:56Z</time>
      </trkpt>
      <trkpt lat="45.31097" lon="6.05208">
        <ele>1853.8</ele>
        <time>2021-01-16T09:58:57Z</time>
      </trkpt>
      <trkpt lat="45.31097" lon="6.05208">
        <ele>1853.8</ele>
        <time>2021-01-16T09:58:58Z</time>
      </trkpt>
      <trkpt lat="45.31097" lon="6.05208">
        <ele>1853.8</ele>
        <time>2021-01-16T09:58:59Z</time>
      </trkpt>
      <trkpt lat="45.31097" lon="6.05208">
        <ele>1853.8</ele>
        <time>2021-01-16T09:59:00Z</time>
      </trkpt>
      <trkpt lat="45.31097" lon="6.05208">
        <ele>1853.8</ele>
        <time>2021-01-16T09:59:01Z</time>
      </trkpt>
      <trkpt lat="45.31097" lon="6.05208">
        <ele>1853.8</ele>
        <time>2021-01-16T09:59:02Z</time>
      </trkpt>
      <trkpt lat="45.31097" lon="6.05208">
        <ele>1853.8</ele>
        <time>2021-01-16T09:59:03Z</time>
      </trkpt>
      <trkpt lat="45.31097" lon="6.05208">
        <ele>1853.8</ele>
        <time>2021-01-16T09:59:04Z</time>
      </trkpt>
      <trkpt lat="45.31097" lon="6.05208">
        <ele>1853.8</ele>
        <time>2021-01-16T09:59:05Z</time>
      </trkpt>
      <trkpt lat="45.31097" lon="6.05208">
        <ele>1853.8</ele>
        <time>2021-01-16T09:59:06Z</time>
      </trkpt>
      <trkpt lat="45.31097" lon="6.05208">
        <ele>1853.8</ele>
        <time>2021-01-16T09:59:07Z</time>
      </trkpt>
      <trkpt lat="45.31097" lon="6.05208">
        <ele>1853.8</ele>
        <time>2021-01-16T09:59:08Z</time>
      </trkpt>
      <trkpt lat="45.31097" lon="6.05208">
        <ele>1853.8</ele>
        <time>2021-01-16T09:59:09Z</time>
      </trkpt>
      <trkpt lat="45.31097" lon="6.05208">
        <ele>1853.8</ele>
        <time>2021-01-16T09:59:10Z</time>
      </trkpt>
      <trkpt lat="45.31097" lon="6.05208">
        <ele>1853.8</ele>
        <time>2021-01-16T09:59:11Z</time>
      </trkpt>
      <trkpt lat="45.31097" lon="6.05208">
        <ele>1853.8</ele>
        <time>2021-01-16T09:59:12Z</time>
      </trkpt>
      <trkpt lat="45.31097" lon="6.05208">
        <ele>1853.8</ele>
        <time>2021-01-16T09:59:13Z</time>
      </trkpt>
      <trkpt lat="45.31097" lon="6.05208">
        <ele>1853.8</ele>
        <time>2021-01-16T09:59:14Z</time>
      </trkpt>
      <trkpt lat="45.31097" lon="6.05208">
        <ele>1853.8</ele>
        <time>2021-01-16T09:59:15Z</time>
      </trkpt>
      <trkpt lat="45.31097" lon="6.05208">
        <ele>1853.8</ele>
        <time>2021-01-16T09:59:16Z</time>
      </trkpt>
      <trkpt lat="45.31097" lon="6.05208">
        <ele>1853.8</ele>
        <time>2021-01-16T09:59:17Z</time>
      </trkpt>
      <trkpt lat="45.31097" lon="6.05208">
        <ele>1853.8</ele>
        <time>2021-01-16T09:59:18Z</time>
      </trkpt>
      <trkpt lat="45.31097" lon="6.05208">
        <ele>1853.8</ele>
        <time>2021-01-16T09:59:19Z</time>
      </trkpt>
      <trkpt lat="45.31097" lon="6.05208">
        <ele>1853.8</ele>
        <time>2021-01-16T09:59:20Z</time>
      </trkpt>
      <trkpt lat="45.31097" lon="6.05208">
        <ele>1853.8</ele>
        <time>2021-01-16T09:59:21Z</time>
      </trkpt>
      <trkpt lat="45.31097" lon="6.05208">
        <ele>1853.8</ele>
        <time>2021-01-16T09:59:22Z</time>
      </trkpt>
      <trkpt lat="45.31097" lon="6.05208">
        <ele>1853.8</ele>
        <time>2021-01-16T09:59:23Z</time>
      </trkpt>
      <trkpt lat="45.31097" lon="6.05208">
        <ele>1853.8</ele>
        <time>2021-01-16T09:59:24Z</time>
      </trkpt>
      <trkpt lat="45.31097" lon="6.05208">
        <ele>1853.8</ele>
        <time>2021-01-16T09:59:25Z</time>
      </trkpt>
      <trkpt lat="45.31097" lon="6.05208">
        <ele>1853.8</ele>
        <time>2021-01-16T09:59:26Z</time>
      </trkpt>
      <trkpt lat="45.31097" lon="6.05208">
        <ele>1853.8</ele>
        <time>2021-01-16T09:59:27Z</time>
      </trkpt>
      <trkpt lat="45.31097" lon="6.05208">
        <ele>1853.8</ele>
        <time>2021-01-16T09:59:28Z</time>
      </trkpt>
      <trkpt lat="45.31097" lon="6.05208">
        <ele>1853.8</ele>
        <time>2021-01-16T09:59:29Z</time>
      </trkpt>
      <trkpt lat="45.31097" lon="6.05208">
        <ele>1853.8</ele>
        <time>2021-01-16T09:59:30Z</time>
      </trkpt>
      <trkpt lat="45.31097" lon="6.05208">
        <ele>1854</ele>
        <time>2021-01-16T09:59:31Z</time>
      </trkpt>
      <trkpt lat="45.31097" lon="6.05208">
        <ele>1854</ele>
        <time>2021-01-16T09:59:32Z</time>
      </trkpt>
      <trkpt lat="45.31097" lon="6.05208">
        <ele>1854</ele>
        <time>2021-01-16T09:59:33Z</time>
      </trkpt>
      <trkpt lat="45.31097" lon="6.05208">
        <ele>1854</ele>
        <time>2021-01-16T09:59:34Z</time>
      </trkpt>
      <trkpt lat="45.31097" lon="6.05208">
        <ele>1854</ele>
        <time>2021-01-16T09:59:35Z</time>
      </trkpt>
      <trkpt lat="45.31097" lon="6.05208">
        <ele>1853.8</ele>
        <time>2021-01-16T09:59:36Z</time>
      </trkpt>
      <trkpt lat="45.31097" lon="6.05208">
        <ele>1853.8</ele>
        <time>2021-01-16T09:59:37Z</time>
      </trkpt>
      <trkpt lat="45.31097" lon="6.05208">
        <ele>1854</ele>
        <time>2021-01-16T09:59:38Z</time>
      </trkpt>
      <trkpt lat="45.31097" lon="6.05208">
        <ele>1854</ele>
        <time>2021-01-16T09:59:39Z</time>
      </trkpt>
      <trkpt lat="45.31097" lon="6.05208">
        <ele>1854</ele>
        <time>2021-01-16T09:59:40Z</time>
      </trkpt>
      <trkpt lat="45.31097" lon="6.05208">
        <ele>1854</ele>
        <time>2021-01-16T09:59:41Z</time>
      </trkpt>
      <trkpt lat="45.31097" lon="6.05208">
        <ele>1854</ele>
        <time>2021-01-16T09:59:42Z</time>
      </trkpt>
      <trkpt lat="45.31097" lon="6.05208">
        <ele>1854</ele>
        <time>2021-01-16T09:59:43Z</time>
      </trkpt>
      <trkpt lat="45.31097" lon="6.05208">
        <ele>1854</ele>
        <time>2021-01-16T09:59:44Z</time>
      </trkpt>
      <trkpt lat="45.31097" lon="6.05208">
        <ele>1854</ele>
        <time>2021-01-16T09:59:45Z</time>
      </trkpt>
      <trkpt lat="45.31097" lon="6.05208">
        <ele>1854</ele>
        <time>2021-01-16T09:59:46Z</time>
      </trkpt>
      <trkpt lat="45.31097" lon="6.05208">
        <ele>1854</ele>
        <time>2021-01-16T09:59:47Z</time>
      </trkpt>
      <trkpt lat="45.31097" lon="6.05208">
        <ele>1854</ele>
        <time>2021-01-16T09:59:48Z</time>
      </trkpt>
      <trkpt lat="45.31097" lon="6.05208">
        <ele>1854.2</ele>
        <time>2021-01-16T09:59:49Z</time>
      </trkpt>
      <trkpt lat="45.31097" lon="6.05208">
        <ele>1854.2</ele>
        <time>2021-01-16T09:59:50Z</time>
      </trkpt>
      <trkpt lat="45.31097" lon="6.05208">
        <ele>1854.2</ele>
        <time>2021-01-16T09:59:51Z</time>
      </trkpt>
      <trkpt lat="45.31097" lon="6.05208">
        <ele>1854.2</ele>
        <time>2021-01-16T09:59:52Z</time>
      </trkpt>
      <trkpt lat="45.31097" lon="6.05208">
        <ele>1854.2</ele>
        <time>2021-01-16T09:59:53Z</time>
      </trkpt>
      <trkpt lat="45.31097" lon="6.05208">
        <ele>1854.2</ele>
        <time>2021-01-16T09:59:54Z</time>
      </trkpt>
      <trkpt lat="45.31097" lon="6.05208">
        <ele>1854.2</ele>
        <time>2021-01-16T09:59:55Z</time>
      </trkpt>
      <trkpt lat="45.31097" lon="6.05208">
        <ele>1854.2</ele>
        <time>2021-01-16T09:59:56Z</time>
      </trkpt>
      <trkpt lat="45.31097" lon="6.05208">
        <ele>1854</ele>
        <time>2021-01-16T09:59:57Z</time>
      </trkpt>
      <trkpt lat="45.31097" lon="6.05208">
        <ele>1854</ele>
        <time>2021-01-16T09:59:58Z</time>
      </trkpt>
      <trkpt lat="45.31097" lon="6.05208">
        <ele>1854</ele>
        <time>2021-01-16T09:59:59Z</time>
      </trkpt>
      <trkpt lat="45.31097" lon="6.05208">
        <ele>1854</ele>
        <time>2021-01-16T10:00:00Z</time>
      </trkpt>
      <trkpt lat="45.31097" lon="6.05208">
        <ele>1854</ele>
        <time>2021-01-16T10:00:01Z</time>
      </trkpt>
      <trkpt lat="45.31097" lon="6.05208">
        <ele>1854</ele>
        <time>2021-01-16T10:00:02Z</time>
      </trkpt>
      <trkpt lat="45.31097" lon="6.05208">
        <ele>1854</ele>
        <time>2021-01-16T10:00:03Z</time>
      </trkpt>
      <trkpt lat="45.31097" lon="6.05208">
        <ele>1854</ele>
        <time>2021-01-16T10:00:04Z</time>
      </trkpt>
      <trkpt lat="45.31097" lon="6.05208">
        <ele>1854</ele>
        <time>2021-01-16T10:00:05Z</time>
      </trkpt>
      <trkpt lat="45.31097" lon="6.05208">
        <ele>1854</ele>
        <time>2021-01-16T10:00:06Z</time>
      </trkpt>
      <trkpt lat="45.31097" lon="6.05208">
        <ele>1854</ele>
        <time>2021-01-16T10:00:07Z</time>
      </trkpt>
      <trkpt lat="45.31097" lon="6.05208">
        <ele>1854</ele>
        <time>2021-01-16T10:00:08Z</time>
      </trkpt>
      <trkpt lat="45.31097" lon="6.05208">
        <ele>1854</ele>
        <time>2021-01-16T10:00:09Z</time>
      </trkpt>
      <trkpt lat="45.31097" lon="6.05208">
        <ele>1854</ele>
        <time>2021-01-16T10:00:10Z</time>
      </trkpt>
      <trkpt lat="45.31097" lon="6.05208">
        <ele>1854</ele>
        <time>2021-01-16T10:00:11Z</time>
      </trkpt>
      <trkpt lat="45.31097" lon="6.05208">
        <ele>1854</ele>
        <time>2021-01-16T10:00:12Z</time>
      </trkpt>
      <trkpt lat="45.31097" lon="6.05208">
        <ele>1854</ele>
        <time>2021-01-16T10:00:13Z</time>
      </trkpt>
      <trkpt lat="45.31097" lon="6.05208">
        <ele>1854</ele>
        <time>2021-01-16T10:00:14Z</time>
      </trkpt>
      <trkpt lat="45.31097" lon="6.05208">
        <ele>1854</ele>
        <time>2021-01-16T10:00:15Z</time>
      </trkpt>
      <trkpt lat="45.31096" lon="6.05208">
        <ele>1854.2</ele>
        <time>2021-01-16T10:00:16Z</time>
      </trkpt>
      <trkpt lat="45.31096" lon="6.05208">
        <ele>1854.2</ele>
        <time>2021-01-16T10:00:17Z</time>
      </trkpt>
      <trkpt lat="45.31095" lon="6.05207">
        <ele>1854.2</ele>
        <time>2021-01-16T10:00:18Z</time>
      </trkpt>
      <trkpt lat="45.31094" lon="6.05207">
        <ele>1854.2</ele>
        <time>2021-01-16T10:00:19Z</time>
      </trkpt>
      <trkpt lat="45.31094" lon="6.05207">
        <ele>1854.2</ele>
        <time>2021-01-16T10:00:20Z</time>
      </trkpt>
      <trkpt lat="45.31093" lon="6.05206">
        <ele>1854.2</ele>
        <time>2021-01-16T10:00:21Z</time>
      </trkpt>
      <trkpt lat="45.31092" lon="6.05206">
        <ele>1854.2</ele>
        <time>2021-01-16T10:00:22Z</time>
      </trkpt>
      <trkpt lat="45.31092" lon="6.05206">
        <ele>1854.4</ele>
        <time>2021-01-16T10:00:23Z</time>
      </trkpt>
      <trkpt lat="45.31092" lon="6.05206">
        <ele>1854.4</ele>
        <time>2021-01-16T10:00:24Z</time>
      </trkpt>
      <trkpt lat="45.31092" lon="6.05206">
        <ele>1854.6</ele>
        <time>2021-01-16T10:00:25Z</time>
      </trkpt>
      <trkpt lat="45.31092" lon="6.05206">
        <ele>1854.6</ele>
        <time>2021-01-16T10:00:26Z</time>
      </trkpt>
      <trkpt lat="45.31092" lon="6.05206">
        <ele>1854.6</ele>
        <time>2021-01-16T10:00:27Z</time>
      </trkpt>
      <trkpt lat="45.31092" lon="6.05206">
        <ele>1854.4</ele>
        <time>2021-01-16T10:00:28Z</time>
      </trkpt>
      <trkpt lat="45.31092" lon="6.05206">
        <ele>1854.4</ele>
        <time>2021-01-16T10:00:29Z</time>
      </trkpt>
      <trkpt lat="45.31092" lon="6.05206">
        <ele>1854.4</ele>
        <time>2021-01-16T10:00:30Z</time>
      </trkpt>
      <trkpt lat="45.3109" lon="6.05205">
        <ele>1854.6</ele>
        <time>2021-01-16T10:00:31Z</time>
      </trkpt>
      <trkpt lat="45.3109" lon="6.05205">
        <ele>1854.6</ele>
        <time>2021-01-16T10:00:32Z</time>
      </trkpt>
      <trkpt lat="45.31089" lon="6.05205">
        <ele>1854.6</ele>
        <time>2021-01-16T10:00:33Z</time>
      </trkpt>
      <trkpt lat="45.31088" lon="6.05205">
        <ele>1854.6</ele>
        <time>2021-01-16T10:00:34Z</time>
      </trkpt>
      <trkpt lat="45.31087" lon="6.05204">
        <ele>1854.6</ele>
        <time>2021-01-16T10:00:35Z</time>
      </trkpt>
      <trkpt lat="45.31087" lon="6.05204">
        <ele>1854.8</ele>
        <time>2021-01-16T10:00:36Z</time>
      </trkpt>
      <trkpt lat="45.31086" lon="6.05204">
        <ele>1854.8</ele>
        <time>2021-01-16T10:00:37Z</time>
      </trkpt>
      <trkpt lat="45.31086" lon="6.05205">
        <ele>1854.8</ele>
        <time>2021-01-16T10:00:38Z</time>
      </trkpt>
      <trkpt lat="45.31086" lon="6.05204">
        <ele>1854.8</ele>
        <time>2021-01-16T10:00:39Z</time>
      </trkpt>
      <trkpt lat="45.31086" lon="6.05204">
        <ele>1854.8</ele>
        <time>2021-01-16T10:00:40Z</time>
      </trkpt>
      <trkpt lat="45.31086" lon="6.05204">
        <ele>1854.8</ele>
        <time>2021-01-16T10:00:41Z</time>
      </trkpt>
      <trkpt lat="45.31086" lon="6.05204">
        <ele>1854.8</ele>
        <time>2021-01-16T10:00:42Z</time>
      </trkpt>
      <trkpt lat="45.31086" lon="6.05204">
        <ele>1854.8</ele>
        <time>2021-01-16T10:00:43Z</time>
      </trkpt>
      <trkpt lat="45.31086" lon="6.05204">
        <ele>1854.8</ele>
        <time>2021-01-16T10:00:44Z</time>
      </trkpt>
      <trkpt lat="45.31086" lon="6.05204">
        <ele>1855</ele>
        <time>2021-01-16T10:00:45Z</time>
      </trkpt>
      <trkpt lat="45.31086" lon="6.05204">
        <ele>1855</ele>
        <time>2021-01-16T10:00:46Z</time>
      </trkpt>
      <trkpt lat="45.31086" lon="6.05204">
        <ele>1855</ele>
        <time>2021-01-16T10:00:47Z</time>
      </trkpt>
      <trkpt lat="45.31084" lon="6.05203">
        <ele>1855</ele>
        <time>2021-01-16T10:00:48Z</time>
      </trkpt>
      <trkpt lat="45.31084" lon="6.05202">
        <ele>1855</ele>
        <time>2021-01-16T10:00:49Z</time>
      </trkpt>
      <trkpt lat="45.31083" lon="6.05202">
        <ele>1855</ele>
        <time>2021-01-16T10:00:50Z</time>
      </trkpt>
      <trkpt lat="45.31082" lon="6.05201">
        <ele>1855</ele>
        <time>2021-01-16T10:00:51Z</time>
      </trkpt>
      <trkpt lat="45.31081" lon="6.05201">
        <ele>1855</ele>
        <time>2021-01-16T10:00:52Z</time>
      </trkpt>
      <trkpt lat="45.31081" lon="6.05201">
        <ele>1855</ele>
        <time>2021-01-16T10:00:53Z</time>
      </trkpt>
      <trkpt lat="45.31081" lon="6.05201">
        <ele>1855</ele>
        <time>2021-01-16T10:00:54Z</time>
      </trkpt>
      <trkpt lat="45.31081" lon="6.05201">
        <ele>1855</ele>
        <time>2021-01-16T10:00:55Z</time>
      </trkpt>
      <trkpt lat="45.31081" lon="6.05201">
        <ele>1855</ele>
        <time>2021-01-16T10:00:56Z</time>
      </trkpt>
      <trkpt lat="45.31081" lon="6.05201">
        <ele>1855</ele>
        <time>2021-01-16T10:00:57Z</time>
      </trkpt>
      <trkpt lat="45.31081" lon="6.05201">
        <ele>1855</ele>
        <time>2021-01-16T10:00:58Z</time>
      </trkpt>
      <trkpt lat="45.31081" lon="6.05201">
        <ele>1855</ele>
        <time>2021-01-16T10:00:59Z</time>
      </trkpt>
      <trkpt lat="45.31081" lon="6.05201">
        <ele>1855</ele>
        <time>2021-01-16T10:01:00Z</time>
      </trkpt>
      <trkpt lat="45.3108" lon="6.052">
        <ele>1855</ele>
        <time>2021-01-16T10:01:01Z</time>
      </trkpt>
      <trkpt lat="45.31079" lon="6.05198">
        <ele>1855</ele>
        <time>2021-01-16T10:01:02Z</time>
      </trkpt>
      <trkpt lat="45.31078" lon="6.05198">
        <ele>1855</ele>
        <time>2021-01-16T10:01:03Z</time>
      </trkpt>
      <trkpt lat="45.31078" lon="6.05197">
        <ele>1855</ele>
        <time>2021-01-16T10:01:04Z</time>
      </trkpt>
      <trkpt lat="45.31077" lon="6.05196">
        <ele>1855</ele>
        <time>2021-01-16T10:01:05Z</time>
      </trkpt>
      <trkpt lat="45.31077" lon="6.05196">
        <ele>1855</ele>
        <time>2021-01-16T10:01:06Z</time>
      </trkpt>
      <trkpt lat="45.31076" lon="6.05195">
        <ele>1855</ele>
        <time>2021-01-16T10:01:07Z</time>
      </trkpt>
      <trkpt lat="45.31076" lon="6.05194">
        <ele>1855</ele>
        <time>2021-01-16T10:01:08Z</time>
      </trkpt>
      <trkpt lat="45.31076" lon="6.05194">
        <ele>1855</ele>
        <time>2021-01-16T10:01:09Z</time>
      </trkpt>
      <trkpt lat="45.31075" lon="6.05193">
        <ele>1855</ele>
        <time>2021-01-16T10:01:10Z</time>
      </trkpt>
      <trkpt lat="45.31074" lon="6.05192">
        <ele>1855</ele>
        <time>2021-01-16T10:01:11Z</time>
      </trkpt>
      <trkpt lat="45.31074" lon="6.05191">
        <ele>1855</ele>
        <time>2021-01-16T10:01:12Z</time>
      </trkpt>
      <trkpt lat="45.31073" lon="6.0519">
        <ele>1855</ele>
        <time>2021-01-16T10:01:13Z</time>
      </trkpt>
      <trkpt lat="45.31073" lon="6.05189">
        <ele>1855</ele>
        <time>2021-01-16T10:01:14Z</time>
      </trkpt>
      <trkpt lat="45.31072" lon="6.05188">
        <ele>1855</ele>
        <time>2021-01-16T10:01:15Z</time>
      </trkpt>
      <trkpt lat="45.31071" lon="6.05187">
        <ele>1855</ele>
        <time>2021-01-16T10:01:16Z</time>
      </trkpt>
      <trkpt lat="45.3107" lon="6.05186">
        <ele>1854.8</ele>
        <time>2021-01-16T10:01:17Z</time>
      </trkpt>
      <trkpt lat="45.3107" lon="6.05185">
        <ele>1854.8</ele>
        <time>2021-01-16T10:01:18Z</time>
      </trkpt>
      <trkpt lat="45.31069" lon="6.05185">
        <ele>1854.8</ele>
        <time>2021-01-16T10:01:19Z</time>
      </trkpt>
      <trkpt lat="45.31069" lon="6.05184">
        <ele>1854.8</ele>
        <time>2021-01-16T10:01:20Z</time>
      </trkpt>
      <trkpt lat="45.31068" lon="6.05183">
        <ele>1854.8</ele>
        <time>2021-01-16T10:01:21Z</time>
      </trkpt>
      <trkpt lat="45.31068" lon="6.05183">
        <ele>1854.8</ele>
        <time>2021-01-16T10:01:22Z</time>
      </trkpt>
      <trkpt lat="45.31068" lon="6.05182">
        <ele>1854.8</ele>
        <time>2021-01-16T10:01:23Z</time>
      </trkpt>
      <trkpt lat="45.31068" lon="6.05181">
        <ele>1854.8</ele>
        <time>2021-01-16T10:01:24Z</time>
      </trkpt>
      <trkpt lat="45.31067" lon="6.0518">
        <ele>1854.8</ele>
        <time>2021-01-16T10:01:25Z</time>
      </trkpt>
      <trkpt lat="45.31066" lon="6.05179">
        <ele>1854.8</ele>
        <time>2021-01-16T10:01:26Z</time>
      </trkpt>
      <trkpt lat="45.31066" lon="6.05179">
        <ele>1854.8</ele>
        <time>2021-01-16T10:01:27Z</time>
      </trkpt>
      <trkpt lat="45.31065" lon="6.05178">
        <ele>1854.8</ele>
        <time>2021-01-16T10:01:28Z</time>
      </trkpt>
      <trkpt lat="45.31065" lon="6.05177">
        <ele>1854.8</ele>
        <time>2021-01-16T10:01:29Z</time>
      </trkpt>
      <trkpt lat="45.31064" lon="6.05176">
        <ele>1854.8</ele>
        <time>2021-01-16T10:01:30Z</time>
      </trkpt>
      <trkpt lat="45.31063" lon="6.05176">
        <ele>1854.8</ele>
        <time>2021-01-16T10:01:31Z</time>
      </trkpt>
      <trkpt lat="45.31062" lon="6.05175">
        <ele>1854.8</ele>
        <time>2021-01-16T10:01:32Z</time>
      </trkpt>
      <trkpt lat="45.31062" lon="6.05174">
        <ele>1855</ele>
        <time>2021-01-16T10:01:33Z</time>
      </trkpt>
      <trkpt lat="45.31061" lon="6.05174">
        <ele>1855</ele>
        <time>2021-01-16T10:01:34Z</time>
      </trkpt>
      <trkpt lat="45.3106" lon="6.05173">
        <ele>1855</ele>
        <time>2021-01-16T10:01:35Z</time>
      </trkpt>
      <trkpt lat="45.3106" lon="6.05172">
        <ele>1855</ele>
        <time>2021-01-16T10:01:36Z</time>
      </trkpt>
      <trkpt lat="45.31059" lon="6.05171">
        <ele>1854.8</ele>
        <time>2021-01-16T10:01:37Z</time>
      </trkpt>
      <trkpt lat="45.31058" lon="6.0517">
        <ele>1855</ele>
        <time>2021-01-16T10:01:38Z</time>
      </trkpt>
      <trkpt lat="45.31057" lon="6.0517">
        <ele>1854.8</ele>
        <time>2021-01-16T10:01:39Z</time>
      </trkpt>
      <trkpt lat="45.31057" lon="6.05169">
        <ele>1854.8</ele>
        <time>2021-01-16T10:01:40Z</time>
      </trkpt>
      <trkpt lat="45.31056" lon="6.05168">
        <ele>1854.8</ele>
        <time>2021-01-16T10:01:41Z</time>
      </trkpt>
      <trkpt lat="45.31055" lon="6.05167">
        <ele>1854.8</ele>
        <time>2021-01-16T10:01:42Z</time>
      </trkpt>
      <trkpt lat="45.31054" lon="6.05167">
        <ele>1854.8</ele>
        <time>2021-01-16T10:01:43Z</time>
      </trkpt>
      <trkpt lat="45.31053" lon="6.05166">
        <ele>1854.6</ele>
        <time>2021-01-16T10:01:44Z</time>
      </trkpt>
      <trkpt lat="45.31052" lon="6.05166">
        <ele>1854.6</ele>
        <time>2021-01-16T10:01:45Z</time>
      </trkpt>
      <trkpt lat="45.31051" lon="6.05165">
        <ele>1854.6</ele>
        <time>2021-01-16T10:01:46Z</time>
      </trkpt>
      <trkpt lat="45.3105" lon="6.05165">
        <ele>1854.4</ele>
        <time>2021-01-16T10:01:47Z</time>
      </trkpt>
      <trkpt lat="45.3105" lon="6.05164">
        <ele>1854.4</ele>
        <time>2021-01-16T10:01:48Z</time>
      </trkpt>
      <trkpt lat="45.31049" lon="6.05164">
        <ele>1854.2</ele>
        <time>2021-01-16T10:01:49Z</time>
      </trkpt>
      <trkpt lat="45.31048" lon="6.05163">
        <ele>1854.2</ele>
        <time>2021-01-16T10:01:50Z</time>
      </trkpt>
      <trkpt lat="45.31047" lon="6.05163">
        <ele>1854</ele>
        <time>2021-01-16T10:01:51Z</time>
      </trkpt>
      <trkpt lat="45.31046" lon="6.05162">
        <ele>1853.8</ele>
        <time>2021-01-16T10:01:52Z</time>
      </trkpt>
      <trkpt lat="45.31044" lon="6.05161">
        <ele>1853.6</ele>
        <time>2021-01-16T10:01:53Z</time>
      </trkpt>
      <trkpt lat="45.31043" lon="6.0516">
        <ele>1853.4</ele>
        <time>2021-01-16T10:01:54Z</time>
      </trkpt>
      <trkpt lat="45.31042" lon="6.05159">
        <ele>1853.2</ele>
        <time>2021-01-16T10:01:55Z</time>
      </trkpt>
      <trkpt lat="45.3104" lon="6.05159">
        <ele>1853</ele>
        <time>2021-01-16T10:01:56Z</time>
      </trkpt>
      <trkpt lat="45.31039" lon="6.05158">
        <ele>1852.6</ele>
        <time>2021-01-16T10:01:57Z</time>
      </trkpt>
      <trkpt lat="45.31038" lon="6.05157">
        <ele>1852.4</ele>
        <time>2021-01-16T10:01:58Z</time>
      </trkpt>
      <trkpt lat="45.31037" lon="6.05157">
        <ele>1852.2</ele>
        <time>2021-01-16T10:01:59Z</time>
      </trkpt>
      <trkpt lat="45.31036" lon="6.05156">
        <ele>1852</ele>
        <time>2021-01-16T10:02:00Z</time>
      </trkpt>
      <trkpt lat="45.31035" lon="6.05155">
        <ele>1851.8</ele>
        <time>2021-01-16T10:02:01Z</time>
      </trkpt>
      <trkpt lat="45.31033" lon="6.05154">
        <ele>1851.6</ele>
        <time>2021-01-16T10:02:02Z</time>
      </trkpt>
      <trkpt lat="45.31032" lon="6.05153">
        <ele>1851.4</ele>
        <time>2021-01-16T10:02:03Z</time>
      </trkpt>
      <trkpt lat="45.31031" lon="6.05153">
        <ele>1851.2</ele>
        <time>2021-01-16T10:02:04Z</time>
      </trkpt>
      <trkpt lat="45.3103" lon="6.05152">
        <ele>1851</ele>
        <time>2021-01-16T10:02:05Z</time>
      </trkpt>
      <trkpt lat="45.31029" lon="6.05152">
        <ele>1850.8</ele>
        <time>2021-01-16T10:02:06Z</time>
      </trkpt>
      <trkpt lat="45.31027" lon="6.05151">
        <ele>1850.8</ele>
        <time>2021-01-16T10:02:07Z</time>
      </trkpt>
      <trkpt lat="45.31026" lon="6.0515">
        <ele>1850.6</ele>
        <time>2021-01-16T10:02:08Z</time>
      </trkpt>
      <trkpt lat="45.31025" lon="6.0515">
        <ele>1850.4</ele>
        <time>2021-01-16T10:02:09Z</time>
      </trkpt>
      <trkpt lat="45.31023" lon="6.05149">
        <ele>1850.2</ele>
        <time>2021-01-16T10:02:10Z</time>
      </trkpt>
      <trkpt lat="45.31022" lon="6.05149">
        <ele>1850.2</ele>
        <time>2021-01-16T10:02:11Z</time>
      </trkpt>
      <trkpt lat="45.3102" lon="6.05148">
        <ele>1850</ele>
        <time>2021-01-16T10:02:12Z</time>
      </trkpt>
      <trkpt lat="45.31019" lon="6.05148">
        <ele>1850</ele>
        <time>2021-01-16T10:02:13Z</time>
      </trkpt>
      <trkpt lat="45.31018" lon="6.05147">
        <ele>1850</ele>
        <time>2021-01-16T10:02:14Z</time>
      </trkpt>
      <trkpt lat="45.31017" lon="6.05146">
        <ele>1850</ele>
        <time>2021-01-16T10:02:15Z</time>
      </trkpt>
      <trkpt lat="45.31016" lon="6.05146">
        <ele>1850</ele>
        <time>2021-01-16T10:02:16Z</time>
      </trkpt>
      <trkpt lat="45.31015" lon="6.05146">
        <ele>1850</ele>
        <time>2021-01-16T10:02:17Z</time>
      </trkpt>
      <trkpt lat="45.31014" lon="6.05146">
        <ele>1850</ele>
        <time>2021-01-16T10:02:18Z</time>
      </trkpt>
      <trkpt lat="45.31013" lon="6.05145">
        <ele>1850</ele>
        <time>2021-01-16T10:02:19Z</time>
      </trkpt>
      <trkpt lat="45.31012" lon="6.05145">
        <ele>1850</ele>
        <time>2021-01-16T10:02:20Z</time>
      </trkpt>
      <trkpt lat="45.31011" lon="6.05145">
        <ele>1850.2</ele>
        <time>2021-01-16T10:02:21Z</time>
      </trkpt>
      <trkpt lat="45.3101" lon="6.05145">
        <ele>1850.2</ele>
        <time>2021-01-16T10:02:22Z</time>
      </trkpt>
      <trkpt lat="45.31009" lon="6.05145">
        <ele>1850.2</ele>
        <time>2021-01-16T10:02:23Z</time>
      </trkpt>
      <trkpt lat="45.31008" lon="6.05144">
        <ele>1850.2</ele>
        <time>2021-01-16T10:02:24Z</time>
      </trkpt>
      <trkpt lat="45.31007" lon="6.05144">
        <ele>1850.2</ele>
        <time>2021-01-16T10:02:25Z</time>
      </trkpt>
      <trkpt lat="45.31006" lon="6.05144">
        <ele>1850.2</ele>
        <time>2021-01-16T10:02:26Z</time>
      </trkpt>
      <trkpt lat="45.31005" lon="6.05143">
        <ele>1850.4</ele>
        <time>2021-01-16T10:02:27Z</time>
      </trkpt>
      <trkpt lat="45.31004" lon="6.05143">
        <ele>1850.4</ele>
        <time>2021-01-16T10:02:28Z</time>
      </trkpt>
      <trkpt lat="45.31003" lon="6.05143">
        <ele>1850.4</ele>
        <time>2021-01-16T10:02:29Z</time>
      </trkpt>
      <trkpt lat="45.31003" lon="6.05142">
        <ele>1850.4</ele>
        <time>2021-01-16T10:02:30Z</time>
      </trkpt>
      <trkpt lat="45.31002" lon="6.05142">
        <ele>1850.4</ele>
        <time>2021-01-16T10:02:31Z</time>
      </trkpt>
      <trkpt lat="45.31001" lon="6.05142">
        <ele>1850.6</ele>
        <time>2021-01-16T10:02:32Z</time>
      </trkpt>
      <trkpt lat="45.31" lon="6.05142">
        <ele>1850.6</ele>
        <time>2021-01-16T10:02:33Z</time>
      </trkpt>
      <trkpt lat="45.30999" lon="6.05141">
        <ele>1850.6</ele>
        <time>2021-01-16T10:02:34Z</time>
      </trkpt>
      <trkpt lat="45.30998" lon="6.05141">
        <ele>1850.6</ele>
        <time>2021-01-16T10:02:35Z</time>
      </trkpt>
      <trkpt lat="45.30997" lon="6.05141">
        <ele>1850.6</ele>
        <time>2021-01-16T10:02:36Z</time>
      </trkpt>
      <trkpt lat="45.30995" lon="6.0514">
        <ele>1850.6</ele>
        <time>2021-01-16T10:02:37Z</time>
      </trkpt>
      <trkpt lat="45.30995" lon="6.0514">
        <ele>1850.6</ele>
        <time>2021-01-16T10:02:38Z</time>
      </trkpt>
      <trkpt lat="45.30993" lon="6.0514">
        <ele>1850.6</ele>
        <time>2021-01-16T10:02:39Z</time>
      </trkpt>
      <trkpt lat="45.30992" lon="6.0514">
        <ele>1850.6</ele>
        <time>2021-01-16T10:02:40Z</time>
      </trkpt>
      <trkpt lat="45.30991" lon="6.0514">
        <ele>1850.4</ele>
        <time>2021-01-16T10:02:41Z</time>
      </trkpt>
      <trkpt lat="45.3099" lon="6.0514">
        <ele>1850.4</ele>
        <time>2021-01-16T10:02:42Z</time>
      </trkpt>
      <trkpt lat="45.30989" lon="6.0514">
        <ele>1850.4</ele>
        <time>2021-01-16T10:02:43Z</time>
      </trkpt>
      <trkpt lat="45.30988" lon="6.0514">
        <ele>1850.4</ele>
        <time>2021-01-16T10:02:44Z</time>
      </trkpt>
      <trkpt lat="45.30987" lon="6.0514">
        <ele>1850.2</ele>
        <time>2021-01-16T10:02:45Z</time>
      </trkpt>
      <trkpt lat="45.30986" lon="6.05141">
        <ele>1850.4</ele>
        <time>2021-01-16T10:02:46Z</time>
      </trkpt>
      <trkpt lat="45.30985" lon="6.05141">
        <ele>1850.4</ele>
        <time>2021-01-16T10:02:47Z</time>
      </trkpt>
      <trkpt lat="45.30984" lon="6.05142">
        <ele>1850.2</ele>
        <time>2021-01-16T10:02:48Z</time>
      </trkpt>
      <trkpt lat="45.30984" lon="6.05142">
        <ele>1850.4</ele>
        <time>2021-01-16T10:02:49Z</time>
      </trkpt>
      <trkpt lat="45.30983" lon="6.05142">
        <ele>1850.4</ele>
        <time>2021-01-16T10:02:50Z</time>
      </trkpt>
      <trkpt lat="45.30982" lon="6.05143">
        <ele>1850.6</ele>
        <time>2021-01-16T10:02:51Z</time>
      </trkpt>
      <trkpt lat="45.30981" lon="6.05143">
        <ele>1850.6</ele>
        <time>2021-01-16T10:02:52Z</time>
      </trkpt>
      <trkpt lat="45.3098" lon="6.05143">
        <ele>1850.6</ele>
        <time>2021-01-16T10:02:53Z</time>
      </trkpt>
      <trkpt lat="45.30979" lon="6.05144">
        <ele>1850.6</ele>
        <time>2021-01-16T10:02:54Z</time>
      </trkpt>
      <trkpt lat="45.30978" lon="6.05144">
        <ele>1850.8</ele>
        <time>2021-01-16T10:02:55Z</time>
      </trkpt>
      <trkpt lat="45.30977" lon="6.05144">
        <ele>1850.8</ele>
        <time>2021-01-16T10:02:56Z</time>
      </trkpt>
      <trkpt lat="45.30976" lon="6.05144">
        <ele>1850.8</ele>
        <time>2021-01-16T10:02:57Z</time>
      </trkpt>
      <trkpt lat="45.30975" lon="6.05144">
        <ele>1850.8</ele>
        <time>2021-01-16T10:02:58Z</time>
      </trkpt>
      <trkpt lat="45.30974" lon="6.05144">
        <ele>1850.8</ele>
        <time>2021-01-16T10:02:59Z</time>
      </trkpt>
      <trkpt lat="45.30973" lon="6.05144">
        <ele>1850.6</ele>
        <time>2021-01-16T10:03:00Z</time>
      </trkpt>
      <trkpt lat="45.30971" lon="6.05145">
        <ele>1850.6</ele>
        <time>2021-01-16T10:03:01Z</time>
      </trkpt>
      <trkpt lat="45.3097" lon="6.05145">
        <ele>1850.4</ele>
        <time>2021-01-16T10:03:02Z</time>
      </trkpt>
      <trkpt lat="45.30969" lon="6.05145">
        <ele>1850.2</ele>
        <time>2021-01-16T10:03:03Z</time>
      </trkpt>
      <trkpt lat="45.30968" lon="6.05145">
        <ele>1850</ele>
        <time>2021-01-16T10:03:04Z</time>
      </trkpt>
      <trkpt lat="45.30967" lon="6.05145">
        <ele>1850</ele>
        <time>2021-01-16T10:03:05Z</time>
      </trkpt>
      <trkpt lat="45.30966" lon="6.05145">
        <ele>1849.8</ele>
        <time>2021-01-16T10:03:06Z</time>
      </trkpt>
      <trkpt lat="45.30964" lon="6.05144">
        <ele>1849.6</ele>
        <time>2021-01-16T10:03:07Z</time>
      </trkpt>
      <trkpt lat="45.30962" lon="6.05143">
        <ele>1849.4</ele>
        <time>2021-01-16T10:03:08Z</time>
      </trkpt>
      <trkpt lat="45.3096" lon="6.05143">
        <ele>1849.2</ele>
        <time>2021-01-16T10:03:09Z</time>
      </trkpt>
      <trkpt lat="45.30959" lon="6.05142">
        <ele>1849</ele>
        <time>2021-01-16T10:03:10Z</time>
      </trkpt>
      <trkpt lat="45.30957" lon="6.05141">
        <ele>1848.6</ele>
        <time>2021-01-16T10:03:11Z</time>
      </trkpt>
      <trkpt lat="45.30956" lon="6.0514">
        <ele>1848.6</ele>
        <time>2021-01-16T10:03:12Z</time>
      </trkpt>
      <trkpt lat="45.30955" lon="6.05139">
        <ele>1848.4</ele>
        <time>2021-01-16T10:03:13Z</time>
      </trkpt>
      <trkpt lat="45.30954" lon="6.05139">
        <ele>1848.4</ele>
        <time>2021-01-16T10:03:14Z</time>
      </trkpt>
      <trkpt lat="45.30954" lon="6.05138">
        <ele>1848.4</ele>
        <time>2021-01-16T10:03:15Z</time>
      </trkpt>
      <trkpt lat="45.30953" lon="6.05138">
        <ele>1848.4</ele>
        <time>2021-01-16T10:03:16Z</time>
      </trkpt>
      <trkpt lat="45.30952" lon="6.05137">
        <ele>1848.4</ele>
        <time>2021-01-16T10:03:17Z</time>
      </trkpt>
      <trkpt lat="45.3095" lon="6.05137">
        <ele>1848.2</ele>
        <time>2021-01-16T10:03:18Z</time>
      </trkpt>
      <trkpt lat="45.3095" lon="6.05137">
        <ele>1848.2</ele>
        <time>2021-01-16T10:03:19Z</time>
      </trkpt>
      <trkpt lat="45.30949" lon="6.05136">
        <ele>1848.2</ele>
        <time>2021-01-16T10:03:20Z</time>
      </trkpt>
      <trkpt lat="45.30948" lon="6.05136">
        <ele>1848.4</ele>
        <time>2021-01-16T10:03:21Z</time>
      </trkpt>
      <trkpt lat="45.30947" lon="6.05136">
        <ele>1848.4</ele>
        <time>2021-01-16T10:03:22Z</time>
      </trkpt>
      <trkpt lat="45.30947" lon="6.05135">
        <ele>1848.4</ele>
        <time>2021-01-16T10:03:23Z</time>
      </trkpt>
      <trkpt lat="45.30946" lon="6.05135">
        <ele>1848.6</ele>
        <time>2021-01-16T10:03:24Z</time>
      </trkpt>
      <trkpt lat="45.30945" lon="6.05135">
        <ele>1848.6</ele>
        <time>2021-01-16T10:03:25Z</time>
      </trkpt>
      <trkpt lat="45.30945" lon="6.05135">
        <ele>1848.8</ele>
        <time>2021-01-16T10:03:26Z</time>
      </trkpt>
      <trkpt lat="45.30944" lon="6.05134">
        <ele>1849</ele>
        <time>2021-01-16T10:03:27Z</time>
      </trkpt>
      <trkpt lat="45.30942" lon="6.05134">
        <ele>1849</ele>
        <time>2021-01-16T10:03:28Z</time>
      </trkpt>
      <trkpt lat="45.30942" lon="6.05133">
        <ele>1849</ele>
        <time>2021-01-16T10:03:29Z</time>
      </trkpt>
      <trkpt lat="45.30941" lon="6.05133">
        <ele>1849</ele>
        <time>2021-01-16T10:03:30Z</time>
      </trkpt>
      <trkpt lat="45.30939" lon="6.05133">
        <ele>1849</ele>
        <time>2021-01-16T10:03:31Z</time>
      </trkpt>
      <trkpt lat="45.30938" lon="6.05133">
        <ele>1848.8</ele>
        <time>2021-01-16T10:03:32Z</time>
      </trkpt>
      <trkpt lat="45.30937" lon="6.05132">
        <ele>1848.8</ele>
        <time>2021-01-16T10:03:33Z</time>
      </trkpt>
      <trkpt lat="45.30936" lon="6.05132">
        <ele>1848.8</ele>
        <time>2021-01-16T10:03:34Z</time>
      </trkpt>
      <trkpt lat="45.30936" lon="6.05132">
        <ele>1848.8</ele>
        <time>2021-01-16T10:03:35Z</time>
      </trkpt>
      <trkpt lat="45.30934" lon="6.05131">
        <ele>1848.8</ele>
        <time>2021-01-16T10:03:36Z</time>
      </trkpt>
      <trkpt lat="45.30933" lon="6.05131">
        <ele>1848.8</ele>
        <time>2021-01-16T10:03:37Z</time>
      </trkpt>
      <trkpt lat="45.30932" lon="6.05131">
        <ele>1848.6</ele>
        <time>2021-01-16T10:03:38Z</time>
      </trkpt>
      <trkpt lat="45.30931" lon="6.0513">
        <ele>1848.6</ele>
        <time>2021-01-16T10:03:39Z</time>
      </trkpt>
      <trkpt lat="45.3093" lon="6.0513">
        <ele>1848.4</ele>
        <time>2021-01-16T10:03:40Z</time>
      </trkpt>
      <trkpt lat="45.30929" lon="6.0513">
        <ele>1848.4</ele>
        <time>2021-01-16T10:03:41Z</time>
      </trkpt>
      <trkpt lat="45.30927" lon="6.05129">
        <ele>1848.2</ele>
        <time>2021-01-16T10:03:42Z</time>
      </trkpt>
      <trkpt lat="45.30926" lon="6.05129">
        <ele>1848.2</ele>
        <time>2021-01-16T10:03:43Z</time>
      </trkpt>
      <trkpt lat="45.30925" lon="6.05129">
        <ele>1848.2</ele>
        <time>2021-01-16T10:03:44Z</time>
      </trkpt>
      <trkpt lat="45.30924" lon="6.05128">
        <ele>1848</ele>
        <time>2021-01-16T10:03:45Z</time>
      </trkpt>
      <trkpt lat="45.30923" lon="6.05128">
        <ele>1848.2</ele>
        <time>2021-01-16T10:03:46Z</time>
      </trkpt>
      <trkpt lat="45.30923" lon="6.05129">
        <ele>1848.2</ele>
        <time>2021-01-16T10:03:47Z</time>
      </trkpt>
      <trkpt lat="45.30922" lon="6.05129">
        <ele>1848</ele>
        <time>2021-01-16T10:03:48Z</time>
      </trkpt>
      <trkpt lat="45.30921" lon="6.05129">
        <ele>1848</ele>
        <time>2021-01-16T10:03:49Z</time>
      </trkpt>
      <trkpt lat="45.3092" lon="6.05129">
        <ele>1848</ele>
        <time>2021-01-16T10:03:50Z</time>
      </trkpt>
      <trkpt lat="45.30919" lon="6.05128">
        <ele>1848</ele>
        <time>2021-01-16T10:03:51Z</time>
      </trkpt>
      <trkpt lat="45.30918" lon="6.05128">
        <ele>1848</ele>
        <time>2021-01-16T10:03:52Z</time>
      </trkpt>
      <trkpt lat="45.30918" lon="6.05127">
        <ele>1848</ele>
        <time>2021-01-16T10:03:53Z</time>
      </trkpt>
      <trkpt lat="45.30917" lon="6.05127">
        <ele>1848.2</ele>
        <time>2021-01-16T10:03:54Z</time>
      </trkpt>
      <trkpt lat="45.30916" lon="6.05126">
        <ele>1848.2</ele>
        <time>2021-01-16T10:03:55Z</time>
      </trkpt>
      <trkpt lat="45.30915" lon="6.05126">
        <ele>1848.2</ele>
        <time>2021-01-16T10:03:56Z</time>
      </trkpt>
      <trkpt lat="45.30914" lon="6.05125">
        <ele>1848.2</ele>
        <time>2021-01-16T10:03:57Z</time>
      </trkpt>
      <trkpt lat="45.30913" lon="6.05125">
        <ele>1848.2</ele>
        <time>2021-01-16T10:03:58Z</time>
      </trkpt>
      <trkpt lat="45.30912" lon="6.05124">
        <ele>1848.4</ele>
        <time>2021-01-16T10:03:59Z</time>
      </trkpt>
      <trkpt lat="45.30912" lon="6.05124">
        <ele>1848.6</ele>
        <time>2021-01-16T10:04:00Z</time>
      </trkpt>
      <trkpt lat="45.30911" lon="6.05123">
        <ele>1848.6</ele>
        <time>2021-01-16T10:04:01Z</time>
      </trkpt>
      <trkpt lat="45.3091" lon="6.05123">
        <ele>1848.8</ele>
        <time>2021-01-16T10:04:02Z</time>
      </trkpt>
      <trkpt lat="45.3091" lon="6.05123">
        <ele>1848.8</ele>
        <time>2021-01-16T10:04:03Z</time>
      </trkpt>
      <trkpt lat="45.30909" lon="6.05122">
        <ele>1849</ele>
        <time>2021-01-16T10:04:04Z</time>
      </trkpt>
      <trkpt lat="45.30908" lon="6.05122">
        <ele>1849</ele>
        <time>2021-01-16T10:04:05Z</time>
      </trkpt>
      <trkpt lat="45.30907" lon="6.05121">
        <ele>1849</ele>
        <time>2021-01-16T10:04:06Z</time>
      </trkpt>
      <trkpt lat="45.30906" lon="6.05121">
        <ele>1849.2</ele>
        <time>2021-01-16T10:04:07Z</time>
      </trkpt>
      <trkpt lat="45.30905" lon="6.0512">
        <ele>1849.2</ele>
        <time>2021-01-16T10:04:08Z</time>
      </trkpt>
      <trkpt lat="45.30904" lon="6.0512">
        <ele>1849.2</ele>
        <time>2021-01-16T10:04:09Z</time>
      </trkpt>
      <trkpt lat="45.30903" lon="6.05119">
        <ele>1849.2</ele>
        <time>2021-01-16T10:04:10Z</time>
      </trkpt>
      <trkpt lat="45.30902" lon="6.05119">
        <ele>1849.2</ele>
        <time>2021-01-16T10:04:11Z</time>
      </trkpt>
      <trkpt lat="45.30901" lon="6.05119">
        <ele>1849.2</ele>
        <time>2021-01-16T10:04:12Z</time>
      </trkpt>
      <trkpt lat="45.309" lon="6.05118">
        <ele>1849.4</ele>
        <time>2021-01-16T10:04:13Z</time>
      </trkpt>
      <trkpt lat="45.30899" lon="6.05118">
        <ele>1849.4</ele>
        <time>2021-01-16T10:04:14Z</time>
      </trkpt>
      <trkpt lat="45.30899" lon="6.05118">
        <ele>1849.4</ele>
        <time>2021-01-16T10:04:15Z</time>
      </trkpt>
      <trkpt lat="45.30897" lon="6.05117">
        <ele>1849.4</ele>
        <time>2021-01-16T10:04:16Z</time>
      </trkpt>
      <trkpt lat="45.30896" lon="6.05116">
        <ele>1849.4</ele>
        <time>2021-01-16T10:04:17Z</time>
      </trkpt>
      <trkpt lat="45.30896" lon="6.05116">
        <ele>1849.4</ele>
        <time>2021-01-16T10:04:18Z</time>
      </trkpt>
      <trkpt lat="45.30895" lon="6.05115">
        <ele>1849.6</ele>
        <time>2021-01-16T10:04:19Z</time>
      </trkpt>
      <trkpt lat="45.30894" lon="6.05115">
        <ele>1849.6</ele>
        <time>2021-01-16T10:04:20Z</time>
      </trkpt>
      <trkpt lat="45.30893" lon="6.05114">
        <ele>1849.6</ele>
        <time>2021-01-16T10:04:21Z</time>
      </trkpt>
      <trkpt lat="45.30892" lon="6.05114">
        <ele>1849.6</ele>
        <time>2021-01-16T10:04:22Z</time>
      </trkpt>
      <trkpt lat="45.30891" lon="6.05113">
        <ele>1849.8</ele>
        <time>2021-01-16T10:04:23Z</time>
      </trkpt>
      <trkpt lat="45.3089" lon="6.05112">
        <ele>1849.6</ele>
        <time>2021-01-16T10:04:24Z</time>
      </trkpt>
      <trkpt lat="45.30889" lon="6.05111">
        <ele>1849.6</ele>
        <time>2021-01-16T10:04:25Z</time>
      </trkpt>
      <trkpt lat="45.30888" lon="6.0511">
        <ele>1849.6</ele>
        <time>2021-01-16T10:04:26Z</time>
      </trkpt>
      <trkpt lat="45.30888" lon="6.05109">
        <ele>1849.6</ele>
        <time>2021-01-16T10:04:27Z</time>
      </trkpt>
      <trkpt lat="45.30887" lon="6.05108">
        <ele>1849.6</ele>
        <time>2021-01-16T10:04:28Z</time>
      </trkpt>
      <trkpt lat="45.30886" lon="6.05107">
        <ele>1849.6</ele>
        <time>2021-01-16T10:04:29Z</time>
      </trkpt>
      <trkpt lat="45.30885" lon="6.05106">
        <ele>1849.8</ele>
        <time>2021-01-16T10:04:30Z</time>
      </trkpt>
      <trkpt lat="45.30884" lon="6.05106">
        <ele>1849.8</ele>
        <time>2021-01-16T10:04:31Z</time>
      </trkpt>
      <trkpt lat="45.30884" lon="6.05106">
        <ele>1849.8</ele>
        <time>2021-01-16T10:04:32Z</time>
      </trkpt>
      <trkpt lat="45.30883" lon="6.05106">
        <ele>1850</ele>
        <time>2021-01-16T10:04:33Z</time>
      </trkpt>
      <trkpt lat="45.30882" lon="6.05105">
        <ele>1850</ele>
        <time>2021-01-16T10:04:34Z</time>
      </trkpt>
      <trkpt lat="45.30881" lon="6.05105">
        <ele>1850</ele>
        <time>2021-01-16T10:04:35Z</time>
      </trkpt>
      <trkpt lat="45.3088" lon="6.05105">
        <ele>1850.2</ele>
        <time>2021-01-16T10:04:36Z</time>
      </trkpt>
      <trkpt lat="45.3088" lon="6.05105">
        <ele>1850.2</ele>
        <time>2021-01-16T10:04:37Z</time>
      </trkpt>
      <trkpt lat="45.30879" lon="6.05105">
        <ele>1850.2</ele>
        <time>2021-01-16T10:04:38Z</time>
      </trkpt>
      <trkpt lat="45.30878" lon="6.05105">
        <ele>1850.4</ele>
        <time>2021-01-16T10:04:39Z</time>
      </trkpt>
      <trkpt lat="45.30876" lon="6.05105">
        <ele>1850.4</ele>
        <time>2021-01-16T10:04:40Z</time>
      </trkpt>
      <trkpt lat="45.30876" lon="6.05105">
        <ele>1850.4</ele>
        <time>2021-01-16T10:04:41Z</time>
      </trkpt>
      <trkpt lat="45.30875" lon="6.05105">
        <ele>1850.4</ele>
        <time>2021-01-16T10:04:42Z</time>
      </trkpt>
      <trkpt lat="45.30874" lon="6.05105">
        <ele>1850.6</ele>
        <time>2021-01-16T10:04:43Z</time>
      </trkpt>
      <trkpt lat="45.30873" lon="6.05105">
        <ele>1850.6</ele>
        <time>2021-01-16T10:04:44Z</time>
      </trkpt>
      <trkpt lat="45.30872" lon="6.05104">
        <ele>1850.6</ele>
        <time>2021-01-16T10:04:45Z</time>
      </trkpt>
      <trkpt lat="45.30871" lon="6.05104">
        <ele>1850.8</ele>
        <time>2021-01-16T10:04:46Z</time>
      </trkpt>
      <trkpt lat="45.30871" lon="6.05104">
        <ele>1850.8</ele>
        <time>2021-01-16T10:04:47Z</time>
      </trkpt>
      <trkpt lat="45.3087" lon="6.05103">
        <ele>1850.8</ele>
        <time>2021-01-16T10:04:48Z</time>
      </trkpt>
      <trkpt lat="45.30869" lon="6.05103">
        <ele>1851</ele>
        <time>2021-01-16T10:04:49Z</time>
      </trkpt>
      <trkpt lat="45.30868" lon="6.05102">
        <ele>1851</ele>
        <time>2021-01-16T10:04:50Z</time>
      </trkpt>
      <trkpt lat="45.30867" lon="6.05101">
        <ele>1851</ele>
        <time>2021-01-16T10:04:51Z</time>
      </trkpt>
      <trkpt lat="45.30867" lon="6.05101">
        <ele>1851.2</ele>
        <time>2021-01-16T10:04:52Z</time>
      </trkpt>
      <trkpt lat="45.30866" lon="6.051">
        <ele>1851.2</ele>
        <time>2021-01-16T10:04:53Z</time>
      </trkpt>
      <trkpt lat="45.30865" lon="6.051">
        <ele>1851.4</ele>
        <time>2021-01-16T10:04:54Z</time>
      </trkpt>
      <trkpt lat="45.30865" lon="6.051">
        <ele>1851.6</ele>
        <time>2021-01-16T10:04:55Z</time>
      </trkpt>
      <trkpt lat="45.30864" lon="6.05099">
        <ele>1851.6</ele>
        <time>2021-01-16T10:04:56Z</time>
      </trkpt>
      <trkpt lat="45.30864" lon="6.05099">
        <ele>1851.8</ele>
        <time>2021-01-16T10:04:57Z</time>
      </trkpt>
      <trkpt lat="45.30863" lon="6.05098">
        <ele>1851.8</ele>
        <time>2021-01-16T10:04:58Z</time>
      </trkpt>
      <trkpt lat="45.30862" lon="6.05098">
        <ele>1852</ele>
        <time>2021-01-16T10:04:59Z</time>
      </trkpt>
      <trkpt lat="45.30862" lon="6.05098">
        <ele>1852.2</ele>
        <time>2021-01-16T10:05:00Z</time>
      </trkpt>
      <trkpt lat="45.30861" lon="6.05097">
        <ele>1852.2</ele>
        <time>2021-01-16T10:05:01Z</time>
      </trkpt>
      <trkpt lat="45.3086" lon="6.05096">
        <ele>1852.4</ele>
        <time>2021-01-16T10:05:02Z</time>
      </trkpt>
      <trkpt lat="45.30859" lon="6.05096">
        <ele>1852.6</ele>
        <time>2021-01-16T10:05:03Z</time>
      </trkpt>
      <trkpt lat="45.30859" lon="6.05095">
        <ele>1852.6</ele>
        <time>2021-01-16T10:05:04Z</time>
      </trkpt>
      <trkpt lat="45.30858" lon="6.05094">
        <ele>1852.8</ele>
        <time>2021-01-16T10:05:05Z</time>
      </trkpt>
      <trkpt lat="45.30858" lon="6.05094">
        <ele>1852.8</ele>
        <time>2021-01-16T10:05:06Z</time>
      </trkpt>
      <trkpt lat="45.30857" lon="6.05093">
        <ele>1853</ele>
        <time>2021-01-16T10:05:07Z</time>
      </trkpt>
      <trkpt lat="45.30856" lon="6.05093">
        <ele>1853</ele>
        <time>2021-01-16T10:05:08Z</time>
      </trkpt>
      <trkpt lat="45.30855" lon="6.05092">
        <ele>1853.2</ele>
        <time>2021-01-16T10:05:09Z</time>
      </trkpt>
      <trkpt lat="45.30855" lon="6.05091">
        <ele>1853.2</ele>
        <time>2021-01-16T10:05:10Z</time>
      </trkpt>
      <trkpt lat="45.30854" lon="6.05091">
        <ele>1853.4</ele>
        <time>2021-01-16T10:05:11Z</time>
      </trkpt>
      <trkpt lat="45.30853" lon="6.0509">
        <ele>1853.4</ele>
        <time>2021-01-16T10:05:12Z</time>
      </trkpt>
      <trkpt lat="45.30852" lon="6.0509">
        <ele>1853.4</ele>
        <time>2021-01-16T10:05:13Z</time>
      </trkpt>
      <trkpt lat="45.30852" lon="6.05089">
        <ele>1853.6</ele>
        <time>2021-01-16T10:05:14Z</time>
      </trkpt>
      <trkpt lat="45.30851" lon="6.05089">
        <ele>1853.6</ele>
        <time>2021-01-16T10:05:15Z</time>
      </trkpt>
      <trkpt lat="45.3085" lon="6.05088">
        <ele>1853.6</ele>
        <time>2021-01-16T10:05:16Z</time>
      </trkpt>
      <trkpt lat="45.30849" lon="6.05088">
        <ele>1853.6</ele>
        <time>2021-01-16T10:05:17Z</time>
      </trkpt>
      <trkpt lat="45.30848" lon="6.05087">
        <ele>1853.8</ele>
        <time>2021-01-16T10:05:18Z</time>
      </trkpt>
      <trkpt lat="45.30847" lon="6.05087">
        <ele>1853.8</ele>
        <time>2021-01-16T10:05:19Z</time>
      </trkpt>
      <trkpt lat="45.30847" lon="6.05086">
        <ele>1854</ele>
        <time>2021-01-16T10:05:20Z</time>
      </trkpt>
      <trkpt lat="45.30846" lon="6.05085">
        <ele>1854</ele>
        <time>2021-01-16T10:05:21Z</time>
      </trkpt>
      <trkpt lat="45.30845" lon="6.05085">
        <ele>1854.2</ele>
        <time>2021-01-16T10:05:22Z</time>
      </trkpt>
      <trkpt lat="45.30844" lon="6.05084">
        <ele>1854.2</ele>
        <time>2021-01-16T10:05:23Z</time>
      </trkpt>
      <trkpt lat="45.30844" lon="6.05084">
        <ele>1854.4</ele>
        <time>2021-01-16T10:05:24Z</time>
      </trkpt>
      <trkpt lat="45.30843" lon="6.05084">
        <ele>1854.4</ele>
        <time>2021-01-16T10:05:25Z</time>
      </trkpt>
      <trkpt lat="45.30843" lon="6.05083">
        <ele>1854.6</ele>
        <time>2021-01-16T10:05:26Z</time>
      </trkpt>
      <trkpt lat="45.30842" lon="6.05083">
        <ele>1854.8</ele>
        <time>2021-01-16T10:05:27Z</time>
      </trkpt>
      <trkpt lat="45.30841" lon="6.05082">
        <ele>1854.8</ele>
        <time>2021-01-16T10:05:28Z</time>
      </trkpt>
      <trkpt lat="45.30841" lon="6.05081">
        <ele>1855</ele>
        <time>2021-01-16T10:05:29Z</time>
      </trkpt>
      <trkpt lat="45.3084" lon="6.05081">
        <ele>1855.2</ele>
        <time>2021-01-16T10:05:30Z</time>
      </trkpt>
      <trkpt lat="45.30839" lon="6.0508">
        <ele>1855.2</ele>
        <time>2021-01-16T10:05:31Z</time>
      </trkpt>
      <trkpt lat="45.30838" lon="6.0508">
        <ele>1855.4</ele>
        <time>2021-01-16T10:05:32Z</time>
      </trkpt>
      <trkpt lat="45.30838" lon="6.05079">
        <ele>1855.4</ele>
        <time>2021-01-16T10:05:33Z</time>
      </trkpt>
      <trkpt lat="45.30838" lon="6.05078">
        <ele>1855.6</ele>
        <time>2021-01-16T10:05:34Z</time>
      </trkpt>
      <trkpt lat="45.30837" lon="6.05078">
        <ele>1855.8</ele>
        <time>2021-01-16T10:05:35Z</time>
      </trkpt>
      <trkpt lat="45.30836" lon="6.05077">
        <ele>1856</ele>
        <time>2021-01-16T10:05:36Z</time>
      </trkpt>
      <trkpt lat="45.30836" lon="6.05076">
        <ele>1856</ele>
        <time>2021-01-16T10:05:37Z</time>
      </trkpt>
      <trkpt lat="45.30835" lon="6.05075">
        <ele>1856</ele>
        <time>2021-01-16T10:05:38Z</time>
      </trkpt>
      <trkpt lat="45.30834" lon="6.05074">
        <ele>1856.2</ele>
        <time>2021-01-16T10:05:39Z</time>
      </trkpt>
      <trkpt lat="45.30834" lon="6.05074">
        <ele>1856.2</ele>
        <time>2021-01-16T10:05:40Z</time>
      </trkpt>
      <trkpt lat="45.30833" lon="6.05073">
        <ele>1856.2</ele>
        <time>2021-01-16T10:05:41Z</time>
      </trkpt>
      <trkpt lat="45.30832" lon="6.05072">
        <ele>1856.4</ele>
        <time>2021-01-16T10:05:42Z</time>
      </trkpt>
      <trkpt lat="45.30832" lon="6.05071">
        <ele>1856.4</ele>
        <time>2021-01-16T10:05:43Z</time>
      </trkpt>
      <trkpt lat="45.30831" lon="6.05071">
        <ele>1856.4</ele>
        <time>2021-01-16T10:05:44Z</time>
      </trkpt>
      <trkpt lat="45.3083" lon="6.0507">
        <ele>1856.6</ele>
        <time>2021-01-16T10:05:45Z</time>
      </trkpt>
      <trkpt lat="45.3083" lon="6.05069">
        <ele>1856.6</ele>
        <time>2021-01-16T10:05:46Z</time>
      </trkpt>
      <trkpt lat="45.30829" lon="6.05069">
        <ele>1856.8</ele>
        <time>2021-01-16T10:05:47Z</time>
      </trkpt>
      <trkpt lat="45.30828" lon="6.05068">
        <ele>1856.8</ele>
        <time>2021-01-16T10:05:48Z</time>
      </trkpt>
      <trkpt lat="45.30828" lon="6.05067">
        <ele>1856.8</ele>
        <time>2021-01-16T10:05:49Z</time>
      </trkpt>
      <trkpt lat="45.30827" lon="6.05066">
        <ele>1857</ele>
        <time>2021-01-16T10:05:50Z</time>
      </trkpt>
      <trkpt lat="45.30827" lon="6.05066">
        <ele>1857</ele>
        <time>2021-01-16T10:05:51Z</time>
      </trkpt>
      <trkpt lat="45.30826" lon="6.05065">
        <ele>1857.2</ele>
        <time>2021-01-16T10:05:52Z</time>
      </trkpt>
      <trkpt lat="45.30825" lon="6.05064">
        <ele>1857.2</ele>
        <time>2021-01-16T10:05:53Z</time>
      </trkpt>
      <trkpt lat="45.30825" lon="6.05063">
        <ele>1857.2</ele>
        <time>2021-01-16T10:05:54Z</time>
      </trkpt>
      <trkpt lat="45.30824" lon="6.05062">
        <ele>1857.2</ele>
        <time>2021-01-16T10:05:55Z</time>
      </trkpt>
      <trkpt lat="45.30823" lon="6.05062">
        <ele>1857.2</ele>
        <time>2021-01-16T10:05:56Z</time>
      </trkpt>
      <trkpt lat="45.30822" lon="6.05061">
        <ele>1857.2</ele>
        <time>2021-01-16T10:05:57Z</time>
      </trkpt>
      <trkpt lat="45.30822" lon="6.0506">
        <ele>1857.2</ele>
        <time>2021-01-16T10:05:58Z</time>
      </trkpt>
      <trkpt lat="45.30821" lon="6.0506">
        <ele>1857.2</ele>
        <time>2021-01-16T10:05:59Z</time>
      </trkpt>
      <trkpt lat="45.3082" lon="6.05059">
        <ele>1857.2</ele>
        <time>2021-01-16T10:06:00Z</time>
      </trkpt>
      <trkpt lat="45.30819" lon="6.05058">
        <ele>1857.2</ele>
        <time>2021-01-16T10:06:01Z</time>
      </trkpt>
      <trkpt lat="45.30818" lon="6.05057">
        <ele>1857.2</ele>
        <time>2021-01-16T10:06:02Z</time>
      </trkpt>
      <trkpt lat="45.30818" lon="6.05056">
        <ele>1857.2</ele>
        <time>2021-01-16T10:06:03Z</time>
      </trkpt>
      <trkpt lat="45.30817" lon="6.05056">
        <ele>1857.4</ele>
        <time>2021-01-16T10:06:04Z</time>
      </trkpt>
      <trkpt lat="45.30816" lon="6.05055">
        <ele>1857.4</ele>
        <time>2021-01-16T10:06:05Z</time>
      </trkpt>
      <trkpt lat="45.30816" lon="6.05054">
        <ele>1857.4</ele>
        <time>2021-01-16T10:06:06Z</time>
      </trkpt>
      <trkpt lat="45.30815" lon="6.05053">
        <ele>1857.4</ele>
        <time>2021-01-16T10:06:07Z</time>
      </trkpt>
      <trkpt lat="45.30815" lon="6.05053">
        <ele>1857.4</ele>
        <time>2021-01-16T10:06:08Z</time>
      </trkpt>
      <trkpt lat="45.30815" lon="6.05053">
        <ele>1857.4</ele>
        <time>2021-01-16T10:06:09Z</time>
      </trkpt>
      <trkpt lat="45.30815" lon="6.05053">
        <ele>1857.4</ele>
        <time>2021-01-16T10:06:10Z</time>
      </trkpt>
      <trkpt lat="45.30815" lon="6.05053">
        <ele>1857.4</ele>
        <time>2021-01-16T10:06:11Z</time>
      </trkpt>
      <trkpt lat="45.30815" lon="6.05053">
        <ele>1857.6</ele>
        <time>2021-01-16T10:06:12Z</time>
      </trkpt>
      <trkpt lat="45.30815" lon="6.05053">
        <ele>1857.4</ele>
        <time>2021-01-16T10:06:13Z</time>
      </trkpt>
      <trkpt lat="45.30815" lon="6.05053">
        <ele>1857.6</ele>
        <time>2021-01-16T10:06:14Z</time>
      </trkpt>
      <trkpt lat="45.30815" lon="6.05054">
        <ele>1857.6</ele>
        <time>2021-01-16T10:06:15Z</time>
      </trkpt>
      <trkpt lat="45.30816" lon="6.05056">
        <ele>1857.8</ele>
        <time>2021-01-16T10:06:16Z</time>
      </trkpt>
      <trkpt lat="45.30816" lon="6.05057">
        <ele>1857.8</ele>
        <time>2021-01-16T10:06:17Z</time>
      </trkpt>
      <trkpt lat="45.30816" lon="6.05058">
        <ele>1858</ele>
        <time>2021-01-16T10:06:18Z</time>
      </trkpt>
      <trkpt lat="45.30816" lon="6.05059">
        <ele>1858.2</ele>
        <time>2021-01-16T10:06:19Z</time>
      </trkpt>
      <trkpt lat="45.30816" lon="6.0506">
        <ele>1858.2</ele>
        <time>2021-01-16T10:06:20Z</time>
      </trkpt>
      <trkpt lat="45.30817" lon="6.0506">
        <ele>1858.2</ele>
        <time>2021-01-16T10:06:21Z</time>
      </trkpt>
      <trkpt lat="45.30817" lon="6.05061">
        <ele>1858.4</ele>
        <time>2021-01-16T10:06:22Z</time>
      </trkpt>
      <trkpt lat="45.30817" lon="6.05062">
        <ele>1858.6</ele>
        <time>2021-01-16T10:06:23Z</time>
      </trkpt>
      <trkpt lat="45.30817" lon="6.05063">
        <ele>1858.8</ele>
        <time>2021-01-16T10:06:24Z</time>
      </trkpt>
      <trkpt lat="45.30817" lon="6.05064">
        <ele>1859</ele>
        <time>2021-01-16T10:06:25Z</time>
      </trkpt>
      <trkpt lat="45.30817" lon="6.05065">
        <ele>1859.2</ele>
        <time>2021-01-16T10:06:26Z</time>
      </trkpt>
      <trkpt lat="45.30817" lon="6.05066">
        <ele>1859.4</ele>
        <time>2021-01-16T10:06:27Z</time>
      </trkpt>
      <trkpt lat="45.30817" lon="6.05067">
        <ele>1859.4</ele>
        <time>2021-01-16T10:06:28Z</time>
      </trkpt>
      <trkpt lat="45.30817" lon="6.05068">
        <ele>1859.6</ele>
        <time>2021-01-16T10:06:29Z</time>
      </trkpt>
      <trkpt lat="45.30817" lon="6.05068">
        <ele>1859.6</ele>
        <time>2021-01-16T10:06:30Z</time>
      </trkpt>
      <trkpt lat="45.30817" lon="6.05069">
        <ele>1859.8</ele>
        <time>2021-01-16T10:06:31Z</time>
      </trkpt>
      <trkpt lat="45.30817" lon="6.0507">
        <ele>1860</ele>
        <time>2021-01-16T10:06:32Z</time>
      </trkpt>
      <trkpt lat="45.30817" lon="6.05071">
        <ele>1860</ele>
        <time>2021-01-16T10:06:33Z</time>
      </trkpt>
      <trkpt lat="45.30817" lon="6.05072">
        <ele>1860.2</ele>
        <time>2021-01-16T10:06:34Z</time>
      </trkpt>
      <trkpt lat="45.30817" lon="6.05073">
        <ele>1860.4</ele>
        <time>2021-01-16T10:06:35Z</time>
      </trkpt>
      <trkpt lat="45.30817" lon="6.05073">
        <ele>1860.4</ele>
        <time>2021-01-16T10:06:36Z</time>
      </trkpt>
      <trkpt lat="45.30817" lon="6.05074">
        <ele>1860.6</ele>
        <time>2021-01-16T10:06:37Z</time>
      </trkpt>
      <trkpt lat="45.30817" lon="6.05075">
        <ele>1860.6</ele>
        <time>2021-01-16T10:06:38Z</time>
      </trkpt>
      <trkpt lat="45.30816" lon="6.05075">
        <ele>1860.8</ele>
        <time>2021-01-16T10:06:39Z</time>
      </trkpt>
      <trkpt lat="45.30815" lon="6.05075">
        <ele>1861</ele>
        <time>2021-01-16T10:06:40Z</time>
      </trkpt>
      <trkpt lat="45.30815" lon="6.05076">
        <ele>1861.2</ele>
        <time>2021-01-16T10:06:41Z</time>
      </trkpt>
      <trkpt lat="45.30814" lon="6.05076">
        <ele>1861.4</ele>
        <time>2021-01-16T10:06:42Z</time>
      </trkpt>
      <trkpt lat="45.30814" lon="6.05077">
        <ele>1861.4</ele>
        <time>2021-01-16T10:06:43Z</time>
      </trkpt>
      <trkpt lat="45.30813" lon="6.05077">
        <ele>1861.6</ele>
        <time>2021-01-16T10:06:44Z</time>
      </trkpt>
      <trkpt lat="45.30812" lon="6.05077">
        <ele>1861.8</ele>
        <time>2021-01-16T10:06:45Z</time>
      </trkpt>
      <trkpt lat="45.30812" lon="6.05077">
        <ele>1861.8</ele>
        <time>2021-01-16T10:06:46Z</time>
      </trkpt>
      <trkpt lat="45.30811" lon="6.05078">
        <ele>1862.2</ele>
        <time>2021-01-16T10:06:47Z</time>
      </trkpt>
      <trkpt lat="45.3081" lon="6.05078">
        <ele>1862.4</ele>
        <time>2021-01-16T10:06:48Z</time>
      </trkpt>
      <trkpt lat="45.3081" lon="6.05078">
        <ele>1862.6</ele>
        <time>2021-01-16T10:06:49Z</time>
      </trkpt>
      <trkpt lat="45.30809" lon="6.05078">
        <ele>1862.6</ele>
        <time>2021-01-16T10:06:50Z</time>
      </trkpt>
      <trkpt lat="45.30808" lon="6.05078">
        <ele>1862.8</ele>
        <time>2021-01-16T10:06:51Z</time>
      </trkpt>
      <trkpt lat="45.30807" lon="6.05078">
        <ele>1862.8</ele>
        <time>2021-01-16T10:06:52Z</time>
      </trkpt>
      <trkpt lat="45.30807" lon="6.05078">
        <ele>1863</ele>
        <time>2021-01-16T10:06:53Z</time>
      </trkpt>
      <trkpt lat="45.30807" lon="6.05078">
        <ele>1863</ele>
        <time>2021-01-16T10:06:54Z</time>
      </trkpt>
      <trkpt lat="45.30807" lon="6.05078">
        <ele>1863.2</ele>
        <time>2021-01-16T10:06:55Z</time>
      </trkpt>
      <trkpt lat="45.30807" lon="6.05078">
        <ele>1863.4</ele>
        <time>2021-01-16T10:06:56Z</time>
      </trkpt>
      <trkpt lat="45.30807" lon="6.05078">
        <ele>1863.4</ele>
        <time>2021-01-16T10:06:57Z</time>
      </trkpt>
      <trkpt lat="45.30807" lon="6.05078">
        <ele>1863.6</ele>
        <time>2021-01-16T10:06:58Z</time>
      </trkpt>
      <trkpt lat="45.30804" lon="6.05077">
        <ele>1863.8</ele>
        <time>2021-01-16T10:06:59Z</time>
      </trkpt>
      <trkpt lat="45.30803" lon="6.05077">
        <ele>1863.8</ele>
        <time>2021-01-16T10:07:00Z</time>
      </trkpt>
      <trkpt lat="45.30802" lon="6.05077">
        <ele>1864.2</ele>
        <time>2021-01-16T10:07:01Z</time>
      </trkpt>
      <trkpt lat="45.30801" lon="6.05076">
        <ele>1864.2</ele>
        <time>2021-01-16T10:07:02Z</time>
      </trkpt>
      <trkpt lat="45.30801" lon="6.05076">
        <ele>1864.4</ele>
        <time>2021-01-16T10:07:03Z</time>
      </trkpt>
      <trkpt lat="45.30801" lon="6.05076">
        <ele>1864.6</ele>
        <time>2021-01-16T10:07:04Z</time>
      </trkpt>
      <trkpt lat="45.308" lon="6.05076">
        <ele>1864.8</ele>
        <time>2021-01-16T10:07:05Z</time>
      </trkpt>
      <trkpt lat="45.30799" lon="6.05075">
        <ele>1865</ele>
        <time>2021-01-16T10:07:06Z</time>
      </trkpt>
      <trkpt lat="45.30799" lon="6.05075">
        <ele>1865</ele>
        <time>2021-01-16T10:07:07Z</time>
      </trkpt>
      <trkpt lat="45.30798" lon="6.05075">
        <ele>1865.2</ele>
        <time>2021-01-16T10:07:08Z</time>
      </trkpt>
      <trkpt lat="45.30797" lon="6.05075">
        <ele>1865.4</ele>
        <time>2021-01-16T10:07:09Z</time>
      </trkpt>
      <trkpt lat="45.30797" lon="6.05074">
        <ele>1865.4</ele>
        <time>2021-01-16T10:07:10Z</time>
      </trkpt>
      <trkpt lat="45.30796" lon="6.05074">
        <ele>1865.6</ele>
        <time>2021-01-16T10:07:11Z</time>
      </trkpt>
      <trkpt lat="45.30795" lon="6.05074">
        <ele>1865.6</ele>
        <time>2021-01-16T10:07:12Z</time>
      </trkpt>
      <trkpt lat="45.30795" lon="6.05074">
        <ele>1865.8</ele>
        <time>2021-01-16T10:07:13Z</time>
      </trkpt>
      <trkpt lat="45.30794" lon="6.05073">
        <ele>1865.8</ele>
        <time>2021-01-16T10:07:14Z</time>
      </trkpt>
      <trkpt lat="45.30793" lon="6.05073">
        <ele>1866</ele>
        <time>2021-01-16T10:07:15Z</time>
      </trkpt>
      <trkpt lat="45.30793" lon="6.05072">
        <ele>1866.2</ele>
        <time>2021-01-16T10:07:16Z</time>
      </trkpt>
      <trkpt lat="45.30792" lon="6.05073">
        <ele>1866.2</ele>
        <time>2021-01-16T10:07:17Z</time>
      </trkpt>
      <trkpt lat="45.30792" lon="6.05072">
        <ele>1866.4</ele>
        <time>2021-01-16T10:07:18Z</time>
      </trkpt>
      <trkpt lat="45.30792" lon="6.05072">
        <ele>1866.6</ele>
        <time>2021-01-16T10:07:19Z</time>
      </trkpt>
      <trkpt lat="45.30792" lon="6.05072">
        <ele>1866.6</ele>
        <time>2021-01-16T10:07:20Z</time>
      </trkpt>
      <trkpt lat="45.30792" lon="6.05072">
        <ele>1866.8</ele>
        <time>2021-01-16T10:07:21Z</time>
      </trkpt>
      <trkpt lat="45.30792" lon="6.05072">
        <ele>1867</ele>
        <time>2021-01-16T10:07:22Z</time>
      </trkpt>
      <trkpt lat="45.30792" lon="6.05072">
        <ele>1867</ele>
        <time>2021-01-16T10:07:23Z</time>
      </trkpt>
      <trkpt lat="45.30792" lon="6.05072">
        <ele>1867</ele>
        <time>2021-01-16T10:07:24Z</time>
      </trkpt>
      <trkpt lat="45.30792" lon="6.05072">
        <ele>1867.2</ele>
        <time>2021-01-16T10:07:25Z</time>
      </trkpt>
      <trkpt lat="45.30791" lon="6.05072">
        <ele>1867.2</ele>
        <time>2021-01-16T10:07:26Z</time>
      </trkpt>
      <trkpt lat="45.30786" lon="6.0507">
        <ele>1867.6</ele>
        <time>2021-01-16T10:07:27Z</time>
      </trkpt>
      <trkpt lat="45.30786" lon="6.0507">
        <ele>1867.6</ele>
        <time>2021-01-16T10:07:28Z</time>
      </trkpt>
      <trkpt lat="45.30785" lon="6.05069">
        <ele>1867.8</ele>
        <time>2021-01-16T10:07:29Z</time>
      </trkpt>
      <trkpt lat="45.30785" lon="6.05069">
        <ele>1868</ele>
        <time>2021-01-16T10:07:30Z</time>
      </trkpt>
      <trkpt lat="45.30784" lon="6.05069">
        <ele>1868.2</ele>
        <time>2021-01-16T10:07:31Z</time>
      </trkpt>
      <trkpt lat="45.30783" lon="6.05068">
        <ele>1868.4</ele>
        <time>2021-01-16T10:07:32Z</time>
      </trkpt>
      <trkpt lat="45.30783" lon="6.05068">
        <ele>1868.4</ele>
        <time>2021-01-16T10:07:33Z</time>
      </trkpt>
      <trkpt lat="45.30782" lon="6.05068">
        <ele>1868.6</ele>
        <time>2021-01-16T10:07:34Z</time>
      </trkpt>
      <trkpt lat="45.30782" lon="6.05068">
        <ele>1868.6</ele>
        <time>2021-01-16T10:07:35Z</time>
      </trkpt>
      <trkpt lat="45.30781" lon="6.05067">
        <ele>1868.8</ele>
        <time>2021-01-16T10:07:36Z</time>
      </trkpt>
      <trkpt lat="45.3078" lon="6.05067">
        <ele>1869</ele>
        <time>2021-01-16T10:07:37Z</time>
      </trkpt>
      <trkpt lat="45.3078" lon="6.05066">
        <ele>1869</ele>
        <time>2021-01-16T10:07:38Z</time>
      </trkpt>
      <trkpt lat="45.3078" lon="6.05066">
        <ele>1869.2</ele>
        <time>2021-01-16T10:07:39Z</time>
      </trkpt>
      <trkpt lat="45.30779" lon="6.05066">
        <ele>1869.2</ele>
        <time>2021-01-16T10:07:40Z</time>
      </trkpt>
      <trkpt lat="45.30778" lon="6.05065">
        <ele>1869.4</ele>
        <time>2021-01-16T10:07:41Z</time>
      </trkpt>
      <trkpt lat="45.30778" lon="6.05065">
        <ele>1869.6</ele>
        <time>2021-01-16T10:07:42Z</time>
      </trkpt>
      <trkpt lat="45.30777" lon="6.05065">
        <ele>1869.6</ele>
        <time>2021-01-16T10:07:43Z</time>
      </trkpt>
      <trkpt lat="45.30777" lon="6.05065">
        <ele>1869.8</ele>
        <time>2021-01-16T10:07:44Z</time>
      </trkpt>
      <trkpt lat="45.30776" lon="6.05064">
        <ele>1870</ele>
        <time>2021-01-16T10:07:45Z</time>
      </trkpt>
      <trkpt lat="45.30775" lon="6.05064">
        <ele>1870.2</ele>
        <time>2021-01-16T10:07:46Z</time>
      </trkpt>
      <trkpt lat="45.30775" lon="6.05064">
        <ele>1870.4</ele>
        <time>2021-01-16T10:07:47Z</time>
      </trkpt>
      <trkpt lat="45.30774" lon="6.05064">
        <ele>1870.4</ele>
        <time>2021-01-16T10:07:48Z</time>
      </trkpt>
      <trkpt lat="45.30773" lon="6.05064">
        <ele>1870.6</ele>
        <time>2021-01-16T10:07:49Z</time>
      </trkpt>
      <trkpt lat="45.30772" lon="6.05064">
        <ele>1870.8</ele>
        <time>2021-01-16T10:07:50Z</time>
      </trkpt>
      <trkpt lat="45.30772" lon="6.05064">
        <ele>1871</ele>
        <time>2021-01-16T10:07:51Z</time>
      </trkpt>
      <trkpt lat="45.30771" lon="6.05064">
        <ele>1871.2</ele>
        <time>2021-01-16T10:07:52Z</time>
      </trkpt>
      <trkpt lat="45.3077" lon="6.05063">
        <ele>1871.2</ele>
        <time>2021-01-16T10:07:53Z</time>
      </trkpt>
      <trkpt lat="45.3077" lon="6.05063">
        <ele>1871.4</ele>
        <time>2021-01-16T10:07:54Z</time>
      </trkpt>
      <trkpt lat="45.30769" lon="6.05063">
        <ele>1871.4</ele>
        <time>2021-01-16T10:07:55Z</time>
      </trkpt>
      <trkpt lat="45.30769" lon="6.05063">
        <ele>1871.6</ele>
        <time>2021-01-16T10:07:56Z</time>
      </trkpt>
      <trkpt lat="45.30768" lon="6.05063">
        <ele>1871.6</ele>
        <time>2021-01-16T10:07:57Z</time>
      </trkpt>
      <trkpt lat="45.30767" lon="6.05063">
        <ele>1871.8</ele>
        <time>2021-01-16T10:07:58Z</time>
      </trkpt>
      <trkpt lat="45.30767" lon="6.05063">
        <ele>1872</ele>
        <time>2021-01-16T10:07:59Z</time>
      </trkpt>
      <trkpt lat="45.30766" lon="6.05063">
        <ele>1872</ele>
        <time>2021-01-16T10:08:00Z</time>
      </trkpt>
      <trkpt lat="45.30766" lon="6.05063">
        <ele>1872.2</ele>
        <time>2021-01-16T10:08:01Z</time>
      </trkpt>
      <trkpt lat="45.30765" lon="6.05063">
        <ele>1872.2</ele>
        <time>2021-01-16T10:08:02Z</time>
      </trkpt>
      <trkpt lat="45.30765" lon="6.05063">
        <ele>1872.6</ele>
        <time>2021-01-16T10:08:03Z</time>
      </trkpt>
      <trkpt lat="45.30764" lon="6.05063">
        <ele>1872.6</ele>
        <time>2021-01-16T10:08:04Z</time>
      </trkpt>
      <trkpt lat="45.30764" lon="6.05063">
        <ele>1872.8</ele>
        <time>2021-01-16T10:08:05Z</time>
      </trkpt>
      <trkpt lat="45.30763" lon="6.05063">
        <ele>1873</ele>
        <time>2021-01-16T10:08:06Z</time>
      </trkpt>
      <trkpt lat="45.30762" lon="6.05063">
        <ele>1873</ele>
        <time>2021-01-16T10:08:07Z</time>
      </trkpt>
      <trkpt lat="45.30762" lon="6.05063">
        <ele>1873.2</ele>
        <time>2021-01-16T10:08:08Z</time>
      </trkpt>
      <trkpt lat="45.30762" lon="6.05063">
        <ele>1873.2</ele>
        <time>2021-01-16T10:08:09Z</time>
      </trkpt>
      <trkpt lat="45.30761" lon="6.05063">
        <ele>1873.4</ele>
        <time>2021-01-16T10:08:10Z</time>
      </trkpt>
      <trkpt lat="45.3076" lon="6.05063">
        <ele>1873.6</ele>
        <time>2021-01-16T10:08:11Z</time>
      </trkpt>
      <trkpt lat="45.3076" lon="6.05063">
        <ele>1873.6</ele>
        <time>2021-01-16T10:08:12Z</time>
      </trkpt>
      <trkpt lat="45.30759" lon="6.05063">
        <ele>1873.8</ele>
        <time>2021-01-16T10:08:13Z</time>
      </trkpt>
      <trkpt lat="45.30759" lon="6.05063">
        <ele>1873.8</ele>
        <time>2021-01-16T10:08:14Z</time>
      </trkpt>
      <trkpt lat="45.30758" lon="6.05063">
        <ele>1874</ele>
        <time>2021-01-16T10:08:15Z</time>
      </trkpt>
      <trkpt lat="45.30757" lon="6.05063">
        <ele>1874.2</ele>
        <time>2021-01-16T10:08:16Z</time>
      </trkpt>
      <trkpt lat="45.30757" lon="6.05062">
        <ele>1874</ele>
        <time>2021-01-16T10:08:17Z</time>
      </trkpt>
      <trkpt lat="45.30756" lon="6.05062">
        <ele>1874.2</ele>
        <time>2021-01-16T10:08:18Z</time>
      </trkpt>
      <trkpt lat="45.30756" lon="6.05061">
        <ele>1874.2</ele>
        <time>2021-01-16T10:08:19Z</time>
      </trkpt>
      <trkpt lat="45.30755" lon="6.05061">
        <ele>1874.4</ele>
        <time>2021-01-16T10:08:20Z</time>
      </trkpt>
      <trkpt lat="45.30754" lon="6.05061">
        <ele>1874.4</ele>
        <time>2021-01-16T10:08:21Z</time>
      </trkpt>
      <trkpt lat="45.30754" lon="6.05062">
        <ele>1874.6</ele>
        <time>2021-01-16T10:08:22Z</time>
      </trkpt>
      <trkpt lat="45.30754" lon="6.05062">
        <ele>1874.6</ele>
        <time>2021-01-16T10:08:23Z</time>
      </trkpt>
      <trkpt lat="45.30754" lon="6.05062">
        <ele>1874.8</ele>
        <time>2021-01-16T10:08:24Z</time>
      </trkpt>
      <trkpt lat="45.30754" lon="6.05062">
        <ele>1874.8</ele>
        <time>2021-01-16T10:08:25Z</time>
      </trkpt>
      <trkpt lat="45.30754" lon="6.05062">
        <ele>1874.6</ele>
        <time>2021-01-16T10:08:26Z</time>
      </trkpt>
      <trkpt lat="45.30754" lon="6.05062">
        <ele>1874.8</ele>
        <time>2021-01-16T10:08:27Z</time>
      </trkpt>
      <trkpt lat="45.30754" lon="6.05062">
        <ele>1874.8</ele>
        <time>2021-01-16T10:08:28Z</time>
      </trkpt>
      <trkpt lat="45.30756" lon="6.05065">
        <ele>1875.2</ele>
        <time>2021-01-16T10:08:29Z</time>
      </trkpt>
      <trkpt lat="45.30757" lon="6.05065">
        <ele>1875.2</ele>
        <time>2021-01-16T10:08:30Z</time>
      </trkpt>
      <trkpt lat="45.30757" lon="6.05066">
        <ele>1875.4</ele>
        <time>2021-01-16T10:08:31Z</time>
      </trkpt>
      <trkpt lat="45.30758" lon="6.05067">
        <ele>1875.4</ele>
        <time>2021-01-16T10:08:32Z</time>
      </trkpt>
      <trkpt lat="45.30758" lon="6.05068">
        <ele>1875.6</ele>
        <time>2021-01-16T10:08:33Z</time>
      </trkpt>
      <trkpt lat="45.30758" lon="6.05069">
        <ele>1875.6</ele>
        <time>2021-01-16T10:08:34Z</time>
      </trkpt>
      <trkpt lat="45.30759" lon="6.05069">
        <ele>1875.6</ele>
        <time>2021-01-16T10:08:35Z</time>
      </trkpt>
      <trkpt lat="45.30759" lon="6.0507">
        <ele>1875.8</ele>
        <time>2021-01-16T10:08:36Z</time>
      </trkpt>
      <trkpt lat="45.30759" lon="6.05071">
        <ele>1875.8</ele>
        <time>2021-01-16T10:08:37Z</time>
      </trkpt>
      <trkpt lat="45.3076" lon="6.05072">
        <ele>1876</ele>
        <time>2021-01-16T10:08:38Z</time>
      </trkpt>
      <trkpt lat="45.3076" lon="6.05073">
        <ele>1876</ele>
        <time>2021-01-16T10:08:39Z</time>
      </trkpt>
      <trkpt lat="45.3076" lon="6.05074">
        <ele>1876.2</ele>
        <time>2021-01-16T10:08:40Z</time>
      </trkpt>
      <trkpt lat="45.3076" lon="6.05075">
        <ele>1876.4</ele>
        <time>2021-01-16T10:08:41Z</time>
      </trkpt>
      <trkpt lat="45.3076" lon="6.05076">
        <ele>1876.4</ele>
        <time>2021-01-16T10:08:42Z</time>
      </trkpt>
      <trkpt lat="45.3076" lon="6.05076">
        <ele>1876.6</ele>
        <time>2021-01-16T10:08:43Z</time>
      </trkpt>
      <trkpt lat="45.30761" lon="6.05078">
        <ele>1876.4</ele>
        <time>2021-01-16T10:08:44Z</time>
      </trkpt>
      <trkpt lat="45.30761" lon="6.0508">
        <ele>1876.4</ele>
        <time>2021-01-16T10:08:45Z</time>
      </trkpt>
      <trkpt lat="45.30761" lon="6.05081">
        <ele>1876.6</ele>
        <time>2021-01-16T10:08:46Z</time>
      </trkpt>
      <trkpt lat="45.30761" lon="6.05081">
        <ele>1876.6</ele>
        <time>2021-01-16T10:08:47Z</time>
      </trkpt>
      <trkpt lat="45.30761" lon="6.05081">
        <ele>1876.8</ele>
        <time>2021-01-16T10:08:48Z</time>
      </trkpt>
      <trkpt lat="45.3076" lon="6.05081">
        <ele>1877</ele>
        <time>2021-01-16T10:08:49Z</time>
      </trkpt>
      <trkpt lat="45.3076" lon="6.05081">
        <ele>1877.2</ele>
        <time>2021-01-16T10:08:50Z</time>
      </trkpt>
      <trkpt lat="45.30758" lon="6.0508">
        <ele>1877.2</ele>
        <time>2021-01-16T10:08:51Z</time>
      </trkpt>
      <trkpt lat="45.30757" lon="6.05081">
        <ele>1877.4</ele>
        <time>2021-01-16T10:08:52Z</time>
      </trkpt>
      <trkpt lat="45.30757" lon="6.05081">
        <ele>1877.4</ele>
        <time>2021-01-16T10:08:53Z</time>
      </trkpt>
      <trkpt lat="45.30756" lon="6.0508">
        <ele>1877.6</ele>
        <time>2021-01-16T10:08:54Z</time>
      </trkpt>
      <trkpt lat="45.30756" lon="6.0508">
        <ele>1877.8</ele>
        <time>2021-01-16T10:08:55Z</time>
      </trkpt>
      <trkpt lat="45.30755" lon="6.0508">
        <ele>1877.8</ele>
        <time>2021-01-16T10:08:56Z</time>
      </trkpt>
      <trkpt lat="45.30754" lon="6.0508">
        <ele>1878</ele>
        <time>2021-01-16T10:08:57Z</time>
      </trkpt>
      <trkpt lat="45.30754" lon="6.0508">
        <ele>1878</ele>
        <time>2021-01-16T10:08:58Z</time>
      </trkpt>
      <trkpt lat="45.30753" lon="6.0508">
        <ele>1878.2</ele>
        <time>2021-01-16T10:08:59Z</time>
      </trkpt>
      <trkpt lat="45.30753" lon="6.05079">
        <ele>1878.4</ele>
        <time>2021-01-16T10:09:00Z</time>
      </trkpt>
      <trkpt lat="45.30752" lon="6.05079">
        <ele>1878.6</ele>
        <time>2021-01-16T10:09:01Z</time>
      </trkpt>
      <trkpt lat="45.30751" lon="6.05079">
        <ele>1878.6</ele>
        <time>2021-01-16T10:09:02Z</time>
      </trkpt>
      <trkpt lat="45.30751" lon="6.05079">
        <ele>1878.8</ele>
        <time>2021-01-16T10:09:03Z</time>
      </trkpt>
      <trkpt lat="45.3075" lon="6.05078">
        <ele>1878.8</ele>
        <time>2021-01-16T10:09:04Z</time>
      </trkpt>
      <trkpt lat="45.30749" lon="6.05078">
        <ele>1879.2</ele>
        <time>2021-01-16T10:09:05Z</time>
      </trkpt>
      <trkpt lat="45.30749" lon="6.05077">
        <ele>1879.2</ele>
        <time>2021-01-16T10:09:06Z</time>
      </trkpt>
      <trkpt lat="45.30748" lon="6.05077">
        <ele>1879.4</ele>
        <time>2021-01-16T10:09:07Z</time>
      </trkpt>
      <trkpt lat="45.30747" lon="6.05077">
        <ele>1879.6</ele>
        <time>2021-01-16T10:09:08Z</time>
      </trkpt>
      <trkpt lat="45.30746" lon="6.05077">
        <ele>1879.6</ele>
        <time>2021-01-16T10:09:09Z</time>
      </trkpt>
      <trkpt lat="45.30746" lon="6.05076">
        <ele>1879.8</ele>
        <time>2021-01-16T10:09:10Z</time>
      </trkpt>
      <trkpt lat="45.30745" lon="6.05076">
        <ele>1880</ele>
        <time>2021-01-16T10:09:11Z</time>
      </trkpt>
      <trkpt lat="45.30744" lon="6.05076">
        <ele>1880.2</ele>
        <time>2021-01-16T10:09:12Z</time>
      </trkpt>
      <trkpt lat="45.30744" lon="6.05076">
        <ele>1880.4</ele>
        <time>2021-01-16T10:09:13Z</time>
      </trkpt>
      <trkpt lat="45.30743" lon="6.05075">
        <ele>1880.4</ele>
        <time>2021-01-16T10:09:14Z</time>
      </trkpt>
      <trkpt lat="45.30743" lon="6.05075">
        <ele>1880.6</ele>
        <time>2021-01-16T10:09:15Z</time>
      </trkpt>
      <trkpt lat="45.30742" lon="6.05075">
        <ele>1880.8</ele>
        <time>2021-01-16T10:09:16Z</time>
      </trkpt>
      <trkpt lat="45.30741" lon="6.05074">
        <ele>1881</ele>
        <time>2021-01-16T10:09:17Z</time>
      </trkpt>
      <trkpt lat="45.30741" lon="6.05074">
        <ele>1881.2</ele>
        <time>2021-01-16T10:09:18Z</time>
      </trkpt>
      <trkpt lat="45.3074" lon="6.05074">
        <ele>1881.2</ele>
        <time>2021-01-16T10:09:19Z</time>
      </trkpt>
      <trkpt lat="45.3074" lon="6.05073">
        <ele>1881.4</ele>
        <time>2021-01-16T10:09:20Z</time>
      </trkpt>
      <trkpt lat="45.30739" lon="6.05073">
        <ele>1881.6</ele>
        <time>2021-01-16T10:09:21Z</time>
      </trkpt>
      <trkpt lat="45.30738" lon="6.05073">
        <ele>1881.8</ele>
        <time>2021-01-16T10:09:22Z</time>
      </trkpt>
      <trkpt lat="45.30738" lon="6.05072">
        <ele>1882</ele>
        <time>2021-01-16T10:09:23Z</time>
      </trkpt>
      <trkpt lat="45.30737" lon="6.05072">
        <ele>1882.2</ele>
        <time>2021-01-16T10:09:24Z</time>
      </trkpt>
      <trkpt lat="45.30737" lon="6.05071">
        <ele>1882.4</ele>
        <time>2021-01-16T10:09:25Z</time>
      </trkpt>
      <trkpt lat="45.30736" lon="6.05071">
        <ele>1882.4</ele>
        <time>2021-01-16T10:09:26Z</time>
      </trkpt>
      <trkpt lat="45.30735" lon="6.05071">
        <ele>1882.6</ele>
        <time>2021-01-16T10:09:27Z</time>
      </trkpt>
      <trkpt lat="45.30735" lon="6.05071">
        <ele>1882.8</ele>
        <time>2021-01-16T10:09:28Z</time>
      </trkpt>
      <trkpt lat="45.30734" lon="6.0507">
        <ele>1882.8</ele>
        <time>2021-01-16T10:09:29Z</time>
      </trkpt>
      <trkpt lat="45.30733" lon="6.0507">
        <ele>1883</ele>
        <time>2021-01-16T10:09:30Z</time>
      </trkpt>
      <trkpt lat="45.30733" lon="6.0507">
        <ele>1883.2</ele>
        <time>2021-01-16T10:09:31Z</time>
      </trkpt>
      <trkpt lat="45.30733" lon="6.0507">
        <ele>1883.2</ele>
        <time>2021-01-16T10:09:32Z</time>
      </trkpt>
      <trkpt lat="45.30732" lon="6.05069">
        <ele>1883.4</ele>
        <time>2021-01-16T10:09:33Z</time>
      </trkpt>
      <trkpt lat="45.30731" lon="6.05069">
        <ele>1883.6</ele>
        <time>2021-01-16T10:09:34Z</time>
      </trkpt>
      <trkpt lat="45.30731" lon="6.05068">
        <ele>1883.6</ele>
        <time>2021-01-16T10:09:35Z</time>
      </trkpt>
      <trkpt lat="45.3073" lon="6.05068">
        <ele>1883.8</ele>
        <time>2021-01-16T10:09:36Z</time>
      </trkpt>
      <trkpt lat="45.30729" lon="6.05068">
        <ele>1883.8</ele>
        <time>2021-01-16T10:09:37Z</time>
      </trkpt>
      <trkpt lat="45.30728" lon="6.05067">
        <ele>1884</ele>
        <time>2021-01-16T10:09:38Z</time>
      </trkpt>
      <trkpt lat="45.30728" lon="6.05067">
        <ele>1884</ele>
        <time>2021-01-16T10:09:39Z</time>
      </trkpt>
      <trkpt lat="45.30727" lon="6.05067">
        <ele>1884.2</ele>
        <time>2021-01-16T10:09:40Z</time>
      </trkpt>
      <trkpt lat="45.30726" lon="6.05067">
        <ele>1884.2</ele>
        <time>2021-01-16T10:09:41Z</time>
      </trkpt>
      <trkpt lat="45.30725" lon="6.05067">
        <ele>1884.4</ele>
        <time>2021-01-16T10:09:42Z</time>
      </trkpt>
      <trkpt lat="45.30725" lon="6.05067">
        <ele>1884.6</ele>
        <time>2021-01-16T10:09:43Z</time>
      </trkpt>
      <trkpt lat="45.30724" lon="6.05066">
        <ele>1884.6</ele>
        <time>2021-01-16T10:09:44Z</time>
      </trkpt>
      <trkpt lat="45.30724" lon="6.05066">
        <ele>1884.8</ele>
        <time>2021-01-16T10:09:45Z</time>
      </trkpt>
      <trkpt lat="45.30723" lon="6.05066">
        <ele>1884.8</ele>
        <time>2021-01-16T10:09:46Z</time>
      </trkpt>
      <trkpt lat="45.30722" lon="6.05065">
        <ele>1885</ele>
        <time>2021-01-16T10:09:47Z</time>
      </trkpt>
      <trkpt lat="45.30722" lon="6.05065">
        <ele>1885.2</ele>
        <time>2021-01-16T10:09:48Z</time>
      </trkpt>
      <trkpt lat="45.30721" lon="6.05065">
        <ele>1885.2</ele>
        <time>2021-01-16T10:09:49Z</time>
      </trkpt>
      <trkpt lat="45.3072" lon="6.05065">
        <ele>1885.4</ele>
        <time>2021-01-16T10:09:50Z</time>
      </trkpt>
      <trkpt lat="45.3072" lon="6.05065">
        <ele>1885.6</ele>
        <time>2021-01-16T10:09:51Z</time>
      </trkpt>
      <trkpt lat="45.30719" lon="6.05064">
        <ele>1885.6</ele>
        <time>2021-01-16T10:09:52Z</time>
      </trkpt>
      <trkpt lat="45.30718" lon="6.05064">
        <ele>1885.8</ele>
        <time>2021-01-16T10:09:53Z</time>
      </trkpt>
      <trkpt lat="45.30718" lon="6.05064">
        <ele>1886</ele>
        <time>2021-01-16T10:09:54Z</time>
      </trkpt>
      <trkpt lat="45.30717" lon="6.05063">
        <ele>1886.2</ele>
        <time>2021-01-16T10:09:55Z</time>
      </trkpt>
      <trkpt lat="45.30716" lon="6.05063">
        <ele>1886.4</ele>
        <time>2021-01-16T10:09:56Z</time>
      </trkpt>
      <trkpt lat="45.30715" lon="6.05063">
        <ele>1886.4</ele>
        <time>2021-01-16T10:09:57Z</time>
      </trkpt>
      <trkpt lat="45.30715" lon="6.05063">
        <ele>1886.6</ele>
        <time>2021-01-16T10:09:58Z</time>
      </trkpt>
      <trkpt lat="45.30714" lon="6.05063">
        <ele>1886.8</ele>
        <time>2021-01-16T10:09:59Z</time>
      </trkpt>
      <trkpt lat="45.30713" lon="6.05063">
        <ele>1887</ele>
        <time>2021-01-16T10:10:00Z</time>
      </trkpt>
      <trkpt lat="45.30712" lon="6.05063">
        <ele>1887</ele>
        <time>2021-01-16T10:10:01Z</time>
      </trkpt>
      <trkpt lat="45.30712" lon="6.05062">
        <ele>1887.2</ele>
        <time>2021-01-16T10:10:02Z</time>
      </trkpt>
      <trkpt lat="45.30712" lon="6.05062">
        <ele>1887.4</ele>
        <time>2021-01-16T10:10:03Z</time>
      </trkpt>
      <trkpt lat="45.30711" lon="6.05062">
        <ele>1887.6</ele>
        <time>2021-01-16T10:10:04Z</time>
      </trkpt>
      <trkpt lat="45.3071" lon="6.05062">
        <ele>1887.6</ele>
        <time>2021-01-16T10:10:05Z</time>
      </trkpt>
      <trkpt lat="45.3071" lon="6.05062">
        <ele>1887.8</ele>
        <time>2021-01-16T10:10:06Z</time>
      </trkpt>
      <trkpt lat="45.30709" lon="6.05062">
        <ele>1887.8</ele>
        <time>2021-01-16T10:10:07Z</time>
      </trkpt>
      <trkpt lat="45.30708" lon="6.05062">
        <ele>1888</ele>
        <time>2021-01-16T10:10:08Z</time>
      </trkpt>
      <trkpt lat="45.30708" lon="6.05062">
        <ele>1888.2</ele>
        <time>2021-01-16T10:10:09Z</time>
      </trkpt>
      <trkpt lat="45.30707" lon="6.05062">
        <ele>1888.4</ele>
        <time>2021-01-16T10:10:10Z</time>
      </trkpt>
      <trkpt lat="45.30707" lon="6.05062">
        <ele>1888.6</ele>
        <time>2021-01-16T10:10:11Z</time>
      </trkpt>
      <trkpt lat="45.30706" lon="6.05061">
        <ele>1888.8</ele>
        <time>2021-01-16T10:10:12Z</time>
      </trkpt>
      <trkpt lat="45.30705" lon="6.05061">
        <ele>1889</ele>
        <time>2021-01-16T10:10:13Z</time>
      </trkpt>
      <trkpt lat="45.30704" lon="6.05061">
        <ele>1889.2</ele>
        <time>2021-01-16T10:10:14Z</time>
      </trkpt>
      <trkpt lat="45.30704" lon="6.0506">
        <ele>1889.2</ele>
        <time>2021-01-16T10:10:15Z</time>
      </trkpt>
      <trkpt lat="45.30703" lon="6.0506">
        <ele>1889.4</ele>
        <time>2021-01-16T10:10:16Z</time>
      </trkpt>
      <trkpt lat="45.30703" lon="6.05059">
        <ele>1889.6</ele>
        <time>2021-01-16T10:10:17Z</time>
      </trkpt>
      <trkpt lat="45.30702" lon="6.05059">
        <ele>1889.8</ele>
        <time>2021-01-16T10:10:18Z</time>
      </trkpt>
      <trkpt lat="45.30702" lon="6.05059">
        <ele>1890</ele>
        <time>2021-01-16T10:10:19Z</time>
      </trkpt>
      <trkpt lat="45.30701" lon="6.05059">
        <ele>1890</ele>
        <time>2021-01-16T10:10:20Z</time>
      </trkpt>
      <trkpt lat="45.307" lon="6.05058">
        <ele>1890.2</ele>
        <time>2021-01-16T10:10:21Z</time>
      </trkpt>
      <trkpt lat="45.30699" lon="6.05058">
        <ele>1890.4</ele>
        <time>2021-01-16T10:10:22Z</time>
      </trkpt>
      <trkpt lat="45.30698" lon="6.05058">
        <ele>1890.6</ele>
        <time>2021-01-16T10:10:23Z</time>
      </trkpt>
      <trkpt lat="45.30698" lon="6.05057">
        <ele>1890.6</ele>
        <time>2021-01-16T10:10:24Z</time>
      </trkpt>
      <trkpt lat="45.30697" lon="6.05057">
        <ele>1890.8</ele>
        <time>2021-01-16T10:10:25Z</time>
      </trkpt>
      <trkpt lat="45.30697" lon="6.05057">
        <ele>1891</ele>
        <time>2021-01-16T10:10:26Z</time>
      </trkpt>
      <trkpt lat="45.30696" lon="6.05057">
        <ele>1891.2</ele>
        <time>2021-01-16T10:10:27Z</time>
      </trkpt>
      <trkpt lat="45.30696" lon="6.05057">
        <ele>1891.4</ele>
        <time>2021-01-16T10:10:28Z</time>
      </trkpt>
      <trkpt lat="45.30695" lon="6.05057">
        <ele>1891.4</ele>
        <time>2021-01-16T10:10:29Z</time>
      </trkpt>
      <trkpt lat="45.30694" lon="6.05057">
        <ele>1891.6</ele>
        <time>2021-01-16T10:10:30Z</time>
      </trkpt>
      <trkpt lat="45.30694" lon="6.05057">
        <ele>1891.8</ele>
        <time>2021-01-16T10:10:31Z</time>
      </trkpt>
      <trkpt lat="45.30693" lon="6.05057">
        <ele>1891.8</ele>
        <time>2021-01-16T10:10:32Z</time>
      </trkpt>
      <trkpt lat="45.30693" lon="6.05057">
        <ele>1892</ele>
        <time>2021-01-16T10:10:33Z</time>
      </trkpt>
      <trkpt lat="45.30692" lon="6.05057">
        <ele>1892.2</ele>
        <time>2021-01-16T10:10:34Z</time>
      </trkpt>
      <trkpt lat="45.30691" lon="6.05057">
        <ele>1892.4</ele>
        <time>2021-01-16T10:10:35Z</time>
      </trkpt>
      <trkpt lat="45.3069" lon="6.05057">
        <ele>1892.6</ele>
        <time>2021-01-16T10:10:36Z</time>
      </trkpt>
      <trkpt lat="45.3069" lon="6.05057">
        <ele>1892.8</ele>
        <time>2021-01-16T10:10:37Z</time>
      </trkpt>
      <trkpt lat="45.30689" lon="6.05056">
        <ele>1892.8</ele>
        <time>2021-01-16T10:10:38Z</time>
      </trkpt>
      <trkpt lat="45.30688" lon="6.05056">
        <ele>1893</ele>
        <time>2021-01-16T10:10:39Z</time>
      </trkpt>
      <trkpt lat="45.30687" lon="6.05056">
        <ele>1893.2</ele>
        <time>2021-01-16T10:10:40Z</time>
      </trkpt>
      <trkpt lat="45.30687" lon="6.05057">
        <ele>1893.4</ele>
        <time>2021-01-16T10:10:41Z</time>
      </trkpt>
      <trkpt lat="45.30686" lon="6.05057">
        <ele>1893.6</ele>
        <time>2021-01-16T10:10:42Z</time>
      </trkpt>
      <trkpt lat="45.30685" lon="6.05057">
        <ele>1893.8</ele>
        <time>2021-01-16T10:10:43Z</time>
      </trkpt>
      <trkpt lat="45.30685" lon="6.05057">
        <ele>1894</ele>
        <time>2021-01-16T10:10:44Z</time>
      </trkpt>
      <trkpt lat="45.30684" lon="6.05057">
        <ele>1894.2</ele>
        <time>2021-01-16T10:10:45Z</time>
      </trkpt>
      <trkpt lat="45.30683" lon="6.05056">
        <ele>1894.4</ele>
        <time>2021-01-16T10:10:46Z</time>
      </trkpt>
      <trkpt lat="45.30683" lon="6.05056">
        <ele>1894.4</ele>
        <time>2021-01-16T10:10:47Z</time>
      </trkpt>
      <trkpt lat="45.30682" lon="6.05056">
        <ele>1894.6</ele>
        <time>2021-01-16T10:10:48Z</time>
      </trkpt>
      <trkpt lat="45.30682" lon="6.05056">
        <ele>1894.6</ele>
        <time>2021-01-16T10:10:49Z</time>
      </trkpt>
      <trkpt lat="45.30681" lon="6.05056">
        <ele>1894.8</ele>
        <time>2021-01-16T10:10:50Z</time>
      </trkpt>
      <trkpt lat="45.30681" lon="6.05056">
        <ele>1895</ele>
        <time>2021-01-16T10:10:51Z</time>
      </trkpt>
      <trkpt lat="45.3068" lon="6.05056">
        <ele>1895</ele>
        <time>2021-01-16T10:10:52Z</time>
      </trkpt>
      <trkpt lat="45.3068" lon="6.05056">
        <ele>1895.2</ele>
        <time>2021-01-16T10:10:53Z</time>
      </trkpt>
      <trkpt lat="45.30679" lon="6.05056">
        <ele>1895.4</ele>
        <time>2021-01-16T10:10:54Z</time>
      </trkpt>
      <trkpt lat="45.30678" lon="6.05056">
        <ele>1895.4</ele>
        <time>2021-01-16T10:10:55Z</time>
      </trkpt>
      <trkpt lat="45.30678" lon="6.05056">
        <ele>1895.6</ele>
        <time>2021-01-16T10:10:56Z</time>
      </trkpt>
      <trkpt lat="45.30677" lon="6.05056">
        <ele>1895.6</ele>
        <time>2021-01-16T10:10:57Z</time>
      </trkpt>
      <trkpt lat="45.30677" lon="6.05056">
        <ele>1895.8</ele>
        <time>2021-01-16T10:10:58Z</time>
      </trkpt>
      <trkpt lat="45.30676" lon="6.05056">
        <ele>1896</ele>
        <time>2021-01-16T10:10:59Z</time>
      </trkpt>
      <trkpt lat="45.30675" lon="6.05056">
        <ele>1896</ele>
        <time>2021-01-16T10:11:00Z</time>
      </trkpt>
      <trkpt lat="45.30675" lon="6.05056">
        <ele>1896.2</ele>
        <time>2021-01-16T10:11:01Z</time>
      </trkpt>
      <trkpt lat="45.30674" lon="6.05056">
        <ele>1896.4</ele>
        <time>2021-01-16T10:11:02Z</time>
      </trkpt>
      <trkpt lat="45.30673" lon="6.05056">
        <ele>1896.4</ele>
        <time>2021-01-16T10:11:03Z</time>
      </trkpt>
      <trkpt lat="45.30673" lon="6.05056">
        <ele>1896.6</ele>
        <time>2021-01-16T10:11:04Z</time>
      </trkpt>
      <trkpt lat="45.30672" lon="6.05056">
        <ele>1896.8</ele>
        <time>2021-01-16T10:11:05Z</time>
      </trkpt>
      <trkpt lat="45.30671" lon="6.05056">
        <ele>1897</ele>
        <time>2021-01-16T10:11:06Z</time>
      </trkpt>
      <trkpt lat="45.3067" lon="6.05056">
        <ele>1897</ele>
        <time>2021-01-16T10:11:07Z</time>
      </trkpt>
      <trkpt lat="45.3067" lon="6.05056">
        <ele>1897.2</ele>
        <time>2021-01-16T10:11:08Z</time>
      </trkpt>
      <trkpt lat="45.30669" lon="6.05055">
        <ele>1897.4</ele>
        <time>2021-01-16T10:11:09Z</time>
      </trkpt>
      <trkpt lat="45.30668" lon="6.05055">
        <ele>1897.4</ele>
        <time>2021-01-16T10:11:10Z</time>
      </trkpt>
      <trkpt lat="45.30667" lon="6.05055">
        <ele>1897.6</ele>
        <time>2021-01-16T10:11:11Z</time>
      </trkpt>
      <trkpt lat="45.30667" lon="6.05055">
        <ele>1897.8</ele>
        <time>2021-01-16T10:11:12Z</time>
      </trkpt>
      <trkpt lat="45.30666" lon="6.05055">
        <ele>1898</ele>
        <time>2021-01-16T10:11:13Z</time>
      </trkpt>
      <trkpt lat="45.30666" lon="6.05055">
        <ele>1898.2</ele>
        <time>2021-01-16T10:11:14Z</time>
      </trkpt>
      <trkpt lat="45.30665" lon="6.05055">
        <ele>1898.2</ele>
        <time>2021-01-16T10:11:15Z</time>
      </trkpt>
      <trkpt lat="45.30664" lon="6.05055">
        <ele>1898.4</ele>
        <time>2021-01-16T10:11:16Z</time>
      </trkpt>
      <trkpt lat="45.30663" lon="6.05055">
        <ele>1898.6</ele>
        <time>2021-01-16T10:11:17Z</time>
      </trkpt>
      <trkpt lat="45.30662" lon="6.05055">
        <ele>1898.8</ele>
        <time>2021-01-16T10:11:18Z</time>
      </trkpt>
      <trkpt lat="45.30661" lon="6.05056">
        <ele>1899</ele>
        <time>2021-01-16T10:11:19Z</time>
      </trkpt>
      <trkpt lat="45.3066" lon="6.05056">
        <ele>1899</ele>
        <time>2021-01-16T10:11:20Z</time>
      </trkpt>
      <trkpt lat="45.30659" lon="6.05056">
        <ele>1899.2</ele>
        <time>2021-01-16T10:11:21Z</time>
      </trkpt>
      <trkpt lat="45.30659" lon="6.05056">
        <ele>1899.4</ele>
        <time>2021-01-16T10:11:22Z</time>
      </trkpt>
      <trkpt lat="45.30658" lon="6.05056">
        <ele>1899.4</ele>
        <time>2021-01-16T10:11:23Z</time>
      </trkpt>
      <trkpt lat="45.30657" lon="6.05056">
        <ele>1899.6</ele>
        <time>2021-01-16T10:11:24Z</time>
      </trkpt>
      <trkpt lat="45.30657" lon="6.05056">
        <ele>1899.8</ele>
        <time>2021-01-16T10:11:25Z</time>
      </trkpt>
      <trkpt lat="45.30656" lon="6.05056">
        <ele>1899.8</ele>
        <time>2021-01-16T10:11:26Z</time>
      </trkpt>
      <trkpt lat="45.30655" lon="6.05056">
        <ele>1900</ele>
        <time>2021-01-16T10:11:27Z</time>
      </trkpt>
      <trkpt lat="45.30654" lon="6.05056">
        <ele>1900</ele>
        <time>2021-01-16T10:11:28Z</time>
      </trkpt>
      <trkpt lat="45.30653" lon="6.05056">
        <ele>1900.4</ele>
        <time>2021-01-16T10:11:29Z</time>
      </trkpt>
      <trkpt lat="45.30653" lon="6.05056">
        <ele>1900.4</ele>
        <time>2021-01-16T10:11:30Z</time>
      </trkpt>
      <trkpt lat="45.30652" lon="6.05056">
        <ele>1900.6</ele>
        <time>2021-01-16T10:11:31Z</time>
      </trkpt>
      <trkpt lat="45.30651" lon="6.05057">
        <ele>1900.8</ele>
        <time>2021-01-16T10:11:32Z</time>
      </trkpt>
      <trkpt lat="45.30651" lon="6.05057">
        <ele>1900.8</ele>
        <time>2021-01-16T10:11:33Z</time>
      </trkpt>
      <trkpt lat="45.3065" lon="6.05057">
        <ele>1901</ele>
        <time>2021-01-16T10:11:34Z</time>
      </trkpt>
      <trkpt lat="45.3065" lon="6.05057">
        <ele>1901.2</ele>
        <time>2021-01-16T10:11:35Z</time>
      </trkpt>
      <trkpt lat="45.30649" lon="6.05057">
        <ele>1901.4</ele>
        <time>2021-01-16T10:11:36Z</time>
      </trkpt>
      <trkpt lat="45.30648" lon="6.05057">
        <ele>1901.8</ele>
        <time>2021-01-16T10:11:37Z</time>
      </trkpt>
      <trkpt lat="45.30648" lon="6.05057">
        <ele>1902</ele>
        <time>2021-01-16T10:11:38Z</time>
      </trkpt>
      <trkpt lat="45.30647" lon="6.05056">
        <ele>1902</ele>
        <time>2021-01-16T10:11:39Z</time>
      </trkpt>
      <trkpt lat="45.30646" lon="6.05057">
        <ele>1902.2</ele>
        <time>2021-01-16T10:11:40Z</time>
      </trkpt>
      <trkpt lat="45.30646" lon="6.05056">
        <ele>1902.4</ele>
        <time>2021-01-16T10:11:41Z</time>
      </trkpt>
      <trkpt lat="45.30645" lon="6.05056">
        <ele>1902.6</ele>
        <time>2021-01-16T10:11:42Z</time>
      </trkpt>
      <trkpt lat="45.30644" lon="6.05056">
        <ele>1902.8</ele>
        <time>2021-01-16T10:11:43Z</time>
      </trkpt>
      <trkpt lat="45.30643" lon="6.05055">
        <ele>1903</ele>
        <time>2021-01-16T10:11:44Z</time>
      </trkpt>
      <trkpt lat="45.30643" lon="6.05055">
        <ele>1903.2</ele>
        <time>2021-01-16T10:11:45Z</time>
      </trkpt>
      <trkpt lat="45.30642" lon="6.05055">
        <ele>1903.2</ele>
        <time>2021-01-16T10:11:46Z</time>
      </trkpt>
      <trkpt lat="45.30641" lon="6.05055">
        <ele>1903.4</ele>
        <time>2021-01-16T10:11:47Z</time>
      </trkpt>
      <trkpt lat="45.30641" lon="6.05055">
        <ele>1903.4</ele>
        <time>2021-01-16T10:11:48Z</time>
      </trkpt>
      <trkpt lat="45.3064" lon="6.05054">
        <ele>1903.6</ele>
        <time>2021-01-16T10:11:49Z</time>
      </trkpt>
      <trkpt lat="45.3064" lon="6.05055">
        <ele>1903.8</ele>
        <time>2021-01-16T10:11:50Z</time>
      </trkpt>
      <trkpt lat="45.30639" lon="6.05054">
        <ele>1903.8</ele>
        <time>2021-01-16T10:11:51Z</time>
      </trkpt>
      <trkpt lat="45.30638" lon="6.05054">
        <ele>1904</ele>
        <time>2021-01-16T10:11:52Z</time>
      </trkpt>
      <trkpt lat="45.30638" lon="6.05054">
        <ele>1904</ele>
        <time>2021-01-16T10:11:53Z</time>
      </trkpt>
      <trkpt lat="45.30637" lon="6.05054">
        <ele>1904</ele>
        <time>2021-01-16T10:11:54Z</time>
      </trkpt>
      <trkpt lat="45.30637" lon="6.05054">
        <ele>1904.2</ele>
        <time>2021-01-16T10:11:55Z</time>
      </trkpt>
      <trkpt lat="45.30636" lon="6.05053">
        <ele>1904.4</ele>
        <time>2021-01-16T10:11:56Z</time>
      </trkpt>
      <trkpt lat="45.30635" lon="6.05053">
        <ele>1904.6</ele>
        <time>2021-01-16T10:11:57Z</time>
      </trkpt>
      <trkpt lat="45.30635" lon="6.05053">
        <ele>1904.6</ele>
        <time>2021-01-16T10:11:58Z</time>
      </trkpt>
      <trkpt lat="45.30634" lon="6.05053">
        <ele>1904.6</ele>
        <time>2021-01-16T10:11:59Z</time>
      </trkpt>
      <trkpt lat="45.30633" lon="6.05052">
        <ele>1904.8</ele>
        <time>2021-01-16T10:12:00Z</time>
      </trkpt>
      <trkpt lat="45.30632" lon="6.05052">
        <ele>1904.8</ele>
        <time>2021-01-16T10:12:01Z</time>
      </trkpt>
      <trkpt lat="45.30632" lon="6.05052">
        <ele>1905</ele>
        <time>2021-01-16T10:12:02Z</time>
      </trkpt>
      <trkpt lat="45.30631" lon="6.05052">
        <ele>1905.2</ele>
        <time>2021-01-16T10:12:03Z</time>
      </trkpt>
      <trkpt lat="45.3063" lon="6.05051">
        <ele>1905.2</ele>
        <time>2021-01-16T10:12:04Z</time>
      </trkpt>
      <trkpt lat="45.3063" lon="6.05051">
        <ele>1905.4</ele>
        <time>2021-01-16T10:12:05Z</time>
      </trkpt>
      <trkpt lat="45.30629" lon="6.05051">
        <ele>1905.6</ele>
        <time>2021-01-16T10:12:06Z</time>
      </trkpt>
      <trkpt lat="45.30629" lon="6.05051">
        <ele>1905.6</ele>
        <time>2021-01-16T10:12:07Z</time>
      </trkpt>
      <trkpt lat="45.30628" lon="6.05051">
        <ele>1905.8</ele>
        <time>2021-01-16T10:12:08Z</time>
      </trkpt>
      <trkpt lat="45.30627" lon="6.05051">
        <ele>1906</ele>
        <time>2021-01-16T10:12:09Z</time>
      </trkpt>
      <trkpt lat="45.30627" lon="6.05051">
        <ele>1906.2</ele>
        <time>2021-01-16T10:12:10Z</time>
      </trkpt>
      <trkpt lat="45.30626" lon="6.05051">
        <ele>1906.4</ele>
        <time>2021-01-16T10:12:11Z</time>
      </trkpt>
      <trkpt lat="45.30625" lon="6.05051">
        <ele>1906.4</ele>
        <time>2021-01-16T10:12:12Z</time>
      </trkpt>
      <trkpt lat="45.30625" lon="6.05051">
        <ele>1906.8</ele>
        <time>2021-01-16T10:12:13Z</time>
      </trkpt>
      <trkpt lat="45.30624" lon="6.05051">
        <ele>1906.8</ele>
        <time>2021-01-16T10:12:14Z</time>
      </trkpt>
      <trkpt lat="45.30623" lon="6.05051">
        <ele>1907</ele>
        <time>2021-01-16T10:12:15Z</time>
      </trkpt>
      <trkpt lat="45.30622" lon="6.05051">
        <ele>1907.2</ele>
        <time>2021-01-16T10:12:16Z</time>
      </trkpt>
      <trkpt lat="45.30622" lon="6.05051">
        <ele>1907.4</ele>
        <time>2021-01-16T10:12:17Z</time>
      </trkpt>
      <trkpt lat="45.30621" lon="6.05052">
        <ele>1907.6</ele>
        <time>2021-01-16T10:12:18Z</time>
      </trkpt>
      <trkpt lat="45.30621" lon="6.05051">
        <ele>1907.8</ele>
        <time>2021-01-16T10:12:19Z</time>
      </trkpt>
      <trkpt lat="45.3062" lon="6.05051">
        <ele>1907.8</ele>
        <time>2021-01-16T10:12:20Z</time>
      </trkpt>
      <trkpt lat="45.30619" lon="6.05051">
        <ele>1908</ele>
        <time>2021-01-16T10:12:21Z</time>
      </trkpt>
      <trkpt lat="45.30619" lon="6.05051">
        <ele>1908.2</ele>
        <time>2021-01-16T10:12:22Z</time>
      </trkpt>
      <trkpt lat="45.30618" lon="6.05051">
        <ele>1908.4</ele>
        <time>2021-01-16T10:12:23Z</time>
      </trkpt>
      <trkpt lat="45.30617" lon="6.05051">
        <ele>1908.4</ele>
        <time>2021-01-16T10:12:24Z</time>
      </trkpt>
      <trkpt lat="45.30617" lon="6.05051">
        <ele>1908.6</ele>
        <time>2021-01-16T10:12:25Z</time>
      </trkpt>
      <trkpt lat="45.30616" lon="6.05051">
        <ele>1908.8</ele>
        <time>2021-01-16T10:12:26Z</time>
      </trkpt>
      <trkpt lat="45.30616" lon="6.05051">
        <ele>1908.8</ele>
        <time>2021-01-16T10:12:27Z</time>
      </trkpt>
      <trkpt lat="45.30615" lon="6.05051">
        <ele>1909</ele>
        <time>2021-01-16T10:12:28Z</time>
      </trkpt>
      <trkpt lat="45.30614" lon="6.05051">
        <ele>1909.2</ele>
        <time>2021-01-16T10:12:29Z</time>
      </trkpt>
      <trkpt lat="45.30614" lon="6.0505">
        <ele>1909.4</ele>
        <time>2021-01-16T10:12:30Z</time>
      </trkpt>
      <trkpt lat="45.30613" lon="6.0505">
        <ele>1909.6</ele>
        <time>2021-01-16T10:12:31Z</time>
      </trkpt>
      <trkpt lat="45.30612" lon="6.0505">
        <ele>1909.6</ele>
        <time>2021-01-16T10:12:32Z</time>
      </trkpt>
      <trkpt lat="45.30612" lon="6.0505">
        <ele>1909.8</ele>
        <time>2021-01-16T10:12:33Z</time>
      </trkpt>
      <trkpt lat="45.30611" lon="6.0505">
        <ele>1910</ele>
        <time>2021-01-16T10:12:34Z</time>
      </trkpt>
      <trkpt lat="45.30611" lon="6.0505">
        <ele>1910.2</ele>
        <time>2021-01-16T10:12:35Z</time>
      </trkpt>
      <trkpt lat="45.30609" lon="6.05049">
        <ele>1910.4</ele>
        <time>2021-01-16T10:12:36Z</time>
      </trkpt>
      <trkpt lat="45.30609" lon="6.0505">
        <ele>1910.6</ele>
        <time>2021-01-16T10:12:37Z</time>
      </trkpt>
      <trkpt lat="45.30608" lon="6.05049">
        <ele>1910.6</ele>
        <time>2021-01-16T10:12:38Z</time>
      </trkpt>
      <trkpt lat="45.30608" lon="6.05049">
        <ele>1910.8</ele>
        <time>2021-01-16T10:12:39Z</time>
      </trkpt>
      <trkpt lat="45.30607" lon="6.05049">
        <ele>1911</ele>
        <time>2021-01-16T10:12:40Z</time>
      </trkpt>
      <trkpt lat="45.30606" lon="6.05049">
        <ele>1911.2</ele>
        <time>2021-01-16T10:12:41Z</time>
      </trkpt>
      <trkpt lat="45.30606" lon="6.05048">
        <ele>1911.2</ele>
        <time>2021-01-16T10:12:42Z</time>
      </trkpt>
      <trkpt lat="45.30605" lon="6.05048">
        <ele>1911.4</ele>
        <time>2021-01-16T10:12:43Z</time>
      </trkpt>
      <trkpt lat="45.30604" lon="6.05048">
        <ele>1911.6</ele>
        <time>2021-01-16T10:12:44Z</time>
      </trkpt>
      <trkpt lat="45.30604" lon="6.05048">
        <ele>1911.6</ele>
        <time>2021-01-16T10:12:45Z</time>
      </trkpt>
      <trkpt lat="45.30603" lon="6.05048">
        <ele>1911.8</ele>
        <time>2021-01-16T10:12:46Z</time>
      </trkpt>
      <trkpt lat="45.30602" lon="6.05047">
        <ele>1912</ele>
        <time>2021-01-16T10:12:47Z</time>
      </trkpt>
      <trkpt lat="45.30602" lon="6.05048">
        <ele>1912.2</ele>
        <time>2021-01-16T10:12:48Z</time>
      </trkpt>
      <trkpt lat="45.30601" lon="6.05047">
        <ele>1912.4</ele>
        <time>2021-01-16T10:12:49Z</time>
      </trkpt>
      <trkpt lat="45.306" lon="6.05047">
        <ele>1912.4</ele>
        <time>2021-01-16T10:12:50Z</time>
      </trkpt>
      <trkpt lat="45.306" lon="6.05047">
        <ele>1912.6</ele>
        <time>2021-01-16T10:12:51Z</time>
      </trkpt>
      <trkpt lat="45.30599" lon="6.05047">
        <ele>1912.8</ele>
        <time>2021-01-16T10:12:52Z</time>
      </trkpt>
      <trkpt lat="45.30598" lon="6.05047">
        <ele>1912.8</ele>
        <time>2021-01-16T10:12:53Z</time>
      </trkpt>
      <trkpt lat="45.30597" lon="6.05047">
        <ele>1913</ele>
        <time>2021-01-16T10:12:54Z</time>
      </trkpt>
      <trkpt lat="45.30596" lon="6.05047">
        <ele>1913.2</ele>
        <time>2021-01-16T10:12:55Z</time>
      </trkpt>
      <trkpt lat="45.30595" lon="6.05047">
        <ele>1913.4</ele>
        <time>2021-01-16T10:12:56Z</time>
      </trkpt>
      <trkpt lat="45.30595" lon="6.05047">
        <ele>1913.6</ele>
        <time>2021-01-16T10:12:57Z</time>
      </trkpt>
      <trkpt lat="45.30594" lon="6.05046">
        <ele>1913.6</ele>
        <time>2021-01-16T10:12:58Z</time>
      </trkpt>
      <trkpt lat="45.30593" lon="6.05047">
        <ele>1913.8</ele>
        <time>2021-01-16T10:12:59Z</time>
      </trkpt>
      <trkpt lat="45.30593" lon="6.05047">
        <ele>1914</ele>
        <time>2021-01-16T10:13:00Z</time>
      </trkpt>
      <trkpt lat="45.30592" lon="6.05046">
        <ele>1914</ele>
        <time>2021-01-16T10:13:01Z</time>
      </trkpt>
      <trkpt lat="45.30591" lon="6.05046">
        <ele>1914.2</ele>
        <time>2021-01-16T10:13:02Z</time>
      </trkpt>
      <trkpt lat="45.3059" lon="6.05046">
        <ele>1914.4</ele>
        <time>2021-01-16T10:13:03Z</time>
      </trkpt>
      <trkpt lat="45.3059" lon="6.05046">
        <ele>1914.4</ele>
        <time>2021-01-16T10:13:04Z</time>
      </trkpt>
      <trkpt lat="45.30589" lon="6.05046">
        <ele>1914.6</ele>
        <time>2021-01-16T10:13:05Z</time>
      </trkpt>
      <trkpt lat="45.30588" lon="6.05046">
        <ele>1914.8</ele>
        <time>2021-01-16T10:13:06Z</time>
      </trkpt>
      <trkpt lat="45.30587" lon="6.05046">
        <ele>1914.8</ele>
        <time>2021-01-16T10:13:07Z</time>
      </trkpt>
      <trkpt lat="45.30587" lon="6.05046">
        <ele>1915</ele>
        <time>2021-01-16T10:13:08Z</time>
      </trkpt>
      <trkpt lat="45.30586" lon="6.05046">
        <ele>1915.2</ele>
        <time>2021-01-16T10:13:09Z</time>
      </trkpt>
      <trkpt lat="45.30585" lon="6.05045">
        <ele>1915.4</ele>
        <time>2021-01-16T10:13:10Z</time>
      </trkpt>
      <trkpt lat="45.30584" lon="6.05045">
        <ele>1915.6</ele>
        <time>2021-01-16T10:13:11Z</time>
      </trkpt>
      <trkpt lat="45.30584" lon="6.05045">
        <ele>1915.8</ele>
        <time>2021-01-16T10:13:12Z</time>
      </trkpt>
      <trkpt lat="45.30583" lon="6.05045">
        <ele>1915.8</ele>
        <time>2021-01-16T10:13:13Z</time>
      </trkpt>
      <trkpt lat="45.30582" lon="6.05045">
        <ele>1916</ele>
        <time>2021-01-16T10:13:14Z</time>
      </trkpt>
      <trkpt lat="45.30582" lon="6.05044">
        <ele>1916.2</ele>
        <time>2021-01-16T10:13:15Z</time>
      </trkpt>
      <trkpt lat="45.30581" lon="6.05044">
        <ele>1916.4</ele>
        <time>2021-01-16T10:13:16Z</time>
      </trkpt>
      <trkpt lat="45.3058" lon="6.05044">
        <ele>1916.6</ele>
        <time>2021-01-16T10:13:17Z</time>
      </trkpt>
      <trkpt lat="45.30579" lon="6.05044">
        <ele>1916.6</ele>
        <time>2021-01-16T10:13:18Z</time>
      </trkpt>
      <trkpt lat="45.30579" lon="6.05044">
        <ele>1916.8</ele>
        <time>2021-01-16T10:13:19Z</time>
      </trkpt>
      <trkpt lat="45.30578" lon="6.05044">
        <ele>1916.8</ele>
        <time>2021-01-16T10:13:20Z</time>
      </trkpt>
      <trkpt lat="45.30577" lon="6.05043">
        <ele>1917</ele>
        <time>2021-01-16T10:13:21Z</time>
      </trkpt>
      <trkpt lat="45.30576" lon="6.05043">
        <ele>1917</ele>
        <time>2021-01-16T10:13:22Z</time>
      </trkpt>
      <trkpt lat="45.30575" lon="6.05043">
        <ele>1917.2</ele>
        <time>2021-01-16T10:13:23Z</time>
      </trkpt>
      <trkpt lat="45.30575" lon="6.05043">
        <ele>1917.2</ele>
        <time>2021-01-16T10:13:24Z</time>
      </trkpt>
      <trkpt lat="45.30574" lon="6.05042">
        <ele>1917.4</ele>
        <time>2021-01-16T10:13:25Z</time>
      </trkpt>
      <trkpt lat="45.30574" lon="6.05042">
        <ele>1917.6</ele>
        <time>2021-01-16T10:13:26Z</time>
      </trkpt>
      <trkpt lat="45.30572" lon="6.05042">
        <ele>1917.8</ele>
        <time>2021-01-16T10:13:27Z</time>
      </trkpt>
      <trkpt lat="45.30572" lon="6.05042">
        <ele>1917.8</ele>
        <time>2021-01-16T10:13:28Z</time>
      </trkpt>
      <trkpt lat="45.30571" lon="6.05041">
        <ele>1917.8</ele>
        <time>2021-01-16T10:13:29Z</time>
      </trkpt>
      <trkpt lat="45.3057" lon="6.05041">
        <ele>1918</ele>
        <time>2021-01-16T10:13:30Z</time>
      </trkpt>
      <trkpt lat="45.30569" lon="6.05041">
        <ele>1918.2</ele>
        <time>2021-01-16T10:13:31Z</time>
      </trkpt>
      <trkpt lat="45.30569" lon="6.0504">
        <ele>1918.2</ele>
        <time>2021-01-16T10:13:32Z</time>
      </trkpt>
      <trkpt lat="45.30568" lon="6.0504">
        <ele>1918.4</ele>
        <time>2021-01-16T10:13:33Z</time>
      </trkpt>
      <trkpt lat="45.30567" lon="6.0504">
        <ele>1918.4</ele>
        <time>2021-01-16T10:13:34Z</time>
      </trkpt>
      <trkpt lat="45.30566" lon="6.0504">
        <ele>1918.6</ele>
        <time>2021-01-16T10:13:35Z</time>
      </trkpt>
      <trkpt lat="45.30566" lon="6.0504">
        <ele>1918.8</ele>
        <time>2021-01-16T10:13:36Z</time>
      </trkpt>
      <trkpt lat="45.30564" lon="6.0504">
        <ele>1918.8</ele>
        <time>2021-01-16T10:13:37Z</time>
      </trkpt>
      <trkpt lat="45.30564" lon="6.05039">
        <ele>1919</ele>
        <time>2021-01-16T10:13:38Z</time>
      </trkpt>
      <trkpt lat="45.30563" lon="6.05039">
        <ele>1919</ele>
        <time>2021-01-16T10:13:39Z</time>
      </trkpt>
      <trkpt lat="45.30562" lon="6.05039">
        <ele>1919.2</ele>
        <time>2021-01-16T10:13:40Z</time>
      </trkpt>
      <trkpt lat="45.30562" lon="6.05039">
        <ele>1919.4</ele>
        <time>2021-01-16T10:13:41Z</time>
      </trkpt>
      <trkpt lat="45.30561" lon="6.05038">
        <ele>1919.4</ele>
        <time>2021-01-16T10:13:42Z</time>
      </trkpt>
      <trkpt lat="45.3056" lon="6.05038">
        <ele>1919.6</ele>
        <time>2021-01-16T10:13:43Z</time>
      </trkpt>
      <trkpt lat="45.30559" lon="6.05038">
        <ele>1919.6</ele>
        <time>2021-01-16T10:13:44Z</time>
      </trkpt>
      <trkpt lat="45.30558" lon="6.05038">
        <ele>1919.8</ele>
        <time>2021-01-16T10:13:45Z</time>
      </trkpt>
      <trkpt lat="45.30558" lon="6.05038">
        <ele>1919.8</ele>
        <time>2021-01-16T10:13:46Z</time>
      </trkpt>
      <trkpt lat="45.30557" lon="6.05037">
        <ele>1920</ele>
        <time>2021-01-16T10:13:47Z</time>
      </trkpt>
      <trkpt lat="45.30556" lon="6.05037">
        <ele>1920</ele>
        <time>2021-01-16T10:13:48Z</time>
      </trkpt>
      <trkpt lat="45.30555" lon="6.05037">
        <ele>1920.2</ele>
        <time>2021-01-16T10:13:49Z</time>
      </trkpt>
      <trkpt lat="45.30554" lon="6.05036">
        <ele>1920.2</ele>
        <time>2021-01-16T10:13:50Z</time>
      </trkpt>
      <trkpt lat="45.30554" lon="6.05036">
        <ele>1920.4</ele>
        <time>2021-01-16T10:13:51Z</time>
      </trkpt>
      <trkpt lat="45.30553" lon="6.05036">
        <ele>1920.4</ele>
        <time>2021-01-16T10:13:52Z</time>
      </trkpt>
      <trkpt lat="45.30552" lon="6.05036">
        <ele>1920.6</ele>
        <time>2021-01-16T10:13:53Z</time>
      </trkpt>
      <trkpt lat="45.30551" lon="6.05035">
        <ele>1920.6</ele>
        <time>2021-01-16T10:13:54Z</time>
      </trkpt>
      <trkpt lat="45.3055" lon="6.05036">
        <ele>1920.8</ele>
        <time>2021-01-16T10:13:55Z</time>
      </trkpt>
      <trkpt lat="45.3055" lon="6.05035">
        <ele>1920.8</ele>
        <time>2021-01-16T10:13:56Z</time>
      </trkpt>
      <trkpt lat="45.30549" lon="6.05035">
        <ele>1920.8</ele>
        <time>2021-01-16T10:13:57Z</time>
      </trkpt>
      <trkpt lat="45.30548" lon="6.05035">
        <ele>1921</ele>
        <time>2021-01-16T10:13:58Z</time>
      </trkpt>
      <trkpt lat="45.30547" lon="6.05034">
        <ele>1921</ele>
        <time>2021-01-16T10:13:59Z</time>
      </trkpt>
      <trkpt lat="45.30546" lon="6.05034">
        <ele>1921</ele>
        <time>2021-01-16T10:14:00Z</time>
      </trkpt>
      <trkpt lat="45.30545" lon="6.05034">
        <ele>1921.2</ele>
        <time>2021-01-16T10:14:01Z</time>
      </trkpt>
      <trkpt lat="45.30544" lon="6.05033">
        <ele>1921.2</ele>
        <time>2021-01-16T10:14:02Z</time>
      </trkpt>
      <trkpt lat="45.30543" lon="6.05033">
        <ele>1921.2</ele>
        <time>2021-01-16T10:14:03Z</time>
      </trkpt>
      <trkpt lat="45.30543" lon="6.05033">
        <ele>1921.4</ele>
        <time>2021-01-16T10:14:04Z</time>
      </trkpt>
      <trkpt lat="45.30542" lon="6.05033">
        <ele>1921.4</ele>
        <time>2021-01-16T10:14:05Z</time>
      </trkpt>
      <trkpt lat="45.30542" lon="6.05032">
        <ele>1921.4</ele>
        <time>2021-01-16T10:14:06Z</time>
      </trkpt>
      <trkpt lat="45.30541" lon="6.05032">
        <ele>1921.4</ele>
        <time>2021-01-16T10:14:07Z</time>
      </trkpt>
      <trkpt lat="45.3054" lon="6.05032">
        <ele>1921.6</ele>
        <time>2021-01-16T10:14:08Z</time>
      </trkpt>
      <trkpt lat="45.30539" lon="6.05032">
        <ele>1921.8</ele>
        <time>2021-01-16T10:14:09Z</time>
      </trkpt>
      <trkpt lat="45.30538" lon="6.05032">
        <ele>1921.8</ele>
        <time>2021-01-16T10:14:10Z</time>
      </trkpt>
      <trkpt lat="45.30536" lon="6.05031">
        <ele>1921.8</ele>
        <time>2021-01-16T10:14:11Z</time>
      </trkpt>
      <trkpt lat="45.30535" lon="6.05031">
        <ele>1921.8</ele>
        <time>2021-01-16T10:14:12Z</time>
      </trkpt>
      <trkpt lat="45.30535" lon="6.0503">
        <ele>1922</ele>
        <time>2021-01-16T10:14:13Z</time>
      </trkpt>
      <trkpt lat="45.30534" lon="6.0503">
        <ele>1922</ele>
        <time>2021-01-16T10:14:14Z</time>
      </trkpt>
      <trkpt lat="45.30534" lon="6.0503">
        <ele>1922.2</ele>
        <time>2021-01-16T10:14:15Z</time>
      </trkpt>
      <trkpt lat="45.30533" lon="6.0503">
        <ele>1922.2</ele>
        <time>2021-01-16T10:14:16Z</time>
      </trkpt>
      <trkpt lat="45.30532" lon="6.05029">
        <ele>1922.4</ele>
        <time>2021-01-16T10:14:17Z</time>
      </trkpt>
      <trkpt lat="45.30532" lon="6.05029">
        <ele>1922.6</ele>
        <time>2021-01-16T10:14:18Z</time>
      </trkpt>
      <trkpt lat="45.30531" lon="6.05029">
        <ele>1922.6</ele>
        <time>2021-01-16T10:14:19Z</time>
      </trkpt>
      <trkpt lat="45.3053" lon="6.05028">
        <ele>1922.8</ele>
        <time>2021-01-16T10:14:20Z</time>
      </trkpt>
      <trkpt lat="45.30529" lon="6.05028">
        <ele>1922.8</ele>
        <time>2021-01-16T10:14:21Z</time>
      </trkpt>
      <trkpt lat="45.30529" lon="6.05028">
        <ele>1922.8</ele>
        <time>2021-01-16T10:14:22Z</time>
      </trkpt>
      <trkpt lat="45.30528" lon="6.05027">
        <ele>1922.8</ele>
        <time>2021-01-16T10:14:23Z</time>
      </trkpt>
      <trkpt lat="45.30527" lon="6.05027">
        <ele>1923</ele>
        <time>2021-01-16T10:14:24Z</time>
      </trkpt>
      <trkpt lat="45.30526" lon="6.05026">
        <ele>1923</ele>
        <time>2021-01-16T10:14:25Z</time>
      </trkpt>
      <trkpt lat="45.30525" lon="6.05026">
        <ele>1923.2</ele>
        <time>2021-01-16T10:14:26Z</time>
      </trkpt>
      <trkpt lat="45.30525" lon="6.05025">
        <ele>1923</ele>
        <time>2021-01-16T10:14:27Z</time>
      </trkpt>
      <trkpt lat="45.30524" lon="6.05025">
        <ele>1923.2</ele>
        <time>2021-01-16T10:14:28Z</time>
      </trkpt>
      <trkpt lat="45.30523" lon="6.05024">
        <ele>1923.2</ele>
        <time>2021-01-16T10:14:29Z</time>
      </trkpt>
      <trkpt lat="45.30522" lon="6.05024">
        <ele>1923.2</ele>
        <time>2021-01-16T10:14:30Z</time>
      </trkpt>
      <trkpt lat="45.30521" lon="6.05024">
        <ele>1923.2</ele>
        <time>2021-01-16T10:14:31Z</time>
      </trkpt>
      <trkpt lat="45.30521" lon="6.05024">
        <ele>1923.4</ele>
        <time>2021-01-16T10:14:32Z</time>
      </trkpt>
      <trkpt lat="45.30521" lon="6.05024">
        <ele>1923.4</ele>
        <time>2021-01-16T10:14:33Z</time>
      </trkpt>
      <trkpt lat="45.30521" lon="6.05024">
        <ele>1923.4</ele>
        <time>2021-01-16T10:14:34Z</time>
      </trkpt>
      <trkpt lat="45.30521" lon="6.05024">
        <ele>1923.4</ele>
        <time>2021-01-16T10:14:35Z</time>
      </trkpt>
      <trkpt lat="45.30521" lon="6.05024">
        <ele>1923.4</ele>
        <time>2021-01-16T10:14:36Z</time>
      </trkpt>
      <trkpt lat="45.30521" lon="6.05024">
        <ele>1923.4</ele>
        <time>2021-01-16T10:14:37Z</time>
      </trkpt>
      <trkpt lat="45.30521" lon="6.05024">
        <ele>1923.4</ele>
        <time>2021-01-16T10:14:38Z</time>
      </trkpt>
      <trkpt lat="45.30521" lon="6.05024">
        <ele>1923.4</ele>
        <time>2021-01-16T10:14:39Z</time>
      </trkpt>
      <trkpt lat="45.30521" lon="6.05024">
        <ele>1923.4</ele>
        <time>2021-01-16T10:14:40Z</time>
      </trkpt>
      <trkpt lat="45.30521" lon="6.05024">
        <ele>1923.4</ele>
        <time>2021-01-16T10:14:41Z</time>
      </trkpt>
      <trkpt lat="45.30521" lon="6.05024">
        <ele>1923.4</ele>
        <time>2021-01-16T10:14:42Z</time>
      </trkpt>
      <trkpt lat="45.30521" lon="6.05024">
        <ele>1923.4</ele>
        <time>2021-01-16T10:14:43Z</time>
      </trkpt>
      <trkpt lat="45.30521" lon="6.05024">
        <ele>1923.4</ele>
        <time>2021-01-16T10:14:44Z</time>
      </trkpt>
      <trkpt lat="45.30521" lon="6.05024">
        <ele>1923.4</ele>
        <time>2021-01-16T10:14:45Z</time>
      </trkpt>
      <trkpt lat="45.30521" lon="6.05024">
        <ele>1923.4</ele>
        <time>2021-01-16T10:14:46Z</time>
      </trkpt>
      <trkpt lat="45.30521" lon="6.05024">
        <ele>1923.4</ele>
        <time>2021-01-16T10:14:47Z</time>
      </trkpt>
      <trkpt lat="45.30521" lon="6.05024">
        <ele>1923.4</ele>
        <time>2021-01-16T10:14:48Z</time>
      </trkpt>
      <trkpt lat="45.30521" lon="6.05024">
        <ele>1923.4</ele>
        <time>2021-01-16T10:14:49Z</time>
      </trkpt>
      <trkpt lat="45.30521" lon="6.05024">
        <ele>1923.4</ele>
        <time>2021-01-16T10:14:50Z</time>
      </trkpt>
      <trkpt lat="45.30521" lon="6.05024">
        <ele>1923.4</ele>
        <time>2021-01-16T10:14:51Z</time>
      </trkpt>
      <trkpt lat="45.30521" lon="6.05024">
        <ele>1923.4</ele>
        <time>2021-01-16T10:14:52Z</time>
      </trkpt>
      <trkpt lat="45.30521" lon="6.05024">
        <ele>1923.4</ele>
        <time>2021-01-16T10:14:53Z</time>
      </trkpt>
      <trkpt lat="45.30521" lon="6.05024">
        <ele>1923.4</ele>
        <time>2021-01-16T10:14:54Z</time>
      </trkpt>
      <trkpt lat="45.30521" lon="6.05024">
        <ele>1923.4</ele>
        <time>2021-01-16T10:14:55Z</time>
      </trkpt>
      <trkpt lat="45.30521" lon="6.05024">
        <ele>1923.4</ele>
        <time>2021-01-16T10:14:56Z</time>
      </trkpt>
      <trkpt lat="45.30521" lon="6.05024">
        <ele>1923.4</ele>
        <time>2021-01-16T10:14:57Z</time>
      </trkpt>
      <trkpt lat="45.30521" lon="6.05024">
        <ele>1923.4</ele>
        <time>2021-01-16T10:14:58Z</time>
      </trkpt>
      <trkpt lat="45.30521" lon="6.05024">
        <ele>1923.4</ele>
        <time>2021-01-16T10:14:59Z</time>
      </trkpt>
      <trkpt lat="45.30521" lon="6.05024">
        <ele>1923.4</ele>
        <time>2021-01-16T10:15:00Z</time>
      </trkpt>
      <trkpt lat="45.30521" lon="6.05024">
        <ele>1923.4</ele>
        <time>2021-01-16T10:15:01Z</time>
      </trkpt>
      <trkpt lat="45.3052" lon="6.05023">
        <ele>1923.4</ele>
        <time>2021-01-16T10:15:02Z</time>
      </trkpt>
      <trkpt lat="45.30519" lon="6.05023">
        <ele>1923.4</ele>
        <time>2021-01-16T10:15:03Z</time>
      </trkpt>
      <trkpt lat="45.30519" lon="6.05023">
        <ele>1923.4</ele>
        <time>2021-01-16T10:15:04Z</time>
      </trkpt>
      <trkpt lat="45.30518" lon="6.05023">
        <ele>1923.4</ele>
        <time>2021-01-16T10:15:05Z</time>
      </trkpt>
      <trkpt lat="45.30517" lon="6.05022">
        <ele>1923.6</ele>
        <time>2021-01-16T10:15:06Z</time>
      </trkpt>
      <trkpt lat="45.30517" lon="6.05022">
        <ele>1923.6</ele>
        <time>2021-01-16T10:15:07Z</time>
      </trkpt>
      <trkpt lat="45.30516" lon="6.05022">
        <ele>1923.6</ele>
        <time>2021-01-16T10:15:08Z</time>
      </trkpt>
      <trkpt lat="45.30515" lon="6.05021">
        <ele>1923.6</ele>
        <time>2021-01-16T10:15:09Z</time>
      </trkpt>
      <trkpt lat="45.30514" lon="6.05021">
        <ele>1923.8</ele>
        <time>2021-01-16T10:15:10Z</time>
      </trkpt>
      <trkpt lat="45.30513" lon="6.05021">
        <ele>1923.8</ele>
        <time>2021-01-16T10:15:11Z</time>
      </trkpt>
      <trkpt lat="45.30512" lon="6.05021">
        <ele>1923.8</ele>
        <time>2021-01-16T10:15:12Z</time>
      </trkpt>
      <trkpt lat="45.3051" lon="6.05021">
        <ele>1923.8</ele>
        <time>2021-01-16T10:15:13Z</time>
      </trkpt>
      <trkpt lat="45.30509" lon="6.0502">
        <ele>1924</ele>
        <time>2021-01-16T10:15:14Z</time>
      </trkpt>
      <trkpt lat="45.30509" lon="6.0502">
        <ele>1924</ele>
        <time>2021-01-16T10:15:15Z</time>
      </trkpt>
      <trkpt lat="45.30507" lon="6.0502">
        <ele>1924</ele>
        <time>2021-01-16T10:15:16Z</time>
      </trkpt>
      <trkpt lat="45.30506" lon="6.0502">
        <ele>1924</ele>
        <time>2021-01-16T10:15:17Z</time>
      </trkpt>
      <trkpt lat="45.30506" lon="6.0502">
        <ele>1924</ele>
        <time>2021-01-16T10:15:18Z</time>
      </trkpt>
      <trkpt lat="45.30505" lon="6.05019">
        <ele>1924</ele>
        <time>2021-01-16T10:15:19Z</time>
      </trkpt>
      <trkpt lat="45.30504" lon="6.05019">
        <ele>1924.2</ele>
        <time>2021-01-16T10:15:20Z</time>
      </trkpt>
      <trkpt lat="45.30503" lon="6.05019">
        <ele>1924.4</ele>
        <time>2021-01-16T10:15:21Z</time>
      </trkpt>
      <trkpt lat="45.30502" lon="6.05018">
        <ele>1924.4</ele>
        <time>2021-01-16T10:15:22Z</time>
      </trkpt>
      <trkpt lat="45.30501" lon="6.05018">
        <ele>1924.4</ele>
        <time>2021-01-16T10:15:23Z</time>
      </trkpt>
      <trkpt lat="45.30501" lon="6.05018">
        <ele>1924.6</ele>
        <time>2021-01-16T10:15:24Z</time>
      </trkpt>
      <trkpt lat="45.305" lon="6.05018">
        <ele>1924.6</ele>
        <time>2021-01-16T10:15:25Z</time>
      </trkpt>
      <trkpt lat="45.30499" lon="6.05018">
        <ele>1924.8</ele>
        <time>2021-01-16T10:15:26Z</time>
      </trkpt>
      <trkpt lat="45.30498" lon="6.05017">
        <ele>1925</ele>
        <time>2021-01-16T10:15:27Z</time>
      </trkpt>
      <trkpt lat="45.30498" lon="6.05017">
        <ele>1925.2</ele>
        <time>2021-01-16T10:15:28Z</time>
      </trkpt>
      <trkpt lat="45.30497" lon="6.05016">
        <ele>1925.4</ele>
        <time>2021-01-16T10:15:29Z</time>
      </trkpt>
      <trkpt lat="45.30496" lon="6.05017">
        <ele>1925.6</ele>
        <time>2021-01-16T10:15:30Z</time>
      </trkpt>
      <trkpt lat="45.30495" lon="6.05016">
        <ele>1925.6</ele>
        <time>2021-01-16T10:15:31Z</time>
      </trkpt>
      <trkpt lat="45.30495" lon="6.05016">
        <ele>1925.8</ele>
        <time>2021-01-16T10:15:32Z</time>
      </trkpt>
      <trkpt lat="45.30493" lon="6.05016">
        <ele>1926</ele>
        <time>2021-01-16T10:15:33Z</time>
      </trkpt>
      <trkpt lat="45.30493" lon="6.05016">
        <ele>1926.2</ele>
        <time>2021-01-16T10:15:34Z</time>
      </trkpt>
      <trkpt lat="45.30492" lon="6.05016">
        <ele>1926.4</ele>
        <time>2021-01-16T10:15:35Z</time>
      </trkpt>
      <trkpt lat="45.30491" lon="6.05016">
        <ele>1926.6</ele>
        <time>2021-01-16T10:15:36Z</time>
      </trkpt>
      <trkpt lat="45.3049" lon="6.05016">
        <ele>1926.8</ele>
        <time>2021-01-16T10:15:37Z</time>
      </trkpt>
      <trkpt lat="45.30489" lon="6.05016">
        <ele>1927</ele>
        <time>2021-01-16T10:15:38Z</time>
      </trkpt>
      <trkpt lat="45.30488" lon="6.05016">
        <ele>1927.2</ele>
        <time>2021-01-16T10:15:39Z</time>
      </trkpt>
      <trkpt lat="45.30487" lon="6.05016">
        <ele>1927.4</ele>
        <time>2021-01-16T10:15:40Z</time>
      </trkpt>
      <trkpt lat="45.30487" lon="6.05016">
        <ele>1927.8</ele>
        <time>2021-01-16T10:15:41Z</time>
      </trkpt>
      <trkpt lat="45.30486" lon="6.05016">
        <ele>1928</ele>
        <time>2021-01-16T10:15:42Z</time>
      </trkpt>
      <trkpt lat="45.30485" lon="6.05016">
        <ele>1928</ele>
        <time>2021-01-16T10:15:43Z</time>
      </trkpt>
      <trkpt lat="45.30484" lon="6.05016">
        <ele>1928.4</ele>
        <time>2021-01-16T10:15:44Z</time>
      </trkpt>
      <trkpt lat="45.30484" lon="6.05016">
        <ele>1928.4</ele>
        <time>2021-01-16T10:15:45Z</time>
      </trkpt>
      <trkpt lat="45.30483" lon="6.05016">
        <ele>1928.6</ele>
        <time>2021-01-16T10:15:46Z</time>
      </trkpt>
      <trkpt lat="45.30482" lon="6.05016">
        <ele>1929</ele>
        <time>2021-01-16T10:15:47Z</time>
      </trkpt>
      <trkpt lat="45.30481" lon="6.05015">
        <ele>1929</ele>
        <time>2021-01-16T10:15:48Z</time>
      </trkpt>
      <trkpt lat="45.3048" lon="6.05015">
        <ele>1929.2</ele>
        <time>2021-01-16T10:15:49Z</time>
      </trkpt>
      <trkpt lat="45.3048" lon="6.05015">
        <ele>1929.4</ele>
        <time>2021-01-16T10:15:50Z</time>
      </trkpt>
      <trkpt lat="45.30479" lon="6.05015">
        <ele>1929.6</ele>
        <time>2021-01-16T10:15:51Z</time>
      </trkpt>
      <trkpt lat="45.30478" lon="6.05015">
        <ele>1929.6</ele>
        <time>2021-01-16T10:15:52Z</time>
      </trkpt>
      <trkpt lat="45.30477" lon="6.05014">
        <ele>1930</ele>
        <time>2021-01-16T10:15:53Z</time>
      </trkpt>
      <trkpt lat="45.30477" lon="6.05014">
        <ele>1930</ele>
        <time>2021-01-16T10:15:54Z</time>
      </trkpt>
      <trkpt lat="45.30476" lon="6.05014">
        <ele>1930.2</ele>
        <time>2021-01-16T10:15:55Z</time>
      </trkpt>
      <trkpt lat="45.30475" lon="6.05014">
        <ele>1930.4</ele>
        <time>2021-01-16T10:15:56Z</time>
      </trkpt>
      <trkpt lat="45.30474" lon="6.05014">
        <ele>1930.6</ele>
        <time>2021-01-16T10:15:57Z</time>
      </trkpt>
      <trkpt lat="45.30473" lon="6.05014">
        <ele>1930.8</ele>
        <time>2021-01-16T10:15:58Z</time>
      </trkpt>
      <trkpt lat="45.30473" lon="6.05014">
        <ele>1931</ele>
        <time>2021-01-16T10:15:59Z</time>
      </trkpt>
      <trkpt lat="45.30472" lon="6.05014">
        <ele>1931</ele>
        <time>2021-01-16T10:16:00Z</time>
      </trkpt>
      <trkpt lat="45.30471" lon="6.05014">
        <ele>1931.2</ele>
        <time>2021-01-16T10:16:01Z</time>
      </trkpt>
      <trkpt lat="45.30471" lon="6.05014">
        <ele>1931.4</ele>
        <time>2021-01-16T10:16:02Z</time>
      </trkpt>
      <trkpt lat="45.3047" lon="6.05014">
        <ele>1931.6</ele>
        <time>2021-01-16T10:16:03Z</time>
      </trkpt>
      <trkpt lat="45.30469" lon="6.05014">
        <ele>1931.8</ele>
        <time>2021-01-16T10:16:04Z</time>
      </trkpt>
      <trkpt lat="45.30469" lon="6.05014">
        <ele>1932</ele>
        <time>2021-01-16T10:16:05Z</time>
      </trkpt>
      <trkpt lat="45.30468" lon="6.05014">
        <ele>1932</ele>
        <time>2021-01-16T10:16:06Z</time>
      </trkpt>
      <trkpt lat="45.30467" lon="6.05014">
        <ele>1932.4</ele>
        <time>2021-01-16T10:16:07Z</time>
      </trkpt>
      <trkpt lat="45.30466" lon="6.05014">
        <ele>1932.4</ele>
        <time>2021-01-16T10:16:08Z</time>
      </trkpt>
      <trkpt lat="45.30465" lon="6.05014">
        <ele>1932.4</ele>
        <time>2021-01-16T10:16:09Z</time>
      </trkpt>
      <trkpt lat="45.30464" lon="6.05014">
        <ele>1932.8</ele>
        <time>2021-01-16T10:16:10Z</time>
      </trkpt>
      <trkpt lat="45.30463" lon="6.05014">
        <ele>1932.8</ele>
        <time>2021-01-16T10:16:11Z</time>
      </trkpt>
      <trkpt lat="45.30462" lon="6.05014">
        <ele>1933</ele>
        <time>2021-01-16T10:16:12Z</time>
      </trkpt>
      <trkpt lat="45.30461" lon="6.05014">
        <ele>1933.2</ele>
        <time>2021-01-16T10:16:13Z</time>
      </trkpt>
      <trkpt lat="45.3046" lon="6.05013">
        <ele>1933.2</ele>
        <time>2021-01-16T10:16:14Z</time>
      </trkpt>
      <trkpt lat="45.3046" lon="6.05013">
        <ele>1933.2</ele>
        <time>2021-01-16T10:16:15Z</time>
      </trkpt>
      <trkpt lat="45.30459" lon="6.05013">
        <ele>1933.4</ele>
        <time>2021-01-16T10:16:16Z</time>
      </trkpt>
      <trkpt lat="45.30458" lon="6.05013">
        <ele>1933.6</ele>
        <time>2021-01-16T10:16:17Z</time>
      </trkpt>
      <trkpt lat="45.30457" lon="6.05013">
        <ele>1933.6</ele>
        <time>2021-01-16T10:16:18Z</time>
      </trkpt>
      <trkpt lat="45.30456" lon="6.05014">
        <ele>1933.8</ele>
        <time>2021-01-16T10:16:19Z</time>
      </trkpt>
      <trkpt lat="45.30455" lon="6.05013">
        <ele>1934</ele>
        <time>2021-01-16T10:16:20Z</time>
      </trkpt>
      <trkpt lat="45.30454" lon="6.05013">
        <ele>1934</ele>
        <time>2021-01-16T10:16:21Z</time>
      </trkpt>
      <trkpt lat="45.30454" lon="6.05013">
        <ele>1934.4</ele>
        <time>2021-01-16T10:16:22Z</time>
      </trkpt>
      <trkpt lat="45.30453" lon="6.05013">
        <ele>1934.4</ele>
        <time>2021-01-16T10:16:23Z</time>
      </trkpt>
      <trkpt lat="45.30452" lon="6.05013">
        <ele>1934.6</ele>
        <time>2021-01-16T10:16:24Z</time>
      </trkpt>
      <trkpt lat="45.30451" lon="6.05013">
        <ele>1934.8</ele>
        <time>2021-01-16T10:16:25Z</time>
      </trkpt>
      <trkpt lat="45.3045" lon="6.05013">
        <ele>1935</ele>
        <time>2021-01-16T10:16:26Z</time>
      </trkpt>
      <trkpt lat="45.3045" lon="6.05013">
        <ele>1935.2</ele>
        <time>2021-01-16T10:16:27Z</time>
      </trkpt>
      <trkpt lat="45.30449" lon="6.05013">
        <ele>1935.6</ele>
        <time>2021-01-16T10:16:28Z</time>
      </trkpt>
      <trkpt lat="45.30448" lon="6.05013">
        <ele>1935.6</ele>
        <time>2021-01-16T10:16:29Z</time>
      </trkpt>
      <trkpt lat="45.30448" lon="6.05013">
        <ele>1935.8</ele>
        <time>2021-01-16T10:16:30Z</time>
      </trkpt>
      <trkpt lat="45.30447" lon="6.05013">
        <ele>1936.2</ele>
        <time>2021-01-16T10:16:31Z</time>
      </trkpt>
      <trkpt lat="45.30446" lon="6.05013">
        <ele>1936.4</ele>
        <time>2021-01-16T10:16:32Z</time>
      </trkpt>
      <trkpt lat="45.30445" lon="6.05013">
        <ele>1936.6</ele>
        <time>2021-01-16T10:16:33Z</time>
      </trkpt>
      <trkpt lat="45.30445" lon="6.05013">
        <ele>1936.6</ele>
        <time>2021-01-16T10:16:34Z</time>
      </trkpt>
      <trkpt lat="45.30444" lon="6.05013">
        <ele>1936.8</ele>
        <time>2021-01-16T10:16:35Z</time>
      </trkpt>
      <trkpt lat="45.30444" lon="6.05013">
        <ele>1937</ele>
        <time>2021-01-16T10:16:36Z</time>
      </trkpt>
      <trkpt lat="45.30443" lon="6.05012">
        <ele>1937.2</ele>
        <time>2021-01-16T10:16:37Z</time>
      </trkpt>
      <trkpt lat="45.30442" lon="6.05012">
        <ele>1937.2</ele>
        <time>2021-01-16T10:16:38Z</time>
      </trkpt>
      <trkpt lat="45.30441" lon="6.05012">
        <ele>1937.4</ele>
        <time>2021-01-16T10:16:39Z</time>
      </trkpt>
      <trkpt lat="45.3044" lon="6.05012">
        <ele>1937.6</ele>
        <time>2021-01-16T10:16:40Z</time>
      </trkpt>
      <trkpt lat="45.3044" lon="6.05012">
        <ele>1937.8</ele>
        <time>2021-01-16T10:16:41Z</time>
      </trkpt>
      <trkpt lat="45.30439" lon="6.05012">
        <ele>1937.8</ele>
        <time>2021-01-16T10:16:42Z</time>
      </trkpt>
      <trkpt lat="45.30438" lon="6.05012">
        <ele>1938</ele>
        <time>2021-01-16T10:16:43Z</time>
      </trkpt>
      <trkpt lat="45.30437" lon="6.05011">
        <ele>1938</ele>
        <time>2021-01-16T10:16:44Z</time>
      </trkpt>
      <trkpt lat="45.30436" lon="6.05011">
        <ele>1938.2</ele>
        <time>2021-01-16T10:16:45Z</time>
      </trkpt>
      <trkpt lat="45.30435" lon="6.05011">
        <ele>1938.4</ele>
        <time>2021-01-16T10:16:46Z</time>
      </trkpt>
      <trkpt lat="45.30434" lon="6.05011">
        <ele>1938.4</ele>
        <time>2021-01-16T10:16:47Z</time>
      </trkpt>
      <trkpt lat="45.30434" lon="6.0501">
        <ele>1938.6</ele>
        <time>2021-01-16T10:16:48Z</time>
      </trkpt>
      <trkpt lat="45.30433" lon="6.0501">
        <ele>1938.6</ele>
        <time>2021-01-16T10:16:49Z</time>
      </trkpt>
      <trkpt lat="45.30432" lon="6.0501">
        <ele>1938.8</ele>
        <time>2021-01-16T10:16:50Z</time>
      </trkpt>
      <trkpt lat="45.30431" lon="6.0501">
        <ele>1938.8</ele>
        <time>2021-01-16T10:16:51Z</time>
      </trkpt>
      <trkpt lat="45.3043" lon="6.0501">
        <ele>1939</ele>
        <time>2021-01-16T10:16:52Z</time>
      </trkpt>
      <trkpt lat="45.30429" lon="6.0501">
        <ele>1939.2</ele>
        <time>2021-01-16T10:16:53Z</time>
      </trkpt>
      <trkpt lat="45.30429" lon="6.0501">
        <ele>1939.4</ele>
        <time>2021-01-16T10:16:54Z</time>
      </trkpt>
      <trkpt lat="45.30428" lon="6.0501">
        <ele>1939.4</ele>
        <time>2021-01-16T10:16:55Z</time>
      </trkpt>
      <trkpt lat="45.30427" lon="6.05009">
        <ele>1939.4</ele>
        <time>2021-01-16T10:16:56Z</time>
      </trkpt>
      <trkpt lat="45.30426" lon="6.05009">
        <ele>1939.6</ele>
        <time>2021-01-16T10:16:57Z</time>
      </trkpt>
      <trkpt lat="45.30425" lon="6.05009">
        <ele>1939.6</ele>
        <time>2021-01-16T10:16:58Z</time>
      </trkpt>
      <trkpt lat="45.30424" lon="6.05008">
        <ele>1939.8</ele>
        <time>2021-01-16T10:16:59Z</time>
      </trkpt>
      <trkpt lat="45.30424" lon="6.05008">
        <ele>1939.8</ele>
        <time>2021-01-16T10:17:00Z</time>
      </trkpt>
      <trkpt lat="45.30423" lon="6.05008">
        <ele>1940</ele>
        <time>2021-01-16T10:17:01Z</time>
      </trkpt>
      <trkpt lat="45.30422" lon="6.05008">
        <ele>1940</ele>
        <time>2021-01-16T10:17:02Z</time>
      </trkpt>
      <trkpt lat="45.30422" lon="6.05008">
        <ele>1940</ele>
        <time>2021-01-16T10:17:03Z</time>
      </trkpt>
      <trkpt lat="45.30422" lon="6.05008">
        <ele>1940</ele>
        <time>2021-01-16T10:17:04Z</time>
      </trkpt>
      <trkpt lat="45.30422" lon="6.05008">
        <ele>1940</ele>
        <time>2021-01-16T10:17:05Z</time>
      </trkpt>
      <trkpt lat="45.30422" lon="6.05008">
        <ele>1940</ele>
        <time>2021-01-16T10:17:06Z</time>
      </trkpt>
      <trkpt lat="45.30422" lon="6.05008">
        <ele>1940.2</ele>
        <time>2021-01-16T10:17:07Z</time>
      </trkpt>
      <trkpt lat="45.30422" lon="6.05008">
        <ele>1940</ele>
        <time>2021-01-16T10:17:08Z</time>
      </trkpt>
      <trkpt lat="45.30422" lon="6.05008">
        <ele>1940.2</ele>
        <time>2021-01-16T10:17:09Z</time>
      </trkpt>
      <trkpt lat="45.30422" lon="6.05008">
        <ele>1940.2</ele>
        <time>2021-01-16T10:17:10Z</time>
      </trkpt>
      <trkpt lat="45.30422" lon="6.05008">
        <ele>1940.2</ele>
        <time>2021-01-16T10:17:11Z</time>
      </trkpt>
      <trkpt lat="45.30422" lon="6.05008">
        <ele>1940.2</ele>
        <time>2021-01-16T10:17:12Z</time>
      </trkpt>
      <trkpt lat="45.30422" lon="6.05008">
        <ele>1940.2</ele>
        <time>2021-01-16T10:17:13Z</time>
      </trkpt>
      <trkpt lat="45.30422" lon="6.05008">
        <ele>1940.2</ele>
        <time>2021-01-16T10:17:14Z</time>
      </trkpt>
      <trkpt lat="45.30422" lon="6.05008">
        <ele>1940.2</ele>
        <time>2021-01-16T10:17:15Z</time>
      </trkpt>
      <trkpt lat="45.30422" lon="6.05008">
        <ele>1940.2</ele>
        <time>2021-01-16T10:17:16Z</time>
      </trkpt>
      <trkpt lat="45.30422" lon="6.05008">
        <ele>1940.2</ele>
        <time>2021-01-16T10:17:17Z</time>
      </trkpt>
      <trkpt lat="45.30422" lon="6.05008">
        <ele>1940.2</ele>
        <time>2021-01-16T10:17:18Z</time>
      </trkpt>
      <trkpt lat="45.30422" lon="6.05008">
        <ele>1940.2</ele>
        <time>2021-01-16T10:17:19Z</time>
      </trkpt>
      <trkpt lat="45.30422" lon="6.05008">
        <ele>1940.2</ele>
        <time>2021-01-16T10:17:20Z</time>
      </trkpt>
      <trkpt lat="45.30422" lon="6.05008">
        <ele>1940.2</ele>
        <time>2021-01-16T10:17:21Z</time>
      </trkpt>
      <trkpt lat="45.30422" lon="6.05008">
        <ele>1940.2</ele>
        <time>2021-01-16T10:17:22Z</time>
      </trkpt>
      <trkpt lat="45.30422" lon="6.05008">
        <ele>1940.2</ele>
        <time>2021-01-16T10:17:23Z</time>
      </trkpt>
      <trkpt lat="45.30422" lon="6.05008">
        <ele>1940.2</ele>
        <time>2021-01-16T10:17:24Z</time>
      </trkpt>
      <trkpt lat="45.30422" lon="6.05008">
        <ele>1940.2</ele>
        <time>2021-01-16T10:17:25Z</time>
      </trkpt>
      <trkpt lat="45.30422" lon="6.05008">
        <ele>1940.2</ele>
        <time>2021-01-16T10:17:26Z</time>
      </trkpt>
      <trkpt lat="45.30422" lon="6.05008">
        <ele>1940.2</ele>
        <time>2021-01-16T10:17:27Z</time>
      </trkpt>
      <trkpt lat="45.30422" lon="6.05008">
        <ele>1940.2</ele>
        <time>2021-01-16T10:17:28Z</time>
      </trkpt>
      <trkpt lat="45.30422" lon="6.05008">
        <ele>1940.2</ele>
        <time>2021-01-16T10:17:29Z</time>
      </trkpt>
      <trkpt lat="45.30422" lon="6.05008">
        <ele>1940.2</ele>
        <time>2021-01-16T10:17:30Z</time>
      </trkpt>
      <trkpt lat="45.30422" lon="6.05008">
        <ele>1940.2</ele>
        <time>2021-01-16T10:17:31Z</time>
      </trkpt>
      <trkpt lat="45.30422" lon="6.05008">
        <ele>1940.2</ele>
        <time>2021-01-16T10:17:32Z</time>
      </trkpt>
      <trkpt lat="45.30422" lon="6.05008">
        <ele>1940.2</ele>
        <time>2021-01-16T10:17:33Z</time>
      </trkpt>
      <trkpt lat="45.30422" lon="6.05008">
        <ele>1940</ele>
        <time>2021-01-16T10:17:34Z</time>
      </trkpt>
      <trkpt lat="45.30422" lon="6.05008">
        <ele>1940</ele>
        <time>2021-01-16T10:17:35Z</time>
      </trkpt>
      <trkpt lat="45.30422" lon="6.05008">
        <ele>1940</ele>
        <time>2021-01-16T10:17:36Z</time>
      </trkpt>
      <trkpt lat="45.30422" lon="6.05008">
        <ele>1940.2</ele>
        <time>2021-01-16T10:17:37Z</time>
      </trkpt>
      <trkpt lat="45.30422" lon="6.05008">
        <ele>1940.2</ele>
        <time>2021-01-16T10:17:38Z</time>
      </trkpt>
      <trkpt lat="45.30422" lon="6.05008">
        <ele>1940.2</ele>
        <time>2021-01-16T10:17:39Z</time>
      </trkpt>
      <trkpt lat="45.30422" lon="6.05008">
        <ele>1940.2</ele>
        <time>2021-01-16T10:17:40Z</time>
      </trkpt>
      <trkpt lat="45.30422" lon="6.05008">
        <ele>1940.2</ele>
        <time>2021-01-16T10:17:41Z</time>
      </trkpt>
      <trkpt lat="45.30422" lon="6.05008">
        <ele>1940.2</ele>
        <time>2021-01-16T10:17:42Z</time>
      </trkpt>
      <trkpt lat="45.30422" lon="6.05008">
        <ele>1940.2</ele>
        <time>2021-01-16T10:17:43Z</time>
      </trkpt>
      <trkpt lat="45.30422" lon="6.05007">
        <ele>1940.2</ele>
        <time>2021-01-16T10:17:44Z</time>
      </trkpt>
      <trkpt lat="45.30421" lon="6.05007">
        <ele>1940.2</ele>
        <time>2021-01-16T10:17:45Z</time>
      </trkpt>
      <trkpt lat="45.3042" lon="6.05007">
        <ele>1940.2</ele>
        <time>2021-01-16T10:17:46Z</time>
      </trkpt>
      <trkpt lat="45.30419" lon="6.05007">
        <ele>1940.2</ele>
        <time>2021-01-16T10:17:47Z</time>
      </trkpt>
      <trkpt lat="45.30418" lon="6.05007">
        <ele>1940.4</ele>
        <time>2021-01-16T10:17:48Z</time>
      </trkpt>
      <trkpt lat="45.30417" lon="6.05007">
        <ele>1940.4</ele>
        <time>2021-01-16T10:17:49Z</time>
      </trkpt>
      <trkpt lat="45.30416" lon="6.05007">
        <ele>1940.4</ele>
        <time>2021-01-16T10:17:50Z</time>
      </trkpt>
      <trkpt lat="45.30416" lon="6.05006">
        <ele>1940.4</ele>
        <time>2021-01-16T10:17:51Z</time>
      </trkpt>
      <trkpt lat="45.30415" lon="6.05006">
        <ele>1940.4</ele>
        <time>2021-01-16T10:17:52Z</time>
      </trkpt>
      <trkpt lat="45.30414" lon="6.05006">
        <ele>1940.4</ele>
        <time>2021-01-16T10:17:53Z</time>
      </trkpt>
      <trkpt lat="45.30413" lon="6.05006">
        <ele>1940.6</ele>
        <time>2021-01-16T10:17:54Z</time>
      </trkpt>
      <trkpt lat="45.30413" lon="6.05007">
        <ele>1940.6</ele>
        <time>2021-01-16T10:17:55Z</time>
      </trkpt>
      <trkpt lat="45.30411" lon="6.05007">
        <ele>1940.4</ele>
        <time>2021-01-16T10:17:56Z</time>
      </trkpt>
      <trkpt lat="45.30411" lon="6.05007">
        <ele>1940.6</ele>
        <time>2021-01-16T10:17:57Z</time>
      </trkpt>
      <trkpt lat="45.3041" lon="6.05008">
        <ele>1940.6</ele>
        <time>2021-01-16T10:17:58Z</time>
      </trkpt>
      <trkpt lat="45.3041" lon="6.05009">
        <ele>1940.8</ele>
        <time>2021-01-16T10:17:59Z</time>
      </trkpt>
      <trkpt lat="45.30409" lon="6.05009">
        <ele>1940.8</ele>
        <time>2021-01-16T10:18:00Z</time>
      </trkpt>
      <trkpt lat="45.30409" lon="6.0501">
        <ele>1940.8</ele>
        <time>2021-01-16T10:18:01Z</time>
      </trkpt>
      <trkpt lat="45.30408" lon="6.0501">
        <ele>1941</ele>
        <time>2021-01-16T10:18:02Z</time>
      </trkpt>
      <trkpt lat="45.30408" lon="6.05011">
        <ele>1941</ele>
        <time>2021-01-16T10:18:03Z</time>
      </trkpt>
      <trkpt lat="45.30408" lon="6.05012">
        <ele>1941</ele>
        <time>2021-01-16T10:18:04Z</time>
      </trkpt>
      <trkpt lat="45.30407" lon="6.05013">
        <ele>1941.2</ele>
        <time>2021-01-16T10:18:05Z</time>
      </trkpt>
      <trkpt lat="45.30407" lon="6.05013">
        <ele>1941.2</ele>
        <time>2021-01-16T10:18:06Z</time>
      </trkpt>
      <trkpt lat="45.30407" lon="6.05014">
        <ele>1941.4</ele>
        <time>2021-01-16T10:18:07Z</time>
      </trkpt>
      <trkpt lat="45.30407" lon="6.05015">
        <ele>1941.4</ele>
        <time>2021-01-16T10:18:08Z</time>
      </trkpt>
      <trkpt lat="45.30407" lon="6.05016">
        <ele>1941.4</ele>
        <time>2021-01-16T10:18:09Z</time>
      </trkpt>
      <trkpt lat="45.30407" lon="6.05016">
        <ele>1941.4</ele>
        <time>2021-01-16T10:18:10Z</time>
      </trkpt>
      <trkpt lat="45.30407" lon="6.05017">
        <ele>1941.4</ele>
        <time>2021-01-16T10:18:11Z</time>
      </trkpt>
      <trkpt lat="45.30407" lon="6.05018">
        <ele>1941.4</ele>
        <time>2021-01-16T10:18:12Z</time>
      </trkpt>
      <trkpt lat="45.30407" lon="6.05018">
        <ele>1941.4</ele>
        <time>2021-01-16T10:18:13Z</time>
      </trkpt>
      <trkpt lat="45.30407" lon="6.05019">
        <ele>1941.4</ele>
        <time>2021-01-16T10:18:14Z</time>
      </trkpt>
      <trkpt lat="45.30407" lon="6.05019">
        <ele>1941.4</ele>
        <time>2021-01-16T10:18:15Z</time>
      </trkpt>
      <trkpt lat="45.30407" lon="6.05019">
        <ele>1941.4</ele>
        <time>2021-01-16T10:18:16Z</time>
      </trkpt>
      <trkpt lat="45.30407" lon="6.05019">
        <ele>1941.6</ele>
        <time>2021-01-16T10:18:17Z</time>
      </trkpt>
      <trkpt lat="45.30407" lon="6.05019">
        <ele>1941.6</ele>
        <time>2021-01-16T10:18:18Z</time>
      </trkpt>
      <trkpt lat="45.30407" lon="6.05019">
        <ele>1941.4</ele>
        <time>2021-01-16T10:18:19Z</time>
      </trkpt>
      <trkpt lat="45.30407" lon="6.05019">
        <ele>1941.6</ele>
        <time>2021-01-16T10:18:20Z</time>
      </trkpt>
      <trkpt lat="45.30407" lon="6.05019">
        <ele>1941.4</ele>
        <time>2021-01-16T10:18:21Z</time>
      </trkpt>
      <trkpt lat="45.30407" lon="6.05019">
        <ele>1941.4</ele>
        <time>2021-01-16T10:18:22Z</time>
      </trkpt>
      <trkpt lat="45.30407" lon="6.05019">
        <ele>1941.4</ele>
        <time>2021-01-16T10:18:23Z</time>
      </trkpt>
      <trkpt lat="45.30407" lon="6.05019">
        <ele>1941.4</ele>
        <time>2021-01-16T10:18:24Z</time>
      </trkpt>
      <trkpt lat="45.30407" lon="6.05019">
        <ele>1941.4</ele>
        <time>2021-01-16T10:18:25Z</time>
      </trkpt>
      <trkpt lat="45.30407" lon="6.05019">
        <ele>1941.4</ele>
        <time>2021-01-16T10:18:26Z</time>
      </trkpt>
      <trkpt lat="45.30407" lon="6.05019">
        <ele>1941.4</ele>
        <time>2021-01-16T10:18:27Z</time>
      </trkpt>
      <trkpt lat="45.30407" lon="6.05019">
        <ele>1941.4</ele>
        <time>2021-01-16T10:18:28Z</time>
      </trkpt>
      <trkpt lat="45.30407" lon="6.05019">
        <ele>1941.4</ele>
        <time>2021-01-16T10:18:29Z</time>
      </trkpt>
      <trkpt lat="45.30407" lon="6.05019">
        <ele>1941.4</ele>
        <time>2021-01-16T10:18:30Z</time>
      </trkpt>
      <trkpt lat="45.30407" lon="6.05019">
        <ele>1941.4</ele>
        <time>2021-01-16T10:18:31Z</time>
      </trkpt>
      <trkpt lat="45.30407" lon="6.05019">
        <ele>1941.4</ele>
        <time>2021-01-16T10:18:32Z</time>
      </trkpt>
      <trkpt lat="45.30407" lon="6.05019">
        <ele>1941.4</ele>
        <time>2021-01-16T10:18:33Z</time>
      </trkpt>
      <trkpt lat="45.30407" lon="6.05019">
        <ele>1941.4</ele>
        <time>2021-01-16T10:18:34Z</time>
      </trkpt>
      <trkpt lat="45.30407" lon="6.05019">
        <ele>1941.4</ele>
        <time>2021-01-16T10:18:35Z</time>
      </trkpt>
      <trkpt lat="45.30407" lon="6.05019">
        <ele>1941.4</ele>
        <time>2021-01-16T10:18:36Z</time>
      </trkpt>
      <trkpt lat="45.30407" lon="6.05019">
        <ele>1941.2</ele>
        <time>2021-01-16T10:18:37Z</time>
      </trkpt>
      <trkpt lat="45.30407" lon="6.05019">
        <ele>1941.2</ele>
        <time>2021-01-16T10:18:38Z</time>
      </trkpt>
      <trkpt lat="45.30407" lon="6.05019">
        <ele>1941.4</ele>
        <time>2021-01-16T10:18:39Z</time>
      </trkpt>
      <trkpt lat="45.30407" lon="6.05019">
        <ele>1941.4</ele>
        <time>2021-01-16T10:18:40Z</time>
      </trkpt>
      <trkpt lat="45.30407" lon="6.05019">
        <ele>1941.4</ele>
        <time>2021-01-16T10:18:41Z</time>
      </trkpt>
      <trkpt lat="45.30407" lon="6.05019">
        <ele>1941.4</ele>
        <time>2021-01-16T10:18:42Z</time>
      </trkpt>
      <trkpt lat="45.30407" lon="6.05019">
        <ele>1941.4</ele>
        <time>2021-01-16T10:18:43Z</time>
      </trkpt>
      <trkpt lat="45.30406" lon="6.05019">
        <ele>1941.4</ele>
        <time>2021-01-16T10:18:44Z</time>
      </trkpt>
      <trkpt lat="45.30404" lon="6.0502">
        <ele>1941.4</ele>
        <time>2021-01-16T10:18:45Z</time>
      </trkpt>
      <trkpt lat="45.30404" lon="6.0502">
        <ele>1941.4</ele>
        <time>2021-01-16T10:18:46Z</time>
      </trkpt>
      <trkpt lat="45.30403" lon="6.0502">
        <ele>1941.4</ele>
        <time>2021-01-16T10:18:47Z</time>
      </trkpt>
      <trkpt lat="45.30403" lon="6.05019">
        <ele>1941.4</ele>
        <time>2021-01-16T10:18:48Z</time>
      </trkpt>
      <trkpt lat="45.30402" lon="6.05018">
        <ele>1941.4</ele>
        <time>2021-01-16T10:18:49Z</time>
      </trkpt>
      <trkpt lat="45.30402" lon="6.05018">
        <ele>1941.4</ele>
        <time>2021-01-16T10:18:50Z</time>
      </trkpt>
      <trkpt lat="45.30402" lon="6.05017">
        <ele>1941.4</ele>
        <time>2021-01-16T10:18:51Z</time>
      </trkpt>
      <trkpt lat="45.30402" lon="6.05017">
        <ele>1941.4</ele>
        <time>2021-01-16T10:18:52Z</time>
      </trkpt>
      <trkpt lat="45.30402" lon="6.05016">
        <ele>1941.2</ele>
        <time>2021-01-16T10:18:53Z</time>
      </trkpt>
      <trkpt lat="45.30402" lon="6.05016">
        <ele>1941.2</ele>
        <time>2021-01-16T10:18:54Z</time>
      </trkpt>
      <trkpt lat="45.30402" lon="6.05016">
        <ele>1941.2</ele>
        <time>2021-01-16T10:18:55Z</time>
      </trkpt>
      <trkpt lat="45.30402" lon="6.05016">
        <ele>1941</ele>
        <time>2021-01-16T10:18:56Z</time>
      </trkpt>
      <trkpt lat="45.30402" lon="6.05016">
        <ele>1941.2</ele>
        <time>2021-01-16T10:18:57Z</time>
      </trkpt>
      <trkpt lat="45.30402" lon="6.05015">
        <ele>1941</ele>
        <time>2021-01-16T10:18:58Z</time>
      </trkpt>
      <trkpt lat="45.30403" lon="6.05014">
        <ele>1941.2</ele>
        <time>2021-01-16T10:18:59Z</time>
      </trkpt>
      <trkpt lat="45.30404" lon="6.05013">
        <ele>1941.2</ele>
        <time>2021-01-16T10:19:00Z</time>
      </trkpt>
      <trkpt lat="45.30404" lon="6.05012">
        <ele>1941.2</ele>
        <time>2021-01-16T10:19:01Z</time>
      </trkpt>
      <trkpt lat="45.30405" lon="6.05011">
        <ele>1941.2</ele>
        <time>2021-01-16T10:19:02Z</time>
      </trkpt>
      <trkpt lat="45.30406" lon="6.0501">
        <ele>1941</ele>
        <time>2021-01-16T10:19:03Z</time>
      </trkpt>
      <trkpt lat="45.30407" lon="6.0501">
        <ele>1941</ele>
        <time>2021-01-16T10:19:04Z</time>
      </trkpt>
      <trkpt lat="45.30408" lon="6.05009">
        <ele>1941</ele>
        <time>2021-01-16T10:19:05Z</time>
      </trkpt>
      <trkpt lat="45.30409" lon="6.05008">
        <ele>1940.6</ele>
        <time>2021-01-16T10:19:06Z</time>
      </trkpt>
      <trkpt lat="45.3041" lon="6.05008">
        <ele>1940.8</ele>
        <time>2021-01-16T10:19:07Z</time>
      </trkpt>
      <trkpt lat="45.30411" lon="6.05007">
        <ele>1940.6</ele>
        <time>2021-01-16T10:19:08Z</time>
      </trkpt>
      <trkpt lat="45.30412" lon="6.05006">
        <ele>1940.6</ele>
        <time>2021-01-16T10:19:09Z</time>
      </trkpt>
      <trkpt lat="45.30413" lon="6.05006">
        <ele>1940.4</ele>
        <time>2021-01-16T10:19:10Z</time>
      </trkpt>
      <trkpt lat="45.30414" lon="6.05005">
        <ele>1940.4</ele>
        <time>2021-01-16T10:19:11Z</time>
      </trkpt>
      <trkpt lat="45.30416" lon="6.05005">
        <ele>1940.2</ele>
        <time>2021-01-16T10:19:12Z</time>
      </trkpt>
      <trkpt lat="45.30417" lon="6.05004">
        <ele>1940</ele>
        <time>2021-01-16T10:19:13Z</time>
      </trkpt>
      <trkpt lat="45.30418" lon="6.05003">
        <ele>1939.8</ele>
        <time>2021-01-16T10:19:14Z</time>
      </trkpt>
      <trkpt lat="45.30419" lon="6.05002">
        <ele>1939.6</ele>
        <time>2021-01-16T10:19:15Z</time>
      </trkpt>
      <trkpt lat="45.3042" lon="6.05002">
        <ele>1939.6</ele>
        <time>2021-01-16T10:19:16Z</time>
      </trkpt>
      <trkpt lat="45.30421" lon="6.05001">
        <ele>1939.4</ele>
        <time>2021-01-16T10:19:17Z</time>
      </trkpt>
      <trkpt lat="45.30422" lon="6.05">
        <ele>1939.2</ele>
        <time>2021-01-16T10:19:18Z</time>
      </trkpt>
      <trkpt lat="45.30424" lon="6.04999">
        <ele>1938.8</ele>
        <time>2021-01-16T10:19:19Z</time>
      </trkpt>
      <trkpt lat="45.30425" lon="6.04998">
        <ele>1938.6</ele>
        <time>2021-01-16T10:19:20Z</time>
      </trkpt>
      <trkpt lat="45.30426" lon="6.04997">
        <ele>1938.4</ele>
        <time>2021-01-16T10:19:21Z</time>
      </trkpt>
      <trkpt lat="45.30427" lon="6.04996">
        <ele>1938.2</ele>
        <time>2021-01-16T10:19:22Z</time>
      </trkpt>
      <trkpt lat="45.30428" lon="6.04994">
        <ele>1937.8</ele>
        <time>2021-01-16T10:19:23Z</time>
      </trkpt>
      <trkpt lat="45.30429" lon="6.04993">
        <ele>1937.6</ele>
        <time>2021-01-16T10:19:24Z</time>
      </trkpt>
      <trkpt lat="45.3043" lon="6.04991">
        <ele>1937.4</ele>
        <time>2021-01-16T10:19:25Z</time>
      </trkpt>
      <trkpt lat="45.30431" lon="6.0499">
        <ele>1937</ele>
        <time>2021-01-16T10:19:26Z</time>
      </trkpt>
      <trkpt lat="45.30431" lon="6.04988">
        <ele>1936.8</ele>
        <time>2021-01-16T10:19:27Z</time>
      </trkpt>
      <trkpt lat="45.30432" lon="6.04987">
        <ele>1936.4</ele>
        <time>2021-01-16T10:19:28Z</time>
      </trkpt>
      <trkpt lat="45.30432" lon="6.04985">
        <ele>1936</ele>
        <time>2021-01-16T10:19:29Z</time>
      </trkpt>
      <trkpt lat="45.30433" lon="6.04984">
        <ele>1935.8</ele>
        <time>2021-01-16T10:19:30Z</time>
      </trkpt>
      <trkpt lat="45.30432" lon="6.04982">
        <ele>1935.4</ele>
        <time>2021-01-16T10:19:31Z</time>
      </trkpt>
      <trkpt lat="45.30432" lon="6.0498">
        <ele>1935.2</ele>
        <time>2021-01-16T10:19:32Z</time>
      </trkpt>
      <trkpt lat="45.30431" lon="6.04979">
        <ele>1935</ele>
        <time>2021-01-16T10:19:33Z</time>
      </trkpt>
      <trkpt lat="45.30431" lon="6.04979">
        <ele>1934.8</ele>
        <time>2021-01-16T10:19:34Z</time>
      </trkpt>
      <trkpt lat="45.30431" lon="6.04979">
        <ele>1934.8</ele>
        <time>2021-01-16T10:19:35Z</time>
      </trkpt>
      <trkpt lat="45.30432" lon="6.04979">
        <ele>1934.8</ele>
        <time>2021-01-16T10:19:36Z</time>
      </trkpt>
      <trkpt lat="45.30432" lon="6.04979">
        <ele>1934.6</ele>
        <time>2021-01-16T10:19:37Z</time>
      </trkpt>
      <trkpt lat="45.30432" lon="6.04979">
        <ele>1934.6</ele>
        <time>2021-01-16T10:19:38Z</time>
      </trkpt>
      <trkpt lat="45.30432" lon="6.04979">
        <ele>1934.6</ele>
        <time>2021-01-16T10:19:39Z</time>
      </trkpt>
      <trkpt lat="45.30432" lon="6.04979">
        <ele>1934.6</ele>
        <time>2021-01-16T10:19:40Z</time>
      </trkpt>
      <trkpt lat="45.30432" lon="6.04979">
        <ele>1934.4</ele>
        <time>2021-01-16T10:19:41Z</time>
      </trkpt>
      <trkpt lat="45.30432" lon="6.04979">
        <ele>1934.4</ele>
        <time>2021-01-16T10:19:42Z</time>
      </trkpt>
      <trkpt lat="45.30432" lon="6.04979">
        <ele>1934.6</ele>
        <time>2021-01-16T10:19:43Z</time>
      </trkpt>
      <trkpt lat="45.30432" lon="6.04979">
        <ele>1934.4</ele>
        <time>2021-01-16T10:19:44Z</time>
      </trkpt>
      <trkpt lat="45.30432" lon="6.04979">
        <ele>1934.4</ele>
        <time>2021-01-16T10:19:45Z</time>
      </trkpt>
      <trkpt lat="45.30432" lon="6.04979">
        <ele>1934.4</ele>
        <time>2021-01-16T10:19:46Z</time>
      </trkpt>
      <trkpt lat="45.30432" lon="6.04979">
        <ele>1934.4</ele>
        <time>2021-01-16T10:19:47Z</time>
      </trkpt>
      <trkpt lat="45.30432" lon="6.04979">
        <ele>1934.2</ele>
        <time>2021-01-16T10:19:48Z</time>
      </trkpt>
      <trkpt lat="45.30432" lon="6.04979">
        <ele>1934.4</ele>
        <time>2021-01-16T10:19:49Z</time>
      </trkpt>
      <trkpt lat="45.30432" lon="6.04979">
        <ele>1934.4</ele>
        <time>2021-01-16T10:19:50Z</time>
      </trkpt>
      <trkpt lat="45.30432" lon="6.04979">
        <ele>1934.2</ele>
        <time>2021-01-16T10:19:51Z</time>
      </trkpt>
      <trkpt lat="45.30432" lon="6.04979">
        <ele>1934.2</ele>
        <time>2021-01-16T10:19:52Z</time>
      </trkpt>
      <trkpt lat="45.30432" lon="6.04979">
        <ele>1934.2</ele>
        <time>2021-01-16T10:19:53Z</time>
      </trkpt>
      <trkpt lat="45.30432" lon="6.04979">
        <ele>1934.2</ele>
        <time>2021-01-16T10:19:54Z</time>
      </trkpt>
      <trkpt lat="45.30432" lon="6.04979">
        <ele>1934.2</ele>
        <time>2021-01-16T10:19:55Z</time>
      </trkpt>
      <trkpt lat="45.30432" lon="6.04979">
        <ele>1934.2</ele>
        <time>2021-01-16T10:19:56Z</time>
      </trkpt>
      <trkpt lat="45.30432" lon="6.04979">
        <ele>1934.2</ele>
        <time>2021-01-16T10:19:57Z</time>
      </trkpt>
      <trkpt lat="45.30432" lon="6.04979">
        <ele>1934.2</ele>
        <time>2021-01-16T10:19:58Z</time>
      </trkpt>
      <trkpt lat="45.30432" lon="6.04979">
        <ele>1934.2</ele>
        <time>2021-01-16T10:19:59Z</time>
      </trkpt>
      <trkpt lat="45.30432" lon="6.04979">
        <ele>1934.2</ele>
        <time>2021-01-16T10:20:00Z</time>
      </trkpt>
      <trkpt lat="45.30432" lon="6.04979">
        <ele>1934.2</ele>
        <time>2021-01-16T10:20:01Z</time>
      </trkpt>
      <trkpt lat="45.30432" lon="6.04979">
        <ele>1934.2</ele>
        <time>2021-01-16T10:20:02Z</time>
      </trkpt>
      <trkpt lat="45.30432" lon="6.04979">
        <ele>1934.2</ele>
        <time>2021-01-16T10:20:03Z</time>
      </trkpt>
      <trkpt lat="45.30432" lon="6.04979">
        <ele>1934.2</ele>
        <time>2021-01-16T10:20:04Z</time>
      </trkpt>
      <trkpt lat="45.30432" lon="6.04979">
        <ele>1934.2</ele>
        <time>2021-01-16T10:20:05Z</time>
      </trkpt>
      <trkpt lat="45.30432" lon="6.04979">
        <ele>1934.2</ele>
        <time>2021-01-16T10:20:06Z</time>
      </trkpt>
      <trkpt lat="45.30432" lon="6.04979">
        <ele>1934.2</ele>
        <time>2021-01-16T10:20:07Z</time>
      </trkpt>
      <trkpt lat="45.30432" lon="6.04979">
        <ele>1934.2</ele>
        <time>2021-01-16T10:20:08Z</time>
      </trkpt>
      <trkpt lat="45.30432" lon="6.04979">
        <ele>1934.2</ele>
        <time>2021-01-16T10:20:09Z</time>
      </trkpt>
      <trkpt lat="45.30432" lon="6.04979">
        <ele>1934.2</ele>
        <time>2021-01-16T10:20:10Z</time>
      </trkpt>
      <trkpt lat="45.30432" lon="6.04979">
        <ele>1934.2</ele>
        <time>2021-01-16T10:20:11Z</time>
      </trkpt>
      <trkpt lat="45.30432" lon="6.04979">
        <ele>1934.2</ele>
        <time>2021-01-16T10:20:12Z</time>
      </trkpt>
      <trkpt lat="45.30432" lon="6.04979">
        <ele>1934.2</ele>
        <time>2021-01-16T10:20:13Z</time>
      </trkpt>
      <trkpt lat="45.30432" lon="6.04979">
        <ele>1934.2</ele>
        <time>2021-01-16T10:20:14Z</time>
      </trkpt>
      <trkpt lat="45.30432" lon="6.04979">
        <ele>1934.2</ele>
        <time>2021-01-16T10:20:15Z</time>
      </trkpt>
      <trkpt lat="45.30432" lon="6.04979">
        <ele>1934.2</ele>
        <time>2021-01-16T10:20:16Z</time>
      </trkpt>
      <trkpt lat="45.30432" lon="6.04979">
        <ele>1934.2</ele>
        <time>2021-01-16T10:20:17Z</time>
      </trkpt>
      <trkpt lat="45.30432" lon="6.04979">
        <ele>1934.2</ele>
        <time>2021-01-16T10:20:18Z</time>
      </trkpt>
      <trkpt lat="45.30432" lon="6.04979">
        <ele>1934.2</ele>
        <time>2021-01-16T10:20:19Z</time>
      </trkpt>
      <trkpt lat="45.30432" lon="6.04979">
        <ele>1934.2</ele>
        <time>2021-01-16T10:20:20Z</time>
      </trkpt>
      <trkpt lat="45.30432" lon="6.04979">
        <ele>1934.2</ele>
        <time>2021-01-16T10:20:21Z</time>
      </trkpt>
      <trkpt lat="45.30432" lon="6.04979">
        <ele>1934.2</ele>
        <time>2021-01-16T10:20:22Z</time>
      </trkpt>
      <trkpt lat="45.30432" lon="6.04979">
        <ele>1934.2</ele>
        <time>2021-01-16T10:20:23Z</time>
      </trkpt>
      <trkpt lat="45.30432" lon="6.04979">
        <ele>1934.2</ele>
        <time>2021-01-16T10:20:24Z</time>
      </trkpt>
      <trkpt lat="45.30432" lon="6.04979">
        <ele>1934.2</ele>
        <time>2021-01-16T10:20:25Z</time>
      </trkpt>
      <trkpt lat="45.30432" lon="6.04979">
        <ele>1934.2</ele>
        <time>2021-01-16T10:20:26Z</time>
      </trkpt>
      <trkpt lat="45.30432" lon="6.04979">
        <ele>1934.2</ele>
        <time>2021-01-16T10:20:27Z</time>
      </trkpt>
      <trkpt lat="45.30432" lon="6.04979">
        <ele>1934.2</ele>
        <time>2021-01-16T10:20:28Z</time>
      </trkpt>
      <trkpt lat="45.30432" lon="6.04979">
        <ele>1934.2</ele>
        <time>2021-01-16T10:20:29Z</time>
      </trkpt>
      <trkpt lat="45.30432" lon="6.04979">
        <ele>1934.2</ele>
        <time>2021-01-16T10:20:30Z</time>
      </trkpt>
      <trkpt lat="45.30432" lon="6.04979">
        <ele>1934.4</ele>
        <time>2021-01-16T10:20:31Z</time>
      </trkpt>
      <trkpt lat="45.30432" lon="6.04979">
        <ele>1934.4</ele>
        <time>2021-01-16T10:20:32Z</time>
      </trkpt>
      <trkpt lat="45.30432" lon="6.04979">
        <ele>1934.4</ele>
        <time>2021-01-16T10:20:33Z</time>
      </trkpt>
      <trkpt lat="45.30432" lon="6.04979">
        <ele>1934.4</ele>
        <time>2021-01-16T10:20:34Z</time>
      </trkpt>
      <trkpt lat="45.30432" lon="6.04979">
        <ele>1934.4</ele>
        <time>2021-01-16T10:20:35Z</time>
      </trkpt>
      <trkpt lat="45.30432" lon="6.04979">
        <ele>1934.2</ele>
        <time>2021-01-16T10:20:36Z</time>
      </trkpt>
      <trkpt lat="45.30432" lon="6.04979">
        <ele>1934.2</ele>
        <time>2021-01-16T10:20:37Z</time>
      </trkpt>
      <trkpt lat="45.30432" lon="6.04979">
        <ele>1934.2</ele>
        <time>2021-01-16T10:20:38Z</time>
      </trkpt>
      <trkpt lat="45.30432" lon="6.04979">
        <ele>1934.2</ele>
        <time>2021-01-16T10:20:39Z</time>
      </trkpt>
      <trkpt lat="45.30432" lon="6.04979">
        <ele>1934.2</ele>
        <time>2021-01-16T10:20:40Z</time>
      </trkpt>
      <trkpt lat="45.30432" lon="6.04979">
        <ele>1934.2</ele>
        <time>2021-01-16T10:20:41Z</time>
      </trkpt>
      <trkpt lat="45.30432" lon="6.04979">
        <ele>1934.2</ele>
        <time>2021-01-16T10:20:42Z</time>
      </trkpt>
      <trkpt lat="45.30432" lon="6.04979">
        <ele>1934.2</ele>
        <time>2021-01-16T10:20:43Z</time>
      </trkpt>
      <trkpt lat="45.30432" lon="6.04979">
        <ele>1934.2</ele>
        <time>2021-01-16T10:20:44Z</time>
      </trkpt>
      <trkpt lat="45.30432" lon="6.04979">
        <ele>1934.2</ele>
        <time>2021-01-16T10:20:45Z</time>
      </trkpt>
      <trkpt lat="45.30432" lon="6.04979">
        <ele>1934.2</ele>
        <time>2021-01-16T10:20:46Z</time>
      </trkpt>
      <trkpt lat="45.30432" lon="6.04979">
        <ele>1934.2</ele>
        <time>2021-01-16T10:20:47Z</time>
      </trkpt>
      <trkpt lat="45.30432" lon="6.04979">
        <ele>1934.2</ele>
        <time>2021-01-16T10:20:48Z</time>
      </trkpt>
      <trkpt lat="45.30432" lon="6.04979">
        <ele>1934.2</ele>
        <time>2021-01-16T10:20:49Z</time>
      </trkpt>
      <trkpt lat="45.30432" lon="6.04979">
        <ele>1934.2</ele>
        <time>2021-01-16T10:20:50Z</time>
      </trkpt>
      <trkpt lat="45.30432" lon="6.04979">
        <ele>1934.2</ele>
        <time>2021-01-16T10:20:51Z</time>
      </trkpt>
      <trkpt lat="45.30432" lon="6.04979">
        <ele>1934.2</ele>
        <time>2021-01-16T10:20:52Z</time>
      </trkpt>
      <trkpt lat="45.30432" lon="6.04979">
        <ele>1934.2</ele>
        <time>2021-01-16T10:20:53Z</time>
      </trkpt>
      <trkpt lat="45.30432" lon="6.04979">
        <ele>1934</ele>
        <time>2021-01-16T10:20:54Z</time>
      </trkpt>
      <trkpt lat="45.30432" lon="6.04979">
        <ele>1934.2</ele>
        <time>2021-01-16T10:20:55Z</time>
      </trkpt>
      <trkpt lat="45.30432" lon="6.04979">
        <ele>1934</ele>
        <time>2021-01-16T10:20:56Z</time>
      </trkpt>
      <trkpt lat="45.30432" lon="6.04979">
        <ele>1934.2</ele>
        <time>2021-01-16T10:20:57Z</time>
      </trkpt>
      <trkpt lat="45.30432" lon="6.04979">
        <ele>1934</ele>
        <time>2021-01-16T10:20:58Z</time>
      </trkpt>
      <trkpt lat="45.30432" lon="6.04979">
        <ele>1934</ele>
        <time>2021-01-16T10:20:59Z</time>
      </trkpt>
      <trkpt lat="45.30432" lon="6.04979">
        <ele>1934</ele>
        <time>2021-01-16T10:21:00Z</time>
      </trkpt>
      <trkpt lat="45.30432" lon="6.04979">
        <ele>1934.2</ele>
        <time>2021-01-16T10:21:01Z</time>
      </trkpt>
      <trkpt lat="45.30432" lon="6.04979">
        <ele>1934.2</ele>
        <time>2021-01-16T10:21:02Z</time>
      </trkpt>
      <trkpt lat="45.30432" lon="6.04979">
        <ele>1934.2</ele>
        <time>2021-01-16T10:21:03Z</time>
      </trkpt>
      <trkpt lat="45.30432" lon="6.04979">
        <ele>1934</ele>
        <time>2021-01-16T10:21:04Z</time>
      </trkpt>
      <trkpt lat="45.30432" lon="6.04979">
        <ele>1934</ele>
        <time>2021-01-16T10:21:05Z</time>
      </trkpt>
      <trkpt lat="45.30432" lon="6.04979">
        <ele>1934</ele>
        <time>2021-01-16T10:21:06Z</time>
      </trkpt>
      <trkpt lat="45.30432" lon="6.04979">
        <ele>1934</ele>
        <time>2021-01-16T10:21:07Z</time>
      </trkpt>
      <trkpt lat="45.30432" lon="6.04979">
        <ele>1934</ele>
        <time>2021-01-16T10:21:08Z</time>
      </trkpt>
      <trkpt lat="45.30432" lon="6.04979">
        <ele>1934</ele>
        <time>2021-01-16T10:21:09Z</time>
      </trkpt>
      <trkpt lat="45.30432" lon="6.04979">
        <ele>1934</ele>
        <time>2021-01-16T10:21:10Z</time>
      </trkpt>
      <trkpt lat="45.30432" lon="6.04979">
        <ele>1934.2</ele>
        <time>2021-01-16T10:21:11Z</time>
      </trkpt>
      <trkpt lat="45.30432" lon="6.04979">
        <ele>1934.2</ele>
        <time>2021-01-16T10:21:12Z</time>
      </trkpt>
      <trkpt lat="45.30432" lon="6.04979">
        <ele>1934.2</ele>
        <time>2021-01-16T10:21:13Z</time>
      </trkpt>
      <trkpt lat="45.30432" lon="6.04979">
        <ele>1934.2</ele>
        <time>2021-01-16T10:21:14Z</time>
      </trkpt>
      <trkpt lat="45.30432" lon="6.04979">
        <ele>1934.2</ele>
        <time>2021-01-16T10:21:15Z</time>
      </trkpt>
      <trkpt lat="45.30432" lon="6.04979">
        <ele>1934.2</ele>
        <time>2021-01-16T10:21:16Z</time>
      </trkpt>
      <trkpt lat="45.30432" lon="6.04979">
        <ele>1934.2</ele>
        <time>2021-01-16T10:21:17Z</time>
      </trkpt>
      <trkpt lat="45.30432" lon="6.04979">
        <ele>1934</ele>
        <time>2021-01-16T10:21:18Z</time>
      </trkpt>
      <trkpt lat="45.30432" lon="6.04979">
        <ele>1934</ele>
        <time>2021-01-16T10:21:19Z</time>
      </trkpt>
      <trkpt lat="45.30432" lon="6.04979">
        <ele>1934</ele>
        <time>2021-01-16T10:21:20Z</time>
      </trkpt>
      <trkpt lat="45.30432" lon="6.04979">
        <ele>1934</ele>
        <time>2021-01-16T10:21:21Z</time>
      </trkpt>
      <trkpt lat="45.30432" lon="6.04979">
        <ele>1934</ele>
        <time>2021-01-16T10:21:22Z</time>
      </trkpt>
      <trkpt lat="45.30432" lon="6.04979">
        <ele>1934</ele>
        <time>2021-01-16T10:21:23Z</time>
      </trkpt>
      <trkpt lat="45.30432" lon="6.04979">
        <ele>1934</ele>
        <time>2021-01-16T10:21:24Z</time>
      </trkpt>
      <trkpt lat="45.30432" lon="6.04979">
        <ele>1934.2</ele>
        <time>2021-01-16T10:21:25Z</time>
      </trkpt>
      <trkpt lat="45.30432" lon="6.04979">
        <ele>1934</ele>
        <time>2021-01-16T10:21:26Z</time>
      </trkpt>
      <trkpt lat="45.30432" lon="6.04979">
        <ele>1934</ele>
        <time>2021-01-16T10:21:27Z</time>
      </trkpt>
      <trkpt lat="45.30432" lon="6.04979">
        <ele>1934</ele>
        <time>2021-01-16T10:21:28Z</time>
      </trkpt>
      <trkpt lat="45.30432" lon="6.04979">
        <ele>1934</ele>
        <time>2021-01-16T10:21:29Z</time>
      </trkpt>
      <trkpt lat="45.30432" lon="6.04979">
        <ele>1934.2</ele>
        <time>2021-01-16T10:21:30Z</time>
      </trkpt>
      <trkpt lat="45.30432" lon="6.04979">
        <ele>1934.2</ele>
        <time>2021-01-16T10:21:31Z</time>
      </trkpt>
      <trkpt lat="45.30432" lon="6.04979">
        <ele>1934</ele>
        <time>2021-01-16T10:21:32Z</time>
      </trkpt>
      <trkpt lat="45.30432" lon="6.04979">
        <ele>1934</ele>
        <time>2021-01-16T10:21:33Z</time>
      </trkpt>
      <trkpt lat="45.30432" lon="6.04979">
        <ele>1934</ele>
        <time>2021-01-16T10:21:34Z</time>
      </trkpt>
      <trkpt lat="45.30432" lon="6.04979">
        <ele>1934</ele>
        <time>2021-01-16T10:21:35Z</time>
      </trkpt>
      <trkpt lat="45.30432" lon="6.04979">
        <ele>1934</ele>
        <time>2021-01-16T10:21:36Z</time>
      </trkpt>
      <trkpt lat="45.30432" lon="6.04979">
        <ele>1934</ele>
        <time>2021-01-16T10:21:37Z</time>
      </trkpt>
      <trkpt lat="45.30432" lon="6.04979">
        <ele>1934</ele>
        <time>2021-01-16T10:21:38Z</time>
      </trkpt>
      <trkpt lat="45.30432" lon="6.04979">
        <ele>1934</ele>
        <time>2021-01-16T10:21:39Z</time>
      </trkpt>
      <trkpt lat="45.30432" lon="6.04979">
        <ele>1934</ele>
        <time>2021-01-16T10:21:40Z</time>
      </trkpt>
      <trkpt lat="45.30432" lon="6.04979">
        <ele>1934</ele>
        <time>2021-01-16T10:21:41Z</time>
      </trkpt>
      <trkpt lat="45.30432" lon="6.04979">
        <ele>1934</ele>
        <time>2021-01-16T10:21:42Z</time>
      </trkpt>
      <trkpt lat="45.30432" lon="6.04979">
        <ele>1933.8</ele>
        <time>2021-01-16T10:21:43Z</time>
      </trkpt>
      <trkpt lat="45.30432" lon="6.04979">
        <ele>1933.8</ele>
        <time>2021-01-16T10:21:44Z</time>
      </trkpt>
      <trkpt lat="45.30432" lon="6.04979">
        <ele>1933.8</ele>
        <time>2021-01-16T10:21:45Z</time>
      </trkpt>
      <trkpt lat="45.30432" lon="6.04979">
        <ele>1934</ele>
        <time>2021-01-16T10:21:46Z</time>
      </trkpt>
      <trkpt lat="45.30432" lon="6.04979">
        <ele>1934</ele>
        <time>2021-01-16T10:21:47Z</time>
      </trkpt>
      <trkpt lat="45.30432" lon="6.04979">
        <ele>1934.2</ele>
        <time>2021-01-16T10:21:48Z</time>
      </trkpt>
      <trkpt lat="45.30432" lon="6.04979">
        <ele>1934</ele>
        <time>2021-01-16T10:21:49Z</time>
      </trkpt>
      <trkpt lat="45.30432" lon="6.04979">
        <ele>1934</ele>
        <time>2021-01-16T10:21:50Z</time>
      </trkpt>
      <trkpt lat="45.30432" lon="6.04979">
        <ele>1934</ele>
        <time>2021-01-16T10:21:51Z</time>
      </trkpt>
      <trkpt lat="45.30432" lon="6.04979">
        <ele>1934</ele>
        <time>2021-01-16T10:21:52Z</time>
      </trkpt>
      <trkpt lat="45.30432" lon="6.04979">
        <ele>1934</ele>
        <time>2021-01-16T10:21:53Z</time>
      </trkpt>
      <trkpt lat="45.30432" lon="6.04979">
        <ele>1934</ele>
        <time>2021-01-16T10:21:54Z</time>
      </trkpt>
      <trkpt lat="45.30432" lon="6.04979">
        <ele>1934</ele>
        <time>2021-01-16T10:21:55Z</time>
      </trkpt>
      <trkpt lat="45.30432" lon="6.04979">
        <ele>1934.2</ele>
        <time>2021-01-16T10:21:56Z</time>
      </trkpt>
      <trkpt lat="45.30432" lon="6.04979">
        <ele>1934.2</ele>
        <time>2021-01-16T10:21:57Z</time>
      </trkpt>
      <trkpt lat="45.30432" lon="6.04979">
        <ele>1934.2</ele>
        <time>2021-01-16T10:21:58Z</time>
      </trkpt>
      <trkpt lat="45.30432" lon="6.04979">
        <ele>1934.2</ele>
        <time>2021-01-16T10:21:59Z</time>
      </trkpt>
      <trkpt lat="45.30432" lon="6.04979">
        <ele>1934.2</ele>
        <time>2021-01-16T10:22:00Z</time>
      </trkpt>
      <trkpt lat="45.30432" lon="6.04979">
        <ele>1934.2</ele>
        <time>2021-01-16T10:22:01Z</time>
      </trkpt>
      <trkpt lat="45.30432" lon="6.04979">
        <ele>1934.2</ele>
        <time>2021-01-16T10:22:02Z</time>
      </trkpt>
      <trkpt lat="45.30432" lon="6.04979">
        <ele>1934.2</ele>
        <time>2021-01-16T10:22:03Z</time>
      </trkpt>
      <trkpt lat="45.30432" lon="6.04979">
        <ele>1934.2</ele>
        <time>2021-01-16T10:22:04Z</time>
      </trkpt>
      <trkpt lat="45.30432" lon="6.04979">
        <ele>1934.2</ele>
        <time>2021-01-16T10:22:05Z</time>
      </trkpt>
      <trkpt lat="45.30432" lon="6.04979">
        <ele>1934.2</ele>
        <time>2021-01-16T10:22:06Z</time>
      </trkpt>
      <trkpt lat="45.30432" lon="6.04979">
        <ele>1934.2</ele>
        <time>2021-01-16T10:22:07Z</time>
      </trkpt>
      <trkpt lat="45.30432" lon="6.04979">
        <ele>1934.2</ele>
        <time>2021-01-16T10:22:08Z</time>
      </trkpt>
      <trkpt lat="45.30432" lon="6.04979">
        <ele>1934.2</ele>
        <time>2021-01-16T10:22:09Z</time>
      </trkpt>
      <trkpt lat="45.30432" lon="6.04979">
        <ele>1934.2</ele>
        <time>2021-01-16T10:22:10Z</time>
      </trkpt>
      <trkpt lat="45.30432" lon="6.04979">
        <ele>1934.2</ele>
        <time>2021-01-16T10:22:11Z</time>
      </trkpt>
      <trkpt lat="45.30432" lon="6.04979">
        <ele>1934</ele>
        <time>2021-01-16T10:22:12Z</time>
      </trkpt>
      <trkpt lat="45.30432" lon="6.04979">
        <ele>1934</ele>
        <time>2021-01-16T10:22:13Z</time>
      </trkpt>
      <trkpt lat="45.30432" lon="6.04979">
        <ele>1934</ele>
        <time>2021-01-16T10:22:14Z</time>
      </trkpt>
      <trkpt lat="45.30432" lon="6.04979">
        <ele>1934</ele>
        <time>2021-01-16T10:22:15Z</time>
      </trkpt>
      <trkpt lat="45.30432" lon="6.04979">
        <ele>1934</ele>
        <time>2021-01-16T10:22:16Z</time>
      </trkpt>
      <trkpt lat="45.30432" lon="6.04979">
        <ele>1934</ele>
        <time>2021-01-16T10:22:17Z</time>
      </trkpt>
      <trkpt lat="45.30432" lon="6.04979">
        <ele>1933.8</ele>
        <time>2021-01-16T10:22:18Z</time>
      </trkpt>
      <trkpt lat="45.30432" lon="6.04979">
        <ele>1933.8</ele>
        <time>2021-01-16T10:22:19Z</time>
      </trkpt>
      <trkpt lat="45.30432" lon="6.04979">
        <ele>1934</ele>
        <time>2021-01-16T10:22:20Z</time>
      </trkpt>
      <trkpt lat="45.30432" lon="6.04979">
        <ele>1934.2</ele>
        <time>2021-01-16T10:22:21Z</time>
      </trkpt>
      <trkpt lat="45.30432" lon="6.04979">
        <ele>1934.2</ele>
        <time>2021-01-16T10:22:22Z</time>
      </trkpt>
      <trkpt lat="45.30432" lon="6.04979">
        <ele>1934</ele>
        <time>2021-01-16T10:22:23Z</time>
      </trkpt>
      <trkpt lat="45.30432" lon="6.04979">
        <ele>1934.2</ele>
        <time>2021-01-16T10:22:24Z</time>
      </trkpt>
      <trkpt lat="45.30432" lon="6.04979">
        <ele>1934.2</ele>
        <time>2021-01-16T10:22:25Z</time>
      </trkpt>
      <trkpt lat="45.30432" lon="6.04979">
        <ele>1934</ele>
        <time>2021-01-16T10:22:26Z</time>
      </trkpt>
      <trkpt lat="45.30432" lon="6.04979">
        <ele>1934</ele>
        <time>2021-01-16T10:22:27Z</time>
      </trkpt>
      <trkpt lat="45.30432" lon="6.04979">
        <ele>1934</ele>
        <time>2021-01-16T10:22:28Z</time>
      </trkpt>
      <trkpt lat="45.30432" lon="6.04979">
        <ele>1934</ele>
        <time>2021-01-16T10:22:29Z</time>
      </trkpt>
      <trkpt lat="45.30432" lon="6.04979">
        <ele>1934</ele>
        <time>2021-01-16T10:22:30Z</time>
      </trkpt>
      <trkpt lat="45.30432" lon="6.04979">
        <ele>1934</ele>
        <time>2021-01-16T10:22:31Z</time>
      </trkpt>
      <trkpt lat="45.30432" lon="6.04979">
        <ele>1934.2</ele>
        <time>2021-01-16T10:22:32Z</time>
      </trkpt>
      <trkpt lat="45.30432" lon="6.04979">
        <ele>1934.2</ele>
        <time>2021-01-16T10:22:33Z</time>
      </trkpt>
      <trkpt lat="45.30432" lon="6.04979">
        <ele>1934.2</ele>
        <time>2021-01-16T10:22:34Z</time>
      </trkpt>
      <trkpt lat="45.30432" lon="6.04979">
        <ele>1934</ele>
        <time>2021-01-16T10:22:35Z</time>
      </trkpt>
      <trkpt lat="45.30432" lon="6.04979">
        <ele>1934</ele>
        <time>2021-01-16T10:22:36Z</time>
      </trkpt>
      <trkpt lat="45.30432" lon="6.04979">
        <ele>1934</ele>
        <time>2021-01-16T10:22:37Z</time>
      </trkpt>
      <trkpt lat="45.30432" lon="6.04979">
        <ele>1934</ele>
        <time>2021-01-16T10:22:38Z</time>
      </trkpt>
      <trkpt lat="45.30432" lon="6.04979">
        <ele>1934</ele>
        <time>2021-01-16T10:22:39Z</time>
      </trkpt>
      <trkpt lat="45.30432" lon="6.04979">
        <ele>1934</ele>
        <time>2021-01-16T10:22:40Z</time>
      </trkpt>
      <trkpt lat="45.30432" lon="6.04979">
        <ele>1934</ele>
        <time>2021-01-16T10:22:41Z</time>
      </trkpt>
      <trkpt lat="45.30432" lon="6.04979">
        <ele>1934</ele>
        <time>2021-01-16T10:22:42Z</time>
      </trkpt>
      <trkpt lat="45.30432" lon="6.04979">
        <ele>1934</ele>
        <time>2021-01-16T10:22:43Z</time>
      </trkpt>
      <trkpt lat="45.30432" lon="6.04979">
        <ele>1934</ele>
        <time>2021-01-16T10:22:44Z</time>
      </trkpt>
      <trkpt lat="45.30432" lon="6.04979">
        <ele>1934</ele>
        <time>2021-01-16T10:22:45Z</time>
      </trkpt>
      <trkpt lat="45.30432" lon="6.04979">
        <ele>1934</ele>
        <time>2021-01-16T10:22:46Z</time>
      </trkpt>
      <trkpt lat="45.30432" lon="6.04979">
        <ele>1934</ele>
        <time>2021-01-16T10:22:47Z</time>
      </trkpt>
      <trkpt lat="45.30432" lon="6.04979">
        <ele>1933.8</ele>
        <time>2021-01-16T10:22:48Z</time>
      </trkpt>
      <trkpt lat="45.30432" lon="6.04979">
        <ele>1933.8</ele>
        <time>2021-01-16T10:22:49Z</time>
      </trkpt>
      <trkpt lat="45.30432" lon="6.04979">
        <ele>1934</ele>
        <time>2021-01-16T10:22:50Z</time>
      </trkpt>
      <trkpt lat="45.30432" lon="6.04979">
        <ele>1934</ele>
        <time>2021-01-16T10:22:51Z</time>
      </trkpt>
      <trkpt lat="45.30432" lon="6.04979">
        <ele>1934</ele>
        <time>2021-01-16T10:22:52Z</time>
      </trkpt>
      <trkpt lat="45.30432" lon="6.04979">
        <ele>1934</ele>
        <time>2021-01-16T10:22:53Z</time>
      </trkpt>
      <trkpt lat="45.30432" lon="6.04979">
        <ele>1934</ele>
        <time>2021-01-16T10:22:54Z</time>
      </trkpt>
      <trkpt lat="45.30432" lon="6.04979">
        <ele>1934</ele>
        <time>2021-01-16T10:22:55Z</time>
      </trkpt>
      <trkpt lat="45.30432" lon="6.04979">
        <ele>1934</ele>
        <time>2021-01-16T10:22:56Z</time>
      </trkpt>
      <trkpt lat="45.30432" lon="6.04979">
        <ele>1934</ele>
        <time>2021-01-16T10:22:57Z</time>
      </trkpt>
      <trkpt lat="45.30432" lon="6.04979">
        <ele>1934</ele>
        <time>2021-01-16T10:22:58Z</time>
      </trkpt>
      <trkpt lat="45.30432" lon="6.04979">
        <ele>1934</ele>
        <time>2021-01-16T10:22:59Z</time>
      </trkpt>
      <trkpt lat="45.30432" lon="6.04979">
        <ele>1934</ele>
        <time>2021-01-16T10:23:00Z</time>
      </trkpt>
      <trkpt lat="45.30432" lon="6.04979">
        <ele>1934</ele>
        <time>2021-01-16T10:23:01Z</time>
      </trkpt>
      <trkpt lat="45.30432" lon="6.04979">
        <ele>1934</ele>
        <time>2021-01-16T10:23:02Z</time>
      </trkpt>
      <trkpt lat="45.30432" lon="6.04979">
        <ele>1934</ele>
        <time>2021-01-16T10:23:03Z</time>
      </trkpt>
      <trkpt lat="45.30432" lon="6.04979">
        <ele>1934</ele>
        <time>2021-01-16T10:23:04Z</time>
      </trkpt>
      <trkpt lat="45.30432" lon="6.04979">
        <ele>1934</ele>
        <time>2021-01-16T10:23:05Z</time>
      </trkpt>
      <trkpt lat="45.30432" lon="6.04979">
        <ele>1934</ele>
        <time>2021-01-16T10:23:06Z</time>
      </trkpt>
      <trkpt lat="45.30432" lon="6.04979">
        <ele>1934</ele>
        <time>2021-01-16T10:23:07Z</time>
      </trkpt>
      <trkpt lat="45.30432" lon="6.04979">
        <ele>1934</ele>
        <time>2021-01-16T10:23:08Z</time>
      </trkpt>
      <trkpt lat="45.30432" lon="6.04979">
        <ele>1934</ele>
        <time>2021-01-16T10:23:09Z</time>
      </trkpt>
      <trkpt lat="45.30432" lon="6.04979">
        <ele>1934</ele>
        <time>2021-01-16T10:23:10Z</time>
      </trkpt>
      <trkpt lat="45.30432" lon="6.04979">
        <ele>1934</ele>
        <time>2021-01-16T10:23:11Z</time>
      </trkpt>
      <trkpt lat="45.30432" lon="6.04979">
        <ele>1934</ele>
        <time>2021-01-16T10:23:12Z</time>
      </trkpt>
      <trkpt lat="45.30432" lon="6.04979">
        <ele>1933.8</ele>
        <time>2021-01-16T10:23:13Z</time>
      </trkpt>
      <trkpt lat="45.30432" lon="6.04979">
        <ele>1933.8</ele>
        <time>2021-01-16T10:23:14Z</time>
      </trkpt>
      <trkpt lat="45.30432" lon="6.04979">
        <ele>1933.8</ele>
        <time>2021-01-16T10:23:15Z</time>
      </trkpt>
      <trkpt lat="45.30432" lon="6.04979">
        <ele>1933.8</ele>
        <time>2021-01-16T10:23:16Z</time>
      </trkpt>
      <trkpt lat="45.30432" lon="6.04979">
        <ele>1933.8</ele>
        <time>2021-01-16T10:23:17Z</time>
      </trkpt>
      <trkpt lat="45.30432" lon="6.04979">
        <ele>1933.8</ele>
        <time>2021-01-16T10:23:18Z</time>
      </trkpt>
      <trkpt lat="45.30432" lon="6.04979">
        <ele>1933.8</ele>
        <time>2021-01-16T10:23:19Z</time>
      </trkpt>
      <trkpt lat="45.30432" lon="6.04979">
        <ele>1934</ele>
        <time>2021-01-16T10:23:20Z</time>
      </trkpt>
      <trkpt lat="45.30432" lon="6.04979">
        <ele>1934</ele>
        <time>2021-01-16T10:23:21Z</time>
      </trkpt>
      <trkpt lat="45.30432" lon="6.04979">
        <ele>1934</ele>
        <time>2021-01-16T10:23:22Z</time>
      </trkpt>
      <trkpt lat="45.30432" lon="6.04979">
        <ele>1934</ele>
        <time>2021-01-16T10:23:23Z</time>
      </trkpt>
      <trkpt lat="45.30432" lon="6.04979">
        <ele>1934</ele>
        <time>2021-01-16T10:23:24Z</time>
      </trkpt>
      <trkpt lat="45.30432" lon="6.04979">
        <ele>1934</ele>
        <time>2021-01-16T10:23:25Z</time>
      </trkpt>
      <trkpt lat="45.30432" lon="6.04979">
        <ele>1934</ele>
        <time>2021-01-16T10:23:26Z</time>
      </trkpt>
      <trkpt lat="45.30432" lon="6.04979">
        <ele>1934</ele>
        <time>2021-01-16T10:23:27Z</time>
      </trkpt>
      <trkpt lat="45.30432" lon="6.04979">
        <ele>1934</ele>
        <time>2021-01-16T10:23:28Z</time>
      </trkpt>
      <trkpt lat="45.30432" lon="6.04979">
        <ele>1934</ele>
        <time>2021-01-16T10:23:29Z</time>
      </trkpt>
      <trkpt lat="45.30432" lon="6.04979">
        <ele>1934</ele>
        <time>2021-01-16T10:23:30Z</time>
      </trkpt>
      <trkpt lat="45.30432" lon="6.04979">
        <ele>1934</ele>
        <time>2021-01-16T10:23:31Z</time>
      </trkpt>
      <trkpt lat="45.30432" lon="6.04979">
        <ele>1934</ele>
        <time>2021-01-16T10:23:32Z</time>
      </trkpt>
      <trkpt lat="45.30432" lon="6.04979">
        <ele>1934</ele>
        <time>2021-01-16T10:23:33Z</time>
      </trkpt>
      <trkpt lat="45.30432" lon="6.04979">
        <ele>1934</ele>
        <time>2021-01-16T10:23:34Z</time>
      </trkpt>
      <trkpt lat="45.30432" lon="6.04979">
        <ele>1934</ele>
        <time>2021-01-16T10:23:35Z</time>
      </trkpt>
      <trkpt lat="45.30432" lon="6.04979">
        <ele>1934</ele>
        <time>2021-01-16T10:23:36Z</time>
      </trkpt>
      <trkpt lat="45.30432" lon="6.04979">
        <ele>1934</ele>
        <time>2021-01-16T10:23:37Z</time>
      </trkpt>
      <trkpt lat="45.30432" lon="6.04979">
        <ele>1934</ele>
        <time>2021-01-16T10:23:38Z</time>
      </trkpt>
      <trkpt lat="45.30432" lon="6.04979">
        <ele>1934</ele>
        <time>2021-01-16T10:23:39Z</time>
      </trkpt>
      <trkpt lat="45.30432" lon="6.04979">
        <ele>1934</ele>
        <time>2021-01-16T10:23:40Z</time>
      </trkpt>
      <trkpt lat="45.30432" lon="6.04979">
        <ele>1934</ele>
        <time>2021-01-16T10:23:41Z</time>
      </trkpt>
      <trkpt lat="45.30432" lon="6.04979">
        <ele>1934</ele>
        <time>2021-01-16T10:23:42Z</time>
      </trkpt>
      <trkpt lat="45.30432" lon="6.04979">
        <ele>1934</ele>
        <time>2021-01-16T10:23:43Z</time>
      </trkpt>
      <trkpt lat="45.30432" lon="6.04979">
        <ele>1934</ele>
        <time>2021-01-16T10:23:44Z</time>
      </trkpt>
      <trkpt lat="45.30432" lon="6.04979">
        <ele>1934</ele>
        <time>2021-01-16T10:23:45Z</time>
      </trkpt>
      <trkpt lat="45.30432" lon="6.04979">
        <ele>1934</ele>
        <time>2021-01-16T10:23:46Z</time>
      </trkpt>
      <trkpt lat="45.30432" lon="6.04979">
        <ele>1934</ele>
        <time>2021-01-16T10:23:47Z</time>
      </trkpt>
      <trkpt lat="45.30432" lon="6.04979">
        <ele>1934</ele>
        <time>2021-01-16T10:23:48Z</time>
      </trkpt>
      <trkpt lat="45.30432" lon="6.04979">
        <ele>1934</ele>
        <time>2021-01-16T10:23:49Z</time>
      </trkpt>
      <trkpt lat="45.30432" lon="6.04979">
        <ele>1934</ele>
        <time>2021-01-16T10:23:50Z</time>
      </trkpt>
      <trkpt lat="45.30432" lon="6.04979">
        <ele>1934</ele>
        <time>2021-01-16T10:23:51Z</time>
      </trkpt>
      <trkpt lat="45.30432" lon="6.04979">
        <ele>1934</ele>
        <time>2021-01-16T10:23:52Z</time>
      </trkpt>
      <trkpt lat="45.30432" lon="6.04979">
        <ele>1934</ele>
        <time>2021-01-16T10:23:53Z</time>
      </trkpt>
      <trkpt lat="45.30432" lon="6.04979">
        <ele>1934</ele>
        <time>2021-01-16T10:23:54Z</time>
      </trkpt>
      <trkpt lat="45.30432" lon="6.04979">
        <ele>1934</ele>
        <time>2021-01-16T10:23:55Z</time>
      </trkpt>
      <trkpt lat="45.30432" lon="6.04979">
        <ele>1934</ele>
        <time>2021-01-16T10:23:56Z</time>
      </trkpt>
      <trkpt lat="45.30432" lon="6.04979">
        <ele>1934</ele>
        <time>2021-01-16T10:23:57Z</time>
      </trkpt>
      <trkpt lat="45.30432" lon="6.04979">
        <ele>1934</ele>
        <time>2021-01-16T10:23:58Z</time>
      </trkpt>
      <trkpt lat="45.30432" lon="6.04979">
        <ele>1933.8</ele>
        <time>2021-01-16T10:23:59Z</time>
      </trkpt>
      <trkpt lat="45.30432" lon="6.04979">
        <ele>1933.8</ele>
        <time>2021-01-16T10:24:00Z</time>
      </trkpt>
      <trkpt lat="45.30432" lon="6.04979">
        <ele>1933.8</ele>
        <time>2021-01-16T10:24:01Z</time>
      </trkpt>
      <trkpt lat="45.30432" lon="6.04979">
        <ele>1933.8</ele>
        <time>2021-01-16T10:24:02Z</time>
      </trkpt>
      <trkpt lat="45.30432" lon="6.04979">
        <ele>1933.8</ele>
        <time>2021-01-16T10:24:03Z</time>
      </trkpt>
      <trkpt lat="45.30432" lon="6.04979">
        <ele>1933.8</ele>
        <time>2021-01-16T10:24:04Z</time>
      </trkpt>
      <trkpt lat="45.30432" lon="6.04979">
        <ele>1933.8</ele>
        <time>2021-01-16T10:24:05Z</time>
      </trkpt>
      <trkpt lat="45.30432" lon="6.04979">
        <ele>1933.8</ele>
        <time>2021-01-16T10:24:06Z</time>
      </trkpt>
      <trkpt lat="45.30432" lon="6.04979">
        <ele>1933.8</ele>
        <time>2021-01-16T10:24:07Z</time>
      </trkpt>
      <trkpt lat="45.30432" lon="6.04979">
        <ele>1933.8</ele>
        <time>2021-01-16T10:24:08Z</time>
      </trkpt>
      <trkpt lat="45.30432" lon="6.04979">
        <ele>1933.8</ele>
        <time>2021-01-16T10:24:09Z</time>
      </trkpt>
      <trkpt lat="45.30432" lon="6.04979">
        <ele>1933.8</ele>
        <time>2021-01-16T10:24:10Z</time>
      </trkpt>
      <trkpt lat="45.30432" lon="6.04979">
        <ele>1933.8</ele>
        <time>2021-01-16T10:24:11Z</time>
      </trkpt>
      <trkpt lat="45.30432" lon="6.04979">
        <ele>1933.8</ele>
        <time>2021-01-16T10:24:12Z</time>
      </trkpt>
      <trkpt lat="45.30432" lon="6.04979">
        <ele>1933.8</ele>
        <time>2021-01-16T10:24:13Z</time>
      </trkpt>
      <trkpt lat="45.30432" lon="6.04979">
        <ele>1933.8</ele>
        <time>2021-01-16T10:24:14Z</time>
      </trkpt>
      <trkpt lat="45.30432" lon="6.04979">
        <ele>1933.8</ele>
        <time>2021-01-16T10:24:15Z</time>
      </trkpt>
      <trkpt lat="45.30432" lon="6.04979">
        <ele>1933.8</ele>
        <time>2021-01-16T10:24:16Z</time>
      </trkpt>
      <trkpt lat="45.30432" lon="6.04979">
        <ele>1933.8</ele>
        <time>2021-01-16T10:24:17Z</time>
      </trkpt>
      <trkpt lat="45.30432" lon="6.04979">
        <ele>1933.8</ele>
        <time>2021-01-16T10:24:18Z</time>
      </trkpt>
      <trkpt lat="45.30432" lon="6.04979">
        <ele>1933.8</ele>
        <time>2021-01-16T10:24:19Z</time>
      </trkpt>
      <trkpt lat="45.30432" lon="6.04979">
        <ele>1933.8</ele>
        <time>2021-01-16T10:24:20Z</time>
      </trkpt>
      <trkpt lat="45.30432" lon="6.04979">
        <ele>1933.8</ele>
        <time>2021-01-16T10:24:21Z</time>
      </trkpt>
      <trkpt lat="45.30432" lon="6.04979">
        <ele>1933.8</ele>
        <time>2021-01-16T10:24:22Z</time>
      </trkpt>
      <trkpt lat="45.30432" lon="6.04979">
        <ele>1933.8</ele>
        <time>2021-01-16T10:24:23Z</time>
      </trkpt>
      <trkpt lat="45.30432" lon="6.04979">
        <ele>1933.8</ele>
        <time>2021-01-16T10:24:24Z</time>
      </trkpt>
      <trkpt lat="45.30432" lon="6.04979">
        <ele>1933.8</ele>
        <time>2021-01-16T10:24:25Z</time>
      </trkpt>
      <trkpt lat="45.30432" lon="6.04979">
        <ele>1933.8</ele>
        <time>2021-01-16T10:24:26Z</time>
      </trkpt>
      <trkpt lat="45.30432" lon="6.04979">
        <ele>1933.8</ele>
        <time>2021-01-16T10:24:27Z</time>
      </trkpt>
      <trkpt lat="45.30432" lon="6.04979">
        <ele>1933.8</ele>
        <time>2021-01-16T10:24:28Z</time>
      </trkpt>
      <trkpt lat="45.30432" lon="6.04979">
        <ele>1933.8</ele>
        <time>2021-01-16T10:24:29Z</time>
      </trkpt>
      <trkpt lat="45.30432" lon="6.04979">
        <ele>1934</ele>
        <time>2021-01-16T10:24:30Z</time>
      </trkpt>
      <trkpt lat="45.30432" lon="6.04979">
        <ele>1933.8</ele>
        <time>2021-01-16T10:24:31Z</time>
      </trkpt>
      <trkpt lat="45.30432" lon="6.04979">
        <ele>1933.8</ele>
        <time>2021-01-16T10:24:32Z</time>
      </trkpt>
      <trkpt lat="45.30432" lon="6.04979">
        <ele>1933.8</ele>
        <time>2021-01-16T10:24:33Z</time>
      </trkpt>
      <trkpt lat="45.30432" lon="6.04979">
        <ele>1933.8</ele>
        <time>2021-01-16T10:24:34Z</time>
      </trkpt>
      <trkpt lat="45.30432" lon="6.04979">
        <ele>1933.8</ele>
        <time>2021-01-16T10:24:35Z</time>
      </trkpt>
      <trkpt lat="45.30432" lon="6.04979">
        <ele>1934</ele>
        <time>2021-01-16T10:24:36Z</time>
      </trkpt>
      <trkpt lat="45.30432" lon="6.04979">
        <ele>1934</ele>
        <time>2021-01-16T10:24:37Z</time>
      </trkpt>
      <trkpt lat="45.30432" lon="6.04979">
        <ele>1934</ele>
        <time>2021-01-16T10:24:38Z</time>
      </trkpt>
      <trkpt lat="45.30432" lon="6.04979">
        <ele>1934</ele>
        <time>2021-01-16T10:24:39Z</time>
      </trkpt>
      <trkpt lat="45.30432" lon="6.04979">
        <ele>1934</ele>
        <time>2021-01-16T10:24:40Z</time>
      </trkpt>
      <trkpt lat="45.30432" lon="6.04979">
        <ele>1934</ele>
        <time>2021-01-16T10:24:41Z</time>
      </trkpt>
      <trkpt lat="45.30432" lon="6.04979">
        <ele>1934</ele>
        <time>2021-01-16T10:24:42Z</time>
      </trkpt>
      <trkpt lat="45.30433" lon="6.0498">
        <ele>1934</ele>
        <time>2021-01-16T10:24:43Z</time>
      </trkpt>
      <trkpt lat="45.30433" lon="6.0498">
        <ele>1934</ele>
        <time>2021-01-16T10:24:44Z</time>
      </trkpt>
      <trkpt lat="45.30434" lon="6.04981">
        <ele>1934</ele>
        <time>2021-01-16T10:24:45Z</time>
      </trkpt>
      <trkpt lat="45.30431" lon="6.0498">
        <ele>1934</ele>
        <time>2021-01-16T10:24:46Z</time>
      </trkpt>
      <trkpt lat="45.3043" lon="6.04979">
        <ele>1934</ele>
        <time>2021-01-16T10:24:47Z</time>
      </trkpt>
      <trkpt lat="45.3043" lon="6.04978">
        <ele>1934</ele>
        <time>2021-01-16T10:24:48Z</time>
      </trkpt>
      <trkpt lat="45.3043" lon="6.04978">
        <ele>1934</ele>
        <time>2021-01-16T10:24:49Z</time>
      </trkpt>
      <trkpt lat="45.30429" lon="6.04978">
        <ele>1934</ele>
        <time>2021-01-16T10:24:50Z</time>
      </trkpt>
      <trkpt lat="45.3043" lon="6.04978">
        <ele>1934</ele>
        <time>2021-01-16T10:24:51Z</time>
      </trkpt>
      <trkpt lat="45.3043" lon="6.04978">
        <ele>1934</ele>
        <time>2021-01-16T10:24:52Z</time>
      </trkpt>
      <trkpt lat="45.3043" lon="6.04978">
        <ele>1934</ele>
        <time>2021-01-16T10:24:53Z</time>
      </trkpt>
      <trkpt lat="45.3043" lon="6.04978">
        <ele>1934</ele>
        <time>2021-01-16T10:24:54Z</time>
      </trkpt>
      <trkpt lat="45.3043" lon="6.04978">
        <ele>1934</ele>
        <time>2021-01-16T10:24:55Z</time>
      </trkpt>
      <trkpt lat="45.3043" lon="6.04978">
        <ele>1934</ele>
        <time>2021-01-16T10:24:56Z</time>
      </trkpt>
      <trkpt lat="45.3043" lon="6.04978">
        <ele>1933.8</ele>
        <time>2021-01-16T10:24:57Z</time>
      </trkpt>
      <trkpt lat="45.3043" lon="6.04978">
        <ele>1933.8</ele>
        <time>2021-01-16T10:24:58Z</time>
      </trkpt>
      <trkpt lat="45.3043" lon="6.04978">
        <ele>1934</ele>
        <time>2021-01-16T10:24:59Z</time>
      </trkpt>
      <trkpt lat="45.3043" lon="6.04978">
        <ele>1934</ele>
        <time>2021-01-16T10:25:00Z</time>
      </trkpt>
      <trkpt lat="45.3043" lon="6.04978">
        <ele>1934</ele>
        <time>2021-01-16T10:25:01Z</time>
      </trkpt>
      <trkpt lat="45.3043" lon="6.04978">
        <ele>1933.8</ele>
        <time>2021-01-16T10:25:02Z</time>
      </trkpt>
      <trkpt lat="45.3043" lon="6.04978">
        <ele>1933.8</ele>
        <time>2021-01-16T10:25:03Z</time>
      </trkpt>
      <trkpt lat="45.3043" lon="6.04978">
        <ele>1933.8</ele>
        <time>2021-01-16T10:25:04Z</time>
      </trkpt>
      <trkpt lat="45.3043" lon="6.04978">
        <ele>1933.8</ele>
        <time>2021-01-16T10:25:05Z</time>
      </trkpt>
      <trkpt lat="45.3043" lon="6.04978">
        <ele>1933.8</ele>
        <time>2021-01-16T10:25:06Z</time>
      </trkpt>
      <trkpt lat="45.3043" lon="6.04978">
        <ele>1933.8</ele>
        <time>2021-01-16T10:25:07Z</time>
      </trkpt>
      <trkpt lat="45.3043" lon="6.04978">
        <ele>1933.8</ele>
        <time>2021-01-16T10:25:08Z</time>
      </trkpt>
      <trkpt lat="45.3043" lon="6.04978">
        <ele>1933.8</ele>
        <time>2021-01-16T10:25:09Z</time>
      </trkpt>
      <trkpt lat="45.3043" lon="6.04978">
        <ele>1934</ele>
        <time>2021-01-16T10:25:10Z</time>
      </trkpt>
      <trkpt lat="45.3043" lon="6.04978">
        <ele>1934</ele>
        <time>2021-01-16T10:25:11Z</time>
      </trkpt>
      <trkpt lat="45.3043" lon="6.04978">
        <ele>1934</ele>
        <time>2021-01-16T10:25:12Z</time>
      </trkpt>
      <trkpt lat="45.3043" lon="6.04978">
        <ele>1934</ele>
        <time>2021-01-16T10:25:13Z</time>
      </trkpt>
      <trkpt lat="45.3043" lon="6.04978">
        <ele>1934</ele>
        <time>2021-01-16T10:25:14Z</time>
      </trkpt>
      <trkpt lat="45.3043" lon="6.04978">
        <ele>1934</ele>
        <time>2021-01-16T10:25:15Z</time>
      </trkpt>
      <trkpt lat="45.3043" lon="6.04978">
        <ele>1934</ele>
        <time>2021-01-16T10:25:16Z</time>
      </trkpt>
      <trkpt lat="45.3043" lon="6.04978">
        <ele>1934</ele>
        <time>2021-01-16T10:25:17Z</time>
      </trkpt>
      <trkpt lat="45.3043" lon="6.04978">
        <ele>1934</ele>
        <time>2021-01-16T10:25:18Z</time>
      </trkpt>
      <trkpt lat="45.3043" lon="6.04978">
        <ele>1933.8</ele>
        <time>2021-01-16T10:25:19Z</time>
      </trkpt>
      <trkpt lat="45.3043" lon="6.04978">
        <ele>1933.8</ele>
        <time>2021-01-16T10:25:20Z</time>
      </trkpt>
      <trkpt lat="45.3043" lon="6.04978">
        <ele>1933.8</ele>
        <time>2021-01-16T10:25:21Z</time>
      </trkpt>
      <trkpt lat="45.3043" lon="6.04978">
        <ele>1933.8</ele>
        <time>2021-01-16T10:25:22Z</time>
      </trkpt>
      <trkpt lat="45.3043" lon="6.04978">
        <ele>1933.8</ele>
        <time>2021-01-16T10:25:23Z</time>
      </trkpt>
      <trkpt lat="45.3043" lon="6.04978">
        <ele>1933.8</ele>
        <time>2021-01-16T10:25:24Z</time>
      </trkpt>
      <trkpt lat="45.3043" lon="6.04978">
        <ele>1933.8</ele>
        <time>2021-01-16T10:25:25Z</time>
      </trkpt>
      <trkpt lat="45.3043" lon="6.04978">
        <ele>1933.8</ele>
        <time>2021-01-16T10:25:26Z</time>
      </trkpt>
      <trkpt lat="45.3043" lon="6.04978">
        <ele>1933.8</ele>
        <time>2021-01-16T10:25:27Z</time>
      </trkpt>
      <trkpt lat="45.3043" lon="6.04978">
        <ele>1933.8</ele>
        <time>2021-01-16T10:25:28Z</time>
      </trkpt>
      <trkpt lat="45.3043" lon="6.04978">
        <ele>1933.8</ele>
        <time>2021-01-16T10:25:29Z</time>
      </trkpt>
      <trkpt lat="45.3043" lon="6.04978">
        <ele>1933.8</ele>
        <time>2021-01-16T10:25:30Z</time>
      </trkpt>
      <trkpt lat="45.3043" lon="6.04978">
        <ele>1933.8</ele>
        <time>2021-01-16T10:25:31Z</time>
      </trkpt>
      <trkpt lat="45.3043" lon="6.04978">
        <ele>1933.8</ele>
        <time>2021-01-16T10:25:32Z</time>
      </trkpt>
      <trkpt lat="45.3043" lon="6.04978">
        <ele>1933.8</ele>
        <time>2021-01-16T10:25:33Z</time>
      </trkpt>
      <trkpt lat="45.3043" lon="6.04978">
        <ele>1933.8</ele>
        <time>2021-01-16T10:25:34Z</time>
      </trkpt>
      <trkpt lat="45.3043" lon="6.04978">
        <ele>1933.8</ele>
        <time>2021-01-16T10:25:35Z</time>
      </trkpt>
      <trkpt lat="45.3043" lon="6.04978">
        <ele>1934</ele>
        <time>2021-01-16T10:25:36Z</time>
      </trkpt>
      <trkpt lat="45.3043" lon="6.04978">
        <ele>1934</ele>
        <time>2021-01-16T10:25:37Z</time>
      </trkpt>
      <trkpt lat="45.3043" lon="6.04978">
        <ele>1933.8</ele>
        <time>2021-01-16T10:25:38Z</time>
      </trkpt>
      <trkpt lat="45.3043" lon="6.04978">
        <ele>1933.8</ele>
        <time>2021-01-16T10:25:39Z</time>
      </trkpt>
      <trkpt lat="45.3043" lon="6.04978">
        <ele>1933.8</ele>
        <time>2021-01-16T10:25:40Z</time>
      </trkpt>
      <trkpt lat="45.3043" lon="6.04978">
        <ele>1933.8</ele>
        <time>2021-01-16T10:25:41Z</time>
      </trkpt>
      <trkpt lat="45.3043" lon="6.04978">
        <ele>1933.8</ele>
        <time>2021-01-16T10:25:42Z</time>
      </trkpt>
      <trkpt lat="45.3043" lon="6.04978">
        <ele>1933.8</ele>
        <time>2021-01-16T10:25:43Z</time>
      </trkpt>
      <trkpt lat="45.3043" lon="6.04978">
        <ele>1933.8</ele>
        <time>2021-01-16T10:25:44Z</time>
      </trkpt>
      <trkpt lat="45.3043" lon="6.04978">
        <ele>1933.8</ele>
        <time>2021-01-16T10:25:45Z</time>
      </trkpt>
      <trkpt lat="45.3043" lon="6.04978">
        <ele>1933.8</ele>
        <time>2021-01-16T10:25:46Z</time>
      </trkpt>
      <trkpt lat="45.3043" lon="6.04978">
        <ele>1933.8</ele>
        <time>2021-01-16T10:25:47Z</time>
      </trkpt>
      <trkpt lat="45.3043" lon="6.04978">
        <ele>1933.8</ele>
        <time>2021-01-16T10:25:48Z</time>
      </trkpt>
      <trkpt lat="45.3043" lon="6.04978">
        <ele>1933.8</ele>
        <time>2021-01-16T10:25:49Z</time>
      </trkpt>
      <trkpt lat="45.3043" lon="6.04978">
        <ele>1933.8</ele>
        <time>2021-01-16T10:25:50Z</time>
      </trkpt>
      <trkpt lat="45.3043" lon="6.04978">
        <ele>1933.8</ele>
        <time>2021-01-16T10:25:51Z</time>
      </trkpt>
      <trkpt lat="45.3043" lon="6.04978">
        <ele>1933.8</ele>
        <time>2021-01-16T10:25:52Z</time>
      </trkpt>
      <trkpt lat="45.3043" lon="6.04978">
        <ele>1933.8</ele>
        <time>2021-01-16T10:25:53Z</time>
      </trkpt>
      <trkpt lat="45.3043" lon="6.04978">
        <ele>1933.8</ele>
        <time>2021-01-16T10:25:54Z</time>
      </trkpt>
      <trkpt lat="45.3043" lon="6.04978">
        <ele>1933.8</ele>
        <time>2021-01-16T10:25:55Z</time>
      </trkpt>
      <trkpt lat="45.3043" lon="6.04978">
        <ele>1933.8</ele>
        <time>2021-01-16T10:25:56Z</time>
      </trkpt>
      <trkpt lat="45.3043" lon="6.04978">
        <ele>1933.8</ele>
        <time>2021-01-16T10:25:57Z</time>
      </trkpt>
      <trkpt lat="45.3043" lon="6.04978">
        <ele>1933.8</ele>
        <time>2021-01-16T10:25:58Z</time>
      </trkpt>
      <trkpt lat="45.3043" lon="6.04978">
        <ele>1933.8</ele>
        <time>2021-01-16T10:25:59Z</time>
      </trkpt>
      <trkpt lat="45.3043" lon="6.04978">
        <ele>1933.8</ele>
        <time>2021-01-16T10:26:00Z</time>
      </trkpt>
      <trkpt lat="45.3043" lon="6.04978">
        <ele>1933.8</ele>
        <time>2021-01-16T10:26:01Z</time>
      </trkpt>
      <trkpt lat="45.3043" lon="6.04978">
        <ele>1933.8</ele>
        <time>2021-01-16T10:26:02Z</time>
      </trkpt>
      <trkpt lat="45.3043" lon="6.04978">
        <ele>1933.8</ele>
        <time>2021-01-16T10:26:03Z</time>
      </trkpt>
      <trkpt lat="45.3043" lon="6.04978">
        <ele>1933.8</ele>
        <time>2021-01-16T10:26:04Z</time>
      </trkpt>
      <trkpt lat="45.3043" lon="6.04978">
        <ele>1933.8</ele>
        <time>2021-01-16T10:26:05Z</time>
      </trkpt>
      <trkpt lat="45.3043" lon="6.04978">
        <ele>1933.6</ele>
        <time>2021-01-16T10:26:06Z</time>
      </trkpt>
      <trkpt lat="45.3043" lon="6.04978">
        <ele>1933.6</ele>
        <time>2021-01-16T10:26:07Z</time>
      </trkpt>
      <trkpt lat="45.3043" lon="6.04978">
        <ele>1933.8</ele>
        <time>2021-01-16T10:26:08Z</time>
      </trkpt>
      <trkpt lat="45.3043" lon="6.04978">
        <ele>1933.8</ele>
        <time>2021-01-16T10:26:09Z</time>
      </trkpt>
      <trkpt lat="45.3043" lon="6.04978">
        <ele>1933.8</ele>
        <time>2021-01-16T10:26:10Z</time>
      </trkpt>
      <trkpt lat="45.3043" lon="6.04978">
        <ele>1933.8</ele>
        <time>2021-01-16T10:26:11Z</time>
      </trkpt>
      <trkpt lat="45.3043" lon="6.04978">
        <ele>1934</ele>
        <time>2021-01-16T10:26:12Z</time>
      </trkpt>
      <trkpt lat="45.3043" lon="6.04978">
        <ele>1934</ele>
        <time>2021-01-16T10:26:13Z</time>
      </trkpt>
      <trkpt lat="45.3043" lon="6.04978">
        <ele>1934</ele>
        <time>2021-01-16T10:26:14Z</time>
      </trkpt>
      <trkpt lat="45.3043" lon="6.04978">
        <ele>1934</ele>
        <time>2021-01-16T10:26:15Z</time>
      </trkpt>
      <trkpt lat="45.3043" lon="6.04978">
        <ele>1934</ele>
        <time>2021-01-16T10:26:16Z</time>
      </trkpt>
      <trkpt lat="45.3043" lon="6.04978">
        <ele>1934</ele>
        <time>2021-01-16T10:26:17Z</time>
      </trkpt>
      <trkpt lat="45.3043" lon="6.04978">
        <ele>1934</ele>
        <time>2021-01-16T10:26:18Z</time>
      </trkpt>
      <trkpt lat="45.3043" lon="6.04978">
        <ele>1934</ele>
        <time>2021-01-16T10:26:19Z</time>
      </trkpt>
      <trkpt lat="45.3043" lon="6.04978">
        <ele>1934</ele>
        <time>2021-01-16T10:26:20Z</time>
      </trkpt>
      <trkpt lat="45.3043" lon="6.04978">
        <ele>1934</ele>
        <time>2021-01-16T10:26:21Z</time>
      </trkpt>
      <trkpt lat="45.3043" lon="6.04978">
        <ele>1934</ele>
        <time>2021-01-16T10:26:22Z</time>
      </trkpt>
      <trkpt lat="45.3043" lon="6.04978">
        <ele>1934</ele>
        <time>2021-01-16T10:26:23Z</time>
      </trkpt>
      <trkpt lat="45.3043" lon="6.04978">
        <ele>1934</ele>
        <time>2021-01-16T10:26:24Z</time>
      </trkpt>
      <trkpt lat="45.3043" lon="6.04978">
        <ele>1934</ele>
        <time>2021-01-16T10:26:25Z</time>
      </trkpt>
      <trkpt lat="45.3043" lon="6.04978">
        <ele>1934</ele>
        <time>2021-01-16T10:26:26Z</time>
      </trkpt>
      <trkpt lat="45.3043" lon="6.04978">
        <ele>1934</ele>
        <time>2021-01-16T10:26:27Z</time>
      </trkpt>
      <trkpt lat="45.3043" lon="6.04978">
        <ele>1934</ele>
        <time>2021-01-16T10:26:28Z</time>
      </trkpt>
      <trkpt lat="45.3043" lon="6.04978">
        <ele>1934</ele>
        <time>2021-01-16T10:26:29Z</time>
      </trkpt>
      <trkpt lat="45.3043" lon="6.04978">
        <ele>1933.8</ele>
        <time>2021-01-16T10:26:30Z</time>
      </trkpt>
      <trkpt lat="45.3043" lon="6.04978">
        <ele>1933.8</ele>
        <time>2021-01-16T10:26:31Z</time>
      </trkpt>
      <trkpt lat="45.3043" lon="6.04978">
        <ele>1933.8</ele>
        <time>2021-01-16T10:26:32Z</time>
      </trkpt>
      <trkpt lat="45.3043" lon="6.04978">
        <ele>1934</ele>
        <time>2021-01-16T10:26:33Z</time>
      </trkpt>
      <trkpt lat="45.3043" lon="6.04978">
        <ele>1934</ele>
        <time>2021-01-16T10:26:34Z</time>
      </trkpt>
      <trkpt lat="45.3043" lon="6.04978">
        <ele>1934</ele>
        <time>2021-01-16T10:26:35Z</time>
      </trkpt>
      <trkpt lat="45.3043" lon="6.04978">
        <ele>1934</ele>
        <time>2021-01-16T10:26:36Z</time>
      </trkpt>
      <trkpt lat="45.3043" lon="6.04978">
        <ele>1934</ele>
        <time>2021-01-16T10:26:37Z</time>
      </trkpt>
      <trkpt lat="45.3043" lon="6.04978">
        <ele>1934.2</ele>
        <time>2021-01-16T10:26:38Z</time>
      </trkpt>
      <trkpt lat="45.3043" lon="6.04978">
        <ele>1934</ele>
        <time>2021-01-16T10:26:39Z</time>
      </trkpt>
      <trkpt lat="45.3043" lon="6.04978">
        <ele>1934</ele>
        <time>2021-01-16T10:26:40Z</time>
      </trkpt>
      <trkpt lat="45.3043" lon="6.04978">
        <ele>1934</ele>
        <time>2021-01-16T10:26:41Z</time>
      </trkpt>
      <trkpt lat="45.3043" lon="6.04978">
        <ele>1934</ele>
        <time>2021-01-16T10:26:42Z</time>
      </trkpt>
      <trkpt lat="45.3043" lon="6.04978">
        <ele>1934</ele>
        <time>2021-01-16T10:26:43Z</time>
      </trkpt>
      <trkpt lat="45.3043" lon="6.04978">
        <ele>1934</ele>
        <time>2021-01-16T10:26:44Z</time>
      </trkpt>
      <trkpt lat="45.3043" lon="6.04978">
        <ele>1934</ele>
        <time>2021-01-16T10:26:45Z</time>
      </trkpt>
      <trkpt lat="45.3043" lon="6.04978">
        <ele>1934</ele>
        <time>2021-01-16T10:26:46Z</time>
      </trkpt>
      <trkpt lat="45.3043" lon="6.04978">
        <ele>1934</ele>
        <time>2021-01-16T10:26:47Z</time>
      </trkpt>
      <trkpt lat="45.3043" lon="6.04978">
        <ele>1934</ele>
        <time>2021-01-16T10:26:48Z</time>
      </trkpt>
      <trkpt lat="45.3043" lon="6.04978">
        <ele>1934</ele>
        <time>2021-01-16T10:26:49Z</time>
      </trkpt>
      <trkpt lat="45.3043" lon="6.04978">
        <ele>1934</ele>
        <time>2021-01-16T10:26:50Z</time>
      </trkpt>
      <trkpt lat="45.3043" lon="6.04978">
        <ele>1933.8</ele>
        <time>2021-01-16T10:26:51Z</time>
      </trkpt>
      <trkpt lat="45.3043" lon="6.04978">
        <ele>1933.8</ele>
        <time>2021-01-16T10:26:52Z</time>
      </trkpt>
      <trkpt lat="45.3043" lon="6.04978">
        <ele>1933.8</ele>
        <time>2021-01-16T10:26:53Z</time>
      </trkpt>
      <trkpt lat="45.3043" lon="6.04978">
        <ele>1933.8</ele>
        <time>2021-01-16T10:26:54Z</time>
      </trkpt>
      <trkpt lat="45.3043" lon="6.04978">
        <ele>1933.8</ele>
        <time>2021-01-16T10:26:55Z</time>
      </trkpt>
      <trkpt lat="45.3043" lon="6.04978">
        <ele>1933.8</ele>
        <time>2021-01-16T10:26:56Z</time>
      </trkpt>
      <trkpt lat="45.3043" lon="6.04978">
        <ele>1933.8</ele>
        <time>2021-01-16T10:26:57Z</time>
      </trkpt>
      <trkpt lat="45.3043" lon="6.04978">
        <ele>1933.8</ele>
        <time>2021-01-16T10:26:58Z</time>
      </trkpt>
      <trkpt lat="45.3043" lon="6.04978">
        <ele>1933.8</ele>
        <time>2021-01-16T10:26:59Z</time>
      </trkpt>
      <trkpt lat="45.3043" lon="6.04978">
        <ele>1933.8</ele>
        <time>2021-01-16T10:27:00Z</time>
      </trkpt>
      <trkpt lat="45.3043" lon="6.04978">
        <ele>1933.8</ele>
        <time>2021-01-16T10:27:01Z</time>
      </trkpt>
      <trkpt lat="45.3043" lon="6.04978">
        <ele>1934</ele>
        <time>2021-01-16T10:27:02Z</time>
      </trkpt>
      <trkpt lat="45.3043" lon="6.04978">
        <ele>1933.8</ele>
        <time>2021-01-16T10:27:03Z</time>
      </trkpt>
      <trkpt lat="45.3043" lon="6.04978">
        <ele>1933.8</ele>
        <time>2021-01-16T10:27:04Z</time>
      </trkpt>
      <trkpt lat="45.3043" lon="6.04978">
        <ele>1933.8</ele>
        <time>2021-01-16T10:27:05Z</time>
      </trkpt>
      <trkpt lat="45.3043" lon="6.04978">
        <ele>1933.8</ele>
        <time>2021-01-16T10:27:06Z</time>
      </trkpt>
      <trkpt lat="45.3043" lon="6.04978">
        <ele>1933.8</ele>
        <time>2021-01-16T10:27:07Z</time>
      </trkpt>
      <trkpt lat="45.3043" lon="6.04978">
        <ele>1933.8</ele>
        <time>2021-01-16T10:27:08Z</time>
      </trkpt>
      <trkpt lat="45.3043" lon="6.04978">
        <ele>1933.8</ele>
        <time>2021-01-16T10:27:09Z</time>
      </trkpt>
      <trkpt lat="45.3043" lon="6.04978">
        <ele>1933.8</ele>
        <time>2021-01-16T10:27:10Z</time>
      </trkpt>
      <trkpt lat="45.3043" lon="6.04978">
        <ele>1933.8</ele>
        <time>2021-01-16T10:27:11Z</time>
      </trkpt>
      <trkpt lat="45.3043" lon="6.04978">
        <ele>1933.8</ele>
        <time>2021-01-16T10:27:12Z</time>
      </trkpt>
      <trkpt lat="45.3043" lon="6.04978">
        <ele>1933.8</ele>
        <time>2021-01-16T10:27:13Z</time>
      </trkpt>
      <trkpt lat="45.3043" lon="6.04978">
        <ele>1933.8</ele>
        <time>2021-01-16T10:27:14Z</time>
      </trkpt>
      <trkpt lat="45.3043" lon="6.04978">
        <ele>1933.8</ele>
        <time>2021-01-16T10:27:15Z</time>
      </trkpt>
      <trkpt lat="45.3043" lon="6.04978">
        <ele>1933.8</ele>
        <time>2021-01-16T10:27:16Z</time>
      </trkpt>
      <trkpt lat="45.3043" lon="6.04978">
        <ele>1933.8</ele>
        <time>2021-01-16T10:27:17Z</time>
      </trkpt>
      <trkpt lat="45.3043" lon="6.04978">
        <ele>1933.8</ele>
        <time>2021-01-16T10:27:18Z</time>
      </trkpt>
      <trkpt lat="45.3043" lon="6.04978">
        <ele>1933.8</ele>
        <time>2021-01-16T10:27:19Z</time>
      </trkpt>
      <trkpt lat="45.3043" lon="6.04978">
        <ele>1933.8</ele>
        <time>2021-01-16T10:27:20Z</time>
      </trkpt>
      <trkpt lat="45.3043" lon="6.04978">
        <ele>1933.8</ele>
        <time>2021-01-16T10:27:21Z</time>
      </trkpt>
      <trkpt lat="45.3043" lon="6.04978">
        <ele>1933.8</ele>
        <time>2021-01-16T10:27:22Z</time>
      </trkpt>
      <trkpt lat="45.3043" lon="6.04978">
        <ele>1934</ele>
        <time>2021-01-16T10:27:23Z</time>
      </trkpt>
      <trkpt lat="45.3043" lon="6.04978">
        <ele>1933.8</ele>
        <time>2021-01-16T10:27:24Z</time>
      </trkpt>
      <trkpt lat="45.3043" lon="6.04978">
        <ele>1933.8</ele>
        <time>2021-01-16T10:27:25Z</time>
      </trkpt>
      <trkpt lat="45.3043" lon="6.04978">
        <ele>1933.8</ele>
        <time>2021-01-16T10:27:26Z</time>
      </trkpt>
      <trkpt lat="45.3043" lon="6.04978">
        <ele>1933.6</ele>
        <time>2021-01-16T10:27:27Z</time>
      </trkpt>
      <trkpt lat="45.3043" lon="6.04978">
        <ele>1933.6</ele>
        <time>2021-01-16T10:27:28Z</time>
      </trkpt>
      <trkpt lat="45.3043" lon="6.04978">
        <ele>1933.8</ele>
        <time>2021-01-16T10:27:29Z</time>
      </trkpt>
      <trkpt lat="45.3043" lon="6.04978">
        <ele>1934</ele>
        <time>2021-01-16T10:27:30Z</time>
      </trkpt>
      <trkpt lat="45.3043" lon="6.04978">
        <ele>1934</ele>
        <time>2021-01-16T10:27:31Z</time>
      </trkpt>
      <trkpt lat="45.3043" lon="6.04978">
        <ele>1934</ele>
        <time>2021-01-16T10:27:32Z</time>
      </trkpt>
      <trkpt lat="45.3043" lon="6.04978">
        <ele>1933.8</ele>
        <time>2021-01-16T10:27:33Z</time>
      </trkpt>
      <trkpt lat="45.3043" lon="6.04978">
        <ele>1933.8</ele>
        <time>2021-01-16T10:27:34Z</time>
      </trkpt>
      <trkpt lat="45.3043" lon="6.04978">
        <ele>1933.6</ele>
        <time>2021-01-16T10:27:35Z</time>
      </trkpt>
      <trkpt lat="45.3043" lon="6.04978">
        <ele>1933.6</ele>
        <time>2021-01-16T10:27:36Z</time>
      </trkpt>
      <trkpt lat="45.3043" lon="6.04978">
        <ele>1933.6</ele>
        <time>2021-01-16T10:27:37Z</time>
      </trkpt>
      <trkpt lat="45.3043" lon="6.04978">
        <ele>1933.6</ele>
        <time>2021-01-16T10:27:38Z</time>
      </trkpt>
      <trkpt lat="45.3043" lon="6.04978">
        <ele>1933.8</ele>
        <time>2021-01-16T10:27:39Z</time>
      </trkpt>
      <trkpt lat="45.3043" lon="6.04978">
        <ele>1933.8</ele>
        <time>2021-01-16T10:27:40Z</time>
      </trkpt>
      <trkpt lat="45.3043" lon="6.04978">
        <ele>1933.8</ele>
        <time>2021-01-16T10:27:41Z</time>
      </trkpt>
      <trkpt lat="45.3043" lon="6.04978">
        <ele>1933.8</ele>
        <time>2021-01-16T10:27:42Z</time>
      </trkpt>
      <trkpt lat="45.3043" lon="6.04978">
        <ele>1933.6</ele>
        <time>2021-01-16T10:27:43Z</time>
      </trkpt>
      <trkpt lat="45.3043" lon="6.04978">
        <ele>1933.6</ele>
        <time>2021-01-16T10:27:44Z</time>
      </trkpt>
      <trkpt lat="45.3043" lon="6.04978">
        <ele>1933.6</ele>
        <time>2021-01-16T10:27:45Z</time>
      </trkpt>
      <trkpt lat="45.3043" lon="6.04978">
        <ele>1933.6</ele>
        <time>2021-01-16T10:27:46Z</time>
      </trkpt>
      <trkpt lat="45.3043" lon="6.04978">
        <ele>1933.6</ele>
        <time>2021-01-16T10:27:47Z</time>
      </trkpt>
      <trkpt lat="45.3043" lon="6.04978">
        <ele>1933.6</ele>
        <time>2021-01-16T10:27:48Z</time>
      </trkpt>
      <trkpt lat="45.3043" lon="6.04978">
        <ele>1933.6</ele>
        <time>2021-01-16T10:27:49Z</time>
      </trkpt>
      <trkpt lat="45.3043" lon="6.04978">
        <ele>1933.6</ele>
        <time>2021-01-16T10:27:50Z</time>
      </trkpt>
      <trkpt lat="45.3043" lon="6.04978">
        <ele>1933.6</ele>
        <time>2021-01-16T10:27:51Z</time>
      </trkpt>
      <trkpt lat="45.3043" lon="6.04978">
        <ele>1933.6</ele>
        <time>2021-01-16T10:27:52Z</time>
      </trkpt>
      <trkpt lat="45.3043" lon="6.04978">
        <ele>1933.6</ele>
        <time>2021-01-16T10:27:53Z</time>
      </trkpt>
      <trkpt lat="45.3043" lon="6.04978">
        <ele>1933.6</ele>
        <time>2021-01-16T10:27:54Z</time>
      </trkpt>
      <trkpt lat="45.3043" lon="6.04978">
        <ele>1933.6</ele>
        <time>2021-01-16T10:27:55Z</time>
      </trkpt>
      <trkpt lat="45.3043" lon="6.04978">
        <ele>1933.6</ele>
        <time>2021-01-16T10:27:56Z</time>
      </trkpt>
      <trkpt lat="45.3043" lon="6.04978">
        <ele>1933.6</ele>
        <time>2021-01-16T10:27:57Z</time>
      </trkpt>
      <trkpt lat="45.3043" lon="6.04978">
        <ele>1933.6</ele>
        <time>2021-01-16T10:27:58Z</time>
      </trkpt>
      <trkpt lat="45.3043" lon="6.04978">
        <ele>1933.6</ele>
        <time>2021-01-16T10:27:59Z</time>
      </trkpt>
      <trkpt lat="45.3043" lon="6.04978">
        <ele>1933.6</ele>
        <time>2021-01-16T10:28:00Z</time>
      </trkpt>
      <trkpt lat="45.3043" lon="6.04978">
        <ele>1933.6</ele>
        <time>2021-01-16T10:28:01Z</time>
      </trkpt>
      <trkpt lat="45.3043" lon="6.04978">
        <ele>1933.6</ele>
        <time>2021-01-16T10:28:02Z</time>
      </trkpt>
      <trkpt lat="45.3043" lon="6.04978">
        <ele>1933.6</ele>
        <time>2021-01-16T10:28:03Z</time>
      </trkpt>
      <trkpt lat="45.3043" lon="6.04978">
        <ele>1933.6</ele>
        <time>2021-01-16T10:28:04Z</time>
      </trkpt>
      <trkpt lat="45.3043" lon="6.04978">
        <ele>1933.6</ele>
        <time>2021-01-16T10:28:05Z</time>
      </trkpt>
      <trkpt lat="45.3043" lon="6.04978">
        <ele>1933.6</ele>
        <time>2021-01-16T10:28:06Z</time>
      </trkpt>
      <trkpt lat="45.3043" lon="6.04978">
        <ele>1933.6</ele>
        <time>2021-01-16T10:28:07Z</time>
      </trkpt>
      <trkpt lat="45.3043" lon="6.04978">
        <ele>1933.6</ele>
        <time>2021-01-16T10:28:08Z</time>
      </trkpt>
      <trkpt lat="45.3043" lon="6.04978">
        <ele>1933.6</ele>
        <time>2021-01-16T10:28:09Z</time>
      </trkpt>
      <trkpt lat="45.3043" lon="6.04978">
        <ele>1933.6</ele>
        <time>2021-01-16T10:28:10Z</time>
      </trkpt>
      <trkpt lat="45.3043" lon="6.04978">
        <ele>1933.6</ele>
        <time>2021-01-16T10:28:11Z</time>
      </trkpt>
      <trkpt lat="45.3043" lon="6.04978">
        <ele>1933.6</ele>
        <time>2021-01-16T10:28:12Z</time>
      </trkpt>
      <trkpt lat="45.3043" lon="6.04978">
        <ele>1933.6</ele>
        <time>2021-01-16T10:28:13Z</time>
      </trkpt>
      <trkpt lat="45.3043" lon="6.04978">
        <ele>1933.6</ele>
        <time>2021-01-16T10:28:14Z</time>
      </trkpt>
      <trkpt lat="45.3043" lon="6.04978">
        <ele>1933.6</ele>
        <time>2021-01-16T10:28:15Z</time>
      </trkpt>
      <trkpt lat="45.3043" lon="6.04978">
        <ele>1933.6</ele>
        <time>2021-01-16T10:28:16Z</time>
      </trkpt>
      <trkpt lat="45.3043" lon="6.04978">
        <ele>1933.6</ele>
        <time>2021-01-16T10:28:17Z</time>
      </trkpt>
      <trkpt lat="45.3043" lon="6.04978">
        <ele>1933.6</ele>
        <time>2021-01-16T10:28:18Z</time>
      </trkpt>
      <trkpt lat="45.3043" lon="6.04978">
        <ele>1933.6</ele>
        <time>2021-01-16T10:28:19Z</time>
      </trkpt>
      <trkpt lat="45.3043" lon="6.04978">
        <ele>1933.6</ele>
        <time>2021-01-16T10:28:20Z</time>
      </trkpt>
      <trkpt lat="45.3043" lon="6.04978">
        <ele>1933.6</ele>
        <time>2021-01-16T10:28:21Z</time>
      </trkpt>
      <trkpt lat="45.3043" lon="6.04978">
        <ele>1933.6</ele>
        <time>2021-01-16T10:28:22Z</time>
      </trkpt>
      <trkpt lat="45.3043" lon="6.04978">
        <ele>1933.6</ele>
        <time>2021-01-16T10:28:23Z</time>
      </trkpt>
      <trkpt lat="45.3043" lon="6.04978">
        <ele>1933.6</ele>
        <time>2021-01-16T10:28:24Z</time>
      </trkpt>
      <trkpt lat="45.3043" lon="6.04978">
        <ele>1933.8</ele>
        <time>2021-01-16T10:28:25Z</time>
      </trkpt>
      <trkpt lat="45.3043" lon="6.04978">
        <ele>1933.8</ele>
        <time>2021-01-16T10:28:26Z</time>
      </trkpt>
      <trkpt lat="45.3043" lon="6.04978">
        <ele>1933.8</ele>
        <time>2021-01-16T10:28:27Z</time>
      </trkpt>
      <trkpt lat="45.3043" lon="6.04978">
        <ele>1933.6</ele>
        <time>2021-01-16T10:28:28Z</time>
      </trkpt>
      <trkpt lat="45.3043" lon="6.04978">
        <ele>1933.6</ele>
        <time>2021-01-16T10:28:29Z</time>
      </trkpt>
      <trkpt lat="45.3043" lon="6.04978">
        <ele>1933.6</ele>
        <time>2021-01-16T10:28:30Z</time>
      </trkpt>
      <trkpt lat="45.3043" lon="6.04978">
        <ele>1933.6</ele>
        <time>2021-01-16T10:28:31Z</time>
      </trkpt>
      <trkpt lat="45.3043" lon="6.04978">
        <ele>1933.8</ele>
        <time>2021-01-16T10:28:32Z</time>
      </trkpt>
      <trkpt lat="45.3043" lon="6.04978">
        <ele>1933.8</ele>
        <time>2021-01-16T10:28:33Z</time>
      </trkpt>
      <trkpt lat="45.3043" lon="6.04978">
        <ele>1933.8</ele>
        <time>2021-01-16T10:28:34Z</time>
      </trkpt>
      <trkpt lat="45.3043" lon="6.04978">
        <ele>1933.6</ele>
        <time>2021-01-16T10:28:35Z</time>
      </trkpt>
      <trkpt lat="45.3043" lon="6.04978">
        <ele>1933.6</ele>
        <time>2021-01-16T10:28:36Z</time>
      </trkpt>
      <trkpt lat="45.3043" lon="6.04978">
        <ele>1933.6</ele>
        <time>2021-01-16T10:28:37Z</time>
      </trkpt>
      <trkpt lat="45.3043" lon="6.04978">
        <ele>1933.6</ele>
        <time>2021-01-16T10:28:38Z</time>
      </trkpt>
      <trkpt lat="45.3043" lon="6.04978">
        <ele>1933.6</ele>
        <time>2021-01-16T10:28:39Z</time>
      </trkpt>
      <trkpt lat="45.3043" lon="6.04978">
        <ele>1933.6</ele>
        <time>2021-01-16T10:28:40Z</time>
      </trkpt>
      <trkpt lat="45.3043" lon="6.04978">
        <ele>1933.6</ele>
        <time>2021-01-16T10:28:41Z</time>
      </trkpt>
      <trkpt lat="45.3043" lon="6.04978">
        <ele>1933.6</ele>
        <time>2021-01-16T10:28:42Z</time>
      </trkpt>
      <trkpt lat="45.3043" lon="6.04978">
        <ele>1933.8</ele>
        <time>2021-01-16T10:28:43Z</time>
      </trkpt>
      <trkpt lat="45.3043" lon="6.04978">
        <ele>1933.8</ele>
        <time>2021-01-16T10:28:44Z</time>
      </trkpt>
      <trkpt lat="45.3043" lon="6.04978">
        <ele>1933.8</ele>
        <time>2021-01-16T10:28:45Z</time>
      </trkpt>
      <trkpt lat="45.3043" lon="6.04978">
        <ele>1933.8</ele>
        <time>2021-01-16T10:28:46Z</time>
      </trkpt>
      <trkpt lat="45.3043" lon="6.04978">
        <ele>1933.8</ele>
        <time>2021-01-16T10:28:47Z</time>
      </trkpt>
      <trkpt lat="45.3043" lon="6.04978">
        <ele>1933.8</ele>
        <time>2021-01-16T10:28:48Z</time>
      </trkpt>
      <trkpt lat="45.3043" lon="6.04978">
        <ele>1933.8</ele>
        <time>2021-01-16T10:28:49Z</time>
      </trkpt>
      <trkpt lat="45.3043" lon="6.04978">
        <ele>1933.8</ele>
        <time>2021-01-16T10:28:50Z</time>
      </trkpt>
      <trkpt lat="45.3043" lon="6.04978">
        <ele>1933.8</ele>
        <time>2021-01-16T10:28:51Z</time>
      </trkpt>
      <trkpt lat="45.3043" lon="6.04978">
        <ele>1934</ele>
        <time>2021-01-16T10:28:52Z</time>
      </trkpt>
      <trkpt lat="45.3043" lon="6.04978">
        <ele>1933.8</ele>
        <time>2021-01-16T10:28:53Z</time>
      </trkpt>
      <trkpt lat="45.3043" lon="6.04978">
        <ele>1933.8</ele>
        <time>2021-01-16T10:28:54Z</time>
      </trkpt>
      <trkpt lat="45.3043" lon="6.04978">
        <ele>1933.8</ele>
        <time>2021-01-16T10:28:55Z</time>
      </trkpt>
      <trkpt lat="45.3043" lon="6.04978">
        <ele>1933.8</ele>
        <time>2021-01-16T10:28:56Z</time>
      </trkpt>
      <trkpt lat="45.3043" lon="6.04978">
        <ele>1933.8</ele>
        <time>2021-01-16T10:28:57Z</time>
      </trkpt>
      <trkpt lat="45.3043" lon="6.04978">
        <ele>1933.8</ele>
        <time>2021-01-16T10:28:58Z</time>
      </trkpt>
      <trkpt lat="45.3043" lon="6.04978">
        <ele>1933.8</ele>
        <time>2021-01-16T10:28:59Z</time>
      </trkpt>
      <trkpt lat="45.3043" lon="6.04978">
        <ele>1933.8</ele>
        <time>2021-01-16T10:29:00Z</time>
      </trkpt>
      <trkpt lat="45.3043" lon="6.04978">
        <ele>1933.8</ele>
        <time>2021-01-16T10:29:01Z</time>
      </trkpt>
      <trkpt lat="45.3043" lon="6.04978">
        <ele>1934</ele>
        <time>2021-01-16T10:29:02Z</time>
      </trkpt>
      <trkpt lat="45.3043" lon="6.04978">
        <ele>1934</ele>
        <time>2021-01-16T10:29:03Z</time>
      </trkpt>
      <trkpt lat="45.3043" lon="6.04978">
        <ele>1934</ele>
        <time>2021-01-16T10:29:04Z</time>
      </trkpt>
      <trkpt lat="45.3043" lon="6.04978">
        <ele>1934</ele>
        <time>2021-01-16T10:29:05Z</time>
      </trkpt>
      <trkpt lat="45.3043" lon="6.04978">
        <ele>1933.8</ele>
        <time>2021-01-16T10:29:06Z</time>
      </trkpt>
      <trkpt lat="45.3043" lon="6.04978">
        <ele>1933.8</ele>
        <time>2021-01-16T10:29:07Z</time>
      </trkpt>
      <trkpt lat="45.3043" lon="6.04978">
        <ele>1933.8</ele>
        <time>2021-01-16T10:29:08Z</time>
      </trkpt>
      <trkpt lat="45.3043" lon="6.04978">
        <ele>1933.8</ele>
        <time>2021-01-16T10:29:09Z</time>
      </trkpt>
      <trkpt lat="45.3043" lon="6.04978">
        <ele>1933.8</ele>
        <time>2021-01-16T10:29:10Z</time>
      </trkpt>
      <trkpt lat="45.3043" lon="6.04978">
        <ele>1933.8</ele>
        <time>2021-01-16T10:29:11Z</time>
      </trkpt>
      <trkpt lat="45.3043" lon="6.04978">
        <ele>1933.8</ele>
        <time>2021-01-16T10:29:12Z</time>
      </trkpt>
      <trkpt lat="45.3043" lon="6.04978">
        <ele>1933.8</ele>
        <time>2021-01-16T10:29:13Z</time>
      </trkpt>
      <trkpt lat="45.3043" lon="6.04978">
        <ele>1933.8</ele>
        <time>2021-01-16T10:29:14Z</time>
      </trkpt>
      <trkpt lat="45.3043" lon="6.04978">
        <ele>1933.8</ele>
        <time>2021-01-16T10:29:15Z</time>
      </trkpt>
      <trkpt lat="45.3043" lon="6.04978">
        <ele>1933.8</ele>
        <time>2021-01-16T10:29:16Z</time>
      </trkpt>
      <trkpt lat="45.3043" lon="6.04978">
        <ele>1933.8</ele>
        <time>2021-01-16T10:29:17Z</time>
      </trkpt>
      <trkpt lat="45.3043" lon="6.04978">
        <ele>1933.8</ele>
        <time>2021-01-16T10:29:18Z</time>
      </trkpt>
      <trkpt lat="45.3043" lon="6.04978">
        <ele>1933.8</ele>
        <time>2021-01-16T10:29:19Z</time>
      </trkpt>
      <trkpt lat="45.3043" lon="6.04978">
        <ele>1933.8</ele>
        <time>2021-01-16T10:29:20Z</time>
      </trkpt>
      <trkpt lat="45.3043" lon="6.04978">
        <ele>1933.8</ele>
        <time>2021-01-16T10:29:21Z</time>
      </trkpt>
      <trkpt lat="45.3043" lon="6.04978">
        <ele>1933.8</ele>
        <time>2021-01-16T10:29:22Z</time>
      </trkpt>
      <trkpt lat="45.3043" lon="6.04978">
        <ele>1933.8</ele>
        <time>2021-01-16T10:29:23Z</time>
      </trkpt>
      <trkpt lat="45.3043" lon="6.04978">
        <ele>1933.8</ele>
        <time>2021-01-16T10:29:24Z</time>
      </trkpt>
      <trkpt lat="45.3043" lon="6.04978">
        <ele>1933.8</ele>
        <time>2021-01-16T10:29:25Z</time>
      </trkpt>
      <trkpt lat="45.3043" lon="6.04978">
        <ele>1933.8</ele>
        <time>2021-01-16T10:29:26Z</time>
      </trkpt>
      <trkpt lat="45.3043" lon="6.04978">
        <ele>1933.6</ele>
        <time>2021-01-16T10:29:27Z</time>
      </trkpt>
      <trkpt lat="45.3043" lon="6.04978">
        <ele>1933.6</ele>
        <time>2021-01-16T10:29:28Z</time>
      </trkpt>
      <trkpt lat="45.3043" lon="6.04978">
        <ele>1933.6</ele>
        <time>2021-01-16T10:29:29Z</time>
      </trkpt>
      <trkpt lat="45.3043" lon="6.04978">
        <ele>1933.6</ele>
        <time>2021-01-16T10:29:30Z</time>
      </trkpt>
      <trkpt lat="45.3043" lon="6.04978">
        <ele>1933.6</ele>
        <time>2021-01-16T10:29:31Z</time>
      </trkpt>
      <trkpt lat="45.3043" lon="6.04978">
        <ele>1933.6</ele>
        <time>2021-01-16T10:29:32Z</time>
      </trkpt>
      <trkpt lat="45.3043" lon="6.04978">
        <ele>1933.6</ele>
        <time>2021-01-16T10:29:33Z</time>
      </trkpt>
      <trkpt lat="45.3043" lon="6.04978">
        <ele>1933.6</ele>
        <time>2021-01-16T10:29:34Z</time>
      </trkpt>
      <trkpt lat="45.3043" lon="6.04978">
        <ele>1933.6</ele>
        <time>2021-01-16T10:29:35Z</time>
      </trkpt>
      <trkpt lat="45.3043" lon="6.04978">
        <ele>1933.6</ele>
        <time>2021-01-16T10:29:36Z</time>
      </trkpt>
      <trkpt lat="45.3043" lon="6.04978">
        <ele>1933.6</ele>
        <time>2021-01-16T10:29:37Z</time>
      </trkpt>
      <trkpt lat="45.3043" lon="6.04978">
        <ele>1933.6</ele>
        <time>2021-01-16T10:29:38Z</time>
      </trkpt>
      <trkpt lat="45.3043" lon="6.04978">
        <ele>1933.6</ele>
        <time>2021-01-16T10:29:39Z</time>
      </trkpt>
      <trkpt lat="45.3043" lon="6.04978">
        <ele>1933.6</ele>
        <time>2021-01-16T10:29:40Z</time>
      </trkpt>
      <trkpt lat="45.3043" lon="6.04978">
        <ele>1933.6</ele>
        <time>2021-01-16T10:29:41Z</time>
      </trkpt>
      <trkpt lat="45.3043" lon="6.04978">
        <ele>1933.6</ele>
        <time>2021-01-16T10:29:42Z</time>
      </trkpt>
      <trkpt lat="45.3043" lon="6.04978">
        <ele>1933.6</ele>
        <time>2021-01-16T10:29:43Z</time>
      </trkpt>
      <trkpt lat="45.3043" lon="6.04978">
        <ele>1933.6</ele>
        <time>2021-01-16T10:29:44Z</time>
      </trkpt>
      <trkpt lat="45.3043" lon="6.04978">
        <ele>1933.6</ele>
        <time>2021-01-16T10:29:45Z</time>
      </trkpt>
      <trkpt lat="45.3043" lon="6.04978">
        <ele>1933.6</ele>
        <time>2021-01-16T10:29:46Z</time>
      </trkpt>
      <trkpt lat="45.3043" lon="6.04978">
        <ele>1933.6</ele>
        <time>2021-01-16T10:29:47Z</time>
      </trkpt>
      <trkpt lat="45.3043" lon="6.04978">
        <ele>1933.6</ele>
        <time>2021-01-16T10:29:48Z</time>
      </trkpt>
      <trkpt lat="45.3043" lon="6.04978">
        <ele>1933.6</ele>
        <time>2021-01-16T10:29:49Z</time>
      </trkpt>
      <trkpt lat="45.3043" lon="6.04978">
        <ele>1933.6</ele>
        <time>2021-01-16T10:29:50Z</time>
      </trkpt>
      <trkpt lat="45.3043" lon="6.04978">
        <ele>1933.6</ele>
        <time>2021-01-16T10:29:51Z</time>
      </trkpt>
      <trkpt lat="45.3043" lon="6.04978">
        <ele>1933.6</ele>
        <time>2021-01-16T10:29:52Z</time>
      </trkpt>
      <trkpt lat="45.3043" lon="6.04978">
        <ele>1933.6</ele>
        <time>2021-01-16T10:29:53Z</time>
      </trkpt>
      <trkpt lat="45.3043" lon="6.04978">
        <ele>1933.6</ele>
        <time>2021-01-16T10:29:54Z</time>
      </trkpt>
      <trkpt lat="45.3043" lon="6.04978">
        <ele>1933.6</ele>
        <time>2021-01-16T10:29:55Z</time>
      </trkpt>
      <trkpt lat="45.3043" lon="6.04978">
        <ele>1933.6</ele>
        <time>2021-01-16T10:29:56Z</time>
      </trkpt>
      <trkpt lat="45.3043" lon="6.04978">
        <ele>1933.6</ele>
        <time>2021-01-16T10:29:57Z</time>
      </trkpt>
      <trkpt lat="45.3043" lon="6.04978">
        <ele>1933.6</ele>
        <time>2021-01-16T10:29:58Z</time>
      </trkpt>
      <trkpt lat="45.3043" lon="6.04978">
        <ele>1933.6</ele>
        <time>2021-01-16T10:29:59Z</time>
      </trkpt>
      <trkpt lat="45.3043" lon="6.04978">
        <ele>1933.4</ele>
        <time>2021-01-16T10:30:00Z</time>
      </trkpt>
      <trkpt lat="45.3043" lon="6.04978">
        <ele>1933.6</ele>
        <time>2021-01-16T10:30:01Z</time>
      </trkpt>
      <trkpt lat="45.3043" lon="6.04978">
        <ele>1933.6</ele>
        <time>2021-01-16T10:30:02Z</time>
      </trkpt>
      <trkpt lat="45.3043" lon="6.04978">
        <ele>1933.6</ele>
        <time>2021-01-16T10:30:03Z</time>
      </trkpt>
      <trkpt lat="45.3043" lon="6.04978">
        <ele>1933.6</ele>
        <time>2021-01-16T10:30:04Z</time>
      </trkpt>
      <trkpt lat="45.3043" lon="6.04978">
        <ele>1933.6</ele>
        <time>2021-01-16T10:30:05Z</time>
      </trkpt>
      <trkpt lat="45.3043" lon="6.04978">
        <ele>1933.6</ele>
        <time>2021-01-16T10:30:06Z</time>
      </trkpt>
      <trkpt lat="45.3043" lon="6.04978">
        <ele>1933.6</ele>
        <time>2021-01-16T10:30:07Z</time>
      </trkpt>
      <trkpt lat="45.3043" lon="6.04978">
        <ele>1933.4</ele>
        <time>2021-01-16T10:30:08Z</time>
      </trkpt>
      <trkpt lat="45.3043" lon="6.04978">
        <ele>1933.4</ele>
        <time>2021-01-16T10:30:09Z</time>
      </trkpt>
      <trkpt lat="45.3043" lon="6.04978">
        <ele>1933.4</ele>
        <time>2021-01-16T10:30:10Z</time>
      </trkpt>
      <trkpt lat="45.3043" lon="6.04978">
        <ele>1933.4</ele>
        <time>2021-01-16T10:30:11Z</time>
      </trkpt>
      <trkpt lat="45.3043" lon="6.04978">
        <ele>1933.6</ele>
        <time>2021-01-16T10:30:12Z</time>
      </trkpt>
      <trkpt lat="45.3043" lon="6.04978">
        <ele>1933.6</ele>
        <time>2021-01-16T10:30:13Z</time>
      </trkpt>
      <trkpt lat="45.3043" lon="6.04978">
        <ele>1933.4</ele>
        <time>2021-01-16T10:30:14Z</time>
      </trkpt>
      <trkpt lat="45.3043" lon="6.04978">
        <ele>1933.4</ele>
        <time>2021-01-16T10:30:15Z</time>
      </trkpt>
      <trkpt lat="45.3043" lon="6.04978">
        <ele>1933.4</ele>
        <time>2021-01-16T10:30:16Z</time>
      </trkpt>
      <trkpt lat="45.3043" lon="6.04978">
        <ele>1933.6</ele>
        <time>2021-01-16T10:30:17Z</time>
      </trkpt>
      <trkpt lat="45.3043" lon="6.04978">
        <ele>1933.4</ele>
        <time>2021-01-16T10:30:18Z</time>
      </trkpt>
      <trkpt lat="45.3043" lon="6.04978">
        <ele>1933.4</ele>
        <time>2021-01-16T10:30:19Z</time>
      </trkpt>
      <trkpt lat="45.3043" lon="6.04978">
        <ele>1933.4</ele>
        <time>2021-01-16T10:30:20Z</time>
      </trkpt>
      <trkpt lat="45.3043" lon="6.04978">
        <ele>1933.4</ele>
        <time>2021-01-16T10:30:21Z</time>
      </trkpt>
      <trkpt lat="45.3043" lon="6.04978">
        <ele>1933.4</ele>
        <time>2021-01-16T10:30:22Z</time>
      </trkpt>
      <trkpt lat="45.3043" lon="6.04978">
        <ele>1933.4</ele>
        <time>2021-01-16T10:30:23Z</time>
      </trkpt>
      <trkpt lat="45.3043" lon="6.04978">
        <ele>1933.4</ele>
        <time>2021-01-16T10:30:24Z</time>
      </trkpt>
      <trkpt lat="45.3043" lon="6.04978">
        <ele>1933.4</ele>
        <time>2021-01-16T10:30:25Z</time>
      </trkpt>
      <trkpt lat="45.3043" lon="6.04978">
        <ele>1933.4</ele>
        <time>2021-01-16T10:30:26Z</time>
      </trkpt>
      <trkpt lat="45.3043" lon="6.04978">
        <ele>1933.4</ele>
        <time>2021-01-16T10:30:27Z</time>
      </trkpt>
      <trkpt lat="45.3043" lon="6.04978">
        <ele>1933.4</ele>
        <time>2021-01-16T10:30:28Z</time>
      </trkpt>
      <trkpt lat="45.3043" lon="6.04978">
        <ele>1933.4</ele>
        <time>2021-01-16T10:30:29Z</time>
      </trkpt>
      <trkpt lat="45.3043" lon="6.04978">
        <ele>1933.4</ele>
        <time>2021-01-16T10:30:30Z</time>
      </trkpt>
      <trkpt lat="45.3043" lon="6.04978">
        <ele>1933.4</ele>
        <time>2021-01-16T10:30:31Z</time>
      </trkpt>
      <trkpt lat="45.3043" lon="6.04978">
        <ele>1933.4</ele>
        <time>2021-01-16T10:30:32Z</time>
      </trkpt>
      <trkpt lat="45.3043" lon="6.04978">
        <ele>1933.4</ele>
        <time>2021-01-16T10:30:33Z</time>
      </trkpt>
      <trkpt lat="45.3043" lon="6.04978">
        <ele>1933.4</ele>
        <time>2021-01-16T10:30:34Z</time>
      </trkpt>
      <trkpt lat="45.3043" lon="6.04978">
        <ele>1933.4</ele>
        <time>2021-01-16T10:30:35Z</time>
      </trkpt>
      <trkpt lat="45.3043" lon="6.04978">
        <ele>1933.4</ele>
        <time>2021-01-16T10:30:36Z</time>
      </trkpt>
      <trkpt lat="45.3043" lon="6.04978">
        <ele>1933.4</ele>
        <time>2021-01-16T10:30:37Z</time>
      </trkpt>
      <trkpt lat="45.3043" lon="6.04978">
        <ele>1933.4</ele>
        <time>2021-01-16T10:30:38Z</time>
      </trkpt>
      <trkpt lat="45.3043" lon="6.04978">
        <ele>1933.4</ele>
        <time>2021-01-16T10:30:39Z</time>
      </trkpt>
      <trkpt lat="45.3043" lon="6.04978">
        <ele>1933.4</ele>
        <time>2021-01-16T10:30:40Z</time>
      </trkpt>
      <trkpt lat="45.3043" lon="6.04978">
        <ele>1933.4</ele>
        <time>2021-01-16T10:30:41Z</time>
      </trkpt>
      <trkpt lat="45.3043" lon="6.04978">
        <ele>1933.4</ele>
        <time>2021-01-16T10:30:42Z</time>
      </trkpt>
      <trkpt lat="45.3043" lon="6.04978">
        <ele>1933.2</ele>
        <time>2021-01-16T10:30:43Z</time>
      </trkpt>
      <trkpt lat="45.3043" lon="6.04978">
        <ele>1933.2</ele>
        <time>2021-01-16T10:30:44Z</time>
      </trkpt>
      <trkpt lat="45.3043" lon="6.04978">
        <ele>1933.2</ele>
        <time>2021-01-16T10:30:45Z</time>
      </trkpt>
      <trkpt lat="45.3043" lon="6.04978">
        <ele>1933.2</ele>
        <time>2021-01-16T10:30:46Z</time>
      </trkpt>
      <trkpt lat="45.3043" lon="6.04978">
        <ele>1933.2</ele>
        <time>2021-01-16T10:30:47Z</time>
      </trkpt>
      <trkpt lat="45.3043" lon="6.04978">
        <ele>1933.2</ele>
        <time>2021-01-16T10:30:48Z</time>
      </trkpt>
      <trkpt lat="45.3043" lon="6.04978">
        <ele>1933.2</ele>
        <time>2021-01-16T10:30:49Z</time>
      </trkpt>
      <trkpt lat="45.3043" lon="6.04978">
        <ele>1933.2</ele>
        <time>2021-01-16T10:30:50Z</time>
      </trkpt>
      <trkpt lat="45.3043" lon="6.04978">
        <ele>1933.2</ele>
        <time>2021-01-16T10:30:51Z</time>
      </trkpt>
      <trkpt lat="45.3043" lon="6.04978">
        <ele>1933.2</ele>
        <time>2021-01-16T10:30:52Z</time>
      </trkpt>
      <trkpt lat="45.3043" lon="6.04978">
        <ele>1933.2</ele>
        <time>2021-01-16T10:30:53Z</time>
      </trkpt>
      <trkpt lat="45.3043" lon="6.04978">
        <ele>1933.4</ele>
        <time>2021-01-16T10:30:54Z</time>
      </trkpt>
      <trkpt lat="45.3043" lon="6.04978">
        <ele>1933.4</ele>
        <time>2021-01-16T10:30:55Z</time>
      </trkpt>
      <trkpt lat="45.3043" lon="6.04978">
        <ele>1933.4</ele>
        <time>2021-01-16T10:30:56Z</time>
      </trkpt>
      <trkpt lat="45.3043" lon="6.04978">
        <ele>1933.4</ele>
        <time>2021-01-16T10:30:57Z</time>
      </trkpt>
      <trkpt lat="45.3043" lon="6.04978">
        <ele>1933.4</ele>
        <time>2021-01-16T10:30:58Z</time>
      </trkpt>
      <trkpt lat="45.3043" lon="6.04978">
        <ele>1933.2</ele>
        <time>2021-01-16T10:30:59Z</time>
      </trkpt>
      <trkpt lat="45.3043" lon="6.04978">
        <ele>1933.2</ele>
        <time>2021-01-16T10:31:00Z</time>
      </trkpt>
      <trkpt lat="45.3043" lon="6.04978">
        <ele>1933.2</ele>
        <time>2021-01-16T10:31:01Z</time>
      </trkpt>
      <trkpt lat="45.3043" lon="6.04978">
        <ele>1933.2</ele>
        <time>2021-01-16T10:31:02Z</time>
      </trkpt>
      <trkpt lat="45.3043" lon="6.04978">
        <ele>1933.2</ele>
        <time>2021-01-16T10:31:03Z</time>
      </trkpt>
      <trkpt lat="45.3043" lon="6.04978">
        <ele>1933.2</ele>
        <time>2021-01-16T10:31:04Z</time>
      </trkpt>
      <trkpt lat="45.3043" lon="6.04978">
        <ele>1933.2</ele>
        <time>2021-01-16T10:31:05Z</time>
      </trkpt>
      <trkpt lat="45.3043" lon="6.04978">
        <ele>1933.4</ele>
        <time>2021-01-16T10:31:06Z</time>
      </trkpt>
      <trkpt lat="45.3043" lon="6.04978">
        <ele>1933.4</ele>
        <time>2021-01-16T10:31:07Z</time>
      </trkpt>
      <trkpt lat="45.3043" lon="6.04978">
        <ele>1933.2</ele>
        <time>2021-01-16T10:31:08Z</time>
      </trkpt>
      <trkpt lat="45.3043" lon="6.04978">
        <ele>1933.2</ele>
        <time>2021-01-16T10:31:09Z</time>
      </trkpt>
      <trkpt lat="45.3043" lon="6.04978">
        <ele>1933.2</ele>
        <time>2021-01-16T10:31:10Z</time>
      </trkpt>
      <trkpt lat="45.3043" lon="6.04978">
        <ele>1933.2</ele>
        <time>2021-01-16T10:31:11Z</time>
      </trkpt>
      <trkpt lat="45.3043" lon="6.04978">
        <ele>1933.2</ele>
        <time>2021-01-16T10:31:12Z</time>
      </trkpt>
      <trkpt lat="45.3043" lon="6.04978">
        <ele>1933.2</ele>
        <time>2021-01-16T10:31:13Z</time>
      </trkpt>
      <trkpt lat="45.3043" lon="6.04978">
        <ele>1933.2</ele>
        <time>2021-01-16T10:31:14Z</time>
      </trkpt>
      <trkpt lat="45.3043" lon="6.04978">
        <ele>1933.2</ele>
        <time>2021-01-16T10:31:15Z</time>
      </trkpt>
      <trkpt lat="45.3043" lon="6.04978">
        <ele>1933.2</ele>
        <time>2021-01-16T10:31:16Z</time>
      </trkpt>
      <trkpt lat="45.3043" lon="6.04978">
        <ele>1933.2</ele>
        <time>2021-01-16T10:31:17Z</time>
      </trkpt>
      <trkpt lat="45.3043" lon="6.04978">
        <ele>1933.2</ele>
        <time>2021-01-16T10:31:18Z</time>
      </trkpt>
      <trkpt lat="45.3043" lon="6.04978">
        <ele>1933.2</ele>
        <time>2021-01-16T10:31:19Z</time>
      </trkpt>
      <trkpt lat="45.3043" lon="6.04978">
        <ele>1933.2</ele>
        <time>2021-01-16T10:31:20Z</time>
      </trkpt>
      <trkpt lat="45.3043" lon="6.04978">
        <ele>1933.2</ele>
        <time>2021-01-16T10:31:21Z</time>
      </trkpt>
      <trkpt lat="45.3043" lon="6.04978">
        <ele>1933.2</ele>
        <time>2021-01-16T10:31:22Z</time>
      </trkpt>
      <trkpt lat="45.3043" lon="6.04978">
        <ele>1933.2</ele>
        <time>2021-01-16T10:31:23Z</time>
      </trkpt>
      <trkpt lat="45.3043" lon="6.04977">
        <ele>1933.2</ele>
        <time>2021-01-16T10:31:24Z</time>
      </trkpt>
      <trkpt lat="45.30431" lon="6.04977">
        <ele>1933.2</ele>
        <time>2021-01-16T10:31:25Z</time>
      </trkpt>
      <trkpt lat="45.30431" lon="6.04977">
        <ele>1933.2</ele>
        <time>2021-01-16T10:31:26Z</time>
      </trkpt>
      <trkpt lat="45.30432" lon="6.04977">
        <ele>1933.2</ele>
        <time>2021-01-16T10:31:27Z</time>
      </trkpt>
      <trkpt lat="45.30433" lon="6.04977">
        <ele>1933.2</ele>
        <time>2021-01-16T10:31:28Z</time>
      </trkpt>
      <trkpt lat="45.30434" lon="6.04977">
        <ele>1933.2</ele>
        <time>2021-01-16T10:31:29Z</time>
      </trkpt>
      <trkpt lat="45.30435" lon="6.04978">
        <ele>1933.2</ele>
        <time>2021-01-16T10:31:30Z</time>
      </trkpt>
      <trkpt lat="45.30436" lon="6.04978">
        <ele>1933.2</ele>
        <time>2021-01-16T10:31:31Z</time>
      </trkpt>
      <trkpt lat="45.30437" lon="6.04978">
        <ele>1933.2</ele>
        <time>2021-01-16T10:31:32Z</time>
      </trkpt>
      <trkpt lat="45.30438" lon="6.04978">
        <ele>1933</ele>
        <time>2021-01-16T10:31:33Z</time>
      </trkpt>
      <trkpt lat="45.30439" lon="6.04978">
        <ele>1933</ele>
        <time>2021-01-16T10:31:34Z</time>
      </trkpt>
      <trkpt lat="45.30441" lon="6.04978">
        <ele>1932.8</ele>
        <time>2021-01-16T10:31:35Z</time>
      </trkpt>
      <trkpt lat="45.30443" lon="6.04977">
        <ele>1932.6</ele>
        <time>2021-01-16T10:31:36Z</time>
      </trkpt>
      <trkpt lat="45.30446" lon="6.04977">
        <ele>1932.2</ele>
        <time>2021-01-16T10:31:37Z</time>
      </trkpt>
      <trkpt lat="45.30449" lon="6.04976">
        <ele>1932</ele>
        <time>2021-01-16T10:31:38Z</time>
      </trkpt>
      <trkpt lat="45.30451" lon="6.04975">
        <ele>1931.6</ele>
        <time>2021-01-16T10:31:39Z</time>
      </trkpt>
      <trkpt lat="45.30453" lon="6.04974">
        <ele>1931.4</ele>
        <time>2021-01-16T10:31:40Z</time>
      </trkpt>
      <trkpt lat="45.30454" lon="6.04972">
        <ele>1931</ele>
        <time>2021-01-16T10:31:41Z</time>
      </trkpt>
      <trkpt lat="45.30456" lon="6.04971">
        <ele>1930.8</ele>
        <time>2021-01-16T10:31:42Z</time>
      </trkpt>
      <trkpt lat="45.30457" lon="6.04969">
        <ele>1930.4</ele>
        <time>2021-01-16T10:31:43Z</time>
      </trkpt>
      <trkpt lat="45.30459" lon="6.04968">
        <ele>1930.2</ele>
        <time>2021-01-16T10:31:44Z</time>
      </trkpt>
      <trkpt lat="45.3046" lon="6.04967">
        <ele>1930</ele>
        <time>2021-01-16T10:31:45Z</time>
      </trkpt>
      <trkpt lat="45.30462" lon="6.04966">
        <ele>1929.8</ele>
        <time>2021-01-16T10:31:46Z</time>
      </trkpt>
      <trkpt lat="45.30464" lon="6.04965">
        <ele>1929.6</ele>
        <time>2021-01-16T10:31:47Z</time>
      </trkpt>
      <trkpt lat="45.30467" lon="6.04964">
        <ele>1929.2</ele>
        <time>2021-01-16T10:31:48Z</time>
      </trkpt>
      <trkpt lat="45.30471" lon="6.04962">
        <ele>1928.8</ele>
        <time>2021-01-16T10:31:49Z</time>
      </trkpt>
      <trkpt lat="45.30475" lon="6.0496">
        <ele>1928</ele>
        <time>2021-01-16T10:31:50Z</time>
      </trkpt>
      <trkpt lat="45.3048" lon="6.04961">
        <ele>1927.4</ele>
        <time>2021-01-16T10:31:51Z</time>
      </trkpt>
      <trkpt lat="45.30484" lon="6.04962">
        <ele>1926.6</ele>
        <time>2021-01-16T10:31:52Z</time>
      </trkpt>
      <trkpt lat="45.30489" lon="6.04962">
        <ele>1925.6</ele>
        <time>2021-01-16T10:31:53Z</time>
      </trkpt>
      <trkpt lat="45.30493" lon="6.04959">
        <ele>1924.4</ele>
        <time>2021-01-16T10:31:54Z</time>
      </trkpt>
      <trkpt lat="45.30497" lon="6.04955">
        <ele>1923</ele>
        <time>2021-01-16T10:31:55Z</time>
      </trkpt>
      <trkpt lat="45.30501" lon="6.04952">
        <ele>1921.6</ele>
        <time>2021-01-16T10:31:56Z</time>
      </trkpt>
      <trkpt lat="45.30506" lon="6.04951">
        <ele>1920.2</ele>
        <time>2021-01-16T10:31:57Z</time>
      </trkpt>
      <trkpt lat="45.30511" lon="6.04952">
        <ele>1918.8</ele>
        <time>2021-01-16T10:31:58Z</time>
      </trkpt>
      <trkpt lat="45.30515" lon="6.04954">
        <ele>1917.4</ele>
        <time>2021-01-16T10:31:59Z</time>
      </trkpt>
      <trkpt lat="45.30516" lon="6.04956">
        <ele>1916.4</ele>
        <time>2021-01-16T10:32:00Z</time>
      </trkpt>
      <trkpt lat="45.30517" lon="6.04957">
        <ele>1915.6</ele>
        <time>2021-01-16T10:32:01Z</time>
      </trkpt>
      <trkpt lat="45.30517" lon="6.04957">
        <ele>1915</ele>
        <time>2021-01-16T10:32:02Z</time>
      </trkpt>
      <trkpt lat="45.30517" lon="6.04957">
        <ele>1914.6</ele>
        <time>2021-01-16T10:32:03Z</time>
      </trkpt>
      <trkpt lat="45.30517" lon="6.04957">
        <ele>1914.2</ele>
        <time>2021-01-16T10:32:04Z</time>
      </trkpt>
      <trkpt lat="45.30517" lon="6.04957">
        <ele>1914</ele>
        <time>2021-01-16T10:32:05Z</time>
      </trkpt>
      <trkpt lat="45.30517" lon="6.04957">
        <ele>1913.8</ele>
        <time>2021-01-16T10:32:06Z</time>
      </trkpt>
      <trkpt lat="45.30517" lon="6.04957">
        <ele>1913.6</ele>
        <time>2021-01-16T10:32:07Z</time>
      </trkpt>
      <trkpt lat="45.30517" lon="6.04957">
        <ele>1913.4</ele>
        <time>2021-01-16T10:32:08Z</time>
      </trkpt>
      <trkpt lat="45.30517" lon="6.04957">
        <ele>1913.4</ele>
        <time>2021-01-16T10:32:09Z</time>
      </trkpt>
      <trkpt lat="45.30517" lon="6.04957">
        <ele>1913.4</ele>
        <time>2021-01-16T10:32:10Z</time>
      </trkpt>
      <trkpt lat="45.30517" lon="6.04957">
        <ele>1913.2</ele>
        <time>2021-01-16T10:32:11Z</time>
      </trkpt>
      <trkpt lat="45.30517" lon="6.04957">
        <ele>1913.2</ele>
        <time>2021-01-16T10:32:12Z</time>
      </trkpt>
      <trkpt lat="45.30517" lon="6.04957">
        <ele>1913.2</ele>
        <time>2021-01-16T10:32:13Z</time>
      </trkpt>
      <trkpt lat="45.30517" lon="6.04957">
        <ele>1913.2</ele>
        <time>2021-01-16T10:32:14Z</time>
      </trkpt>
      <trkpt lat="45.30517" lon="6.04957">
        <ele>1913</ele>
        <time>2021-01-16T10:32:15Z</time>
      </trkpt>
      <trkpt lat="45.30517" lon="6.04957">
        <ele>1913.2</ele>
        <time>2021-01-16T10:32:16Z</time>
      </trkpt>
      <trkpt lat="45.30517" lon="6.04957">
        <ele>1913.2</ele>
        <time>2021-01-16T10:32:17Z</time>
      </trkpt>
      <trkpt lat="45.30517" lon="6.04957">
        <ele>1913</ele>
        <time>2021-01-16T10:32:18Z</time>
      </trkpt>
      <trkpt lat="45.30517" lon="6.04957">
        <ele>1913</ele>
        <time>2021-01-16T10:32:19Z</time>
      </trkpt>
      <trkpt lat="45.30517" lon="6.04957">
        <ele>1913</ele>
        <time>2021-01-16T10:32:20Z</time>
      </trkpt>
      <trkpt lat="45.30517" lon="6.04957">
        <ele>1913</ele>
        <time>2021-01-16T10:32:21Z</time>
      </trkpt>
      <trkpt lat="45.30517" lon="6.04957">
        <ele>1913</ele>
        <time>2021-01-16T10:32:22Z</time>
      </trkpt>
      <trkpt lat="45.30517" lon="6.04957">
        <ele>1912.8</ele>
        <time>2021-01-16T10:32:23Z</time>
      </trkpt>
      <trkpt lat="45.30517" lon="6.04957">
        <ele>1912.8</ele>
        <time>2021-01-16T10:32:24Z</time>
      </trkpt>
      <trkpt lat="45.30517" lon="6.04957">
        <ele>1912.8</ele>
        <time>2021-01-16T10:32:25Z</time>
      </trkpt>
      <trkpt lat="45.30517" lon="6.04957">
        <ele>1912.8</ele>
        <time>2021-01-16T10:32:26Z</time>
      </trkpt>
      <trkpt lat="45.30517" lon="6.04957">
        <ele>1912.8</ele>
        <time>2021-01-16T10:32:27Z</time>
      </trkpt>
      <trkpt lat="45.30517" lon="6.04957">
        <ele>1912.8</ele>
        <time>2021-01-16T10:32:28Z</time>
      </trkpt>
      <trkpt lat="45.30517" lon="6.04957">
        <ele>1912.8</ele>
        <time>2021-01-16T10:32:29Z</time>
      </trkpt>
      <trkpt lat="45.30517" lon="6.04957">
        <ele>1912.8</ele>
        <time>2021-01-16T10:32:30Z</time>
      </trkpt>
      <trkpt lat="45.30517" lon="6.04957">
        <ele>1912.8</ele>
        <time>2021-01-16T10:32:31Z</time>
      </trkpt>
      <trkpt lat="45.30517" lon="6.04957">
        <ele>1912.8</ele>
        <time>2021-01-16T10:32:32Z</time>
      </trkpt>
      <trkpt lat="45.30517" lon="6.04957">
        <ele>1912.6</ele>
        <time>2021-01-16T10:32:33Z</time>
      </trkpt>
      <trkpt lat="45.30517" lon="6.04957">
        <ele>1912.8</ele>
        <time>2021-01-16T10:32:34Z</time>
      </trkpt>
      <trkpt lat="45.30517" lon="6.04957">
        <ele>1912.8</ele>
        <time>2021-01-16T10:32:35Z</time>
      </trkpt>
      <trkpt lat="45.30517" lon="6.04957">
        <ele>1912.8</ele>
        <time>2021-01-16T10:32:36Z</time>
      </trkpt>
      <trkpt lat="45.30517" lon="6.04957">
        <ele>1912.8</ele>
        <time>2021-01-16T10:32:37Z</time>
      </trkpt>
      <trkpt lat="45.30517" lon="6.04957">
        <ele>1912.8</ele>
        <time>2021-01-16T10:32:38Z</time>
      </trkpt>
      <trkpt lat="45.30517" lon="6.04957">
        <ele>1912.8</ele>
        <time>2021-01-16T10:32:39Z</time>
      </trkpt>
      <trkpt lat="45.30517" lon="6.04957">
        <ele>1912.8</ele>
        <time>2021-01-16T10:32:40Z</time>
      </trkpt>
      <trkpt lat="45.30517" lon="6.04957">
        <ele>1912.8</ele>
        <time>2021-01-16T10:32:41Z</time>
      </trkpt>
      <trkpt lat="45.30517" lon="6.04957">
        <ele>1912.8</ele>
        <time>2021-01-16T10:32:42Z</time>
      </trkpt>
      <trkpt lat="45.30517" lon="6.04957">
        <ele>1912.8</ele>
        <time>2021-01-16T10:32:43Z</time>
      </trkpt>
      <trkpt lat="45.30517" lon="6.04957">
        <ele>1912.8</ele>
        <time>2021-01-16T10:32:44Z</time>
      </trkpt>
      <trkpt lat="45.30517" lon="6.04957">
        <ele>1912.8</ele>
        <time>2021-01-16T10:32:45Z</time>
      </trkpt>
      <trkpt lat="45.30517" lon="6.04957">
        <ele>1912.8</ele>
        <time>2021-01-16T10:32:46Z</time>
      </trkpt>
      <trkpt lat="45.30517" lon="6.04957">
        <ele>1912.8</ele>
        <time>2021-01-16T10:32:47Z</time>
      </trkpt>
      <trkpt lat="45.30517" lon="6.04957">
        <ele>1912.8</ele>
        <time>2021-01-16T10:32:48Z</time>
      </trkpt>
      <trkpt lat="45.30517" lon="6.04957">
        <ele>1912.8</ele>
        <time>2021-01-16T10:32:49Z</time>
      </trkpt>
      <trkpt lat="45.30517" lon="6.04957">
        <ele>1912.6</ele>
        <time>2021-01-16T10:32:50Z</time>
      </trkpt>
      <trkpt lat="45.30517" lon="6.04957">
        <ele>1912.6</ele>
        <time>2021-01-16T10:32:51Z</time>
      </trkpt>
      <trkpt lat="45.30517" lon="6.04957">
        <ele>1912.6</ele>
        <time>2021-01-16T10:32:52Z</time>
      </trkpt>
      <trkpt lat="45.30517" lon="6.04957">
        <ele>1912.6</ele>
        <time>2021-01-16T10:32:53Z</time>
      </trkpt>
      <trkpt lat="45.30517" lon="6.04957">
        <ele>1912.6</ele>
        <time>2021-01-16T10:32:54Z</time>
      </trkpt>
      <trkpt lat="45.30517" lon="6.04957">
        <ele>1912.6</ele>
        <time>2021-01-16T10:32:55Z</time>
      </trkpt>
      <trkpt lat="45.30517" lon="6.04957">
        <ele>1912.6</ele>
        <time>2021-01-16T10:32:56Z</time>
      </trkpt>
      <trkpt lat="45.30518" lon="6.04957">
        <ele>1912.6</ele>
        <time>2021-01-16T10:32:57Z</time>
      </trkpt>
      <trkpt lat="45.30519" lon="6.04958">
        <ele>1912.6</ele>
        <time>2021-01-16T10:32:58Z</time>
      </trkpt>
      <trkpt lat="45.30521" lon="6.04958">
        <ele>1912.4</ele>
        <time>2021-01-16T10:32:59Z</time>
      </trkpt>
      <trkpt lat="45.30524" lon="6.04958">
        <ele>1912.2</ele>
        <time>2021-01-16T10:33:00Z</time>
      </trkpt>
      <trkpt lat="45.30527" lon="6.04958">
        <ele>1911.8</ele>
        <time>2021-01-16T10:33:01Z</time>
      </trkpt>
      <trkpt lat="45.30531" lon="6.04956">
        <ele>1910.8</ele>
        <time>2021-01-16T10:33:02Z</time>
      </trkpt>
      <trkpt lat="45.30533" lon="6.04951">
        <ele>1909.8</ele>
        <time>2021-01-16T10:33:03Z</time>
      </trkpt>
      <trkpt lat="45.30536" lon="6.04947">
        <ele>1908.8</ele>
        <time>2021-01-16T10:33:04Z</time>
      </trkpt>
      <trkpt lat="45.30539" lon="6.04944">
        <ele>1907.6</ele>
        <time>2021-01-16T10:33:05Z</time>
      </trkpt>
      <trkpt lat="45.30543" lon="6.0494">
        <ele>1906.2</ele>
        <time>2021-01-16T10:33:06Z</time>
      </trkpt>
      <trkpt lat="45.30545" lon="6.04934">
        <ele>1904.6</ele>
        <time>2021-01-16T10:33:07Z</time>
      </trkpt>
      <trkpt lat="45.30549" lon="6.04929">
        <ele>1902.8</ele>
        <time>2021-01-16T10:33:08Z</time>
      </trkpt>
      <trkpt lat="45.30552" lon="6.04922">
        <ele>1900.6</ele>
        <time>2021-01-16T10:33:09Z</time>
      </trkpt>
      <trkpt lat="45.30555" lon="6.04916">
        <ele>1898.6</ele>
        <time>2021-01-16T10:33:10Z</time>
      </trkpt>
      <trkpt lat="45.30559" lon="6.04909">
        <ele>1896.6</ele>
        <time>2021-01-16T10:33:11Z</time>
      </trkpt>
      <trkpt lat="45.30562" lon="6.04902">
        <ele>1894.4</ele>
        <time>2021-01-16T10:33:12Z</time>
      </trkpt>
      <trkpt lat="45.30566" lon="6.04897">
        <ele>1892.2</ele>
        <time>2021-01-16T10:33:13Z</time>
      </trkpt>
      <trkpt lat="45.3057" lon="6.04893">
        <ele>1890.2</ele>
        <time>2021-01-16T10:33:14Z</time>
      </trkpt>
      <trkpt lat="45.30573" lon="6.04888">
        <ele>1888</ele>
        <time>2021-01-16T10:33:15Z</time>
      </trkpt>
      <trkpt lat="45.30577" lon="6.04885">
        <ele>1885.8</ele>
        <time>2021-01-16T10:33:16Z</time>
      </trkpt>
      <trkpt lat="45.30583" lon="6.04885">
        <ele>1883.8</ele>
        <time>2021-01-16T10:33:17Z</time>
      </trkpt>
      <trkpt lat="45.30588" lon="6.04885">
        <ele>1881.6</ele>
        <time>2021-01-16T10:33:18Z</time>
      </trkpt>
      <trkpt lat="45.3059" lon="6.04883">
        <ele>1879.6</ele>
        <time>2021-01-16T10:33:19Z</time>
      </trkpt>
      <trkpt lat="45.3059" lon="6.0488">
        <ele>1877.6</ele>
        <time>2021-01-16T10:33:20Z</time>
      </trkpt>
      <trkpt lat="45.30589" lon="6.04879">
        <ele>1876</ele>
        <time>2021-01-16T10:33:21Z</time>
      </trkpt>
      <trkpt lat="45.30588" lon="6.04879">
        <ele>1874.8</ele>
        <time>2021-01-16T10:33:22Z</time>
      </trkpt>
      <trkpt lat="45.30588" lon="6.04879">
        <ele>1873.8</ele>
        <time>2021-01-16T10:33:23Z</time>
      </trkpt>
      <trkpt lat="45.30588" lon="6.04879">
        <ele>1873.2</ele>
        <time>2021-01-16T10:33:24Z</time>
      </trkpt>
      <trkpt lat="45.30588" lon="6.04879">
        <ele>1872.6</ele>
        <time>2021-01-16T10:33:25Z</time>
      </trkpt>
      <trkpt lat="45.30588" lon="6.04879">
        <ele>1872.2</ele>
        <time>2021-01-16T10:33:26Z</time>
      </trkpt>
      <trkpt lat="45.30588" lon="6.04879">
        <ele>1871.8</ele>
        <time>2021-01-16T10:33:27Z</time>
      </trkpt>
      <trkpt lat="45.30588" lon="6.04879">
        <ele>1871.6</ele>
        <time>2021-01-16T10:33:28Z</time>
      </trkpt>
      <trkpt lat="45.30588" lon="6.04879">
        <ele>1871.4</ele>
        <time>2021-01-16T10:33:29Z</time>
      </trkpt>
      <trkpt lat="45.30588" lon="6.04879">
        <ele>1871.4</ele>
        <time>2021-01-16T10:33:30Z</time>
      </trkpt>
      <trkpt lat="45.30588" lon="6.04879">
        <ele>1871.2</ele>
        <time>2021-01-16T10:33:31Z</time>
      </trkpt>
      <trkpt lat="45.30588" lon="6.04879">
        <ele>1871.2</ele>
        <time>2021-01-16T10:33:32Z</time>
      </trkpt>
      <trkpt lat="45.30588" lon="6.04879">
        <ele>1871</ele>
        <time>2021-01-16T10:33:33Z</time>
      </trkpt>
      <trkpt lat="45.30588" lon="6.04879">
        <ele>1871</ele>
        <time>2021-01-16T10:33:34Z</time>
      </trkpt>
      <trkpt lat="45.30588" lon="6.04879">
        <ele>1871</ele>
        <time>2021-01-16T10:33:35Z</time>
      </trkpt>
      <trkpt lat="45.30588" lon="6.04879">
        <ele>1870.8</ele>
        <time>2021-01-16T10:33:36Z</time>
      </trkpt>
      <trkpt lat="45.30588" lon="6.04879">
        <ele>1870.8</ele>
        <time>2021-01-16T10:33:37Z</time>
      </trkpt>
      <trkpt lat="45.30588" lon="6.04879">
        <ele>1870.8</ele>
        <time>2021-01-16T10:33:38Z</time>
      </trkpt>
      <trkpt lat="45.30588" lon="6.04879">
        <ele>1870.8</ele>
        <time>2021-01-16T10:33:39Z</time>
      </trkpt>
      <trkpt lat="45.30588" lon="6.04879">
        <ele>1870.8</ele>
        <time>2021-01-16T10:33:40Z</time>
      </trkpt>
      <trkpt lat="45.30588" lon="6.04879">
        <ele>1870.8</ele>
        <time>2021-01-16T10:33:41Z</time>
      </trkpt>
      <trkpt lat="45.30588" lon="6.04879">
        <ele>1870.8</ele>
        <time>2021-01-16T10:33:42Z</time>
      </trkpt>
      <trkpt lat="45.30588" lon="6.04879">
        <ele>1870.8</ele>
        <time>2021-01-16T10:33:43Z</time>
      </trkpt>
      <trkpt lat="45.30588" lon="6.04879">
        <ele>1870.8</ele>
        <time>2021-01-16T10:33:44Z</time>
      </trkpt>
      <trkpt lat="45.30588" lon="6.04879">
        <ele>1870.8</ele>
        <time>2021-01-16T10:33:45Z</time>
      </trkpt>
      <trkpt lat="45.30588" lon="6.04879">
        <ele>1870.8</ele>
        <time>2021-01-16T10:33:46Z</time>
      </trkpt>
      <trkpt lat="45.30588" lon="6.04879">
        <ele>1870.8</ele>
        <time>2021-01-16T10:33:47Z</time>
      </trkpt>
      <trkpt lat="45.30588" lon="6.04879">
        <ele>1870.8</ele>
        <time>2021-01-16T10:33:48Z</time>
      </trkpt>
      <trkpt lat="45.30588" lon="6.04879">
        <ele>1870.6</ele>
        <time>2021-01-16T10:33:49Z</time>
      </trkpt>
      <trkpt lat="45.30588" lon="6.04879">
        <ele>1870.6</ele>
        <time>2021-01-16T10:33:50Z</time>
      </trkpt>
      <trkpt lat="45.30588" lon="6.04879">
        <ele>1870.4</ele>
        <time>2021-01-16T10:33:51Z</time>
      </trkpt>
      <trkpt lat="45.3059" lon="6.04875">
        <ele>1870</ele>
        <time>2021-01-16T10:33:52Z</time>
      </trkpt>
      <trkpt lat="45.30591" lon="6.04871">
        <ele>1869.4</ele>
        <time>2021-01-16T10:33:53Z</time>
      </trkpt>
      <trkpt lat="45.30594" lon="6.04868">
        <ele>1868.6</ele>
        <time>2021-01-16T10:33:54Z</time>
      </trkpt>
      <trkpt lat="45.30598" lon="6.04865">
        <ele>1867.4</ele>
        <time>2021-01-16T10:33:55Z</time>
      </trkpt>
      <trkpt lat="45.30601" lon="6.0486">
        <ele>1865.6</ele>
        <time>2021-01-16T10:33:56Z</time>
      </trkpt>
      <trkpt lat="45.30603" lon="6.04854">
        <ele>1863.6</ele>
        <time>2021-01-16T10:33:57Z</time>
      </trkpt>
      <trkpt lat="45.30606" lon="6.0485">
        <ele>1861.8</ele>
        <time>2021-01-16T10:33:58Z</time>
      </trkpt>
      <trkpt lat="45.30611" lon="6.04851">
        <ele>1859.8</ele>
        <time>2021-01-16T10:33:59Z</time>
      </trkpt>
      <trkpt lat="45.30615" lon="6.04855">
        <ele>1857.8</ele>
        <time>2021-01-16T10:34:00Z</time>
      </trkpt>
      <trkpt lat="45.30618" lon="6.04858">
        <ele>1856.2</ele>
        <time>2021-01-16T10:34:01Z</time>
      </trkpt>
      <trkpt lat="45.30621" lon="6.04857">
        <ele>1854</ele>
        <time>2021-01-16T10:34:02Z</time>
      </trkpt>
      <trkpt lat="45.30622" lon="6.0485">
        <ele>1851.6</ele>
        <time>2021-01-16T10:34:03Z</time>
      </trkpt>
      <trkpt lat="45.30624" lon="6.04844">
        <ele>1849.8</ele>
        <time>2021-01-16T10:34:04Z</time>
      </trkpt>
      <trkpt lat="45.30627" lon="6.04843">
        <ele>1847.6</ele>
        <time>2021-01-16T10:34:05Z</time>
      </trkpt>
      <trkpt lat="45.30631" lon="6.04846">
        <ele>1845.6</ele>
        <time>2021-01-16T10:34:06Z</time>
      </trkpt>
      <trkpt lat="45.30636" lon="6.04851">
        <ele>1843.8</ele>
        <time>2021-01-16T10:34:07Z</time>
      </trkpt>
      <trkpt lat="45.30641" lon="6.04856">
        <ele>1842</ele>
        <time>2021-01-16T10:34:08Z</time>
      </trkpt>
      <trkpt lat="45.30646" lon="6.04862">
        <ele>1840</ele>
        <time>2021-01-16T10:34:09Z</time>
      </trkpt>
      <trkpt lat="45.30651" lon="6.04867">
        <ele>1838.2</ele>
        <time>2021-01-16T10:34:10Z</time>
      </trkpt>
      <trkpt lat="45.30656" lon="6.04869">
        <ele>1836.6</ele>
        <time>2021-01-16T10:34:11Z</time>
      </trkpt>
      <trkpt lat="45.30659" lon="6.04864">
        <ele>1834.6</ele>
        <time>2021-01-16T10:34:12Z</time>
      </trkpt>
      <trkpt lat="45.30662" lon="6.04856">
        <ele>1832.4</ele>
        <time>2021-01-16T10:34:13Z</time>
      </trkpt>
      <trkpt lat="45.30666" lon="6.04851">
        <ele>1830.2</ele>
        <time>2021-01-16T10:34:14Z</time>
      </trkpt>
      <trkpt lat="45.30671" lon="6.04844">
        <ele>1828</ele>
        <time>2021-01-16T10:34:15Z</time>
      </trkpt>
      <trkpt lat="45.30675" lon="6.04838">
        <ele>1825.8</ele>
        <time>2021-01-16T10:34:16Z</time>
      </trkpt>
      <trkpt lat="45.30679" lon="6.04832">
        <ele>1823.6</ele>
        <time>2021-01-16T10:34:17Z</time>
      </trkpt>
      <trkpt lat="45.30683" lon="6.04826">
        <ele>1821.4</ele>
        <time>2021-01-16T10:34:18Z</time>
      </trkpt>
      <trkpt lat="45.30686" lon="6.0482">
        <ele>1819.2</ele>
        <time>2021-01-16T10:34:19Z</time>
      </trkpt>
      <trkpt lat="45.3069" lon="6.04815">
        <ele>1817.2</ele>
        <time>2021-01-16T10:34:20Z</time>
      </trkpt>
      <trkpt lat="45.30693" lon="6.0481">
        <ele>1815.4</ele>
        <time>2021-01-16T10:34:21Z</time>
      </trkpt>
      <trkpt lat="45.30697" lon="6.04807">
        <ele>1813.8</ele>
        <time>2021-01-16T10:34:22Z</time>
      </trkpt>
      <trkpt lat="45.307" lon="6.04804">
        <ele>1812.4</ele>
        <time>2021-01-16T10:34:23Z</time>
      </trkpt>
      <trkpt lat="45.30704" lon="6.04801">
        <ele>1811</ele>
        <time>2021-01-16T10:34:24Z</time>
      </trkpt>
      <trkpt lat="45.30707" lon="6.04796">
        <ele>1810</ele>
        <time>2021-01-16T10:34:25Z</time>
      </trkpt>
      <trkpt lat="45.30708" lon="6.04791">
        <ele>1809</ele>
        <time>2021-01-16T10:34:26Z</time>
      </trkpt>
      <trkpt lat="45.30707" lon="6.04788">
        <ele>1808.2</ele>
        <time>2021-01-16T10:34:27Z</time>
      </trkpt>
      <trkpt lat="45.30707" lon="6.04788">
        <ele>1807.4</ele>
        <time>2021-01-16T10:34:28Z</time>
      </trkpt>
      <trkpt lat="45.30707" lon="6.04788">
        <ele>1806.8</ele>
        <time>2021-01-16T10:34:29Z</time>
      </trkpt>
      <trkpt lat="45.30707" lon="6.04788">
        <ele>1806.2</ele>
        <time>2021-01-16T10:34:30Z</time>
      </trkpt>
      <trkpt lat="45.30707" lon="6.04788">
        <ele>1806</ele>
        <time>2021-01-16T10:34:31Z</time>
      </trkpt>
      <trkpt lat="45.30707" lon="6.04788">
        <ele>1805.8</ele>
        <time>2021-01-16T10:34:32Z</time>
      </trkpt>
      <trkpt lat="45.30707" lon="6.04788">
        <ele>1805.6</ele>
        <time>2021-01-16T10:34:33Z</time>
      </trkpt>
      <trkpt lat="45.30707" lon="6.04788">
        <ele>1805.4</ele>
        <time>2021-01-16T10:34:34Z</time>
      </trkpt>
      <trkpt lat="45.30707" lon="6.04788">
        <ele>1805.2</ele>
        <time>2021-01-16T10:34:35Z</time>
      </trkpt>
      <trkpt lat="45.30707" lon="6.04788">
        <ele>1805.2</ele>
        <time>2021-01-16T10:34:36Z</time>
      </trkpt>
      <trkpt lat="45.30707" lon="6.04788">
        <ele>1805</ele>
        <time>2021-01-16T10:34:37Z</time>
      </trkpt>
      <trkpt lat="45.30707" lon="6.04788">
        <ele>1805</ele>
        <time>2021-01-16T10:34:38Z</time>
      </trkpt>
      <trkpt lat="45.30707" lon="6.04788">
        <ele>1805</ele>
        <time>2021-01-16T10:34:39Z</time>
      </trkpt>
      <trkpt lat="45.30707" lon="6.04788">
        <ele>1805</ele>
        <time>2021-01-16T10:34:40Z</time>
      </trkpt>
      <trkpt lat="45.30707" lon="6.04788">
        <ele>1805</ele>
        <time>2021-01-16T10:34:41Z</time>
      </trkpt>
      <trkpt lat="45.30707" lon="6.04788">
        <ele>1805</ele>
        <time>2021-01-16T10:34:42Z</time>
      </trkpt>
      <trkpt lat="45.30707" lon="6.04788">
        <ele>1805</ele>
        <time>2021-01-16T10:34:43Z</time>
      </trkpt>
      <trkpt lat="45.30707" lon="6.04788">
        <ele>1804.8</ele>
        <time>2021-01-16T10:34:44Z</time>
      </trkpt>
      <trkpt lat="45.30707" lon="6.04788">
        <ele>1805</ele>
        <time>2021-01-16T10:34:45Z</time>
      </trkpt>
      <trkpt lat="45.30707" lon="6.04788">
        <ele>1805</ele>
        <time>2021-01-16T10:34:46Z</time>
      </trkpt>
      <trkpt lat="45.30707" lon="6.04788">
        <ele>1805</ele>
        <time>2021-01-16T10:34:47Z</time>
      </trkpt>
      <trkpt lat="45.30707" lon="6.04788">
        <ele>1805</ele>
        <time>2021-01-16T10:34:48Z</time>
      </trkpt>
      <trkpt lat="45.30707" lon="6.04788">
        <ele>1804.8</ele>
        <time>2021-01-16T10:34:49Z</time>
      </trkpt>
      <trkpt lat="45.30707" lon="6.04788">
        <ele>1805</ele>
        <time>2021-01-16T10:34:50Z</time>
      </trkpt>
      <trkpt lat="45.30707" lon="6.04788">
        <ele>1805</ele>
        <time>2021-01-16T10:34:51Z</time>
      </trkpt>
      <trkpt lat="45.30707" lon="6.04788">
        <ele>1805</ele>
        <time>2021-01-16T10:34:52Z</time>
      </trkpt>
      <trkpt lat="45.30707" lon="6.04788">
        <ele>1805</ele>
        <time>2021-01-16T10:34:53Z</time>
      </trkpt>
      <trkpt lat="45.30707" lon="6.04788">
        <ele>1805</ele>
        <time>2021-01-16T10:34:54Z</time>
      </trkpt>
      <trkpt lat="45.30707" lon="6.04788">
        <ele>1805</ele>
        <time>2021-01-16T10:34:55Z</time>
      </trkpt>
      <trkpt lat="45.30707" lon="6.04788">
        <ele>1805</ele>
        <time>2021-01-16T10:34:56Z</time>
      </trkpt>
      <trkpt lat="45.30707" lon="6.04788">
        <ele>1805</ele>
        <time>2021-01-16T10:34:57Z</time>
      </trkpt>
      <trkpt lat="45.30707" lon="6.04788">
        <ele>1805</ele>
        <time>2021-01-16T10:34:58Z</time>
      </trkpt>
      <trkpt lat="45.30707" lon="6.04788">
        <ele>1805</ele>
        <time>2021-01-16T10:34:59Z</time>
      </trkpt>
      <trkpt lat="45.30707" lon="6.04788">
        <ele>1805</ele>
        <time>2021-01-16T10:35:00Z</time>
      </trkpt>
      <trkpt lat="45.30707" lon="6.04788">
        <ele>1805</ele>
        <time>2021-01-16T10:35:01Z</time>
      </trkpt>
      <trkpt lat="45.30707" lon="6.04788">
        <ele>1805</ele>
        <time>2021-01-16T10:35:02Z</time>
      </trkpt>
      <trkpt lat="45.30707" lon="6.04788">
        <ele>1805</ele>
        <time>2021-01-16T10:35:03Z</time>
      </trkpt>
      <trkpt lat="45.30707" lon="6.04788">
        <ele>1805</ele>
        <time>2021-01-16T10:35:04Z</time>
      </trkpt>
      <trkpt lat="45.30707" lon="6.04788">
        <ele>1805</ele>
        <time>2021-01-16T10:35:05Z</time>
      </trkpt>
      <trkpt lat="45.30707" lon="6.04788">
        <ele>1805</ele>
        <time>2021-01-16T10:35:06Z</time>
      </trkpt>
      <trkpt lat="45.30707" lon="6.04788">
        <ele>1805</ele>
        <time>2021-01-16T10:35:07Z</time>
      </trkpt>
      <trkpt lat="45.30707" lon="6.04788">
        <ele>1805</ele>
        <time>2021-01-16T10:35:08Z</time>
      </trkpt>
      <trkpt lat="45.30707" lon="6.04788">
        <ele>1805</ele>
        <time>2021-01-16T10:35:09Z</time>
      </trkpt>
      <trkpt lat="45.30707" lon="6.04788">
        <ele>1805</ele>
        <time>2021-01-16T10:35:10Z</time>
      </trkpt>
      <trkpt lat="45.30707" lon="6.04788">
        <ele>1805</ele>
        <time>2021-01-16T10:35:11Z</time>
      </trkpt>
      <trkpt lat="45.30707" lon="6.04788">
        <ele>1805</ele>
        <time>2021-01-16T10:35:12Z</time>
      </trkpt>
      <trkpt lat="45.30707" lon="6.04788">
        <ele>1805</ele>
        <time>2021-01-16T10:35:13Z</time>
      </trkpt>
      <trkpt lat="45.30707" lon="6.04788">
        <ele>1805</ele>
        <time>2021-01-16T10:35:14Z</time>
      </trkpt>
      <trkpt lat="45.30707" lon="6.04788">
        <ele>1805</ele>
        <time>2021-01-16T10:35:15Z</time>
      </trkpt>
      <trkpt lat="45.30707" lon="6.04788">
        <ele>1805</ele>
        <time>2021-01-16T10:35:16Z</time>
      </trkpt>
      <trkpt lat="45.30707" lon="6.04788">
        <ele>1805</ele>
        <time>2021-01-16T10:35:17Z</time>
      </trkpt>
      <trkpt lat="45.30707" lon="6.04788">
        <ele>1805.2</ele>
        <time>2021-01-16T10:35:18Z</time>
      </trkpt>
      <trkpt lat="45.30707" lon="6.04788">
        <ele>1805.2</ele>
        <time>2021-01-16T10:35:19Z</time>
      </trkpt>
      <trkpt lat="45.30707" lon="6.04788">
        <ele>1805.2</ele>
        <time>2021-01-16T10:35:20Z</time>
      </trkpt>
      <trkpt lat="45.30707" lon="6.04788">
        <ele>1805.2</ele>
        <time>2021-01-16T10:35:21Z</time>
      </trkpt>
      <trkpt lat="45.30707" lon="6.04788">
        <ele>1805.2</ele>
        <time>2021-01-16T10:35:22Z</time>
      </trkpt>
      <trkpt lat="45.30707" lon="6.04788">
        <ele>1805.2</ele>
        <time>2021-01-16T10:35:23Z</time>
      </trkpt>
      <trkpt lat="45.30707" lon="6.04788">
        <ele>1805.2</ele>
        <time>2021-01-16T10:35:24Z</time>
      </trkpt>
      <trkpt lat="45.30707" lon="6.04788">
        <ele>1805.2</ele>
        <time>2021-01-16T10:35:25Z</time>
      </trkpt>
      <trkpt lat="45.30707" lon="6.04788">
        <ele>1805.2</ele>
        <time>2021-01-16T10:35:26Z</time>
      </trkpt>
      <trkpt lat="45.30707" lon="6.04788">
        <ele>1805.2</ele>
        <time>2021-01-16T10:35:27Z</time>
      </trkpt>
      <trkpt lat="45.30707" lon="6.04788">
        <ele>1805.2</ele>
        <time>2021-01-16T10:35:28Z</time>
      </trkpt>
      <trkpt lat="45.30707" lon="6.04788">
        <ele>1805.2</ele>
        <time>2021-01-16T10:35:29Z</time>
      </trkpt>
      <trkpt lat="45.30707" lon="6.04788">
        <ele>1805.2</ele>
        <time>2021-01-16T10:35:30Z</time>
      </trkpt>
      <trkpt lat="45.30707" lon="6.04788">
        <ele>1805.2</ele>
        <time>2021-01-16T10:35:31Z</time>
      </trkpt>
      <trkpt lat="45.30707" lon="6.04788">
        <ele>1805.2</ele>
        <time>2021-01-16T10:35:32Z</time>
      </trkpt>
      <trkpt lat="45.30707" lon="6.04788">
        <ele>1805.2</ele>
        <time>2021-01-16T10:35:33Z</time>
      </trkpt>
      <trkpt lat="45.30707" lon="6.04788">
        <ele>1805.2</ele>
        <time>2021-01-16T10:35:34Z</time>
      </trkpt>
      <trkpt lat="45.30707" lon="6.04788">
        <ele>1805.2</ele>
        <time>2021-01-16T10:35:35Z</time>
      </trkpt>
      <trkpt lat="45.30707" lon="6.04788">
        <ele>1805.2</ele>
        <time>2021-01-16T10:35:36Z</time>
      </trkpt>
      <trkpt lat="45.30707" lon="6.04788">
        <ele>1805.2</ele>
        <time>2021-01-16T10:35:37Z</time>
      </trkpt>
      <trkpt lat="45.30707" lon="6.04788">
        <ele>1805.2</ele>
        <time>2021-01-16T10:35:38Z</time>
      </trkpt>
      <trkpt lat="45.30707" lon="6.04788">
        <ele>1805.4</ele>
        <time>2021-01-16T10:35:39Z</time>
      </trkpt>
      <trkpt lat="45.30707" lon="6.04788">
        <ele>1805.4</ele>
        <time>2021-01-16T10:35:40Z</time>
      </trkpt>
      <trkpt lat="45.30707" lon="6.04788">
        <ele>1805.2</ele>
        <time>2021-01-16T10:35:41Z</time>
      </trkpt>
      <trkpt lat="45.30707" lon="6.04788">
        <ele>1805.2</ele>
        <time>2021-01-16T10:35:42Z</time>
      </trkpt>
      <trkpt lat="45.30707" lon="6.04788">
        <ele>1805.2</ele>
        <time>2021-01-16T10:35:43Z</time>
      </trkpt>
      <trkpt lat="45.30707" lon="6.04788">
        <ele>1805.2</ele>
        <time>2021-01-16T10:35:44Z</time>
      </trkpt>
      <trkpt lat="45.30707" lon="6.04788">
        <ele>1805.2</ele>
        <time>2021-01-16T10:35:45Z</time>
      </trkpt>
      <trkpt lat="45.30707" lon="6.04788">
        <ele>1805.2</ele>
        <time>2021-01-16T10:35:46Z</time>
      </trkpt>
      <trkpt lat="45.30707" lon="6.04788">
        <ele>1805.2</ele>
        <time>2021-01-16T10:35:47Z</time>
      </trkpt>
      <trkpt lat="45.30707" lon="6.04787">
        <ele>1805</ele>
        <time>2021-01-16T10:35:48Z</time>
      </trkpt>
      <trkpt lat="45.30704" lon="6.04784">
        <ele>1804.8</ele>
        <time>2021-01-16T10:35:49Z</time>
      </trkpt>
      <trkpt lat="45.30703" lon="6.04783">
        <ele>1804.8</ele>
        <time>2021-01-16T10:35:50Z</time>
      </trkpt>
      <trkpt lat="45.30703" lon="6.04783">
        <ele>1804.6</ele>
        <time>2021-01-16T10:35:51Z</time>
      </trkpt>
      <trkpt lat="45.30703" lon="6.04783">
        <ele>1804.6</ele>
        <time>2021-01-16T10:35:52Z</time>
      </trkpt>
      <trkpt lat="45.30703" lon="6.04782">
        <ele>1804.6</ele>
        <time>2021-01-16T10:35:53Z</time>
      </trkpt>
      <trkpt lat="45.30703" lon="6.04782">
        <ele>1804.4</ele>
        <time>2021-01-16T10:35:54Z</time>
      </trkpt>
      <trkpt lat="45.30703" lon="6.04782">
        <ele>1804.4</ele>
        <time>2021-01-16T10:35:55Z</time>
      </trkpt>
      <trkpt lat="45.30703" lon="6.04782">
        <ele>1804.4</ele>
        <time>2021-01-16T10:35:56Z</time>
      </trkpt>
      <trkpt lat="45.30703" lon="6.04782">
        <ele>1804.4</ele>
        <time>2021-01-16T10:35:57Z</time>
      </trkpt>
      <trkpt lat="45.30703" lon="6.04782">
        <ele>1804.2</ele>
        <time>2021-01-16T10:35:58Z</time>
      </trkpt>
      <trkpt lat="45.30703" lon="6.04782">
        <ele>1804</ele>
        <time>2021-01-16T10:35:59Z</time>
      </trkpt>
      <trkpt lat="45.30703" lon="6.04782">
        <ele>1804</ele>
        <time>2021-01-16T10:36:00Z</time>
      </trkpt>
      <trkpt lat="45.30703" lon="6.04782">
        <ele>1803.8</ele>
        <time>2021-01-16T10:36:01Z</time>
      </trkpt>
      <trkpt lat="45.30703" lon="6.04782">
        <ele>1803.6</ele>
        <time>2021-01-16T10:36:02Z</time>
      </trkpt>
      <trkpt lat="45.30703" lon="6.04782">
        <ele>1803.8</ele>
        <time>2021-01-16T10:36:03Z</time>
      </trkpt>
      <trkpt lat="45.30703" lon="6.04782">
        <ele>1803.8</ele>
        <time>2021-01-16T10:36:04Z</time>
      </trkpt>
      <trkpt lat="45.30703" lon="6.04781">
        <ele>1803.6</ele>
        <time>2021-01-16T10:36:05Z</time>
      </trkpt>
      <trkpt lat="45.30703" lon="6.04781">
        <ele>1803.6</ele>
        <time>2021-01-16T10:36:06Z</time>
      </trkpt>
      <trkpt lat="45.30703" lon="6.04781">
        <ele>1803.6</ele>
        <time>2021-01-16T10:36:07Z</time>
      </trkpt>
      <trkpt lat="45.30703" lon="6.04781">
        <ele>1803.6</ele>
        <time>2021-01-16T10:36:08Z</time>
      </trkpt>
      <trkpt lat="45.30703" lon="6.04781">
        <ele>1803.6</ele>
        <time>2021-01-16T10:36:09Z</time>
      </trkpt>
      <trkpt lat="45.30703" lon="6.04781">
        <ele>1803.6</ele>
        <time>2021-01-16T10:36:10Z</time>
      </trkpt>
      <trkpt lat="45.30703" lon="6.04781">
        <ele>1803.6</ele>
        <time>2021-01-16T10:36:11Z</time>
      </trkpt>
      <trkpt lat="45.30703" lon="6.04781">
        <ele>1803.6</ele>
        <time>2021-01-16T10:36:12Z</time>
      </trkpt>
      <trkpt lat="45.30703" lon="6.04781">
        <ele>1803.6</ele>
        <time>2021-01-16T10:36:13Z</time>
      </trkpt>
      <trkpt lat="45.30703" lon="6.04781">
        <ele>1803.6</ele>
        <time>2021-01-16T10:36:14Z</time>
      </trkpt>
      <trkpt lat="45.30703" lon="6.04781">
        <ele>1803.6</ele>
        <time>2021-01-16T10:36:15Z</time>
      </trkpt>
      <trkpt lat="45.30703" lon="6.04781">
        <ele>1803.6</ele>
        <time>2021-01-16T10:36:16Z</time>
      </trkpt>
      <trkpt lat="45.30703" lon="6.0478">
        <ele>1803.6</ele>
        <time>2021-01-16T10:36:17Z</time>
      </trkpt>
      <trkpt lat="45.30703" lon="6.0478">
        <ele>1803.6</ele>
        <time>2021-01-16T10:36:18Z</time>
      </trkpt>
      <trkpt lat="45.30702" lon="6.0478">
        <ele>1803.6</ele>
        <time>2021-01-16T10:36:19Z</time>
      </trkpt>
      <trkpt lat="45.30702" lon="6.0478">
        <ele>1803.6</ele>
        <time>2021-01-16T10:36:20Z</time>
      </trkpt>
      <trkpt lat="45.30702" lon="6.0478">
        <ele>1803.6</ele>
        <time>2021-01-16T10:36:21Z</time>
      </trkpt>
      <trkpt lat="45.30702" lon="6.0478">
        <ele>1803.6</ele>
        <time>2021-01-16T10:36:22Z</time>
      </trkpt>
      <trkpt lat="45.30702" lon="6.0478">
        <ele>1803.8</ele>
        <time>2021-01-16T10:36:23Z</time>
      </trkpt>
      <trkpt lat="45.30702" lon="6.0478">
        <ele>1803.8</ele>
        <time>2021-01-16T10:36:24Z</time>
      </trkpt>
      <trkpt lat="45.30702" lon="6.0478">
        <ele>1803.6</ele>
        <time>2021-01-16T10:36:25Z</time>
      </trkpt>
      <trkpt lat="45.30702" lon="6.0478">
        <ele>1803.6</ele>
        <time>2021-01-16T10:36:26Z</time>
      </trkpt>
      <trkpt lat="45.30702" lon="6.0478">
        <ele>1803.6</ele>
        <time>2021-01-16T10:36:27Z</time>
      </trkpt>
      <trkpt lat="45.30702" lon="6.0478">
        <ele>1803.6</ele>
        <time>2021-01-16T10:36:28Z</time>
      </trkpt>
      <trkpt lat="45.30702" lon="6.04779">
        <ele>1803.6</ele>
        <time>2021-01-16T10:36:29Z</time>
      </trkpt>
      <trkpt lat="45.30702" lon="6.04779">
        <ele>1803.6</ele>
        <time>2021-01-16T10:36:30Z</time>
      </trkpt>
      <trkpt lat="45.30702" lon="6.04779">
        <ele>1803.6</ele>
        <time>2021-01-16T10:36:31Z</time>
      </trkpt>
      <trkpt lat="45.30702" lon="6.04779">
        <ele>1803.6</ele>
        <time>2021-01-16T10:36:32Z</time>
      </trkpt>
      <trkpt lat="45.30702" lon="6.04779">
        <ele>1803.6</ele>
        <time>2021-01-16T10:36:33Z</time>
      </trkpt>
      <trkpt lat="45.30702" lon="6.04779">
        <ele>1803.6</ele>
        <time>2021-01-16T10:36:34Z</time>
      </trkpt>
      <trkpt lat="45.30702" lon="6.04779">
        <ele>1803.6</ele>
        <time>2021-01-16T10:36:35Z</time>
      </trkpt>
      <trkpt lat="45.30702" lon="6.04779">
        <ele>1803.6</ele>
        <time>2021-01-16T10:36:36Z</time>
      </trkpt>
      <trkpt lat="45.30702" lon="6.04779">
        <ele>1803.6</ele>
        <time>2021-01-16T10:36:37Z</time>
      </trkpt>
      <trkpt lat="45.30702" lon="6.04779">
        <ele>1803.6</ele>
        <time>2021-01-16T10:36:38Z</time>
      </trkpt>
      <trkpt lat="45.30702" lon="6.04779">
        <ele>1803.6</ele>
        <time>2021-01-16T10:36:39Z</time>
      </trkpt>
      <trkpt lat="45.30702" lon="6.04779">
        <ele>1803.6</ele>
        <time>2021-01-16T10:36:40Z</time>
      </trkpt>
      <trkpt lat="45.30702" lon="6.04778">
        <ele>1803.6</ele>
        <time>2021-01-16T10:36:41Z</time>
      </trkpt>
      <trkpt lat="45.30702" lon="6.04778">
        <ele>1803.6</ele>
        <time>2021-01-16T10:36:42Z</time>
      </trkpt>
      <trkpt lat="45.30702" lon="6.04778">
        <ele>1803.8</ele>
        <time>2021-01-16T10:36:43Z</time>
      </trkpt>
      <trkpt lat="45.30702" lon="6.04778">
        <ele>1803.8</ele>
        <time>2021-01-16T10:36:44Z</time>
      </trkpt>
      <trkpt lat="45.30702" lon="6.04778">
        <ele>1803.8</ele>
        <time>2021-01-16T10:36:45Z</time>
      </trkpt>
      <trkpt lat="45.30702" lon="6.04778">
        <ele>1803.8</ele>
        <time>2021-01-16T10:36:46Z</time>
      </trkpt>
      <trkpt lat="45.30702" lon="6.04778">
        <ele>1803.8</ele>
        <time>2021-01-16T10:36:47Z</time>
      </trkpt>
      <trkpt lat="45.30702" lon="6.04778">
        <ele>1803.8</ele>
        <time>2021-01-16T10:36:48Z</time>
      </trkpt>
      <trkpt lat="45.30702" lon="6.04778">
        <ele>1803.8</ele>
        <time>2021-01-16T10:36:49Z</time>
      </trkpt>
      <trkpt lat="45.30702" lon="6.04778">
        <ele>1803.8</ele>
        <time>2021-01-16T10:36:50Z</time>
      </trkpt>
      <trkpt lat="45.30702" lon="6.04778">
        <ele>1803.8</ele>
        <time>2021-01-16T10:36:51Z</time>
      </trkpt>
      <trkpt lat="45.30702" lon="6.04778">
        <ele>1803.8</ele>
        <time>2021-01-16T10:36:52Z</time>
      </trkpt>
      <trkpt lat="45.30702" lon="6.04778">
        <ele>1803.8</ele>
        <time>2021-01-16T10:36:53Z</time>
      </trkpt>
      <trkpt lat="45.30702" lon="6.04777">
        <ele>1803.8</ele>
        <time>2021-01-16T10:36:54Z</time>
      </trkpt>
      <trkpt lat="45.30702" lon="6.04777">
        <ele>1803.8</ele>
        <time>2021-01-16T10:36:55Z</time>
      </trkpt>
      <trkpt lat="45.30702" lon="6.04777">
        <ele>1803.8</ele>
        <time>2021-01-16T10:36:56Z</time>
      </trkpt>
      <trkpt lat="45.30702" lon="6.04777">
        <ele>1803.8</ele>
        <time>2021-01-16T10:36:57Z</time>
      </trkpt>
      <trkpt lat="45.30702" lon="6.04777">
        <ele>1803.8</ele>
        <time>2021-01-16T10:36:58Z</time>
      </trkpt>
      <trkpt lat="45.30702" lon="6.04777">
        <ele>1803.8</ele>
        <time>2021-01-16T10:36:59Z</time>
      </trkpt>
      <trkpt lat="45.30702" lon="6.04777">
        <ele>1803.8</ele>
        <time>2021-01-16T10:37:00Z</time>
      </trkpt>
      <trkpt lat="45.30702" lon="6.04777">
        <ele>1803.8</ele>
        <time>2021-01-16T10:37:01Z</time>
      </trkpt>
      <trkpt lat="45.30702" lon="6.04777">
        <ele>1803.8</ele>
        <time>2021-01-16T10:37:02Z</time>
      </trkpt>
      <trkpt lat="45.30702" lon="6.04777">
        <ele>1803.8</ele>
        <time>2021-01-16T10:37:03Z</time>
      </trkpt>
      <trkpt lat="45.30702" lon="6.04777">
        <ele>1803.8</ele>
        <time>2021-01-16T10:37:04Z</time>
      </trkpt>
      <trkpt lat="45.30702" lon="6.04777">
        <ele>1803.8</ele>
        <time>2021-01-16T10:37:05Z</time>
      </trkpt>
      <trkpt lat="45.30702" lon="6.04776">
        <ele>1803.8</ele>
        <time>2021-01-16T10:37:06Z</time>
      </trkpt>
      <trkpt lat="45.30702" lon="6.04776">
        <ele>1803.8</ele>
        <time>2021-01-16T10:37:07Z</time>
      </trkpt>
      <trkpt lat="45.30702" lon="6.04776">
        <ele>1803.8</ele>
        <time>2021-01-16T10:37:08Z</time>
      </trkpt>
      <trkpt lat="45.30702" lon="6.04776">
        <ele>1803.8</ele>
        <time>2021-01-16T10:37:09Z</time>
      </trkpt>
      <trkpt lat="45.30702" lon="6.04776">
        <ele>1804</ele>
        <time>2021-01-16T10:37:10Z</time>
      </trkpt>
      <trkpt lat="45.30702" lon="6.04776">
        <ele>1804</ele>
        <time>2021-01-16T10:37:11Z</time>
      </trkpt>
      <trkpt lat="45.30702" lon="6.04776">
        <ele>1804</ele>
        <time>2021-01-16T10:37:12Z</time>
      </trkpt>
      <trkpt lat="45.30702" lon="6.04776">
        <ele>1804</ele>
        <time>2021-01-16T10:37:13Z</time>
      </trkpt>
      <trkpt lat="45.30702" lon="6.04776">
        <ele>1803.8</ele>
        <time>2021-01-16T10:37:14Z</time>
      </trkpt>
      <trkpt lat="45.30702" lon="6.04776">
        <ele>1803.8</ele>
        <time>2021-01-16T10:37:15Z</time>
      </trkpt>
      <trkpt lat="45.30702" lon="6.04776">
        <ele>1804</ele>
        <time>2021-01-16T10:37:16Z</time>
      </trkpt>
      <trkpt lat="45.30702" lon="6.04776">
        <ele>1804</ele>
        <time>2021-01-16T10:37:17Z</time>
      </trkpt>
      <trkpt lat="45.30702" lon="6.04775">
        <ele>1804</ele>
        <time>2021-01-16T10:37:18Z</time>
      </trkpt>
      <trkpt lat="45.30702" lon="6.04775">
        <ele>1804</ele>
        <time>2021-01-16T10:37:19Z</time>
      </trkpt>
      <trkpt lat="45.30702" lon="6.04775">
        <ele>1804</ele>
        <time>2021-01-16T10:37:20Z</time>
      </trkpt>
      <trkpt lat="45.30702" lon="6.04775">
        <ele>1804</ele>
        <time>2021-01-16T10:37:21Z</time>
      </trkpt>
      <trkpt lat="45.30702" lon="6.04775">
        <ele>1804</ele>
        <time>2021-01-16T10:37:22Z</time>
      </trkpt>
      <trkpt lat="45.30702" lon="6.04775">
        <ele>1804</ele>
        <time>2021-01-16T10:37:23Z</time>
      </trkpt>
      <trkpt lat="45.30702" lon="6.04775">
        <ele>1804</ele>
        <time>2021-01-16T10:37:24Z</time>
      </trkpt>
      <trkpt lat="45.30702" lon="6.04775">
        <ele>1804</ele>
        <time>2021-01-16T10:37:25Z</time>
      </trkpt>
      <trkpt lat="45.30702" lon="6.04775">
        <ele>1804</ele>
        <time>2021-01-16T10:37:26Z</time>
      </trkpt>
      <trkpt lat="45.30702" lon="6.04775">
        <ele>1804</ele>
        <time>2021-01-16T10:37:27Z</time>
      </trkpt>
      <trkpt lat="45.30702" lon="6.04775">
        <ele>1804</ele>
        <time>2021-01-16T10:37:28Z</time>
      </trkpt>
      <trkpt lat="45.30702" lon="6.04775">
        <ele>1804</ele>
        <time>2021-01-16T10:37:29Z</time>
      </trkpt>
      <trkpt lat="45.30702" lon="6.04774">
        <ele>1804</ele>
        <time>2021-01-16T10:37:30Z</time>
      </trkpt>
      <trkpt lat="45.30702" lon="6.04774">
        <ele>1804</ele>
        <time>2021-01-16T10:37:31Z</time>
      </trkpt>
      <trkpt lat="45.30702" lon="6.04774">
        <ele>1804</ele>
        <time>2021-01-16T10:37:32Z</time>
      </trkpt>
      <trkpt lat="45.30702" lon="6.04774">
        <ele>1804</ele>
        <time>2021-01-16T10:37:33Z</time>
      </trkpt>
      <trkpt lat="45.30702" lon="6.04774">
        <ele>1804</ele>
        <time>2021-01-16T10:37:34Z</time>
      </trkpt>
      <trkpt lat="45.30702" lon="6.04774">
        <ele>1804</ele>
        <time>2021-01-16T10:37:35Z</time>
      </trkpt>
      <trkpt lat="45.30702" lon="6.04774">
        <ele>1804</ele>
        <time>2021-01-16T10:37:36Z</time>
      </trkpt>
      <trkpt lat="45.30702" lon="6.04774">
        <ele>1804.2</ele>
        <time>2021-01-16T10:37:37Z</time>
      </trkpt>
      <trkpt lat="45.30702" lon="6.04774">
        <ele>1804</ele>
        <time>2021-01-16T10:37:38Z</time>
      </trkpt>
      <trkpt lat="45.30702" lon="6.04774">
        <ele>1804</ele>
        <time>2021-01-16T10:37:39Z</time>
      </trkpt>
      <trkpt lat="45.30702" lon="6.04774">
        <ele>1804</ele>
        <time>2021-01-16T10:37:40Z</time>
      </trkpt>
      <trkpt lat="45.30701" lon="6.04774">
        <ele>1804</ele>
        <time>2021-01-16T10:37:41Z</time>
      </trkpt>
      <trkpt lat="45.30701" lon="6.04773">
        <ele>1804</ele>
        <time>2021-01-16T10:37:42Z</time>
      </trkpt>
      <trkpt lat="45.30701" lon="6.04773">
        <ele>1804</ele>
        <time>2021-01-16T10:37:43Z</time>
      </trkpt>
      <trkpt lat="45.30701" lon="6.04773">
        <ele>1804</ele>
        <time>2021-01-16T10:37:44Z</time>
      </trkpt>
      <trkpt lat="45.30701" lon="6.04773">
        <ele>1803.8</ele>
        <time>2021-01-16T10:37:45Z</time>
      </trkpt>
      <trkpt lat="45.30703" lon="6.04771">
        <ele>1803.4</ele>
        <time>2021-01-16T10:37:46Z</time>
      </trkpt>
      <trkpt lat="45.30705" lon="6.04767">
        <ele>1803.2</ele>
        <time>2021-01-16T10:37:47Z</time>
      </trkpt>
      <trkpt lat="45.30708" lon="6.04763">
        <ele>1802.6</ele>
        <time>2021-01-16T10:37:48Z</time>
      </trkpt>
      <trkpt lat="45.30711" lon="6.04759">
        <ele>1802.2</ele>
        <time>2021-01-16T10:37:49Z</time>
      </trkpt>
      <trkpt lat="45.30714" lon="6.04754">
        <ele>1801</ele>
        <time>2021-01-16T10:37:50Z</time>
      </trkpt>
      <trkpt lat="45.30716" lon="6.04749">
        <ele>1800.2</ele>
        <time>2021-01-16T10:37:51Z</time>
      </trkpt>
      <trkpt lat="45.30718" lon="6.04744">
        <ele>1799</ele>
        <time>2021-01-16T10:37:52Z</time>
      </trkpt>
      <trkpt lat="45.30719" lon="6.0474">
        <ele>1797.6</ele>
        <time>2021-01-16T10:37:53Z</time>
      </trkpt>
      <trkpt lat="45.30721" lon="6.04735">
        <ele>1796.2</ele>
        <time>2021-01-16T10:37:54Z</time>
      </trkpt>
      <trkpt lat="45.30722" lon="6.0473">
        <ele>1794.8</ele>
        <time>2021-01-16T10:37:55Z</time>
      </trkpt>
      <trkpt lat="45.30722" lon="6.04725">
        <ele>1793.4</ele>
        <time>2021-01-16T10:37:56Z</time>
      </trkpt>
      <trkpt lat="45.30721" lon="6.04722">
        <ele>1792.2</ele>
        <time>2021-01-16T10:37:57Z</time>
      </trkpt>
      <trkpt lat="45.3072" lon="6.0472">
        <ele>1791.2</ele>
        <time>2021-01-16T10:37:58Z</time>
      </trkpt>
      <trkpt lat="45.3072" lon="6.04719">
        <ele>1790.6</ele>
        <time>2021-01-16T10:37:59Z</time>
      </trkpt>
      <trkpt lat="45.3072" lon="6.04719">
        <ele>1790</ele>
        <time>2021-01-16T10:38:00Z</time>
      </trkpt>
      <trkpt lat="45.3072" lon="6.04719">
        <ele>1789.4</ele>
        <time>2021-01-16T10:38:01Z</time>
      </trkpt>
      <trkpt lat="45.3072" lon="6.04719">
        <ele>1789.2</ele>
        <time>2021-01-16T10:38:02Z</time>
      </trkpt>
      <trkpt lat="45.3072" lon="6.04719">
        <ele>1789</ele>
        <time>2021-01-16T10:38:03Z</time>
      </trkpt>
      <trkpt lat="45.3072" lon="6.04719">
        <ele>1788.8</ele>
        <time>2021-01-16T10:38:04Z</time>
      </trkpt>
      <trkpt lat="45.3072" lon="6.04719">
        <ele>1788.8</ele>
        <time>2021-01-16T10:38:05Z</time>
      </trkpt>
      <trkpt lat="45.3072" lon="6.04719">
        <ele>1788.6</ele>
        <time>2021-01-16T10:38:06Z</time>
      </trkpt>
      <trkpt lat="45.3072" lon="6.04719">
        <ele>1788.6</ele>
        <time>2021-01-16T10:38:07Z</time>
      </trkpt>
      <trkpt lat="45.3072" lon="6.04719">
        <ele>1788.6</ele>
        <time>2021-01-16T10:38:08Z</time>
      </trkpt>
      <trkpt lat="45.3072" lon="6.04719">
        <ele>1788.4</ele>
        <time>2021-01-16T10:38:09Z</time>
      </trkpt>
      <trkpt lat="45.3072" lon="6.04719">
        <ele>1788.4</ele>
        <time>2021-01-16T10:38:10Z</time>
      </trkpt>
      <trkpt lat="45.3072" lon="6.04719">
        <ele>1788.4</ele>
        <time>2021-01-16T10:38:11Z</time>
      </trkpt>
      <trkpt lat="45.3072" lon="6.04719">
        <ele>1788.4</ele>
        <time>2021-01-16T10:38:12Z</time>
      </trkpt>
      <trkpt lat="45.3072" lon="6.04719">
        <ele>1788.4</ele>
        <time>2021-01-16T10:38:13Z</time>
      </trkpt>
      <trkpt lat="45.3072" lon="6.04719">
        <ele>1788.4</ele>
        <time>2021-01-16T10:38:14Z</time>
      </trkpt>
      <trkpt lat="45.3072" lon="6.04719">
        <ele>1788.2</ele>
        <time>2021-01-16T10:38:15Z</time>
      </trkpt>
      <trkpt lat="45.3072" lon="6.04719">
        <ele>1788.2</ele>
        <time>2021-01-16T10:38:16Z</time>
      </trkpt>
      <trkpt lat="45.3072" lon="6.04719">
        <ele>1788.2</ele>
        <time>2021-01-16T10:38:17Z</time>
      </trkpt>
      <trkpt lat="45.3072" lon="6.04719">
        <ele>1788.2</ele>
        <time>2021-01-16T10:38:18Z</time>
      </trkpt>
      <trkpt lat="45.3072" lon="6.04719">
        <ele>1788.4</ele>
        <time>2021-01-16T10:38:19Z</time>
      </trkpt>
      <trkpt lat="45.3072" lon="6.04719">
        <ele>1788.4</ele>
        <time>2021-01-16T10:38:20Z</time>
      </trkpt>
      <trkpt lat="45.3072" lon="6.04719">
        <ele>1788.4</ele>
        <time>2021-01-16T10:38:21Z</time>
      </trkpt>
      <trkpt lat="45.3072" lon="6.04719">
        <ele>1788.4</ele>
        <time>2021-01-16T10:38:22Z</time>
      </trkpt>
      <trkpt lat="45.3072" lon="6.04719">
        <ele>1788.4</ele>
        <time>2021-01-16T10:38:23Z</time>
      </trkpt>
      <trkpt lat="45.3072" lon="6.04719">
        <ele>1788.4</ele>
        <time>2021-01-16T10:38:24Z</time>
      </trkpt>
      <trkpt lat="45.3072" lon="6.04719">
        <ele>1788.4</ele>
        <time>2021-01-16T10:38:25Z</time>
      </trkpt>
      <trkpt lat="45.3072" lon="6.04719">
        <ele>1788.2</ele>
        <time>2021-01-16T10:38:26Z</time>
      </trkpt>
      <trkpt lat="45.3072" lon="6.04719">
        <ele>1788.4</ele>
        <time>2021-01-16T10:38:27Z</time>
      </trkpt>
      <trkpt lat="45.3072" lon="6.04719">
        <ele>1788.4</ele>
        <time>2021-01-16T10:38:28Z</time>
      </trkpt>
      <trkpt lat="45.3072" lon="6.04719">
        <ele>1788.4</ele>
        <time>2021-01-16T10:38:29Z</time>
      </trkpt>
      <trkpt lat="45.3072" lon="6.04719">
        <ele>1788.4</ele>
        <time>2021-01-16T10:38:30Z</time>
      </trkpt>
      <trkpt lat="45.3072" lon="6.04719">
        <ele>1788.4</ele>
        <time>2021-01-16T10:38:31Z</time>
      </trkpt>
      <trkpt lat="45.3072" lon="6.04719">
        <ele>1788.4</ele>
        <time>2021-01-16T10:38:32Z</time>
      </trkpt>
      <trkpt lat="45.3072" lon="6.04719">
        <ele>1788.4</ele>
        <time>2021-01-16T10:38:33Z</time>
      </trkpt>
      <trkpt lat="45.3072" lon="6.04719">
        <ele>1788.6</ele>
        <time>2021-01-16T10:38:34Z</time>
      </trkpt>
      <trkpt lat="45.3072" lon="6.04719">
        <ele>1788.6</ele>
        <time>2021-01-16T10:38:35Z</time>
      </trkpt>
      <trkpt lat="45.3072" lon="6.04719">
        <ele>1788.4</ele>
        <time>2021-01-16T10:38:36Z</time>
      </trkpt>
      <trkpt lat="45.3072" lon="6.04719">
        <ele>1788.4</ele>
        <time>2021-01-16T10:38:37Z</time>
      </trkpt>
      <trkpt lat="45.3072" lon="6.04719">
        <ele>1788.4</ele>
        <time>2021-01-16T10:38:38Z</time>
      </trkpt>
      <trkpt lat="45.3072" lon="6.04719">
        <ele>1788.4</ele>
        <time>2021-01-16T10:38:39Z</time>
      </trkpt>
      <trkpt lat="45.3072" lon="6.04719">
        <ele>1788.4</ele>
        <time>2021-01-16T10:38:40Z</time>
      </trkpt>
      <trkpt lat="45.3072" lon="6.04719">
        <ele>1788.4</ele>
        <time>2021-01-16T10:38:41Z</time>
      </trkpt>
      <trkpt lat="45.3072" lon="6.04719">
        <ele>1788.4</ele>
        <time>2021-01-16T10:38:42Z</time>
      </trkpt>
      <trkpt lat="45.3072" lon="6.04719">
        <ele>1788.6</ele>
        <time>2021-01-16T10:38:43Z</time>
      </trkpt>
      <trkpt lat="45.3072" lon="6.04719">
        <ele>1788.6</ele>
        <time>2021-01-16T10:38:44Z</time>
      </trkpt>
      <trkpt lat="45.3072" lon="6.04719">
        <ele>1788.6</ele>
        <time>2021-01-16T10:38:45Z</time>
      </trkpt>
      <trkpt lat="45.3072" lon="6.04719">
        <ele>1788.6</ele>
        <time>2021-01-16T10:38:46Z</time>
      </trkpt>
      <trkpt lat="45.3072" lon="6.04719">
        <ele>1788.6</ele>
        <time>2021-01-16T10:38:47Z</time>
      </trkpt>
      <trkpt lat="45.3072" lon="6.04719">
        <ele>1788.6</ele>
        <time>2021-01-16T10:38:48Z</time>
      </trkpt>
      <trkpt lat="45.3072" lon="6.04719">
        <ele>1788.6</ele>
        <time>2021-01-16T10:38:49Z</time>
      </trkpt>
      <trkpt lat="45.3072" lon="6.04719">
        <ele>1788.6</ele>
        <time>2021-01-16T10:38:50Z</time>
      </trkpt>
      <trkpt lat="45.3072" lon="6.04719">
        <ele>1788.4</ele>
        <time>2021-01-16T10:38:51Z</time>
      </trkpt>
      <trkpt lat="45.3072" lon="6.04719">
        <ele>1788.4</ele>
        <time>2021-01-16T10:38:52Z</time>
      </trkpt>
      <trkpt lat="45.3072" lon="6.04719">
        <ele>1788.6</ele>
        <time>2021-01-16T10:38:53Z</time>
      </trkpt>
      <trkpt lat="45.3072" lon="6.04719">
        <ele>1788.6</ele>
        <time>2021-01-16T10:38:54Z</time>
      </trkpt>
      <trkpt lat="45.3072" lon="6.04719">
        <ele>1788.8</ele>
        <time>2021-01-16T10:38:55Z</time>
      </trkpt>
      <trkpt lat="45.3072" lon="6.04719">
        <ele>1788.6</ele>
        <time>2021-01-16T10:38:56Z</time>
      </trkpt>
      <trkpt lat="45.3072" lon="6.04719">
        <ele>1788.6</ele>
        <time>2021-01-16T10:38:57Z</time>
      </trkpt>
      <trkpt lat="45.3072" lon="6.04719">
        <ele>1788.6</ele>
        <time>2021-01-16T10:38:58Z</time>
      </trkpt>
      <trkpt lat="45.3072" lon="6.04719">
        <ele>1788.6</ele>
        <time>2021-01-16T10:38:59Z</time>
      </trkpt>
      <trkpt lat="45.3072" lon="6.04719">
        <ele>1788.4</ele>
        <time>2021-01-16T10:39:00Z</time>
      </trkpt>
      <trkpt lat="45.3072" lon="6.04719">
        <ele>1788.4</ele>
        <time>2021-01-16T10:39:01Z</time>
      </trkpt>
      <trkpt lat="45.3072" lon="6.04719">
        <ele>1788.6</ele>
        <time>2021-01-16T10:39:02Z</time>
      </trkpt>
      <trkpt lat="45.3072" lon="6.04719">
        <ele>1788.6</ele>
        <time>2021-01-16T10:39:03Z</time>
      </trkpt>
      <trkpt lat="45.3072" lon="6.04719">
        <ele>1788.6</ele>
        <time>2021-01-16T10:39:04Z</time>
      </trkpt>
      <trkpt lat="45.3072" lon="6.04719">
        <ele>1788.6</ele>
        <time>2021-01-16T10:39:05Z</time>
      </trkpt>
      <trkpt lat="45.3072" lon="6.04719">
        <ele>1788.8</ele>
        <time>2021-01-16T10:39:06Z</time>
      </trkpt>
      <trkpt lat="45.3072" lon="6.04719">
        <ele>1788.6</ele>
        <time>2021-01-16T10:39:07Z</time>
      </trkpt>
      <trkpt lat="45.3072" lon="6.04719">
        <ele>1788.6</ele>
        <time>2021-01-16T10:39:08Z</time>
      </trkpt>
      <trkpt lat="45.3072" lon="6.04719">
        <ele>1788.8</ele>
        <time>2021-01-16T10:39:09Z</time>
      </trkpt>
      <trkpt lat="45.3072" lon="6.04719">
        <ele>1788.8</ele>
        <time>2021-01-16T10:39:10Z</time>
      </trkpt>
      <trkpt lat="45.3072" lon="6.04719">
        <ele>1788.8</ele>
        <time>2021-01-16T10:39:11Z</time>
      </trkpt>
      <trkpt lat="45.3072" lon="6.04719">
        <ele>1788.6</ele>
        <time>2021-01-16T10:39:12Z</time>
      </trkpt>
      <trkpt lat="45.3072" lon="6.04719">
        <ele>1788.6</ele>
        <time>2021-01-16T10:39:13Z</time>
      </trkpt>
      <trkpt lat="45.3072" lon="6.04719">
        <ele>1788.6</ele>
        <time>2021-01-16T10:39:14Z</time>
      </trkpt>
      <trkpt lat="45.3072" lon="6.04719">
        <ele>1788.6</ele>
        <time>2021-01-16T10:39:15Z</time>
      </trkpt>
      <trkpt lat="45.3072" lon="6.04719">
        <ele>1788.6</ele>
        <time>2021-01-16T10:39:16Z</time>
      </trkpt>
      <trkpt lat="45.3072" lon="6.04719">
        <ele>1788.6</ele>
        <time>2021-01-16T10:39:17Z</time>
      </trkpt>
      <trkpt lat="45.3072" lon="6.04719">
        <ele>1788.6</ele>
        <time>2021-01-16T10:39:18Z</time>
      </trkpt>
      <trkpt lat="45.3072" lon="6.04719">
        <ele>1788.6</ele>
        <time>2021-01-16T10:39:19Z</time>
      </trkpt>
      <trkpt lat="45.3072" lon="6.04719">
        <ele>1788.6</ele>
        <time>2021-01-16T10:39:20Z</time>
      </trkpt>
      <trkpt lat="45.3072" lon="6.04719">
        <ele>1788.6</ele>
        <time>2021-01-16T10:39:21Z</time>
      </trkpt>
      <trkpt lat="45.3072" lon="6.04719">
        <ele>1788.6</ele>
        <time>2021-01-16T10:39:22Z</time>
      </trkpt>
      <trkpt lat="45.3072" lon="6.04719">
        <ele>1788.8</ele>
        <time>2021-01-16T10:39:23Z</time>
      </trkpt>
      <trkpt lat="45.3072" lon="6.04719">
        <ele>1788.8</ele>
        <time>2021-01-16T10:39:24Z</time>
      </trkpt>
      <trkpt lat="45.3072" lon="6.04719">
        <ele>1788.8</ele>
        <time>2021-01-16T10:39:25Z</time>
      </trkpt>
      <trkpt lat="45.3072" lon="6.04719">
        <ele>1788.8</ele>
        <time>2021-01-16T10:39:26Z</time>
      </trkpt>
      <trkpt lat="45.3072" lon="6.04719">
        <ele>1788.8</ele>
        <time>2021-01-16T10:39:27Z</time>
      </trkpt>
      <trkpt lat="45.3072" lon="6.04719">
        <ele>1788.8</ele>
        <time>2021-01-16T10:39:28Z</time>
      </trkpt>
      <trkpt lat="45.3072" lon="6.04719">
        <ele>1788.8</ele>
        <time>2021-01-16T10:39:29Z</time>
      </trkpt>
      <trkpt lat="45.3072" lon="6.04719">
        <ele>1788.8</ele>
        <time>2021-01-16T10:39:30Z</time>
      </trkpt>
      <trkpt lat="45.3072" lon="6.04719">
        <ele>1788.8</ele>
        <time>2021-01-16T10:39:31Z</time>
      </trkpt>
      <trkpt lat="45.3072" lon="6.04719">
        <ele>1788.8</ele>
        <time>2021-01-16T10:39:32Z</time>
      </trkpt>
      <trkpt lat="45.3072" lon="6.04719">
        <ele>1788.8</ele>
        <time>2021-01-16T10:39:33Z</time>
      </trkpt>
      <trkpt lat="45.3072" lon="6.04719">
        <ele>1788.8</ele>
        <time>2021-01-16T10:39:34Z</time>
      </trkpt>
      <trkpt lat="45.3072" lon="6.04719">
        <ele>1788.8</ele>
        <time>2021-01-16T10:39:35Z</time>
      </trkpt>
      <trkpt lat="45.3072" lon="6.04719">
        <ele>1788.8</ele>
        <time>2021-01-16T10:39:36Z</time>
      </trkpt>
      <trkpt lat="45.3072" lon="6.04719">
        <ele>1788.8</ele>
        <time>2021-01-16T10:39:37Z</time>
      </trkpt>
      <trkpt lat="45.3072" lon="6.04719">
        <ele>1788.8</ele>
        <time>2021-01-16T10:39:38Z</time>
      </trkpt>
      <trkpt lat="45.3072" lon="6.04719">
        <ele>1788.8</ele>
        <time>2021-01-16T10:39:39Z</time>
      </trkpt>
      <trkpt lat="45.3072" lon="6.04719">
        <ele>1788.8</ele>
        <time>2021-01-16T10:39:40Z</time>
      </trkpt>
      <trkpt lat="45.3072" lon="6.04719">
        <ele>1788.8</ele>
        <time>2021-01-16T10:39:41Z</time>
      </trkpt>
      <trkpt lat="45.3072" lon="6.04719">
        <ele>1788.8</ele>
        <time>2021-01-16T10:39:42Z</time>
      </trkpt>
      <trkpt lat="45.3072" lon="6.04719">
        <ele>1788.8</ele>
        <time>2021-01-16T10:39:43Z</time>
      </trkpt>
      <trkpt lat="45.3072" lon="6.04719">
        <ele>1788.8</ele>
        <time>2021-01-16T10:39:44Z</time>
      </trkpt>
      <trkpt lat="45.3072" lon="6.04719">
        <ele>1788.8</ele>
        <time>2021-01-16T10:39:45Z</time>
      </trkpt>
      <trkpt lat="45.3072" lon="6.04719">
        <ele>1788.8</ele>
        <time>2021-01-16T10:39:46Z</time>
      </trkpt>
      <trkpt lat="45.3072" lon="6.04719">
        <ele>1788.8</ele>
        <time>2021-01-16T10:39:47Z</time>
      </trkpt>
      <trkpt lat="45.3072" lon="6.04719">
        <ele>1788.8</ele>
        <time>2021-01-16T10:39:48Z</time>
      </trkpt>
      <trkpt lat="45.3072" lon="6.04719">
        <ele>1788.8</ele>
        <time>2021-01-16T10:39:49Z</time>
      </trkpt>
      <trkpt lat="45.3072" lon="6.04719">
        <ele>1788.8</ele>
        <time>2021-01-16T10:39:50Z</time>
      </trkpt>
      <trkpt lat="45.3072" lon="6.04719">
        <ele>1789</ele>
        <time>2021-01-16T10:39:51Z</time>
      </trkpt>
      <trkpt lat="45.3072" lon="6.04719">
        <ele>1789</ele>
        <time>2021-01-16T10:39:52Z</time>
      </trkpt>
      <trkpt lat="45.3072" lon="6.04719">
        <ele>1789</ele>
        <time>2021-01-16T10:39:53Z</time>
      </trkpt>
      <trkpt lat="45.3072" lon="6.04719">
        <ele>1789</ele>
        <time>2021-01-16T10:39:54Z</time>
      </trkpt>
      <trkpt lat="45.3072" lon="6.04719">
        <ele>1789</ele>
        <time>2021-01-16T10:39:55Z</time>
      </trkpt>
      <trkpt lat="45.3072" lon="6.04719">
        <ele>1789</ele>
        <time>2021-01-16T10:39:56Z</time>
      </trkpt>
      <trkpt lat="45.3072" lon="6.04719">
        <ele>1789</ele>
        <time>2021-01-16T10:39:57Z</time>
      </trkpt>
      <trkpt lat="45.3072" lon="6.04719">
        <ele>1789</ele>
        <time>2021-01-16T10:39:58Z</time>
      </trkpt>
      <trkpt lat="45.3072" lon="6.04719">
        <ele>1789</ele>
        <time>2021-01-16T10:39:59Z</time>
      </trkpt>
      <trkpt lat="45.3072" lon="6.04719">
        <ele>1789</ele>
        <time>2021-01-16T10:40:00Z</time>
      </trkpt>
      <trkpt lat="45.3072" lon="6.04719">
        <ele>1789</ele>
        <time>2021-01-16T10:40:01Z</time>
      </trkpt>
      <trkpt lat="45.3072" lon="6.04719">
        <ele>1789</ele>
        <time>2021-01-16T10:40:02Z</time>
      </trkpt>
      <trkpt lat="45.3072" lon="6.04719">
        <ele>1789</ele>
        <time>2021-01-16T10:40:03Z</time>
      </trkpt>
      <trkpt lat="45.3072" lon="6.04719">
        <ele>1789</ele>
        <time>2021-01-16T10:40:04Z</time>
      </trkpt>
      <trkpt lat="45.3072" lon="6.04719">
        <ele>1789</ele>
        <time>2021-01-16T10:40:05Z</time>
      </trkpt>
      <trkpt lat="45.3072" lon="6.04719">
        <ele>1789</ele>
        <time>2021-01-16T10:40:06Z</time>
      </trkpt>
      <trkpt lat="45.3072" lon="6.04719">
        <ele>1789</ele>
        <time>2021-01-16T10:40:07Z</time>
      </trkpt>
      <trkpt lat="45.3072" lon="6.04719">
        <ele>1789</ele>
        <time>2021-01-16T10:40:08Z</time>
      </trkpt>
      <trkpt lat="45.3072" lon="6.04719">
        <ele>1789</ele>
        <time>2021-01-16T10:40:09Z</time>
      </trkpt>
      <trkpt lat="45.3072" lon="6.04719">
        <ele>1789.2</ele>
        <time>2021-01-16T10:40:10Z</time>
      </trkpt>
      <trkpt lat="45.3072" lon="6.04719">
        <ele>1789.2</ele>
        <time>2021-01-16T10:40:11Z</time>
      </trkpt>
      <trkpt lat="45.3072" lon="6.04719">
        <ele>1789.2</ele>
        <time>2021-01-16T10:40:12Z</time>
      </trkpt>
      <trkpt lat="45.3072" lon="6.04719">
        <ele>1789.2</ele>
        <time>2021-01-16T10:40:13Z</time>
      </trkpt>
      <trkpt lat="45.3072" lon="6.04719">
        <ele>1789.2</ele>
        <time>2021-01-16T10:40:14Z</time>
      </trkpt>
      <trkpt lat="45.3072" lon="6.04719">
        <ele>1789.2</ele>
        <time>2021-01-16T10:40:15Z</time>
      </trkpt>
      <trkpt lat="45.3072" lon="6.04719">
        <ele>1789.2</ele>
        <time>2021-01-16T10:40:16Z</time>
      </trkpt>
      <trkpt lat="45.3072" lon="6.04719">
        <ele>1789.2</ele>
        <time>2021-01-16T10:40:17Z</time>
      </trkpt>
      <trkpt lat="45.3072" lon="6.04719">
        <ele>1789.2</ele>
        <time>2021-01-16T10:40:18Z</time>
      </trkpt>
      <trkpt lat="45.3072" lon="6.04719">
        <ele>1789.2</ele>
        <time>2021-01-16T10:40:19Z</time>
      </trkpt>
      <trkpt lat="45.3072" lon="6.04719">
        <ele>1789.2</ele>
        <time>2021-01-16T10:40:20Z</time>
      </trkpt>
      <trkpt lat="45.3072" lon="6.04719">
        <ele>1789.2</ele>
        <time>2021-01-16T10:40:21Z</time>
      </trkpt>
      <trkpt lat="45.3072" lon="6.04719">
        <ele>1789.2</ele>
        <time>2021-01-16T10:40:22Z</time>
      </trkpt>
      <trkpt lat="45.3072" lon="6.04719">
        <ele>1789.2</ele>
        <time>2021-01-16T10:40:23Z</time>
      </trkpt>
      <trkpt lat="45.3072" lon="6.04719">
        <ele>1789.2</ele>
        <time>2021-01-16T10:40:24Z</time>
      </trkpt>
      <trkpt lat="45.3072" lon="6.04719">
        <ele>1789.2</ele>
        <time>2021-01-16T10:40:25Z</time>
      </trkpt>
      <trkpt lat="45.3072" lon="6.04719">
        <ele>1789.2</ele>
        <time>2021-01-16T10:40:26Z</time>
      </trkpt>
      <trkpt lat="45.3072" lon="6.04719">
        <ele>1789.2</ele>
        <time>2021-01-16T10:40:27Z</time>
      </trkpt>
      <trkpt lat="45.3072" lon="6.04719">
        <ele>1789.4</ele>
        <time>2021-01-16T10:40:28Z</time>
      </trkpt>
      <trkpt lat="45.3072" lon="6.04719">
        <ele>1789.4</ele>
        <time>2021-01-16T10:40:29Z</time>
      </trkpt>
      <trkpt lat="45.3072" lon="6.04719">
        <ele>1789.4</ele>
        <time>2021-01-16T10:40:30Z</time>
      </trkpt>
      <trkpt lat="45.3072" lon="6.04719">
        <ele>1789.4</ele>
        <time>2021-01-16T10:40:31Z</time>
      </trkpt>
      <trkpt lat="45.3072" lon="6.04719">
        <ele>1789.4</ele>
        <time>2021-01-16T10:40:32Z</time>
      </trkpt>
      <trkpt lat="45.3072" lon="6.04719">
        <ele>1789.4</ele>
        <time>2021-01-16T10:40:33Z</time>
      </trkpt>
      <trkpt lat="45.3072" lon="6.04719">
        <ele>1789.4</ele>
        <time>2021-01-16T10:40:34Z</time>
      </trkpt>
      <trkpt lat="45.3072" lon="6.04719">
        <ele>1789.4</ele>
        <time>2021-01-16T10:40:35Z</time>
      </trkpt>
      <trkpt lat="45.3072" lon="6.04719">
        <ele>1789.4</ele>
        <time>2021-01-16T10:40:36Z</time>
      </trkpt>
      <trkpt lat="45.3072" lon="6.04719">
        <ele>1789.4</ele>
        <time>2021-01-16T10:40:37Z</time>
      </trkpt>
      <trkpt lat="45.3072" lon="6.04719">
        <ele>1789.4</ele>
        <time>2021-01-16T10:40:38Z</time>
      </trkpt>
      <trkpt lat="45.3072" lon="6.04719">
        <ele>1789.4</ele>
        <time>2021-01-16T10:40:39Z</time>
      </trkpt>
      <trkpt lat="45.3072" lon="6.04719">
        <ele>1789.4</ele>
        <time>2021-01-16T10:40:40Z</time>
      </trkpt>
      <trkpt lat="45.3072" lon="6.04719">
        <ele>1789.4</ele>
        <time>2021-01-16T10:40:41Z</time>
      </trkpt>
      <trkpt lat="45.3072" lon="6.04719">
        <ele>1789.4</ele>
        <time>2021-01-16T10:40:42Z</time>
      </trkpt>
      <trkpt lat="45.3072" lon="6.04719">
        <ele>1789.4</ele>
        <time>2021-01-16T10:40:43Z</time>
      </trkpt>
      <trkpt lat="45.3072" lon="6.04719">
        <ele>1789.4</ele>
        <time>2021-01-16T10:40:44Z</time>
      </trkpt>
      <trkpt lat="45.3072" lon="6.04719">
        <ele>1789.4</ele>
        <time>2021-01-16T10:40:45Z</time>
      </trkpt>
      <trkpt lat="45.3072" lon="6.04719">
        <ele>1789.6</ele>
        <time>2021-01-16T10:40:46Z</time>
      </trkpt>
      <trkpt lat="45.3072" lon="6.04719">
        <ele>1789.6</ele>
        <time>2021-01-16T10:40:47Z</time>
      </trkpt>
      <trkpt lat="45.3072" lon="6.04719">
        <ele>1789.4</ele>
        <time>2021-01-16T10:40:48Z</time>
      </trkpt>
      <trkpt lat="45.3072" lon="6.04719">
        <ele>1789.4</ele>
        <time>2021-01-16T10:40:49Z</time>
      </trkpt>
      <trkpt lat="45.3072" lon="6.04719">
        <ele>1789.6</ele>
        <time>2021-01-16T10:40:50Z</time>
      </trkpt>
      <trkpt lat="45.3072" lon="6.04719">
        <ele>1789.6</ele>
        <time>2021-01-16T10:40:51Z</time>
      </trkpt>
      <trkpt lat="45.3072" lon="6.04719">
        <ele>1789.6</ele>
        <time>2021-01-16T10:40:52Z</time>
      </trkpt>
      <trkpt lat="45.3072" lon="6.04719">
        <ele>1789.6</ele>
        <time>2021-01-16T10:40:53Z</time>
      </trkpt>
      <trkpt lat="45.3072" lon="6.04719">
        <ele>1789.6</ele>
        <time>2021-01-16T10:40:54Z</time>
      </trkpt>
      <trkpt lat="45.3072" lon="6.04719">
        <ele>1789.6</ele>
        <time>2021-01-16T10:40:55Z</time>
      </trkpt>
      <trkpt lat="45.3072" lon="6.04719">
        <ele>1789.4</ele>
        <time>2021-01-16T10:40:56Z</time>
      </trkpt>
      <trkpt lat="45.3072" lon="6.04719">
        <ele>1789.4</ele>
        <time>2021-01-16T10:40:57Z</time>
      </trkpt>
      <trkpt lat="45.3072" lon="6.04719">
        <ele>1789.6</ele>
        <time>2021-01-16T10:40:58Z</time>
      </trkpt>
      <trkpt lat="45.3072" lon="6.04719">
        <ele>1789.6</ele>
        <time>2021-01-16T10:40:59Z</time>
      </trkpt>
      <trkpt lat="45.3072" lon="6.04719">
        <ele>1789.6</ele>
        <time>2021-01-16T10:41:00Z</time>
      </trkpt>
      <trkpt lat="45.3072" lon="6.04719">
        <ele>1789.6</ele>
        <time>2021-01-16T10:41:01Z</time>
      </trkpt>
      <trkpt lat="45.3072" lon="6.04719">
        <ele>1789.6</ele>
        <time>2021-01-16T10:41:02Z</time>
      </trkpt>
      <trkpt lat="45.3072" lon="6.04719">
        <ele>1789.6</ele>
        <time>2021-01-16T10:41:03Z</time>
      </trkpt>
      <trkpt lat="45.3072" lon="6.04719">
        <ele>1789.6</ele>
        <time>2021-01-16T10:41:04Z</time>
      </trkpt>
      <trkpt lat="45.3072" lon="6.04719">
        <ele>1789.6</ele>
        <time>2021-01-16T10:41:05Z</time>
      </trkpt>
      <trkpt lat="45.3072" lon="6.04719">
        <ele>1789.6</ele>
        <time>2021-01-16T10:41:06Z</time>
      </trkpt>
      <trkpt lat="45.3072" lon="6.04719">
        <ele>1789.6</ele>
        <time>2021-01-16T10:41:07Z</time>
      </trkpt>
      <trkpt lat="45.3072" lon="6.04719">
        <ele>1789.6</ele>
        <time>2021-01-16T10:41:08Z</time>
      </trkpt>
      <trkpt lat="45.3072" lon="6.04719">
        <ele>1789.6</ele>
        <time>2021-01-16T10:41:09Z</time>
      </trkpt>
      <trkpt lat="45.3072" lon="6.04719">
        <ele>1789.6</ele>
        <time>2021-01-16T10:41:10Z</time>
      </trkpt>
      <trkpt lat="45.3072" lon="6.04719">
        <ele>1789.6</ele>
        <time>2021-01-16T10:41:11Z</time>
      </trkpt>
      <trkpt lat="45.3072" lon="6.04719">
        <ele>1789.8</ele>
        <time>2021-01-16T10:41:12Z</time>
      </trkpt>
      <trkpt lat="45.3072" lon="6.04719">
        <ele>1789.8</ele>
        <time>2021-01-16T10:41:13Z</time>
      </trkpt>
      <trkpt lat="45.3072" lon="6.04719">
        <ele>1789.8</ele>
        <time>2021-01-16T10:41:14Z</time>
      </trkpt>
      <trkpt lat="45.3072" lon="6.04719">
        <ele>1789.8</ele>
        <time>2021-01-16T10:41:15Z</time>
      </trkpt>
      <trkpt lat="45.3072" lon="6.04719">
        <ele>1789.8</ele>
        <time>2021-01-16T10:41:16Z</time>
      </trkpt>
      <trkpt lat="45.3072" lon="6.04719">
        <ele>1789.8</ele>
        <time>2021-01-16T10:41:17Z</time>
      </trkpt>
      <trkpt lat="45.3072" lon="6.04719">
        <ele>1789.8</ele>
        <time>2021-01-16T10:41:18Z</time>
      </trkpt>
      <trkpt lat="45.3072" lon="6.04719">
        <ele>1789.8</ele>
        <time>2021-01-16T10:41:19Z</time>
      </trkpt>
      <trkpt lat="45.3072" lon="6.04719">
        <ele>1789.8</ele>
        <time>2021-01-16T10:41:20Z</time>
      </trkpt>
      <trkpt lat="45.3072" lon="6.04719">
        <ele>1789.8</ele>
        <time>2021-01-16T10:41:21Z</time>
      </trkpt>
      <trkpt lat="45.3072" lon="6.04719">
        <ele>1789.8</ele>
        <time>2021-01-16T10:41:22Z</time>
      </trkpt>
      <trkpt lat="45.3072" lon="6.04719">
        <ele>1789.8</ele>
        <time>2021-01-16T10:41:23Z</time>
      </trkpt>
      <trkpt lat="45.3072" lon="6.04719">
        <ele>1789.8</ele>
        <time>2021-01-16T10:41:24Z</time>
      </trkpt>
      <trkpt lat="45.3072" lon="6.04719">
        <ele>1789.8</ele>
        <time>2021-01-16T10:41:25Z</time>
      </trkpt>
      <trkpt lat="45.3072" lon="6.04719">
        <ele>1789.8</ele>
        <time>2021-01-16T10:41:26Z</time>
      </trkpt>
      <trkpt lat="45.3072" lon="6.04719">
        <ele>1789.8</ele>
        <time>2021-01-16T10:41:27Z</time>
      </trkpt>
      <trkpt lat="45.3072" lon="6.04719">
        <ele>1789.8</ele>
        <time>2021-01-16T10:41:28Z</time>
      </trkpt>
      <trkpt lat="45.3072" lon="6.04719">
        <ele>1789.8</ele>
        <time>2021-01-16T10:41:29Z</time>
      </trkpt>
      <trkpt lat="45.3072" lon="6.04719">
        <ele>1789.8</ele>
        <time>2021-01-16T10:41:30Z</time>
      </trkpt>
      <trkpt lat="45.3072" lon="6.04719">
        <ele>1789.8</ele>
        <time>2021-01-16T10:41:31Z</time>
      </trkpt>
      <trkpt lat="45.3072" lon="6.04719">
        <ele>1789.8</ele>
        <time>2021-01-16T10:41:32Z</time>
      </trkpt>
      <trkpt lat="45.3072" lon="6.04719">
        <ele>1789.8</ele>
        <time>2021-01-16T10:41:33Z</time>
      </trkpt>
      <trkpt lat="45.3072" lon="6.04719">
        <ele>1789.8</ele>
        <time>2021-01-16T10:41:34Z</time>
      </trkpt>
      <trkpt lat="45.3072" lon="6.04719">
        <ele>1789.8</ele>
        <time>2021-01-16T10:41:35Z</time>
      </trkpt>
      <trkpt lat="45.3072" lon="6.04719">
        <ele>1789.8</ele>
        <time>2021-01-16T10:41:36Z</time>
      </trkpt>
      <trkpt lat="45.3072" lon="6.04719">
        <ele>1789.8</ele>
        <time>2021-01-16T10:41:37Z</time>
      </trkpt>
      <trkpt lat="45.3072" lon="6.04719">
        <ele>1789.8</ele>
        <time>2021-01-16T10:41:38Z</time>
      </trkpt>
      <trkpt lat="45.3072" lon="6.04719">
        <ele>1789.8</ele>
        <time>2021-01-16T10:41:39Z</time>
      </trkpt>
      <trkpt lat="45.3072" lon="6.04719">
        <ele>1789.8</ele>
        <time>2021-01-16T10:41:40Z</time>
      </trkpt>
      <trkpt lat="45.3072" lon="6.04719">
        <ele>1789.8</ele>
        <time>2021-01-16T10:41:41Z</time>
      </trkpt>
      <trkpt lat="45.3072" lon="6.04719">
        <ele>1789.8</ele>
        <time>2021-01-16T10:41:42Z</time>
      </trkpt>
      <trkpt lat="45.3072" lon="6.04719">
        <ele>1789.8</ele>
        <time>2021-01-16T10:41:43Z</time>
      </trkpt>
      <trkpt lat="45.3072" lon="6.04719">
        <ele>1789.8</ele>
        <time>2021-01-16T10:41:44Z</time>
      </trkpt>
      <trkpt lat="45.3072" lon="6.04719">
        <ele>1789.8</ele>
        <time>2021-01-16T10:41:45Z</time>
      </trkpt>
      <trkpt lat="45.3072" lon="6.04719">
        <ele>1789.8</ele>
        <time>2021-01-16T10:41:46Z</time>
      </trkpt>
      <trkpt lat="45.3072" lon="6.04719">
        <ele>1790</ele>
        <time>2021-01-16T10:41:47Z</time>
      </trkpt>
      <trkpt lat="45.3072" lon="6.04719">
        <ele>1790</ele>
        <time>2021-01-16T10:41:48Z</time>
      </trkpt>
      <trkpt lat="45.3072" lon="6.04719">
        <ele>1790</ele>
        <time>2021-01-16T10:41:49Z</time>
      </trkpt>
      <trkpt lat="45.3072" lon="6.04719">
        <ele>1789.8</ele>
        <time>2021-01-16T10:41:50Z</time>
      </trkpt>
      <trkpt lat="45.3072" lon="6.04719">
        <ele>1789.8</ele>
        <time>2021-01-16T10:41:51Z</time>
      </trkpt>
      <trkpt lat="45.3072" lon="6.04719">
        <ele>1789.8</ele>
        <time>2021-01-16T10:41:52Z</time>
      </trkpt>
      <trkpt lat="45.3072" lon="6.04719">
        <ele>1789.8</ele>
        <time>2021-01-16T10:41:53Z</time>
      </trkpt>
      <trkpt lat="45.3072" lon="6.04719">
        <ele>1790</ele>
        <time>2021-01-16T10:41:54Z</time>
      </trkpt>
      <trkpt lat="45.3072" lon="6.04719">
        <ele>1790</ele>
        <time>2021-01-16T10:41:55Z</time>
      </trkpt>
      <trkpt lat="45.3072" lon="6.04719">
        <ele>1789.8</ele>
        <time>2021-01-16T10:41:56Z</time>
      </trkpt>
      <trkpt lat="45.3072" lon="6.04719">
        <ele>1790</ele>
        <time>2021-01-16T10:41:57Z</time>
      </trkpt>
      <trkpt lat="45.3072" lon="6.04719">
        <ele>1790.2</ele>
        <time>2021-01-16T10:41:58Z</time>
      </trkpt>
      <trkpt lat="45.3072" lon="6.04719">
        <ele>1790.2</ele>
        <time>2021-01-16T10:41:59Z</time>
      </trkpt>
      <trkpt lat="45.3072" lon="6.04719">
        <ele>1790.2</ele>
        <time>2021-01-16T10:42:00Z</time>
      </trkpt>
      <trkpt lat="45.3072" lon="6.04719">
        <ele>1790.2</ele>
        <time>2021-01-16T10:42:01Z</time>
      </trkpt>
      <trkpt lat="45.3072" lon="6.04719">
        <ele>1790.2</ele>
        <time>2021-01-16T10:42:02Z</time>
      </trkpt>
      <trkpt lat="45.3072" lon="6.04719">
        <ele>1790.2</ele>
        <time>2021-01-16T10:42:03Z</time>
      </trkpt>
      <trkpt lat="45.3072" lon="6.04719">
        <ele>1790.2</ele>
        <time>2021-01-16T10:42:04Z</time>
      </trkpt>
      <trkpt lat="45.3072" lon="6.04719">
        <ele>1790.2</ele>
        <time>2021-01-16T10:42:05Z</time>
      </trkpt>
      <trkpt lat="45.3072" lon="6.04719">
        <ele>1790.2</ele>
        <time>2021-01-16T10:42:06Z</time>
      </trkpt>
      <trkpt lat="45.3072" lon="6.04719">
        <ele>1790.2</ele>
        <time>2021-01-16T10:42:07Z</time>
      </trkpt>
      <trkpt lat="45.3072" lon="6.04719">
        <ele>1790.2</ele>
        <time>2021-01-16T10:42:08Z</time>
      </trkpt>
      <trkpt lat="45.3072" lon="6.04719">
        <ele>1790.2</ele>
        <time>2021-01-16T10:42:09Z</time>
      </trkpt>
      <trkpt lat="45.3072" lon="6.04719">
        <ele>1790.2</ele>
        <time>2021-01-16T10:42:10Z</time>
      </trkpt>
      <trkpt lat="45.3072" lon="6.04719">
        <ele>1790.2</ele>
        <time>2021-01-16T10:42:11Z</time>
      </trkpt>
      <trkpt lat="45.3072" lon="6.04719">
        <ele>1790.4</ele>
        <time>2021-01-16T10:42:12Z</time>
      </trkpt>
      <trkpt lat="45.3072" lon="6.04719">
        <ele>1790.4</ele>
        <time>2021-01-16T10:42:13Z</time>
      </trkpt>
      <trkpt lat="45.3072" lon="6.04719">
        <ele>1790.4</ele>
        <time>2021-01-16T10:42:14Z</time>
      </trkpt>
      <trkpt lat="45.3072" lon="6.04719">
        <ele>1790.2</ele>
        <time>2021-01-16T10:42:15Z</time>
      </trkpt>
      <trkpt lat="45.3072" lon="6.04719">
        <ele>1790.4</ele>
        <time>2021-01-16T10:42:16Z</time>
      </trkpt>
      <trkpt lat="45.3072" lon="6.04719">
        <ele>1790.4</ele>
        <time>2021-01-16T10:42:17Z</time>
      </trkpt>
      <trkpt lat="45.3072" lon="6.04719">
        <ele>1790.4</ele>
        <time>2021-01-16T10:42:18Z</time>
      </trkpt>
      <trkpt lat="45.3072" lon="6.04719">
        <ele>1790.4</ele>
        <time>2021-01-16T10:42:19Z</time>
      </trkpt>
      <trkpt lat="45.3072" lon="6.04719">
        <ele>1790.4</ele>
        <time>2021-01-16T10:42:20Z</time>
      </trkpt>
      <trkpt lat="45.3072" lon="6.04719">
        <ele>1790.4</ele>
        <time>2021-01-16T10:42:21Z</time>
      </trkpt>
      <trkpt lat="45.3072" lon="6.04719">
        <ele>1790.4</ele>
        <time>2021-01-16T10:42:22Z</time>
      </trkpt>
      <trkpt lat="45.3072" lon="6.04719">
        <ele>1790.4</ele>
        <time>2021-01-16T10:42:23Z</time>
      </trkpt>
      <trkpt lat="45.3072" lon="6.04719">
        <ele>1790.4</ele>
        <time>2021-01-16T10:42:24Z</time>
      </trkpt>
      <trkpt lat="45.3072" lon="6.04719">
        <ele>1790.4</ele>
        <time>2021-01-16T10:42:25Z</time>
      </trkpt>
      <trkpt lat="45.3072" lon="6.04719">
        <ele>1790.4</ele>
        <time>2021-01-16T10:42:26Z</time>
      </trkpt>
      <trkpt lat="45.3072" lon="6.04719">
        <ele>1790.4</ele>
        <time>2021-01-16T10:42:27Z</time>
      </trkpt>
      <trkpt lat="45.3072" lon="6.04719">
        <ele>1790.4</ele>
        <time>2021-01-16T10:42:28Z</time>
      </trkpt>
      <trkpt lat="45.3072" lon="6.04719">
        <ele>1790.4</ele>
        <time>2021-01-16T10:42:29Z</time>
      </trkpt>
      <trkpt lat="45.3072" lon="6.04719">
        <ele>1790.4</ele>
        <time>2021-01-16T10:42:30Z</time>
      </trkpt>
      <trkpt lat="45.3072" lon="6.04719">
        <ele>1790.4</ele>
        <time>2021-01-16T10:42:31Z</time>
      </trkpt>
      <trkpt lat="45.3072" lon="6.04719">
        <ele>1790.4</ele>
        <time>2021-01-16T10:42:32Z</time>
      </trkpt>
      <trkpt lat="45.3072" lon="6.04719">
        <ele>1790.6</ele>
        <time>2021-01-16T10:42:33Z</time>
      </trkpt>
      <trkpt lat="45.3072" lon="6.04719">
        <ele>1790.6</ele>
        <time>2021-01-16T10:42:34Z</time>
      </trkpt>
      <trkpt lat="45.3072" lon="6.04719">
        <ele>1790.6</ele>
        <time>2021-01-16T10:42:35Z</time>
      </trkpt>
      <trkpt lat="45.3072" lon="6.04719">
        <ele>1790.6</ele>
        <time>2021-01-16T10:42:36Z</time>
      </trkpt>
      <trkpt lat="45.3072" lon="6.04719">
        <ele>1790.6</ele>
        <time>2021-01-16T10:42:37Z</time>
      </trkpt>
      <trkpt lat="45.3072" lon="6.04719">
        <ele>1790.6</ele>
        <time>2021-01-16T10:42:38Z</time>
      </trkpt>
      <trkpt lat="45.3072" lon="6.04719">
        <ele>1790.6</ele>
        <time>2021-01-16T10:42:39Z</time>
      </trkpt>
      <trkpt lat="45.3072" lon="6.04719">
        <ele>1790.8</ele>
        <time>2021-01-16T10:42:40Z</time>
      </trkpt>
      <trkpt lat="45.3072" lon="6.04719">
        <ele>1790.6</ele>
        <time>2021-01-16T10:42:41Z</time>
      </trkpt>
      <trkpt lat="45.3072" lon="6.04719">
        <ele>1790.6</ele>
        <time>2021-01-16T10:42:42Z</time>
      </trkpt>
      <trkpt lat="45.3072" lon="6.04719">
        <ele>1790.6</ele>
        <time>2021-01-16T10:42:43Z</time>
      </trkpt>
      <trkpt lat="45.3072" lon="6.04719">
        <ele>1790.6</ele>
        <time>2021-01-16T10:42:44Z</time>
      </trkpt>
      <trkpt lat="45.3072" lon="6.04719">
        <ele>1790.6</ele>
        <time>2021-01-16T10:42:45Z</time>
      </trkpt>
      <trkpt lat="45.3072" lon="6.04719">
        <ele>1790.6</ele>
        <time>2021-01-16T10:42:46Z</time>
      </trkpt>
      <trkpt lat="45.3072" lon="6.04719">
        <ele>1790.6</ele>
        <time>2021-01-16T10:42:47Z</time>
      </trkpt>
      <trkpt lat="45.3072" lon="6.04719">
        <ele>1790.6</ele>
        <time>2021-01-16T10:42:48Z</time>
      </trkpt>
      <trkpt lat="45.3072" lon="6.04719">
        <ele>1790.6</ele>
        <time>2021-01-16T10:42:49Z</time>
      </trkpt>
      <trkpt lat="45.3072" lon="6.04719">
        <ele>1790.6</ele>
        <time>2021-01-16T10:42:50Z</time>
      </trkpt>
      <trkpt lat="45.3072" lon="6.04719">
        <ele>1790.8</ele>
        <time>2021-01-16T10:42:51Z</time>
      </trkpt>
      <trkpt lat="45.3072" lon="6.04719">
        <ele>1790.8</ele>
        <time>2021-01-16T10:42:52Z</time>
      </trkpt>
      <trkpt lat="45.3072" lon="6.04719">
        <ele>1790.8</ele>
        <time>2021-01-16T10:42:53Z</time>
      </trkpt>
      <trkpt lat="45.3072" lon="6.04719">
        <ele>1790.6</ele>
        <time>2021-01-16T10:42:54Z</time>
      </trkpt>
      <trkpt lat="45.3072" lon="6.04719">
        <ele>1790.6</ele>
        <time>2021-01-16T10:42:55Z</time>
      </trkpt>
      <trkpt lat="45.3072" lon="6.04719">
        <ele>1790.6</ele>
        <time>2021-01-16T10:42:56Z</time>
      </trkpt>
      <trkpt lat="45.3072" lon="6.04719">
        <ele>1790.6</ele>
        <time>2021-01-16T10:42:57Z</time>
      </trkpt>
      <trkpt lat="45.3072" lon="6.04719">
        <ele>1790.6</ele>
        <time>2021-01-16T10:42:58Z</time>
      </trkpt>
      <trkpt lat="45.3072" lon="6.04719">
        <ele>1790.6</ele>
        <time>2021-01-16T10:42:59Z</time>
      </trkpt>
      <trkpt lat="45.3072" lon="6.04719">
        <ele>1790.6</ele>
        <time>2021-01-16T10:43:00Z</time>
      </trkpt>
      <trkpt lat="45.3072" lon="6.04719">
        <ele>1790.6</ele>
        <time>2021-01-16T10:43:01Z</time>
      </trkpt>
      <trkpt lat="45.3072" lon="6.04719">
        <ele>1790.6</ele>
        <time>2021-01-16T10:43:02Z</time>
      </trkpt>
      <trkpt lat="45.3072" lon="6.04719">
        <ele>1790.6</ele>
        <time>2021-01-16T10:43:03Z</time>
      </trkpt>
      <trkpt lat="45.3072" lon="6.04719">
        <ele>1790.6</ele>
        <time>2021-01-16T10:43:04Z</time>
      </trkpt>
      <trkpt lat="45.3072" lon="6.04719">
        <ele>1790.6</ele>
        <time>2021-01-16T10:43:05Z</time>
      </trkpt>
      <trkpt lat="45.3072" lon="6.04719">
        <ele>1790.8</ele>
        <time>2021-01-16T10:43:06Z</time>
      </trkpt>
      <trkpt lat="45.3072" lon="6.04719">
        <ele>1790.8</ele>
        <time>2021-01-16T10:43:07Z</time>
      </trkpt>
      <trkpt lat="45.3072" lon="6.04719">
        <ele>1790.8</ele>
        <time>2021-01-16T10:43:08Z</time>
      </trkpt>
      <trkpt lat="45.3072" lon="6.04719">
        <ele>1790.8</ele>
        <time>2021-01-16T10:43:09Z</time>
      </trkpt>
      <trkpt lat="45.3072" lon="6.04719">
        <ele>1790.8</ele>
        <time>2021-01-16T10:43:10Z</time>
      </trkpt>
      <trkpt lat="45.3072" lon="6.04719">
        <ele>1790.8</ele>
        <time>2021-01-16T10:43:11Z</time>
      </trkpt>
      <trkpt lat="45.3072" lon="6.04719">
        <ele>1790.8</ele>
        <time>2021-01-16T10:43:12Z</time>
      </trkpt>
      <trkpt lat="45.3072" lon="6.04719">
        <ele>1790.8</ele>
        <time>2021-01-16T10:43:13Z</time>
      </trkpt>
      <trkpt lat="45.3072" lon="6.04719">
        <ele>1790.8</ele>
        <time>2021-01-16T10:43:14Z</time>
      </trkpt>
      <trkpt lat="45.3072" lon="6.04719">
        <ele>1790.8</ele>
        <time>2021-01-16T10:43:15Z</time>
      </trkpt>
      <trkpt lat="45.3072" lon="6.04719">
        <ele>1790.8</ele>
        <time>2021-01-16T10:43:16Z</time>
      </trkpt>
      <trkpt lat="45.3072" lon="6.04719">
        <ele>1790.8</ele>
        <time>2021-01-16T10:43:17Z</time>
      </trkpt>
      <trkpt lat="45.3072" lon="6.04719">
        <ele>1790.8</ele>
        <time>2021-01-16T10:43:18Z</time>
      </trkpt>
      <trkpt lat="45.3072" lon="6.04719">
        <ele>1790.8</ele>
        <time>2021-01-16T10:43:19Z</time>
      </trkpt>
      <trkpt lat="45.3072" lon="6.04719">
        <ele>1790.8</ele>
        <time>2021-01-16T10:43:20Z</time>
      </trkpt>
      <trkpt lat="45.3072" lon="6.04719">
        <ele>1790.8</ele>
        <time>2021-01-16T10:43:21Z</time>
      </trkpt>
      <trkpt lat="45.3072" lon="6.04719">
        <ele>1790.8</ele>
        <time>2021-01-16T10:43:22Z</time>
      </trkpt>
      <trkpt lat="45.3072" lon="6.04719">
        <ele>1791</ele>
        <time>2021-01-16T10:43:23Z</time>
      </trkpt>
      <trkpt lat="45.3072" lon="6.04719">
        <ele>1791</ele>
        <time>2021-01-16T10:43:24Z</time>
      </trkpt>
      <trkpt lat="45.3072" lon="6.04719">
        <ele>1790.8</ele>
        <time>2021-01-16T10:43:25Z</time>
      </trkpt>
      <trkpt lat="45.3072" lon="6.04719">
        <ele>1791</ele>
        <time>2021-01-16T10:43:26Z</time>
      </trkpt>
      <trkpt lat="45.3072" lon="6.04719">
        <ele>1791</ele>
        <time>2021-01-16T10:43:27Z</time>
      </trkpt>
      <trkpt lat="45.3072" lon="6.04719">
        <ele>1791</ele>
        <time>2021-01-16T10:43:28Z</time>
      </trkpt>
      <trkpt lat="45.3072" lon="6.04719">
        <ele>1791</ele>
        <time>2021-01-16T10:43:29Z</time>
      </trkpt>
      <trkpt lat="45.3072" lon="6.04719">
        <ele>1791</ele>
        <time>2021-01-16T10:43:30Z</time>
      </trkpt>
      <trkpt lat="45.3072" lon="6.04719">
        <ele>1791</ele>
        <time>2021-01-16T10:43:31Z</time>
      </trkpt>
      <trkpt lat="45.3072" lon="6.04719">
        <ele>1791</ele>
        <time>2021-01-16T10:43:32Z</time>
      </trkpt>
      <trkpt lat="45.3072" lon="6.04719">
        <ele>1791</ele>
        <time>2021-01-16T10:43:33Z</time>
      </trkpt>
      <trkpt lat="45.3072" lon="6.04719">
        <ele>1791</ele>
        <time>2021-01-16T10:43:34Z</time>
      </trkpt>
      <trkpt lat="45.3072" lon="6.04719">
        <ele>1791</ele>
        <time>2021-01-16T10:43:35Z</time>
      </trkpt>
      <trkpt lat="45.3072" lon="6.04719">
        <ele>1791</ele>
        <time>2021-01-16T10:43:36Z</time>
      </trkpt>
      <trkpt lat="45.3072" lon="6.04719">
        <ele>1791</ele>
        <time>2021-01-16T10:43:37Z</time>
      </trkpt>
      <trkpt lat="45.3072" lon="6.04719">
        <ele>1791</ele>
        <time>2021-01-16T10:43:38Z</time>
      </trkpt>
      <trkpt lat="45.3072" lon="6.04719">
        <ele>1791</ele>
        <time>2021-01-16T10:43:39Z</time>
      </trkpt>
      <trkpt lat="45.3072" lon="6.04719">
        <ele>1791</ele>
        <time>2021-01-16T10:43:40Z</time>
      </trkpt>
      <trkpt lat="45.3072" lon="6.04719">
        <ele>1791</ele>
        <time>2021-01-16T10:43:41Z</time>
      </trkpt>
      <trkpt lat="45.3072" lon="6.04719">
        <ele>1791</ele>
        <time>2021-01-16T10:43:42Z</time>
      </trkpt>
      <trkpt lat="45.3072" lon="6.04719">
        <ele>1791</ele>
        <time>2021-01-16T10:43:43Z</time>
      </trkpt>
      <trkpt lat="45.3072" lon="6.04719">
        <ele>1791</ele>
        <time>2021-01-16T10:43:44Z</time>
      </trkpt>
      <trkpt lat="45.3072" lon="6.04719">
        <ele>1791</ele>
        <time>2021-01-16T10:43:45Z</time>
      </trkpt>
      <trkpt lat="45.3072" lon="6.04719">
        <ele>1791</ele>
        <time>2021-01-16T10:43:46Z</time>
      </trkpt>
      <trkpt lat="45.3072" lon="6.04719">
        <ele>1791</ele>
        <time>2021-01-16T10:43:47Z</time>
      </trkpt>
      <trkpt lat="45.3072" lon="6.04719">
        <ele>1791</ele>
        <time>2021-01-16T10:43:48Z</time>
      </trkpt>
      <trkpt lat="45.3072" lon="6.04719">
        <ele>1791.2</ele>
        <time>2021-01-16T10:43:49Z</time>
      </trkpt>
      <trkpt lat="45.3072" lon="6.04719">
        <ele>1791</ele>
        <time>2021-01-16T10:43:50Z</time>
      </trkpt>
      <trkpt lat="45.3072" lon="6.04719">
        <ele>1791.2</ele>
        <time>2021-01-16T10:43:51Z</time>
      </trkpt>
      <trkpt lat="45.3072" lon="6.04719">
        <ele>1791</ele>
        <time>2021-01-16T10:43:52Z</time>
      </trkpt>
      <trkpt lat="45.3072" lon="6.04719">
        <ele>1791.2</ele>
        <time>2021-01-16T10:43:53Z</time>
      </trkpt>
      <trkpt lat="45.3072" lon="6.04719">
        <ele>1791.2</ele>
        <time>2021-01-16T10:43:54Z</time>
      </trkpt>
      <trkpt lat="45.3072" lon="6.04719">
        <ele>1791.2</ele>
        <time>2021-01-16T10:43:55Z</time>
      </trkpt>
      <trkpt lat="45.3072" lon="6.04719">
        <ele>1791.2</ele>
        <time>2021-01-16T10:43:56Z</time>
      </trkpt>
      <trkpt lat="45.3072" lon="6.04719">
        <ele>1791.2</ele>
        <time>2021-01-16T10:43:57Z</time>
      </trkpt>
      <trkpt lat="45.3072" lon="6.04719">
        <ele>1791.2</ele>
        <time>2021-01-16T10:43:58Z</time>
      </trkpt>
      <trkpt lat="45.3072" lon="6.04719">
        <ele>1791.2</ele>
        <time>2021-01-16T10:43:59Z</time>
      </trkpt>
      <trkpt lat="45.3072" lon="6.04719">
        <ele>1791.2</ele>
        <time>2021-01-16T10:44:00Z</time>
      </trkpt>
      <trkpt lat="45.3072" lon="6.04719">
        <ele>1791.2</ele>
        <time>2021-01-16T10:44:01Z</time>
      </trkpt>
      <trkpt lat="45.3072" lon="6.04719">
        <ele>1791.2</ele>
        <time>2021-01-16T10:44:02Z</time>
      </trkpt>
      <trkpt lat="45.3072" lon="6.04719">
        <ele>1791.2</ele>
        <time>2021-01-16T10:44:03Z</time>
      </trkpt>
      <trkpt lat="45.3072" lon="6.04719">
        <ele>1791.2</ele>
        <time>2021-01-16T10:44:04Z</time>
      </trkpt>
      <trkpt lat="45.3072" lon="6.04719">
        <ele>1791.2</ele>
        <time>2021-01-16T10:44:05Z</time>
      </trkpt>
      <trkpt lat="45.3072" lon="6.04719">
        <ele>1791.2</ele>
        <time>2021-01-16T10:44:06Z</time>
      </trkpt>
      <trkpt lat="45.3072" lon="6.04719">
        <ele>1791.2</ele>
        <time>2021-01-16T10:44:07Z</time>
      </trkpt>
      <trkpt lat="45.3072" lon="6.04719">
        <ele>1791.2</ele>
        <time>2021-01-16T10:44:08Z</time>
      </trkpt>
      <trkpt lat="45.3072" lon="6.04719">
        <ele>1791.2</ele>
        <time>2021-01-16T10:44:09Z</time>
      </trkpt>
      <trkpt lat="45.3072" lon="6.04719">
        <ele>1791.2</ele>
        <time>2021-01-16T10:44:10Z</time>
      </trkpt>
      <trkpt lat="45.3072" lon="6.04719">
        <ele>1791.2</ele>
        <time>2021-01-16T10:44:11Z</time>
      </trkpt>
      <trkpt lat="45.3072" lon="6.04719">
        <ele>1791.2</ele>
        <time>2021-01-16T10:44:12Z</time>
      </trkpt>
      <trkpt lat="45.3072" lon="6.04719">
        <ele>1791</ele>
        <time>2021-01-16T10:44:13Z</time>
      </trkpt>
      <trkpt lat="45.3072" lon="6.04719">
        <ele>1791.2</ele>
        <time>2021-01-16T10:44:14Z</time>
      </trkpt>
      <trkpt lat="45.3072" lon="6.04719">
        <ele>1791.2</ele>
        <time>2021-01-16T10:44:15Z</time>
      </trkpt>
      <trkpt lat="45.3072" lon="6.04719">
        <ele>1791.2</ele>
        <time>2021-01-16T10:44:16Z</time>
      </trkpt>
      <trkpt lat="45.3072" lon="6.04719">
        <ele>1791.2</ele>
        <time>2021-01-16T10:44:17Z</time>
      </trkpt>
      <trkpt lat="45.3072" lon="6.04719">
        <ele>1791.2</ele>
        <time>2021-01-16T10:44:18Z</time>
      </trkpt>
      <trkpt lat="45.3072" lon="6.04719">
        <ele>1791.2</ele>
        <time>2021-01-16T10:44:19Z</time>
      </trkpt>
      <trkpt lat="45.3072" lon="6.04719">
        <ele>1791.2</ele>
        <time>2021-01-16T10:44:20Z</time>
      </trkpt>
      <trkpt lat="45.3072" lon="6.04719">
        <ele>1791.2</ele>
        <time>2021-01-16T10:44:21Z</time>
      </trkpt>
      <trkpt lat="45.3072" lon="6.04719">
        <ele>1791.2</ele>
        <time>2021-01-16T10:44:22Z</time>
      </trkpt>
      <trkpt lat="45.3072" lon="6.04719">
        <ele>1791.2</ele>
        <time>2021-01-16T10:44:23Z</time>
      </trkpt>
      <trkpt lat="45.3072" lon="6.04719">
        <ele>1791.2</ele>
        <time>2021-01-16T10:44:24Z</time>
      </trkpt>
      <trkpt lat="45.3072" lon="6.04719">
        <ele>1791.2</ele>
        <time>2021-01-16T10:44:25Z</time>
      </trkpt>
      <trkpt lat="45.3072" lon="6.04719">
        <ele>1791.2</ele>
        <time>2021-01-16T10:44:26Z</time>
      </trkpt>
      <trkpt lat="45.3072" lon="6.04719">
        <ele>1791.2</ele>
        <time>2021-01-16T10:44:27Z</time>
      </trkpt>
      <trkpt lat="45.3072" lon="6.04719">
        <ele>1791.2</ele>
        <time>2021-01-16T10:44:28Z</time>
      </trkpt>
      <trkpt lat="45.3072" lon="6.04719">
        <ele>1791.2</ele>
        <time>2021-01-16T10:44:29Z</time>
      </trkpt>
      <trkpt lat="45.3072" lon="6.04719">
        <ele>1791.2</ele>
        <time>2021-01-16T10:44:30Z</time>
      </trkpt>
      <trkpt lat="45.3072" lon="6.04719">
        <ele>1791.2</ele>
        <time>2021-01-16T10:44:31Z</time>
      </trkpt>
      <trkpt lat="45.3072" lon="6.04719">
        <ele>1791.4</ele>
        <time>2021-01-16T10:44:32Z</time>
      </trkpt>
      <trkpt lat="45.3072" lon="6.04719">
        <ele>1791.4</ele>
        <time>2021-01-16T10:44:33Z</time>
      </trkpt>
      <trkpt lat="45.3072" lon="6.04719">
        <ele>1791.2</ele>
        <time>2021-01-16T10:44:34Z</time>
      </trkpt>
      <trkpt lat="45.3072" lon="6.04719">
        <ele>1791.2</ele>
        <time>2021-01-16T10:44:35Z</time>
      </trkpt>
      <trkpt lat="45.3072" lon="6.04719">
        <ele>1791.2</ele>
        <time>2021-01-16T10:44:36Z</time>
      </trkpt>
      <trkpt lat="45.3072" lon="6.04719">
        <ele>1791.2</ele>
        <time>2021-01-16T10:44:37Z</time>
      </trkpt>
      <trkpt lat="45.3072" lon="6.04719">
        <ele>1791.2</ele>
        <time>2021-01-16T10:44:38Z</time>
      </trkpt>
      <trkpt lat="45.3072" lon="6.04719">
        <ele>1791.4</ele>
        <time>2021-01-16T10:44:39Z</time>
      </trkpt>
      <trkpt lat="45.3072" lon="6.04719">
        <ele>1791.4</ele>
        <time>2021-01-16T10:44:40Z</time>
      </trkpt>
      <trkpt lat="45.3072" lon="6.04719">
        <ele>1791.4</ele>
        <time>2021-01-16T10:44:41Z</time>
      </trkpt>
      <trkpt lat="45.3072" lon="6.04719">
        <ele>1791.4</ele>
        <time>2021-01-16T10:44:42Z</time>
      </trkpt>
      <trkpt lat="45.3072" lon="6.04719">
        <ele>1791.4</ele>
        <time>2021-01-16T10:44:43Z</time>
      </trkpt>
      <trkpt lat="45.3072" lon="6.04719">
        <ele>1791.4</ele>
        <time>2021-01-16T10:44:44Z</time>
      </trkpt>
      <trkpt lat="45.3072" lon="6.04719">
        <ele>1791.4</ele>
        <time>2021-01-16T10:44:45Z</time>
      </trkpt>
      <trkpt lat="45.3072" lon="6.04719">
        <ele>1791.4</ele>
        <time>2021-01-16T10:44:46Z</time>
      </trkpt>
      <trkpt lat="45.3072" lon="6.04719">
        <ele>1791.6</ele>
        <time>2021-01-16T10:44:47Z</time>
      </trkpt>
      <trkpt lat="45.3072" lon="6.04719">
        <ele>1791.6</ele>
        <time>2021-01-16T10:44:48Z</time>
      </trkpt>
      <trkpt lat="45.3072" lon="6.04719">
        <ele>1791.6</ele>
        <time>2021-01-16T10:44:49Z</time>
      </trkpt>
      <trkpt lat="45.3072" lon="6.04719">
        <ele>1791.6</ele>
        <time>2021-01-16T10:44:50Z</time>
      </trkpt>
      <trkpt lat="45.3072" lon="6.04719">
        <ele>1791.6</ele>
        <time>2021-01-16T10:44:51Z</time>
      </trkpt>
      <trkpt lat="45.3072" lon="6.04719">
        <ele>1791.8</ele>
        <time>2021-01-16T10:44:52Z</time>
      </trkpt>
      <trkpt lat="45.3072" lon="6.04719">
        <ele>1791.8</ele>
        <time>2021-01-16T10:44:53Z</time>
      </trkpt>
      <trkpt lat="45.3072" lon="6.04719">
        <ele>1791.8</ele>
        <time>2021-01-16T10:44:54Z</time>
      </trkpt>
      <trkpt lat="45.3072" lon="6.04719">
        <ele>1791.8</ele>
        <time>2021-01-16T10:44:55Z</time>
      </trkpt>
      <trkpt lat="45.3072" lon="6.04719">
        <ele>1791.8</ele>
        <time>2021-01-16T10:44:56Z</time>
      </trkpt>
      <trkpt lat="45.3072" lon="6.04719">
        <ele>1791.8</ele>
        <time>2021-01-16T10:44:57Z</time>
      </trkpt>
      <trkpt lat="45.3072" lon="6.04719">
        <ele>1791.8</ele>
        <time>2021-01-16T10:44:58Z</time>
      </trkpt>
      <trkpt lat="45.3072" lon="6.04719">
        <ele>1791.8</ele>
        <time>2021-01-16T10:44:59Z</time>
      </trkpt>
      <trkpt lat="45.3072" lon="6.04719">
        <ele>1791.8</ele>
        <time>2021-01-16T10:45:00Z</time>
      </trkpt>
      <trkpt lat="45.3072" lon="6.04719">
        <ele>1791.8</ele>
        <time>2021-01-16T10:45:01Z</time>
      </trkpt>
      <trkpt lat="45.3072" lon="6.04719">
        <ele>1791.8</ele>
        <time>2021-01-16T10:45:02Z</time>
      </trkpt>
      <trkpt lat="45.3072" lon="6.04719">
        <ele>1791.8</ele>
        <time>2021-01-16T10:45:03Z</time>
      </trkpt>
      <trkpt lat="45.3072" lon="6.04719">
        <ele>1791.8</ele>
        <time>2021-01-16T10:45:04Z</time>
      </trkpt>
      <trkpt lat="45.3072" lon="6.04719">
        <ele>1791.8</ele>
        <time>2021-01-16T10:45:05Z</time>
      </trkpt>
      <trkpt lat="45.3072" lon="6.04719">
        <ele>1791.8</ele>
        <time>2021-01-16T10:45:06Z</time>
      </trkpt>
      <trkpt lat="45.3072" lon="6.04719">
        <ele>1791.8</ele>
        <time>2021-01-16T10:45:07Z</time>
      </trkpt>
      <trkpt lat="45.3072" lon="6.04719">
        <ele>1791.8</ele>
        <time>2021-01-16T10:45:08Z</time>
      </trkpt>
      <trkpt lat="45.3072" lon="6.04719">
        <ele>1791.8</ele>
        <time>2021-01-16T10:45:09Z</time>
      </trkpt>
      <trkpt lat="45.3072" lon="6.04719">
        <ele>1792</ele>
        <time>2021-01-16T10:45:10Z</time>
      </trkpt>
      <trkpt lat="45.3072" lon="6.04719">
        <ele>1792</ele>
        <time>2021-01-16T10:45:11Z</time>
      </trkpt>
      <trkpt lat="45.3072" lon="6.04719">
        <ele>1792</ele>
        <time>2021-01-16T10:45:12Z</time>
      </trkpt>
      <trkpt lat="45.3072" lon="6.04719">
        <ele>1792</ele>
        <time>2021-01-16T10:45:13Z</time>
      </trkpt>
      <trkpt lat="45.3072" lon="6.04719">
        <ele>1791.8</ele>
        <time>2021-01-16T10:45:14Z</time>
      </trkpt>
      <trkpt lat="45.3072" lon="6.04719">
        <ele>1791.8</ele>
        <time>2021-01-16T10:45:15Z</time>
      </trkpt>
      <trkpt lat="45.3072" lon="6.04719">
        <ele>1791.8</ele>
        <time>2021-01-16T10:45:16Z</time>
      </trkpt>
      <trkpt lat="45.3072" lon="6.04719">
        <ele>1791.8</ele>
        <time>2021-01-16T10:45:17Z</time>
      </trkpt>
      <trkpt lat="45.3072" lon="6.04719">
        <ele>1792</ele>
        <time>2021-01-16T10:45:18Z</time>
      </trkpt>
      <trkpt lat="45.3072" lon="6.04719">
        <ele>1791.8</ele>
        <time>2021-01-16T10:45:19Z</time>
      </trkpt>
      <trkpt lat="45.3072" lon="6.04719">
        <ele>1791.8</ele>
        <time>2021-01-16T10:45:20Z</time>
      </trkpt>
      <trkpt lat="45.3072" lon="6.04719">
        <ele>1792</ele>
        <time>2021-01-16T10:45:21Z</time>
      </trkpt>
      <trkpt lat="45.3072" lon="6.04719">
        <ele>1792</ele>
        <time>2021-01-16T10:45:22Z</time>
      </trkpt>
      <trkpt lat="45.3072" lon="6.04719">
        <ele>1792.2</ele>
        <time>2021-01-16T10:45:23Z</time>
      </trkpt>
      <trkpt lat="45.3072" lon="6.04719">
        <ele>1792.2</ele>
        <time>2021-01-16T10:45:24Z</time>
      </trkpt>
      <trkpt lat="45.3072" lon="6.04719">
        <ele>1792.2</ele>
        <time>2021-01-16T10:45:25Z</time>
      </trkpt>
      <trkpt lat="45.3072" lon="6.04719">
        <ele>1792</ele>
        <time>2021-01-16T10:45:26Z</time>
      </trkpt>
      <trkpt lat="45.3072" lon="6.04719">
        <ele>1792</ele>
        <time>2021-01-16T10:45:27Z</time>
      </trkpt>
      <trkpt lat="45.3072" lon="6.04719">
        <ele>1792</ele>
        <time>2021-01-16T10:45:28Z</time>
      </trkpt>
      <trkpt lat="45.3072" lon="6.04719">
        <ele>1792</ele>
        <time>2021-01-16T10:45:29Z</time>
      </trkpt>
      <trkpt lat="45.3072" lon="6.04719">
        <ele>1792</ele>
        <time>2021-01-16T10:45:30Z</time>
      </trkpt>
      <trkpt lat="45.3072" lon="6.04719">
        <ele>1792</ele>
        <time>2021-01-16T10:45:31Z</time>
      </trkpt>
      <trkpt lat="45.3072" lon="6.04719">
        <ele>1792</ele>
        <time>2021-01-16T10:45:32Z</time>
      </trkpt>
      <trkpt lat="45.3072" lon="6.04719">
        <ele>1792</ele>
        <time>2021-01-16T10:45:33Z</time>
      </trkpt>
      <trkpt lat="45.3072" lon="6.04719">
        <ele>1792</ele>
        <time>2021-01-16T10:45:34Z</time>
      </trkpt>
      <trkpt lat="45.3072" lon="6.04719">
        <ele>1792.2</ele>
        <time>2021-01-16T10:45:35Z</time>
      </trkpt>
      <trkpt lat="45.3072" lon="6.04719">
        <ele>1792.2</ele>
        <time>2021-01-16T10:45:36Z</time>
      </trkpt>
      <trkpt lat="45.3072" lon="6.04719">
        <ele>1792</ele>
        <time>2021-01-16T10:45:37Z</time>
      </trkpt>
      <trkpt lat="45.3072" lon="6.04719">
        <ele>1792.2</ele>
        <time>2021-01-16T10:45:38Z</time>
      </trkpt>
      <trkpt lat="45.3072" lon="6.04719">
        <ele>1792.2</ele>
        <time>2021-01-16T10:45:39Z</time>
      </trkpt>
      <trkpt lat="45.3072" lon="6.04719">
        <ele>1792.2</ele>
        <time>2021-01-16T10:45:40Z</time>
      </trkpt>
      <trkpt lat="45.3072" lon="6.04719">
        <ele>1792.2</ele>
        <time>2021-01-16T10:45:41Z</time>
      </trkpt>
      <trkpt lat="45.3072" lon="6.04719">
        <ele>1792.2</ele>
        <time>2021-01-16T10:45:42Z</time>
      </trkpt>
      <trkpt lat="45.3072" lon="6.04719">
        <ele>1792.2</ele>
        <time>2021-01-16T10:45:43Z</time>
      </trkpt>
      <trkpt lat="45.3072" lon="6.04719">
        <ele>1792.2</ele>
        <time>2021-01-16T10:45:44Z</time>
      </trkpt>
      <trkpt lat="45.3072" lon="6.04719">
        <ele>1792.2</ele>
        <time>2021-01-16T10:45:45Z</time>
      </trkpt>
      <trkpt lat="45.3072" lon="6.04719">
        <ele>1792.2</ele>
        <time>2021-01-16T10:45:46Z</time>
      </trkpt>
      <trkpt lat="45.3072" lon="6.04719">
        <ele>1792.2</ele>
        <time>2021-01-16T10:45:47Z</time>
      </trkpt>
      <trkpt lat="45.3072" lon="6.04719">
        <ele>1792.2</ele>
        <time>2021-01-16T10:45:48Z</time>
      </trkpt>
      <trkpt lat="45.3072" lon="6.04719">
        <ele>1792.2</ele>
        <time>2021-01-16T10:45:49Z</time>
      </trkpt>
      <trkpt lat="45.3072" lon="6.04719">
        <ele>1792.2</ele>
        <time>2021-01-16T10:45:50Z</time>
      </trkpt>
      <trkpt lat="45.3072" lon="6.04719">
        <ele>1792.2</ele>
        <time>2021-01-16T10:45:51Z</time>
      </trkpt>
      <trkpt lat="45.3072" lon="6.04719">
        <ele>1792.2</ele>
        <time>2021-01-16T10:45:52Z</time>
      </trkpt>
      <trkpt lat="45.3072" lon="6.04719">
        <ele>1791.8</ele>
        <time>2021-01-16T10:45:53Z</time>
      </trkpt>
      <trkpt lat="45.3072" lon="6.04719">
        <ele>1792.2</ele>
        <time>2021-01-16T10:45:54Z</time>
      </trkpt>
      <trkpt lat="45.3072" lon="6.04719">
        <ele>1792.4</ele>
        <time>2021-01-16T10:45:55Z</time>
      </trkpt>
      <trkpt lat="45.3072" lon="6.04719">
        <ele>1792.4</ele>
        <time>2021-01-16T10:45:56Z</time>
      </trkpt>
      <trkpt lat="45.3072" lon="6.04719">
        <ele>1792.2</ele>
        <time>2021-01-16T10:45:57Z</time>
      </trkpt>
      <trkpt lat="45.3072" lon="6.04719">
        <ele>1792.2</ele>
        <time>2021-01-16T10:45:58Z</time>
      </trkpt>
      <trkpt lat="45.3072" lon="6.04719">
        <ele>1792.4</ele>
        <time>2021-01-16T10:45:59Z</time>
      </trkpt>
      <trkpt lat="45.3072" lon="6.04719">
        <ele>1792.6</ele>
        <time>2021-01-16T10:46:00Z</time>
      </trkpt>
      <trkpt lat="45.3072" lon="6.04719">
        <ele>1792.6</ele>
        <time>2021-01-16T10:46:01Z</time>
      </trkpt>
      <trkpt lat="45.3072" lon="6.04719">
        <ele>1792.8</ele>
        <time>2021-01-16T10:46:02Z</time>
      </trkpt>
      <trkpt lat="45.3072" lon="6.04719">
        <ele>1792.8</ele>
        <time>2021-01-16T10:46:03Z</time>
      </trkpt>
      <trkpt lat="45.3072" lon="6.04719">
        <ele>1792.8</ele>
        <time>2021-01-16T10:46:04Z</time>
      </trkpt>
      <trkpt lat="45.3072" lon="6.04719">
        <ele>1793</ele>
        <time>2021-01-16T10:46:05Z</time>
      </trkpt>
      <trkpt lat="45.3072" lon="6.04719">
        <ele>1793</ele>
        <time>2021-01-16T10:46:06Z</time>
      </trkpt>
      <trkpt lat="45.3072" lon="6.04719">
        <ele>1793</ele>
        <time>2021-01-16T10:46:07Z</time>
      </trkpt>
      <trkpt lat="45.3072" lon="6.04719">
        <ele>1793</ele>
        <time>2021-01-16T10:46:08Z</time>
      </trkpt>
      <trkpt lat="45.3072" lon="6.04719">
        <ele>1793</ele>
        <time>2021-01-16T10:46:09Z</time>
      </trkpt>
      <trkpt lat="45.3072" lon="6.04719">
        <ele>1793</ele>
        <time>2021-01-16T10:46:10Z</time>
      </trkpt>
      <trkpt lat="45.3072" lon="6.04719">
        <ele>1793</ele>
        <time>2021-01-16T10:46:11Z</time>
      </trkpt>
      <trkpt lat="45.3072" lon="6.04719">
        <ele>1793.2</ele>
        <time>2021-01-16T10:46:12Z</time>
      </trkpt>
      <trkpt lat="45.3072" lon="6.04719">
        <ele>1793.2</ele>
        <time>2021-01-16T10:46:13Z</time>
      </trkpt>
      <trkpt lat="45.3072" lon="6.04719">
        <ele>1793.2</ele>
        <time>2021-01-16T10:46:14Z</time>
      </trkpt>
      <trkpt lat="45.3072" lon="6.04719">
        <ele>1793.2</ele>
        <time>2021-01-16T10:46:15Z</time>
      </trkpt>
      <trkpt lat="45.3072" lon="6.04719">
        <ele>1793.2</ele>
        <time>2021-01-16T10:46:16Z</time>
      </trkpt>
      <trkpt lat="45.3072" lon="6.04719">
        <ele>1793</ele>
        <time>2021-01-16T10:46:17Z</time>
      </trkpt>
      <trkpt lat="45.3072" lon="6.04719">
        <ele>1793</ele>
        <time>2021-01-16T10:46:18Z</time>
      </trkpt>
      <trkpt lat="45.3072" lon="6.04719">
        <ele>1793</ele>
        <time>2021-01-16T10:46:19Z</time>
      </trkpt>
      <trkpt lat="45.3072" lon="6.04719">
        <ele>1792.8</ele>
        <time>2021-01-16T10:46:20Z</time>
      </trkpt>
      <trkpt lat="45.3072" lon="6.04719">
        <ele>1792.8</ele>
        <time>2021-01-16T10:46:21Z</time>
      </trkpt>
      <trkpt lat="45.3072" lon="6.04719">
        <ele>1793</ele>
        <time>2021-01-16T10:46:22Z</time>
      </trkpt>
      <trkpt lat="45.3072" lon="6.04719">
        <ele>1793</ele>
        <time>2021-01-16T10:46:23Z</time>
      </trkpt>
      <trkpt lat="45.3072" lon="6.04719">
        <ele>1793</ele>
        <time>2021-01-16T10:46:24Z</time>
      </trkpt>
      <trkpt lat="45.3072" lon="6.04719">
        <ele>1793</ele>
        <time>2021-01-16T10:46:25Z</time>
      </trkpt>
      <trkpt lat="45.3072" lon="6.04719">
        <ele>1793.2</ele>
        <time>2021-01-16T10:46:26Z</time>
      </trkpt>
      <trkpt lat="45.3072" lon="6.04719">
        <ele>1793.2</ele>
        <time>2021-01-16T10:46:27Z</time>
      </trkpt>
      <trkpt lat="45.3072" lon="6.04719">
        <ele>1793.2</ele>
        <time>2021-01-16T10:46:28Z</time>
      </trkpt>
      <trkpt lat="45.3072" lon="6.04719">
        <ele>1793.2</ele>
        <time>2021-01-16T10:46:29Z</time>
      </trkpt>
      <trkpt lat="45.3072" lon="6.04719">
        <ele>1793.2</ele>
        <time>2021-01-16T10:46:30Z</time>
      </trkpt>
      <trkpt lat="45.3072" lon="6.04719">
        <ele>1793.2</ele>
        <time>2021-01-16T10:46:31Z</time>
      </trkpt>
      <trkpt lat="45.3072" lon="6.04719">
        <ele>1793.2</ele>
        <time>2021-01-16T10:46:32Z</time>
      </trkpt>
      <trkpt lat="45.3072" lon="6.04719">
        <ele>1793.2</ele>
        <time>2021-01-16T10:46:33Z</time>
      </trkpt>
      <trkpt lat="45.3072" lon="6.04719">
        <ele>1793.2</ele>
        <time>2021-01-16T10:46:34Z</time>
      </trkpt>
      <trkpt lat="45.3072" lon="6.04719">
        <ele>1793.2</ele>
        <time>2021-01-16T10:46:35Z</time>
      </trkpt>
      <trkpt lat="45.3072" lon="6.04719">
        <ele>1793.4</ele>
        <time>2021-01-16T10:46:36Z</time>
      </trkpt>
      <trkpt lat="45.3072" lon="6.04719">
        <ele>1793.2</ele>
        <time>2021-01-16T10:46:37Z</time>
      </trkpt>
      <trkpt lat="45.3072" lon="6.04719">
        <ele>1793.2</ele>
        <time>2021-01-16T10:46:38Z</time>
      </trkpt>
      <trkpt lat="45.3072" lon="6.04719">
        <ele>1793.4</ele>
        <time>2021-01-16T10:46:39Z</time>
      </trkpt>
      <trkpt lat="45.3072" lon="6.04719">
        <ele>1793.4</ele>
        <time>2021-01-16T10:46:40Z</time>
      </trkpt>
      <trkpt lat="45.3072" lon="6.04719">
        <ele>1793.4</ele>
        <time>2021-01-16T10:46:41Z</time>
      </trkpt>
      <trkpt lat="45.3072" lon="6.04719">
        <ele>1793.4</ele>
        <time>2021-01-16T10:46:42Z</time>
      </trkpt>
      <trkpt lat="45.3072" lon="6.04719">
        <ele>1793.4</ele>
        <time>2021-01-16T10:46:43Z</time>
      </trkpt>
      <trkpt lat="45.3072" lon="6.04719">
        <ele>1793.4</ele>
        <time>2021-01-16T10:46:44Z</time>
      </trkpt>
      <trkpt lat="45.3072" lon="6.04719">
        <ele>1793.4</ele>
        <time>2021-01-16T10:46:45Z</time>
      </trkpt>
      <trkpt lat="45.3072" lon="6.04719">
        <ele>1793.4</ele>
        <time>2021-01-16T10:46:46Z</time>
      </trkpt>
      <trkpt lat="45.3072" lon="6.04719">
        <ele>1793.4</ele>
        <time>2021-01-16T10:46:47Z</time>
      </trkpt>
      <trkpt lat="45.3072" lon="6.04719">
        <ele>1793.6</ele>
        <time>2021-01-16T10:46:48Z</time>
      </trkpt>
      <trkpt lat="45.3072" lon="6.04719">
        <ele>1793.6</ele>
        <time>2021-01-16T10:46:49Z</time>
      </trkpt>
      <trkpt lat="45.3072" lon="6.04719">
        <ele>1793.6</ele>
        <time>2021-01-16T10:46:50Z</time>
      </trkpt>
      <trkpt lat="45.3072" lon="6.04719">
        <ele>1793.6</ele>
        <time>2021-01-16T10:46:51Z</time>
      </trkpt>
      <trkpt lat="45.3072" lon="6.04719">
        <ele>1793.6</ele>
        <time>2021-01-16T10:46:52Z</time>
      </trkpt>
      <trkpt lat="45.3072" lon="6.04719">
        <ele>1793.6</ele>
        <time>2021-01-16T10:46:53Z</time>
      </trkpt>
      <trkpt lat="45.3072" lon="6.04719">
        <ele>1793.6</ele>
        <time>2021-01-16T10:46:54Z</time>
      </trkpt>
      <trkpt lat="45.3072" lon="6.04719">
        <ele>1793.6</ele>
        <time>2021-01-16T10:46:55Z</time>
      </trkpt>
      <trkpt lat="45.3072" lon="6.04719">
        <ele>1793.6</ele>
        <time>2021-01-16T10:46:56Z</time>
      </trkpt>
      <trkpt lat="45.3072" lon="6.04719">
        <ele>1793.6</ele>
        <time>2021-01-16T10:46:57Z</time>
      </trkpt>
      <trkpt lat="45.3072" lon="6.04719">
        <ele>1793.6</ele>
        <time>2021-01-16T10:46:58Z</time>
      </trkpt>
      <trkpt lat="45.3072" lon="6.04719">
        <ele>1793.6</ele>
        <time>2021-01-16T10:46:59Z</time>
      </trkpt>
      <trkpt lat="45.3072" lon="6.04719">
        <ele>1793.6</ele>
        <time>2021-01-16T10:47:00Z</time>
      </trkpt>
      <trkpt lat="45.3072" lon="6.04719">
        <ele>1793.6</ele>
        <time>2021-01-16T10:47:01Z</time>
      </trkpt>
      <trkpt lat="45.3072" lon="6.04719">
        <ele>1793.6</ele>
        <time>2021-01-16T10:47:02Z</time>
      </trkpt>
      <trkpt lat="45.3072" lon="6.04719">
        <ele>1793.8</ele>
        <time>2021-01-16T10:47:03Z</time>
      </trkpt>
      <trkpt lat="45.3072" lon="6.04719">
        <ele>1793.8</ele>
        <time>2021-01-16T10:47:04Z</time>
      </trkpt>
      <trkpt lat="45.3072" lon="6.04719">
        <ele>1794</ele>
        <time>2021-01-16T10:47:05Z</time>
      </trkpt>
      <trkpt lat="45.3072" lon="6.04719">
        <ele>1794</ele>
        <time>2021-01-16T10:47:06Z</time>
      </trkpt>
      <trkpt lat="45.3072" lon="6.04719">
        <ele>1794</ele>
        <time>2021-01-16T10:47:07Z</time>
      </trkpt>
      <trkpt lat="45.3072" lon="6.04719">
        <ele>1794</ele>
        <time>2021-01-16T10:47:08Z</time>
      </trkpt>
      <trkpt lat="45.3072" lon="6.04719">
        <ele>1794</ele>
        <time>2021-01-16T10:47:09Z</time>
      </trkpt>
      <trkpt lat="45.3072" lon="6.04719">
        <ele>1794.2</ele>
        <time>2021-01-16T10:47:10Z</time>
      </trkpt>
      <trkpt lat="45.3072" lon="6.04719">
        <ele>1794.2</ele>
        <time>2021-01-16T10:47:11Z</time>
      </trkpt>
      <trkpt lat="45.3072" lon="6.04719">
        <ele>1794.4</ele>
        <time>2021-01-16T10:47:12Z</time>
      </trkpt>
      <trkpt lat="45.3072" lon="6.04719">
        <ele>1794.4</ele>
        <time>2021-01-16T10:47:13Z</time>
      </trkpt>
      <trkpt lat="45.3072" lon="6.04719">
        <ele>1794.6</ele>
        <time>2021-01-16T10:47:14Z</time>
      </trkpt>
      <trkpt lat="45.3072" lon="6.04719">
        <ele>1794.6</ele>
        <time>2021-01-16T10:47:15Z</time>
      </trkpt>
      <trkpt lat="45.3072" lon="6.04719">
        <ele>1794.8</ele>
        <time>2021-01-16T10:47:16Z</time>
      </trkpt>
      <trkpt lat="45.30719" lon="6.0472">
        <ele>1794.6</ele>
        <time>2021-01-16T10:47:17Z</time>
      </trkpt>
      <trkpt lat="45.30712" lon="6.04724">
        <ele>1794.8</ele>
        <time>2021-01-16T10:47:18Z</time>
      </trkpt>
      <trkpt lat="45.30712" lon="6.04724">
        <ele>1794.8</ele>
        <time>2021-01-16T10:47:19Z</time>
      </trkpt>
      <trkpt lat="45.30711" lon="6.04724">
        <ele>1795</ele>
        <time>2021-01-16T10:47:20Z</time>
      </trkpt>
      <trkpt lat="45.30711" lon="6.04724">
        <ele>1795</ele>
        <time>2021-01-16T10:47:21Z</time>
      </trkpt>
      <trkpt lat="45.30711" lon="6.04724">
        <ele>1795.2</ele>
        <time>2021-01-16T10:47:22Z</time>
      </trkpt>
      <trkpt lat="45.30711" lon="6.04724">
        <ele>1795.2</ele>
        <time>2021-01-16T10:47:23Z</time>
      </trkpt>
      <trkpt lat="45.30711" lon="6.04724">
        <ele>1795.4</ele>
        <time>2021-01-16T10:47:24Z</time>
      </trkpt>
      <trkpt lat="45.30711" lon="6.04724">
        <ele>1795.6</ele>
        <time>2021-01-16T10:47:25Z</time>
      </trkpt>
      <trkpt lat="45.30711" lon="6.04724">
        <ele>1795.6</ele>
        <time>2021-01-16T10:47:26Z</time>
      </trkpt>
      <trkpt lat="45.30711" lon="6.04724">
        <ele>1795.8</ele>
        <time>2021-01-16T10:47:27Z</time>
      </trkpt>
      <trkpt lat="45.30711" lon="6.04724">
        <ele>1795.8</ele>
        <time>2021-01-16T10:47:28Z</time>
      </trkpt>
      <trkpt lat="45.30711" lon="6.04724">
        <ele>1796</ele>
        <time>2021-01-16T10:47:29Z</time>
      </trkpt>
      <trkpt lat="45.30711" lon="6.04724">
        <ele>1796</ele>
        <time>2021-01-16T10:47:30Z</time>
      </trkpt>
      <trkpt lat="45.30711" lon="6.04724">
        <ele>1796</ele>
        <time>2021-01-16T10:47:31Z</time>
      </trkpt>
      <trkpt lat="45.30711" lon="6.04724">
        <ele>1796.2</ele>
        <time>2021-01-16T10:47:32Z</time>
      </trkpt>
      <trkpt lat="45.30711" lon="6.04724">
        <ele>1796.2</ele>
        <time>2021-01-16T10:47:33Z</time>
      </trkpt>
      <trkpt lat="45.30711" lon="6.04724">
        <ele>1796.2</ele>
        <time>2021-01-16T10:47:34Z</time>
      </trkpt>
      <trkpt lat="45.30711" lon="6.04724">
        <ele>1796.2</ele>
        <time>2021-01-16T10:47:35Z</time>
      </trkpt>
      <trkpt lat="45.30711" lon="6.04724">
        <ele>1796.2</ele>
        <time>2021-01-16T10:47:36Z</time>
      </trkpt>
      <trkpt lat="45.30711" lon="6.04724">
        <ele>1796.4</ele>
        <time>2021-01-16T10:47:37Z</time>
      </trkpt>
      <trkpt lat="45.30711" lon="6.04724">
        <ele>1796.4</ele>
        <time>2021-01-16T10:47:38Z</time>
      </trkpt>
      <trkpt lat="45.30711" lon="6.04724">
        <ele>1796.4</ele>
        <time>2021-01-16T10:47:39Z</time>
      </trkpt>
      <trkpt lat="45.30711" lon="6.04724">
        <ele>1796.4</ele>
        <time>2021-01-16T10:47:40Z</time>
      </trkpt>
      <trkpt lat="45.30711" lon="6.04724">
        <ele>1796.4</ele>
        <time>2021-01-16T10:47:41Z</time>
      </trkpt>
      <trkpt lat="45.30711" lon="6.04724">
        <ele>1796.4</ele>
        <time>2021-01-16T10:47:42Z</time>
      </trkpt>
      <trkpt lat="45.30711" lon="6.04724">
        <ele>1796.4</ele>
        <time>2021-01-16T10:47:43Z</time>
      </trkpt>
      <trkpt lat="45.30711" lon="6.04724">
        <ele>1796.4</ele>
        <time>2021-01-16T10:47:44Z</time>
      </trkpt>
      <trkpt lat="45.30711" lon="6.04724">
        <ele>1796.4</ele>
        <time>2021-01-16T10:47:45Z</time>
      </trkpt>
      <trkpt lat="45.30711" lon="6.04724">
        <ele>1796.4</ele>
        <time>2021-01-16T10:47:46Z</time>
      </trkpt>
      <trkpt lat="45.30711" lon="6.04724">
        <ele>1796.6</ele>
        <time>2021-01-16T10:47:47Z</time>
      </trkpt>
      <trkpt lat="45.30711" lon="6.04724">
        <ele>1796.6</ele>
        <time>2021-01-16T10:47:48Z</time>
      </trkpt>
      <trkpt lat="45.30711" lon="6.04724">
        <ele>1796.6</ele>
        <time>2021-01-16T10:47:49Z</time>
      </trkpt>
      <trkpt lat="45.30711" lon="6.04724">
        <ele>1796.6</ele>
        <time>2021-01-16T10:47:50Z</time>
      </trkpt>
      <trkpt lat="45.30711" lon="6.04724">
        <ele>1796.6</ele>
        <time>2021-01-16T10:47:51Z</time>
      </trkpt>
      <trkpt lat="45.30711" lon="6.04724">
        <ele>1796.6</ele>
        <time>2021-01-16T10:47:52Z</time>
      </trkpt>
      <trkpt lat="45.30711" lon="6.04724">
        <ele>1796.6</ele>
        <time>2021-01-16T10:47:53Z</time>
      </trkpt>
      <trkpt lat="45.30711" lon="6.04724">
        <ele>1796.8</ele>
        <time>2021-01-16T10:47:54Z</time>
      </trkpt>
      <trkpt lat="45.30711" lon="6.04724">
        <ele>1796.8</ele>
        <time>2021-01-16T10:47:55Z</time>
      </trkpt>
      <trkpt lat="45.30709" lon="6.04723">
        <ele>1796.8</ele>
        <time>2021-01-16T10:47:56Z</time>
      </trkpt>
      <trkpt lat="45.30701" lon="6.04722">
        <ele>1796.8</ele>
        <time>2021-01-16T10:47:57Z</time>
      </trkpt>
      <trkpt lat="45.307" lon="6.04722">
        <ele>1796.8</ele>
        <time>2021-01-16T10:47:58Z</time>
      </trkpt>
      <trkpt lat="45.30699" lon="6.04722">
        <ele>1796.8</ele>
        <time>2021-01-16T10:47:59Z</time>
      </trkpt>
      <trkpt lat="45.30698" lon="6.04722">
        <ele>1796.6</ele>
        <time>2021-01-16T10:48:00Z</time>
      </trkpt>
      <trkpt lat="45.30698" lon="6.04722">
        <ele>1796.6</ele>
        <time>2021-01-16T10:48:01Z</time>
      </trkpt>
      <trkpt lat="45.30698" lon="6.04722">
        <ele>1796.6</ele>
        <time>2021-01-16T10:48:02Z</time>
      </trkpt>
      <trkpt lat="45.30698" lon="6.04722">
        <ele>1796.6</ele>
        <time>2021-01-16T10:48:03Z</time>
      </trkpt>
      <trkpt lat="45.30698" lon="6.04722">
        <ele>1796.8</ele>
        <time>2021-01-16T10:48:04Z</time>
      </trkpt>
      <trkpt lat="45.30698" lon="6.04722">
        <ele>1796.8</ele>
        <time>2021-01-16T10:48:05Z</time>
      </trkpt>
      <trkpt lat="45.30698" lon="6.04722">
        <ele>1796.6</ele>
        <time>2021-01-16T10:48:06Z</time>
      </trkpt>
      <trkpt lat="45.30698" lon="6.04722">
        <ele>1796.6</ele>
        <time>2021-01-16T10:48:07Z</time>
      </trkpt>
      <trkpt lat="45.30698" lon="6.04722">
        <ele>1796.6</ele>
        <time>2021-01-16T10:48:08Z</time>
      </trkpt>
      <trkpt lat="45.30698" lon="6.04722">
        <ele>1796.6</ele>
        <time>2021-01-16T10:48:09Z</time>
      </trkpt>
      <trkpt lat="45.30698" lon="6.04722">
        <ele>1796.6</ele>
        <time>2021-01-16T10:48:10Z</time>
      </trkpt>
      <trkpt lat="45.30698" lon="6.04722">
        <ele>1796.6</ele>
        <time>2021-01-16T10:48:11Z</time>
      </trkpt>
      <trkpt lat="45.30698" lon="6.04722">
        <ele>1796.6</ele>
        <time>2021-01-16T10:48:12Z</time>
      </trkpt>
      <trkpt lat="45.30698" lon="6.04722">
        <ele>1796.6</ele>
        <time>2021-01-16T10:48:13Z</time>
      </trkpt>
      <trkpt lat="45.30698" lon="6.04722">
        <ele>1796.6</ele>
        <time>2021-01-16T10:48:14Z</time>
      </trkpt>
      <trkpt lat="45.30698" lon="6.04722">
        <ele>1796.6</ele>
        <time>2021-01-16T10:48:15Z</time>
      </trkpt>
      <trkpt lat="45.30698" lon="6.04722">
        <ele>1796.6</ele>
        <time>2021-01-16T10:48:16Z</time>
      </trkpt>
      <trkpt lat="45.30698" lon="6.04722">
        <ele>1796.8</ele>
        <time>2021-01-16T10:48:17Z</time>
      </trkpt>
      <trkpt lat="45.30698" lon="6.04722">
        <ele>1796.8</ele>
        <time>2021-01-16T10:48:18Z</time>
      </trkpt>
      <trkpt lat="45.30698" lon="6.04722">
        <ele>1796.8</ele>
        <time>2021-01-16T10:48:19Z</time>
      </trkpt>
      <trkpt lat="45.30698" lon="6.04722">
        <ele>1796.8</ele>
        <time>2021-01-16T10:48:20Z</time>
      </trkpt>
      <trkpt lat="45.30698" lon="6.04722">
        <ele>1796.8</ele>
        <time>2021-01-16T10:48:21Z</time>
      </trkpt>
      <trkpt lat="45.30698" lon="6.04722">
        <ele>1796.8</ele>
        <time>2021-01-16T10:48:22Z</time>
      </trkpt>
      <trkpt lat="45.30698" lon="6.04722">
        <ele>1796.8</ele>
        <time>2021-01-16T10:48:23Z</time>
      </trkpt>
      <trkpt lat="45.30698" lon="6.04722">
        <ele>1796.8</ele>
        <time>2021-01-16T10:48:24Z</time>
      </trkpt>
      <trkpt lat="45.30698" lon="6.04722">
        <ele>1796.8</ele>
        <time>2021-01-16T10:48:25Z</time>
      </trkpt>
      <trkpt lat="45.30698" lon="6.04722">
        <ele>1796.8</ele>
        <time>2021-01-16T10:48:26Z</time>
      </trkpt>
      <trkpt lat="45.30698" lon="6.04722">
        <ele>1796.8</ele>
        <time>2021-01-16T10:48:27Z</time>
      </trkpt>
      <trkpt lat="45.30698" lon="6.04722">
        <ele>1796.8</ele>
        <time>2021-01-16T10:48:28Z</time>
      </trkpt>
      <trkpt lat="45.30698" lon="6.04722">
        <ele>1796.8</ele>
        <time>2021-01-16T10:48:29Z</time>
      </trkpt>
      <trkpt lat="45.30698" lon="6.04722">
        <ele>1796.8</ele>
        <time>2021-01-16T10:48:30Z</time>
      </trkpt>
      <trkpt lat="45.30698" lon="6.04722">
        <ele>1797</ele>
        <time>2021-01-16T10:48:31Z</time>
      </trkpt>
      <trkpt lat="45.30698" lon="6.04722">
        <ele>1796.8</ele>
        <time>2021-01-16T10:48:32Z</time>
      </trkpt>
      <trkpt lat="45.30698" lon="6.04722">
        <ele>1797</ele>
        <time>2021-01-16T10:48:33Z</time>
      </trkpt>
      <trkpt lat="45.30698" lon="6.04722">
        <ele>1797</ele>
        <time>2021-01-16T10:48:34Z</time>
      </trkpt>
      <trkpt lat="45.30698" lon="6.04722">
        <ele>1797</ele>
        <time>2021-01-16T10:48:35Z</time>
      </trkpt>
      <trkpt lat="45.30698" lon="6.04722">
        <ele>1797</ele>
        <time>2021-01-16T10:48:36Z</time>
      </trkpt>
      <trkpt lat="45.30698" lon="6.04722">
        <ele>1797</ele>
        <time>2021-01-16T10:48:37Z</time>
      </trkpt>
      <trkpt lat="45.30698" lon="6.04722">
        <ele>1797</ele>
        <time>2021-01-16T10:48:38Z</time>
      </trkpt>
      <trkpt lat="45.30698" lon="6.04722">
        <ele>1797</ele>
        <time>2021-01-16T10:48:39Z</time>
      </trkpt>
      <trkpt lat="45.30698" lon="6.04722">
        <ele>1797</ele>
        <time>2021-01-16T10:48:40Z</time>
      </trkpt>
      <trkpt lat="45.30698" lon="6.04722">
        <ele>1797.2</ele>
        <time>2021-01-16T10:48:41Z</time>
      </trkpt>
      <trkpt lat="45.30698" lon="6.04722">
        <ele>1797</ele>
        <time>2021-01-16T10:48:42Z</time>
      </trkpt>
      <trkpt lat="45.30698" lon="6.04722">
        <ele>1797.2</ele>
        <time>2021-01-16T10:48:43Z</time>
      </trkpt>
      <trkpt lat="45.30698" lon="6.04722">
        <ele>1797.2</ele>
        <time>2021-01-16T10:48:44Z</time>
      </trkpt>
      <trkpt lat="45.30696" lon="6.04722">
        <ele>1797.2</ele>
        <time>2021-01-16T10:48:45Z</time>
      </trkpt>
      <trkpt lat="45.30688" lon="6.0472">
        <ele>1797.2</ele>
        <time>2021-01-16T10:48:46Z</time>
      </trkpt>
      <trkpt lat="45.30688" lon="6.0472">
        <ele>1797.2</ele>
        <time>2021-01-16T10:48:47Z</time>
      </trkpt>
      <trkpt lat="45.30687" lon="6.0472">
        <ele>1797.2</ele>
        <time>2021-01-16T10:48:48Z</time>
      </trkpt>
      <trkpt lat="45.30686" lon="6.04719">
        <ele>1797.2</ele>
        <time>2021-01-16T10:48:49Z</time>
      </trkpt>
      <trkpt lat="45.30686" lon="6.04719">
        <ele>1797.2</ele>
        <time>2021-01-16T10:48:50Z</time>
      </trkpt>
      <trkpt lat="45.30686" lon="6.04719">
        <ele>1797.4</ele>
        <time>2021-01-16T10:48:51Z</time>
      </trkpt>
      <trkpt lat="45.30686" lon="6.04719">
        <ele>1797.4</ele>
        <time>2021-01-16T10:48:52Z</time>
      </trkpt>
      <trkpt lat="45.30686" lon="6.04719">
        <ele>1797.4</ele>
        <time>2021-01-16T10:48:53Z</time>
      </trkpt>
      <trkpt lat="45.30686" lon="6.04719">
        <ele>1797.6</ele>
        <time>2021-01-16T10:48:54Z</time>
      </trkpt>
      <trkpt lat="45.30686" lon="6.04719">
        <ele>1797.6</ele>
        <time>2021-01-16T10:48:55Z</time>
      </trkpt>
      <trkpt lat="45.30686" lon="6.04719">
        <ele>1797.8</ele>
        <time>2021-01-16T10:48:56Z</time>
      </trkpt>
      <trkpt lat="45.30686" lon="6.04719">
        <ele>1797.8</ele>
        <time>2021-01-16T10:48:57Z</time>
      </trkpt>
      <trkpt lat="45.30686" lon="6.04719">
        <ele>1797.8</ele>
        <time>2021-01-16T10:48:58Z</time>
      </trkpt>
      <trkpt lat="45.30686" lon="6.04719">
        <ele>1798</ele>
        <time>2021-01-16T10:48:59Z</time>
      </trkpt>
      <trkpt lat="45.30686" lon="6.04719">
        <ele>1798</ele>
        <time>2021-01-16T10:49:00Z</time>
      </trkpt>
      <trkpt lat="45.30686" lon="6.04719">
        <ele>1798.2</ele>
        <time>2021-01-16T10:49:01Z</time>
      </trkpt>
      <trkpt lat="45.30685" lon="6.04718">
        <ele>1798.2</ele>
        <time>2021-01-16T10:49:02Z</time>
      </trkpt>
      <trkpt lat="45.30677" lon="6.04715">
        <ele>1798.2</ele>
        <time>2021-01-16T10:49:03Z</time>
      </trkpt>
      <trkpt lat="45.30677" lon="6.04715">
        <ele>1798.4</ele>
        <time>2021-01-16T10:49:04Z</time>
      </trkpt>
      <trkpt lat="45.30676" lon="6.04715">
        <ele>1798.6</ele>
        <time>2021-01-16T10:49:05Z</time>
      </trkpt>
      <trkpt lat="45.30676" lon="6.04715">
        <ele>1798.8</ele>
        <time>2021-01-16T10:49:06Z</time>
      </trkpt>
      <trkpt lat="45.30676" lon="6.04715">
        <ele>1798.8</ele>
        <time>2021-01-16T10:49:07Z</time>
      </trkpt>
      <trkpt lat="45.30676" lon="6.04715">
        <ele>1799</ele>
        <time>2021-01-16T10:49:08Z</time>
      </trkpt>
      <trkpt lat="45.30676" lon="6.04715">
        <ele>1799.2</ele>
        <time>2021-01-16T10:49:09Z</time>
      </trkpt>
      <trkpt lat="45.30676" lon="6.04715">
        <ele>1799.2</ele>
        <time>2021-01-16T10:49:10Z</time>
      </trkpt>
      <trkpt lat="45.30676" lon="6.04715">
        <ele>1799.4</ele>
        <time>2021-01-16T10:49:11Z</time>
      </trkpt>
      <trkpt lat="45.30676" lon="6.04715">
        <ele>1799.4</ele>
        <time>2021-01-16T10:49:12Z</time>
      </trkpt>
      <trkpt lat="45.30676" lon="6.04715">
        <ele>1799.6</ele>
        <time>2021-01-16T10:49:13Z</time>
      </trkpt>
      <trkpt lat="45.30676" lon="6.04715">
        <ele>1799.8</ele>
        <time>2021-01-16T10:49:14Z</time>
      </trkpt>
      <trkpt lat="45.30676" lon="6.04715">
        <ele>1800</ele>
        <time>2021-01-16T10:49:15Z</time>
      </trkpt>
      <trkpt lat="45.30676" lon="6.04715">
        <ele>1800.2</ele>
        <time>2021-01-16T10:49:16Z</time>
      </trkpt>
      <trkpt lat="45.30676" lon="6.04715">
        <ele>1800.4</ele>
        <time>2021-01-16T10:49:17Z</time>
      </trkpt>
      <trkpt lat="45.30676" lon="6.04715">
        <ele>1800.4</ele>
        <time>2021-01-16T10:49:18Z</time>
      </trkpt>
      <trkpt lat="45.30676" lon="6.04715">
        <ele>1800.8</ele>
        <time>2021-01-16T10:49:19Z</time>
      </trkpt>
      <trkpt lat="45.30674" lon="6.04714">
        <ele>1800.8</ele>
        <time>2021-01-16T10:49:20Z</time>
      </trkpt>
      <trkpt lat="45.30667" lon="6.04711">
        <ele>1801.2</ele>
        <time>2021-01-16T10:49:21Z</time>
      </trkpt>
      <trkpt lat="45.30666" lon="6.0471">
        <ele>1801.4</ele>
        <time>2021-01-16T10:49:22Z</time>
      </trkpt>
      <trkpt lat="45.30665" lon="6.0471">
        <ele>1801.6</ele>
        <time>2021-01-16T10:49:23Z</time>
      </trkpt>
      <trkpt lat="45.30665" lon="6.04709">
        <ele>1801.8</ele>
        <time>2021-01-16T10:49:24Z</time>
      </trkpt>
      <trkpt lat="45.30665" lon="6.04709">
        <ele>1802</ele>
        <time>2021-01-16T10:49:25Z</time>
      </trkpt>
      <trkpt lat="45.30665" lon="6.04709">
        <ele>1802.2</ele>
        <time>2021-01-16T10:49:26Z</time>
      </trkpt>
      <trkpt lat="45.30665" lon="6.04709">
        <ele>1802.6</ele>
        <time>2021-01-16T10:49:27Z</time>
      </trkpt>
      <trkpt lat="45.30665" lon="6.04709">
        <ele>1802.8</ele>
        <time>2021-01-16T10:49:28Z</time>
      </trkpt>
      <trkpt lat="45.30665" lon="6.04709">
        <ele>1803</ele>
        <time>2021-01-16T10:49:29Z</time>
      </trkpt>
      <trkpt lat="45.30665" lon="6.04709">
        <ele>1803</ele>
        <time>2021-01-16T10:49:30Z</time>
      </trkpt>
      <trkpt lat="45.30665" lon="6.04709">
        <ele>1803.2</ele>
        <time>2021-01-16T10:49:31Z</time>
      </trkpt>
      <trkpt lat="45.30665" lon="6.04709">
        <ele>1803.2</ele>
        <time>2021-01-16T10:49:32Z</time>
      </trkpt>
      <trkpt lat="45.30665" lon="6.04709">
        <ele>1803.4</ele>
        <time>2021-01-16T10:49:33Z</time>
      </trkpt>
      <trkpt lat="45.30665" lon="6.04709">
        <ele>1803.6</ele>
        <time>2021-01-16T10:49:34Z</time>
      </trkpt>
      <trkpt lat="45.30665" lon="6.04709">
        <ele>1803.8</ele>
        <time>2021-01-16T10:49:35Z</time>
      </trkpt>
      <trkpt lat="45.30665" lon="6.04709">
        <ele>1804</ele>
        <time>2021-01-16T10:49:36Z</time>
      </trkpt>
      <trkpt lat="45.30665" lon="6.04709">
        <ele>1804</ele>
        <time>2021-01-16T10:49:37Z</time>
      </trkpt>
      <trkpt lat="45.30665" lon="6.04709">
        <ele>1804.2</ele>
        <time>2021-01-16T10:49:38Z</time>
      </trkpt>
      <trkpt lat="45.30665" lon="6.04709">
        <ele>1804.4</ele>
        <time>2021-01-16T10:49:39Z</time>
      </trkpt>
      <trkpt lat="45.30665" lon="6.04709">
        <ele>1804.4</ele>
        <time>2021-01-16T10:49:40Z</time>
      </trkpt>
      <trkpt lat="45.30665" lon="6.04709">
        <ele>1804.4</ele>
        <time>2021-01-16T10:49:41Z</time>
      </trkpt>
      <trkpt lat="45.30665" lon="6.04709">
        <ele>1804.6</ele>
        <time>2021-01-16T10:49:42Z</time>
      </trkpt>
      <trkpt lat="45.30665" lon="6.04709">
        <ele>1804.8</ele>
        <time>2021-01-16T10:49:43Z</time>
      </trkpt>
      <trkpt lat="45.30665" lon="6.04709">
        <ele>1805</ele>
        <time>2021-01-16T10:49:44Z</time>
      </trkpt>
      <trkpt lat="45.30663" lon="6.04709">
        <ele>1805</ele>
        <time>2021-01-16T10:49:45Z</time>
      </trkpt>
      <trkpt lat="45.30656" lon="6.04705">
        <ele>1805.2</ele>
        <time>2021-01-16T10:49:46Z</time>
      </trkpt>
      <trkpt lat="45.30656" lon="6.04705">
        <ele>1805.2</ele>
        <time>2021-01-16T10:49:47Z</time>
      </trkpt>
      <trkpt lat="45.30656" lon="6.04705">
        <ele>1805.4</ele>
        <time>2021-01-16T10:49:48Z</time>
      </trkpt>
      <trkpt lat="45.30655" lon="6.04706">
        <ele>1805.4</ele>
        <time>2021-01-16T10:49:49Z</time>
      </trkpt>
      <trkpt lat="45.30655" lon="6.04706">
        <ele>1805.4</ele>
        <time>2021-01-16T10:49:50Z</time>
      </trkpt>
      <trkpt lat="45.30655" lon="6.04706">
        <ele>1805.6</ele>
        <time>2021-01-16T10:49:51Z</time>
      </trkpt>
      <trkpt lat="45.30655" lon="6.04706">
        <ele>1805.6</ele>
        <time>2021-01-16T10:49:52Z</time>
      </trkpt>
      <trkpt lat="45.30655" lon="6.04706">
        <ele>1805.8</ele>
        <time>2021-01-16T10:49:53Z</time>
      </trkpt>
      <trkpt lat="45.30655" lon="6.04706">
        <ele>1805.8</ele>
        <time>2021-01-16T10:49:54Z</time>
      </trkpt>
      <trkpt lat="45.30655" lon="6.04706">
        <ele>1806</ele>
        <time>2021-01-16T10:49:55Z</time>
      </trkpt>
      <trkpt lat="45.30655" lon="6.04706">
        <ele>1806.2</ele>
        <time>2021-01-16T10:49:56Z</time>
      </trkpt>
      <trkpt lat="45.30655" lon="6.04706">
        <ele>1806.4</ele>
        <time>2021-01-16T10:49:57Z</time>
      </trkpt>
      <trkpt lat="45.30655" lon="6.04706">
        <ele>1806.4</ele>
        <time>2021-01-16T10:49:58Z</time>
      </trkpt>
      <trkpt lat="45.30655" lon="6.04706">
        <ele>1806.4</ele>
        <time>2021-01-16T10:49:59Z</time>
      </trkpt>
      <trkpt lat="45.30655" lon="6.04706">
        <ele>1806.4</ele>
        <time>2021-01-16T10:50:00Z</time>
      </trkpt>
      <trkpt lat="45.30655" lon="6.04706">
        <ele>1806.6</ele>
        <time>2021-01-16T10:50:01Z</time>
      </trkpt>
      <trkpt lat="45.30655" lon="6.04706">
        <ele>1806.6</ele>
        <time>2021-01-16T10:50:02Z</time>
      </trkpt>
      <trkpt lat="45.30655" lon="6.04706">
        <ele>1806.8</ele>
        <time>2021-01-16T10:50:03Z</time>
      </trkpt>
      <trkpt lat="45.30655" lon="6.04706">
        <ele>1806.8</ele>
        <time>2021-01-16T10:50:04Z</time>
      </trkpt>
      <trkpt lat="45.30654" lon="6.04707">
        <ele>1807</ele>
        <time>2021-01-16T10:50:05Z</time>
      </trkpt>
      <trkpt lat="45.30648" lon="6.04714">
        <ele>1807.2</ele>
        <time>2021-01-16T10:50:06Z</time>
      </trkpt>
      <trkpt lat="45.30648" lon="6.04714">
        <ele>1807.2</ele>
        <time>2021-01-16T10:50:07Z</time>
      </trkpt>
      <trkpt lat="45.30647" lon="6.04714">
        <ele>1807.6</ele>
        <time>2021-01-16T10:50:08Z</time>
      </trkpt>
      <trkpt lat="45.30647" lon="6.04714">
        <ele>1807.4</ele>
        <time>2021-01-16T10:50:09Z</time>
      </trkpt>
      <trkpt lat="45.30647" lon="6.04714">
        <ele>1807.8</ele>
        <time>2021-01-16T10:50:10Z</time>
      </trkpt>
      <trkpt lat="45.30647" lon="6.04714">
        <ele>1807.6</ele>
        <time>2021-01-16T10:50:11Z</time>
      </trkpt>
      <trkpt lat="45.30647" lon="6.04714">
        <ele>1808</ele>
        <time>2021-01-16T10:50:12Z</time>
      </trkpt>
      <trkpt lat="45.30647" lon="6.04714">
        <ele>1808.2</ele>
        <time>2021-01-16T10:50:13Z</time>
      </trkpt>
      <trkpt lat="45.30647" lon="6.04714">
        <ele>1808.4</ele>
        <time>2021-01-16T10:50:14Z</time>
      </trkpt>
      <trkpt lat="45.30647" lon="6.04714">
        <ele>1808.6</ele>
        <time>2021-01-16T10:50:15Z</time>
      </trkpt>
      <trkpt lat="45.30647" lon="6.04714">
        <ele>1808.6</ele>
        <time>2021-01-16T10:50:16Z</time>
      </trkpt>
      <trkpt lat="45.30646" lon="6.04714">
        <ele>1808.6</ele>
        <time>2021-01-16T10:50:17Z</time>
      </trkpt>
      <trkpt lat="45.30646" lon="6.04714">
        <ele>1808.8</ele>
        <time>2021-01-16T10:50:18Z</time>
      </trkpt>
      <trkpt lat="45.30646" lon="6.04714">
        <ele>1808.6</ele>
        <time>2021-01-16T10:50:19Z</time>
      </trkpt>
      <trkpt lat="45.30646" lon="6.04714">
        <ele>1809</ele>
        <time>2021-01-16T10:50:20Z</time>
      </trkpt>
      <trkpt lat="45.30646" lon="6.04714">
        <ele>1809</ele>
        <time>2021-01-16T10:50:21Z</time>
      </trkpt>
      <trkpt lat="45.30646" lon="6.04714">
        <ele>1809.4</ele>
        <time>2021-01-16T10:50:22Z</time>
      </trkpt>
      <trkpt lat="45.30646" lon="6.04714">
        <ele>1809.6</ele>
        <time>2021-01-16T10:50:23Z</time>
      </trkpt>
      <trkpt lat="45.30646" lon="6.04714">
        <ele>1809.6</ele>
        <time>2021-01-16T10:50:24Z</time>
      </trkpt>
      <trkpt lat="45.30646" lon="6.04714">
        <ele>1809.8</ele>
        <time>2021-01-16T10:50:25Z</time>
      </trkpt>
      <trkpt lat="45.30645" lon="6.04714">
        <ele>1809.8</ele>
        <time>2021-01-16T10:50:26Z</time>
      </trkpt>
      <trkpt lat="45.30645" lon="6.04714">
        <ele>1809.8</ele>
        <time>2021-01-16T10:50:27Z</time>
      </trkpt>
      <trkpt lat="45.30645" lon="6.04713">
        <ele>1809.8</ele>
        <time>2021-01-16T10:50:28Z</time>
      </trkpt>
      <trkpt lat="45.30645" lon="6.04713">
        <ele>1810</ele>
        <time>2021-01-16T10:50:29Z</time>
      </trkpt>
      <trkpt lat="45.30645" lon="6.04713">
        <ele>1810.2</ele>
        <time>2021-01-16T10:50:30Z</time>
      </trkpt>
      <trkpt lat="45.30645" lon="6.04713">
        <ele>1810.2</ele>
        <time>2021-01-16T10:50:31Z</time>
      </trkpt>
      <trkpt lat="45.30645" lon="6.04713">
        <ele>1810.4</ele>
        <time>2021-01-16T10:50:32Z</time>
      </trkpt>
      <trkpt lat="45.30645" lon="6.04713">
        <ele>1810.4</ele>
        <time>2021-01-16T10:50:33Z</time>
      </trkpt>
      <trkpt lat="45.30645" lon="6.04713">
        <ele>1810.4</ele>
        <time>2021-01-16T10:50:34Z</time>
      </trkpt>
      <trkpt lat="45.30645" lon="6.04713">
        <ele>1810.4</ele>
        <time>2021-01-16T10:50:35Z</time>
      </trkpt>
      <trkpt lat="45.30644" lon="6.04713">
        <ele>1810.6</ele>
        <time>2021-01-16T10:50:36Z</time>
      </trkpt>
      <trkpt lat="45.30644" lon="6.04713">
        <ele>1810.6</ele>
        <time>2021-01-16T10:50:37Z</time>
      </trkpt>
      <trkpt lat="45.30644" lon="6.04713">
        <ele>1810.6</ele>
        <time>2021-01-16T10:50:38Z</time>
      </trkpt>
      <trkpt lat="45.30644" lon="6.04713">
        <ele>1810.8</ele>
        <time>2021-01-16T10:50:39Z</time>
      </trkpt>
      <trkpt lat="45.30644" lon="6.04713">
        <ele>1811</ele>
        <time>2021-01-16T10:50:40Z</time>
      </trkpt>
      <trkpt lat="45.30644" lon="6.04713">
        <ele>1811.2</ele>
        <time>2021-01-16T10:50:41Z</time>
      </trkpt>
      <trkpt lat="45.30644" lon="6.04713">
        <ele>1811.2</ele>
        <time>2021-01-16T10:50:42Z</time>
      </trkpt>
      <trkpt lat="45.30644" lon="6.04713">
        <ele>1811.4</ele>
        <time>2021-01-16T10:50:43Z</time>
      </trkpt>
      <trkpt lat="45.30644" lon="6.04713">
        <ele>1811.4</ele>
        <time>2021-01-16T10:50:44Z</time>
      </trkpt>
      <trkpt lat="45.30643" lon="6.04713">
        <ele>1811.6</ele>
        <time>2021-01-16T10:50:45Z</time>
      </trkpt>
      <trkpt lat="45.30643" lon="6.04713">
        <ele>1811.8</ele>
        <time>2021-01-16T10:50:46Z</time>
      </trkpt>
      <trkpt lat="45.30643" lon="6.04713">
        <ele>1811.8</ele>
        <time>2021-01-16T10:50:47Z</time>
      </trkpt>
      <trkpt lat="45.30643" lon="6.04713">
        <ele>1812</ele>
        <time>2021-01-16T10:50:48Z</time>
      </trkpt>
      <trkpt lat="45.30643" lon="6.04713">
        <ele>1812</ele>
        <time>2021-01-16T10:50:49Z</time>
      </trkpt>
      <trkpt lat="45.30643" lon="6.04713">
        <ele>1812</ele>
        <time>2021-01-16T10:50:50Z</time>
      </trkpt>
      <trkpt lat="45.30643" lon="6.04713">
        <ele>1812</ele>
        <time>2021-01-16T10:50:51Z</time>
      </trkpt>
      <trkpt lat="45.30643" lon="6.04712">
        <ele>1812</ele>
        <time>2021-01-16T10:50:52Z</time>
      </trkpt>
      <trkpt lat="45.30643" lon="6.04712">
        <ele>1812</ele>
        <time>2021-01-16T10:50:53Z</time>
      </trkpt>
      <trkpt lat="45.30642" lon="6.04712">
        <ele>1812.2</ele>
        <time>2021-01-16T10:50:54Z</time>
      </trkpt>
      <trkpt lat="45.30642" lon="6.04712">
        <ele>1812.2</ele>
        <time>2021-01-16T10:50:55Z</time>
      </trkpt>
      <trkpt lat="45.30642" lon="6.04712">
        <ele>1812.2</ele>
        <time>2021-01-16T10:50:56Z</time>
      </trkpt>
      <trkpt lat="45.30642" lon="6.04712">
        <ele>1812.2</ele>
        <time>2021-01-16T10:50:57Z</time>
      </trkpt>
      <trkpt lat="45.30642" lon="6.04712">
        <ele>1812.2</ele>
        <time>2021-01-16T10:50:58Z</time>
      </trkpt>
      <trkpt lat="45.30642" lon="6.04712">
        <ele>1812.2</ele>
        <time>2021-01-16T10:50:59Z</time>
      </trkpt>
      <trkpt lat="45.30642" lon="6.04712">
        <ele>1812.2</ele>
        <time>2021-01-16T10:51:00Z</time>
      </trkpt>
      <trkpt lat="45.30642" lon="6.04712">
        <ele>1812.2</ele>
        <time>2021-01-16T10:51:01Z</time>
      </trkpt>
      <trkpt lat="45.30642" lon="6.04712">
        <ele>1812.2</ele>
        <time>2021-01-16T10:51:02Z</time>
      </trkpt>
      <trkpt lat="45.30641" lon="6.04712">
        <ele>1812.2</ele>
        <time>2021-01-16T10:51:03Z</time>
      </trkpt>
      <trkpt lat="45.30641" lon="6.04712">
        <ele>1812.2</ele>
        <time>2021-01-16T10:51:04Z</time>
      </trkpt>
      <trkpt lat="45.30641" lon="6.04712">
        <ele>1812.2</ele>
        <time>2021-01-16T10:51:05Z</time>
      </trkpt>
      <trkpt lat="45.30641" lon="6.04712">
        <ele>1812.2</ele>
        <time>2021-01-16T10:51:06Z</time>
      </trkpt>
      <trkpt lat="45.30641" lon="6.04712">
        <ele>1812.2</ele>
        <time>2021-01-16T10:51:07Z</time>
      </trkpt>
      <trkpt lat="45.30641" lon="6.04712">
        <ele>1812.2</ele>
        <time>2021-01-16T10:51:08Z</time>
      </trkpt>
      <trkpt lat="45.30641" lon="6.04712">
        <ele>1812.2</ele>
        <time>2021-01-16T10:51:09Z</time>
      </trkpt>
      <trkpt lat="45.30641" lon="6.04712">
        <ele>1812.2</ele>
        <time>2021-01-16T10:51:10Z</time>
      </trkpt>
      <trkpt lat="45.30641" lon="6.04712">
        <ele>1812.2</ele>
        <time>2021-01-16T10:51:11Z</time>
      </trkpt>
      <trkpt lat="45.30641" lon="6.04712">
        <ele>1812.2</ele>
        <time>2021-01-16T10:51:12Z</time>
      </trkpt>
      <trkpt lat="45.3064" lon="6.04712">
        <ele>1812.2</ele>
        <time>2021-01-16T10:51:13Z</time>
      </trkpt>
      <trkpt lat="45.3064" lon="6.04712">
        <ele>1812.4</ele>
        <time>2021-01-16T10:51:14Z</time>
      </trkpt>
      <trkpt lat="45.3064" lon="6.04711">
        <ele>1812.4</ele>
        <time>2021-01-16T10:51:15Z</time>
      </trkpt>
      <trkpt lat="45.3064" lon="6.04711">
        <ele>1812.4</ele>
        <time>2021-01-16T10:51:16Z</time>
      </trkpt>
      <trkpt lat="45.3064" lon="6.04711">
        <ele>1812.4</ele>
        <time>2021-01-16T10:51:17Z</time>
      </trkpt>
      <trkpt lat="45.3064" lon="6.04711">
        <ele>1812.4</ele>
        <time>2021-01-16T10:51:18Z</time>
      </trkpt>
      <trkpt lat="45.3064" lon="6.04711">
        <ele>1812.4</ele>
        <time>2021-01-16T10:51:19Z</time>
      </trkpt>
      <trkpt lat="45.3064" lon="6.04711">
        <ele>1812.4</ele>
        <time>2021-01-16T10:51:20Z</time>
      </trkpt>
      <trkpt lat="45.3064" lon="6.04711">
        <ele>1812.4</ele>
        <time>2021-01-16T10:51:21Z</time>
      </trkpt>
      <trkpt lat="45.30639" lon="6.04711">
        <ele>1812.4</ele>
        <time>2021-01-16T10:51:22Z</time>
      </trkpt>
      <trkpt lat="45.30639" lon="6.04711">
        <ele>1812.4</ele>
        <time>2021-01-16T10:51:23Z</time>
      </trkpt>
      <trkpt lat="45.30639" lon="6.04711">
        <ele>1812.4</ele>
        <time>2021-01-16T10:51:24Z</time>
      </trkpt>
      <trkpt lat="45.30639" lon="6.04711">
        <ele>1812.6</ele>
        <time>2021-01-16T10:51:25Z</time>
      </trkpt>
      <trkpt lat="45.30639" lon="6.04711">
        <ele>1812.6</ele>
        <time>2021-01-16T10:51:26Z</time>
      </trkpt>
      <trkpt lat="45.30639" lon="6.04711">
        <ele>1812.6</ele>
        <time>2021-01-16T10:51:27Z</time>
      </trkpt>
      <trkpt lat="45.30639" lon="6.04711">
        <ele>1812.8</ele>
        <time>2021-01-16T10:51:28Z</time>
      </trkpt>
      <trkpt lat="45.30639" lon="6.04711">
        <ele>1812.8</ele>
        <time>2021-01-16T10:51:29Z</time>
      </trkpt>
      <trkpt lat="45.30639" lon="6.04711">
        <ele>1812.8</ele>
        <time>2021-01-16T10:51:30Z</time>
      </trkpt>
      <trkpt lat="45.30638" lon="6.04711">
        <ele>1812.8</ele>
        <time>2021-01-16T10:51:31Z</time>
      </trkpt>
      <trkpt lat="45.30638" lon="6.04711">
        <ele>1812.8</ele>
        <time>2021-01-16T10:51:32Z</time>
      </trkpt>
      <trkpt lat="45.30638" lon="6.04711">
        <ele>1812.8</ele>
        <time>2021-01-16T10:51:33Z</time>
      </trkpt>
      <trkpt lat="45.30638" lon="6.04711">
        <ele>1812.8</ele>
        <time>2021-01-16T10:51:34Z</time>
      </trkpt>
      <trkpt lat="45.30638" lon="6.0471">
        <ele>1812.8</ele>
        <time>2021-01-16T10:51:35Z</time>
      </trkpt>
      <trkpt lat="45.30638" lon="6.0471">
        <ele>1812.8</ele>
        <time>2021-01-16T10:51:36Z</time>
      </trkpt>
      <trkpt lat="45.30637" lon="6.04709">
        <ele>1812.8</ele>
        <time>2021-01-16T10:51:37Z</time>
      </trkpt>
      <trkpt lat="45.30637" lon="6.04709">
        <ele>1813</ele>
        <time>2021-01-16T10:51:38Z</time>
      </trkpt>
      <trkpt lat="45.30637" lon="6.04709">
        <ele>1813</ele>
        <time>2021-01-16T10:51:39Z</time>
      </trkpt>
      <trkpt lat="45.30637" lon="6.04709">
        <ele>1813.2</ele>
        <time>2021-01-16T10:51:40Z</time>
      </trkpt>
      <trkpt lat="45.30637" lon="6.04709">
        <ele>1813.2</ele>
        <time>2021-01-16T10:51:41Z</time>
      </trkpt>
      <trkpt lat="45.30637" lon="6.04709">
        <ele>1813.4</ele>
        <time>2021-01-16T10:51:42Z</time>
      </trkpt>
      <trkpt lat="45.30637" lon="6.04709">
        <ele>1813.6</ele>
        <time>2021-01-16T10:51:43Z</time>
      </trkpt>
      <trkpt lat="45.30637" lon="6.04709">
        <ele>1813.8</ele>
        <time>2021-01-16T10:51:44Z</time>
      </trkpt>
      <trkpt lat="45.30637" lon="6.04709">
        <ele>1813.8</ele>
        <time>2021-01-16T10:51:45Z</time>
      </trkpt>
      <trkpt lat="45.30637" lon="6.04709">
        <ele>1814</ele>
        <time>2021-01-16T10:51:46Z</time>
      </trkpt>
      <trkpt lat="45.30637" lon="6.04709">
        <ele>1814</ele>
        <time>2021-01-16T10:51:47Z</time>
      </trkpt>
      <trkpt lat="45.30637" lon="6.04709">
        <ele>1814.2</ele>
        <time>2021-01-16T10:51:48Z</time>
      </trkpt>
      <trkpt lat="45.30637" lon="6.04709">
        <ele>1814.2</ele>
        <time>2021-01-16T10:51:49Z</time>
      </trkpt>
      <trkpt lat="45.30637" lon="6.04709">
        <ele>1814.4</ele>
        <time>2021-01-16T10:51:50Z</time>
      </trkpt>
      <trkpt lat="45.30637" lon="6.04709">
        <ele>1814.6</ele>
        <time>2021-01-16T10:51:51Z</time>
      </trkpt>
      <trkpt lat="45.30637" lon="6.04709">
        <ele>1814.6</ele>
        <time>2021-01-16T10:51:52Z</time>
      </trkpt>
      <trkpt lat="45.30637" lon="6.04709">
        <ele>1814.8</ele>
        <time>2021-01-16T10:51:53Z</time>
      </trkpt>
      <trkpt lat="45.30636" lon="6.04707">
        <ele>1815</ele>
        <time>2021-01-16T10:51:54Z</time>
      </trkpt>
      <trkpt lat="45.30632" lon="6.04698">
        <ele>1815.2</ele>
        <time>2021-01-16T10:51:55Z</time>
      </trkpt>
      <trkpt lat="45.30631" lon="6.04698">
        <ele>1815.2</ele>
        <time>2021-01-16T10:51:56Z</time>
      </trkpt>
      <trkpt lat="45.30631" lon="6.04697">
        <ele>1815.4</ele>
        <time>2021-01-16T10:51:57Z</time>
      </trkpt>
      <trkpt lat="45.30631" lon="6.04696">
        <ele>1815.4</ele>
        <time>2021-01-16T10:51:58Z</time>
      </trkpt>
      <trkpt lat="45.30631" lon="6.04696">
        <ele>1815.6</ele>
        <time>2021-01-16T10:51:59Z</time>
      </trkpt>
      <trkpt lat="45.30631" lon="6.04696">
        <ele>1815.6</ele>
        <time>2021-01-16T10:52:00Z</time>
      </trkpt>
      <trkpt lat="45.30631" lon="6.04696">
        <ele>1816</ele>
        <time>2021-01-16T10:52:01Z</time>
      </trkpt>
      <trkpt lat="45.30631" lon="6.04696">
        <ele>1816</ele>
        <time>2021-01-16T10:52:02Z</time>
      </trkpt>
      <trkpt lat="45.30631" lon="6.04696">
        <ele>1816.2</ele>
        <time>2021-01-16T10:52:03Z</time>
      </trkpt>
      <trkpt lat="45.30631" lon="6.04696">
        <ele>1816.4</ele>
        <time>2021-01-16T10:52:04Z</time>
      </trkpt>
      <trkpt lat="45.30631" lon="6.04696">
        <ele>1816.6</ele>
        <time>2021-01-16T10:52:05Z</time>
      </trkpt>
      <trkpt lat="45.30631" lon="6.04696">
        <ele>1816.8</ele>
        <time>2021-01-16T10:52:06Z</time>
      </trkpt>
      <trkpt lat="45.30631" lon="6.04696">
        <ele>1817</ele>
        <time>2021-01-16T10:52:07Z</time>
      </trkpt>
      <trkpt lat="45.30631" lon="6.04696">
        <ele>1817.2</ele>
        <time>2021-01-16T10:52:08Z</time>
      </trkpt>
      <trkpt lat="45.30631" lon="6.04696">
        <ele>1817.2</ele>
        <time>2021-01-16T10:52:09Z</time>
      </trkpt>
      <trkpt lat="45.30631" lon="6.04696">
        <ele>1817.4</ele>
        <time>2021-01-16T10:52:10Z</time>
      </trkpt>
      <trkpt lat="45.30631" lon="6.04696">
        <ele>1817.4</ele>
        <time>2021-01-16T10:52:11Z</time>
      </trkpt>
      <trkpt lat="45.30631" lon="6.04696">
        <ele>1817.4</ele>
        <time>2021-01-16T10:52:12Z</time>
      </trkpt>
      <trkpt lat="45.30631" lon="6.04696">
        <ele>1817.4</ele>
        <time>2021-01-16T10:52:13Z</time>
      </trkpt>
      <trkpt lat="45.30631" lon="6.04696">
        <ele>1817.6</ele>
        <time>2021-01-16T10:52:14Z</time>
      </trkpt>
      <trkpt lat="45.30631" lon="6.04696">
        <ele>1817.6</ele>
        <time>2021-01-16T10:52:15Z</time>
      </trkpt>
      <trkpt lat="45.30631" lon="6.04696">
        <ele>1817.6</ele>
        <time>2021-01-16T10:52:16Z</time>
      </trkpt>
      <trkpt lat="45.30631" lon="6.04696">
        <ele>1817.6</ele>
        <time>2021-01-16T10:52:17Z</time>
      </trkpt>
      <trkpt lat="45.30631" lon="6.04696">
        <ele>1817.6</ele>
        <time>2021-01-16T10:52:18Z</time>
      </trkpt>
      <trkpt lat="45.30631" lon="6.04696">
        <ele>1817.6</ele>
        <time>2021-01-16T10:52:19Z</time>
      </trkpt>
      <trkpt lat="45.30631" lon="6.04696">
        <ele>1817.6</ele>
        <time>2021-01-16T10:52:20Z</time>
      </trkpt>
      <trkpt lat="45.30631" lon="6.04696">
        <ele>1817.6</ele>
        <time>2021-01-16T10:52:21Z</time>
      </trkpt>
      <trkpt lat="45.30631" lon="6.04696">
        <ele>1817.6</ele>
        <time>2021-01-16T10:52:22Z</time>
      </trkpt>
      <trkpt lat="45.30631" lon="6.04696">
        <ele>1817.6</ele>
        <time>2021-01-16T10:52:23Z</time>
      </trkpt>
      <trkpt lat="45.30631" lon="6.04696">
        <ele>1817.6</ele>
        <time>2021-01-16T10:52:24Z</time>
      </trkpt>
      <trkpt lat="45.30631" lon="6.04696">
        <ele>1817.6</ele>
        <time>2021-01-16T10:52:25Z</time>
      </trkpt>
      <trkpt lat="45.30631" lon="6.04696">
        <ele>1817.4</ele>
        <time>2021-01-16T10:52:26Z</time>
      </trkpt>
      <trkpt lat="45.30631" lon="6.04696">
        <ele>1817.4</ele>
        <time>2021-01-16T10:52:27Z</time>
      </trkpt>
      <trkpt lat="45.30631" lon="6.04696">
        <ele>1817.6</ele>
        <time>2021-01-16T10:52:28Z</time>
      </trkpt>
      <trkpt lat="45.30631" lon="6.04696">
        <ele>1817.6</ele>
        <time>2021-01-16T10:52:29Z</time>
      </trkpt>
      <trkpt lat="45.30631" lon="6.04696">
        <ele>1817.6</ele>
        <time>2021-01-16T10:52:30Z</time>
      </trkpt>
      <trkpt lat="45.30631" lon="6.04696">
        <ele>1817.8</ele>
        <time>2021-01-16T10:52:31Z</time>
      </trkpt>
      <trkpt lat="45.30631" lon="6.04696">
        <ele>1817.4</ele>
        <time>2021-01-16T10:52:32Z</time>
      </trkpt>
      <trkpt lat="45.30631" lon="6.04696">
        <ele>1817.8</ele>
        <time>2021-01-16T10:52:33Z</time>
      </trkpt>
      <trkpt lat="45.30631" lon="6.04696">
        <ele>1817.8</ele>
        <time>2021-01-16T10:52:34Z</time>
      </trkpt>
      <trkpt lat="45.30631" lon="6.04696">
        <ele>1818</ele>
        <time>2021-01-16T10:52:35Z</time>
      </trkpt>
      <trkpt lat="45.30631" lon="6.04696">
        <ele>1818</ele>
        <time>2021-01-16T10:52:36Z</time>
      </trkpt>
      <trkpt lat="45.30631" lon="6.04696">
        <ele>1818.2</ele>
        <time>2021-01-16T10:52:37Z</time>
      </trkpt>
      <trkpt lat="45.30631" lon="6.04696">
        <ele>1818.2</ele>
        <time>2021-01-16T10:52:38Z</time>
      </trkpt>
      <trkpt lat="45.30631" lon="6.04696">
        <ele>1818.2</ele>
        <time>2021-01-16T10:52:39Z</time>
      </trkpt>
      <trkpt lat="45.30631" lon="6.04696">
        <ele>1818.4</ele>
        <time>2021-01-16T10:52:40Z</time>
      </trkpt>
      <trkpt lat="45.30631" lon="6.04696">
        <ele>1818.4</ele>
        <time>2021-01-16T10:52:41Z</time>
      </trkpt>
      <trkpt lat="45.30631" lon="6.04696">
        <ele>1818.6</ele>
        <time>2021-01-16T10:52:42Z</time>
      </trkpt>
      <trkpt lat="45.30631" lon="6.04696">
        <ele>1818.4</ele>
        <time>2021-01-16T10:52:43Z</time>
      </trkpt>
      <trkpt lat="45.30631" lon="6.04696">
        <ele>1818.6</ele>
        <time>2021-01-16T10:52:44Z</time>
      </trkpt>
      <trkpt lat="45.30631" lon="6.04696">
        <ele>1818.8</ele>
        <time>2021-01-16T10:52:45Z</time>
      </trkpt>
      <trkpt lat="45.30631" lon="6.04696">
        <ele>1818.8</ele>
        <time>2021-01-16T10:52:46Z</time>
      </trkpt>
      <trkpt lat="45.30631" lon="6.04696">
        <ele>1818.8</ele>
        <time>2021-01-16T10:52:47Z</time>
      </trkpt>
      <trkpt lat="45.30631" lon="6.04696">
        <ele>1819</ele>
        <time>2021-01-16T10:52:48Z</time>
      </trkpt>
      <trkpt lat="45.30631" lon="6.04696">
        <ele>1819</ele>
        <time>2021-01-16T10:52:49Z</time>
      </trkpt>
      <trkpt lat="45.30631" lon="6.04696">
        <ele>1819</ele>
        <time>2021-01-16T10:52:50Z</time>
      </trkpt>
      <trkpt lat="45.30631" lon="6.04696">
        <ele>1819</ele>
        <time>2021-01-16T10:52:51Z</time>
      </trkpt>
      <trkpt lat="45.30631" lon="6.04696">
        <ele>1819</ele>
        <time>2021-01-16T10:52:52Z</time>
      </trkpt>
      <trkpt lat="45.30631" lon="6.04696">
        <ele>1819</ele>
        <time>2021-01-16T10:52:53Z</time>
      </trkpt>
      <trkpt lat="45.30631" lon="6.04696">
        <ele>1819</ele>
        <time>2021-01-16T10:52:54Z</time>
      </trkpt>
      <trkpt lat="45.30631" lon="6.04696">
        <ele>1819</ele>
        <time>2021-01-16T10:52:55Z</time>
      </trkpt>
      <trkpt lat="45.30631" lon="6.04696">
        <ele>1819</ele>
        <time>2021-01-16T10:52:56Z</time>
      </trkpt>
      <trkpt lat="45.30631" lon="6.04696">
        <ele>1819</ele>
        <time>2021-01-16T10:52:57Z</time>
      </trkpt>
      <trkpt lat="45.30631" lon="6.04696">
        <ele>1819</ele>
        <time>2021-01-16T10:52:58Z</time>
      </trkpt>
      <trkpt lat="45.30631" lon="6.04696">
        <ele>1819</ele>
        <time>2021-01-16T10:52:59Z</time>
      </trkpt>
      <trkpt lat="45.30631" lon="6.04696">
        <ele>1819</ele>
        <time>2021-01-16T10:53:00Z</time>
      </trkpt>
      <trkpt lat="45.30631" lon="6.04696">
        <ele>1819</ele>
        <time>2021-01-16T10:53:01Z</time>
      </trkpt>
      <trkpt lat="45.30631" lon="6.04696">
        <ele>1819.2</ele>
        <time>2021-01-16T10:53:02Z</time>
      </trkpt>
      <trkpt lat="45.30629" lon="6.04696">
        <ele>1819.2</ele>
        <time>2021-01-16T10:53:03Z</time>
      </trkpt>
      <trkpt lat="45.30621" lon="6.04695">
        <ele>1819.2</ele>
        <time>2021-01-16T10:53:04Z</time>
      </trkpt>
      <trkpt lat="45.30621" lon="6.04695">
        <ele>1819.4</ele>
        <time>2021-01-16T10:53:05Z</time>
      </trkpt>
      <trkpt lat="45.3062" lon="6.04694">
        <ele>1819.6</ele>
        <time>2021-01-16T10:53:06Z</time>
      </trkpt>
      <trkpt lat="45.3062" lon="6.04694">
        <ele>1819.8</ele>
        <time>2021-01-16T10:53:07Z</time>
      </trkpt>
      <trkpt lat="45.3062" lon="6.04694">
        <ele>1819.8</ele>
        <time>2021-01-16T10:53:08Z</time>
      </trkpt>
      <trkpt lat="45.3062" lon="6.04694">
        <ele>1819.8</ele>
        <time>2021-01-16T10:53:09Z</time>
      </trkpt>
      <trkpt lat="45.3062" lon="6.04694">
        <ele>1820</ele>
        <time>2021-01-16T10:53:10Z</time>
      </trkpt>
      <trkpt lat="45.3062" lon="6.04694">
        <ele>1820</ele>
        <time>2021-01-16T10:53:11Z</time>
      </trkpt>
      <trkpt lat="45.3062" lon="6.04694">
        <ele>1820.2</ele>
        <time>2021-01-16T10:53:12Z</time>
      </trkpt>
      <trkpt lat="45.3062" lon="6.04694">
        <ele>1820.2</ele>
        <time>2021-01-16T10:53:13Z</time>
      </trkpt>
      <trkpt lat="45.3062" lon="6.04694">
        <ele>1820.2</ele>
        <time>2021-01-16T10:53:14Z</time>
      </trkpt>
      <trkpt lat="45.3062" lon="6.04694">
        <ele>1820.2</ele>
        <time>2021-01-16T10:53:15Z</time>
      </trkpt>
      <trkpt lat="45.3062" lon="6.04694">
        <ele>1820.4</ele>
        <time>2021-01-16T10:53:16Z</time>
      </trkpt>
      <trkpt lat="45.3062" lon="6.04694">
        <ele>1820.4</ele>
        <time>2021-01-16T10:53:17Z</time>
      </trkpt>
      <trkpt lat="45.3062" lon="6.04694">
        <ele>1820.2</ele>
        <time>2021-01-16T10:53:18Z</time>
      </trkpt>
      <trkpt lat="45.3062" lon="6.04694">
        <ele>1820.4</ele>
        <time>2021-01-16T10:53:19Z</time>
      </trkpt>
      <trkpt lat="45.3062" lon="6.04694">
        <ele>1820.4</ele>
        <time>2021-01-16T10:53:20Z</time>
      </trkpt>
      <trkpt lat="45.3062" lon="6.04694">
        <ele>1820.6</ele>
        <time>2021-01-16T10:53:21Z</time>
      </trkpt>
      <trkpt lat="45.3062" lon="6.04694">
        <ele>1820.4</ele>
        <time>2021-01-16T10:53:22Z</time>
      </trkpt>
      <trkpt lat="45.3062" lon="6.04694">
        <ele>1820.6</ele>
        <time>2021-01-16T10:53:23Z</time>
      </trkpt>
      <trkpt lat="45.3062" lon="6.04694">
        <ele>1820.6</ele>
        <time>2021-01-16T10:53:24Z</time>
      </trkpt>
      <trkpt lat="45.3062" lon="6.04694">
        <ele>1820.8</ele>
        <time>2021-01-16T10:53:25Z</time>
      </trkpt>
      <trkpt lat="45.3062" lon="6.04694">
        <ele>1821</ele>
        <time>2021-01-16T10:53:26Z</time>
      </trkpt>
      <trkpt lat="45.3062" lon="6.04694">
        <ele>1821.2</ele>
        <time>2021-01-16T10:53:27Z</time>
      </trkpt>
      <trkpt lat="45.3062" lon="6.04694">
        <ele>1821.4</ele>
        <time>2021-01-16T10:53:28Z</time>
      </trkpt>
      <trkpt lat="45.3062" lon="6.04694">
        <ele>1821.4</ele>
        <time>2021-01-16T10:53:29Z</time>
      </trkpt>
      <trkpt lat="45.3062" lon="6.04694">
        <ele>1821.6</ele>
        <time>2021-01-16T10:53:30Z</time>
      </trkpt>
      <trkpt lat="45.3062" lon="6.04694">
        <ele>1821.6</ele>
        <time>2021-01-16T10:53:31Z</time>
      </trkpt>
      <trkpt lat="45.3062" lon="6.04694">
        <ele>1821.8</ele>
        <time>2021-01-16T10:53:32Z</time>
      </trkpt>
      <trkpt lat="45.3062" lon="6.04694">
        <ele>1821.8</ele>
        <time>2021-01-16T10:53:33Z</time>
      </trkpt>
      <trkpt lat="45.3062" lon="6.04694">
        <ele>1821.8</ele>
        <time>2021-01-16T10:53:34Z</time>
      </trkpt>
      <trkpt lat="45.3062" lon="6.04694">
        <ele>1822</ele>
        <time>2021-01-16T10:53:35Z</time>
      </trkpt>
      <trkpt lat="45.3062" lon="6.04694">
        <ele>1822</ele>
        <time>2021-01-16T10:53:36Z</time>
      </trkpt>
      <trkpt lat="45.3062" lon="6.04694">
        <ele>1822</ele>
        <time>2021-01-16T10:53:37Z</time>
      </trkpt>
      <trkpt lat="45.30619" lon="6.04692">
        <ele>1822</ele>
        <time>2021-01-16T10:53:38Z</time>
      </trkpt>
      <trkpt lat="45.30613" lon="6.04684">
        <ele>1822</ele>
        <time>2021-01-16T10:53:39Z</time>
      </trkpt>
      <trkpt lat="45.30613" lon="6.04684">
        <ele>1822.2</ele>
        <time>2021-01-16T10:53:40Z</time>
      </trkpt>
      <trkpt lat="45.30613" lon="6.04684">
        <ele>1822.4</ele>
        <time>2021-01-16T10:53:41Z</time>
      </trkpt>
      <trkpt lat="45.30613" lon="6.04684">
        <ele>1822.6</ele>
        <time>2021-01-16T10:53:42Z</time>
      </trkpt>
      <trkpt lat="45.30613" lon="6.04684">
        <ele>1822.6</ele>
        <time>2021-01-16T10:53:43Z</time>
      </trkpt>
      <trkpt lat="45.30612" lon="6.04684">
        <ele>1822.8</ele>
        <time>2021-01-16T10:53:44Z</time>
      </trkpt>
      <trkpt lat="45.30612" lon="6.04684">
        <ele>1822.8</ele>
        <time>2021-01-16T10:53:45Z</time>
      </trkpt>
      <trkpt lat="45.30612" lon="6.04684">
        <ele>1823</ele>
        <time>2021-01-16T10:53:46Z</time>
      </trkpt>
      <trkpt lat="45.30612" lon="6.04684">
        <ele>1823</ele>
        <time>2021-01-16T10:53:47Z</time>
      </trkpt>
      <trkpt lat="45.30612" lon="6.04684">
        <ele>1823.2</ele>
        <time>2021-01-16T10:53:48Z</time>
      </trkpt>
      <trkpt lat="45.30611" lon="6.04684">
        <ele>1823.2</ele>
        <time>2021-01-16T10:53:49Z</time>
      </trkpt>
      <trkpt lat="45.30611" lon="6.04683">
        <ele>1823.4</ele>
        <time>2021-01-16T10:53:50Z</time>
      </trkpt>
      <trkpt lat="45.30611" lon="6.04683">
        <ele>1823.4</ele>
        <time>2021-01-16T10:53:51Z</time>
      </trkpt>
      <trkpt lat="45.30611" lon="6.04683">
        <ele>1823.4</ele>
        <time>2021-01-16T10:53:52Z</time>
      </trkpt>
      <trkpt lat="45.30611" lon="6.04683">
        <ele>1823.6</ele>
        <time>2021-01-16T10:53:53Z</time>
      </trkpt>
      <trkpt lat="45.30611" lon="6.04683">
        <ele>1823.8</ele>
        <time>2021-01-16T10:53:54Z</time>
      </trkpt>
      <trkpt lat="45.3061" lon="6.04683">
        <ele>1823.8</ele>
        <time>2021-01-16T10:53:55Z</time>
      </trkpt>
      <trkpt lat="45.3061" lon="6.04683">
        <ele>1823.8</ele>
        <time>2021-01-16T10:53:56Z</time>
      </trkpt>
      <trkpt lat="45.3061" lon="6.04683">
        <ele>1823.8</ele>
        <time>2021-01-16T10:53:57Z</time>
      </trkpt>
      <trkpt lat="45.3061" lon="6.04683">
        <ele>1823.8</ele>
        <time>2021-01-16T10:53:58Z</time>
      </trkpt>
      <trkpt lat="45.3061" lon="6.04683">
        <ele>1823.8</ele>
        <time>2021-01-16T10:53:59Z</time>
      </trkpt>
      <trkpt lat="45.30609" lon="6.04683">
        <ele>1823.6</ele>
        <time>2021-01-16T10:54:00Z</time>
      </trkpt>
      <trkpt lat="45.30609" lon="6.04683">
        <ele>1823.6</ele>
        <time>2021-01-16T10:54:01Z</time>
      </trkpt>
      <trkpt lat="45.30609" lon="6.04683">
        <ele>1823.8</ele>
        <time>2021-01-16T10:54:02Z</time>
      </trkpt>
      <trkpt lat="45.30609" lon="6.04683">
        <ele>1823.8</ele>
        <time>2021-01-16T10:54:03Z</time>
      </trkpt>
      <trkpt lat="45.30609" lon="6.04683">
        <ele>1823.8</ele>
        <time>2021-01-16T10:54:04Z</time>
      </trkpt>
      <trkpt lat="45.30608" lon="6.04683">
        <ele>1824</ele>
        <time>2021-01-16T10:54:05Z</time>
      </trkpt>
      <trkpt lat="45.30608" lon="6.04683">
        <ele>1824.2</ele>
        <time>2021-01-16T10:54:06Z</time>
      </trkpt>
      <trkpt lat="45.30608" lon="6.04683">
        <ele>1824.2</ele>
        <time>2021-01-16T10:54:07Z</time>
      </trkpt>
      <trkpt lat="45.30608" lon="6.04683">
        <ele>1824.2</ele>
        <time>2021-01-16T10:54:08Z</time>
      </trkpt>
      <trkpt lat="45.30608" lon="6.04682">
        <ele>1824.2</ele>
        <time>2021-01-16T10:54:09Z</time>
      </trkpt>
      <trkpt lat="45.30608" lon="6.04682">
        <ele>1824.4</ele>
        <time>2021-01-16T10:54:10Z</time>
      </trkpt>
      <trkpt lat="45.30607" lon="6.04682">
        <ele>1824.4</ele>
        <time>2021-01-16T10:54:11Z</time>
      </trkpt>
      <trkpt lat="45.30607" lon="6.04682">
        <ele>1824.4</ele>
        <time>2021-01-16T10:54:12Z</time>
      </trkpt>
      <trkpt lat="45.30607" lon="6.04682">
        <ele>1824.4</ele>
        <time>2021-01-16T10:54:13Z</time>
      </trkpt>
      <trkpt lat="45.30607" lon="6.04682">
        <ele>1824.6</ele>
        <time>2021-01-16T10:54:14Z</time>
      </trkpt>
      <trkpt lat="45.30607" lon="6.04682">
        <ele>1824.6</ele>
        <time>2021-01-16T10:54:15Z</time>
      </trkpt>
      <trkpt lat="45.30606" lon="6.04682">
        <ele>1824.6</ele>
        <time>2021-01-16T10:54:16Z</time>
      </trkpt>
      <trkpt lat="45.30606" lon="6.04682">
        <ele>1824.6</ele>
        <time>2021-01-16T10:54:17Z</time>
      </trkpt>
      <trkpt lat="45.30606" lon="6.04682">
        <ele>1824.8</ele>
        <time>2021-01-16T10:54:18Z</time>
      </trkpt>
      <trkpt lat="45.30606" lon="6.04682">
        <ele>1824.8</ele>
        <time>2021-01-16T10:54:19Z</time>
      </trkpt>
      <trkpt lat="45.30606" lon="6.04682">
        <ele>1825</ele>
        <time>2021-01-16T10:54:20Z</time>
      </trkpt>
      <trkpt lat="45.30606" lon="6.04682">
        <ele>1825</ele>
        <time>2021-01-16T10:54:21Z</time>
      </trkpt>
      <trkpt lat="45.30605" lon="6.04682">
        <ele>1825</ele>
        <time>2021-01-16T10:54:22Z</time>
      </trkpt>
      <trkpt lat="45.30605" lon="6.04682">
        <ele>1825</ele>
        <time>2021-01-16T10:54:23Z</time>
      </trkpt>
      <trkpt lat="45.30605" lon="6.04682">
        <ele>1825</ele>
        <time>2021-01-16T10:54:24Z</time>
      </trkpt>
      <trkpt lat="45.30605" lon="6.04682">
        <ele>1825.2</ele>
        <time>2021-01-16T10:54:25Z</time>
      </trkpt>
      <trkpt lat="45.30605" lon="6.04682">
        <ele>1825.2</ele>
        <time>2021-01-16T10:54:26Z</time>
      </trkpt>
      <trkpt lat="45.30604" lon="6.04682">
        <ele>1825.4</ele>
        <time>2021-01-16T10:54:27Z</time>
      </trkpt>
      <trkpt lat="45.30604" lon="6.04682">
        <ele>1825.4</ele>
        <time>2021-01-16T10:54:28Z</time>
      </trkpt>
      <trkpt lat="45.30604" lon="6.04681">
        <ele>1825.4</ele>
        <time>2021-01-16T10:54:29Z</time>
      </trkpt>
      <trkpt lat="45.30604" lon="6.04681">
        <ele>1825.6</ele>
        <time>2021-01-16T10:54:30Z</time>
      </trkpt>
      <trkpt lat="45.30604" lon="6.04681">
        <ele>1825.6</ele>
        <time>2021-01-16T10:54:31Z</time>
      </trkpt>
      <trkpt lat="45.30604" lon="6.04681">
        <ele>1825.8</ele>
        <time>2021-01-16T10:54:32Z</time>
      </trkpt>
      <trkpt lat="45.30603" lon="6.04681">
        <ele>1825.8</ele>
        <time>2021-01-16T10:54:33Z</time>
      </trkpt>
      <trkpt lat="45.30603" lon="6.04681">
        <ele>1826</ele>
        <time>2021-01-16T10:54:34Z</time>
      </trkpt>
      <trkpt lat="45.30602" lon="6.0468">
        <ele>1826.2</ele>
        <time>2021-01-16T10:54:35Z</time>
      </trkpt>
      <trkpt lat="45.30602" lon="6.0468">
        <ele>1826.4</ele>
        <time>2021-01-16T10:54:36Z</time>
      </trkpt>
      <trkpt lat="45.30602" lon="6.0468">
        <ele>1826.6</ele>
        <time>2021-01-16T10:54:37Z</time>
      </trkpt>
      <trkpt lat="45.30602" lon="6.0468">
        <ele>1826.8</ele>
        <time>2021-01-16T10:54:38Z</time>
      </trkpt>
      <trkpt lat="45.30602" lon="6.0468">
        <ele>1827</ele>
        <time>2021-01-16T10:54:39Z</time>
      </trkpt>
      <trkpt lat="45.30602" lon="6.0468">
        <ele>1827.2</ele>
        <time>2021-01-16T10:54:40Z</time>
      </trkpt>
      <trkpt lat="45.30602" lon="6.0468">
        <ele>1827.4</ele>
        <time>2021-01-16T10:54:41Z</time>
      </trkpt>
      <trkpt lat="45.30602" lon="6.0468">
        <ele>1827.6</ele>
        <time>2021-01-16T10:54:42Z</time>
      </trkpt>
      <trkpt lat="45.30602" lon="6.0468">
        <ele>1827.8</ele>
        <time>2021-01-16T10:54:43Z</time>
      </trkpt>
      <trkpt lat="45.30602" lon="6.0468">
        <ele>1828</ele>
        <time>2021-01-16T10:54:44Z</time>
      </trkpt>
      <trkpt lat="45.30602" lon="6.0468">
        <ele>1828</ele>
        <time>2021-01-16T10:54:45Z</time>
      </trkpt>
      <trkpt lat="45.30602" lon="6.0468">
        <ele>1828.2</ele>
        <time>2021-01-16T10:54:46Z</time>
      </trkpt>
      <trkpt lat="45.30602" lon="6.0468">
        <ele>1828.2</ele>
        <time>2021-01-16T10:54:47Z</time>
      </trkpt>
      <trkpt lat="45.30602" lon="6.0468">
        <ele>1828.4</ele>
        <time>2021-01-16T10:54:48Z</time>
      </trkpt>
      <trkpt lat="45.30602" lon="6.0468">
        <ele>1828.4</ele>
        <time>2021-01-16T10:54:49Z</time>
      </trkpt>
      <trkpt lat="45.30602" lon="6.0468">
        <ele>1828.6</ele>
        <time>2021-01-16T10:54:50Z</time>
      </trkpt>
      <trkpt lat="45.306" lon="6.04678">
        <ele>1828.8</ele>
        <time>2021-01-16T10:54:51Z</time>
      </trkpt>
      <trkpt lat="45.30594" lon="6.04672">
        <ele>1828.8</ele>
        <time>2021-01-16T10:54:52Z</time>
      </trkpt>
      <trkpt lat="45.30593" lon="6.04672">
        <ele>1829</ele>
        <time>2021-01-16T10:54:53Z</time>
      </trkpt>
      <trkpt lat="45.30592" lon="6.04671">
        <ele>1829.2</ele>
        <time>2021-01-16T10:54:54Z</time>
      </trkpt>
      <trkpt lat="45.30592" lon="6.04671">
        <ele>1829.4</ele>
        <time>2021-01-16T10:54:55Z</time>
      </trkpt>
      <trkpt lat="45.30592" lon="6.04671">
        <ele>1829.6</ele>
        <time>2021-01-16T10:54:56Z</time>
      </trkpt>
      <trkpt lat="45.30592" lon="6.04671">
        <ele>1829.8</ele>
        <time>2021-01-16T10:54:57Z</time>
      </trkpt>
      <trkpt lat="45.30592" lon="6.04671">
        <ele>1830</ele>
        <time>2021-01-16T10:54:58Z</time>
      </trkpt>
      <trkpt lat="45.30592" lon="6.04671">
        <ele>1830</ele>
        <time>2021-01-16T10:54:59Z</time>
      </trkpt>
      <trkpt lat="45.30592" lon="6.04671">
        <ele>1830.2</ele>
        <time>2021-01-16T10:55:00Z</time>
      </trkpt>
      <trkpt lat="45.30592" lon="6.04671">
        <ele>1830.4</ele>
        <time>2021-01-16T10:55:01Z</time>
      </trkpt>
      <trkpt lat="45.30592" lon="6.04671">
        <ele>1830.6</ele>
        <time>2021-01-16T10:55:02Z</time>
      </trkpt>
      <trkpt lat="45.30592" lon="6.04671">
        <ele>1830.6</ele>
        <time>2021-01-16T10:55:03Z</time>
      </trkpt>
      <trkpt lat="45.30592" lon="6.04671">
        <ele>1830.8</ele>
        <time>2021-01-16T10:55:04Z</time>
      </trkpt>
      <trkpt lat="45.30592" lon="6.04671">
        <ele>1831</ele>
        <time>2021-01-16T10:55:05Z</time>
      </trkpt>
      <trkpt lat="45.30592" lon="6.04671">
        <ele>1831.2</ele>
        <time>2021-01-16T10:55:06Z</time>
      </trkpt>
      <trkpt lat="45.30592" lon="6.04671">
        <ele>1831.4</ele>
        <time>2021-01-16T10:55:07Z</time>
      </trkpt>
      <trkpt lat="45.30592" lon="6.04671">
        <ele>1831.6</ele>
        <time>2021-01-16T10:55:08Z</time>
      </trkpt>
      <trkpt lat="45.30592" lon="6.04671">
        <ele>1831.6</ele>
        <time>2021-01-16T10:55:09Z</time>
      </trkpt>
      <trkpt lat="45.3059" lon="6.04671">
        <ele>1831.8</ele>
        <time>2021-01-16T10:55:10Z</time>
      </trkpt>
      <trkpt lat="45.30583" lon="6.04668">
        <ele>1832</ele>
        <time>2021-01-16T10:55:11Z</time>
      </trkpt>
      <trkpt lat="45.30582" lon="6.04668">
        <ele>1832.2</ele>
        <time>2021-01-16T10:55:12Z</time>
      </trkpt>
      <trkpt lat="45.30582" lon="6.04668">
        <ele>1832.2</ele>
        <time>2021-01-16T10:55:13Z</time>
      </trkpt>
      <trkpt lat="45.30581" lon="6.04669">
        <ele>1832.4</ele>
        <time>2021-01-16T10:55:14Z</time>
      </trkpt>
      <trkpt lat="45.30581" lon="6.04669">
        <ele>1832.6</ele>
        <time>2021-01-16T10:55:15Z</time>
      </trkpt>
      <trkpt lat="45.30581" lon="6.04669">
        <ele>1832.6</ele>
        <time>2021-01-16T10:55:16Z</time>
      </trkpt>
      <trkpt lat="45.30581" lon="6.04669">
        <ele>1832.8</ele>
        <time>2021-01-16T10:55:17Z</time>
      </trkpt>
      <trkpt lat="45.30581" lon="6.04669">
        <ele>1833</ele>
        <time>2021-01-16T10:55:18Z</time>
      </trkpt>
      <trkpt lat="45.30581" lon="6.04669">
        <ele>1833.2</ele>
        <time>2021-01-16T10:55:19Z</time>
      </trkpt>
      <trkpt lat="45.30581" lon="6.04669">
        <ele>1833.4</ele>
        <time>2021-01-16T10:55:20Z</time>
      </trkpt>
      <trkpt lat="45.30581" lon="6.04669">
        <ele>1833.4</ele>
        <time>2021-01-16T10:55:21Z</time>
      </trkpt>
      <trkpt lat="45.30581" lon="6.04669">
        <ele>1833.6</ele>
        <time>2021-01-16T10:55:22Z</time>
      </trkpt>
      <trkpt lat="45.30581" lon="6.04669">
        <ele>1833.6</ele>
        <time>2021-01-16T10:55:23Z</time>
      </trkpt>
      <trkpt lat="45.30581" lon="6.04669">
        <ele>1833.8</ele>
        <time>2021-01-16T10:55:24Z</time>
      </trkpt>
      <trkpt lat="45.30581" lon="6.04669">
        <ele>1833.8</ele>
        <time>2021-01-16T10:55:25Z</time>
      </trkpt>
      <trkpt lat="45.30581" lon="6.04669">
        <ele>1834</ele>
        <time>2021-01-16T10:55:26Z</time>
      </trkpt>
      <trkpt lat="45.30581" lon="6.04669">
        <ele>1834.2</ele>
        <time>2021-01-16T10:55:27Z</time>
      </trkpt>
      <trkpt lat="45.30581" lon="6.04669">
        <ele>1834.4</ele>
        <time>2021-01-16T10:55:28Z</time>
      </trkpt>
      <trkpt lat="45.30581" lon="6.04669">
        <ele>1834.6</ele>
        <time>2021-01-16T10:55:29Z</time>
      </trkpt>
      <trkpt lat="45.3058" lon="6.04669">
        <ele>1834.8</ele>
        <time>2021-01-16T10:55:30Z</time>
      </trkpt>
      <trkpt lat="45.30572" lon="6.04673">
        <ele>1834.8</ele>
        <time>2021-01-16T10:55:31Z</time>
      </trkpt>
      <trkpt lat="45.30572" lon="6.04673">
        <ele>1835</ele>
        <time>2021-01-16T10:55:32Z</time>
      </trkpt>
      <trkpt lat="45.30571" lon="6.04673">
        <ele>1835</ele>
        <time>2021-01-16T10:55:33Z</time>
      </trkpt>
      <trkpt lat="45.30571" lon="6.04673">
        <ele>1835.2</ele>
        <time>2021-01-16T10:55:34Z</time>
      </trkpt>
      <trkpt lat="45.30571" lon="6.04673">
        <ele>1835</ele>
        <time>2021-01-16T10:55:35Z</time>
      </trkpt>
      <trkpt lat="45.30571" lon="6.04673">
        <ele>1835.2</ele>
        <time>2021-01-16T10:55:36Z</time>
      </trkpt>
      <trkpt lat="45.30571" lon="6.04673">
        <ele>1835.2</ele>
        <time>2021-01-16T10:55:37Z</time>
      </trkpt>
      <trkpt lat="45.30571" lon="6.04673">
        <ele>1835.4</ele>
        <time>2021-01-16T10:55:38Z</time>
      </trkpt>
      <trkpt lat="45.30571" lon="6.04673">
        <ele>1835.4</ele>
        <time>2021-01-16T10:55:39Z</time>
      </trkpt>
      <trkpt lat="45.30571" lon="6.04673">
        <ele>1835.6</ele>
        <time>2021-01-16T10:55:40Z</time>
      </trkpt>
      <trkpt lat="45.30571" lon="6.04673">
        <ele>1835.6</ele>
        <time>2021-01-16T10:55:41Z</time>
      </trkpt>
      <trkpt lat="45.30571" lon="6.04673">
        <ele>1835.8</ele>
        <time>2021-01-16T10:55:42Z</time>
      </trkpt>
      <trkpt lat="45.30571" lon="6.04673">
        <ele>1836</ele>
        <time>2021-01-16T10:55:43Z</time>
      </trkpt>
      <trkpt lat="45.30571" lon="6.04673">
        <ele>1836.2</ele>
        <time>2021-01-16T10:55:44Z</time>
      </trkpt>
      <trkpt lat="45.30571" lon="6.04673">
        <ele>1836.2</ele>
        <time>2021-01-16T10:55:45Z</time>
      </trkpt>
      <trkpt lat="45.30571" lon="6.04673">
        <ele>1836.4</ele>
        <time>2021-01-16T10:55:46Z</time>
      </trkpt>
      <trkpt lat="45.30569" lon="6.04673">
        <ele>1836.4</ele>
        <time>2021-01-16T10:55:47Z</time>
      </trkpt>
      <trkpt lat="45.30561" lon="6.04673">
        <ele>1836.4</ele>
        <time>2021-01-16T10:55:48Z</time>
      </trkpt>
      <trkpt lat="45.3056" lon="6.04673">
        <ele>1836.4</ele>
        <time>2021-01-16T10:55:49Z</time>
      </trkpt>
      <trkpt lat="45.30559" lon="6.04673">
        <ele>1836.6</ele>
        <time>2021-01-16T10:55:50Z</time>
      </trkpt>
      <trkpt lat="45.30559" lon="6.04673">
        <ele>1836.6</ele>
        <time>2021-01-16T10:55:51Z</time>
      </trkpt>
      <trkpt lat="45.30558" lon="6.04673">
        <ele>1836.8</ele>
        <time>2021-01-16T10:55:52Z</time>
      </trkpt>
      <trkpt lat="45.30558" lon="6.04673">
        <ele>1837</ele>
        <time>2021-01-16T10:55:53Z</time>
      </trkpt>
      <trkpt lat="45.30557" lon="6.04673">
        <ele>1837.2</ele>
        <time>2021-01-16T10:55:54Z</time>
      </trkpt>
      <trkpt lat="45.30556" lon="6.04673">
        <ele>1837.4</ele>
        <time>2021-01-16T10:55:55Z</time>
      </trkpt>
      <trkpt lat="45.30556" lon="6.04673">
        <ele>1837.4</ele>
        <time>2021-01-16T10:55:56Z</time>
      </trkpt>
      <trkpt lat="45.30555" lon="6.04673">
        <ele>1837.6</ele>
        <time>2021-01-16T10:55:57Z</time>
      </trkpt>
      <trkpt lat="45.30555" lon="6.04673">
        <ele>1837.6</ele>
        <time>2021-01-16T10:55:58Z</time>
      </trkpt>
      <trkpt lat="45.30554" lon="6.04673">
        <ele>1837.8</ele>
        <time>2021-01-16T10:55:59Z</time>
      </trkpt>
      <trkpt lat="45.30553" lon="6.04673">
        <ele>1838</ele>
        <time>2021-01-16T10:56:00Z</time>
      </trkpt>
      <trkpt lat="45.30553" lon="6.04673">
        <ele>1838</ele>
        <time>2021-01-16T10:56:01Z</time>
      </trkpt>
      <trkpt lat="45.30552" lon="6.04673">
        <ele>1838.2</ele>
        <time>2021-01-16T10:56:02Z</time>
      </trkpt>
      <trkpt lat="45.30552" lon="6.04673">
        <ele>1838.2</ele>
        <time>2021-01-16T10:56:03Z</time>
      </trkpt>
      <trkpt lat="45.30551" lon="6.04673">
        <ele>1838.2</ele>
        <time>2021-01-16T10:56:04Z</time>
      </trkpt>
      <trkpt lat="45.30551" lon="6.04673">
        <ele>1838.4</ele>
        <time>2021-01-16T10:56:05Z</time>
      </trkpt>
      <trkpt lat="45.3055" lon="6.04674">
        <ele>1838.4</ele>
        <time>2021-01-16T10:56:06Z</time>
      </trkpt>
      <trkpt lat="45.30549" lon="6.04674">
        <ele>1838.6</ele>
        <time>2021-01-16T10:56:07Z</time>
      </trkpt>
      <trkpt lat="45.30549" lon="6.04674">
        <ele>1838.6</ele>
        <time>2021-01-16T10:56:08Z</time>
      </trkpt>
      <trkpt lat="45.30548" lon="6.04674">
        <ele>1838.8</ele>
        <time>2021-01-16T10:56:09Z</time>
      </trkpt>
      <trkpt lat="45.30548" lon="6.04674">
        <ele>1838.8</ele>
        <time>2021-01-16T10:56:10Z</time>
      </trkpt>
      <trkpt lat="45.30547" lon="6.04674">
        <ele>1839</ele>
        <time>2021-01-16T10:56:11Z</time>
      </trkpt>
      <trkpt lat="45.30547" lon="6.04674">
        <ele>1839</ele>
        <time>2021-01-16T10:56:12Z</time>
      </trkpt>
      <trkpt lat="45.30546" lon="6.04674">
        <ele>1839.2</ele>
        <time>2021-01-16T10:56:13Z</time>
      </trkpt>
      <trkpt lat="45.30546" lon="6.04674">
        <ele>1839.2</ele>
        <time>2021-01-16T10:56:14Z</time>
      </trkpt>
      <trkpt lat="45.30545" lon="6.04674">
        <ele>1839.4</ele>
        <time>2021-01-16T10:56:15Z</time>
      </trkpt>
      <trkpt lat="45.30545" lon="6.04675">
        <ele>1839.4</ele>
        <time>2021-01-16T10:56:16Z</time>
      </trkpt>
      <trkpt lat="45.30544" lon="6.04675">
        <ele>1839.6</ele>
        <time>2021-01-16T10:56:17Z</time>
      </trkpt>
      <trkpt lat="45.30544" lon="6.04675">
        <ele>1839.8</ele>
        <time>2021-01-16T10:56:18Z</time>
      </trkpt>
      <trkpt lat="45.30543" lon="6.04675">
        <ele>1840</ele>
        <time>2021-01-16T10:56:19Z</time>
      </trkpt>
      <trkpt lat="45.30543" lon="6.04675">
        <ele>1840</ele>
        <time>2021-01-16T10:56:20Z</time>
      </trkpt>
      <trkpt lat="45.30542" lon="6.04675">
        <ele>1840.4</ele>
        <time>2021-01-16T10:56:21Z</time>
      </trkpt>
      <trkpt lat="45.30542" lon="6.04675">
        <ele>1840.2</ele>
        <time>2021-01-16T10:56:22Z</time>
      </trkpt>
      <trkpt lat="45.30541" lon="6.04675">
        <ele>1840.4</ele>
        <time>2021-01-16T10:56:23Z</time>
      </trkpt>
      <trkpt lat="45.30541" lon="6.04675">
        <ele>1840.6</ele>
        <time>2021-01-16T10:56:24Z</time>
      </trkpt>
      <trkpt lat="45.3054" lon="6.04675">
        <ele>1840.8</ele>
        <time>2021-01-16T10:56:25Z</time>
      </trkpt>
      <trkpt lat="45.3054" lon="6.04675">
        <ele>1840.8</ele>
        <time>2021-01-16T10:56:26Z</time>
      </trkpt>
      <trkpt lat="45.30539" lon="6.04676">
        <ele>1841</ele>
        <time>2021-01-16T10:56:27Z</time>
      </trkpt>
      <trkpt lat="45.30539" lon="6.04676">
        <ele>1841</ele>
        <time>2021-01-16T10:56:28Z</time>
      </trkpt>
      <trkpt lat="45.30538" lon="6.04676">
        <ele>1841.2</ele>
        <time>2021-01-16T10:56:29Z</time>
      </trkpt>
      <trkpt lat="45.30537" lon="6.04676">
        <ele>1841.4</ele>
        <time>2021-01-16T10:56:30Z</time>
      </trkpt>
      <trkpt lat="45.30537" lon="6.04676">
        <ele>1841.4</ele>
        <time>2021-01-16T10:56:31Z</time>
      </trkpt>
      <trkpt lat="45.30537" lon="6.04676">
        <ele>1841.6</ele>
        <time>2021-01-16T10:56:32Z</time>
      </trkpt>
      <trkpt lat="45.30537" lon="6.04676">
        <ele>1841.8</ele>
        <time>2021-01-16T10:56:33Z</time>
      </trkpt>
      <trkpt lat="45.30534" lon="6.04675">
        <ele>1841.8</ele>
        <time>2021-01-16T10:56:34Z</time>
      </trkpt>
      <trkpt lat="45.30533" lon="6.04675">
        <ele>1842</ele>
        <time>2021-01-16T10:56:35Z</time>
      </trkpt>
      <trkpt lat="45.30532" lon="6.04674">
        <ele>1842</ele>
        <time>2021-01-16T10:56:36Z</time>
      </trkpt>
      <trkpt lat="45.30531" lon="6.04674">
        <ele>1842.2</ele>
        <time>2021-01-16T10:56:37Z</time>
      </trkpt>
      <trkpt lat="45.30531" lon="6.04674">
        <ele>1842.2</ele>
        <time>2021-01-16T10:56:38Z</time>
      </trkpt>
      <trkpt lat="45.30531" lon="6.04674">
        <ele>1842.2</ele>
        <time>2021-01-16T10:56:39Z</time>
      </trkpt>
      <trkpt lat="45.30531" lon="6.04674">
        <ele>1842.4</ele>
        <time>2021-01-16T10:56:40Z</time>
      </trkpt>
      <trkpt lat="45.30531" lon="6.04674">
        <ele>1842.6</ele>
        <time>2021-01-16T10:56:41Z</time>
      </trkpt>
      <trkpt lat="45.30531" lon="6.04674">
        <ele>1842.8</ele>
        <time>2021-01-16T10:56:42Z</time>
      </trkpt>
      <trkpt lat="45.30531" lon="6.04674">
        <ele>1842.8</ele>
        <time>2021-01-16T10:56:43Z</time>
      </trkpt>
      <trkpt lat="45.30531" lon="6.04674">
        <ele>1843</ele>
        <time>2021-01-16T10:56:44Z</time>
      </trkpt>
      <trkpt lat="45.30531" lon="6.04674">
        <ele>1843.2</ele>
        <time>2021-01-16T10:56:45Z</time>
      </trkpt>
      <trkpt lat="45.30531" lon="6.04674">
        <ele>1843.2</ele>
        <time>2021-01-16T10:56:46Z</time>
      </trkpt>
      <trkpt lat="45.30531" lon="6.04674">
        <ele>1843.4</ele>
        <time>2021-01-16T10:56:47Z</time>
      </trkpt>
      <trkpt lat="45.30531" lon="6.04674">
        <ele>1843.4</ele>
        <time>2021-01-16T10:56:48Z</time>
      </trkpt>
      <trkpt lat="45.30531" lon="6.04674">
        <ele>1843.6</ele>
        <time>2021-01-16T10:56:49Z</time>
      </trkpt>
      <trkpt lat="45.30531" lon="6.04674">
        <ele>1843.6</ele>
        <time>2021-01-16T10:56:50Z</time>
      </trkpt>
      <trkpt lat="45.30531" lon="6.04674">
        <ele>1843.8</ele>
        <time>2021-01-16T10:56:51Z</time>
      </trkpt>
      <trkpt lat="45.30531" lon="6.04674">
        <ele>1844</ele>
        <time>2021-01-16T10:56:52Z</time>
      </trkpt>
      <trkpt lat="45.30531" lon="6.04674">
        <ele>1844</ele>
        <time>2021-01-16T10:56:53Z</time>
      </trkpt>
      <trkpt lat="45.30529" lon="6.04674">
        <ele>1844.2</ele>
        <time>2021-01-16T10:56:54Z</time>
      </trkpt>
      <trkpt lat="45.30521" lon="6.04675">
        <ele>1844.4</ele>
        <time>2021-01-16T10:56:55Z</time>
      </trkpt>
      <trkpt lat="45.30521" lon="6.04675">
        <ele>1844.6</ele>
        <time>2021-01-16T10:56:56Z</time>
      </trkpt>
      <trkpt lat="45.3052" lon="6.04675">
        <ele>1844.6</ele>
        <time>2021-01-16T10:56:57Z</time>
      </trkpt>
      <trkpt lat="45.30519" lon="6.04675">
        <ele>1844.8</ele>
        <time>2021-01-16T10:56:58Z</time>
      </trkpt>
      <trkpt lat="45.30519" lon="6.04675">
        <ele>1845</ele>
        <time>2021-01-16T10:56:59Z</time>
      </trkpt>
      <trkpt lat="45.30519" lon="6.04675">
        <ele>1845</ele>
        <time>2021-01-16T10:57:00Z</time>
      </trkpt>
      <trkpt lat="45.30519" lon="6.04675">
        <ele>1845</ele>
        <time>2021-01-16T10:57:01Z</time>
      </trkpt>
      <trkpt lat="45.30519" lon="6.04675">
        <ele>1845.2</ele>
        <time>2021-01-16T10:57:02Z</time>
      </trkpt>
      <trkpt lat="45.30519" lon="6.04675">
        <ele>1845.4</ele>
        <time>2021-01-16T10:57:03Z</time>
      </trkpt>
      <trkpt lat="45.30519" lon="6.04675">
        <ele>1845.4</ele>
        <time>2021-01-16T10:57:04Z</time>
      </trkpt>
      <trkpt lat="45.30519" lon="6.04675">
        <ele>1845.4</ele>
        <time>2021-01-16T10:57:05Z</time>
      </trkpt>
      <trkpt lat="45.30519" lon="6.04675">
        <ele>1845.4</ele>
        <time>2021-01-16T10:57:06Z</time>
      </trkpt>
      <trkpt lat="45.30519" lon="6.04675">
        <ele>1845.4</ele>
        <time>2021-01-16T10:57:07Z</time>
      </trkpt>
      <trkpt lat="45.30519" lon="6.04675">
        <ele>1845.4</ele>
        <time>2021-01-16T10:57:08Z</time>
      </trkpt>
      <trkpt lat="45.30519" lon="6.04675">
        <ele>1845.6</ele>
        <time>2021-01-16T10:57:09Z</time>
      </trkpt>
      <trkpt lat="45.30519" lon="6.04675">
        <ele>1845.6</ele>
        <time>2021-01-16T10:57:10Z</time>
      </trkpt>
      <trkpt lat="45.30519" lon="6.04675">
        <ele>1845.6</ele>
        <time>2021-01-16T10:57:11Z</time>
      </trkpt>
      <trkpt lat="45.30519" lon="6.04675">
        <ele>1845.6</ele>
        <time>2021-01-16T10:57:12Z</time>
      </trkpt>
      <trkpt lat="45.30519" lon="6.04675">
        <ele>1845.6</ele>
        <time>2021-01-16T10:57:13Z</time>
      </trkpt>
      <trkpt lat="45.30519" lon="6.04675">
        <ele>1845.6</ele>
        <time>2021-01-16T10:57:14Z</time>
      </trkpt>
      <trkpt lat="45.30519" lon="6.04675">
        <ele>1845.6</ele>
        <time>2021-01-16T10:57:15Z</time>
      </trkpt>
      <trkpt lat="45.30519" lon="6.04675">
        <ele>1845.6</ele>
        <time>2021-01-16T10:57:16Z</time>
      </trkpt>
      <trkpt lat="45.30519" lon="6.04675">
        <ele>1845.6</ele>
        <time>2021-01-16T10:57:17Z</time>
      </trkpt>
      <trkpt lat="45.30519" lon="6.04675">
        <ele>1845.6</ele>
        <time>2021-01-16T10:57:18Z</time>
      </trkpt>
      <trkpt lat="45.30519" lon="6.04675">
        <ele>1845.8</ele>
        <time>2021-01-16T10:57:19Z</time>
      </trkpt>
      <trkpt lat="45.30519" lon="6.04675">
        <ele>1845.6</ele>
        <time>2021-01-16T10:57:20Z</time>
      </trkpt>
      <trkpt lat="45.30519" lon="6.04675">
        <ele>1846</ele>
        <time>2021-01-16T10:57:21Z</time>
      </trkpt>
      <trkpt lat="45.30519" lon="6.04675">
        <ele>1845.8</ele>
        <time>2021-01-16T10:57:22Z</time>
      </trkpt>
      <trkpt lat="45.30519" lon="6.04675">
        <ele>1846</ele>
        <time>2021-01-16T10:57:23Z</time>
      </trkpt>
      <trkpt lat="45.30519" lon="6.04675">
        <ele>1846.2</ele>
        <time>2021-01-16T10:57:24Z</time>
      </trkpt>
      <trkpt lat="45.30519" lon="6.04675">
        <ele>1846.4</ele>
        <time>2021-01-16T10:57:25Z</time>
      </trkpt>
      <trkpt lat="45.30519" lon="6.04675">
        <ele>1846.4</ele>
        <time>2021-01-16T10:57:26Z</time>
      </trkpt>
      <trkpt lat="45.30519" lon="6.04675">
        <ele>1846.6</ele>
        <time>2021-01-16T10:57:27Z</time>
      </trkpt>
      <trkpt lat="45.30519" lon="6.04675">
        <ele>1846.6</ele>
        <time>2021-01-16T10:57:28Z</time>
      </trkpt>
      <trkpt lat="45.30519" lon="6.04675">
        <ele>1846.6</ele>
        <time>2021-01-16T10:57:29Z</time>
      </trkpt>
      <trkpt lat="45.30519" lon="6.04675">
        <ele>1846.6</ele>
        <time>2021-01-16T10:57:30Z</time>
      </trkpt>
      <trkpt lat="45.30519" lon="6.04675">
        <ele>1846.8</ele>
        <time>2021-01-16T10:57:31Z</time>
      </trkpt>
      <trkpt lat="45.30519" lon="6.04675">
        <ele>1846.8</ele>
        <time>2021-01-16T10:57:32Z</time>
      </trkpt>
      <trkpt lat="45.30519" lon="6.04675">
        <ele>1847</ele>
        <time>2021-01-16T10:57:33Z</time>
      </trkpt>
      <trkpt lat="45.30519" lon="6.04675">
        <ele>1847</ele>
        <time>2021-01-16T10:57:34Z</time>
      </trkpt>
      <trkpt lat="45.3052" lon="6.04677">
        <ele>1847.2</ele>
        <time>2021-01-16T10:57:35Z</time>
      </trkpt>
      <trkpt lat="45.30523" lon="6.04688">
        <ele>1847.2</ele>
        <time>2021-01-16T10:57:36Z</time>
      </trkpt>
      <trkpt lat="45.30523" lon="6.04689">
        <ele>1847.4</ele>
        <time>2021-01-16T10:57:37Z</time>
      </trkpt>
      <trkpt lat="45.30523" lon="6.04689">
        <ele>1847.4</ele>
        <time>2021-01-16T10:57:38Z</time>
      </trkpt>
      <trkpt lat="45.30523" lon="6.0469">
        <ele>1847.4</ele>
        <time>2021-01-16T10:57:39Z</time>
      </trkpt>
      <trkpt lat="45.30523" lon="6.0469">
        <ele>1847.6</ele>
        <time>2021-01-16T10:57:40Z</time>
      </trkpt>
      <trkpt lat="45.30523" lon="6.04691">
        <ele>1847.6</ele>
        <time>2021-01-16T10:57:41Z</time>
      </trkpt>
      <trkpt lat="45.30523" lon="6.04691">
        <ele>1847.8</ele>
        <time>2021-01-16T10:57:42Z</time>
      </trkpt>
      <trkpt lat="45.30523" lon="6.04692">
        <ele>1847.8</ele>
        <time>2021-01-16T10:57:43Z</time>
      </trkpt>
      <trkpt lat="45.30523" lon="6.04692">
        <ele>1848</ele>
        <time>2021-01-16T10:57:44Z</time>
      </trkpt>
      <trkpt lat="45.30523" lon="6.04693">
        <ele>1848.2</ele>
        <time>2021-01-16T10:57:45Z</time>
      </trkpt>
      <trkpt lat="45.30523" lon="6.04693">
        <ele>1848.2</ele>
        <time>2021-01-16T10:57:46Z</time>
      </trkpt>
      <trkpt lat="45.30523" lon="6.04694">
        <ele>1848.4</ele>
        <time>2021-01-16T10:57:47Z</time>
      </trkpt>
      <trkpt lat="45.30524" lon="6.04694">
        <ele>1848.2</ele>
        <time>2021-01-16T10:57:48Z</time>
      </trkpt>
      <trkpt lat="45.30524" lon="6.04695">
        <ele>1848.2</ele>
        <time>2021-01-16T10:57:49Z</time>
      </trkpt>
      <trkpt lat="45.30524" lon="6.04695">
        <ele>1848.2</ele>
        <time>2021-01-16T10:57:50Z</time>
      </trkpt>
      <trkpt lat="45.30524" lon="6.04696">
        <ele>1848.4</ele>
        <time>2021-01-16T10:57:51Z</time>
      </trkpt>
      <trkpt lat="45.30524" lon="6.04696">
        <ele>1848.4</ele>
        <time>2021-01-16T10:57:52Z</time>
      </trkpt>
      <trkpt lat="45.30524" lon="6.04697">
        <ele>1848.6</ele>
        <time>2021-01-16T10:57:53Z</time>
      </trkpt>
      <trkpt lat="45.30524" lon="6.04697">
        <ele>1848.6</ele>
        <time>2021-01-16T10:57:54Z</time>
      </trkpt>
      <trkpt lat="45.30524" lon="6.04698">
        <ele>1848.6</ele>
        <time>2021-01-16T10:57:55Z</time>
      </trkpt>
      <trkpt lat="45.30524" lon="6.04698">
        <ele>1848.8</ele>
        <time>2021-01-16T10:57:56Z</time>
      </trkpt>
      <trkpt lat="45.30524" lon="6.04698">
        <ele>1848.8</ele>
        <time>2021-01-16T10:57:57Z</time>
      </trkpt>
      <trkpt lat="45.30524" lon="6.04699">
        <ele>1849</ele>
        <time>2021-01-16T10:57:58Z</time>
      </trkpt>
      <trkpt lat="45.30524" lon="6.04699">
        <ele>1849</ele>
        <time>2021-01-16T10:57:59Z</time>
      </trkpt>
      <trkpt lat="45.30524" lon="6.047">
        <ele>1849.2</ele>
        <time>2021-01-16T10:58:00Z</time>
      </trkpt>
      <trkpt lat="45.30524" lon="6.047">
        <ele>1849.2</ele>
        <time>2021-01-16T10:58:01Z</time>
      </trkpt>
      <trkpt lat="45.30524" lon="6.04701">
        <ele>1849.4</ele>
        <time>2021-01-16T10:58:02Z</time>
      </trkpt>
      <trkpt lat="45.30525" lon="6.04701">
        <ele>1849.6</ele>
        <time>2021-01-16T10:58:03Z</time>
      </trkpt>
      <trkpt lat="45.30525" lon="6.04702">
        <ele>1849.6</ele>
        <time>2021-01-16T10:58:04Z</time>
      </trkpt>
      <trkpt lat="45.30525" lon="6.04702">
        <ele>1849.6</ele>
        <time>2021-01-16T10:58:05Z</time>
      </trkpt>
      <trkpt lat="45.30525" lon="6.04703">
        <ele>1849.8</ele>
        <time>2021-01-16T10:58:06Z</time>
      </trkpt>
      <trkpt lat="45.30525" lon="6.04703">
        <ele>1850</ele>
        <time>2021-01-16T10:58:07Z</time>
      </trkpt>
      <trkpt lat="45.30525" lon="6.04704">
        <ele>1850</ele>
        <time>2021-01-16T10:58:08Z</time>
      </trkpt>
      <trkpt lat="45.30525" lon="6.04704">
        <ele>1850</ele>
        <time>2021-01-16T10:58:09Z</time>
      </trkpt>
      <trkpt lat="45.30525" lon="6.04705">
        <ele>1850</ele>
        <time>2021-01-16T10:58:10Z</time>
      </trkpt>
      <trkpt lat="45.30525" lon="6.04705">
        <ele>1850</ele>
        <time>2021-01-16T10:58:11Z</time>
      </trkpt>
      <trkpt lat="45.30525" lon="6.04706">
        <ele>1850.2</ele>
        <time>2021-01-16T10:58:12Z</time>
      </trkpt>
      <trkpt lat="45.30525" lon="6.04706">
        <ele>1850.2</ele>
        <time>2021-01-16T10:58:13Z</time>
      </trkpt>
      <trkpt lat="45.30525" lon="6.04707">
        <ele>1850.4</ele>
        <time>2021-01-16T10:58:14Z</time>
      </trkpt>
      <trkpt lat="45.30525" lon="6.04707">
        <ele>1850.4</ele>
        <time>2021-01-16T10:58:15Z</time>
      </trkpt>
      <trkpt lat="45.30525" lon="6.04708">
        <ele>1850.6</ele>
        <time>2021-01-16T10:58:16Z</time>
      </trkpt>
      <trkpt lat="45.30526" lon="6.04708">
        <ele>1850.6</ele>
        <time>2021-01-16T10:58:17Z</time>
      </trkpt>
      <trkpt lat="45.30526" lon="6.04709">
        <ele>1850.8</ele>
        <time>2021-01-16T10:58:18Z</time>
      </trkpt>
      <trkpt lat="45.30526" lon="6.04709">
        <ele>1851</ele>
        <time>2021-01-16T10:58:19Z</time>
      </trkpt>
      <trkpt lat="45.30526" lon="6.0471">
        <ele>1851.2</ele>
        <time>2021-01-16T10:58:20Z</time>
      </trkpt>
      <trkpt lat="45.30526" lon="6.0471">
        <ele>1851.4</ele>
        <time>2021-01-16T10:58:21Z</time>
      </trkpt>
      <trkpt lat="45.30526" lon="6.04711">
        <ele>1851.2</ele>
        <time>2021-01-16T10:58:22Z</time>
      </trkpt>
      <trkpt lat="45.30526" lon="6.04711">
        <ele>1851.6</ele>
        <time>2021-01-16T10:58:23Z</time>
      </trkpt>
      <trkpt lat="45.30526" lon="6.04712">
        <ele>1851.6</ele>
        <time>2021-01-16T10:58:24Z</time>
      </trkpt>
      <trkpt lat="45.30526" lon="6.04712">
        <ele>1851.8</ele>
        <time>2021-01-16T10:58:25Z</time>
      </trkpt>
      <trkpt lat="45.30526" lon="6.04712">
        <ele>1852</ele>
        <time>2021-01-16T10:58:26Z</time>
      </trkpt>
      <trkpt lat="45.30526" lon="6.04713">
        <ele>1852.2</ele>
        <time>2021-01-16T10:58:27Z</time>
      </trkpt>
      <trkpt lat="45.30525" lon="6.04713">
        <ele>1852.4</ele>
        <time>2021-01-16T10:58:28Z</time>
      </trkpt>
      <trkpt lat="45.30525" lon="6.04714">
        <ele>1852.6</ele>
        <time>2021-01-16T10:58:29Z</time>
      </trkpt>
      <trkpt lat="45.30525" lon="6.04714">
        <ele>1852.8</ele>
        <time>2021-01-16T10:58:30Z</time>
      </trkpt>
      <trkpt lat="45.30525" lon="6.04714">
        <ele>1853</ele>
        <time>2021-01-16T10:58:31Z</time>
      </trkpt>
      <trkpt lat="45.30525" lon="6.04715">
        <ele>1853.2</ele>
        <time>2021-01-16T10:58:32Z</time>
      </trkpt>
      <trkpt lat="45.30525" lon="6.04715">
        <ele>1853.4</ele>
        <time>2021-01-16T10:58:33Z</time>
      </trkpt>
      <trkpt lat="45.30525" lon="6.04715">
        <ele>1853.4</ele>
        <time>2021-01-16T10:58:34Z</time>
      </trkpt>
      <trkpt lat="45.30524" lon="6.04716">
        <ele>1853.8</ele>
        <time>2021-01-16T10:58:35Z</time>
      </trkpt>
      <trkpt lat="45.30524" lon="6.04716">
        <ele>1853.8</ele>
        <time>2021-01-16T10:58:36Z</time>
      </trkpt>
      <trkpt lat="45.30524" lon="6.04716">
        <ele>1854.2</ele>
        <time>2021-01-16T10:58:37Z</time>
      </trkpt>
      <trkpt lat="45.30524" lon="6.04717">
        <ele>1854.4</ele>
        <time>2021-01-16T10:58:38Z</time>
      </trkpt>
      <trkpt lat="45.30524" lon="6.04717">
        <ele>1854.4</ele>
        <time>2021-01-16T10:58:39Z</time>
      </trkpt>
      <trkpt lat="45.30524" lon="6.04717">
        <ele>1854.6</ele>
        <time>2021-01-16T10:58:40Z</time>
      </trkpt>
      <trkpt lat="45.30524" lon="6.04718">
        <ele>1854.8</ele>
        <time>2021-01-16T10:58:41Z</time>
      </trkpt>
      <trkpt lat="45.30523" lon="6.04718">
        <ele>1855</ele>
        <time>2021-01-16T10:58:42Z</time>
      </trkpt>
      <trkpt lat="45.30523" lon="6.04718">
        <ele>1855.2</ele>
        <time>2021-01-16T10:58:43Z</time>
      </trkpt>
      <trkpt lat="45.30523" lon="6.04719">
        <ele>1855.4</ele>
        <time>2021-01-16T10:58:44Z</time>
      </trkpt>
      <trkpt lat="45.30523" lon="6.04719">
        <ele>1855.4</ele>
        <time>2021-01-16T10:58:45Z</time>
      </trkpt>
      <trkpt lat="45.30523" lon="6.04719">
        <ele>1855.8</ele>
        <time>2021-01-16T10:58:46Z</time>
      </trkpt>
      <trkpt lat="45.30523" lon="6.0472">
        <ele>1855.6</ele>
        <time>2021-01-16T10:58:47Z</time>
      </trkpt>
      <trkpt lat="45.30523" lon="6.0472">
        <ele>1855.8</ele>
        <time>2021-01-16T10:58:48Z</time>
      </trkpt>
      <trkpt lat="45.30523" lon="6.04721">
        <ele>1856</ele>
        <time>2021-01-16T10:58:49Z</time>
      </trkpt>
      <trkpt lat="45.30522" lon="6.04721">
        <ele>1856</ele>
        <time>2021-01-16T10:58:50Z</time>
      </trkpt>
      <trkpt lat="45.30522" lon="6.04721">
        <ele>1856</ele>
        <time>2021-01-16T10:58:51Z</time>
      </trkpt>
      <trkpt lat="45.30522" lon="6.04722">
        <ele>1856</ele>
        <time>2021-01-16T10:58:52Z</time>
      </trkpt>
      <trkpt lat="45.30522" lon="6.04722">
        <ele>1856.2</ele>
        <time>2021-01-16T10:58:53Z</time>
      </trkpt>
      <trkpt lat="45.30522" lon="6.04722">
        <ele>1856.2</ele>
        <time>2021-01-16T10:58:54Z</time>
      </trkpt>
      <trkpt lat="45.30522" lon="6.04723">
        <ele>1856.2</ele>
        <time>2021-01-16T10:58:55Z</time>
      </trkpt>
      <trkpt lat="45.30522" lon="6.04723">
        <ele>1856.2</ele>
        <time>2021-01-16T10:58:56Z</time>
      </trkpt>
      <trkpt lat="45.30521" lon="6.04723">
        <ele>1856.4</ele>
        <time>2021-01-16T10:58:57Z</time>
      </trkpt>
      <trkpt lat="45.30521" lon="6.04724">
        <ele>1856.4</ele>
        <time>2021-01-16T10:58:58Z</time>
      </trkpt>
      <trkpt lat="45.30521" lon="6.04724">
        <ele>1856.6</ele>
        <time>2021-01-16T10:58:59Z</time>
      </trkpt>
      <trkpt lat="45.30521" lon="6.04724">
        <ele>1856.6</ele>
        <time>2021-01-16T10:59:00Z</time>
      </trkpt>
      <trkpt lat="45.30521" lon="6.04725">
        <ele>1856.8</ele>
        <time>2021-01-16T10:59:01Z</time>
      </trkpt>
      <trkpt lat="45.30521" lon="6.04725">
        <ele>1857</ele>
        <time>2021-01-16T10:59:02Z</time>
      </trkpt>
      <trkpt lat="45.30521" lon="6.04725">
        <ele>1857</ele>
        <time>2021-01-16T10:59:03Z</time>
      </trkpt>
      <trkpt lat="45.3052" lon="6.04726">
        <ele>1857.2</ele>
        <time>2021-01-16T10:59:04Z</time>
      </trkpt>
      <trkpt lat="45.3052" lon="6.04726">
        <ele>1857.2</ele>
        <time>2021-01-16T10:59:05Z</time>
      </trkpt>
      <trkpt lat="45.3052" lon="6.04727">
        <ele>1857.4</ele>
        <time>2021-01-16T10:59:06Z</time>
      </trkpt>
      <trkpt lat="45.3052" lon="6.04727">
        <ele>1857.6</ele>
        <time>2021-01-16T10:59:07Z</time>
      </trkpt>
      <trkpt lat="45.3052" lon="6.04727">
        <ele>1857.8</ele>
        <time>2021-01-16T10:59:08Z</time>
      </trkpt>
      <trkpt lat="45.3052" lon="6.04728">
        <ele>1857.8</ele>
        <time>2021-01-16T10:59:09Z</time>
      </trkpt>
      <trkpt lat="45.3052" lon="6.04728">
        <ele>1858</ele>
        <time>2021-01-16T10:59:10Z</time>
      </trkpt>
      <trkpt lat="45.3052" lon="6.04728">
        <ele>1857.8</ele>
        <time>2021-01-16T10:59:11Z</time>
      </trkpt>
      <trkpt lat="45.30519" lon="6.04729">
        <ele>1858.2</ele>
        <time>2021-01-16T10:59:12Z</time>
      </trkpt>
      <trkpt lat="45.30519" lon="6.04729">
        <ele>1858.2</ele>
        <time>2021-01-16T10:59:13Z</time>
      </trkpt>
      <trkpt lat="45.30519" lon="6.04729">
        <ele>1858.4</ele>
        <time>2021-01-16T10:59:14Z</time>
      </trkpt>
      <trkpt lat="45.30519" lon="6.0473">
        <ele>1858.6</ele>
        <time>2021-01-16T10:59:15Z</time>
      </trkpt>
      <trkpt lat="45.30519" lon="6.0473">
        <ele>1858.8</ele>
        <time>2021-01-16T10:59:16Z</time>
      </trkpt>
      <trkpt lat="45.30519" lon="6.04731">
        <ele>1859</ele>
        <time>2021-01-16T10:59:17Z</time>
      </trkpt>
      <trkpt lat="45.30519" lon="6.04731">
        <ele>1859</ele>
        <time>2021-01-16T10:59:18Z</time>
      </trkpt>
      <trkpt lat="45.30518" lon="6.04731">
        <ele>1859</ele>
        <time>2021-01-16T10:59:19Z</time>
      </trkpt>
      <trkpt lat="45.30518" lon="6.04731">
        <ele>1859.2</ele>
        <time>2021-01-16T10:59:20Z</time>
      </trkpt>
      <trkpt lat="45.30518" lon="6.04731">
        <ele>1859.4</ele>
        <time>2021-01-16T10:59:21Z</time>
      </trkpt>
      <trkpt lat="45.30517" lon="6.04731">
        <ele>1859.4</ele>
        <time>2021-01-16T10:59:22Z</time>
      </trkpt>
      <trkpt lat="45.30517" lon="6.04732">
        <ele>1859.4</ele>
        <time>2021-01-16T10:59:23Z</time>
      </trkpt>
      <trkpt lat="45.30517" lon="6.04732">
        <ele>1859.4</ele>
        <time>2021-01-16T10:59:24Z</time>
      </trkpt>
      <trkpt lat="45.30517" lon="6.04732">
        <ele>1859.4</ele>
        <time>2021-01-16T10:59:25Z</time>
      </trkpt>
      <trkpt lat="45.30516" lon="6.04732">
        <ele>1859.4</ele>
        <time>2021-01-16T10:59:26Z</time>
      </trkpt>
      <trkpt lat="45.30516" lon="6.04732">
        <ele>1859.4</ele>
        <time>2021-01-16T10:59:27Z</time>
      </trkpt>
      <trkpt lat="45.30516" lon="6.04732">
        <ele>1859.4</ele>
        <time>2021-01-16T10:59:28Z</time>
      </trkpt>
      <trkpt lat="45.30515" lon="6.04732">
        <ele>1859.4</ele>
        <time>2021-01-16T10:59:29Z</time>
      </trkpt>
      <trkpt lat="45.30515" lon="6.04732">
        <ele>1859.4</ele>
        <time>2021-01-16T10:59:30Z</time>
      </trkpt>
      <trkpt lat="45.30515" lon="6.04732">
        <ele>1859.4</ele>
        <time>2021-01-16T10:59:31Z</time>
      </trkpt>
      <trkpt lat="45.30515" lon="6.04732">
        <ele>1859.4</ele>
        <time>2021-01-16T10:59:32Z</time>
      </trkpt>
      <trkpt lat="45.30514" lon="6.04732">
        <ele>1859.4</ele>
        <time>2021-01-16T10:59:33Z</time>
      </trkpt>
      <trkpt lat="45.30514" lon="6.04733">
        <ele>1859.6</ele>
        <time>2021-01-16T10:59:34Z</time>
      </trkpt>
      <trkpt lat="45.30514" lon="6.04733">
        <ele>1859.4</ele>
        <time>2021-01-16T10:59:35Z</time>
      </trkpt>
      <trkpt lat="45.30513" lon="6.04733">
        <ele>1859.6</ele>
        <time>2021-01-16T10:59:36Z</time>
      </trkpt>
      <trkpt lat="45.30513" lon="6.04733">
        <ele>1859.6</ele>
        <time>2021-01-16T10:59:37Z</time>
      </trkpt>
      <trkpt lat="45.30513" lon="6.04733">
        <ele>1859.8</ele>
        <time>2021-01-16T10:59:38Z</time>
      </trkpt>
      <trkpt lat="45.30513" lon="6.04733">
        <ele>1859.8</ele>
        <time>2021-01-16T10:59:39Z</time>
      </trkpt>
      <trkpt lat="45.30512" lon="6.04733">
        <ele>1860</ele>
        <time>2021-01-16T10:59:40Z</time>
      </trkpt>
      <trkpt lat="45.30512" lon="6.04733">
        <ele>1860</ele>
        <time>2021-01-16T10:59:41Z</time>
      </trkpt>
      <trkpt lat="45.30512" lon="6.04733">
        <ele>1860.2</ele>
        <time>2021-01-16T10:59:42Z</time>
      </trkpt>
      <trkpt lat="45.30511" lon="6.04733">
        <ele>1860.2</ele>
        <time>2021-01-16T10:59:43Z</time>
      </trkpt>
      <trkpt lat="45.30511" lon="6.04734">
        <ele>1860.4</ele>
        <time>2021-01-16T10:59:44Z</time>
      </trkpt>
      <trkpt lat="45.30511" lon="6.04734">
        <ele>1860.4</ele>
        <time>2021-01-16T10:59:45Z</time>
      </trkpt>
      <trkpt lat="45.30511" lon="6.04734">
        <ele>1860.4</ele>
        <time>2021-01-16T10:59:46Z</time>
      </trkpt>
      <trkpt lat="45.3051" lon="6.04734">
        <ele>1860.6</ele>
        <time>2021-01-16T10:59:47Z</time>
      </trkpt>
      <trkpt lat="45.30509" lon="6.04734">
        <ele>1860.6</ele>
        <time>2021-01-16T10:59:48Z</time>
      </trkpt>
      <trkpt lat="45.30509" lon="6.04734">
        <ele>1860.8</ele>
        <time>2021-01-16T10:59:49Z</time>
      </trkpt>
      <trkpt lat="45.30508" lon="6.04734">
        <ele>1860.8</ele>
        <time>2021-01-16T10:59:50Z</time>
      </trkpt>
      <trkpt lat="45.30508" lon="6.04734">
        <ele>1860.8</ele>
        <time>2021-01-16T10:59:51Z</time>
      </trkpt>
      <trkpt lat="45.30507" lon="6.04733">
        <ele>1861</ele>
        <time>2021-01-16T10:59:52Z</time>
      </trkpt>
      <trkpt lat="45.30506" lon="6.04733">
        <ele>1861</ele>
        <time>2021-01-16T10:59:53Z</time>
      </trkpt>
      <trkpt lat="45.30506" lon="6.04733">
        <ele>1861</ele>
        <time>2021-01-16T10:59:54Z</time>
      </trkpt>
      <trkpt lat="45.30505" lon="6.04733">
        <ele>1861</ele>
        <time>2021-01-16T10:59:55Z</time>
      </trkpt>
      <trkpt lat="45.30505" lon="6.04733">
        <ele>1861.2</ele>
        <time>2021-01-16T10:59:56Z</time>
      </trkpt>
      <trkpt lat="45.30504" lon="6.04733">
        <ele>1861.2</ele>
        <time>2021-01-16T10:59:57Z</time>
      </trkpt>
      <trkpt lat="45.30503" lon="6.04733">
        <ele>1861.4</ele>
        <time>2021-01-16T10:59:58Z</time>
      </trkpt>
      <trkpt lat="45.30503" lon="6.04733">
        <ele>1861.4</ele>
        <time>2021-01-16T10:59:59Z</time>
      </trkpt>
      <trkpt lat="45.30502" lon="6.04733">
        <ele>1861.4</ele>
        <time>2021-01-16T11:00:00Z</time>
      </trkpt>
      <trkpt lat="45.30502" lon="6.04733">
        <ele>1861.6</ele>
        <time>2021-01-16T11:00:01Z</time>
      </trkpt>
      <trkpt lat="45.30501" lon="6.04733">
        <ele>1861.6</ele>
        <time>2021-01-16T11:00:02Z</time>
      </trkpt>
      <trkpt lat="45.30501" lon="6.04733">
        <ele>1861.6</ele>
        <time>2021-01-16T11:00:03Z</time>
      </trkpt>
      <trkpt lat="45.305" lon="6.04733">
        <ele>1861.6</ele>
        <time>2021-01-16T11:00:04Z</time>
      </trkpt>
      <trkpt lat="45.30499" lon="6.04732">
        <ele>1861.8</ele>
        <time>2021-01-16T11:00:05Z</time>
      </trkpt>
      <trkpt lat="45.30499" lon="6.04732">
        <ele>1861.8</ele>
        <time>2021-01-16T11:00:06Z</time>
      </trkpt>
      <trkpt lat="45.30498" lon="6.04732">
        <ele>1862</ele>
        <time>2021-01-16T11:00:07Z</time>
      </trkpt>
      <trkpt lat="45.30498" lon="6.04732">
        <ele>1862.2</ele>
        <time>2021-01-16T11:00:08Z</time>
      </trkpt>
      <trkpt lat="45.30497" lon="6.04732">
        <ele>1862.2</ele>
        <time>2021-01-16T11:00:09Z</time>
      </trkpt>
      <trkpt lat="45.30496" lon="6.04732">
        <ele>1862.4</ele>
        <time>2021-01-16T11:00:10Z</time>
      </trkpt>
      <trkpt lat="45.30496" lon="6.04732">
        <ele>1862.4</ele>
        <time>2021-01-16T11:00:11Z</time>
      </trkpt>
      <trkpt lat="45.30495" lon="6.04732">
        <ele>1862.6</ele>
        <time>2021-01-16T11:00:12Z</time>
      </trkpt>
      <trkpt lat="45.30495" lon="6.04732">
        <ele>1862.4</ele>
        <time>2021-01-16T11:00:13Z</time>
      </trkpt>
      <trkpt lat="45.30494" lon="6.04732">
        <ele>1862.6</ele>
        <time>2021-01-16T11:00:14Z</time>
      </trkpt>
      <trkpt lat="45.30494" lon="6.04732">
        <ele>1862.6</ele>
        <time>2021-01-16T11:00:15Z</time>
      </trkpt>
      <trkpt lat="45.30493" lon="6.04732">
        <ele>1862.6</ele>
        <time>2021-01-16T11:00:16Z</time>
      </trkpt>
      <trkpt lat="45.30492" lon="6.04732">
        <ele>1862.6</ele>
        <time>2021-01-16T11:00:17Z</time>
      </trkpt>
      <trkpt lat="45.30492" lon="6.04731">
        <ele>1862.6</ele>
        <time>2021-01-16T11:00:18Z</time>
      </trkpt>
      <trkpt lat="45.30491" lon="6.04731">
        <ele>1862.8</ele>
        <time>2021-01-16T11:00:19Z</time>
      </trkpt>
      <trkpt lat="45.30491" lon="6.04731">
        <ele>1863</ele>
        <time>2021-01-16T11:00:20Z</time>
      </trkpt>
      <trkpt lat="45.3049" lon="6.04731">
        <ele>1863.2</ele>
        <time>2021-01-16T11:00:21Z</time>
      </trkpt>
      <trkpt lat="45.3049" lon="6.04731">
        <ele>1863.2</ele>
        <time>2021-01-16T11:00:22Z</time>
      </trkpt>
      <trkpt lat="45.30489" lon="6.04731">
        <ele>1863.2</ele>
        <time>2021-01-16T11:00:23Z</time>
      </trkpt>
      <trkpt lat="45.30488" lon="6.04731">
        <ele>1863.4</ele>
        <time>2021-01-16T11:00:24Z</time>
      </trkpt>
      <trkpt lat="45.30488" lon="6.04731">
        <ele>1863.4</ele>
        <time>2021-01-16T11:00:25Z</time>
      </trkpt>
      <trkpt lat="45.30487" lon="6.04731">
        <ele>1863.6</ele>
        <time>2021-01-16T11:00:26Z</time>
      </trkpt>
      <trkpt lat="45.30487" lon="6.04731">
        <ele>1863.6</ele>
        <time>2021-01-16T11:00:27Z</time>
      </trkpt>
      <trkpt lat="45.30486" lon="6.04731">
        <ele>1863.8</ele>
        <time>2021-01-16T11:00:28Z</time>
      </trkpt>
      <trkpt lat="45.30485" lon="6.04731">
        <ele>1863.8</ele>
        <time>2021-01-16T11:00:29Z</time>
      </trkpt>
      <trkpt lat="45.30485" lon="6.04731">
        <ele>1863.8</ele>
        <time>2021-01-16T11:00:30Z</time>
      </trkpt>
      <trkpt lat="45.30484" lon="6.0473">
        <ele>1864</ele>
        <time>2021-01-16T11:00:31Z</time>
      </trkpt>
      <trkpt lat="45.30484" lon="6.0473">
        <ele>1864</ele>
        <time>2021-01-16T11:00:32Z</time>
      </trkpt>
      <trkpt lat="45.30483" lon="6.0473">
        <ele>1864.2</ele>
        <time>2021-01-16T11:00:33Z</time>
      </trkpt>
      <trkpt lat="45.30483" lon="6.0473">
        <ele>1864.2</ele>
        <time>2021-01-16T11:00:34Z</time>
      </trkpt>
      <trkpt lat="45.30482" lon="6.0473">
        <ele>1864.4</ele>
        <time>2021-01-16T11:00:35Z</time>
      </trkpt>
      <trkpt lat="45.30481" lon="6.0473">
        <ele>1864.4</ele>
        <time>2021-01-16T11:00:36Z</time>
      </trkpt>
      <trkpt lat="45.30481" lon="6.0473">
        <ele>1864.6</ele>
        <time>2021-01-16T11:00:37Z</time>
      </trkpt>
      <trkpt lat="45.3048" lon="6.0473">
        <ele>1864.8</ele>
        <time>2021-01-16T11:00:38Z</time>
      </trkpt>
      <trkpt lat="45.3048" lon="6.0473">
        <ele>1865</ele>
        <time>2021-01-16T11:00:39Z</time>
      </trkpt>
      <trkpt lat="45.30479" lon="6.0473">
        <ele>1865</ele>
        <time>2021-01-16T11:00:40Z</time>
      </trkpt>
      <trkpt lat="45.30478" lon="6.0473">
        <ele>1865.2</ele>
        <time>2021-01-16T11:00:41Z</time>
      </trkpt>
      <trkpt lat="45.30478" lon="6.0473">
        <ele>1865.4</ele>
        <time>2021-01-16T11:00:42Z</time>
      </trkpt>
      <trkpt lat="45.30477" lon="6.0473">
        <ele>1865.4</ele>
        <time>2021-01-16T11:00:43Z</time>
      </trkpt>
      <trkpt lat="45.30477" lon="6.0473">
        <ele>1865.6</ele>
        <time>2021-01-16T11:00:44Z</time>
      </trkpt>
      <trkpt lat="45.30476" lon="6.0473">
        <ele>1865.6</ele>
        <time>2021-01-16T11:00:45Z</time>
      </trkpt>
      <trkpt lat="45.30476" lon="6.0473">
        <ele>1865.6</ele>
        <time>2021-01-16T11:00:46Z</time>
      </trkpt>
      <trkpt lat="45.30475" lon="6.0473">
        <ele>1865.8</ele>
        <time>2021-01-16T11:00:47Z</time>
      </trkpt>
      <trkpt lat="45.30475" lon="6.04731">
        <ele>1865.8</ele>
        <time>2021-01-16T11:00:48Z</time>
      </trkpt>
      <trkpt lat="45.30474" lon="6.04731">
        <ele>1866</ele>
        <time>2021-01-16T11:00:49Z</time>
      </trkpt>
      <trkpt lat="45.30474" lon="6.04731">
        <ele>1866.2</ele>
        <time>2021-01-16T11:00:50Z</time>
      </trkpt>
      <trkpt lat="45.30474" lon="6.04731">
        <ele>1866.2</ele>
        <time>2021-01-16T11:00:51Z</time>
      </trkpt>
      <trkpt lat="45.30473" lon="6.04731">
        <ele>1866.4</ele>
        <time>2021-01-16T11:00:52Z</time>
      </trkpt>
      <trkpt lat="45.30473" lon="6.04731">
        <ele>1866.4</ele>
        <time>2021-01-16T11:00:53Z</time>
      </trkpt>
      <trkpt lat="45.30472" lon="6.04731">
        <ele>1866.6</ele>
        <time>2021-01-16T11:00:54Z</time>
      </trkpt>
      <trkpt lat="45.30472" lon="6.04731">
        <ele>1866.6</ele>
        <time>2021-01-16T11:00:55Z</time>
      </trkpt>
      <trkpt lat="45.30471" lon="6.04731">
        <ele>1866.8</ele>
        <time>2021-01-16T11:00:56Z</time>
      </trkpt>
      <trkpt lat="45.30471" lon="6.04732">
        <ele>1866.8</ele>
        <time>2021-01-16T11:00:57Z</time>
      </trkpt>
      <trkpt lat="45.3047" lon="6.04732">
        <ele>1867</ele>
        <time>2021-01-16T11:00:58Z</time>
      </trkpt>
      <trkpt lat="45.3047" lon="6.04732">
        <ele>1867</ele>
        <time>2021-01-16T11:00:59Z</time>
      </trkpt>
      <trkpt lat="45.30469" lon="6.04732">
        <ele>1867.2</ele>
        <time>2021-01-16T11:01:00Z</time>
      </trkpt>
      <trkpt lat="45.30469" lon="6.04732">
        <ele>1867</ele>
        <time>2021-01-16T11:01:01Z</time>
      </trkpt>
      <trkpt lat="45.30468" lon="6.04732">
        <ele>1867.2</ele>
        <time>2021-01-16T11:01:02Z</time>
      </trkpt>
      <trkpt lat="45.30468" lon="6.04732">
        <ele>1867.2</ele>
        <time>2021-01-16T11:01:03Z</time>
      </trkpt>
      <trkpt lat="45.30467" lon="6.04733">
        <ele>1867.2</ele>
        <time>2021-01-16T11:01:04Z</time>
      </trkpt>
      <trkpt lat="45.30467" lon="6.04733">
        <ele>1867.4</ele>
        <time>2021-01-16T11:01:05Z</time>
      </trkpt>
      <trkpt lat="45.30467" lon="6.04733">
        <ele>1867.4</ele>
        <time>2021-01-16T11:01:06Z</time>
      </trkpt>
      <trkpt lat="45.30467" lon="6.04733">
        <ele>1867.6</ele>
        <time>2021-01-16T11:01:07Z</time>
      </trkpt>
      <trkpt lat="45.30467" lon="6.04733">
        <ele>1867.6</ele>
        <time>2021-01-16T11:01:08Z</time>
      </trkpt>
      <trkpt lat="45.30467" lon="6.04733">
        <ele>1867.8</ele>
        <time>2021-01-16T11:01:09Z</time>
      </trkpt>
      <trkpt lat="45.30467" lon="6.04733">
        <ele>1867.8</ele>
        <time>2021-01-16T11:01:10Z</time>
      </trkpt>
      <trkpt lat="45.30467" lon="6.04733">
        <ele>1868</ele>
        <time>2021-01-16T11:01:11Z</time>
      </trkpt>
      <trkpt lat="45.30467" lon="6.04733">
        <ele>1868</ele>
        <time>2021-01-16T11:01:12Z</time>
      </trkpt>
      <trkpt lat="45.30467" lon="6.04733">
        <ele>1868.2</ele>
        <time>2021-01-16T11:01:13Z</time>
      </trkpt>
      <trkpt lat="45.30467" lon="6.04733">
        <ele>1868.2</ele>
        <time>2021-01-16T11:01:14Z</time>
      </trkpt>
      <trkpt lat="45.30467" lon="6.04733">
        <ele>1868.4</ele>
        <time>2021-01-16T11:01:15Z</time>
      </trkpt>
      <trkpt lat="45.30467" lon="6.04733">
        <ele>1868.4</ele>
        <time>2021-01-16T11:01:16Z</time>
      </trkpt>
      <trkpt lat="45.30467" lon="6.04733">
        <ele>1868.6</ele>
        <time>2021-01-16T11:01:17Z</time>
      </trkpt>
      <trkpt lat="45.30467" lon="6.04733">
        <ele>1868.6</ele>
        <time>2021-01-16T11:01:18Z</time>
      </trkpt>
      <trkpt lat="45.30467" lon="6.04733">
        <ele>1868.8</ele>
        <time>2021-01-16T11:01:19Z</time>
      </trkpt>
      <trkpt lat="45.30467" lon="6.04733">
        <ele>1869</ele>
        <time>2021-01-16T11:01:20Z</time>
      </trkpt>
      <trkpt lat="45.30465" lon="6.04733">
        <ele>1869</ele>
        <time>2021-01-16T11:01:21Z</time>
      </trkpt>
      <trkpt lat="45.30458" lon="6.04732">
        <ele>1869.2</ele>
        <time>2021-01-16T11:01:22Z</time>
      </trkpt>
      <trkpt lat="45.30457" lon="6.04733">
        <ele>1869.2</ele>
        <time>2021-01-16T11:01:23Z</time>
      </trkpt>
      <trkpt lat="45.30457" lon="6.04732">
        <ele>1869.4</ele>
        <time>2021-01-16T11:01:24Z</time>
      </trkpt>
      <trkpt lat="45.30457" lon="6.04732">
        <ele>1869.4</ele>
        <time>2021-01-16T11:01:25Z</time>
      </trkpt>
      <trkpt lat="45.30457" lon="6.04732">
        <ele>1869.6</ele>
        <time>2021-01-16T11:01:26Z</time>
      </trkpt>
      <trkpt lat="45.30457" lon="6.04732">
        <ele>1869.6</ele>
        <time>2021-01-16T11:01:27Z</time>
      </trkpt>
      <trkpt lat="45.30457" lon="6.04732">
        <ele>1869.8</ele>
        <time>2021-01-16T11:01:28Z</time>
      </trkpt>
      <trkpt lat="45.30457" lon="6.04732">
        <ele>1870</ele>
        <time>2021-01-16T11:01:29Z</time>
      </trkpt>
      <trkpt lat="45.30457" lon="6.04732">
        <ele>1870</ele>
        <time>2021-01-16T11:01:30Z</time>
      </trkpt>
      <trkpt lat="45.30457" lon="6.04732">
        <ele>1870.2</ele>
        <time>2021-01-16T11:01:31Z</time>
      </trkpt>
      <trkpt lat="45.30457" lon="6.04732">
        <ele>1870.2</ele>
        <time>2021-01-16T11:01:32Z</time>
      </trkpt>
      <trkpt lat="45.30457" lon="6.04732">
        <ele>1870.4</ele>
        <time>2021-01-16T11:01:33Z</time>
      </trkpt>
      <trkpt lat="45.30457" lon="6.04732">
        <ele>1870.6</ele>
        <time>2021-01-16T11:01:34Z</time>
      </trkpt>
      <trkpt lat="45.30457" lon="6.04732">
        <ele>1870.8</ele>
        <time>2021-01-16T11:01:35Z</time>
      </trkpt>
      <trkpt lat="45.30457" lon="6.04732">
        <ele>1871</ele>
        <time>2021-01-16T11:01:36Z</time>
      </trkpt>
      <trkpt lat="45.30457" lon="6.04732">
        <ele>1871</ele>
        <time>2021-01-16T11:01:37Z</time>
      </trkpt>
      <trkpt lat="45.30457" lon="6.04732">
        <ele>1871.2</ele>
        <time>2021-01-16T11:01:38Z</time>
      </trkpt>
      <trkpt lat="45.30457" lon="6.04732">
        <ele>1871.4</ele>
        <time>2021-01-16T11:01:39Z</time>
      </trkpt>
      <trkpt lat="45.30457" lon="6.04732">
        <ele>1871.4</ele>
        <time>2021-01-16T11:01:40Z</time>
      </trkpt>
      <trkpt lat="45.30457" lon="6.04732">
        <ele>1871.6</ele>
        <time>2021-01-16T11:01:41Z</time>
      </trkpt>
      <trkpt lat="45.30457" lon="6.04732">
        <ele>1871.6</ele>
        <time>2021-01-16T11:01:42Z</time>
      </trkpt>
      <trkpt lat="45.30457" lon="6.04732">
        <ele>1871.8</ele>
        <time>2021-01-16T11:01:43Z</time>
      </trkpt>
      <trkpt lat="45.30457" lon="6.04732">
        <ele>1871.8</ele>
        <time>2021-01-16T11:01:44Z</time>
      </trkpt>
      <trkpt lat="45.30455" lon="6.04733">
        <ele>1872</ele>
        <time>2021-01-16T11:01:45Z</time>
      </trkpt>
      <trkpt lat="45.30448" lon="6.04734">
        <ele>1872</ele>
        <time>2021-01-16T11:01:46Z</time>
      </trkpt>
      <trkpt lat="45.30447" lon="6.04734">
        <ele>1872</ele>
        <time>2021-01-16T11:01:47Z</time>
      </trkpt>
      <trkpt lat="45.30447" lon="6.04735">
        <ele>1872.2</ele>
        <time>2021-01-16T11:01:48Z</time>
      </trkpt>
      <trkpt lat="45.30447" lon="6.04735">
        <ele>1872.2</ele>
        <time>2021-01-16T11:01:49Z</time>
      </trkpt>
      <trkpt lat="45.30447" lon="6.04735">
        <ele>1872.4</ele>
        <time>2021-01-16T11:01:50Z</time>
      </trkpt>
      <trkpt lat="45.30447" lon="6.04735">
        <ele>1872.4</ele>
        <time>2021-01-16T11:01:51Z</time>
      </trkpt>
      <trkpt lat="45.30447" lon="6.04735">
        <ele>1872.4</ele>
        <time>2021-01-16T11:01:52Z</time>
      </trkpt>
      <trkpt lat="45.30447" lon="6.04735">
        <ele>1872.6</ele>
        <time>2021-01-16T11:01:53Z</time>
      </trkpt>
      <trkpt lat="45.30447" lon="6.04735">
        <ele>1872.6</ele>
        <time>2021-01-16T11:01:54Z</time>
      </trkpt>
      <trkpt lat="45.30447" lon="6.04735">
        <ele>1872.8</ele>
        <time>2021-01-16T11:01:55Z</time>
      </trkpt>
      <trkpt lat="45.30447" lon="6.04735">
        <ele>1872.8</ele>
        <time>2021-01-16T11:01:56Z</time>
      </trkpt>
      <trkpt lat="45.30447" lon="6.04735">
        <ele>1873</ele>
        <time>2021-01-16T11:01:57Z</time>
      </trkpt>
      <trkpt lat="45.30447" lon="6.04735">
        <ele>1873.2</ele>
        <time>2021-01-16T11:01:58Z</time>
      </trkpt>
      <trkpt lat="45.30447" lon="6.04735">
        <ele>1873.4</ele>
        <time>2021-01-16T11:01:59Z</time>
      </trkpt>
      <trkpt lat="45.30447" lon="6.04735">
        <ele>1873.4</ele>
        <time>2021-01-16T11:02:00Z</time>
      </trkpt>
      <trkpt lat="45.30447" lon="6.04735">
        <ele>1873.6</ele>
        <time>2021-01-16T11:02:01Z</time>
      </trkpt>
      <trkpt lat="45.30447" lon="6.04735">
        <ele>1873.6</ele>
        <time>2021-01-16T11:02:02Z</time>
      </trkpt>
      <trkpt lat="45.30447" lon="6.04735">
        <ele>1873.6</ele>
        <time>2021-01-16T11:02:03Z</time>
      </trkpt>
      <trkpt lat="45.30447" lon="6.04735">
        <ele>1873.6</ele>
        <time>2021-01-16T11:02:04Z</time>
      </trkpt>
      <trkpt lat="45.30447" lon="6.04735">
        <ele>1873.8</ele>
        <time>2021-01-16T11:02:05Z</time>
      </trkpt>
      <trkpt lat="45.30447" lon="6.04735">
        <ele>1873.8</ele>
        <time>2021-01-16T11:02:06Z</time>
      </trkpt>
      <trkpt lat="45.30447" lon="6.04735">
        <ele>1873.8</ele>
        <time>2021-01-16T11:02:07Z</time>
      </trkpt>
      <trkpt lat="45.30447" lon="6.04735">
        <ele>1873.8</ele>
        <time>2021-01-16T11:02:08Z</time>
      </trkpt>
      <trkpt lat="45.30447" lon="6.04735">
        <ele>1873.8</ele>
        <time>2021-01-16T11:02:09Z</time>
      </trkpt>
      <trkpt lat="45.30447" lon="6.04735">
        <ele>1873.8</ele>
        <time>2021-01-16T11:02:10Z</time>
      </trkpt>
      <trkpt lat="45.30447" lon="6.04735">
        <ele>1874</ele>
        <time>2021-01-16T11:02:11Z</time>
      </trkpt>
      <trkpt lat="45.30447" lon="6.04735">
        <ele>1874</ele>
        <time>2021-01-16T11:02:12Z</time>
      </trkpt>
      <trkpt lat="45.30447" lon="6.04735">
        <ele>1874</ele>
        <time>2021-01-16T11:02:13Z</time>
      </trkpt>
      <trkpt lat="45.30447" lon="6.04735">
        <ele>1873.8</ele>
        <time>2021-01-16T11:02:14Z</time>
      </trkpt>
      <trkpt lat="45.30447" lon="6.04735">
        <ele>1873.8</ele>
        <time>2021-01-16T11:02:15Z</time>
      </trkpt>
      <trkpt lat="45.30447" lon="6.04735">
        <ele>1873.8</ele>
        <time>2021-01-16T11:02:16Z</time>
      </trkpt>
      <trkpt lat="45.30447" lon="6.04735">
        <ele>1874</ele>
        <time>2021-01-16T11:02:17Z</time>
      </trkpt>
      <trkpt lat="45.30447" lon="6.04735">
        <ele>1874</ele>
        <time>2021-01-16T11:02:18Z</time>
      </trkpt>
      <trkpt lat="45.30447" lon="6.04735">
        <ele>1874</ele>
        <time>2021-01-16T11:02:19Z</time>
      </trkpt>
      <trkpt lat="45.30447" lon="6.04735">
        <ele>1874</ele>
        <time>2021-01-16T11:02:20Z</time>
      </trkpt>
      <trkpt lat="45.30447" lon="6.04735">
        <ele>1874.2</ele>
        <time>2021-01-16T11:02:21Z</time>
      </trkpt>
      <trkpt lat="45.30447" lon="6.04735">
        <ele>1874.4</ele>
        <time>2021-01-16T11:02:22Z</time>
      </trkpt>
      <trkpt lat="45.30447" lon="6.04735">
        <ele>1874.2</ele>
        <time>2021-01-16T11:02:23Z</time>
      </trkpt>
      <trkpt lat="45.30447" lon="6.04735">
        <ele>1874.4</ele>
        <time>2021-01-16T11:02:24Z</time>
      </trkpt>
      <trkpt lat="45.30447" lon="6.04735">
        <ele>1874.2</ele>
        <time>2021-01-16T11:02:25Z</time>
      </trkpt>
      <trkpt lat="45.30447" lon="6.04735">
        <ele>1874.4</ele>
        <time>2021-01-16T11:02:26Z</time>
      </trkpt>
      <trkpt lat="45.30447" lon="6.04735">
        <ele>1874.4</ele>
        <time>2021-01-16T11:02:27Z</time>
      </trkpt>
      <trkpt lat="45.30447" lon="6.04735">
        <ele>1874.4</ele>
        <time>2021-01-16T11:02:28Z</time>
      </trkpt>
      <trkpt lat="45.30447" lon="6.04735">
        <ele>1874.6</ele>
        <time>2021-01-16T11:02:29Z</time>
      </trkpt>
      <trkpt lat="45.30447" lon="6.04735">
        <ele>1874.6</ele>
        <time>2021-01-16T11:02:30Z</time>
      </trkpt>
      <trkpt lat="45.30447" lon="6.04735">
        <ele>1874.6</ele>
        <time>2021-01-16T11:02:31Z</time>
      </trkpt>
      <trkpt lat="45.30447" lon="6.04735">
        <ele>1874.6</ele>
        <time>2021-01-16T11:02:32Z</time>
      </trkpt>
      <trkpt lat="45.30447" lon="6.04735">
        <ele>1874.6</ele>
        <time>2021-01-16T11:02:33Z</time>
      </trkpt>
      <trkpt lat="45.30447" lon="6.04735">
        <ele>1874.8</ele>
        <time>2021-01-16T11:02:34Z</time>
      </trkpt>
      <trkpt lat="45.30447" lon="6.04735">
        <ele>1874.8</ele>
        <time>2021-01-16T11:02:35Z</time>
      </trkpt>
      <trkpt lat="45.30447" lon="6.04735">
        <ele>1874.8</ele>
        <time>2021-01-16T11:02:36Z</time>
      </trkpt>
      <trkpt lat="45.30447" lon="6.04735">
        <ele>1874.8</ele>
        <time>2021-01-16T11:02:37Z</time>
      </trkpt>
      <trkpt lat="45.30447" lon="6.04735">
        <ele>1874.8</ele>
        <time>2021-01-16T11:02:38Z</time>
      </trkpt>
      <trkpt lat="45.30447" lon="6.04735">
        <ele>1874.8</ele>
        <time>2021-01-16T11:02:39Z</time>
      </trkpt>
      <trkpt lat="45.30447" lon="6.04735">
        <ele>1874.8</ele>
        <time>2021-01-16T11:02:40Z</time>
      </trkpt>
      <trkpt lat="45.30447" lon="6.04735">
        <ele>1874.8</ele>
        <time>2021-01-16T11:02:41Z</time>
      </trkpt>
      <trkpt lat="45.30447" lon="6.04735">
        <ele>1874.8</ele>
        <time>2021-01-16T11:02:42Z</time>
      </trkpt>
      <trkpt lat="45.30447" lon="6.04735">
        <ele>1874.8</ele>
        <time>2021-01-16T11:02:43Z</time>
      </trkpt>
      <trkpt lat="45.30447" lon="6.04735">
        <ele>1874.8</ele>
        <time>2021-01-16T11:02:44Z</time>
      </trkpt>
      <trkpt lat="45.30447" lon="6.04735">
        <ele>1874.8</ele>
        <time>2021-01-16T11:02:45Z</time>
      </trkpt>
      <trkpt lat="45.30447" lon="6.04735">
        <ele>1874.8</ele>
        <time>2021-01-16T11:02:46Z</time>
      </trkpt>
      <trkpt lat="45.30447" lon="6.04735">
        <ele>1874.8</ele>
        <time>2021-01-16T11:02:47Z</time>
      </trkpt>
      <trkpt lat="45.30447" lon="6.04735">
        <ele>1874.8</ele>
        <time>2021-01-16T11:02:48Z</time>
      </trkpt>
      <trkpt lat="45.30447" lon="6.04735">
        <ele>1874.8</ele>
        <time>2021-01-16T11:02:49Z</time>
      </trkpt>
      <trkpt lat="45.30447" lon="6.04735">
        <ele>1874.8</ele>
        <time>2021-01-16T11:02:50Z</time>
      </trkpt>
      <trkpt lat="45.30447" lon="6.04735">
        <ele>1874.8</ele>
        <time>2021-01-16T11:02:51Z</time>
      </trkpt>
      <trkpt lat="45.30447" lon="6.04735">
        <ele>1874.8</ele>
        <time>2021-01-16T11:02:52Z</time>
      </trkpt>
      <trkpt lat="45.30447" lon="6.04735">
        <ele>1874.8</ele>
        <time>2021-01-16T11:02:53Z</time>
      </trkpt>
      <trkpt lat="45.30447" lon="6.04735">
        <ele>1874.8</ele>
        <time>2021-01-16T11:02:54Z</time>
      </trkpt>
      <trkpt lat="45.30447" lon="6.04735">
        <ele>1874.8</ele>
        <time>2021-01-16T11:02:55Z</time>
      </trkpt>
      <trkpt lat="45.30447" lon="6.04735">
        <ele>1874.8</ele>
        <time>2021-01-16T11:02:56Z</time>
      </trkpt>
      <trkpt lat="45.30447" lon="6.04735">
        <ele>1874.8</ele>
        <time>2021-01-16T11:02:57Z</time>
      </trkpt>
      <trkpt lat="45.30447" lon="6.04735">
        <ele>1874.8</ele>
        <time>2021-01-16T11:02:58Z</time>
      </trkpt>
      <trkpt lat="45.30447" lon="6.04735">
        <ele>1874.8</ele>
        <time>2021-01-16T11:02:59Z</time>
      </trkpt>
      <trkpt lat="45.30447" lon="6.04735">
        <ele>1874.8</ele>
        <time>2021-01-16T11:03:00Z</time>
      </trkpt>
      <trkpt lat="45.30447" lon="6.04735">
        <ele>1874.8</ele>
        <time>2021-01-16T11:03:01Z</time>
      </trkpt>
      <trkpt lat="45.30447" lon="6.04735">
        <ele>1874.8</ele>
        <time>2021-01-16T11:03:02Z</time>
      </trkpt>
      <trkpt lat="45.30447" lon="6.04735">
        <ele>1874.8</ele>
        <time>2021-01-16T11:03:03Z</time>
      </trkpt>
      <trkpt lat="45.30447" lon="6.04735">
        <ele>1874.8</ele>
        <time>2021-01-16T11:03:04Z</time>
      </trkpt>
      <trkpt lat="45.30447" lon="6.04735">
        <ele>1874.8</ele>
        <time>2021-01-16T11:03:05Z</time>
      </trkpt>
      <trkpt lat="45.30447" lon="6.04735">
        <ele>1874.8</ele>
        <time>2021-01-16T11:03:06Z</time>
      </trkpt>
      <trkpt lat="45.30447" lon="6.04735">
        <ele>1874.8</ele>
        <time>2021-01-16T11:03:07Z</time>
      </trkpt>
      <trkpt lat="45.30447" lon="6.04735">
        <ele>1874.8</ele>
        <time>2021-01-16T11:03:08Z</time>
      </trkpt>
      <trkpt lat="45.30447" lon="6.04735">
        <ele>1874.8</ele>
        <time>2021-01-16T11:03:09Z</time>
      </trkpt>
      <trkpt lat="45.30447" lon="6.04735">
        <ele>1874.8</ele>
        <time>2021-01-16T11:03:10Z</time>
      </trkpt>
      <trkpt lat="45.30447" lon="6.04735">
        <ele>1874.8</ele>
        <time>2021-01-16T11:03:11Z</time>
      </trkpt>
      <trkpt lat="45.30447" lon="6.04735">
        <ele>1874.8</ele>
        <time>2021-01-16T11:03:12Z</time>
      </trkpt>
      <trkpt lat="45.30447" lon="6.04735">
        <ele>1874.6</ele>
        <time>2021-01-16T11:03:13Z</time>
      </trkpt>
      <trkpt lat="45.30447" lon="6.04735">
        <ele>1874.6</ele>
        <time>2021-01-16T11:03:14Z</time>
      </trkpt>
      <trkpt lat="45.30447" lon="6.04735">
        <ele>1874.6</ele>
        <time>2021-01-16T11:03:15Z</time>
      </trkpt>
      <trkpt lat="45.30447" lon="6.04735">
        <ele>1874.6</ele>
        <time>2021-01-16T11:03:16Z</time>
      </trkpt>
      <trkpt lat="45.30447" lon="6.04735">
        <ele>1874.6</ele>
        <time>2021-01-16T11:03:17Z</time>
      </trkpt>
      <trkpt lat="45.30447" lon="6.04735">
        <ele>1874.6</ele>
        <time>2021-01-16T11:03:18Z</time>
      </trkpt>
      <trkpt lat="45.30447" lon="6.04735">
        <ele>1874.6</ele>
        <time>2021-01-16T11:03:19Z</time>
      </trkpt>
      <trkpt lat="45.30447" lon="6.04735">
        <ele>1874.6</ele>
        <time>2021-01-16T11:03:20Z</time>
      </trkpt>
      <trkpt lat="45.30447" lon="6.04735">
        <ele>1874.6</ele>
        <time>2021-01-16T11:03:21Z</time>
      </trkpt>
      <trkpt lat="45.30447" lon="6.04735">
        <ele>1874.6</ele>
        <time>2021-01-16T11:03:22Z</time>
      </trkpt>
      <trkpt lat="45.30447" lon="6.04735">
        <ele>1874.6</ele>
        <time>2021-01-16T11:03:23Z</time>
      </trkpt>
      <trkpt lat="45.30447" lon="6.04735">
        <ele>1874.6</ele>
        <time>2021-01-16T11:03:24Z</time>
      </trkpt>
      <trkpt lat="45.30447" lon="6.04735">
        <ele>1874.6</ele>
        <time>2021-01-16T11:03:25Z</time>
      </trkpt>
      <trkpt lat="45.30447" lon="6.04735">
        <ele>1874.6</ele>
        <time>2021-01-16T11:03:26Z</time>
      </trkpt>
      <trkpt lat="45.30447" lon="6.04735">
        <ele>1874.6</ele>
        <time>2021-01-16T11:03:27Z</time>
      </trkpt>
      <trkpt lat="45.30447" lon="6.04735">
        <ele>1874.6</ele>
        <time>2021-01-16T11:03:28Z</time>
      </trkpt>
      <trkpt lat="45.30447" lon="6.04735">
        <ele>1874.6</ele>
        <time>2021-01-16T11:03:29Z</time>
      </trkpt>
      <trkpt lat="45.30447" lon="6.04735">
        <ele>1874.6</ele>
        <time>2021-01-16T11:03:30Z</time>
      </trkpt>
      <trkpt lat="45.30447" lon="6.04735">
        <ele>1874.6</ele>
        <time>2021-01-16T11:03:31Z</time>
      </trkpt>
      <trkpt lat="45.30447" lon="6.04735">
        <ele>1874.6</ele>
        <time>2021-01-16T11:03:32Z</time>
      </trkpt>
      <trkpt lat="45.30447" lon="6.04735">
        <ele>1874.6</ele>
        <time>2021-01-16T11:03:33Z</time>
      </trkpt>
      <trkpt lat="45.30447" lon="6.04735">
        <ele>1874.6</ele>
        <time>2021-01-16T11:03:34Z</time>
      </trkpt>
      <trkpt lat="45.30447" lon="6.04735">
        <ele>1874.6</ele>
        <time>2021-01-16T11:03:35Z</time>
      </trkpt>
      <trkpt lat="45.30447" lon="6.04735">
        <ele>1874.6</ele>
        <time>2021-01-16T11:03:36Z</time>
      </trkpt>
      <trkpt lat="45.30447" lon="6.04735">
        <ele>1874.6</ele>
        <time>2021-01-16T11:03:37Z</time>
      </trkpt>
      <trkpt lat="45.30447" lon="6.04735">
        <ele>1874.6</ele>
        <time>2021-01-16T11:03:38Z</time>
      </trkpt>
      <trkpt lat="45.30447" lon="6.04735">
        <ele>1874.6</ele>
        <time>2021-01-16T11:03:39Z</time>
      </trkpt>
      <trkpt lat="45.30447" lon="6.04735">
        <ele>1874.6</ele>
        <time>2021-01-16T11:03:40Z</time>
      </trkpt>
      <trkpt lat="45.30447" lon="6.04735">
        <ele>1874.6</ele>
        <time>2021-01-16T11:03:41Z</time>
      </trkpt>
      <trkpt lat="45.30447" lon="6.04735">
        <ele>1874.6</ele>
        <time>2021-01-16T11:03:42Z</time>
      </trkpt>
      <trkpt lat="45.30447" lon="6.04735">
        <ele>1874.6</ele>
        <time>2021-01-16T11:03:43Z</time>
      </trkpt>
      <trkpt lat="45.30447" lon="6.04735">
        <ele>1874.6</ele>
        <time>2021-01-16T11:03:44Z</time>
      </trkpt>
      <trkpt lat="45.30447" lon="6.04735">
        <ele>1874.6</ele>
        <time>2021-01-16T11:03:45Z</time>
      </trkpt>
      <trkpt lat="45.30447" lon="6.04735">
        <ele>1874.6</ele>
        <time>2021-01-16T11:03:46Z</time>
      </trkpt>
      <trkpt lat="45.30447" lon="6.04735">
        <ele>1874.6</ele>
        <time>2021-01-16T11:03:47Z</time>
      </trkpt>
      <trkpt lat="45.30447" lon="6.04735">
        <ele>1874.6</ele>
        <time>2021-01-16T11:03:48Z</time>
      </trkpt>
      <trkpt lat="45.30447" lon="6.04735">
        <ele>1874.6</ele>
        <time>2021-01-16T11:03:49Z</time>
      </trkpt>
      <trkpt lat="45.30447" lon="6.04735">
        <ele>1874.6</ele>
        <time>2021-01-16T11:03:50Z</time>
      </trkpt>
      <trkpt lat="45.30447" lon="6.04735">
        <ele>1874.6</ele>
        <time>2021-01-16T11:03:51Z</time>
      </trkpt>
      <trkpt lat="45.30447" lon="6.04735">
        <ele>1874.6</ele>
        <time>2021-01-16T11:03:52Z</time>
      </trkpt>
      <trkpt lat="45.30447" lon="6.04735">
        <ele>1874.6</ele>
        <time>2021-01-16T11:03:53Z</time>
      </trkpt>
      <trkpt lat="45.30447" lon="6.04735">
        <ele>1874.6</ele>
        <time>2021-01-16T11:03:54Z</time>
      </trkpt>
      <trkpt lat="45.30447" lon="6.04735">
        <ele>1874.6</ele>
        <time>2021-01-16T11:03:55Z</time>
      </trkpt>
      <trkpt lat="45.30447" lon="6.04735">
        <ele>1874.6</ele>
        <time>2021-01-16T11:03:56Z</time>
      </trkpt>
      <trkpt lat="45.30447" lon="6.04735">
        <ele>1874.4</ele>
        <time>2021-01-16T11:03:57Z</time>
      </trkpt>
      <trkpt lat="45.30447" lon="6.04735">
        <ele>1874.2</ele>
        <time>2021-01-16T11:03:58Z</time>
      </trkpt>
      <trkpt lat="45.30447" lon="6.04735">
        <ele>1874.4</ele>
        <time>2021-01-16T11:03:59Z</time>
      </trkpt>
      <trkpt lat="45.30447" lon="6.04735">
        <ele>1874.6</ele>
        <time>2021-01-16T11:04:00Z</time>
      </trkpt>
      <trkpt lat="45.30447" lon="6.04735">
        <ele>1874.6</ele>
        <time>2021-01-16T11:04:01Z</time>
      </trkpt>
      <trkpt lat="45.30447" lon="6.04735">
        <ele>1874.6</ele>
        <time>2021-01-16T11:04:02Z</time>
      </trkpt>
      <trkpt lat="45.30447" lon="6.04735">
        <ele>1874.6</ele>
        <time>2021-01-16T11:04:03Z</time>
      </trkpt>
      <trkpt lat="45.30447" lon="6.04735">
        <ele>1874.6</ele>
        <time>2021-01-16T11:04:04Z</time>
      </trkpt>
      <trkpt lat="45.30447" lon="6.04735">
        <ele>1874.6</ele>
        <time>2021-01-16T11:04:05Z</time>
      </trkpt>
      <trkpt lat="45.30447" lon="6.04735">
        <ele>1874.6</ele>
        <time>2021-01-16T11:04:06Z</time>
      </trkpt>
      <trkpt lat="45.30447" lon="6.04735">
        <ele>1874.4</ele>
        <time>2021-01-16T11:04:07Z</time>
      </trkpt>
      <trkpt lat="45.30447" lon="6.04735">
        <ele>1874.4</ele>
        <time>2021-01-16T11:04:08Z</time>
      </trkpt>
      <trkpt lat="45.30447" lon="6.04735">
        <ele>1874.4</ele>
        <time>2021-01-16T11:04:09Z</time>
      </trkpt>
      <trkpt lat="45.30447" lon="6.04735">
        <ele>1874.4</ele>
        <time>2021-01-16T11:04:10Z</time>
      </trkpt>
      <trkpt lat="45.30447" lon="6.04735">
        <ele>1874.4</ele>
        <time>2021-01-16T11:04:11Z</time>
      </trkpt>
      <trkpt lat="45.30447" lon="6.04735">
        <ele>1874.4</ele>
        <time>2021-01-16T11:04:12Z</time>
      </trkpt>
      <trkpt lat="45.30447" lon="6.04735">
        <ele>1874.4</ele>
        <time>2021-01-16T11:04:13Z</time>
      </trkpt>
      <trkpt lat="45.30447" lon="6.04735">
        <ele>1874.4</ele>
        <time>2021-01-16T11:04:14Z</time>
      </trkpt>
      <trkpt lat="45.30447" lon="6.04735">
        <ele>1874.4</ele>
        <time>2021-01-16T11:04:15Z</time>
      </trkpt>
      <trkpt lat="45.30447" lon="6.04735">
        <ele>1874.4</ele>
        <time>2021-01-16T11:04:16Z</time>
      </trkpt>
      <trkpt lat="45.30447" lon="6.04735">
        <ele>1874.4</ele>
        <time>2021-01-16T11:04:17Z</time>
      </trkpt>
      <trkpt lat="45.30447" lon="6.04735">
        <ele>1874.4</ele>
        <time>2021-01-16T11:04:18Z</time>
      </trkpt>
      <trkpt lat="45.30447" lon="6.04735">
        <ele>1874.4</ele>
        <time>2021-01-16T11:04:19Z</time>
      </trkpt>
      <trkpt lat="45.30447" lon="6.04735">
        <ele>1874.4</ele>
        <time>2021-01-16T11:04:20Z</time>
      </trkpt>
      <trkpt lat="45.30447" lon="6.04735">
        <ele>1874.2</ele>
        <time>2021-01-16T11:04:21Z</time>
      </trkpt>
      <trkpt lat="45.30447" lon="6.04735">
        <ele>1874.2</ele>
        <time>2021-01-16T11:04:22Z</time>
      </trkpt>
      <trkpt lat="45.30447" lon="6.04735">
        <ele>1874.2</ele>
        <time>2021-01-16T11:04:23Z</time>
      </trkpt>
      <trkpt lat="45.30447" lon="6.04735">
        <ele>1874.2</ele>
        <time>2021-01-16T11:04:24Z</time>
      </trkpt>
      <trkpt lat="45.30447" lon="6.04735">
        <ele>1874.2</ele>
        <time>2021-01-16T11:04:25Z</time>
      </trkpt>
      <trkpt lat="45.30447" lon="6.04735">
        <ele>1874.2</ele>
        <time>2021-01-16T11:04:26Z</time>
      </trkpt>
      <trkpt lat="45.30447" lon="6.04735">
        <ele>1874.2</ele>
        <time>2021-01-16T11:04:27Z</time>
      </trkpt>
      <trkpt lat="45.30447" lon="6.04735">
        <ele>1874.2</ele>
        <time>2021-01-16T11:04:28Z</time>
      </trkpt>
      <trkpt lat="45.30447" lon="6.04735">
        <ele>1874.2</ele>
        <time>2021-01-16T11:04:29Z</time>
      </trkpt>
      <trkpt lat="45.30447" lon="6.04735">
        <ele>1874.2</ele>
        <time>2021-01-16T11:04:30Z</time>
      </trkpt>
      <trkpt lat="45.30447" lon="6.04735">
        <ele>1874.2</ele>
        <time>2021-01-16T11:04:31Z</time>
      </trkpt>
      <trkpt lat="45.30447" lon="6.04735">
        <ele>1874</ele>
        <time>2021-01-16T11:04:32Z</time>
      </trkpt>
      <trkpt lat="45.30447" lon="6.04735">
        <ele>1874.2</ele>
        <time>2021-01-16T11:04:33Z</time>
      </trkpt>
      <trkpt lat="45.30447" lon="6.04735">
        <ele>1874.4</ele>
        <time>2021-01-16T11:04:34Z</time>
      </trkpt>
      <trkpt lat="45.30447" lon="6.04735">
        <ele>1874.2</ele>
        <time>2021-01-16T11:04:35Z</time>
      </trkpt>
      <trkpt lat="45.30447" lon="6.04735">
        <ele>1874.4</ele>
        <time>2021-01-16T11:04:36Z</time>
      </trkpt>
      <trkpt lat="45.30447" lon="6.04735">
        <ele>1874.6</ele>
        <time>2021-01-16T11:04:37Z</time>
      </trkpt>
      <trkpt lat="45.30447" lon="6.04735">
        <ele>1874.4</ele>
        <time>2021-01-16T11:04:38Z</time>
      </trkpt>
      <trkpt lat="45.30447" lon="6.04735">
        <ele>1874.6</ele>
        <time>2021-01-16T11:04:39Z</time>
      </trkpt>
      <trkpt lat="45.30447" lon="6.04735">
        <ele>1874.6</ele>
        <time>2021-01-16T11:04:40Z</time>
      </trkpt>
      <trkpt lat="45.30447" lon="6.04735">
        <ele>1874.6</ele>
        <time>2021-01-16T11:04:41Z</time>
      </trkpt>
      <trkpt lat="45.30447" lon="6.04735">
        <ele>1874.6</ele>
        <time>2021-01-16T11:04:42Z</time>
      </trkpt>
      <trkpt lat="45.30447" lon="6.04735">
        <ele>1874.8</ele>
        <time>2021-01-16T11:04:43Z</time>
      </trkpt>
      <trkpt lat="45.30447" lon="6.04735">
        <ele>1875</ele>
        <time>2021-01-16T11:04:44Z</time>
      </trkpt>
      <trkpt lat="45.30447" lon="6.04735">
        <ele>1874.8</ele>
        <time>2021-01-16T11:04:45Z</time>
      </trkpt>
      <trkpt lat="45.30447" lon="6.04735">
        <ele>1875.2</ele>
        <time>2021-01-16T11:04:46Z</time>
      </trkpt>
      <trkpt lat="45.30447" lon="6.04735">
        <ele>1875</ele>
        <time>2021-01-16T11:04:47Z</time>
      </trkpt>
      <trkpt lat="45.30447" lon="6.04735">
        <ele>1875.4</ele>
        <time>2021-01-16T11:04:48Z</time>
      </trkpt>
      <trkpt lat="45.30447" lon="6.04735">
        <ele>1875.4</ele>
        <time>2021-01-16T11:04:49Z</time>
      </trkpt>
      <trkpt lat="45.30447" lon="6.04737">
        <ele>1875.6</ele>
        <time>2021-01-16T11:04:50Z</time>
      </trkpt>
      <trkpt lat="45.30448" lon="6.04747">
        <ele>1875.8</ele>
        <time>2021-01-16T11:04:51Z</time>
      </trkpt>
      <trkpt lat="45.30449" lon="6.04748">
        <ele>1875.8</ele>
        <time>2021-01-16T11:04:52Z</time>
      </trkpt>
      <trkpt lat="45.30449" lon="6.04748">
        <ele>1875.8</ele>
        <time>2021-01-16T11:04:53Z</time>
      </trkpt>
      <trkpt lat="45.30449" lon="6.04748">
        <ele>1875.8</ele>
        <time>2021-01-16T11:04:54Z</time>
      </trkpt>
      <trkpt lat="45.30449" lon="6.04748">
        <ele>1875.8</ele>
        <time>2021-01-16T11:04:55Z</time>
      </trkpt>
      <trkpt lat="45.30449" lon="6.04748">
        <ele>1876</ele>
        <time>2021-01-16T11:04:56Z</time>
      </trkpt>
      <trkpt lat="45.30449" lon="6.04748">
        <ele>1876.2</ele>
        <time>2021-01-16T11:04:57Z</time>
      </trkpt>
      <trkpt lat="45.30449" lon="6.04748">
        <ele>1876.4</ele>
        <time>2021-01-16T11:04:58Z</time>
      </trkpt>
      <trkpt lat="45.3045" lon="6.04749">
        <ele>1876.4</ele>
        <time>2021-01-16T11:04:59Z</time>
      </trkpt>
      <trkpt lat="45.30453" lon="6.04753">
        <ele>1876.6</ele>
        <time>2021-01-16T11:05:00Z</time>
      </trkpt>
      <trkpt lat="45.30454" lon="6.04754">
        <ele>1876.6</ele>
        <time>2021-01-16T11:05:01Z</time>
      </trkpt>
      <trkpt lat="45.30454" lon="6.04754">
        <ele>1876.8</ele>
        <time>2021-01-16T11:05:02Z</time>
      </trkpt>
      <trkpt lat="45.30454" lon="6.04755">
        <ele>1876.8</ele>
        <time>2021-01-16T11:05:03Z</time>
      </trkpt>
      <trkpt lat="45.30454" lon="6.04755">
        <ele>1876.8</ele>
        <time>2021-01-16T11:05:04Z</time>
      </trkpt>
      <trkpt lat="45.30455" lon="6.04755">
        <ele>1876.8</ele>
        <time>2021-01-16T11:05:05Z</time>
      </trkpt>
      <trkpt lat="45.30455" lon="6.04756">
        <ele>1877</ele>
        <time>2021-01-16T11:05:06Z</time>
      </trkpt>
      <trkpt lat="45.30455" lon="6.04756">
        <ele>1877</ele>
        <time>2021-01-16T11:05:07Z</time>
      </trkpt>
      <trkpt lat="45.30456" lon="6.04756">
        <ele>1877</ele>
        <time>2021-01-16T11:05:08Z</time>
      </trkpt>
      <trkpt lat="45.30456" lon="6.04757">
        <ele>1877</ele>
        <time>2021-01-16T11:05:09Z</time>
      </trkpt>
      <trkpt lat="45.30456" lon="6.04757">
        <ele>1877.2</ele>
        <time>2021-01-16T11:05:10Z</time>
      </trkpt>
      <trkpt lat="45.30457" lon="6.04758">
        <ele>1877.2</ele>
        <time>2021-01-16T11:05:11Z</time>
      </trkpt>
      <trkpt lat="45.30457" lon="6.04758">
        <ele>1877.2</ele>
        <time>2021-01-16T11:05:12Z</time>
      </trkpt>
      <trkpt lat="45.30457" lon="6.04758">
        <ele>1877.2</ele>
        <time>2021-01-16T11:05:13Z</time>
      </trkpt>
      <trkpt lat="45.30458" lon="6.04759">
        <ele>1877.4</ele>
        <time>2021-01-16T11:05:14Z</time>
      </trkpt>
      <trkpt lat="45.30458" lon="6.04759">
        <ele>1877.4</ele>
        <time>2021-01-16T11:05:15Z</time>
      </trkpt>
      <trkpt lat="45.30458" lon="6.04759">
        <ele>1877.6</ele>
        <time>2021-01-16T11:05:16Z</time>
      </trkpt>
      <trkpt lat="45.30458" lon="6.0476">
        <ele>1877.8</ele>
        <time>2021-01-16T11:05:17Z</time>
      </trkpt>
      <trkpt lat="45.30459" lon="6.0476">
        <ele>1877.8</ele>
        <time>2021-01-16T11:05:18Z</time>
      </trkpt>
      <trkpt lat="45.30459" lon="6.04761">
        <ele>1877.8</ele>
        <time>2021-01-16T11:05:19Z</time>
      </trkpt>
      <trkpt lat="45.30459" lon="6.04761">
        <ele>1877.8</ele>
        <time>2021-01-16T11:05:20Z</time>
      </trkpt>
      <trkpt lat="45.3046" lon="6.04761">
        <ele>1878</ele>
        <time>2021-01-16T11:05:21Z</time>
      </trkpt>
      <trkpt lat="45.3046" lon="6.04762">
        <ele>1877.8</ele>
        <time>2021-01-16T11:05:22Z</time>
      </trkpt>
      <trkpt lat="45.3046" lon="6.04762">
        <ele>1877.8</ele>
        <time>2021-01-16T11:05:23Z</time>
      </trkpt>
      <trkpt lat="45.30461" lon="6.04763">
        <ele>1877.6</ele>
        <time>2021-01-16T11:05:24Z</time>
      </trkpt>
      <trkpt lat="45.30461" lon="6.04763">
        <ele>1878</ele>
        <time>2021-01-16T11:05:25Z</time>
      </trkpt>
      <trkpt lat="45.30461" lon="6.04763">
        <ele>1877.8</ele>
        <time>2021-01-16T11:05:26Z</time>
      </trkpt>
      <trkpt lat="45.30462" lon="6.04764">
        <ele>1878</ele>
        <time>2021-01-16T11:05:27Z</time>
      </trkpt>
      <trkpt lat="45.30462" lon="6.04764">
        <ele>1878</ele>
        <time>2021-01-16T11:05:28Z</time>
      </trkpt>
      <trkpt lat="45.30462" lon="6.04764">
        <ele>1878.2</ele>
        <time>2021-01-16T11:05:29Z</time>
      </trkpt>
      <trkpt lat="45.30462" lon="6.04765">
        <ele>1878.2</ele>
        <time>2021-01-16T11:05:30Z</time>
      </trkpt>
      <trkpt lat="45.30463" lon="6.04765">
        <ele>1878.4</ele>
        <time>2021-01-16T11:05:31Z</time>
      </trkpt>
      <trkpt lat="45.30463" lon="6.04766">
        <ele>1878.4</ele>
        <time>2021-01-16T11:05:32Z</time>
      </trkpt>
      <trkpt lat="45.30463" lon="6.04766">
        <ele>1878.6</ele>
        <time>2021-01-16T11:05:33Z</time>
      </trkpt>
      <trkpt lat="45.30464" lon="6.04766">
        <ele>1878.6</ele>
        <time>2021-01-16T11:05:34Z</time>
      </trkpt>
      <trkpt lat="45.30464" lon="6.04767">
        <ele>1878.6</ele>
        <time>2021-01-16T11:05:35Z</time>
      </trkpt>
      <trkpt lat="45.30464" lon="6.04767">
        <ele>1878.6</ele>
        <time>2021-01-16T11:05:36Z</time>
      </trkpt>
      <trkpt lat="45.30465" lon="6.04768">
        <ele>1878.6</ele>
        <time>2021-01-16T11:05:37Z</time>
      </trkpt>
      <trkpt lat="45.30465" lon="6.04768">
        <ele>1878.8</ele>
        <time>2021-01-16T11:05:38Z</time>
      </trkpt>
      <trkpt lat="45.30465" lon="6.04768">
        <ele>1878.8</ele>
        <time>2021-01-16T11:05:39Z</time>
      </trkpt>
      <trkpt lat="45.30466" lon="6.04769">
        <ele>1879</ele>
        <time>2021-01-16T11:05:40Z</time>
      </trkpt>
      <trkpt lat="45.30466" lon="6.04769">
        <ele>1879</ele>
        <time>2021-01-16T11:05:41Z</time>
      </trkpt>
      <trkpt lat="45.30466" lon="6.04769">
        <ele>1879</ele>
        <time>2021-01-16T11:05:42Z</time>
      </trkpt>
      <trkpt lat="45.30466" lon="6.0477">
        <ele>1879.2</ele>
        <time>2021-01-16T11:05:43Z</time>
      </trkpt>
      <trkpt lat="45.30467" lon="6.0477">
        <ele>1879.2</ele>
        <time>2021-01-16T11:05:44Z</time>
      </trkpt>
      <trkpt lat="45.30467" lon="6.04771">
        <ele>1879.2</ele>
        <time>2021-01-16T11:05:45Z</time>
      </trkpt>
      <trkpt lat="45.30467" lon="6.04771">
        <ele>1879.2</ele>
        <time>2021-01-16T11:05:46Z</time>
      </trkpt>
      <trkpt lat="45.30468" lon="6.04771">
        <ele>1879.4</ele>
        <time>2021-01-16T11:05:47Z</time>
      </trkpt>
      <trkpt lat="45.30468" lon="6.04772">
        <ele>1879.2</ele>
        <time>2021-01-16T11:05:48Z</time>
      </trkpt>
      <trkpt lat="45.30468" lon="6.04772">
        <ele>1879.6</ele>
        <time>2021-01-16T11:05:49Z</time>
      </trkpt>
      <trkpt lat="45.30469" lon="6.04773">
        <ele>1879.4</ele>
        <time>2021-01-16T11:05:50Z</time>
      </trkpt>
      <trkpt lat="45.30469" lon="6.04773">
        <ele>1879.6</ele>
        <time>2021-01-16T11:05:51Z</time>
      </trkpt>
      <trkpt lat="45.3047" lon="6.04774">
        <ele>1879.6</ele>
        <time>2021-01-16T11:05:52Z</time>
      </trkpt>
      <trkpt lat="45.3047" lon="6.04775">
        <ele>1879.8</ele>
        <time>2021-01-16T11:05:53Z</time>
      </trkpt>
      <trkpt lat="45.30471" lon="6.04775">
        <ele>1879.8</ele>
        <time>2021-01-16T11:05:54Z</time>
      </trkpt>
      <trkpt lat="45.30471" lon="6.04776">
        <ele>1880</ele>
        <time>2021-01-16T11:05:55Z</time>
      </trkpt>
      <trkpt lat="45.30471" lon="6.04776">
        <ele>1880.2</ele>
        <time>2021-01-16T11:05:56Z</time>
      </trkpt>
      <trkpt lat="45.30472" lon="6.04777">
        <ele>1880.2</ele>
        <time>2021-01-16T11:05:57Z</time>
      </trkpt>
      <trkpt lat="45.30472" lon="6.04777">
        <ele>1880.4</ele>
        <time>2021-01-16T11:05:58Z</time>
      </trkpt>
      <trkpt lat="45.30472" lon="6.04778">
        <ele>1880.2</ele>
        <time>2021-01-16T11:05:59Z</time>
      </trkpt>
      <trkpt lat="45.30473" lon="6.04779">
        <ele>1880.6</ele>
        <time>2021-01-16T11:06:00Z</time>
      </trkpt>
      <trkpt lat="45.30473" lon="6.04779">
        <ele>1880.4</ele>
        <time>2021-01-16T11:06:01Z</time>
      </trkpt>
      <trkpt lat="45.30474" lon="6.0478">
        <ele>1880.6</ele>
        <time>2021-01-16T11:06:02Z</time>
      </trkpt>
      <trkpt lat="45.30474" lon="6.0478">
        <ele>1880.6</ele>
        <time>2021-01-16T11:06:03Z</time>
      </trkpt>
      <trkpt lat="45.30474" lon="6.04781">
        <ele>1880.6</ele>
        <time>2021-01-16T11:06:04Z</time>
      </trkpt>
      <trkpt lat="45.30475" lon="6.04782">
        <ele>1880.6</ele>
        <time>2021-01-16T11:06:05Z</time>
      </trkpt>
      <trkpt lat="45.30475" lon="6.04782">
        <ele>1880.6</ele>
        <time>2021-01-16T11:06:06Z</time>
      </trkpt>
      <trkpt lat="45.30475" lon="6.04783">
        <ele>1880.8</ele>
        <time>2021-01-16T11:06:07Z</time>
      </trkpt>
      <trkpt lat="45.30476" lon="6.04783">
        <ele>1880.8</ele>
        <time>2021-01-16T11:06:08Z</time>
      </trkpt>
      <trkpt lat="45.30476" lon="6.04784">
        <ele>1881</ele>
        <time>2021-01-16T11:06:09Z</time>
      </trkpt>
      <trkpt lat="45.30476" lon="6.04785">
        <ele>1881</ele>
        <time>2021-01-16T11:06:10Z</time>
      </trkpt>
      <trkpt lat="45.30476" lon="6.04785">
        <ele>1881.2</ele>
        <time>2021-01-16T11:06:11Z</time>
      </trkpt>
      <trkpt lat="45.30476" lon="6.04786">
        <ele>1881</ele>
        <time>2021-01-16T11:06:12Z</time>
      </trkpt>
      <trkpt lat="45.30476" lon="6.04786">
        <ele>1881.4</ele>
        <time>2021-01-16T11:06:13Z</time>
      </trkpt>
      <trkpt lat="45.30476" lon="6.04786">
        <ele>1881.2</ele>
        <time>2021-01-16T11:06:14Z</time>
      </trkpt>
      <trkpt lat="45.30476" lon="6.04786">
        <ele>1881.4</ele>
        <time>2021-01-16T11:06:15Z</time>
      </trkpt>
      <trkpt lat="45.30476" lon="6.04786">
        <ele>1881.4</ele>
        <time>2021-01-16T11:06:16Z</time>
      </trkpt>
      <trkpt lat="45.30476" lon="6.04786">
        <ele>1881.6</ele>
        <time>2021-01-16T11:06:17Z</time>
      </trkpt>
      <trkpt lat="45.30476" lon="6.04786">
        <ele>1881.6</ele>
        <time>2021-01-16T11:06:18Z</time>
      </trkpt>
      <trkpt lat="45.30476" lon="6.04786">
        <ele>1881.8</ele>
        <time>2021-01-16T11:06:19Z</time>
      </trkpt>
      <trkpt lat="45.30476" lon="6.04786">
        <ele>1882</ele>
        <time>2021-01-16T11:06:20Z</time>
      </trkpt>
      <trkpt lat="45.30476" lon="6.04786">
        <ele>1882</ele>
        <time>2021-01-16T11:06:21Z</time>
      </trkpt>
      <trkpt lat="45.30476" lon="6.04786">
        <ele>1882.2</ele>
        <time>2021-01-16T11:06:22Z</time>
      </trkpt>
      <trkpt lat="45.30476" lon="6.04786">
        <ele>1882.4</ele>
        <time>2021-01-16T11:06:23Z</time>
      </trkpt>
      <trkpt lat="45.30476" lon="6.04786">
        <ele>1882.2</ele>
        <time>2021-01-16T11:06:24Z</time>
      </trkpt>
      <trkpt lat="45.30476" lon="6.04786">
        <ele>1882.4</ele>
        <time>2021-01-16T11:06:25Z</time>
      </trkpt>
      <trkpt lat="45.30476" lon="6.04786">
        <ele>1882.4</ele>
        <time>2021-01-16T11:06:26Z</time>
      </trkpt>
      <trkpt lat="45.30477" lon="6.04788">
        <ele>1882.6</ele>
        <time>2021-01-16T11:06:27Z</time>
      </trkpt>
      <trkpt lat="45.30482" lon="6.04796">
        <ele>1882.6</ele>
        <time>2021-01-16T11:06:28Z</time>
      </trkpt>
      <trkpt lat="45.30483" lon="6.04797">
        <ele>1882.8</ele>
        <time>2021-01-16T11:06:29Z</time>
      </trkpt>
      <trkpt lat="45.30483" lon="6.04797">
        <ele>1882.8</ele>
        <time>2021-01-16T11:06:30Z</time>
      </trkpt>
      <trkpt lat="45.30484" lon="6.04798">
        <ele>1882.8</ele>
        <time>2021-01-16T11:06:31Z</time>
      </trkpt>
      <trkpt lat="45.30484" lon="6.04798">
        <ele>1883</ele>
        <time>2021-01-16T11:06:32Z</time>
      </trkpt>
      <trkpt lat="45.30484" lon="6.04798">
        <ele>1883</ele>
        <time>2021-01-16T11:06:33Z</time>
      </trkpt>
      <trkpt lat="45.30484" lon="6.04798">
        <ele>1882.8</ele>
        <time>2021-01-16T11:06:34Z</time>
      </trkpt>
      <trkpt lat="45.30484" lon="6.04798">
        <ele>1883.2</ele>
        <time>2021-01-16T11:06:35Z</time>
      </trkpt>
      <trkpt lat="45.30484" lon="6.04798">
        <ele>1883</ele>
        <time>2021-01-16T11:06:36Z</time>
      </trkpt>
      <trkpt lat="45.30484" lon="6.04798">
        <ele>1883.4</ele>
        <time>2021-01-16T11:06:37Z</time>
      </trkpt>
      <trkpt lat="45.30484" lon="6.04798">
        <ele>1883.4</ele>
        <time>2021-01-16T11:06:38Z</time>
      </trkpt>
      <trkpt lat="45.30484" lon="6.04798">
        <ele>1883.6</ele>
        <time>2021-01-16T11:06:39Z</time>
      </trkpt>
      <trkpt lat="45.30484" lon="6.04798">
        <ele>1883.6</ele>
        <time>2021-01-16T11:06:40Z</time>
      </trkpt>
      <trkpt lat="45.30484" lon="6.04798">
        <ele>1883.8</ele>
        <time>2021-01-16T11:06:41Z</time>
      </trkpt>
      <trkpt lat="45.30484" lon="6.04798">
        <ele>1883.8</ele>
        <time>2021-01-16T11:06:42Z</time>
      </trkpt>
      <trkpt lat="45.30484" lon="6.04798">
        <ele>1884</ele>
        <time>2021-01-16T11:06:43Z</time>
      </trkpt>
      <trkpt lat="45.30484" lon="6.04798">
        <ele>1884.2</ele>
        <time>2021-01-16T11:06:44Z</time>
      </trkpt>
      <trkpt lat="45.30484" lon="6.04798">
        <ele>1884.4</ele>
        <time>2021-01-16T11:06:45Z</time>
      </trkpt>
      <trkpt lat="45.30484" lon="6.04798">
        <ele>1884.2</ele>
        <time>2021-01-16T11:06:46Z</time>
      </trkpt>
      <trkpt lat="45.30485" lon="6.04799">
        <ele>1884.6</ele>
        <time>2021-01-16T11:06:47Z</time>
      </trkpt>
      <trkpt lat="45.30491" lon="6.04805">
        <ele>1884.4</ele>
        <time>2021-01-16T11:06:48Z</time>
      </trkpt>
      <trkpt lat="45.30492" lon="6.04806">
        <ele>1884.6</ele>
        <time>2021-01-16T11:06:49Z</time>
      </trkpt>
      <trkpt lat="45.30493" lon="6.04806">
        <ele>1884.4</ele>
        <time>2021-01-16T11:06:50Z</time>
      </trkpt>
      <trkpt lat="45.30493" lon="6.04807">
        <ele>1884.6</ele>
        <time>2021-01-16T11:06:51Z</time>
      </trkpt>
      <trkpt lat="45.30493" lon="6.04807">
        <ele>1884.6</ele>
        <time>2021-01-16T11:06:52Z</time>
      </trkpt>
      <trkpt lat="45.30493" lon="6.04807">
        <ele>1884.8</ele>
        <time>2021-01-16T11:06:53Z</time>
      </trkpt>
      <trkpt lat="45.30493" lon="6.04807">
        <ele>1884.8</ele>
        <time>2021-01-16T11:06:54Z</time>
      </trkpt>
      <trkpt lat="45.30493" lon="6.04807">
        <ele>1884.8</ele>
        <time>2021-01-16T11:06:55Z</time>
      </trkpt>
      <trkpt lat="45.30493" lon="6.04807">
        <ele>1885</ele>
        <time>2021-01-16T11:06:56Z</time>
      </trkpt>
      <trkpt lat="45.30493" lon="6.04807">
        <ele>1885</ele>
        <time>2021-01-16T11:06:57Z</time>
      </trkpt>
      <trkpt lat="45.30493" lon="6.04807">
        <ele>1885.2</ele>
        <time>2021-01-16T11:06:58Z</time>
      </trkpt>
      <trkpt lat="45.30493" lon="6.04807">
        <ele>1885.2</ele>
        <time>2021-01-16T11:06:59Z</time>
      </trkpt>
      <trkpt lat="45.30493" lon="6.04807">
        <ele>1885.4</ele>
        <time>2021-01-16T11:07:00Z</time>
      </trkpt>
      <trkpt lat="45.30493" lon="6.04807">
        <ele>1885.4</ele>
        <time>2021-01-16T11:07:01Z</time>
      </trkpt>
      <trkpt lat="45.30493" lon="6.04807">
        <ele>1885.4</ele>
        <time>2021-01-16T11:07:02Z</time>
      </trkpt>
      <trkpt lat="45.30493" lon="6.04807">
        <ele>1885.6</ele>
        <time>2021-01-16T11:07:03Z</time>
      </trkpt>
      <trkpt lat="45.30493" lon="6.04807">
        <ele>1885.6</ele>
        <time>2021-01-16T11:07:04Z</time>
      </trkpt>
      <trkpt lat="45.30494" lon="6.04809">
        <ele>1885.6</ele>
        <time>2021-01-16T11:07:05Z</time>
      </trkpt>
      <trkpt lat="45.30498" lon="6.04819">
        <ele>1885.6</ele>
        <time>2021-01-16T11:07:06Z</time>
      </trkpt>
      <trkpt lat="45.30498" lon="6.04819">
        <ele>1885.6</ele>
        <time>2021-01-16T11:07:07Z</time>
      </trkpt>
      <trkpt lat="45.30499" lon="6.0482">
        <ele>1885.8</ele>
        <time>2021-01-16T11:07:08Z</time>
      </trkpt>
      <trkpt lat="45.30499" lon="6.04821">
        <ele>1885.8</ele>
        <time>2021-01-16T11:07:09Z</time>
      </trkpt>
      <trkpt lat="45.30499" lon="6.04821">
        <ele>1886</ele>
        <time>2021-01-16T11:07:10Z</time>
      </trkpt>
      <trkpt lat="45.30499" lon="6.04821">
        <ele>1885.8</ele>
        <time>2021-01-16T11:07:11Z</time>
      </trkpt>
      <trkpt lat="45.30499" lon="6.04821">
        <ele>1886.2</ele>
        <time>2021-01-16T11:07:12Z</time>
      </trkpt>
      <trkpt lat="45.30499" lon="6.04821">
        <ele>1886</ele>
        <time>2021-01-16T11:07:13Z</time>
      </trkpt>
      <trkpt lat="45.30499" lon="6.04821">
        <ele>1886.2</ele>
        <time>2021-01-16T11:07:14Z</time>
      </trkpt>
      <trkpt lat="45.30499" lon="6.04821">
        <ele>1886.2</ele>
        <time>2021-01-16T11:07:15Z</time>
      </trkpt>
      <trkpt lat="45.30499" lon="6.04821">
        <ele>1886.4</ele>
        <time>2021-01-16T11:07:16Z</time>
      </trkpt>
      <trkpt lat="45.30499" lon="6.04821">
        <ele>1886.4</ele>
        <time>2021-01-16T11:07:17Z</time>
      </trkpt>
      <trkpt lat="45.30499" lon="6.04821">
        <ele>1886.6</ele>
        <time>2021-01-16T11:07:18Z</time>
      </trkpt>
      <trkpt lat="45.30499" lon="6.04821">
        <ele>1886.6</ele>
        <time>2021-01-16T11:07:19Z</time>
      </trkpt>
      <trkpt lat="45.30499" lon="6.04821">
        <ele>1886.6</ele>
        <time>2021-01-16T11:07:20Z</time>
      </trkpt>
      <trkpt lat="45.30499" lon="6.04821">
        <ele>1886.8</ele>
        <time>2021-01-16T11:07:21Z</time>
      </trkpt>
      <trkpt lat="45.30499" lon="6.04821">
        <ele>1886.8</ele>
        <time>2021-01-16T11:07:22Z</time>
      </trkpt>
      <trkpt lat="45.305" lon="6.04823">
        <ele>1887</ele>
        <time>2021-01-16T11:07:23Z</time>
      </trkpt>
      <trkpt lat="45.30505" lon="6.04831">
        <ele>1887.2</ele>
        <time>2021-01-16T11:07:24Z</time>
      </trkpt>
      <trkpt lat="45.30506" lon="6.04832">
        <ele>1887.2</ele>
        <time>2021-01-16T11:07:25Z</time>
      </trkpt>
      <trkpt lat="45.30506" lon="6.04833">
        <ele>1887.4</ele>
        <time>2021-01-16T11:07:26Z</time>
      </trkpt>
      <trkpt lat="45.30507" lon="6.04833">
        <ele>1887.4</ele>
        <time>2021-01-16T11:07:27Z</time>
      </trkpt>
      <trkpt lat="45.30507" lon="6.04834">
        <ele>1887.6</ele>
        <time>2021-01-16T11:07:28Z</time>
      </trkpt>
      <trkpt lat="45.30507" lon="6.04834">
        <ele>1887.4</ele>
        <time>2021-01-16T11:07:29Z</time>
      </trkpt>
      <trkpt lat="45.30508" lon="6.04835">
        <ele>1887.6</ele>
        <time>2021-01-16T11:07:30Z</time>
      </trkpt>
      <trkpt lat="45.30508" lon="6.04835">
        <ele>1887.6</ele>
        <time>2021-01-16T11:07:31Z</time>
      </trkpt>
      <trkpt lat="45.30508" lon="6.04836">
        <ele>1887.6</ele>
        <time>2021-01-16T11:07:32Z</time>
      </trkpt>
      <trkpt lat="45.30509" lon="6.04836">
        <ele>1887.8</ele>
        <time>2021-01-16T11:07:33Z</time>
      </trkpt>
      <trkpt lat="45.30509" lon="6.04837">
        <ele>1887.8</ele>
        <time>2021-01-16T11:07:34Z</time>
      </trkpt>
      <trkpt lat="45.30509" lon="6.04838">
        <ele>1888.2</ele>
        <time>2021-01-16T11:07:35Z</time>
      </trkpt>
      <trkpt lat="45.30509" lon="6.04838">
        <ele>1888</ele>
        <time>2021-01-16T11:07:36Z</time>
      </trkpt>
      <trkpt lat="45.3051" lon="6.04839">
        <ele>1888.4</ele>
        <time>2021-01-16T11:07:37Z</time>
      </trkpt>
      <trkpt lat="45.3051" lon="6.04839">
        <ele>1888.2</ele>
        <time>2021-01-16T11:07:38Z</time>
      </trkpt>
      <trkpt lat="45.3051" lon="6.0484">
        <ele>1888.4</ele>
        <time>2021-01-16T11:07:39Z</time>
      </trkpt>
      <trkpt lat="45.30511" lon="6.0484">
        <ele>1888.4</ele>
        <time>2021-01-16T11:07:40Z</time>
      </trkpt>
      <trkpt lat="45.30511" lon="6.04841">
        <ele>1888.6</ele>
        <time>2021-01-16T11:07:41Z</time>
      </trkpt>
      <trkpt lat="45.30511" lon="6.04841">
        <ele>1888.8</ele>
        <time>2021-01-16T11:07:42Z</time>
      </trkpt>
      <trkpt lat="45.30511" lon="6.04842">
        <ele>1889</ele>
        <time>2021-01-16T11:07:43Z</time>
      </trkpt>
      <trkpt lat="45.30512" lon="6.04842">
        <ele>1889</ele>
        <time>2021-01-16T11:07:44Z</time>
      </trkpt>
      <trkpt lat="45.30512" lon="6.04843">
        <ele>1889</ele>
        <time>2021-01-16T11:07:45Z</time>
      </trkpt>
      <trkpt lat="45.30513" lon="6.04844">
        <ele>1889.2</ele>
        <time>2021-01-16T11:07:46Z</time>
      </trkpt>
      <trkpt lat="45.30513" lon="6.04844">
        <ele>1889.2</ele>
        <time>2021-01-16T11:07:47Z</time>
      </trkpt>
      <trkpt lat="45.30513" lon="6.04845">
        <ele>1889.4</ele>
        <time>2021-01-16T11:07:48Z</time>
      </trkpt>
      <trkpt lat="45.30513" lon="6.04845">
        <ele>1889.4</ele>
        <time>2021-01-16T11:07:49Z</time>
      </trkpt>
      <trkpt lat="45.30513" lon="6.04845">
        <ele>1889.4</ele>
        <time>2021-01-16T11:07:50Z</time>
      </trkpt>
      <trkpt lat="45.30513" lon="6.04845">
        <ele>1889.8</ele>
        <time>2021-01-16T11:07:51Z</time>
      </trkpt>
      <trkpt lat="45.30513" lon="6.04845">
        <ele>1889.8</ele>
        <time>2021-01-16T11:07:52Z</time>
      </trkpt>
      <trkpt lat="45.30513" lon="6.04845">
        <ele>1890</ele>
        <time>2021-01-16T11:07:53Z</time>
      </trkpt>
      <trkpt lat="45.30513" lon="6.04845">
        <ele>1890</ele>
        <time>2021-01-16T11:07:54Z</time>
      </trkpt>
      <trkpt lat="45.30513" lon="6.04845">
        <ele>1890</ele>
        <time>2021-01-16T11:07:55Z</time>
      </trkpt>
      <trkpt lat="45.30513" lon="6.04845">
        <ele>1890.2</ele>
        <time>2021-01-16T11:07:56Z</time>
      </trkpt>
      <trkpt lat="45.30513" lon="6.04845">
        <ele>1890.2</ele>
        <time>2021-01-16T11:07:57Z</time>
      </trkpt>
      <trkpt lat="45.30513" lon="6.04845">
        <ele>1890.2</ele>
        <time>2021-01-16T11:07:58Z</time>
      </trkpt>
      <trkpt lat="45.30513" lon="6.04845">
        <ele>1890.4</ele>
        <time>2021-01-16T11:07:59Z</time>
      </trkpt>
      <trkpt lat="45.30513" lon="6.04845">
        <ele>1890.4</ele>
        <time>2021-01-16T11:08:00Z</time>
      </trkpt>
      <trkpt lat="45.30513" lon="6.04845">
        <ele>1890.4</ele>
        <time>2021-01-16T11:08:01Z</time>
      </trkpt>
      <trkpt lat="45.30513" lon="6.04845">
        <ele>1890.6</ele>
        <time>2021-01-16T11:08:02Z</time>
      </trkpt>
      <trkpt lat="45.30514" lon="6.04847">
        <ele>1890.6</ele>
        <time>2021-01-16T11:08:03Z</time>
      </trkpt>
      <trkpt lat="45.30516" lon="6.04857">
        <ele>1890.8</ele>
        <time>2021-01-16T11:08:04Z</time>
      </trkpt>
      <trkpt lat="45.30517" lon="6.04857">
        <ele>1890.8</ele>
        <time>2021-01-16T11:08:05Z</time>
      </trkpt>
      <trkpt lat="45.30517" lon="6.04857">
        <ele>1891</ele>
        <time>2021-01-16T11:08:06Z</time>
      </trkpt>
      <trkpt lat="45.30517" lon="6.04858">
        <ele>1891.2</ele>
        <time>2021-01-16T11:08:07Z</time>
      </trkpt>
      <trkpt lat="45.30517" lon="6.04858">
        <ele>1891.2</ele>
        <time>2021-01-16T11:08:08Z</time>
      </trkpt>
      <trkpt lat="45.30517" lon="6.04858">
        <ele>1891.4</ele>
        <time>2021-01-16T11:08:09Z</time>
      </trkpt>
      <trkpt lat="45.30517" lon="6.04858">
        <ele>1891.4</ele>
        <time>2021-01-16T11:08:10Z</time>
      </trkpt>
      <trkpt lat="45.30517" lon="6.04858">
        <ele>1891.6</ele>
        <time>2021-01-16T11:08:11Z</time>
      </trkpt>
      <trkpt lat="45.30517" lon="6.04858">
        <ele>1891.6</ele>
        <time>2021-01-16T11:08:12Z</time>
      </trkpt>
      <trkpt lat="45.30517" lon="6.04858">
        <ele>1891.8</ele>
        <time>2021-01-16T11:08:13Z</time>
      </trkpt>
      <trkpt lat="45.30517" lon="6.04858">
        <ele>1891.8</ele>
        <time>2021-01-16T11:08:14Z</time>
      </trkpt>
      <trkpt lat="45.30517" lon="6.04858">
        <ele>1892</ele>
        <time>2021-01-16T11:08:15Z</time>
      </trkpt>
      <trkpt lat="45.30517" lon="6.04858">
        <ele>1892</ele>
        <time>2021-01-16T11:08:16Z</time>
      </trkpt>
      <trkpt lat="45.30517" lon="6.04858">
        <ele>1892.2</ele>
        <time>2021-01-16T11:08:17Z</time>
      </trkpt>
      <trkpt lat="45.30517" lon="6.04858">
        <ele>1892.4</ele>
        <time>2021-01-16T11:08:18Z</time>
      </trkpt>
      <trkpt lat="45.30517" lon="6.04858">
        <ele>1892.4</ele>
        <time>2021-01-16T11:08:19Z</time>
      </trkpt>
      <trkpt lat="45.30517" lon="6.04858">
        <ele>1892.6</ele>
        <time>2021-01-16T11:08:20Z</time>
      </trkpt>
      <trkpt lat="45.30517" lon="6.04858">
        <ele>1892.6</ele>
        <time>2021-01-16T11:08:21Z</time>
      </trkpt>
      <trkpt lat="45.30517" lon="6.04858">
        <ele>1892.8</ele>
        <time>2021-01-16T11:08:22Z</time>
      </trkpt>
      <trkpt lat="45.30518" lon="6.0486">
        <ele>1892.8</ele>
        <time>2021-01-16T11:08:23Z</time>
      </trkpt>
      <trkpt lat="45.30522" lon="6.04869">
        <ele>1892.8</ele>
        <time>2021-01-16T11:08:24Z</time>
      </trkpt>
      <trkpt lat="45.30523" lon="6.04869">
        <ele>1892.8</ele>
        <time>2021-01-16T11:08:25Z</time>
      </trkpt>
      <trkpt lat="45.30523" lon="6.04869">
        <ele>1892.8</ele>
        <time>2021-01-16T11:08:26Z</time>
      </trkpt>
      <trkpt lat="45.30523" lon="6.04869">
        <ele>1893</ele>
        <time>2021-01-16T11:08:27Z</time>
      </trkpt>
      <trkpt lat="45.30523" lon="6.04869">
        <ele>1893</ele>
        <time>2021-01-16T11:08:28Z</time>
      </trkpt>
      <trkpt lat="45.30523" lon="6.04869">
        <ele>1893</ele>
        <time>2021-01-16T11:08:29Z</time>
      </trkpt>
      <trkpt lat="45.30523" lon="6.04869">
        <ele>1893</ele>
        <time>2021-01-16T11:08:30Z</time>
      </trkpt>
      <trkpt lat="45.30523" lon="6.04869">
        <ele>1893.2</ele>
        <time>2021-01-16T11:08:31Z</time>
      </trkpt>
      <trkpt lat="45.30523" lon="6.04869">
        <ele>1893.2</ele>
        <time>2021-01-16T11:08:32Z</time>
      </trkpt>
      <trkpt lat="45.30523" lon="6.04869">
        <ele>1893.4</ele>
        <time>2021-01-16T11:08:33Z</time>
      </trkpt>
      <trkpt lat="45.30523" lon="6.04869">
        <ele>1893.4</ele>
        <time>2021-01-16T11:08:34Z</time>
      </trkpt>
      <trkpt lat="45.30523" lon="6.04869">
        <ele>1893.4</ele>
        <time>2021-01-16T11:08:35Z</time>
      </trkpt>
      <trkpt lat="45.30523" lon="6.04869">
        <ele>1893.6</ele>
        <time>2021-01-16T11:08:36Z</time>
      </trkpt>
      <trkpt lat="45.30523" lon="6.04869">
        <ele>1893.4</ele>
        <time>2021-01-16T11:08:37Z</time>
      </trkpt>
      <trkpt lat="45.30523" lon="6.04869">
        <ele>1893.6</ele>
        <time>2021-01-16T11:08:38Z</time>
      </trkpt>
      <trkpt lat="45.30523" lon="6.04869">
        <ele>1893.4</ele>
        <time>2021-01-16T11:08:39Z</time>
      </trkpt>
      <trkpt lat="45.30523" lon="6.04869">
        <ele>1893.6</ele>
        <time>2021-01-16T11:08:40Z</time>
      </trkpt>
      <trkpt lat="45.30523" lon="6.04869">
        <ele>1893.6</ele>
        <time>2021-01-16T11:08:41Z</time>
      </trkpt>
      <trkpt lat="45.30523" lon="6.04869">
        <ele>1893.6</ele>
        <time>2021-01-16T11:08:42Z</time>
      </trkpt>
      <trkpt lat="45.30525" lon="6.04871">
        <ele>1893.6</ele>
        <time>2021-01-16T11:08:43Z</time>
      </trkpt>
      <trkpt lat="45.3053" lon="6.04878">
        <ele>1893.8</ele>
        <time>2021-01-16T11:08:44Z</time>
      </trkpt>
      <trkpt lat="45.3053" lon="6.04879">
        <ele>1894</ele>
        <time>2021-01-16T11:08:45Z</time>
      </trkpt>
      <trkpt lat="45.3053" lon="6.04879">
        <ele>1894</ele>
        <time>2021-01-16T11:08:46Z</time>
      </trkpt>
      <trkpt lat="45.3053" lon="6.0488">
        <ele>1894</ele>
        <time>2021-01-16T11:08:47Z</time>
      </trkpt>
      <trkpt lat="45.3053" lon="6.0488">
        <ele>1893.8</ele>
        <time>2021-01-16T11:08:48Z</time>
      </trkpt>
      <trkpt lat="45.3053" lon="6.0488">
        <ele>1894.2</ele>
        <time>2021-01-16T11:08:49Z</time>
      </trkpt>
      <trkpt lat="45.3053" lon="6.0488">
        <ele>1894</ele>
        <time>2021-01-16T11:08:50Z</time>
      </trkpt>
      <trkpt lat="45.3053" lon="6.0488">
        <ele>1894.2</ele>
        <time>2021-01-16T11:08:51Z</time>
      </trkpt>
      <trkpt lat="45.3053" lon="6.0488">
        <ele>1894.2</ele>
        <time>2021-01-16T11:08:52Z</time>
      </trkpt>
      <trkpt lat="45.3053" lon="6.0488">
        <ele>1894.4</ele>
        <time>2021-01-16T11:08:53Z</time>
      </trkpt>
      <trkpt lat="45.3053" lon="6.0488">
        <ele>1894.4</ele>
        <time>2021-01-16T11:08:54Z</time>
      </trkpt>
      <trkpt lat="45.3053" lon="6.0488">
        <ele>1894.6</ele>
        <time>2021-01-16T11:08:55Z</time>
      </trkpt>
      <trkpt lat="45.3053" lon="6.0488">
        <ele>1894.8</ele>
        <time>2021-01-16T11:08:56Z</time>
      </trkpt>
      <trkpt lat="45.3053" lon="6.0488">
        <ele>1894.8</ele>
        <time>2021-01-16T11:08:57Z</time>
      </trkpt>
      <trkpt lat="45.3053" lon="6.0488">
        <ele>1895</ele>
        <time>2021-01-16T11:08:58Z</time>
      </trkpt>
      <trkpt lat="45.3053" lon="6.0488">
        <ele>1894.8</ele>
        <time>2021-01-16T11:08:59Z</time>
      </trkpt>
      <trkpt lat="45.3053" lon="6.0488">
        <ele>1895</ele>
        <time>2021-01-16T11:09:00Z</time>
      </trkpt>
      <trkpt lat="45.3053" lon="6.0488">
        <ele>1895</ele>
        <time>2021-01-16T11:09:01Z</time>
      </trkpt>
      <trkpt lat="45.30531" lon="6.04882">
        <ele>1895.2</ele>
        <time>2021-01-16T11:09:02Z</time>
      </trkpt>
      <trkpt lat="45.30534" lon="6.04893">
        <ele>1895</ele>
        <time>2021-01-16T11:09:03Z</time>
      </trkpt>
      <trkpt lat="45.30535" lon="6.04893">
        <ele>1895.2</ele>
        <time>2021-01-16T11:09:04Z</time>
      </trkpt>
      <trkpt lat="45.30536" lon="6.04894">
        <ele>1895.2</ele>
        <time>2021-01-16T11:09:05Z</time>
      </trkpt>
      <trkpt lat="45.30536" lon="6.04895">
        <ele>1895.4</ele>
        <time>2021-01-16T11:09:06Z</time>
      </trkpt>
      <trkpt lat="45.30536" lon="6.04895">
        <ele>1895.4</ele>
        <time>2021-01-16T11:09:07Z</time>
      </trkpt>
      <trkpt lat="45.30536" lon="6.04895">
        <ele>1895.4</ele>
        <time>2021-01-16T11:09:08Z</time>
      </trkpt>
      <trkpt lat="45.30536" lon="6.04895">
        <ele>1895.6</ele>
        <time>2021-01-16T11:09:09Z</time>
      </trkpt>
      <trkpt lat="45.30536" lon="6.04895">
        <ele>1895.6</ele>
        <time>2021-01-16T11:09:10Z</time>
      </trkpt>
      <trkpt lat="45.30536" lon="6.04895">
        <ele>1895.8</ele>
        <time>2021-01-16T11:09:11Z</time>
      </trkpt>
      <trkpt lat="45.30536" lon="6.04895">
        <ele>1896</ele>
        <time>2021-01-16T11:09:12Z</time>
      </trkpt>
      <trkpt lat="45.30536" lon="6.04895">
        <ele>1896</ele>
        <time>2021-01-16T11:09:13Z</time>
      </trkpt>
      <trkpt lat="45.30536" lon="6.04895">
        <ele>1896.2</ele>
        <time>2021-01-16T11:09:14Z</time>
      </trkpt>
      <trkpt lat="45.30536" lon="6.04895">
        <ele>1896.2</ele>
        <time>2021-01-16T11:09:15Z</time>
      </trkpt>
      <trkpt lat="45.30536" lon="6.04895">
        <ele>1896.4</ele>
        <time>2021-01-16T11:09:16Z</time>
      </trkpt>
      <trkpt lat="45.30536" lon="6.04895">
        <ele>1896.4</ele>
        <time>2021-01-16T11:09:17Z</time>
      </trkpt>
      <trkpt lat="45.30536" lon="6.04895">
        <ele>1896.4</ele>
        <time>2021-01-16T11:09:18Z</time>
      </trkpt>
      <trkpt lat="45.30536" lon="6.04895">
        <ele>1896.4</ele>
        <time>2021-01-16T11:09:19Z</time>
      </trkpt>
      <trkpt lat="45.30536" lon="6.04895">
        <ele>1896.6</ele>
        <time>2021-01-16T11:09:20Z</time>
      </trkpt>
      <trkpt lat="45.30536" lon="6.04895">
        <ele>1896.6</ele>
        <time>2021-01-16T11:09:21Z</time>
      </trkpt>
      <trkpt lat="45.30536" lon="6.04895">
        <ele>1896.6</ele>
        <time>2021-01-16T11:09:22Z</time>
      </trkpt>
      <trkpt lat="45.30536" lon="6.04895">
        <ele>1896.6</ele>
        <time>2021-01-16T11:09:23Z</time>
      </trkpt>
      <trkpt lat="45.30536" lon="6.04895">
        <ele>1896.6</ele>
        <time>2021-01-16T11:09:24Z</time>
      </trkpt>
      <trkpt lat="45.30536" lon="6.04895">
        <ele>1896.8</ele>
        <time>2021-01-16T11:09:25Z</time>
      </trkpt>
      <trkpt lat="45.30537" lon="6.04897">
        <ele>1896.6</ele>
        <time>2021-01-16T11:09:26Z</time>
      </trkpt>
      <trkpt lat="45.3054" lon="6.04906">
        <ele>1896.8</ele>
        <time>2021-01-16T11:09:27Z</time>
      </trkpt>
      <trkpt lat="45.3054" lon="6.04907">
        <ele>1896.8</ele>
        <time>2021-01-16T11:09:28Z</time>
      </trkpt>
      <trkpt lat="45.3054" lon="6.04908">
        <ele>1897</ele>
        <time>2021-01-16T11:09:29Z</time>
      </trkpt>
      <trkpt lat="45.3054" lon="6.04909">
        <ele>1897</ele>
        <time>2021-01-16T11:09:30Z</time>
      </trkpt>
      <trkpt lat="45.3054" lon="6.04909">
        <ele>1897</ele>
        <time>2021-01-16T11:09:31Z</time>
      </trkpt>
      <trkpt lat="45.3054" lon="6.04909">
        <ele>1897.2</ele>
        <time>2021-01-16T11:09:32Z</time>
      </trkpt>
      <trkpt lat="45.3054" lon="6.04909">
        <ele>1897.2</ele>
        <time>2021-01-16T11:09:33Z</time>
      </trkpt>
      <trkpt lat="45.3054" lon="6.04909">
        <ele>1897.4</ele>
        <time>2021-01-16T11:09:34Z</time>
      </trkpt>
      <trkpt lat="45.3054" lon="6.04909">
        <ele>1897.2</ele>
        <time>2021-01-16T11:09:35Z</time>
      </trkpt>
      <trkpt lat="45.3054" lon="6.04909">
        <ele>1897.4</ele>
        <time>2021-01-16T11:09:36Z</time>
      </trkpt>
      <trkpt lat="45.3054" lon="6.04909">
        <ele>1897.2</ele>
        <time>2021-01-16T11:09:37Z</time>
      </trkpt>
      <trkpt lat="45.3054" lon="6.04909">
        <ele>1897.6</ele>
        <time>2021-01-16T11:09:38Z</time>
      </trkpt>
      <trkpt lat="45.3054" lon="6.04909">
        <ele>1897.6</ele>
        <time>2021-01-16T11:09:39Z</time>
      </trkpt>
      <trkpt lat="45.3054" lon="6.04909">
        <ele>1897.8</ele>
        <time>2021-01-16T11:09:40Z</time>
      </trkpt>
      <trkpt lat="45.3054" lon="6.04909">
        <ele>1897.8</ele>
        <time>2021-01-16T11:09:41Z</time>
      </trkpt>
      <trkpt lat="45.3054" lon="6.04909">
        <ele>1898</ele>
        <time>2021-01-16T11:09:42Z</time>
      </trkpt>
      <trkpt lat="45.3054" lon="6.04909">
        <ele>1898</ele>
        <time>2021-01-16T11:09:43Z</time>
      </trkpt>
      <trkpt lat="45.3054" lon="6.04909">
        <ele>1898</ele>
        <time>2021-01-16T11:09:44Z</time>
      </trkpt>
      <trkpt lat="45.3054" lon="6.04909">
        <ele>1898.2</ele>
        <time>2021-01-16T11:09:45Z</time>
      </trkpt>
      <trkpt lat="45.3054" lon="6.04909">
        <ele>1898.2</ele>
        <time>2021-01-16T11:09:46Z</time>
      </trkpt>
      <trkpt lat="45.3054" lon="6.04909">
        <ele>1898.2</ele>
        <time>2021-01-16T11:09:47Z</time>
      </trkpt>
      <trkpt lat="45.3054" lon="6.04909">
        <ele>1898.4</ele>
        <time>2021-01-16T11:09:48Z</time>
      </trkpt>
      <trkpt lat="45.3054" lon="6.04909">
        <ele>1898.4</ele>
        <time>2021-01-16T11:09:49Z</time>
      </trkpt>
      <trkpt lat="45.3054" lon="6.04909">
        <ele>1898.4</ele>
        <time>2021-01-16T11:09:50Z</time>
      </trkpt>
      <trkpt lat="45.3054" lon="6.04909">
        <ele>1898.4</ele>
        <time>2021-01-16T11:09:51Z</time>
      </trkpt>
      <trkpt lat="45.3054" lon="6.04909">
        <ele>1898.4</ele>
        <time>2021-01-16T11:09:52Z</time>
      </trkpt>
      <trkpt lat="45.3054" lon="6.04909">
        <ele>1898.4</ele>
        <time>2021-01-16T11:09:53Z</time>
      </trkpt>
      <trkpt lat="45.3054" lon="6.04909">
        <ele>1898.4</ele>
        <time>2021-01-16T11:09:54Z</time>
      </trkpt>
      <trkpt lat="45.3054" lon="6.04909">
        <ele>1898.4</ele>
        <time>2021-01-16T11:09:55Z</time>
      </trkpt>
      <trkpt lat="45.3054" lon="6.04909">
        <ele>1898.2</ele>
        <time>2021-01-16T11:09:56Z</time>
      </trkpt>
      <trkpt lat="45.3054" lon="6.04909">
        <ele>1898.2</ele>
        <time>2021-01-16T11:09:57Z</time>
      </trkpt>
      <trkpt lat="45.3054" lon="6.04909">
        <ele>1898.2</ele>
        <time>2021-01-16T11:09:58Z</time>
      </trkpt>
      <trkpt lat="45.3054" lon="6.04909">
        <ele>1898.2</ele>
        <time>2021-01-16T11:09:59Z</time>
      </trkpt>
      <trkpt lat="45.3054" lon="6.04909">
        <ele>1898.2</ele>
        <time>2021-01-16T11:10:00Z</time>
      </trkpt>
      <trkpt lat="45.3054" lon="6.04909">
        <ele>1898.4</ele>
        <time>2021-01-16T11:10:01Z</time>
      </trkpt>
      <trkpt lat="45.3054" lon="6.04909">
        <ele>1898.4</ele>
        <time>2021-01-16T11:10:02Z</time>
      </trkpt>
      <trkpt lat="45.3054" lon="6.04909">
        <ele>1898.4</ele>
        <time>2021-01-16T11:10:03Z</time>
      </trkpt>
      <trkpt lat="45.3054" lon="6.04909">
        <ele>1898.4</ele>
        <time>2021-01-16T11:10:04Z</time>
      </trkpt>
      <trkpt lat="45.3054" lon="6.04909">
        <ele>1898.4</ele>
        <time>2021-01-16T11:10:05Z</time>
      </trkpt>
      <trkpt lat="45.3054" lon="6.04909">
        <ele>1898.4</ele>
        <time>2021-01-16T11:10:06Z</time>
      </trkpt>
      <trkpt lat="45.3054" lon="6.04909">
        <ele>1898.2</ele>
        <time>2021-01-16T11:10:07Z</time>
      </trkpt>
      <trkpt lat="45.3054" lon="6.04909">
        <ele>1898.2</ele>
        <time>2021-01-16T11:10:08Z</time>
      </trkpt>
      <trkpt lat="45.3054" lon="6.04909">
        <ele>1898.2</ele>
        <time>2021-01-16T11:10:09Z</time>
      </trkpt>
      <trkpt lat="45.3054" lon="6.04909">
        <ele>1898.2</ele>
        <time>2021-01-16T11:10:10Z</time>
      </trkpt>
      <trkpt lat="45.3054" lon="6.04909">
        <ele>1898.2</ele>
        <time>2021-01-16T11:10:11Z</time>
      </trkpt>
      <trkpt lat="45.3054" lon="6.04909">
        <ele>1898</ele>
        <time>2021-01-16T11:10:12Z</time>
      </trkpt>
      <trkpt lat="45.3054" lon="6.04909">
        <ele>1898</ele>
        <time>2021-01-16T11:10:13Z</time>
      </trkpt>
      <trkpt lat="45.3054" lon="6.04909">
        <ele>1898</ele>
        <time>2021-01-16T11:10:14Z</time>
      </trkpt>
      <trkpt lat="45.3054" lon="6.04909">
        <ele>1898</ele>
        <time>2021-01-16T11:10:15Z</time>
      </trkpt>
      <trkpt lat="45.3054" lon="6.04909">
        <ele>1898.2</ele>
        <time>2021-01-16T11:10:16Z</time>
      </trkpt>
      <trkpt lat="45.3054" lon="6.04909">
        <ele>1898.2</ele>
        <time>2021-01-16T11:10:17Z</time>
      </trkpt>
      <trkpt lat="45.3054" lon="6.04909">
        <ele>1898.2</ele>
        <time>2021-01-16T11:10:18Z</time>
      </trkpt>
      <trkpt lat="45.3054" lon="6.04909">
        <ele>1898.2</ele>
        <time>2021-01-16T11:10:19Z</time>
      </trkpt>
      <trkpt lat="45.3054" lon="6.04909">
        <ele>1898.2</ele>
        <time>2021-01-16T11:10:20Z</time>
      </trkpt>
      <trkpt lat="45.30541" lon="6.04911">
        <ele>1898.2</ele>
        <time>2021-01-16T11:10:21Z</time>
      </trkpt>
      <trkpt lat="45.30544" lon="6.04921">
        <ele>1898.2</ele>
        <time>2021-01-16T11:10:22Z</time>
      </trkpt>
      <trkpt lat="45.30544" lon="6.04922">
        <ele>1898.2</ele>
        <time>2021-01-16T11:10:23Z</time>
      </trkpt>
      <trkpt lat="45.30545" lon="6.04923">
        <ele>1898.4</ele>
        <time>2021-01-16T11:10:24Z</time>
      </trkpt>
      <trkpt lat="45.30545" lon="6.04923">
        <ele>1898.4</ele>
        <time>2021-01-16T11:10:25Z</time>
      </trkpt>
      <trkpt lat="45.30545" lon="6.04923">
        <ele>1898.4</ele>
        <time>2021-01-16T11:10:26Z</time>
      </trkpt>
      <trkpt lat="45.30545" lon="6.04923">
        <ele>1898.6</ele>
        <time>2021-01-16T11:10:27Z</time>
      </trkpt>
      <trkpt lat="45.30545" lon="6.04923">
        <ele>1898.4</ele>
        <time>2021-01-16T11:10:28Z</time>
      </trkpt>
      <trkpt lat="45.30545" lon="6.04923">
        <ele>1898.6</ele>
        <time>2021-01-16T11:10:29Z</time>
      </trkpt>
      <trkpt lat="45.30545" lon="6.04923">
        <ele>1898.6</ele>
        <time>2021-01-16T11:10:30Z</time>
      </trkpt>
      <trkpt lat="45.30545" lon="6.04923">
        <ele>1898.6</ele>
        <time>2021-01-16T11:10:31Z</time>
      </trkpt>
      <trkpt lat="45.30545" lon="6.04923">
        <ele>1898.8</ele>
        <time>2021-01-16T11:10:32Z</time>
      </trkpt>
      <trkpt lat="45.30545" lon="6.04923">
        <ele>1899</ele>
        <time>2021-01-16T11:10:33Z</time>
      </trkpt>
      <trkpt lat="45.30545" lon="6.04923">
        <ele>1899.2</ele>
        <time>2021-01-16T11:10:34Z</time>
      </trkpt>
      <trkpt lat="45.30545" lon="6.04923">
        <ele>1899.4</ele>
        <time>2021-01-16T11:10:35Z</time>
      </trkpt>
      <trkpt lat="45.30545" lon="6.04923">
        <ele>1899.6</ele>
        <time>2021-01-16T11:10:36Z</time>
      </trkpt>
      <trkpt lat="45.30545" lon="6.04925">
        <ele>1899.8</ele>
        <time>2021-01-16T11:10:37Z</time>
      </trkpt>
      <trkpt lat="45.30547" lon="6.04936">
        <ele>1899.8</ele>
        <time>2021-01-16T11:10:38Z</time>
      </trkpt>
      <trkpt lat="45.30548" lon="6.04937">
        <ele>1900</ele>
        <time>2021-01-16T11:10:39Z</time>
      </trkpt>
      <trkpt lat="45.30548" lon="6.04937">
        <ele>1899.8</ele>
        <time>2021-01-16T11:10:40Z</time>
      </trkpt>
      <trkpt lat="45.30549" lon="6.04938">
        <ele>1900</ele>
        <time>2021-01-16T11:10:41Z</time>
      </trkpt>
      <trkpt lat="45.30549" lon="6.04938">
        <ele>1900</ele>
        <time>2021-01-16T11:10:42Z</time>
      </trkpt>
      <trkpt lat="45.30549" lon="6.04938">
        <ele>1900.2</ele>
        <time>2021-01-16T11:10:43Z</time>
      </trkpt>
      <trkpt lat="45.30549" lon="6.04938">
        <ele>1900.2</ele>
        <time>2021-01-16T11:10:44Z</time>
      </trkpt>
      <trkpt lat="45.30549" lon="6.04938">
        <ele>1900</ele>
        <time>2021-01-16T11:10:45Z</time>
      </trkpt>
      <trkpt lat="45.30549" lon="6.04938">
        <ele>1900.2</ele>
        <time>2021-01-16T11:10:46Z</time>
      </trkpt>
      <trkpt lat="45.30549" lon="6.04938">
        <ele>1900.4</ele>
        <time>2021-01-16T11:10:47Z</time>
      </trkpt>
      <trkpt lat="45.30549" lon="6.04938">
        <ele>1900.2</ele>
        <time>2021-01-16T11:10:48Z</time>
      </trkpt>
      <trkpt lat="45.30549" lon="6.04938">
        <ele>1900.4</ele>
        <time>2021-01-16T11:10:49Z</time>
      </trkpt>
      <trkpt lat="45.30549" lon="6.04938">
        <ele>1900.4</ele>
        <time>2021-01-16T11:10:50Z</time>
      </trkpt>
      <trkpt lat="45.30549" lon="6.04938">
        <ele>1900.4</ele>
        <time>2021-01-16T11:10:51Z</time>
      </trkpt>
      <trkpt lat="45.30549" lon="6.04938">
        <ele>1900.4</ele>
        <time>2021-01-16T11:10:52Z</time>
      </trkpt>
      <trkpt lat="45.30549" lon="6.04938">
        <ele>1900.4</ele>
        <time>2021-01-16T11:10:53Z</time>
      </trkpt>
      <trkpt lat="45.30549" lon="6.04938">
        <ele>1900.4</ele>
        <time>2021-01-16T11:10:54Z</time>
      </trkpt>
      <trkpt lat="45.30549" lon="6.04938">
        <ele>1900.4</ele>
        <time>2021-01-16T11:10:55Z</time>
      </trkpt>
      <trkpt lat="45.30549" lon="6.04938">
        <ele>1900.4</ele>
        <time>2021-01-16T11:10:56Z</time>
      </trkpt>
      <trkpt lat="45.30549" lon="6.04938">
        <ele>1900.4</ele>
        <time>2021-01-16T11:10:57Z</time>
      </trkpt>
      <trkpt lat="45.30549" lon="6.04938">
        <ele>1900.4</ele>
        <time>2021-01-16T11:10:58Z</time>
      </trkpt>
      <trkpt lat="45.30549" lon="6.04938">
        <ele>1900.4</ele>
        <time>2021-01-16T11:10:59Z</time>
      </trkpt>
      <trkpt lat="45.30549" lon="6.04938">
        <ele>1900.4</ele>
        <time>2021-01-16T11:11:00Z</time>
      </trkpt>
      <trkpt lat="45.30549" lon="6.04938">
        <ele>1900.4</ele>
        <time>2021-01-16T11:11:01Z</time>
      </trkpt>
      <trkpt lat="45.30549" lon="6.04938">
        <ele>1900.4</ele>
        <time>2021-01-16T11:11:02Z</time>
      </trkpt>
      <trkpt lat="45.30549" lon="6.04938">
        <ele>1900.4</ele>
        <time>2021-01-16T11:11:03Z</time>
      </trkpt>
      <trkpt lat="45.30549" lon="6.04938">
        <ele>1900.4</ele>
        <time>2021-01-16T11:11:04Z</time>
      </trkpt>
      <trkpt lat="45.30549" lon="6.04938">
        <ele>1900.6</ele>
        <time>2021-01-16T11:11:05Z</time>
      </trkpt>
      <trkpt lat="45.30549" lon="6.04938">
        <ele>1900.6</ele>
        <time>2021-01-16T11:11:06Z</time>
      </trkpt>
      <trkpt lat="45.30549" lon="6.04938">
        <ele>1900.8</ele>
        <time>2021-01-16T11:11:07Z</time>
      </trkpt>
      <trkpt lat="45.30549" lon="6.04938">
        <ele>1901</ele>
        <time>2021-01-16T11:11:08Z</time>
      </trkpt>
      <trkpt lat="45.30549" lon="6.04938">
        <ele>1901.2</ele>
        <time>2021-01-16T11:11:09Z</time>
      </trkpt>
      <trkpt lat="45.30549" lon="6.04938">
        <ele>1901.2</ele>
        <time>2021-01-16T11:11:10Z</time>
      </trkpt>
      <trkpt lat="45.30549" lon="6.04938">
        <ele>1901.4</ele>
        <time>2021-01-16T11:11:11Z</time>
      </trkpt>
      <trkpt lat="45.30549" lon="6.04938">
        <ele>1901.4</ele>
        <time>2021-01-16T11:11:12Z</time>
      </trkpt>
      <trkpt lat="45.30549" lon="6.04938">
        <ele>1901.6</ele>
        <time>2021-01-16T11:11:13Z</time>
      </trkpt>
      <trkpt lat="45.30549" lon="6.04938">
        <ele>1901.8</ele>
        <time>2021-01-16T11:11:14Z</time>
      </trkpt>
      <trkpt lat="45.30549" lon="6.04938">
        <ele>1901.8</ele>
        <time>2021-01-16T11:11:15Z</time>
      </trkpt>
      <trkpt lat="45.30549" lon="6.04938">
        <ele>1901.8</ele>
        <time>2021-01-16T11:11:16Z</time>
      </trkpt>
      <trkpt lat="45.30549" lon="6.04938">
        <ele>1902</ele>
        <time>2021-01-16T11:11:17Z</time>
      </trkpt>
      <trkpt lat="45.30549" lon="6.04938">
        <ele>1902.2</ele>
        <time>2021-01-16T11:11:18Z</time>
      </trkpt>
      <trkpt lat="45.30549" lon="6.04938">
        <ele>1902.2</ele>
        <time>2021-01-16T11:11:19Z</time>
      </trkpt>
      <trkpt lat="45.30549" lon="6.04938">
        <ele>1902.2</ele>
        <time>2021-01-16T11:11:20Z</time>
      </trkpt>
      <trkpt lat="45.30547" lon="6.04938">
        <ele>1902.4</ele>
        <time>2021-01-16T11:11:21Z</time>
      </trkpt>
      <trkpt lat="45.30539" lon="6.0494">
        <ele>1902.4</ele>
        <time>2021-01-16T11:11:22Z</time>
      </trkpt>
      <trkpt lat="45.30539" lon="6.0494">
        <ele>1902.6</ele>
        <time>2021-01-16T11:11:23Z</time>
      </trkpt>
      <trkpt lat="45.30539" lon="6.0494">
        <ele>1902.8</ele>
        <time>2021-01-16T11:11:24Z</time>
      </trkpt>
      <trkpt lat="45.30539" lon="6.0494">
        <ele>1902.8</ele>
        <time>2021-01-16T11:11:25Z</time>
      </trkpt>
      <trkpt lat="45.30539" lon="6.0494">
        <ele>1903</ele>
        <time>2021-01-16T11:11:26Z</time>
      </trkpt>
      <trkpt lat="45.30539" lon="6.0494">
        <ele>1903</ele>
        <time>2021-01-16T11:11:27Z</time>
      </trkpt>
      <trkpt lat="45.30539" lon="6.0494">
        <ele>1903.2</ele>
        <time>2021-01-16T11:11:28Z</time>
      </trkpt>
      <trkpt lat="45.30539" lon="6.0494">
        <ele>1903.2</ele>
        <time>2021-01-16T11:11:29Z</time>
      </trkpt>
      <trkpt lat="45.30539" lon="6.0494">
        <ele>1903.2</ele>
        <time>2021-01-16T11:11:30Z</time>
      </trkpt>
      <trkpt lat="45.30539" lon="6.0494">
        <ele>1903.4</ele>
        <time>2021-01-16T11:11:31Z</time>
      </trkpt>
      <trkpt lat="45.30539" lon="6.0494">
        <ele>1903.4</ele>
        <time>2021-01-16T11:11:32Z</time>
      </trkpt>
      <trkpt lat="45.30539" lon="6.0494">
        <ele>1903.4</ele>
        <time>2021-01-16T11:11:33Z</time>
      </trkpt>
      <trkpt lat="45.30539" lon="6.0494">
        <ele>1903.6</ele>
        <time>2021-01-16T11:11:34Z</time>
      </trkpt>
      <trkpt lat="45.30539" lon="6.0494">
        <ele>1903.6</ele>
        <time>2021-01-16T11:11:35Z</time>
      </trkpt>
      <trkpt lat="45.30539" lon="6.0494">
        <ele>1903.8</ele>
        <time>2021-01-16T11:11:36Z</time>
      </trkpt>
      <trkpt lat="45.30539" lon="6.0494">
        <ele>1903.8</ele>
        <time>2021-01-16T11:11:37Z</time>
      </trkpt>
      <trkpt lat="45.30539" lon="6.0494">
        <ele>1904</ele>
        <time>2021-01-16T11:11:38Z</time>
      </trkpt>
      <trkpt lat="45.30539" lon="6.0494">
        <ele>1904.2</ele>
        <time>2021-01-16T11:11:39Z</time>
      </trkpt>
      <trkpt lat="45.30539" lon="6.0494">
        <ele>1904.2</ele>
        <time>2021-01-16T11:11:40Z</time>
      </trkpt>
      <trkpt lat="45.30539" lon="6.0494">
        <ele>1904.4</ele>
        <time>2021-01-16T11:11:41Z</time>
      </trkpt>
      <trkpt lat="45.30539" lon="6.0494">
        <ele>1904.4</ele>
        <time>2021-01-16T11:11:42Z</time>
      </trkpt>
      <trkpt lat="45.30539" lon="6.0494">
        <ele>1904.4</ele>
        <time>2021-01-16T11:11:43Z</time>
      </trkpt>
      <trkpt lat="45.30539" lon="6.0494">
        <ele>1904.6</ele>
        <time>2021-01-16T11:11:44Z</time>
      </trkpt>
      <trkpt lat="45.30539" lon="6.0494">
        <ele>1904.6</ele>
        <time>2021-01-16T11:11:45Z</time>
      </trkpt>
      <trkpt lat="45.30539" lon="6.0494">
        <ele>1904.6</ele>
        <time>2021-01-16T11:11:46Z</time>
      </trkpt>
      <trkpt lat="45.30539" lon="6.0494">
        <ele>1904.6</ele>
        <time>2021-01-16T11:11:47Z</time>
      </trkpt>
      <trkpt lat="45.30537" lon="6.0494">
        <ele>1905</ele>
        <time>2021-01-16T11:11:48Z</time>
      </trkpt>
      <trkpt lat="45.3053" lon="6.04937">
        <ele>1905</ele>
        <time>2021-01-16T11:11:49Z</time>
      </trkpt>
      <trkpt lat="45.30529" lon="6.04938">
        <ele>1905.2</ele>
        <time>2021-01-16T11:11:50Z</time>
      </trkpt>
      <trkpt lat="45.30529" lon="6.04938">
        <ele>1905.4</ele>
        <time>2021-01-16T11:11:51Z</time>
      </trkpt>
      <trkpt lat="45.30529" lon="6.04939">
        <ele>1905.4</ele>
        <time>2021-01-16T11:11:52Z</time>
      </trkpt>
      <trkpt lat="45.30529" lon="6.04939">
        <ele>1905.6</ele>
        <time>2021-01-16T11:11:53Z</time>
      </trkpt>
      <trkpt lat="45.30529" lon="6.04939">
        <ele>1905.6</ele>
        <time>2021-01-16T11:11:54Z</time>
      </trkpt>
      <trkpt lat="45.30529" lon="6.0494">
        <ele>1905.8</ele>
        <time>2021-01-16T11:11:55Z</time>
      </trkpt>
      <trkpt lat="45.30528" lon="6.0494">
        <ele>1905.8</ele>
        <time>2021-01-16T11:11:56Z</time>
      </trkpt>
      <trkpt lat="45.30528" lon="6.04941">
        <ele>1905.8</ele>
        <time>2021-01-16T11:11:57Z</time>
      </trkpt>
      <trkpt lat="45.30528" lon="6.04941">
        <ele>1906</ele>
        <time>2021-01-16T11:11:58Z</time>
      </trkpt>
      <trkpt lat="45.30528" lon="6.04941">
        <ele>1906</ele>
        <time>2021-01-16T11:11:59Z</time>
      </trkpt>
      <trkpt lat="45.30528" lon="6.04942">
        <ele>1906.2</ele>
        <time>2021-01-16T11:12:00Z</time>
      </trkpt>
      <trkpt lat="45.30528" lon="6.04942">
        <ele>1906.4</ele>
        <time>2021-01-16T11:12:01Z</time>
      </trkpt>
      <trkpt lat="45.30528" lon="6.04942">
        <ele>1906.4</ele>
        <time>2021-01-16T11:12:02Z</time>
      </trkpt>
      <trkpt lat="45.30528" lon="6.04943">
        <ele>1906.6</ele>
        <time>2021-01-16T11:12:03Z</time>
      </trkpt>
      <trkpt lat="45.30528" lon="6.04943">
        <ele>1906.6</ele>
        <time>2021-01-16T11:12:04Z</time>
      </trkpt>
      <trkpt lat="45.30528" lon="6.04944">
        <ele>1906.8</ele>
        <time>2021-01-16T11:12:05Z</time>
      </trkpt>
      <trkpt lat="45.30528" lon="6.04944">
        <ele>1906.8</ele>
        <time>2021-01-16T11:12:06Z</time>
      </trkpt>
      <trkpt lat="45.30528" lon="6.04944">
        <ele>1907</ele>
        <time>2021-01-16T11:12:07Z</time>
      </trkpt>
      <trkpt lat="45.30528" lon="6.04945">
        <ele>1907</ele>
        <time>2021-01-16T11:12:08Z</time>
      </trkpt>
      <trkpt lat="45.30528" lon="6.04945">
        <ele>1907</ele>
        <time>2021-01-16T11:12:09Z</time>
      </trkpt>
      <trkpt lat="45.30527" lon="6.04946">
        <ele>1907</ele>
        <time>2021-01-16T11:12:10Z</time>
      </trkpt>
      <trkpt lat="45.30527" lon="6.04946">
        <ele>1907</ele>
        <time>2021-01-16T11:12:11Z</time>
      </trkpt>
      <trkpt lat="45.30527" lon="6.04946">
        <ele>1907</ele>
        <time>2021-01-16T11:12:12Z</time>
      </trkpt>
      <trkpt lat="45.30527" lon="6.04947">
        <ele>1907</ele>
        <time>2021-01-16T11:12:13Z</time>
      </trkpt>
      <trkpt lat="45.30527" lon="6.04947">
        <ele>1907</ele>
        <time>2021-01-16T11:12:14Z</time>
      </trkpt>
      <trkpt lat="45.30527" lon="6.04948">
        <ele>1906.8</ele>
        <time>2021-01-16T11:12:15Z</time>
      </trkpt>
      <trkpt lat="45.30527" lon="6.04948">
        <ele>1906.8</ele>
        <time>2021-01-16T11:12:16Z</time>
      </trkpt>
      <trkpt lat="45.30527" lon="6.04948">
        <ele>1907</ele>
        <time>2021-01-16T11:12:17Z</time>
      </trkpt>
      <trkpt lat="45.30527" lon="6.04949">
        <ele>1907</ele>
        <time>2021-01-16T11:12:18Z</time>
      </trkpt>
      <trkpt lat="45.30527" lon="6.04949">
        <ele>1907</ele>
        <time>2021-01-16T11:12:19Z</time>
      </trkpt>
      <trkpt lat="45.30527" lon="6.0495">
        <ele>1907</ele>
        <time>2021-01-16T11:12:20Z</time>
      </trkpt>
      <trkpt lat="45.30527" lon="6.0495">
        <ele>1907.2</ele>
        <time>2021-01-16T11:12:21Z</time>
      </trkpt>
      <trkpt lat="45.30527" lon="6.0495">
        <ele>1907.2</ele>
        <time>2021-01-16T11:12:22Z</time>
      </trkpt>
      <trkpt lat="45.30527" lon="6.04951">
        <ele>1907.2</ele>
        <time>2021-01-16T11:12:23Z</time>
      </trkpt>
      <trkpt lat="45.30526" lon="6.04951">
        <ele>1907.4</ele>
        <time>2021-01-16T11:12:24Z</time>
      </trkpt>
      <trkpt lat="45.30526" lon="6.04952">
        <ele>1907.4</ele>
        <time>2021-01-16T11:12:25Z</time>
      </trkpt>
      <trkpt lat="45.30526" lon="6.04952">
        <ele>1907.6</ele>
        <time>2021-01-16T11:12:26Z</time>
      </trkpt>
      <trkpt lat="45.30526" lon="6.04952">
        <ele>1907.4</ele>
        <time>2021-01-16T11:12:27Z</time>
      </trkpt>
      <trkpt lat="45.30526" lon="6.04953">
        <ele>1907.6</ele>
        <time>2021-01-16T11:12:28Z</time>
      </trkpt>
      <trkpt lat="45.30526" lon="6.04953">
        <ele>1907.6</ele>
        <time>2021-01-16T11:12:29Z</time>
      </trkpt>
      <trkpt lat="45.30526" lon="6.04954">
        <ele>1907.8</ele>
        <time>2021-01-16T11:12:30Z</time>
      </trkpt>
      <trkpt lat="45.30526" lon="6.04954">
        <ele>1907.8</ele>
        <time>2021-01-16T11:12:31Z</time>
      </trkpt>
      <trkpt lat="45.30526" lon="6.04954">
        <ele>1907.8</ele>
        <time>2021-01-16T11:12:32Z</time>
      </trkpt>
      <trkpt lat="45.30526" lon="6.04955">
        <ele>1908</ele>
        <time>2021-01-16T11:12:33Z</time>
      </trkpt>
      <trkpt lat="45.30526" lon="6.04955">
        <ele>1908</ele>
        <time>2021-01-16T11:12:34Z</time>
      </trkpt>
      <trkpt lat="45.30526" lon="6.04956">
        <ele>1908.2</ele>
        <time>2021-01-16T11:12:35Z</time>
      </trkpt>
      <trkpt lat="45.30526" lon="6.04956">
        <ele>1908.2</ele>
        <time>2021-01-16T11:12:36Z</time>
      </trkpt>
      <trkpt lat="45.30526" lon="6.04956">
        <ele>1908.4</ele>
        <time>2021-01-16T11:12:37Z</time>
      </trkpt>
      <trkpt lat="45.30525" lon="6.04957">
        <ele>1908.4</ele>
        <time>2021-01-16T11:12:38Z</time>
      </trkpt>
      <trkpt lat="45.30525" lon="6.04957">
        <ele>1908.6</ele>
        <time>2021-01-16T11:12:39Z</time>
      </trkpt>
      <trkpt lat="45.30525" lon="6.04958">
        <ele>1908.6</ele>
        <time>2021-01-16T11:12:40Z</time>
      </trkpt>
      <trkpt lat="45.30525" lon="6.04958">
        <ele>1908.6</ele>
        <time>2021-01-16T11:12:41Z</time>
      </trkpt>
      <trkpt lat="45.30525" lon="6.04958">
        <ele>1908.6</ele>
        <time>2021-01-16T11:12:42Z</time>
      </trkpt>
      <trkpt lat="45.30525" lon="6.04959">
        <ele>1908.8</ele>
        <time>2021-01-16T11:12:43Z</time>
      </trkpt>
      <trkpt lat="45.30525" lon="6.04959">
        <ele>1908.8</ele>
        <time>2021-01-16T11:12:44Z</time>
      </trkpt>
      <trkpt lat="45.30525" lon="6.04959">
        <ele>1908.8</ele>
        <time>2021-01-16T11:12:45Z</time>
      </trkpt>
      <trkpt lat="45.30525" lon="6.0496">
        <ele>1909</ele>
        <time>2021-01-16T11:12:46Z</time>
      </trkpt>
      <trkpt lat="45.30525" lon="6.0496">
        <ele>1909</ele>
        <time>2021-01-16T11:12:47Z</time>
      </trkpt>
      <trkpt lat="45.30525" lon="6.04961">
        <ele>1909.2</ele>
        <time>2021-01-16T11:12:48Z</time>
      </trkpt>
      <trkpt lat="45.30525" lon="6.04961">
        <ele>1909.2</ele>
        <time>2021-01-16T11:12:49Z</time>
      </trkpt>
      <trkpt lat="45.30525" lon="6.04961">
        <ele>1909.4</ele>
        <time>2021-01-16T11:12:50Z</time>
      </trkpt>
      <trkpt lat="45.30525" lon="6.04962">
        <ele>1909.2</ele>
        <time>2021-01-16T11:12:51Z</time>
      </trkpt>
      <trkpt lat="45.30524" lon="6.04962">
        <ele>1909.6</ele>
        <time>2021-01-16T11:12:52Z</time>
      </trkpt>
      <trkpt lat="45.30524" lon="6.04963">
        <ele>1909.6</ele>
        <time>2021-01-16T11:12:53Z</time>
      </trkpt>
      <trkpt lat="45.30524" lon="6.04963">
        <ele>1909.8</ele>
        <time>2021-01-16T11:12:54Z</time>
      </trkpt>
      <trkpt lat="45.30524" lon="6.04963">
        <ele>1909.8</ele>
        <time>2021-01-16T11:12:55Z</time>
      </trkpt>
      <trkpt lat="45.30524" lon="6.04964">
        <ele>1910</ele>
        <time>2021-01-16T11:12:56Z</time>
      </trkpt>
      <trkpt lat="45.30525" lon="6.04965">
        <ele>1910</ele>
        <time>2021-01-16T11:12:57Z</time>
      </trkpt>
      <trkpt lat="45.30525" lon="6.04966">
        <ele>1910</ele>
        <time>2021-01-16T11:12:58Z</time>
      </trkpt>
      <trkpt lat="45.30525" lon="6.04967">
        <ele>1910.2</ele>
        <time>2021-01-16T11:12:59Z</time>
      </trkpt>
      <trkpt lat="45.30525" lon="6.04967">
        <ele>1910.2</ele>
        <time>2021-01-16T11:13:00Z</time>
      </trkpt>
      <trkpt lat="45.30525" lon="6.04968">
        <ele>1910.4</ele>
        <time>2021-01-16T11:13:01Z</time>
      </trkpt>
      <trkpt lat="45.30526" lon="6.04969">
        <ele>1910.2</ele>
        <time>2021-01-16T11:13:02Z</time>
      </trkpt>
      <trkpt lat="45.30526" lon="6.04969">
        <ele>1910.6</ele>
        <time>2021-01-16T11:13:03Z</time>
      </trkpt>
      <trkpt lat="45.30526" lon="6.0497">
        <ele>1910.6</ele>
        <time>2021-01-16T11:13:04Z</time>
      </trkpt>
      <trkpt lat="45.30526" lon="6.04971">
        <ele>1910.8</ele>
        <time>2021-01-16T11:13:05Z</time>
      </trkpt>
      <trkpt lat="45.30526" lon="6.04971">
        <ele>1910.8</ele>
        <time>2021-01-16T11:13:06Z</time>
      </trkpt>
      <trkpt lat="45.30527" lon="6.04972">
        <ele>1910.8</ele>
        <time>2021-01-16T11:13:07Z</time>
      </trkpt>
      <trkpt lat="45.30527" lon="6.04973">
        <ele>1911</ele>
        <time>2021-01-16T11:13:08Z</time>
      </trkpt>
      <trkpt lat="45.30527" lon="6.04973">
        <ele>1911</ele>
        <time>2021-01-16T11:13:09Z</time>
      </trkpt>
      <trkpt lat="45.30527" lon="6.04974">
        <ele>1911.2</ele>
        <time>2021-01-16T11:13:10Z</time>
      </trkpt>
      <trkpt lat="45.30527" lon="6.04975">
        <ele>1911.2</ele>
        <time>2021-01-16T11:13:11Z</time>
      </trkpt>
      <trkpt lat="45.30528" lon="6.04975">
        <ele>1911.4</ele>
        <time>2021-01-16T11:13:12Z</time>
      </trkpt>
      <trkpt lat="45.30528" lon="6.04976">
        <ele>1911.4</ele>
        <time>2021-01-16T11:13:13Z</time>
      </trkpt>
      <trkpt lat="45.30528" lon="6.04977">
        <ele>1911.6</ele>
        <time>2021-01-16T11:13:14Z</time>
      </trkpt>
      <trkpt lat="45.30528" lon="6.04977">
        <ele>1911.4</ele>
        <time>2021-01-16T11:13:15Z</time>
      </trkpt>
      <trkpt lat="45.30528" lon="6.04978">
        <ele>1911.8</ele>
        <time>2021-01-16T11:13:16Z</time>
      </trkpt>
      <trkpt lat="45.30529" lon="6.04979">
        <ele>1911.6</ele>
        <time>2021-01-16T11:13:17Z</time>
      </trkpt>
      <trkpt lat="45.30529" lon="6.04979">
        <ele>1911.8</ele>
        <time>2021-01-16T11:13:18Z</time>
      </trkpt>
      <trkpt lat="45.30529" lon="6.0498">
        <ele>1911.8</ele>
        <time>2021-01-16T11:13:19Z</time>
      </trkpt>
      <trkpt lat="45.30529" lon="6.04981">
        <ele>1912</ele>
        <time>2021-01-16T11:13:20Z</time>
      </trkpt>
      <trkpt lat="45.30529" lon="6.04981">
        <ele>1912</ele>
        <time>2021-01-16T11:13:21Z</time>
      </trkpt>
      <trkpt lat="45.3053" lon="6.04982">
        <ele>1912.2</ele>
        <time>2021-01-16T11:13:22Z</time>
      </trkpt>
      <trkpt lat="45.3053" lon="6.04983">
        <ele>1912.2</ele>
        <time>2021-01-16T11:13:23Z</time>
      </trkpt>
      <trkpt lat="45.3053" lon="6.04983">
        <ele>1912</ele>
        <time>2021-01-16T11:13:24Z</time>
      </trkpt>
      <trkpt lat="45.3053" lon="6.04984">
        <ele>1912.4</ele>
        <time>2021-01-16T11:13:25Z</time>
      </trkpt>
      <trkpt lat="45.3053" lon="6.04985">
        <ele>1912.2</ele>
        <time>2021-01-16T11:13:26Z</time>
      </trkpt>
      <trkpt lat="45.30531" lon="6.04985">
        <ele>1912.6</ele>
        <time>2021-01-16T11:13:27Z</time>
      </trkpt>
      <trkpt lat="45.30531" lon="6.04986">
        <ele>1912.4</ele>
        <time>2021-01-16T11:13:28Z</time>
      </trkpt>
      <trkpt lat="45.30531" lon="6.04987">
        <ele>1912.6</ele>
        <time>2021-01-16T11:13:29Z</time>
      </trkpt>
      <trkpt lat="45.30531" lon="6.04987">
        <ele>1912.6</ele>
        <time>2021-01-16T11:13:30Z</time>
      </trkpt>
      <trkpt lat="45.30531" lon="6.04988">
        <ele>1912.8</ele>
        <time>2021-01-16T11:13:31Z</time>
      </trkpt>
      <trkpt lat="45.30531" lon="6.04989">
        <ele>1913</ele>
        <time>2021-01-16T11:13:32Z</time>
      </trkpt>
      <trkpt lat="45.30532" lon="6.04989">
        <ele>1913</ele>
        <time>2021-01-16T11:13:33Z</time>
      </trkpt>
      <trkpt lat="45.30532" lon="6.0499">
        <ele>1913.2</ele>
        <time>2021-01-16T11:13:34Z</time>
      </trkpt>
      <trkpt lat="45.30532" lon="6.04991">
        <ele>1913.2</ele>
        <time>2021-01-16T11:13:35Z</time>
      </trkpt>
      <trkpt lat="45.30532" lon="6.04991">
        <ele>1913.2</ele>
        <time>2021-01-16T11:13:36Z</time>
      </trkpt>
      <trkpt lat="45.30532" lon="6.04992">
        <ele>1913.2</ele>
        <time>2021-01-16T11:13:37Z</time>
      </trkpt>
      <trkpt lat="45.30533" lon="6.04993">
        <ele>1913.4</ele>
        <time>2021-01-16T11:13:38Z</time>
      </trkpt>
      <trkpt lat="45.30533" lon="6.04993">
        <ele>1913.2</ele>
        <time>2021-01-16T11:13:39Z</time>
      </trkpt>
      <trkpt lat="45.30533" lon="6.04994">
        <ele>1913.4</ele>
        <time>2021-01-16T11:13:40Z</time>
      </trkpt>
      <trkpt lat="45.30533" lon="6.04995">
        <ele>1913.6</ele>
        <time>2021-01-16T11:13:41Z</time>
      </trkpt>
      <trkpt lat="45.30533" lon="6.04995">
        <ele>1913.6</ele>
        <time>2021-01-16T11:13:42Z</time>
      </trkpt>
      <trkpt lat="45.30534" lon="6.04996">
        <ele>1913.6</ele>
        <time>2021-01-16T11:13:43Z</time>
      </trkpt>
      <trkpt lat="45.30534" lon="6.04997">
        <ele>1913.8</ele>
        <time>2021-01-16T11:13:44Z</time>
      </trkpt>
      <trkpt lat="45.30534" lon="6.04997">
        <ele>1913.8</ele>
        <time>2021-01-16T11:13:45Z</time>
      </trkpt>
      <trkpt lat="45.30534" lon="6.04998">
        <ele>1914</ele>
        <time>2021-01-16T11:13:46Z</time>
      </trkpt>
      <trkpt lat="45.30534" lon="6.04999">
        <ele>1914</ele>
        <time>2021-01-16T11:13:47Z</time>
      </trkpt>
      <trkpt lat="45.30535" lon="6.04999">
        <ele>1914.2</ele>
        <time>2021-01-16T11:13:48Z</time>
      </trkpt>
      <trkpt lat="45.30535" lon="6.05">
        <ele>1914</ele>
        <time>2021-01-16T11:13:49Z</time>
      </trkpt>
      <trkpt lat="45.30535" lon="6.05001">
        <ele>1914.2</ele>
        <time>2021-01-16T11:13:50Z</time>
      </trkpt>
      <trkpt lat="45.30535" lon="6.05001">
        <ele>1914.2</ele>
        <time>2021-01-16T11:13:51Z</time>
      </trkpt>
      <trkpt lat="45.30535" lon="6.05002">
        <ele>1914.4</ele>
        <time>2021-01-16T11:13:52Z</time>
      </trkpt>
      <trkpt lat="45.30536" lon="6.05003">
        <ele>1914.4</ele>
        <time>2021-01-16T11:13:53Z</time>
      </trkpt>
      <trkpt lat="45.30536" lon="6.05003">
        <ele>1914.6</ele>
        <time>2021-01-16T11:13:54Z</time>
      </trkpt>
      <trkpt lat="45.30536" lon="6.05004">
        <ele>1914.8</ele>
        <time>2021-01-16T11:13:55Z</time>
      </trkpt>
      <trkpt lat="45.30536" lon="6.05005">
        <ele>1914.8</ele>
        <time>2021-01-16T11:13:56Z</time>
      </trkpt>
      <trkpt lat="45.30536" lon="6.05005">
        <ele>1915</ele>
        <time>2021-01-16T11:13:57Z</time>
      </trkpt>
      <trkpt lat="45.30537" lon="6.05006">
        <ele>1915</ele>
        <time>2021-01-16T11:13:58Z</time>
      </trkpt>
      <trkpt lat="45.30537" lon="6.05007">
        <ele>1915.2</ele>
        <time>2021-01-16T11:13:59Z</time>
      </trkpt>
      <trkpt lat="45.30537" lon="6.05008">
        <ele>1915.4</ele>
        <time>2021-01-16T11:14:00Z</time>
      </trkpt>
      <trkpt lat="45.30538" lon="6.05009">
        <ele>1915.4</ele>
        <time>2021-01-16T11:14:01Z</time>
      </trkpt>
      <trkpt lat="45.30538" lon="6.05009">
        <ele>1915.6</ele>
        <time>2021-01-16T11:14:02Z</time>
      </trkpt>
      <trkpt lat="45.30538" lon="6.05009">
        <ele>1915.4</ele>
        <time>2021-01-16T11:14:03Z</time>
      </trkpt>
      <trkpt lat="45.30538" lon="6.05009">
        <ele>1915.6</ele>
        <time>2021-01-16T11:14:04Z</time>
      </trkpt>
      <trkpt lat="45.30538" lon="6.05009">
        <ele>1915.6</ele>
        <time>2021-01-16T11:14:05Z</time>
      </trkpt>
      <trkpt lat="45.30538" lon="6.05009">
        <ele>1915.8</ele>
        <time>2021-01-16T11:14:06Z</time>
      </trkpt>
      <trkpt lat="45.30538" lon="6.05009">
        <ele>1915.8</ele>
        <time>2021-01-16T11:14:07Z</time>
      </trkpt>
      <trkpt lat="45.30538" lon="6.05009">
        <ele>1916</ele>
        <time>2021-01-16T11:14:08Z</time>
      </trkpt>
      <trkpt lat="45.30538" lon="6.05009">
        <ele>1916</ele>
        <time>2021-01-16T11:14:09Z</time>
      </trkpt>
      <trkpt lat="45.30538" lon="6.05009">
        <ele>1916.2</ele>
        <time>2021-01-16T11:14:10Z</time>
      </trkpt>
      <trkpt lat="45.30538" lon="6.05009">
        <ele>1916.2</ele>
        <time>2021-01-16T11:14:11Z</time>
      </trkpt>
      <trkpt lat="45.30538" lon="6.05009">
        <ele>1916.4</ele>
        <time>2021-01-16T11:14:12Z</time>
      </trkpt>
      <trkpt lat="45.30538" lon="6.05009">
        <ele>1916.4</ele>
        <time>2021-01-16T11:14:13Z</time>
      </trkpt>
      <trkpt lat="45.30538" lon="6.05009">
        <ele>1916.6</ele>
        <time>2021-01-16T11:14:14Z</time>
      </trkpt>
      <trkpt lat="45.30538" lon="6.05009">
        <ele>1916.4</ele>
        <time>2021-01-16T11:14:15Z</time>
      </trkpt>
      <trkpt lat="45.30538" lon="6.05009">
        <ele>1916.6</ele>
        <time>2021-01-16T11:14:16Z</time>
      </trkpt>
      <trkpt lat="45.30539" lon="6.05011">
        <ele>1916.6</ele>
        <time>2021-01-16T11:14:17Z</time>
      </trkpt>
      <trkpt lat="45.30543" lon="6.05021">
        <ele>1916.6</ele>
        <time>2021-01-16T11:14:18Z</time>
      </trkpt>
      <trkpt lat="45.30544" lon="6.05022">
        <ele>1916.8</ele>
        <time>2021-01-16T11:14:19Z</time>
      </trkpt>
      <trkpt lat="45.30544" lon="6.05023">
        <ele>1916.8</ele>
        <time>2021-01-16T11:14:20Z</time>
      </trkpt>
      <trkpt lat="45.30544" lon="6.05024">
        <ele>1917</ele>
        <time>2021-01-16T11:14:21Z</time>
      </trkpt>
      <trkpt lat="45.30544" lon="6.05024">
        <ele>1917</ele>
        <time>2021-01-16T11:14:22Z</time>
      </trkpt>
      <trkpt lat="45.30544" lon="6.05025">
        <ele>1917</ele>
        <time>2021-01-16T11:14:23Z</time>
      </trkpt>
      <trkpt lat="45.30544" lon="6.05026">
        <ele>1917.2</ele>
        <time>2021-01-16T11:14:24Z</time>
      </trkpt>
      <trkpt lat="45.30544" lon="6.05027">
        <ele>1917.2</ele>
        <time>2021-01-16T11:14:25Z</time>
      </trkpt>
      <trkpt lat="45.30544" lon="6.05027">
        <ele>1917.4</ele>
        <time>2021-01-16T11:14:26Z</time>
      </trkpt>
      <trkpt lat="45.30544" lon="6.05028">
        <ele>1917.4</ele>
        <time>2021-01-16T11:14:27Z</time>
      </trkpt>
      <trkpt lat="45.30544" lon="6.05029">
        <ele>1917.6</ele>
        <time>2021-01-16T11:14:28Z</time>
      </trkpt>
      <trkpt lat="45.30544" lon="6.0503">
        <ele>1917.4</ele>
        <time>2021-01-16T11:14:29Z</time>
      </trkpt>
      <trkpt lat="45.30545" lon="6.0503">
        <ele>1917.6</ele>
        <time>2021-01-16T11:14:30Z</time>
      </trkpt>
      <trkpt lat="45.30545" lon="6.05031">
        <ele>1917.6</ele>
        <time>2021-01-16T11:14:31Z</time>
      </trkpt>
      <trkpt lat="45.30545" lon="6.05032">
        <ele>1917.6</ele>
        <time>2021-01-16T11:14:32Z</time>
      </trkpt>
      <trkpt lat="45.30545" lon="6.05033">
        <ele>1917.8</ele>
        <time>2021-01-16T11:14:33Z</time>
      </trkpt>
      <trkpt lat="45.30545" lon="6.05033">
        <ele>1917.8</ele>
        <time>2021-01-16T11:14:34Z</time>
      </trkpt>
      <trkpt lat="45.30545" lon="6.05034">
        <ele>1918</ele>
        <time>2021-01-16T11:14:35Z</time>
      </trkpt>
      <trkpt lat="45.30545" lon="6.05035">
        <ele>1918.2</ele>
        <time>2021-01-16T11:14:36Z</time>
      </trkpt>
      <trkpt lat="45.30545" lon="6.05036">
        <ele>1918.2</ele>
        <time>2021-01-16T11:14:37Z</time>
      </trkpt>
      <trkpt lat="45.30544" lon="6.05036">
        <ele>1918.4</ele>
        <time>2021-01-16T11:14:38Z</time>
      </trkpt>
      <trkpt lat="45.30543" lon="6.05035">
        <ele>1918.4</ele>
        <time>2021-01-16T11:14:39Z</time>
      </trkpt>
      <trkpt lat="45.30542" lon="6.05035">
        <ele>1918.6</ele>
        <time>2021-01-16T11:14:40Z</time>
      </trkpt>
      <trkpt lat="45.30542" lon="6.05035">
        <ele>1918.6</ele>
        <time>2021-01-16T11:14:41Z</time>
      </trkpt>
      <trkpt lat="45.30541" lon="6.05035">
        <ele>1918.6</ele>
        <time>2021-01-16T11:14:42Z</time>
      </trkpt>
      <trkpt lat="45.3054" lon="6.05035">
        <ele>1918.6</ele>
        <time>2021-01-16T11:14:43Z</time>
      </trkpt>
      <trkpt lat="45.3054" lon="6.05035">
        <ele>1918.6</ele>
        <time>2021-01-16T11:14:44Z</time>
      </trkpt>
      <trkpt lat="45.30539" lon="6.05035">
        <ele>1918.8</ele>
        <time>2021-01-16T11:14:45Z</time>
      </trkpt>
      <trkpt lat="45.30538" lon="6.05034">
        <ele>1918.8</ele>
        <time>2021-01-16T11:14:46Z</time>
      </trkpt>
      <trkpt lat="45.30537" lon="6.05034">
        <ele>1918.8</ele>
        <time>2021-01-16T11:14:47Z</time>
      </trkpt>
      <trkpt lat="45.30537" lon="6.05034">
        <ele>1919</ele>
        <time>2021-01-16T11:14:48Z</time>
      </trkpt>
      <trkpt lat="45.30536" lon="6.05034">
        <ele>1919</ele>
        <time>2021-01-16T11:14:49Z</time>
      </trkpt>
      <trkpt lat="45.30535" lon="6.05034">
        <ele>1919</ele>
        <time>2021-01-16T11:14:50Z</time>
      </trkpt>
      <trkpt lat="45.30535" lon="6.05034">
        <ele>1919.2</ele>
        <time>2021-01-16T11:14:51Z</time>
      </trkpt>
      <trkpt lat="45.30534" lon="6.05034">
        <ele>1919.2</ele>
        <time>2021-01-16T11:14:52Z</time>
      </trkpt>
      <trkpt lat="45.30533" lon="6.05033">
        <ele>1919.2</ele>
        <time>2021-01-16T11:14:53Z</time>
      </trkpt>
      <trkpt lat="45.30532" lon="6.05032">
        <ele>1919.4</ele>
        <time>2021-01-16T11:14:54Z</time>
      </trkpt>
      <trkpt lat="45.30531" lon="6.05032">
        <ele>1919.4</ele>
        <time>2021-01-16T11:14:55Z</time>
      </trkpt>
      <trkpt lat="45.30531" lon="6.05032">
        <ele>1919.4</ele>
        <time>2021-01-16T11:14:56Z</time>
      </trkpt>
      <trkpt lat="45.3053" lon="6.05031">
        <ele>1919.6</ele>
        <time>2021-01-16T11:14:57Z</time>
      </trkpt>
      <trkpt lat="45.3053" lon="6.05031">
        <ele>1919.6</ele>
        <time>2021-01-16T11:14:58Z</time>
      </trkpt>
      <trkpt lat="45.30529" lon="6.05031">
        <ele>1919.6</ele>
        <time>2021-01-16T11:14:59Z</time>
      </trkpt>
      <trkpt lat="45.30528" lon="6.0503">
        <ele>1919.8</ele>
        <time>2021-01-16T11:15:00Z</time>
      </trkpt>
      <trkpt lat="45.30528" lon="6.0503">
        <ele>1919.6</ele>
        <time>2021-01-16T11:15:01Z</time>
      </trkpt>
      <trkpt lat="45.30527" lon="6.0503">
        <ele>1919.8</ele>
        <time>2021-01-16T11:15:02Z</time>
      </trkpt>
      <trkpt lat="45.30527" lon="6.0503">
        <ele>1919.8</ele>
        <time>2021-01-16T11:15:03Z</time>
      </trkpt>
      <trkpt lat="45.30526" lon="6.05029">
        <ele>1919.8</ele>
        <time>2021-01-16T11:15:04Z</time>
      </trkpt>
      <trkpt lat="45.30525" lon="6.05029">
        <ele>1920</ele>
        <time>2021-01-16T11:15:05Z</time>
      </trkpt>
      <trkpt lat="45.30525" lon="6.05029">
        <ele>1920</ele>
        <time>2021-01-16T11:15:06Z</time>
      </trkpt>
      <trkpt lat="45.30524" lon="6.05028">
        <ele>1920</ele>
        <time>2021-01-16T11:15:07Z</time>
      </trkpt>
      <trkpt lat="45.30524" lon="6.05028">
        <ele>1920</ele>
        <time>2021-01-16T11:15:08Z</time>
      </trkpt>
      <trkpt lat="45.30523" lon="6.05027">
        <ele>1920</ele>
        <time>2021-01-16T11:15:09Z</time>
      </trkpt>
      <trkpt lat="45.30522" lon="6.05027">
        <ele>1920</ele>
        <time>2021-01-16T11:15:10Z</time>
      </trkpt>
      <trkpt lat="45.30521" lon="6.05026">
        <ele>1920</ele>
        <time>2021-01-16T11:15:11Z</time>
      </trkpt>
      <trkpt lat="45.30521" lon="6.05026">
        <ele>1920</ele>
        <time>2021-01-16T11:15:12Z</time>
      </trkpt>
      <trkpt lat="45.30521" lon="6.05026">
        <ele>1920</ele>
        <time>2021-01-16T11:15:13Z</time>
      </trkpt>
      <trkpt lat="45.30521" lon="6.05026">
        <ele>1920</ele>
        <time>2021-01-16T11:15:14Z</time>
      </trkpt>
      <trkpt lat="45.30521" lon="6.05026">
        <ele>1920</ele>
        <time>2021-01-16T11:15:15Z</time>
      </trkpt>
      <trkpt lat="45.30521" lon="6.05026">
        <ele>1920</ele>
        <time>2021-01-16T11:15:16Z</time>
      </trkpt>
      <trkpt lat="45.30521" lon="6.05026">
        <ele>1920.2</ele>
        <time>2021-01-16T11:15:17Z</time>
      </trkpt>
      <trkpt lat="45.30521" lon="6.05026">
        <ele>1920.2</ele>
        <time>2021-01-16T11:15:18Z</time>
      </trkpt>
      <trkpt lat="45.30521" lon="6.05026">
        <ele>1920.2</ele>
        <time>2021-01-16T11:15:19Z</time>
      </trkpt>
      <trkpt lat="45.30521" lon="6.05026">
        <ele>1920.2</ele>
        <time>2021-01-16T11:15:20Z</time>
      </trkpt>
      <trkpt lat="45.3052" lon="6.05026">
        <ele>1920.2</ele>
        <time>2021-01-16T11:15:21Z</time>
      </trkpt>
      <trkpt lat="45.30512" lon="6.05023">
        <ele>1920.2</ele>
        <time>2021-01-16T11:15:22Z</time>
      </trkpt>
      <trkpt lat="45.3051" lon="6.05023">
        <ele>1920.2</ele>
        <time>2021-01-16T11:15:23Z</time>
      </trkpt>
      <trkpt lat="45.3051" lon="6.05023">
        <ele>1920.2</ele>
        <time>2021-01-16T11:15:24Z</time>
      </trkpt>
      <trkpt lat="45.30509" lon="6.05022">
        <ele>1920.4</ele>
        <time>2021-01-16T11:15:25Z</time>
      </trkpt>
      <trkpt lat="45.30508" lon="6.05022">
        <ele>1920.4</ele>
        <time>2021-01-16T11:15:26Z</time>
      </trkpt>
      <trkpt lat="45.30507" lon="6.05022">
        <ele>1920.4</ele>
        <time>2021-01-16T11:15:27Z</time>
      </trkpt>
      <trkpt lat="45.30507" lon="6.05022">
        <ele>1920.4</ele>
        <time>2021-01-16T11:15:28Z</time>
      </trkpt>
      <trkpt lat="45.30506" lon="6.05022">
        <ele>1920.4</ele>
        <time>2021-01-16T11:15:29Z</time>
      </trkpt>
      <trkpt lat="45.30505" lon="6.05022">
        <ele>1920.6</ele>
        <time>2021-01-16T11:15:30Z</time>
      </trkpt>
      <trkpt lat="45.30505" lon="6.05022">
        <ele>1920.6</ele>
        <time>2021-01-16T11:15:31Z</time>
      </trkpt>
      <trkpt lat="45.30504" lon="6.05022">
        <ele>1920.8</ele>
        <time>2021-01-16T11:15:32Z</time>
      </trkpt>
      <trkpt lat="45.30503" lon="6.05022">
        <ele>1920.8</ele>
        <time>2021-01-16T11:15:33Z</time>
      </trkpt>
      <trkpt lat="45.30503" lon="6.05021">
        <ele>1921</ele>
        <time>2021-01-16T11:15:34Z</time>
      </trkpt>
      <trkpt lat="45.30502" lon="6.05021">
        <ele>1921</ele>
        <time>2021-01-16T11:15:35Z</time>
      </trkpt>
      <trkpt lat="45.30501" lon="6.05021">
        <ele>1921.2</ele>
        <time>2021-01-16T11:15:36Z</time>
      </trkpt>
      <trkpt lat="45.30501" lon="6.05021">
        <ele>1921.2</ele>
        <time>2021-01-16T11:15:37Z</time>
      </trkpt>
      <trkpt lat="45.305" lon="6.05021">
        <ele>1921.4</ele>
        <time>2021-01-16T11:15:38Z</time>
      </trkpt>
      <trkpt lat="45.30499" lon="6.05021">
        <ele>1921.4</ele>
        <time>2021-01-16T11:15:39Z</time>
      </trkpt>
      <trkpt lat="45.30499" lon="6.05021">
        <ele>1921.6</ele>
        <time>2021-01-16T11:15:40Z</time>
      </trkpt>
      <trkpt lat="45.30498" lon="6.05021">
        <ele>1921.8</ele>
        <time>2021-01-16T11:15:41Z</time>
      </trkpt>
      <trkpt lat="45.30497" lon="6.05021">
        <ele>1921.8</ele>
        <time>2021-01-16T11:15:42Z</time>
      </trkpt>
      <trkpt lat="45.30496" lon="6.0502">
        <ele>1922</ele>
        <time>2021-01-16T11:15:43Z</time>
      </trkpt>
      <trkpt lat="45.30496" lon="6.0502">
        <ele>1922.2</ele>
        <time>2021-01-16T11:15:44Z</time>
      </trkpt>
      <trkpt lat="45.30495" lon="6.0502">
        <ele>1922.4</ele>
        <time>2021-01-16T11:15:45Z</time>
      </trkpt>
      <trkpt lat="45.30494" lon="6.0502">
        <ele>1922.4</ele>
        <time>2021-01-16T11:15:46Z</time>
      </trkpt>
      <trkpt lat="45.30494" lon="6.0502">
        <ele>1922.6</ele>
        <time>2021-01-16T11:15:47Z</time>
      </trkpt>
      <trkpt lat="45.30493" lon="6.0502">
        <ele>1922.8</ele>
        <time>2021-01-16T11:15:48Z</time>
      </trkpt>
      <trkpt lat="45.30492" lon="6.0502">
        <ele>1922.8</ele>
        <time>2021-01-16T11:15:49Z</time>
      </trkpt>
      <trkpt lat="45.30492" lon="6.0502">
        <ele>1923</ele>
        <time>2021-01-16T11:15:50Z</time>
      </trkpt>
      <trkpt lat="45.30491" lon="6.0502">
        <ele>1923.2</ele>
        <time>2021-01-16T11:15:51Z</time>
      </trkpt>
      <trkpt lat="45.3049" lon="6.05019">
        <ele>1923.4</ele>
        <time>2021-01-16T11:15:52Z</time>
      </trkpt>
      <trkpt lat="45.3049" lon="6.05019">
        <ele>1923.6</ele>
        <time>2021-01-16T11:15:53Z</time>
      </trkpt>
      <trkpt lat="45.30489" lon="6.05019">
        <ele>1923.6</ele>
        <time>2021-01-16T11:15:54Z</time>
      </trkpt>
      <trkpt lat="45.30488" lon="6.05019">
        <ele>1923.8</ele>
        <time>2021-01-16T11:15:55Z</time>
      </trkpt>
      <trkpt lat="45.30487" lon="6.05019">
        <ele>1924</ele>
        <time>2021-01-16T11:15:56Z</time>
      </trkpt>
      <trkpt lat="45.30486" lon="6.05019">
        <ele>1924</ele>
        <time>2021-01-16T11:15:57Z</time>
      </trkpt>
      <trkpt lat="45.30486" lon="6.05019">
        <ele>1924.2</ele>
        <time>2021-01-16T11:15:58Z</time>
      </trkpt>
      <trkpt lat="45.30485" lon="6.05019">
        <ele>1924.4</ele>
        <time>2021-01-16T11:15:59Z</time>
      </trkpt>
      <trkpt lat="45.30484" lon="6.05019">
        <ele>1924.6</ele>
        <time>2021-01-16T11:16:00Z</time>
      </trkpt>
      <trkpt lat="45.30484" lon="6.05019">
        <ele>1924.6</ele>
        <time>2021-01-16T11:16:01Z</time>
      </trkpt>
      <trkpt lat="45.30483" lon="6.05018">
        <ele>1924.8</ele>
        <time>2021-01-16T11:16:02Z</time>
      </trkpt>
      <trkpt lat="45.30482" lon="6.05018">
        <ele>1924.8</ele>
        <time>2021-01-16T11:16:03Z</time>
      </trkpt>
      <trkpt lat="45.30482" lon="6.05018">
        <ele>1925.2</ele>
        <time>2021-01-16T11:16:04Z</time>
      </trkpt>
      <trkpt lat="45.30481" lon="6.05018">
        <ele>1925.2</ele>
        <time>2021-01-16T11:16:05Z</time>
      </trkpt>
      <trkpt lat="45.3048" lon="6.05018">
        <ele>1925.4</ele>
        <time>2021-01-16T11:16:06Z</time>
      </trkpt>
      <trkpt lat="45.3048" lon="6.05018">
        <ele>1925.6</ele>
        <time>2021-01-16T11:16:07Z</time>
      </trkpt>
      <trkpt lat="45.30479" lon="6.05018">
        <ele>1925.6</ele>
        <time>2021-01-16T11:16:08Z</time>
      </trkpt>
      <trkpt lat="45.30478" lon="6.05018">
        <ele>1925.8</ele>
        <time>2021-01-16T11:16:09Z</time>
      </trkpt>
      <trkpt lat="45.30478" lon="6.05018">
        <ele>1926</ele>
        <time>2021-01-16T11:16:10Z</time>
      </trkpt>
      <trkpt lat="45.30477" lon="6.05018">
        <ele>1926.2</ele>
        <time>2021-01-16T11:16:11Z</time>
      </trkpt>
      <trkpt lat="45.30476" lon="6.05018">
        <ele>1926.2</ele>
        <time>2021-01-16T11:16:12Z</time>
      </trkpt>
      <trkpt lat="45.30476" lon="6.05018">
        <ele>1926.4</ele>
        <time>2021-01-16T11:16:13Z</time>
      </trkpt>
      <trkpt lat="45.30476" lon="6.05018">
        <ele>1926.6</ele>
        <time>2021-01-16T11:16:14Z</time>
      </trkpt>
      <trkpt lat="45.30476" lon="6.05018">
        <ele>1926.8</ele>
        <time>2021-01-16T11:16:15Z</time>
      </trkpt>
      <trkpt lat="45.30476" lon="6.05018">
        <ele>1927</ele>
        <time>2021-01-16T11:16:16Z</time>
      </trkpt>
      <trkpt lat="45.30476" lon="6.05018">
        <ele>1927</ele>
        <time>2021-01-16T11:16:17Z</time>
      </trkpt>
      <trkpt lat="45.30476" lon="6.05018">
        <ele>1927.2</ele>
        <time>2021-01-16T11:16:18Z</time>
      </trkpt>
      <trkpt lat="45.30476" lon="6.05018">
        <ele>1927.4</ele>
        <time>2021-01-16T11:16:19Z</time>
      </trkpt>
      <trkpt lat="45.30476" lon="6.05018">
        <ele>1927.4</ele>
        <time>2021-01-16T11:16:20Z</time>
      </trkpt>
      <trkpt lat="45.30476" lon="6.05018">
        <ele>1927.6</ele>
        <time>2021-01-16T11:16:21Z</time>
      </trkpt>
      <trkpt lat="45.30476" lon="6.05018">
        <ele>1927.6</ele>
        <time>2021-01-16T11:16:22Z</time>
      </trkpt>
      <trkpt lat="45.30476" lon="6.05018">
        <ele>1927.8</ele>
        <time>2021-01-16T11:16:23Z</time>
      </trkpt>
      <trkpt lat="45.30476" lon="6.05018">
        <ele>1928</ele>
        <time>2021-01-16T11:16:24Z</time>
      </trkpt>
      <trkpt lat="45.30474" lon="6.05017">
        <ele>1928</ele>
        <time>2021-01-16T11:16:25Z</time>
      </trkpt>
      <trkpt lat="45.30466" lon="6.05017">
        <ele>1928.2</ele>
        <time>2021-01-16T11:16:26Z</time>
      </trkpt>
      <trkpt lat="45.30465" lon="6.05017">
        <ele>1928.4</ele>
        <time>2021-01-16T11:16:27Z</time>
      </trkpt>
      <trkpt lat="45.30464" lon="6.05016">
        <ele>1928.4</ele>
        <time>2021-01-16T11:16:28Z</time>
      </trkpt>
      <trkpt lat="45.30463" lon="6.05016">
        <ele>1928.6</ele>
        <time>2021-01-16T11:16:29Z</time>
      </trkpt>
      <trkpt lat="45.30463" lon="6.05016">
        <ele>1928.8</ele>
        <time>2021-01-16T11:16:30Z</time>
      </trkpt>
      <trkpt lat="45.30462" lon="6.05016">
        <ele>1928.8</ele>
        <time>2021-01-16T11:16:31Z</time>
      </trkpt>
      <trkpt lat="45.30461" lon="6.05016">
        <ele>1928.8</ele>
        <time>2021-01-16T11:16:32Z</time>
      </trkpt>
      <trkpt lat="45.30461" lon="6.05016">
        <ele>1929</ele>
        <time>2021-01-16T11:16:33Z</time>
      </trkpt>
      <trkpt lat="45.3046" lon="6.05015">
        <ele>1929</ele>
        <time>2021-01-16T11:16:34Z</time>
      </trkpt>
      <trkpt lat="45.30459" lon="6.05015">
        <ele>1929.2</ele>
        <time>2021-01-16T11:16:35Z</time>
      </trkpt>
      <trkpt lat="45.30458" lon="6.05015">
        <ele>1929.2</ele>
        <time>2021-01-16T11:16:36Z</time>
      </trkpt>
      <trkpt lat="45.30457" lon="6.05015">
        <ele>1929.4</ele>
        <time>2021-01-16T11:16:37Z</time>
      </trkpt>
      <trkpt lat="45.30456" lon="6.05015">
        <ele>1929.4</ele>
        <time>2021-01-16T11:16:38Z</time>
      </trkpt>
      <trkpt lat="45.30456" lon="6.05015">
        <ele>1929.6</ele>
        <time>2021-01-16T11:16:39Z</time>
      </trkpt>
      <trkpt lat="45.30455" lon="6.05015">
        <ele>1929.8</ele>
        <time>2021-01-16T11:16:40Z</time>
      </trkpt>
      <trkpt lat="45.30455" lon="6.05015">
        <ele>1929.8</ele>
        <time>2021-01-16T11:16:41Z</time>
      </trkpt>
      <trkpt lat="45.30454" lon="6.05015">
        <ele>1930</ele>
        <time>2021-01-16T11:16:42Z</time>
      </trkpt>
      <trkpt lat="45.30453" lon="6.05015">
        <ele>1930.2</ele>
        <time>2021-01-16T11:16:43Z</time>
      </trkpt>
      <trkpt lat="45.30453" lon="6.05015">
        <ele>1930.4</ele>
        <time>2021-01-16T11:16:44Z</time>
      </trkpt>
      <trkpt lat="45.30452" lon="6.05015">
        <ele>1930.6</ele>
        <time>2021-01-16T11:16:45Z</time>
      </trkpt>
      <trkpt lat="45.30452" lon="6.05015">
        <ele>1930.6</ele>
        <time>2021-01-16T11:16:46Z</time>
      </trkpt>
      <trkpt lat="45.30451" lon="6.05015">
        <ele>1930.8</ele>
        <time>2021-01-16T11:16:47Z</time>
      </trkpt>
      <trkpt lat="45.3045" lon="6.05015">
        <ele>1931</ele>
        <time>2021-01-16T11:16:48Z</time>
      </trkpt>
      <trkpt lat="45.3045" lon="6.05014">
        <ele>1931.2</ele>
        <time>2021-01-16T11:16:49Z</time>
      </trkpt>
      <trkpt lat="45.30449" lon="6.05014">
        <ele>1931.2</ele>
        <time>2021-01-16T11:16:50Z</time>
      </trkpt>
      <trkpt lat="45.30449" lon="6.05014">
        <ele>1931.4</ele>
        <time>2021-01-16T11:16:51Z</time>
      </trkpt>
      <trkpt lat="45.30448" lon="6.05014">
        <ele>1931.6</ele>
        <time>2021-01-16T11:16:52Z</time>
      </trkpt>
      <trkpt lat="45.30448" lon="6.05014">
        <ele>1931.8</ele>
        <time>2021-01-16T11:16:53Z</time>
      </trkpt>
      <trkpt lat="45.30447" lon="6.05014">
        <ele>1932</ele>
        <time>2021-01-16T11:16:54Z</time>
      </trkpt>
      <trkpt lat="45.30446" lon="6.05014">
        <ele>1932</ele>
        <time>2021-01-16T11:16:55Z</time>
      </trkpt>
      <trkpt lat="45.30445" lon="6.05014">
        <ele>1932.2</ele>
        <time>2021-01-16T11:16:56Z</time>
      </trkpt>
      <trkpt lat="45.30445" lon="6.05014">
        <ele>1932.2</ele>
        <time>2021-01-16T11:16:57Z</time>
      </trkpt>
      <trkpt lat="45.30445" lon="6.05014">
        <ele>1932.4</ele>
        <time>2021-01-16T11:16:58Z</time>
      </trkpt>
      <trkpt lat="45.30445" lon="6.05014">
        <ele>1932.6</ele>
        <time>2021-01-16T11:16:59Z</time>
      </trkpt>
      <trkpt lat="45.30445" lon="6.05014">
        <ele>1932.8</ele>
        <time>2021-01-16T11:17:00Z</time>
      </trkpt>
      <trkpt lat="45.30445" lon="6.05014">
        <ele>1932.8</ele>
        <time>2021-01-16T11:17:01Z</time>
      </trkpt>
      <trkpt lat="45.30445" lon="6.05014">
        <ele>1933</ele>
        <time>2021-01-16T11:17:02Z</time>
      </trkpt>
      <trkpt lat="45.30445" lon="6.05014">
        <ele>1933</ele>
        <time>2021-01-16T11:17:03Z</time>
      </trkpt>
      <trkpt lat="45.30445" lon="6.05014">
        <ele>1933.2</ele>
        <time>2021-01-16T11:17:04Z</time>
      </trkpt>
      <trkpt lat="45.30445" lon="6.05014">
        <ele>1933.2</ele>
        <time>2021-01-16T11:17:05Z</time>
      </trkpt>
      <trkpt lat="45.30445" lon="6.05014">
        <ele>1933.4</ele>
        <time>2021-01-16T11:17:06Z</time>
      </trkpt>
      <trkpt lat="45.30445" lon="6.05014">
        <ele>1933.4</ele>
        <time>2021-01-16T11:17:07Z</time>
      </trkpt>
      <trkpt lat="45.30445" lon="6.05014">
        <ele>1933.6</ele>
        <time>2021-01-16T11:17:08Z</time>
      </trkpt>
      <trkpt lat="45.30445" lon="6.05014">
        <ele>1933.6</ele>
        <time>2021-01-16T11:17:09Z</time>
      </trkpt>
      <trkpt lat="45.30445" lon="6.05014">
        <ele>1933.8</ele>
        <time>2021-01-16T11:17:10Z</time>
      </trkpt>
      <trkpt lat="45.30443" lon="6.05014">
        <ele>1933.8</ele>
        <time>2021-01-16T11:17:11Z</time>
      </trkpt>
      <trkpt lat="45.30435" lon="6.05012">
        <ele>1933.8</ele>
        <time>2021-01-16T11:17:12Z</time>
      </trkpt>
      <trkpt lat="45.30435" lon="6.05012">
        <ele>1934</ele>
        <time>2021-01-16T11:17:13Z</time>
      </trkpt>
      <trkpt lat="45.30434" lon="6.05012">
        <ele>1934</ele>
        <time>2021-01-16T11:17:14Z</time>
      </trkpt>
      <trkpt lat="45.30433" lon="6.05012">
        <ele>1934.2</ele>
        <time>2021-01-16T11:17:15Z</time>
      </trkpt>
      <trkpt lat="45.30433" lon="6.05012">
        <ele>1934.2</ele>
        <time>2021-01-16T11:17:16Z</time>
      </trkpt>
      <trkpt lat="45.30433" lon="6.05012">
        <ele>1934.2</ele>
        <time>2021-01-16T11:17:17Z</time>
      </trkpt>
      <trkpt lat="45.30433" lon="6.05012">
        <ele>1934.4</ele>
        <time>2021-01-16T11:17:18Z</time>
      </trkpt>
      <trkpt lat="45.30433" lon="6.05012">
        <ele>1934.4</ele>
        <time>2021-01-16T11:17:19Z</time>
      </trkpt>
      <trkpt lat="45.30433" lon="6.05012">
        <ele>1934.4</ele>
        <time>2021-01-16T11:17:20Z</time>
      </trkpt>
      <trkpt lat="45.30433" lon="6.05012">
        <ele>1934.4</ele>
        <time>2021-01-16T11:17:21Z</time>
      </trkpt>
      <trkpt lat="45.30433" lon="6.05012">
        <ele>1934.6</ele>
        <time>2021-01-16T11:17:22Z</time>
      </trkpt>
      <trkpt lat="45.30433" lon="6.05012">
        <ele>1934.6</ele>
        <time>2021-01-16T11:17:23Z</time>
      </trkpt>
      <trkpt lat="45.30433" lon="6.05012">
        <ele>1934.8</ele>
        <time>2021-01-16T11:17:24Z</time>
      </trkpt>
      <trkpt lat="45.30433" lon="6.05012">
        <ele>1935</ele>
        <time>2021-01-16T11:17:25Z</time>
      </trkpt>
      <trkpt lat="45.30433" lon="6.05012">
        <ele>1935</ele>
        <time>2021-01-16T11:17:26Z</time>
      </trkpt>
      <trkpt lat="45.30432" lon="6.05012">
        <ele>1935.2</ele>
        <time>2021-01-16T11:17:27Z</time>
      </trkpt>
      <trkpt lat="45.30424" lon="6.05012">
        <ele>1935.2</ele>
        <time>2021-01-16T11:17:28Z</time>
      </trkpt>
      <trkpt lat="45.30423" lon="6.05012">
        <ele>1935.4</ele>
        <time>2021-01-16T11:17:29Z</time>
      </trkpt>
      <trkpt lat="45.30422" lon="6.05012">
        <ele>1935.4</ele>
        <time>2021-01-16T11:17:30Z</time>
      </trkpt>
      <trkpt lat="45.30422" lon="6.05013">
        <ele>1935.6</ele>
        <time>2021-01-16T11:17:31Z</time>
      </trkpt>
      <trkpt lat="45.30422" lon="6.05013">
        <ele>1935.6</ele>
        <time>2021-01-16T11:17:32Z</time>
      </trkpt>
      <trkpt lat="45.30422" lon="6.05013">
        <ele>1935.6</ele>
        <time>2021-01-16T11:17:33Z</time>
      </trkpt>
      <trkpt lat="45.30422" lon="6.05013">
        <ele>1935.8</ele>
        <time>2021-01-16T11:17:34Z</time>
      </trkpt>
      <trkpt lat="45.30422" lon="6.05013">
        <ele>1935.8</ele>
        <time>2021-01-16T11:17:35Z</time>
      </trkpt>
      <trkpt lat="45.30422" lon="6.05013">
        <ele>1935.8</ele>
        <time>2021-01-16T11:17:36Z</time>
      </trkpt>
      <trkpt lat="45.30422" lon="6.05013">
        <ele>1935.8</ele>
        <time>2021-01-16T11:17:37Z</time>
      </trkpt>
      <trkpt lat="45.30422" lon="6.05013">
        <ele>1935.8</ele>
        <time>2021-01-16T11:17:38Z</time>
      </trkpt>
      <trkpt lat="45.30422" lon="6.05013">
        <ele>1936</ele>
        <time>2021-01-16T11:17:39Z</time>
      </trkpt>
      <trkpt lat="45.30422" lon="6.05013">
        <ele>1936</ele>
        <time>2021-01-16T11:17:40Z</time>
      </trkpt>
      <trkpt lat="45.30422" lon="6.05013">
        <ele>1936</ele>
        <time>2021-01-16T11:17:41Z</time>
      </trkpt>
      <trkpt lat="45.30422" lon="6.05013">
        <ele>1936</ele>
        <time>2021-01-16T11:17:42Z</time>
      </trkpt>
      <trkpt lat="45.30422" lon="6.05013">
        <ele>1935.8</ele>
        <time>2021-01-16T11:17:43Z</time>
      </trkpt>
      <trkpt lat="45.30422" lon="6.05013">
        <ele>1935.8</ele>
        <time>2021-01-16T11:17:44Z</time>
      </trkpt>
      <trkpt lat="45.30422" lon="6.05013">
        <ele>1935.8</ele>
        <time>2021-01-16T11:17:45Z</time>
      </trkpt>
      <trkpt lat="45.30422" lon="6.05013">
        <ele>1936</ele>
        <time>2021-01-16T11:17:46Z</time>
      </trkpt>
      <trkpt lat="45.30422" lon="6.05013">
        <ele>1935.8</ele>
        <time>2021-01-16T11:17:47Z</time>
      </trkpt>
      <trkpt lat="45.30422" lon="6.05013">
        <ele>1935.8</ele>
        <time>2021-01-16T11:17:48Z</time>
      </trkpt>
      <trkpt lat="45.30422" lon="6.05013">
        <ele>1935.8</ele>
        <time>2021-01-16T11:17:49Z</time>
      </trkpt>
      <trkpt lat="45.30422" lon="6.05013">
        <ele>1935.8</ele>
        <time>2021-01-16T11:17:50Z</time>
      </trkpt>
      <trkpt lat="45.30422" lon="6.05013">
        <ele>1935.8</ele>
        <time>2021-01-16T11:17:51Z</time>
      </trkpt>
      <trkpt lat="45.30422" lon="6.05013">
        <ele>1935.8</ele>
        <time>2021-01-16T11:17:52Z</time>
      </trkpt>
      <trkpt lat="45.30422" lon="6.05013">
        <ele>1935.8</ele>
        <time>2021-01-16T11:17:53Z</time>
      </trkpt>
      <trkpt lat="45.30422" lon="6.05013">
        <ele>1935.8</ele>
        <time>2021-01-16T11:17:54Z</time>
      </trkpt>
      <trkpt lat="45.30422" lon="6.05013">
        <ele>1936</ele>
        <time>2021-01-16T11:17:55Z</time>
      </trkpt>
      <trkpt lat="45.30422" lon="6.05013">
        <ele>1936</ele>
        <time>2021-01-16T11:17:56Z</time>
      </trkpt>
      <trkpt lat="45.30422" lon="6.05013">
        <ele>1936</ele>
        <time>2021-01-16T11:17:57Z</time>
      </trkpt>
      <trkpt lat="45.30422" lon="6.05013">
        <ele>1936</ele>
        <time>2021-01-16T11:17:58Z</time>
      </trkpt>
      <trkpt lat="45.30422" lon="6.05013">
        <ele>1936</ele>
        <time>2021-01-16T11:17:59Z</time>
      </trkpt>
      <trkpt lat="45.30422" lon="6.05013">
        <ele>1936</ele>
        <time>2021-01-16T11:18:00Z</time>
      </trkpt>
      <trkpt lat="45.30422" lon="6.05013">
        <ele>1936</ele>
        <time>2021-01-16T11:18:01Z</time>
      </trkpt>
      <trkpt lat="45.30422" lon="6.05013">
        <ele>1936</ele>
        <time>2021-01-16T11:18:02Z</time>
      </trkpt>
      <trkpt lat="45.30422" lon="6.05013">
        <ele>1936</ele>
        <time>2021-01-16T11:18:03Z</time>
      </trkpt>
      <trkpt lat="45.30422" lon="6.05013">
        <ele>1936</ele>
        <time>2021-01-16T11:18:04Z</time>
      </trkpt>
      <trkpt lat="45.30422" lon="6.05013">
        <ele>1936</ele>
        <time>2021-01-16T11:18:05Z</time>
      </trkpt>
      <trkpt lat="45.30422" lon="6.05013">
        <ele>1935.8</ele>
        <time>2021-01-16T11:18:06Z</time>
      </trkpt>
      <trkpt lat="45.30422" lon="6.05013">
        <ele>1935.8</ele>
        <time>2021-01-16T11:18:07Z</time>
      </trkpt>
      <trkpt lat="45.30422" lon="6.05013">
        <ele>1935.8</ele>
        <time>2021-01-16T11:18:08Z</time>
      </trkpt>
      <trkpt lat="45.30422" lon="6.05013">
        <ele>1935.8</ele>
        <time>2021-01-16T11:18:09Z</time>
      </trkpt>
      <trkpt lat="45.30422" lon="6.05013">
        <ele>1935.8</ele>
        <time>2021-01-16T11:18:10Z</time>
      </trkpt>
      <trkpt lat="45.30422" lon="6.05013">
        <ele>1935.8</ele>
        <time>2021-01-16T11:18:11Z</time>
      </trkpt>
      <trkpt lat="45.30422" lon="6.05013">
        <ele>1935.8</ele>
        <time>2021-01-16T11:18:12Z</time>
      </trkpt>
      <trkpt lat="45.30422" lon="6.05013">
        <ele>1935.6</ele>
        <time>2021-01-16T11:18:13Z</time>
      </trkpt>
      <trkpt lat="45.30422" lon="6.05013">
        <ele>1935.6</ele>
        <time>2021-01-16T11:18:14Z</time>
      </trkpt>
      <trkpt lat="45.30422" lon="6.05013">
        <ele>1935.6</ele>
        <time>2021-01-16T11:18:15Z</time>
      </trkpt>
      <trkpt lat="45.30422" lon="6.05013">
        <ele>1935.8</ele>
        <time>2021-01-16T11:18:16Z</time>
      </trkpt>
      <trkpt lat="45.30422" lon="6.05013">
        <ele>1935.6</ele>
        <time>2021-01-16T11:18:17Z</time>
      </trkpt>
      <trkpt lat="45.30422" lon="6.05013">
        <ele>1935.6</ele>
        <time>2021-01-16T11:18:18Z</time>
      </trkpt>
      <trkpt lat="45.30422" lon="6.05013">
        <ele>1935.6</ele>
        <time>2021-01-16T11:18:19Z</time>
      </trkpt>
      <trkpt lat="45.30422" lon="6.05013">
        <ele>1935.6</ele>
        <time>2021-01-16T11:18:20Z</time>
      </trkpt>
      <trkpt lat="45.30422" lon="6.05013">
        <ele>1935.6</ele>
        <time>2021-01-16T11:18:21Z</time>
      </trkpt>
      <trkpt lat="45.30422" lon="6.05013">
        <ele>1935.6</ele>
        <time>2021-01-16T11:18:22Z</time>
      </trkpt>
      <trkpt lat="45.30422" lon="6.05013">
        <ele>1935.6</ele>
        <time>2021-01-16T11:18:23Z</time>
      </trkpt>
      <trkpt lat="45.30422" lon="6.05013">
        <ele>1935.6</ele>
        <time>2021-01-16T11:18:24Z</time>
      </trkpt>
      <trkpt lat="45.30422" lon="6.05013">
        <ele>1935.6</ele>
        <time>2021-01-16T11:18:25Z</time>
      </trkpt>
      <trkpt lat="45.30422" lon="6.05013">
        <ele>1935.6</ele>
        <time>2021-01-16T11:18:26Z</time>
      </trkpt>
      <trkpt lat="45.30422" lon="6.05013">
        <ele>1935.6</ele>
        <time>2021-01-16T11:18:27Z</time>
      </trkpt>
      <trkpt lat="45.30422" lon="6.05013">
        <ele>1935.6</ele>
        <time>2021-01-16T11:18:28Z</time>
      </trkpt>
      <trkpt lat="45.30422" lon="6.05013">
        <ele>1935.6</ele>
        <time>2021-01-16T11:18:29Z</time>
      </trkpt>
      <trkpt lat="45.30422" lon="6.05013">
        <ele>1935.6</ele>
        <time>2021-01-16T11:18:30Z</time>
      </trkpt>
      <trkpt lat="45.30422" lon="6.05013">
        <ele>1935.6</ele>
        <time>2021-01-16T11:18:31Z</time>
      </trkpt>
      <trkpt lat="45.30422" lon="6.05013">
        <ele>1935.6</ele>
        <time>2021-01-16T11:18:32Z</time>
      </trkpt>
      <trkpt lat="45.30422" lon="6.05013">
        <ele>1935.6</ele>
        <time>2021-01-16T11:18:33Z</time>
      </trkpt>
      <trkpt lat="45.30422" lon="6.05013">
        <ele>1935.6</ele>
        <time>2021-01-16T11:18:34Z</time>
      </trkpt>
      <trkpt lat="45.30422" lon="6.05013">
        <ele>1935.4</ele>
        <time>2021-01-16T11:18:35Z</time>
      </trkpt>
      <trkpt lat="45.30422" lon="6.05013">
        <ele>1935.6</ele>
        <time>2021-01-16T11:18:36Z</time>
      </trkpt>
      <trkpt lat="45.30422" lon="6.05013">
        <ele>1935.6</ele>
        <time>2021-01-16T11:18:37Z</time>
      </trkpt>
      <trkpt lat="45.30422" lon="6.05013">
        <ele>1935.6</ele>
        <time>2021-01-16T11:18:38Z</time>
      </trkpt>
      <trkpt lat="45.30422" lon="6.05013">
        <ele>1935.6</ele>
        <time>2021-01-16T11:18:39Z</time>
      </trkpt>
      <trkpt lat="45.30422" lon="6.05013">
        <ele>1935.6</ele>
        <time>2021-01-16T11:18:40Z</time>
      </trkpt>
      <trkpt lat="45.30422" lon="6.05013">
        <ele>1935.6</ele>
        <time>2021-01-16T11:18:41Z</time>
      </trkpt>
      <trkpt lat="45.30422" lon="6.05013">
        <ele>1935.6</ele>
        <time>2021-01-16T11:18:42Z</time>
      </trkpt>
      <trkpt lat="45.30422" lon="6.05013">
        <ele>1935.6</ele>
        <time>2021-01-16T11:18:43Z</time>
      </trkpt>
      <trkpt lat="45.30422" lon="6.05013">
        <ele>1935.6</ele>
        <time>2021-01-16T11:18:44Z</time>
      </trkpt>
      <trkpt lat="45.30422" lon="6.05013">
        <ele>1935.6</ele>
        <time>2021-01-16T11:18:45Z</time>
      </trkpt>
      <trkpt lat="45.30422" lon="6.05013">
        <ele>1935.6</ele>
        <time>2021-01-16T11:18:46Z</time>
      </trkpt>
      <trkpt lat="45.30422" lon="6.05013">
        <ele>1935.6</ele>
        <time>2021-01-16T11:18:47Z</time>
      </trkpt>
      <trkpt lat="45.30422" lon="6.05013">
        <ele>1935.6</ele>
        <time>2021-01-16T11:18:48Z</time>
      </trkpt>
      <trkpt lat="45.30422" lon="6.05013">
        <ele>1935.6</ele>
        <time>2021-01-16T11:18:49Z</time>
      </trkpt>
      <trkpt lat="45.30422" lon="6.05013">
        <ele>1935.6</ele>
        <time>2021-01-16T11:18:50Z</time>
      </trkpt>
      <trkpt lat="45.30422" lon="6.05013">
        <ele>1935.6</ele>
        <time>2021-01-16T11:18:51Z</time>
      </trkpt>
      <trkpt lat="45.30422" lon="6.05013">
        <ele>1935.6</ele>
        <time>2021-01-16T11:18:52Z</time>
      </trkpt>
      <trkpt lat="45.30422" lon="6.05013">
        <ele>1935.6</ele>
        <time>2021-01-16T11:18:53Z</time>
      </trkpt>
      <trkpt lat="45.30422" lon="6.05013">
        <ele>1935.6</ele>
        <time>2021-01-16T11:18:54Z</time>
      </trkpt>
      <trkpt lat="45.30422" lon="6.05013">
        <ele>1935.6</ele>
        <time>2021-01-16T11:18:55Z</time>
      </trkpt>
      <trkpt lat="45.30422" lon="6.05013">
        <ele>1935.6</ele>
        <time>2021-01-16T11:18:56Z</time>
      </trkpt>
      <trkpt lat="45.30422" lon="6.05013">
        <ele>1935.6</ele>
        <time>2021-01-16T11:18:57Z</time>
      </trkpt>
      <trkpt lat="45.30422" lon="6.05013">
        <ele>1935.6</ele>
        <time>2021-01-16T11:18:58Z</time>
      </trkpt>
      <trkpt lat="45.30422" lon="6.05013">
        <ele>1935.6</ele>
        <time>2021-01-16T11:18:59Z</time>
      </trkpt>
      <trkpt lat="45.30422" lon="6.05013">
        <ele>1935.6</ele>
        <time>2021-01-16T11:19:00Z</time>
      </trkpt>
      <trkpt lat="45.30422" lon="6.05013">
        <ele>1935.4</ele>
        <time>2021-01-16T11:19:01Z</time>
      </trkpt>
      <trkpt lat="45.30422" lon="6.05013">
        <ele>1935.4</ele>
        <time>2021-01-16T11:19:02Z</time>
      </trkpt>
      <trkpt lat="45.30422" lon="6.05013">
        <ele>1935.4</ele>
        <time>2021-01-16T11:19:03Z</time>
      </trkpt>
      <trkpt lat="45.30422" lon="6.05013">
        <ele>1935.4</ele>
        <time>2021-01-16T11:19:04Z</time>
      </trkpt>
      <trkpt lat="45.30422" lon="6.05013">
        <ele>1935.4</ele>
        <time>2021-01-16T11:19:05Z</time>
      </trkpt>
      <trkpt lat="45.30422" lon="6.05013">
        <ele>1935.4</ele>
        <time>2021-01-16T11:19:06Z</time>
      </trkpt>
      <trkpt lat="45.30422" lon="6.05013">
        <ele>1935.4</ele>
        <time>2021-01-16T11:19:07Z</time>
      </trkpt>
      <trkpt lat="45.30422" lon="6.05013">
        <ele>1935.4</ele>
        <time>2021-01-16T11:19:08Z</time>
      </trkpt>
      <trkpt lat="45.30422" lon="6.05013">
        <ele>1935.4</ele>
        <time>2021-01-16T11:19:09Z</time>
      </trkpt>
      <trkpt lat="45.30422" lon="6.05013">
        <ele>1935.4</ele>
        <time>2021-01-16T11:19:10Z</time>
      </trkpt>
      <trkpt lat="45.30422" lon="6.05013">
        <ele>1935.4</ele>
        <time>2021-01-16T11:19:11Z</time>
      </trkpt>
      <trkpt lat="45.30422" lon="6.05013">
        <ele>1935.6</ele>
        <time>2021-01-16T11:19:12Z</time>
      </trkpt>
      <trkpt lat="45.30422" lon="6.05013">
        <ele>1935.6</ele>
        <time>2021-01-16T11:19:13Z</time>
      </trkpt>
      <trkpt lat="45.30422" lon="6.05013">
        <ele>1935.4</ele>
        <time>2021-01-16T11:19:14Z</time>
      </trkpt>
      <trkpt lat="45.30422" lon="6.05013">
        <ele>1935.4</ele>
        <time>2021-01-16T11:19:15Z</time>
      </trkpt>
      <trkpt lat="45.30422" lon="6.05013">
        <ele>1935.4</ele>
        <time>2021-01-16T11:19:16Z</time>
      </trkpt>
      <trkpt lat="45.30422" lon="6.05013">
        <ele>1935.4</ele>
        <time>2021-01-16T11:19:17Z</time>
      </trkpt>
      <trkpt lat="45.30422" lon="6.05013">
        <ele>1935.4</ele>
        <time>2021-01-16T11:19:18Z</time>
      </trkpt>
      <trkpt lat="45.30422" lon="6.05013">
        <ele>1935.6</ele>
        <time>2021-01-16T11:19:19Z</time>
      </trkpt>
      <trkpt lat="45.30422" lon="6.05013">
        <ele>1935.6</ele>
        <time>2021-01-16T11:19:20Z</time>
      </trkpt>
      <trkpt lat="45.30422" lon="6.05013">
        <ele>1935.6</ele>
        <time>2021-01-16T11:19:21Z</time>
      </trkpt>
      <trkpt lat="45.30422" lon="6.05013">
        <ele>1935.4</ele>
        <time>2021-01-16T11:19:22Z</time>
      </trkpt>
      <trkpt lat="45.30422" lon="6.05013">
        <ele>1935.4</ele>
        <time>2021-01-16T11:19:23Z</time>
      </trkpt>
      <trkpt lat="45.30422" lon="6.05013">
        <ele>1935.4</ele>
        <time>2021-01-16T11:19:24Z</time>
      </trkpt>
      <trkpt lat="45.30422" lon="6.05013">
        <ele>1935.4</ele>
        <time>2021-01-16T11:19:25Z</time>
      </trkpt>
      <trkpt lat="45.30422" lon="6.05013">
        <ele>1935.4</ele>
        <time>2021-01-16T11:19:26Z</time>
      </trkpt>
      <trkpt lat="45.30422" lon="6.05013">
        <ele>1935.4</ele>
        <time>2021-01-16T11:19:27Z</time>
      </trkpt>
      <trkpt lat="45.30422" lon="6.05013">
        <ele>1935.4</ele>
        <time>2021-01-16T11:19:28Z</time>
      </trkpt>
      <trkpt lat="45.30422" lon="6.05013">
        <ele>1935.4</ele>
        <time>2021-01-16T11:19:29Z</time>
      </trkpt>
      <trkpt lat="45.30422" lon="6.05013">
        <ele>1935.4</ele>
        <time>2021-01-16T11:19:30Z</time>
      </trkpt>
      <trkpt lat="45.30422" lon="6.05013">
        <ele>1935.4</ele>
        <time>2021-01-16T11:19:31Z</time>
      </trkpt>
      <trkpt lat="45.30422" lon="6.05013">
        <ele>1935.4</ele>
        <time>2021-01-16T11:19:32Z</time>
      </trkpt>
      <trkpt lat="45.30422" lon="6.05013">
        <ele>1935.4</ele>
        <time>2021-01-16T11:19:33Z</time>
      </trkpt>
      <trkpt lat="45.30422" lon="6.05013">
        <ele>1935.4</ele>
        <time>2021-01-16T11:19:34Z</time>
      </trkpt>
      <trkpt lat="45.30422" lon="6.05013">
        <ele>1935.4</ele>
        <time>2021-01-16T11:19:35Z</time>
      </trkpt>
      <trkpt lat="45.30422" lon="6.05013">
        <ele>1935.4</ele>
        <time>2021-01-16T11:19:36Z</time>
      </trkpt>
      <trkpt lat="45.30422" lon="6.05013">
        <ele>1935.4</ele>
        <time>2021-01-16T11:19:37Z</time>
      </trkpt>
      <trkpt lat="45.30422" lon="6.05013">
        <ele>1935.4</ele>
        <time>2021-01-16T11:19:38Z</time>
      </trkpt>
      <trkpt lat="45.30422" lon="6.05013">
        <ele>1935.4</ele>
        <time>2021-01-16T11:19:39Z</time>
      </trkpt>
      <trkpt lat="45.30422" lon="6.05013">
        <ele>1935.4</ele>
        <time>2021-01-16T11:19:40Z</time>
      </trkpt>
      <trkpt lat="45.30422" lon="6.05013">
        <ele>1935.4</ele>
        <time>2021-01-16T11:19:41Z</time>
      </trkpt>
      <trkpt lat="45.30422" lon="6.05013">
        <ele>1935.4</ele>
        <time>2021-01-16T11:19:42Z</time>
      </trkpt>
      <trkpt lat="45.30422" lon="6.05013">
        <ele>1935.4</ele>
        <time>2021-01-16T11:19:43Z</time>
      </trkpt>
      <trkpt lat="45.30422" lon="6.05013">
        <ele>1935.4</ele>
        <time>2021-01-16T11:19:44Z</time>
      </trkpt>
      <trkpt lat="45.30422" lon="6.05013">
        <ele>1935.4</ele>
        <time>2021-01-16T11:19:45Z</time>
      </trkpt>
      <trkpt lat="45.30422" lon="6.05013">
        <ele>1935.4</ele>
        <time>2021-01-16T11:19:46Z</time>
      </trkpt>
      <trkpt lat="45.30422" lon="6.05013">
        <ele>1935.4</ele>
        <time>2021-01-16T11:19:47Z</time>
      </trkpt>
      <trkpt lat="45.30422" lon="6.05013">
        <ele>1935.4</ele>
        <time>2021-01-16T11:19:48Z</time>
      </trkpt>
      <trkpt lat="45.30422" lon="6.05013">
        <ele>1935.4</ele>
        <time>2021-01-16T11:19:49Z</time>
      </trkpt>
      <trkpt lat="45.30422" lon="6.05013">
        <ele>1935.4</ele>
        <time>2021-01-16T11:19:50Z</time>
      </trkpt>
      <trkpt lat="45.30422" lon="6.05013">
        <ele>1935.4</ele>
        <time>2021-01-16T11:19:51Z</time>
      </trkpt>
      <trkpt lat="45.30422" lon="6.05013">
        <ele>1935.4</ele>
        <time>2021-01-16T11:19:52Z</time>
      </trkpt>
      <trkpt lat="45.30422" lon="6.05013">
        <ele>1935.4</ele>
        <time>2021-01-16T11:19:53Z</time>
      </trkpt>
      <trkpt lat="45.30422" lon="6.05013">
        <ele>1935.4</ele>
        <time>2021-01-16T11:19:54Z</time>
      </trkpt>
      <trkpt lat="45.30422" lon="6.05013">
        <ele>1935.4</ele>
        <time>2021-01-16T11:19:55Z</time>
      </trkpt>
      <trkpt lat="45.30422" lon="6.05013">
        <ele>1935.4</ele>
        <time>2021-01-16T11:19:56Z</time>
      </trkpt>
      <trkpt lat="45.30422" lon="6.05013">
        <ele>1935.4</ele>
        <time>2021-01-16T11:19:57Z</time>
      </trkpt>
      <trkpt lat="45.30422" lon="6.05013">
        <ele>1935.4</ele>
        <time>2021-01-16T11:19:58Z</time>
      </trkpt>
      <trkpt lat="45.30422" lon="6.05013">
        <ele>1935.4</ele>
        <time>2021-01-16T11:19:59Z</time>
      </trkpt>
      <trkpt lat="45.30422" lon="6.05013">
        <ele>1935.4</ele>
        <time>2021-01-16T11:20:00Z</time>
      </trkpt>
      <trkpt lat="45.30422" lon="6.05013">
        <ele>1935.4</ele>
        <time>2021-01-16T11:20:01Z</time>
      </trkpt>
      <trkpt lat="45.30422" lon="6.05013">
        <ele>1935.4</ele>
        <time>2021-01-16T11:20:02Z</time>
      </trkpt>
      <trkpt lat="45.30422" lon="6.05013">
        <ele>1935.4</ele>
        <time>2021-01-16T11:20:03Z</time>
      </trkpt>
      <trkpt lat="45.30422" lon="6.05013">
        <ele>1935.4</ele>
        <time>2021-01-16T11:20:04Z</time>
      </trkpt>
      <trkpt lat="45.30422" lon="6.05013">
        <ele>1935.4</ele>
        <time>2021-01-16T11:20:05Z</time>
      </trkpt>
      <trkpt lat="45.30422" lon="6.05013">
        <ele>1935.4</ele>
        <time>2021-01-16T11:20:06Z</time>
      </trkpt>
      <trkpt lat="45.30422" lon="6.05013">
        <ele>1935.4</ele>
        <time>2021-01-16T11:20:07Z</time>
      </trkpt>
      <trkpt lat="45.30422" lon="6.05013">
        <ele>1935.4</ele>
        <time>2021-01-16T11:20:08Z</time>
      </trkpt>
      <trkpt lat="45.30422" lon="6.05013">
        <ele>1935.4</ele>
        <time>2021-01-16T11:20:09Z</time>
      </trkpt>
      <trkpt lat="45.30422" lon="6.05013">
        <ele>1935.4</ele>
        <time>2021-01-16T11:20:10Z</time>
      </trkpt>
      <trkpt lat="45.30422" lon="6.05013">
        <ele>1935.4</ele>
        <time>2021-01-16T11:20:11Z</time>
      </trkpt>
      <trkpt lat="45.30422" lon="6.05013">
        <ele>1935.4</ele>
        <time>2021-01-16T11:20:12Z</time>
      </trkpt>
      <trkpt lat="45.30422" lon="6.05013">
        <ele>1935.4</ele>
        <time>2021-01-16T11:20:13Z</time>
      </trkpt>
      <trkpt lat="45.30422" lon="6.05013">
        <ele>1935.4</ele>
        <time>2021-01-16T11:20:14Z</time>
      </trkpt>
      <trkpt lat="45.30422" lon="6.05013">
        <ele>1935.4</ele>
        <time>2021-01-16T11:20:15Z</time>
      </trkpt>
      <trkpt lat="45.30422" lon="6.05013">
        <ele>1935.4</ele>
        <time>2021-01-16T11:20:16Z</time>
      </trkpt>
      <trkpt lat="45.30422" lon="6.05013">
        <ele>1935.4</ele>
        <time>2021-01-16T11:20:17Z</time>
      </trkpt>
      <trkpt lat="45.30422" lon="6.05013">
        <ele>1935.4</ele>
        <time>2021-01-16T11:20:18Z</time>
      </trkpt>
      <trkpt lat="45.30422" lon="6.05013">
        <ele>1935.4</ele>
        <time>2021-01-16T11:20:19Z</time>
      </trkpt>
      <trkpt lat="45.30422" lon="6.05013">
        <ele>1935.4</ele>
        <time>2021-01-16T11:20:20Z</time>
      </trkpt>
      <trkpt lat="45.30422" lon="6.05013">
        <ele>1935.4</ele>
        <time>2021-01-16T11:20:21Z</time>
      </trkpt>
      <trkpt lat="45.30422" lon="6.05013">
        <ele>1935.4</ele>
        <time>2021-01-16T11:20:22Z</time>
      </trkpt>
      <trkpt lat="45.30422" lon="6.05013">
        <ele>1935.4</ele>
        <time>2021-01-16T11:20:23Z</time>
      </trkpt>
      <trkpt lat="45.30422" lon="6.05013">
        <ele>1935.4</ele>
        <time>2021-01-16T11:20:24Z</time>
      </trkpt>
      <trkpt lat="45.30422" lon="6.05013">
        <ele>1935.4</ele>
        <time>2021-01-16T11:20:25Z</time>
      </trkpt>
      <trkpt lat="45.30422" lon="6.05013">
        <ele>1935.4</ele>
        <time>2021-01-16T11:20:26Z</time>
      </trkpt>
      <trkpt lat="45.30422" lon="6.05013">
        <ele>1935.4</ele>
        <time>2021-01-16T11:20:27Z</time>
      </trkpt>
      <trkpt lat="45.30422" lon="6.05013">
        <ele>1935.4</ele>
        <time>2021-01-16T11:20:28Z</time>
      </trkpt>
      <trkpt lat="45.30422" lon="6.05013">
        <ele>1935.4</ele>
        <time>2021-01-16T11:20:29Z</time>
      </trkpt>
      <trkpt lat="45.30422" lon="6.05013">
        <ele>1935.4</ele>
        <time>2021-01-16T11:20:30Z</time>
      </trkpt>
      <trkpt lat="45.30422" lon="6.05013">
        <ele>1935.4</ele>
        <time>2021-01-16T11:20:31Z</time>
      </trkpt>
      <trkpt lat="45.30422" lon="6.05013">
        <ele>1935.4</ele>
        <time>2021-01-16T11:20:32Z</time>
      </trkpt>
      <trkpt lat="45.30422" lon="6.05013">
        <ele>1935.4</ele>
        <time>2021-01-16T11:20:33Z</time>
      </trkpt>
      <trkpt lat="45.30422" lon="6.05013">
        <ele>1935.4</ele>
        <time>2021-01-16T11:20:34Z</time>
      </trkpt>
      <trkpt lat="45.30422" lon="6.05013">
        <ele>1935.4</ele>
        <time>2021-01-16T11:20:35Z</time>
      </trkpt>
      <trkpt lat="45.30422" lon="6.05013">
        <ele>1935.4</ele>
        <time>2021-01-16T11:20:36Z</time>
      </trkpt>
      <trkpt lat="45.30422" lon="6.05013">
        <ele>1935.4</ele>
        <time>2021-01-16T11:20:37Z</time>
      </trkpt>
      <trkpt lat="45.30422" lon="6.05013">
        <ele>1935.4</ele>
        <time>2021-01-16T11:20:38Z</time>
      </trkpt>
      <trkpt lat="45.30422" lon="6.05013">
        <ele>1935.4</ele>
        <time>2021-01-16T11:20:39Z</time>
      </trkpt>
      <trkpt lat="45.30422" lon="6.05013">
        <ele>1935.4</ele>
        <time>2021-01-16T11:20:40Z</time>
      </trkpt>
      <trkpt lat="45.30422" lon="6.05013">
        <ele>1935.4</ele>
        <time>2021-01-16T11:20:41Z</time>
      </trkpt>
      <trkpt lat="45.30422" lon="6.05013">
        <ele>1935.4</ele>
        <time>2021-01-16T11:20:42Z</time>
      </trkpt>
      <trkpt lat="45.30422" lon="6.05013">
        <ele>1935.4</ele>
        <time>2021-01-16T11:20:43Z</time>
      </trkpt>
      <trkpt lat="45.30422" lon="6.05013">
        <ele>1935.4</ele>
        <time>2021-01-16T11:20:44Z</time>
      </trkpt>
      <trkpt lat="45.30422" lon="6.05013">
        <ele>1935.4</ele>
        <time>2021-01-16T11:20:45Z</time>
      </trkpt>
      <trkpt lat="45.30422" lon="6.05013">
        <ele>1935.4</ele>
        <time>2021-01-16T11:20:46Z</time>
      </trkpt>
      <trkpt lat="45.30422" lon="6.05013">
        <ele>1935.4</ele>
        <time>2021-01-16T11:20:47Z</time>
      </trkpt>
      <trkpt lat="45.30422" lon="6.05013">
        <ele>1935.4</ele>
        <time>2021-01-16T11:20:48Z</time>
      </trkpt>
      <trkpt lat="45.30422" lon="6.05013">
        <ele>1935.4</ele>
        <time>2021-01-16T11:20:49Z</time>
      </trkpt>
      <trkpt lat="45.30422" lon="6.05013">
        <ele>1935.4</ele>
        <time>2021-01-16T11:20:50Z</time>
      </trkpt>
      <trkpt lat="45.30422" lon="6.05013">
        <ele>1935.4</ele>
        <time>2021-01-16T11:20:51Z</time>
      </trkpt>
      <trkpt lat="45.30422" lon="6.05013">
        <ele>1935.4</ele>
        <time>2021-01-16T11:20:52Z</time>
      </trkpt>
      <trkpt lat="45.30422" lon="6.05013">
        <ele>1935.4</ele>
        <time>2021-01-16T11:20:53Z</time>
      </trkpt>
      <trkpt lat="45.30422" lon="6.05013">
        <ele>1935.4</ele>
        <time>2021-01-16T11:20:54Z</time>
      </trkpt>
      <trkpt lat="45.30422" lon="6.05013">
        <ele>1935.4</ele>
        <time>2021-01-16T11:20:55Z</time>
      </trkpt>
      <trkpt lat="45.30422" lon="6.05013">
        <ele>1935.4</ele>
        <time>2021-01-16T11:20:56Z</time>
      </trkpt>
      <trkpt lat="45.30422" lon="6.05013">
        <ele>1935.4</ele>
        <time>2021-01-16T11:20:57Z</time>
      </trkpt>
      <trkpt lat="45.30422" lon="6.05013">
        <ele>1935.4</ele>
        <time>2021-01-16T11:20:58Z</time>
      </trkpt>
      <trkpt lat="45.30422" lon="6.05013">
        <ele>1935.4</ele>
        <time>2021-01-16T11:20:59Z</time>
      </trkpt>
      <trkpt lat="45.30422" lon="6.05013">
        <ele>1935.4</ele>
        <time>2021-01-16T11:21:00Z</time>
      </trkpt>
      <trkpt lat="45.30422" lon="6.05013">
        <ele>1935.4</ele>
        <time>2021-01-16T11:21:01Z</time>
      </trkpt>
      <trkpt lat="45.30422" lon="6.05013">
        <ele>1935.4</ele>
        <time>2021-01-16T11:21:02Z</time>
      </trkpt>
      <trkpt lat="45.30422" lon="6.05013">
        <ele>1935.4</ele>
        <time>2021-01-16T11:21:03Z</time>
      </trkpt>
      <trkpt lat="45.30422" lon="6.05013">
        <ele>1935.4</ele>
        <time>2021-01-16T11:21:04Z</time>
      </trkpt>
      <trkpt lat="45.30422" lon="6.05013">
        <ele>1935.4</ele>
        <time>2021-01-16T11:21:05Z</time>
      </trkpt>
      <trkpt lat="45.30422" lon="6.05013">
        <ele>1935.4</ele>
        <time>2021-01-16T11:21:06Z</time>
      </trkpt>
      <trkpt lat="45.30422" lon="6.05013">
        <ele>1935.4</ele>
        <time>2021-01-16T11:21:07Z</time>
      </trkpt>
      <trkpt lat="45.30422" lon="6.05013">
        <ele>1935.4</ele>
        <time>2021-01-16T11:21:08Z</time>
      </trkpt>
      <trkpt lat="45.30422" lon="6.05013">
        <ele>1935.4</ele>
        <time>2021-01-16T11:21:09Z</time>
      </trkpt>
      <trkpt lat="45.30422" lon="6.05013">
        <ele>1935.4</ele>
        <time>2021-01-16T11:21:10Z</time>
      </trkpt>
      <trkpt lat="45.30422" lon="6.05013">
        <ele>1935.4</ele>
        <time>2021-01-16T11:21:11Z</time>
      </trkpt>
      <trkpt lat="45.30422" lon="6.05013">
        <ele>1935.4</ele>
        <time>2021-01-16T11:21:12Z</time>
      </trkpt>
      <trkpt lat="45.30422" lon="6.05013">
        <ele>1935.4</ele>
        <time>2021-01-16T11:21:13Z</time>
      </trkpt>
      <trkpt lat="45.30422" lon="6.05013">
        <ele>1935.4</ele>
        <time>2021-01-16T11:21:14Z</time>
      </trkpt>
      <trkpt lat="45.30422" lon="6.05013">
        <ele>1935.4</ele>
        <time>2021-01-16T11:21:15Z</time>
      </trkpt>
      <trkpt lat="45.30422" lon="6.05013">
        <ele>1935.4</ele>
        <time>2021-01-16T11:21:16Z</time>
      </trkpt>
      <trkpt lat="45.30422" lon="6.05013">
        <ele>1935.4</ele>
        <time>2021-01-16T11:21:17Z</time>
      </trkpt>
      <trkpt lat="45.30422" lon="6.05013">
        <ele>1935.4</ele>
        <time>2021-01-16T11:21:18Z</time>
      </trkpt>
      <trkpt lat="45.30422" lon="6.05013">
        <ele>1935.4</ele>
        <time>2021-01-16T11:21:19Z</time>
      </trkpt>
      <trkpt lat="45.30422" lon="6.05013">
        <ele>1935.4</ele>
        <time>2021-01-16T11:21:20Z</time>
      </trkpt>
      <trkpt lat="45.30422" lon="6.05013">
        <ele>1935.4</ele>
        <time>2021-01-16T11:21:21Z</time>
      </trkpt>
      <trkpt lat="45.30422" lon="6.05013">
        <ele>1935.4</ele>
        <time>2021-01-16T11:21:22Z</time>
      </trkpt>
      <trkpt lat="45.30422" lon="6.05013">
        <ele>1935.4</ele>
        <time>2021-01-16T11:21:23Z</time>
      </trkpt>
      <trkpt lat="45.30422" lon="6.05013">
        <ele>1935.4</ele>
        <time>2021-01-16T11:21:24Z</time>
      </trkpt>
      <trkpt lat="45.30422" lon="6.05013">
        <ele>1935.4</ele>
        <time>2021-01-16T11:21:25Z</time>
      </trkpt>
      <trkpt lat="45.30422" lon="6.05013">
        <ele>1935.4</ele>
        <time>2021-01-16T11:21:26Z</time>
      </trkpt>
      <trkpt lat="45.30422" lon="6.05013">
        <ele>1935.4</ele>
        <time>2021-01-16T11:21:27Z</time>
      </trkpt>
      <trkpt lat="45.30422" lon="6.05013">
        <ele>1935.4</ele>
        <time>2021-01-16T11:21:28Z</time>
      </trkpt>
      <trkpt lat="45.30422" lon="6.05013">
        <ele>1935.4</ele>
        <time>2021-01-16T11:21:29Z</time>
      </trkpt>
      <trkpt lat="45.30422" lon="6.05013">
        <ele>1935.4</ele>
        <time>2021-01-16T11:21:30Z</time>
      </trkpt>
      <trkpt lat="45.30422" lon="6.05013">
        <ele>1935.4</ele>
        <time>2021-01-16T11:21:31Z</time>
      </trkpt>
      <trkpt lat="45.30422" lon="6.05013">
        <ele>1935.4</ele>
        <time>2021-01-16T11:21:32Z</time>
      </trkpt>
      <trkpt lat="45.30422" lon="6.05013">
        <ele>1935.4</ele>
        <time>2021-01-16T11:21:33Z</time>
      </trkpt>
      <trkpt lat="45.30422" lon="6.05013">
        <ele>1935.4</ele>
        <time>2021-01-16T11:21:34Z</time>
      </trkpt>
      <trkpt lat="45.30422" lon="6.05013">
        <ele>1935.4</ele>
        <time>2021-01-16T11:21:35Z</time>
      </trkpt>
      <trkpt lat="45.30422" lon="6.05013">
        <ele>1935.4</ele>
        <time>2021-01-16T11:21:36Z</time>
      </trkpt>
      <trkpt lat="45.30422" lon="6.05013">
        <ele>1935.4</ele>
        <time>2021-01-16T11:21:37Z</time>
      </trkpt>
      <trkpt lat="45.30422" lon="6.05013">
        <ele>1935.4</ele>
        <time>2021-01-16T11:21:38Z</time>
      </trkpt>
      <trkpt lat="45.30422" lon="6.05013">
        <ele>1935.4</ele>
        <time>2021-01-16T11:21:39Z</time>
      </trkpt>
      <trkpt lat="45.30422" lon="6.05013">
        <ele>1935.4</ele>
        <time>2021-01-16T11:21:40Z</time>
      </trkpt>
      <trkpt lat="45.30422" lon="6.05013">
        <ele>1935.4</ele>
        <time>2021-01-16T11:21:41Z</time>
      </trkpt>
      <trkpt lat="45.30422" lon="6.05013">
        <ele>1935.4</ele>
        <time>2021-01-16T11:21:42Z</time>
      </trkpt>
      <trkpt lat="45.30422" lon="6.05013">
        <ele>1935.4</ele>
        <time>2021-01-16T11:21:43Z</time>
      </trkpt>
      <trkpt lat="45.30422" lon="6.05013">
        <ele>1935.4</ele>
        <time>2021-01-16T11:21:44Z</time>
      </trkpt>
      <trkpt lat="45.30422" lon="6.05013">
        <ele>1935.4</ele>
        <time>2021-01-16T11:21:45Z</time>
      </trkpt>
      <trkpt lat="45.30422" lon="6.05013">
        <ele>1935.4</ele>
        <time>2021-01-16T11:21:46Z</time>
      </trkpt>
      <trkpt lat="45.30422" lon="6.05013">
        <ele>1935.4</ele>
        <time>2021-01-16T11:21:47Z</time>
      </trkpt>
      <trkpt lat="45.30422" lon="6.05013">
        <ele>1935.4</ele>
        <time>2021-01-16T11:21:48Z</time>
      </trkpt>
      <trkpt lat="45.30422" lon="6.05013">
        <ele>1935.4</ele>
        <time>2021-01-16T11:21:49Z</time>
      </trkpt>
      <trkpt lat="45.30422" lon="6.05013">
        <ele>1935.4</ele>
        <time>2021-01-16T11:21:50Z</time>
      </trkpt>
      <trkpt lat="45.30422" lon="6.05013">
        <ele>1935.4</ele>
        <time>2021-01-16T11:21:51Z</time>
      </trkpt>
      <trkpt lat="45.30422" lon="6.05013">
        <ele>1935.4</ele>
        <time>2021-01-16T11:21:52Z</time>
      </trkpt>
      <trkpt lat="45.30422" lon="6.05013">
        <ele>1935.4</ele>
        <time>2021-01-16T11:21:53Z</time>
      </trkpt>
      <trkpt lat="45.30422" lon="6.05013">
        <ele>1935.4</ele>
        <time>2021-01-16T11:21:54Z</time>
      </trkpt>
      <trkpt lat="45.30422" lon="6.05013">
        <ele>1935.4</ele>
        <time>2021-01-16T11:21:55Z</time>
      </trkpt>
      <trkpt lat="45.30422" lon="6.05013">
        <ele>1935.4</ele>
        <time>2021-01-16T11:21:56Z</time>
      </trkpt>
      <trkpt lat="45.30422" lon="6.05013">
        <ele>1935.4</ele>
        <time>2021-01-16T11:21:57Z</time>
      </trkpt>
      <trkpt lat="45.30422" lon="6.05013">
        <ele>1935.4</ele>
        <time>2021-01-16T11:21:58Z</time>
      </trkpt>
      <trkpt lat="45.30422" lon="6.05013">
        <ele>1935.4</ele>
        <time>2021-01-16T11:21:59Z</time>
      </trkpt>
      <trkpt lat="45.30422" lon="6.05013">
        <ele>1935.4</ele>
        <time>2021-01-16T11:22:00Z</time>
      </trkpt>
      <trkpt lat="45.30422" lon="6.05013">
        <ele>1935.4</ele>
        <time>2021-01-16T11:22:01Z</time>
      </trkpt>
      <trkpt lat="45.30422" lon="6.05013">
        <ele>1935.4</ele>
        <time>2021-01-16T11:22:02Z</time>
      </trkpt>
      <trkpt lat="45.30422" lon="6.05013">
        <ele>1935.4</ele>
        <time>2021-01-16T11:22:03Z</time>
      </trkpt>
      <trkpt lat="45.30422" lon="6.05013">
        <ele>1935.4</ele>
        <time>2021-01-16T11:22:04Z</time>
      </trkpt>
      <trkpt lat="45.30422" lon="6.05013">
        <ele>1935.4</ele>
        <time>2021-01-16T11:22:05Z</time>
      </trkpt>
      <trkpt lat="45.30422" lon="6.05013">
        <ele>1935.4</ele>
        <time>2021-01-16T11:22:06Z</time>
      </trkpt>
      <trkpt lat="45.30422" lon="6.05013">
        <ele>1935.6</ele>
        <time>2021-01-16T11:22:07Z</time>
      </trkpt>
      <trkpt lat="45.30422" lon="6.05013">
        <ele>1935.6</ele>
        <time>2021-01-16T11:22:08Z</time>
      </trkpt>
      <trkpt lat="45.30422" lon="6.05013">
        <ele>1935.8</ele>
        <time>2021-01-16T11:22:09Z</time>
      </trkpt>
      <trkpt lat="45.30422" lon="6.05013">
        <ele>1935.8</ele>
        <time>2021-01-16T11:22:10Z</time>
      </trkpt>
      <trkpt lat="45.30422" lon="6.05013">
        <ele>1935.6</ele>
        <time>2021-01-16T11:22:11Z</time>
      </trkpt>
      <trkpt lat="45.30422" lon="6.05013">
        <ele>1935.6</ele>
        <time>2021-01-16T11:22:12Z</time>
      </trkpt>
      <trkpt lat="45.30422" lon="6.05013">
        <ele>1935.6</ele>
        <time>2021-01-16T11:22:13Z</time>
      </trkpt>
      <trkpt lat="45.30422" lon="6.05013">
        <ele>1935.6</ele>
        <time>2021-01-16T11:22:14Z</time>
      </trkpt>
      <trkpt lat="45.30422" lon="6.05013">
        <ele>1935.6</ele>
        <time>2021-01-16T11:22:15Z</time>
      </trkpt>
      <trkpt lat="45.30422" lon="6.05013">
        <ele>1935.6</ele>
        <time>2021-01-16T11:22:16Z</time>
      </trkpt>
      <trkpt lat="45.30422" lon="6.05013">
        <ele>1935.6</ele>
        <time>2021-01-16T11:22:17Z</time>
      </trkpt>
      <trkpt lat="45.30422" lon="6.05013">
        <ele>1935.6</ele>
        <time>2021-01-16T11:22:18Z</time>
      </trkpt>
      <trkpt lat="45.30422" lon="6.05013">
        <ele>1935.6</ele>
        <time>2021-01-16T11:22:19Z</time>
      </trkpt>
      <trkpt lat="45.30422" lon="6.05013">
        <ele>1935.6</ele>
        <time>2021-01-16T11:22:20Z</time>
      </trkpt>
      <trkpt lat="45.30422" lon="6.05013">
        <ele>1935.4</ele>
        <time>2021-01-16T11:22:21Z</time>
      </trkpt>
      <trkpt lat="45.30422" lon="6.05013">
        <ele>1935.4</ele>
        <time>2021-01-16T11:22:22Z</time>
      </trkpt>
      <trkpt lat="45.30422" lon="6.05013">
        <ele>1935.6</ele>
        <time>2021-01-16T11:22:23Z</time>
      </trkpt>
      <trkpt lat="45.30422" lon="6.05013">
        <ele>1935.6</ele>
        <time>2021-01-16T11:22:24Z</time>
      </trkpt>
      <trkpt lat="45.30422" lon="6.05013">
        <ele>1935.4</ele>
        <time>2021-01-16T11:22:25Z</time>
      </trkpt>
      <trkpt lat="45.30422" lon="6.05013">
        <ele>1935.4</ele>
        <time>2021-01-16T11:22:26Z</time>
      </trkpt>
      <trkpt lat="45.30422" lon="6.05013">
        <ele>1935.4</ele>
        <time>2021-01-16T11:22:27Z</time>
      </trkpt>
      <trkpt lat="45.30422" lon="6.05013">
        <ele>1935.4</ele>
        <time>2021-01-16T11:22:28Z</time>
      </trkpt>
      <trkpt lat="45.30422" lon="6.05013">
        <ele>1935.4</ele>
        <time>2021-01-16T11:22:29Z</time>
      </trkpt>
      <trkpt lat="45.30422" lon="6.05013">
        <ele>1935.4</ele>
        <time>2021-01-16T11:22:30Z</time>
      </trkpt>
      <trkpt lat="45.30422" lon="6.05013">
        <ele>1935.4</ele>
        <time>2021-01-16T11:22:31Z</time>
      </trkpt>
      <trkpt lat="45.30422" lon="6.05013">
        <ele>1935.4</ele>
        <time>2021-01-16T11:22:32Z</time>
      </trkpt>
      <trkpt lat="45.30422" lon="6.05013">
        <ele>1935.4</ele>
        <time>2021-01-16T11:22:33Z</time>
      </trkpt>
      <trkpt lat="45.30422" lon="6.05013">
        <ele>1935.4</ele>
        <time>2021-01-16T11:22:34Z</time>
      </trkpt>
      <trkpt lat="45.30422" lon="6.05013">
        <ele>1935.4</ele>
        <time>2021-01-16T11:22:35Z</time>
      </trkpt>
      <trkpt lat="45.30422" lon="6.05013">
        <ele>1935.4</ele>
        <time>2021-01-16T11:22:36Z</time>
      </trkpt>
      <trkpt lat="45.30422" lon="6.05013">
        <ele>1935.4</ele>
        <time>2021-01-16T11:22:37Z</time>
      </trkpt>
      <trkpt lat="45.30422" lon="6.05013">
        <ele>1935.4</ele>
        <time>2021-01-16T11:22:38Z</time>
      </trkpt>
      <trkpt lat="45.30422" lon="6.05013">
        <ele>1935.4</ele>
        <time>2021-01-16T11:22:39Z</time>
      </trkpt>
      <trkpt lat="45.30422" lon="6.05013">
        <ele>1935.4</ele>
        <time>2021-01-16T11:22:40Z</time>
      </trkpt>
      <trkpt lat="45.30422" lon="6.05013">
        <ele>1935.4</ele>
        <time>2021-01-16T11:22:41Z</time>
      </trkpt>
      <trkpt lat="45.30422" lon="6.05013">
        <ele>1935.4</ele>
        <time>2021-01-16T11:22:42Z</time>
      </trkpt>
      <trkpt lat="45.30422" lon="6.05013">
        <ele>1935.4</ele>
        <time>2021-01-16T11:22:43Z</time>
      </trkpt>
      <trkpt lat="45.30422" lon="6.05013">
        <ele>1935.4</ele>
        <time>2021-01-16T11:22:44Z</time>
      </trkpt>
      <trkpt lat="45.30422" lon="6.05013">
        <ele>1935.4</ele>
        <time>2021-01-16T11:22:45Z</time>
      </trkpt>
      <trkpt lat="45.30422" lon="6.05013">
        <ele>1935.4</ele>
        <time>2021-01-16T11:22:46Z</time>
      </trkpt>
      <trkpt lat="45.30422" lon="6.05013">
        <ele>1935.4</ele>
        <time>2021-01-16T11:22:47Z</time>
      </trkpt>
      <trkpt lat="45.30422" lon="6.05013">
        <ele>1935.4</ele>
        <time>2021-01-16T11:22:48Z</time>
      </trkpt>
      <trkpt lat="45.30422" lon="6.05013">
        <ele>1935.4</ele>
        <time>2021-01-16T11:22:49Z</time>
      </trkpt>
      <trkpt lat="45.30422" lon="6.05013">
        <ele>1935.4</ele>
        <time>2021-01-16T11:22:50Z</time>
      </trkpt>
      <trkpt lat="45.30422" lon="6.05013">
        <ele>1935.4</ele>
        <time>2021-01-16T11:22:51Z</time>
      </trkpt>
      <trkpt lat="45.30422" lon="6.05013">
        <ele>1935.4</ele>
        <time>2021-01-16T11:22:52Z</time>
      </trkpt>
      <trkpt lat="45.30422" lon="6.05013">
        <ele>1935.4</ele>
        <time>2021-01-16T11:22:53Z</time>
      </trkpt>
      <trkpt lat="45.30422" lon="6.05013">
        <ele>1935.4</ele>
        <time>2021-01-16T11:22:54Z</time>
      </trkpt>
      <trkpt lat="45.30422" lon="6.05013">
        <ele>1935.6</ele>
        <time>2021-01-16T11:22:55Z</time>
      </trkpt>
      <trkpt lat="45.30422" lon="6.05013">
        <ele>1935.6</ele>
        <time>2021-01-16T11:22:56Z</time>
      </trkpt>
      <trkpt lat="45.30422" lon="6.05013">
        <ele>1935.4</ele>
        <time>2021-01-16T11:22:57Z</time>
      </trkpt>
      <trkpt lat="45.30422" lon="6.05013">
        <ele>1935.4</ele>
        <time>2021-01-16T11:22:58Z</time>
      </trkpt>
      <trkpt lat="45.30422" lon="6.05013">
        <ele>1935.4</ele>
        <time>2021-01-16T11:22:59Z</time>
      </trkpt>
      <trkpt lat="45.30422" lon="6.05013">
        <ele>1935.4</ele>
        <time>2021-01-16T11:23:00Z</time>
      </trkpt>
      <trkpt lat="45.30422" lon="6.05013">
        <ele>1935.6</ele>
        <time>2021-01-16T11:23:01Z</time>
      </trkpt>
      <trkpt lat="45.30422" lon="6.05013">
        <ele>1935.6</ele>
        <time>2021-01-16T11:23:02Z</time>
      </trkpt>
      <trkpt lat="45.30422" lon="6.05013">
        <ele>1935.4</ele>
        <time>2021-01-16T11:23:03Z</time>
      </trkpt>
      <trkpt lat="45.30422" lon="6.05013">
        <ele>1935.4</ele>
        <time>2021-01-16T11:23:04Z</time>
      </trkpt>
      <trkpt lat="45.30422" lon="6.05013">
        <ele>1935.4</ele>
        <time>2021-01-16T11:23:05Z</time>
      </trkpt>
      <trkpt lat="45.30422" lon="6.05013">
        <ele>1935.4</ele>
        <time>2021-01-16T11:23:06Z</time>
      </trkpt>
      <trkpt lat="45.30422" lon="6.05013">
        <ele>1935.4</ele>
        <time>2021-01-16T11:23:07Z</time>
      </trkpt>
      <trkpt lat="45.30422" lon="6.05013">
        <ele>1935.4</ele>
        <time>2021-01-16T11:23:08Z</time>
      </trkpt>
      <trkpt lat="45.30422" lon="6.05013">
        <ele>1935.4</ele>
        <time>2021-01-16T11:23:09Z</time>
      </trkpt>
      <trkpt lat="45.30422" lon="6.05013">
        <ele>1935.4</ele>
        <time>2021-01-16T11:23:10Z</time>
      </trkpt>
      <trkpt lat="45.30422" lon="6.05013">
        <ele>1935.4</ele>
        <time>2021-01-16T11:23:11Z</time>
      </trkpt>
      <trkpt lat="45.30422" lon="6.05013">
        <ele>1935.4</ele>
        <time>2021-01-16T11:23:12Z</time>
      </trkpt>
      <trkpt lat="45.30422" lon="6.05013">
        <ele>1935.4</ele>
        <time>2021-01-16T11:23:13Z</time>
      </trkpt>
      <trkpt lat="45.30422" lon="6.05013">
        <ele>1935.4</ele>
        <time>2021-01-16T11:23:14Z</time>
      </trkpt>
      <trkpt lat="45.30422" lon="6.05013">
        <ele>1935.4</ele>
        <time>2021-01-16T11:23:15Z</time>
      </trkpt>
      <trkpt lat="45.30422" lon="6.05013">
        <ele>1935.4</ele>
        <time>2021-01-16T11:23:16Z</time>
      </trkpt>
      <trkpt lat="45.30422" lon="6.05013">
        <ele>1935.4</ele>
        <time>2021-01-16T11:23:17Z</time>
      </trkpt>
      <trkpt lat="45.30422" lon="6.05013">
        <ele>1935.4</ele>
        <time>2021-01-16T11:23:18Z</time>
      </trkpt>
      <trkpt lat="45.30422" lon="6.05013">
        <ele>1935.4</ele>
        <time>2021-01-16T11:23:19Z</time>
      </trkpt>
      <trkpt lat="45.30422" lon="6.05013">
        <ele>1935.4</ele>
        <time>2021-01-16T11:23:20Z</time>
      </trkpt>
      <trkpt lat="45.30422" lon="6.05013">
        <ele>1935.4</ele>
        <time>2021-01-16T11:23:21Z</time>
      </trkpt>
      <trkpt lat="45.30422" lon="6.05013">
        <ele>1935.6</ele>
        <time>2021-01-16T11:23:22Z</time>
      </trkpt>
      <trkpt lat="45.30422" lon="6.05013">
        <ele>1935.6</ele>
        <time>2021-01-16T11:23:23Z</time>
      </trkpt>
      <trkpt lat="45.30422" lon="6.05013">
        <ele>1935.6</ele>
        <time>2021-01-16T11:23:24Z</time>
      </trkpt>
      <trkpt lat="45.30422" lon="6.05013">
        <ele>1935.6</ele>
        <time>2021-01-16T11:23:25Z</time>
      </trkpt>
      <trkpt lat="45.30422" lon="6.05013">
        <ele>1935.4</ele>
        <time>2021-01-16T11:23:26Z</time>
      </trkpt>
      <trkpt lat="45.30422" lon="6.05013">
        <ele>1935.4</ele>
        <time>2021-01-16T11:23:27Z</time>
      </trkpt>
      <trkpt lat="45.30422" lon="6.05013">
        <ele>1935.4</ele>
        <time>2021-01-16T11:23:28Z</time>
      </trkpt>
      <trkpt lat="45.30422" lon="6.05013">
        <ele>1935.4</ele>
        <time>2021-01-16T11:23:29Z</time>
      </trkpt>
      <trkpt lat="45.30422" lon="6.05013">
        <ele>1935.4</ele>
        <time>2021-01-16T11:23:30Z</time>
      </trkpt>
      <trkpt lat="45.30422" lon="6.05013">
        <ele>1935.4</ele>
        <time>2021-01-16T11:23:31Z</time>
      </trkpt>
      <trkpt lat="45.30422" lon="6.05013">
        <ele>1935.4</ele>
        <time>2021-01-16T11:23:32Z</time>
      </trkpt>
      <trkpt lat="45.30422" lon="6.05013">
        <ele>1935.4</ele>
        <time>2021-01-16T11:23:33Z</time>
      </trkpt>
      <trkpt lat="45.30422" lon="6.05013">
        <ele>1935.4</ele>
        <time>2021-01-16T11:23:34Z</time>
      </trkpt>
      <trkpt lat="45.30422" lon="6.05013">
        <ele>1935.4</ele>
        <time>2021-01-16T11:23:35Z</time>
      </trkpt>
      <trkpt lat="45.30422" lon="6.05013">
        <ele>1935.4</ele>
        <time>2021-01-16T11:23:36Z</time>
      </trkpt>
      <trkpt lat="45.30422" lon="6.05013">
        <ele>1935.4</ele>
        <time>2021-01-16T11:23:37Z</time>
      </trkpt>
      <trkpt lat="45.30422" lon="6.05013">
        <ele>1935.4</ele>
        <time>2021-01-16T11:23:38Z</time>
      </trkpt>
      <trkpt lat="45.30422" lon="6.05013">
        <ele>1935.4</ele>
        <time>2021-01-16T11:23:39Z</time>
      </trkpt>
      <trkpt lat="45.30422" lon="6.05013">
        <ele>1935.4</ele>
        <time>2021-01-16T11:23:40Z</time>
      </trkpt>
      <trkpt lat="45.30422" lon="6.05013">
        <ele>1935.4</ele>
        <time>2021-01-16T11:23:41Z</time>
      </trkpt>
      <trkpt lat="45.30422" lon="6.05013">
        <ele>1935.4</ele>
        <time>2021-01-16T11:23:42Z</time>
      </trkpt>
      <trkpt lat="45.30422" lon="6.05013">
        <ele>1935.4</ele>
        <time>2021-01-16T11:23:43Z</time>
      </trkpt>
      <trkpt lat="45.30422" lon="6.05013">
        <ele>1935.4</ele>
        <time>2021-01-16T11:23:44Z</time>
      </trkpt>
      <trkpt lat="45.30422" lon="6.05013">
        <ele>1935.4</ele>
        <time>2021-01-16T11:23:45Z</time>
      </trkpt>
      <trkpt lat="45.30422" lon="6.05013">
        <ele>1935.4</ele>
        <time>2021-01-16T11:23:46Z</time>
      </trkpt>
      <trkpt lat="45.30422" lon="6.05013">
        <ele>1935.4</ele>
        <time>2021-01-16T11:23:47Z</time>
      </trkpt>
      <trkpt lat="45.30422" lon="6.05013">
        <ele>1935.4</ele>
        <time>2021-01-16T11:23:48Z</time>
      </trkpt>
      <trkpt lat="45.30422" lon="6.05013">
        <ele>1935.4</ele>
        <time>2021-01-16T11:23:49Z</time>
      </trkpt>
      <trkpt lat="45.30422" lon="6.05013">
        <ele>1935.4</ele>
        <time>2021-01-16T11:23:50Z</time>
      </trkpt>
      <trkpt lat="45.30422" lon="6.05013">
        <ele>1935.4</ele>
        <time>2021-01-16T11:23:51Z</time>
      </trkpt>
      <trkpt lat="45.30422" lon="6.05013">
        <ele>1935.4</ele>
        <time>2021-01-16T11:23:52Z</time>
      </trkpt>
      <trkpt lat="45.30422" lon="6.05013">
        <ele>1935.4</ele>
        <time>2021-01-16T11:23:53Z</time>
      </trkpt>
      <trkpt lat="45.30422" lon="6.05013">
        <ele>1935.4</ele>
        <time>2021-01-16T11:23:54Z</time>
      </trkpt>
      <trkpt lat="45.30422" lon="6.05013">
        <ele>1935.4</ele>
        <time>2021-01-16T11:23:55Z</time>
      </trkpt>
      <trkpt lat="45.30422" lon="6.05013">
        <ele>1935.4</ele>
        <time>2021-01-16T11:23:56Z</time>
      </trkpt>
      <trkpt lat="45.30422" lon="6.05013">
        <ele>1935.4</ele>
        <time>2021-01-16T11:23:57Z</time>
      </trkpt>
      <trkpt lat="45.30422" lon="6.05013">
        <ele>1935.4</ele>
        <time>2021-01-16T11:23:58Z</time>
      </trkpt>
      <trkpt lat="45.30422" lon="6.05013">
        <ele>1935.4</ele>
        <time>2021-01-16T11:23:59Z</time>
      </trkpt>
      <trkpt lat="45.30422" lon="6.05013">
        <ele>1935.4</ele>
        <time>2021-01-16T11:24:00Z</time>
      </trkpt>
      <trkpt lat="45.30422" lon="6.05013">
        <ele>1935.4</ele>
        <time>2021-01-16T11:24:01Z</time>
      </trkpt>
      <trkpt lat="45.30422" lon="6.05013">
        <ele>1935.4</ele>
        <time>2021-01-16T11:24:02Z</time>
      </trkpt>
      <trkpt lat="45.30422" lon="6.05013">
        <ele>1935.4</ele>
        <time>2021-01-16T11:24:03Z</time>
      </trkpt>
      <trkpt lat="45.30422" lon="6.05013">
        <ele>1935.4</ele>
        <time>2021-01-16T11:24:04Z</time>
      </trkpt>
      <trkpt lat="45.30422" lon="6.05013">
        <ele>1935.4</ele>
        <time>2021-01-16T11:24:05Z</time>
      </trkpt>
      <trkpt lat="45.30422" lon="6.05013">
        <ele>1935.4</ele>
        <time>2021-01-16T11:24:06Z</time>
      </trkpt>
      <trkpt lat="45.30422" lon="6.05013">
        <ele>1935.4</ele>
        <time>2021-01-16T11:24:07Z</time>
      </trkpt>
      <trkpt lat="45.30422" lon="6.05013">
        <ele>1935.4</ele>
        <time>2021-01-16T11:24:08Z</time>
      </trkpt>
      <trkpt lat="45.30422" lon="6.05013">
        <ele>1935.2</ele>
        <time>2021-01-16T11:24:09Z</time>
      </trkpt>
      <trkpt lat="45.30422" lon="6.05013">
        <ele>1935.2</ele>
        <time>2021-01-16T11:24:10Z</time>
      </trkpt>
      <trkpt lat="45.30422" lon="6.05013">
        <ele>1935.2</ele>
        <time>2021-01-16T11:24:11Z</time>
      </trkpt>
      <trkpt lat="45.30422" lon="6.05013">
        <ele>1935.4</ele>
        <time>2021-01-16T11:24:12Z</time>
      </trkpt>
      <trkpt lat="45.30422" lon="6.05013">
        <ele>1935.4</ele>
        <time>2021-01-16T11:24:13Z</time>
      </trkpt>
      <trkpt lat="45.30422" lon="6.05013">
        <ele>1935.4</ele>
        <time>2021-01-16T11:24:14Z</time>
      </trkpt>
      <trkpt lat="45.30422" lon="6.05013">
        <ele>1935.4</ele>
        <time>2021-01-16T11:24:15Z</time>
      </trkpt>
      <trkpt lat="45.30422" lon="6.05013">
        <ele>1935.2</ele>
        <time>2021-01-16T11:24:16Z</time>
      </trkpt>
      <trkpt lat="45.30422" lon="6.05013">
        <ele>1935.4</ele>
        <time>2021-01-16T11:24:17Z</time>
      </trkpt>
      <trkpt lat="45.30422" lon="6.05013">
        <ele>1935.4</ele>
        <time>2021-01-16T11:24:18Z</time>
      </trkpt>
      <trkpt lat="45.30422" lon="6.05013">
        <ele>1935.4</ele>
        <time>2021-01-16T11:24:19Z</time>
      </trkpt>
      <trkpt lat="45.30422" lon="6.05013">
        <ele>1935.4</ele>
        <time>2021-01-16T11:24:20Z</time>
      </trkpt>
      <trkpt lat="45.30422" lon="6.05013">
        <ele>1935.4</ele>
        <time>2021-01-16T11:24:21Z</time>
      </trkpt>
      <trkpt lat="45.30422" lon="6.05013">
        <ele>1935.4</ele>
        <time>2021-01-16T11:24:22Z</time>
      </trkpt>
      <trkpt lat="45.30422" lon="6.05013">
        <ele>1935.4</ele>
        <time>2021-01-16T11:24:23Z</time>
      </trkpt>
      <trkpt lat="45.30422" lon="6.05013">
        <ele>1935.4</ele>
        <time>2021-01-16T11:24:24Z</time>
      </trkpt>
      <trkpt lat="45.30422" lon="6.05013">
        <ele>1935.4</ele>
        <time>2021-01-16T11:24:25Z</time>
      </trkpt>
      <trkpt lat="45.30422" lon="6.05013">
        <ele>1935.4</ele>
        <time>2021-01-16T11:24:26Z</time>
      </trkpt>
      <trkpt lat="45.30422" lon="6.05013">
        <ele>1935.4</ele>
        <time>2021-01-16T11:24:27Z</time>
      </trkpt>
      <trkpt lat="45.30422" lon="6.05013">
        <ele>1935.4</ele>
        <time>2021-01-16T11:24:28Z</time>
      </trkpt>
      <trkpt lat="45.30422" lon="6.05013">
        <ele>1935.4</ele>
        <time>2021-01-16T11:24:29Z</time>
      </trkpt>
      <trkpt lat="45.30422" lon="6.05013">
        <ele>1935.4</ele>
        <time>2021-01-16T11:24:30Z</time>
      </trkpt>
      <trkpt lat="45.30422" lon="6.05013">
        <ele>1935.2</ele>
        <time>2021-01-16T11:24:31Z</time>
      </trkpt>
      <trkpt lat="45.30422" lon="6.05013">
        <ele>1935.2</ele>
        <time>2021-01-16T11:24:32Z</time>
      </trkpt>
      <trkpt lat="45.30422" lon="6.05013">
        <ele>1935.2</ele>
        <time>2021-01-16T11:24:33Z</time>
      </trkpt>
      <trkpt lat="45.30422" lon="6.05013">
        <ele>1935.4</ele>
        <time>2021-01-16T11:24:34Z</time>
      </trkpt>
      <trkpt lat="45.30422" lon="6.05013">
        <ele>1935.2</ele>
        <time>2021-01-16T11:24:35Z</time>
      </trkpt>
      <trkpt lat="45.30422" lon="6.05013">
        <ele>1935.2</ele>
        <time>2021-01-16T11:24:36Z</time>
      </trkpt>
      <trkpt lat="45.30422" lon="6.05013">
        <ele>1935.2</ele>
        <time>2021-01-16T11:24:37Z</time>
      </trkpt>
      <trkpt lat="45.30422" lon="6.05013">
        <ele>1935.4</ele>
        <time>2021-01-16T11:24:38Z</time>
      </trkpt>
      <trkpt lat="45.30422" lon="6.05013">
        <ele>1935.4</ele>
        <time>2021-01-16T11:24:39Z</time>
      </trkpt>
      <trkpt lat="45.30422" lon="6.05013">
        <ele>1935.4</ele>
        <time>2021-01-16T11:24:40Z</time>
      </trkpt>
      <trkpt lat="45.30422" lon="6.05013">
        <ele>1935.4</ele>
        <time>2021-01-16T11:24:41Z</time>
      </trkpt>
      <trkpt lat="45.30422" lon="6.05013">
        <ele>1935.6</ele>
        <time>2021-01-16T11:24:42Z</time>
      </trkpt>
      <trkpt lat="45.30422" lon="6.05013">
        <ele>1935.4</ele>
        <time>2021-01-16T11:24:43Z</time>
      </trkpt>
      <trkpt lat="45.30422" lon="6.05016">
        <ele>1935.6</ele>
        <time>2021-01-16T11:24:44Z</time>
      </trkpt>
      <trkpt lat="45.30422" lon="6.05019">
        <ele>1935.2</ele>
        <time>2021-01-16T11:24:45Z</time>
      </trkpt>
      <trkpt lat="45.30421" lon="6.05021">
        <ele>1935.4</ele>
        <time>2021-01-16T11:24:46Z</time>
      </trkpt>
      <trkpt lat="45.30418" lon="6.05023">
        <ele>1935.4</ele>
        <time>2021-01-16T11:24:47Z</time>
      </trkpt>
      <trkpt lat="45.30416" lon="6.05023">
        <ele>1935.6</ele>
        <time>2021-01-16T11:24:48Z</time>
      </trkpt>
      <trkpt lat="45.30415" lon="6.05022">
        <ele>1935.6</ele>
        <time>2021-01-16T11:24:49Z</time>
      </trkpt>
      <trkpt lat="45.30415" lon="6.05021">
        <ele>1935.6</ele>
        <time>2021-01-16T11:24:50Z</time>
      </trkpt>
      <trkpt lat="45.30416" lon="6.0502">
        <ele>1935.6</ele>
        <time>2021-01-16T11:24:51Z</time>
      </trkpt>
      <trkpt lat="45.30416" lon="6.05019">
        <ele>1935.6</ele>
        <time>2021-01-16T11:24:52Z</time>
      </trkpt>
      <trkpt lat="45.30416" lon="6.05019">
        <ele>1935.6</ele>
        <time>2021-01-16T11:24:53Z</time>
      </trkpt>
      <trkpt lat="45.30416" lon="6.05019">
        <ele>1935.6</ele>
        <time>2021-01-16T11:24:54Z</time>
      </trkpt>
      <trkpt lat="45.30416" lon="6.05018">
        <ele>1935.6</ele>
        <time>2021-01-16T11:24:55Z</time>
      </trkpt>
      <trkpt lat="45.30416" lon="6.05018">
        <ele>1935.6</ele>
        <time>2021-01-16T11:24:56Z</time>
      </trkpt>
      <trkpt lat="45.30416" lon="6.05018">
        <ele>1935.6</ele>
        <time>2021-01-16T11:24:57Z</time>
      </trkpt>
      <trkpt lat="45.30416" lon="6.05018">
        <ele>1935.6</ele>
        <time>2021-01-16T11:24:58Z</time>
      </trkpt>
      <trkpt lat="45.30416" lon="6.05017">
        <ele>1935.6</ele>
        <time>2021-01-16T11:24:59Z</time>
      </trkpt>
      <trkpt lat="45.30416" lon="6.05017">
        <ele>1935.6</ele>
        <time>2021-01-16T11:25:00Z</time>
      </trkpt>
      <trkpt lat="45.30416" lon="6.05016">
        <ele>1935.6</ele>
        <time>2021-01-16T11:25:01Z</time>
      </trkpt>
      <trkpt lat="45.30416" lon="6.05016">
        <ele>1935.6</ele>
        <time>2021-01-16T11:25:02Z</time>
      </trkpt>
      <trkpt lat="45.30416" lon="6.05016">
        <ele>1935.6</ele>
        <time>2021-01-16T11:25:03Z</time>
      </trkpt>
      <trkpt lat="45.30416" lon="6.05016">
        <ele>1935.6</ele>
        <time>2021-01-16T11:25:04Z</time>
      </trkpt>
      <trkpt lat="45.30416" lon="6.05016">
        <ele>1935.6</ele>
        <time>2021-01-16T11:25:05Z</time>
      </trkpt>
      <trkpt lat="45.30416" lon="6.05015">
        <ele>1935.6</ele>
        <time>2021-01-16T11:25:06Z</time>
      </trkpt>
      <trkpt lat="45.30415" lon="6.05015">
        <ele>1935.6</ele>
        <time>2021-01-16T11:25:07Z</time>
      </trkpt>
      <trkpt lat="45.30415" lon="6.05015">
        <ele>1935.6</ele>
        <time>2021-01-16T11:25:08Z</time>
      </trkpt>
      <trkpt lat="45.30415" lon="6.05015">
        <ele>1935.6</ele>
        <time>2021-01-16T11:25:09Z</time>
      </trkpt>
      <trkpt lat="45.30415" lon="6.05015">
        <ele>1935.6</ele>
        <time>2021-01-16T11:25:10Z</time>
      </trkpt>
      <trkpt lat="45.30415" lon="6.05015">
        <ele>1935.6</ele>
        <time>2021-01-16T11:25:11Z</time>
      </trkpt>
      <trkpt lat="45.30415" lon="6.05015">
        <ele>1935.6</ele>
        <time>2021-01-16T11:25:12Z</time>
      </trkpt>
      <trkpt lat="45.30415" lon="6.05015">
        <ele>1935.6</ele>
        <time>2021-01-16T11:25:13Z</time>
      </trkpt>
      <trkpt lat="45.30415" lon="6.05015">
        <ele>1935.6</ele>
        <time>2021-01-16T11:25:14Z</time>
      </trkpt>
      <trkpt lat="45.30415" lon="6.05015">
        <ele>1935.6</ele>
        <time>2021-01-16T11:25:15Z</time>
      </trkpt>
      <trkpt lat="45.30415" lon="6.05015">
        <ele>1935.6</ele>
        <time>2021-01-16T11:25:16Z</time>
      </trkpt>
      <trkpt lat="45.30415" lon="6.05014">
        <ele>1935.6</ele>
        <time>2021-01-16T11:25:17Z</time>
      </trkpt>
      <trkpt lat="45.30415" lon="6.05014">
        <ele>1935.6</ele>
        <time>2021-01-16T11:25:18Z</time>
      </trkpt>
      <trkpt lat="45.30415" lon="6.05014">
        <ele>1935.6</ele>
        <time>2021-01-16T11:25:19Z</time>
      </trkpt>
      <trkpt lat="45.30415" lon="6.05014">
        <ele>1935.6</ele>
        <time>2021-01-16T11:25:20Z</time>
      </trkpt>
      <trkpt lat="45.30415" lon="6.05014">
        <ele>1935.6</ele>
        <time>2021-01-16T11:25:21Z</time>
      </trkpt>
      <trkpt lat="45.30415" lon="6.05014">
        <ele>1935.6</ele>
        <time>2021-01-16T11:25:22Z</time>
      </trkpt>
      <trkpt lat="45.30415" lon="6.05014">
        <ele>1935.6</ele>
        <time>2021-01-16T11:25:23Z</time>
      </trkpt>
      <trkpt lat="45.30415" lon="6.05014">
        <ele>1935.6</ele>
        <time>2021-01-16T11:25:24Z</time>
      </trkpt>
      <trkpt lat="45.30415" lon="6.05014">
        <ele>1935.6</ele>
        <time>2021-01-16T11:25:25Z</time>
      </trkpt>
      <trkpt lat="45.30415" lon="6.05014">
        <ele>1935.6</ele>
        <time>2021-01-16T11:25:26Z</time>
      </trkpt>
      <trkpt lat="45.30415" lon="6.05014">
        <ele>1935.6</ele>
        <time>2021-01-16T11:25:27Z</time>
      </trkpt>
      <trkpt lat="45.30415" lon="6.05014">
        <ele>1935.6</ele>
        <time>2021-01-16T11:25:28Z</time>
      </trkpt>
      <trkpt lat="45.30415" lon="6.05014">
        <ele>1935.4</ele>
        <time>2021-01-16T11:25:29Z</time>
      </trkpt>
      <trkpt lat="45.30415" lon="6.05014">
        <ele>1935.4</ele>
        <time>2021-01-16T11:25:30Z</time>
      </trkpt>
      <trkpt lat="45.30415" lon="6.05014">
        <ele>1935.6</ele>
        <time>2021-01-16T11:25:31Z</time>
      </trkpt>
      <trkpt lat="45.30415" lon="6.05014">
        <ele>1935.8</ele>
        <time>2021-01-16T11:25:32Z</time>
      </trkpt>
      <trkpt lat="45.30415" lon="6.05014">
        <ele>1935.8</ele>
        <time>2021-01-16T11:25:33Z</time>
      </trkpt>
      <trkpt lat="45.30415" lon="6.05014">
        <ele>1935.8</ele>
        <time>2021-01-16T11:25:34Z</time>
      </trkpt>
      <trkpt lat="45.30415" lon="6.05014">
        <ele>1935.6</ele>
        <time>2021-01-16T11:25:35Z</time>
      </trkpt>
      <trkpt lat="45.30415" lon="6.05014">
        <ele>1935.6</ele>
        <time>2021-01-16T11:25:36Z</time>
      </trkpt>
      <trkpt lat="45.30415" lon="6.05014">
        <ele>1935.6</ele>
        <time>2021-01-16T11:25:37Z</time>
      </trkpt>
      <trkpt lat="45.30415" lon="6.05014">
        <ele>1935.6</ele>
        <time>2021-01-16T11:25:38Z</time>
      </trkpt>
      <trkpt lat="45.30415" lon="6.05014">
        <ele>1935.6</ele>
        <time>2021-01-16T11:25:39Z</time>
      </trkpt>
      <trkpt lat="45.30415" lon="6.05014">
        <ele>1935.6</ele>
        <time>2021-01-16T11:25:40Z</time>
      </trkpt>
      <trkpt lat="45.30415" lon="6.05014">
        <ele>1935.6</ele>
        <time>2021-01-16T11:25:41Z</time>
      </trkpt>
      <trkpt lat="45.30415" lon="6.05014">
        <ele>1935.6</ele>
        <time>2021-01-16T11:25:42Z</time>
      </trkpt>
      <trkpt lat="45.30415" lon="6.05014">
        <ele>1935.6</ele>
        <time>2021-01-16T11:25:43Z</time>
      </trkpt>
      <trkpt lat="45.30415" lon="6.05014">
        <ele>1935.6</ele>
        <time>2021-01-16T11:25:44Z</time>
      </trkpt>
      <trkpt lat="45.30415" lon="6.05014">
        <ele>1935.6</ele>
        <time>2021-01-16T11:25:45Z</time>
      </trkpt>
      <trkpt lat="45.30415" lon="6.05014">
        <ele>1935.6</ele>
        <time>2021-01-16T11:25:46Z</time>
      </trkpt>
      <trkpt lat="45.30415" lon="6.05014">
        <ele>1935.6</ele>
        <time>2021-01-16T11:25:47Z</time>
      </trkpt>
      <trkpt lat="45.30415" lon="6.05014">
        <ele>1935.6</ele>
        <time>2021-01-16T11:25:48Z</time>
      </trkpt>
      <trkpt lat="45.30415" lon="6.05014">
        <ele>1935.6</ele>
        <time>2021-01-16T11:25:49Z</time>
      </trkpt>
      <trkpt lat="45.30415" lon="6.05014">
        <ele>1935.6</ele>
        <time>2021-01-16T11:25:50Z</time>
      </trkpt>
      <trkpt lat="45.30415" lon="6.05014">
        <ele>1935.6</ele>
        <time>2021-01-16T11:25:51Z</time>
      </trkpt>
      <trkpt lat="45.30415" lon="6.05014">
        <ele>1935.6</ele>
        <time>2021-01-16T11:25:52Z</time>
      </trkpt>
      <trkpt lat="45.30415" lon="6.05014">
        <ele>1935.6</ele>
        <time>2021-01-16T11:25:53Z</time>
      </trkpt>
      <trkpt lat="45.30415" lon="6.05014">
        <ele>1935.6</ele>
        <time>2021-01-16T11:25:54Z</time>
      </trkpt>
      <trkpt lat="45.30415" lon="6.05014">
        <ele>1935.6</ele>
        <time>2021-01-16T11:25:55Z</time>
      </trkpt>
      <trkpt lat="45.30415" lon="6.05014">
        <ele>1935.6</ele>
        <time>2021-01-16T11:25:56Z</time>
      </trkpt>
      <trkpt lat="45.30415" lon="6.05014">
        <ele>1935.6</ele>
        <time>2021-01-16T11:25:57Z</time>
      </trkpt>
      <trkpt lat="45.30415" lon="6.05014">
        <ele>1935.6</ele>
        <time>2021-01-16T11:25:58Z</time>
      </trkpt>
      <trkpt lat="45.30415" lon="6.05014">
        <ele>1935.6</ele>
        <time>2021-01-16T11:25:59Z</time>
      </trkpt>
      <trkpt lat="45.30415" lon="6.05014">
        <ele>1935.6</ele>
        <time>2021-01-16T11:26:00Z</time>
      </trkpt>
      <trkpt lat="45.30415" lon="6.05014">
        <ele>1935.6</ele>
        <time>2021-01-16T11:26:01Z</time>
      </trkpt>
      <trkpt lat="45.30415" lon="6.05014">
        <ele>1935.6</ele>
        <time>2021-01-16T11:26:02Z</time>
      </trkpt>
      <trkpt lat="45.30415" lon="6.05014">
        <ele>1935.6</ele>
        <time>2021-01-16T11:26:03Z</time>
      </trkpt>
      <trkpt lat="45.30415" lon="6.05014">
        <ele>1935.6</ele>
        <time>2021-01-16T11:26:04Z</time>
      </trkpt>
      <trkpt lat="45.30415" lon="6.05014">
        <ele>1935.6</ele>
        <time>2021-01-16T11:26:05Z</time>
      </trkpt>
      <trkpt lat="45.30415" lon="6.05014">
        <ele>1935.6</ele>
        <time>2021-01-16T11:26:06Z</time>
      </trkpt>
      <trkpt lat="45.30415" lon="6.05014">
        <ele>1935.6</ele>
        <time>2021-01-16T11:26:07Z</time>
      </trkpt>
      <trkpt lat="45.30415" lon="6.05014">
        <ele>1935.6</ele>
        <time>2021-01-16T11:26:08Z</time>
      </trkpt>
      <trkpt lat="45.30415" lon="6.05014">
        <ele>1935.6</ele>
        <time>2021-01-16T11:26:09Z</time>
      </trkpt>
      <trkpt lat="45.30415" lon="6.05014">
        <ele>1935.6</ele>
        <time>2021-01-16T11:26:10Z</time>
      </trkpt>
      <trkpt lat="45.30415" lon="6.05014">
        <ele>1935.6</ele>
        <time>2021-01-16T11:26:11Z</time>
      </trkpt>
      <trkpt lat="45.30415" lon="6.05014">
        <ele>1935.6</ele>
        <time>2021-01-16T11:26:12Z</time>
      </trkpt>
      <trkpt lat="45.30415" lon="6.05014">
        <ele>1935.6</ele>
        <time>2021-01-16T11:26:13Z</time>
      </trkpt>
      <trkpt lat="45.30415" lon="6.05014">
        <ele>1935.6</ele>
        <time>2021-01-16T11:26:14Z</time>
      </trkpt>
      <trkpt lat="45.30415" lon="6.05014">
        <ele>1935.6</ele>
        <time>2021-01-16T11:26:15Z</time>
      </trkpt>
      <trkpt lat="45.30415" lon="6.05014">
        <ele>1935.6</ele>
        <time>2021-01-16T11:26:16Z</time>
      </trkpt>
      <trkpt lat="45.30415" lon="6.05014">
        <ele>1935.6</ele>
        <time>2021-01-16T11:26:17Z</time>
      </trkpt>
      <trkpt lat="45.30415" lon="6.05014">
        <ele>1935.6</ele>
        <time>2021-01-16T11:26:18Z</time>
      </trkpt>
      <trkpt lat="45.30415" lon="6.05014">
        <ele>1935.6</ele>
        <time>2021-01-16T11:26:19Z</time>
      </trkpt>
      <trkpt lat="45.30415" lon="6.05014">
        <ele>1935.6</ele>
        <time>2021-01-16T11:26:20Z</time>
      </trkpt>
      <trkpt lat="45.30415" lon="6.05014">
        <ele>1935.6</ele>
        <time>2021-01-16T11:26:21Z</time>
      </trkpt>
      <trkpt lat="45.30415" lon="6.05014">
        <ele>1935.6</ele>
        <time>2021-01-16T11:26:22Z</time>
      </trkpt>
      <trkpt lat="45.30415" lon="6.05014">
        <ele>1935.6</ele>
        <time>2021-01-16T11:26:23Z</time>
      </trkpt>
      <trkpt lat="45.30415" lon="6.05014">
        <ele>1935.6</ele>
        <time>2021-01-16T11:26:24Z</time>
      </trkpt>
      <trkpt lat="45.30415" lon="6.05014">
        <ele>1935.6</ele>
        <time>2021-01-16T11:26:25Z</time>
      </trkpt>
      <trkpt lat="45.30415" lon="6.05014">
        <ele>1935.6</ele>
        <time>2021-01-16T11:26:26Z</time>
      </trkpt>
      <trkpt lat="45.30415" lon="6.05014">
        <ele>1935.6</ele>
        <time>2021-01-16T11:26:27Z</time>
      </trkpt>
      <trkpt lat="45.30415" lon="6.05014">
        <ele>1935.6</ele>
        <time>2021-01-16T11:26:28Z</time>
      </trkpt>
      <trkpt lat="45.30415" lon="6.05014">
        <ele>1935.6</ele>
        <time>2021-01-16T11:26:29Z</time>
      </trkpt>
      <trkpt lat="45.30415" lon="6.05014">
        <ele>1935.6</ele>
        <time>2021-01-16T11:26:30Z</time>
      </trkpt>
      <trkpt lat="45.30415" lon="6.05014">
        <ele>1935.6</ele>
        <time>2021-01-16T11:26:31Z</time>
      </trkpt>
      <trkpt lat="45.30415" lon="6.05014">
        <ele>1935.6</ele>
        <time>2021-01-16T11:26:32Z</time>
      </trkpt>
      <trkpt lat="45.30415" lon="6.05014">
        <ele>1935.6</ele>
        <time>2021-01-16T11:26:33Z</time>
      </trkpt>
      <trkpt lat="45.30415" lon="6.05014">
        <ele>1935.6</ele>
        <time>2021-01-16T11:26:34Z</time>
      </trkpt>
      <trkpt lat="45.30415" lon="6.05014">
        <ele>1935.6</ele>
        <time>2021-01-16T11:26:35Z</time>
      </trkpt>
      <trkpt lat="45.30415" lon="6.05014">
        <ele>1935.6</ele>
        <time>2021-01-16T11:26:36Z</time>
      </trkpt>
      <trkpt lat="45.30415" lon="6.05014">
        <ele>1935.6</ele>
        <time>2021-01-16T11:26:37Z</time>
      </trkpt>
      <trkpt lat="45.30415" lon="6.05014">
        <ele>1935.6</ele>
        <time>2021-01-16T11:26:38Z</time>
      </trkpt>
      <trkpt lat="45.30415" lon="6.05014">
        <ele>1935.6</ele>
        <time>2021-01-16T11:26:39Z</time>
      </trkpt>
      <trkpt lat="45.30415" lon="6.05014">
        <ele>1935.6</ele>
        <time>2021-01-16T11:26:40Z</time>
      </trkpt>
      <trkpt lat="45.30415" lon="6.05014">
        <ele>1935.6</ele>
        <time>2021-01-16T11:26:41Z</time>
      </trkpt>
      <trkpt lat="45.30415" lon="6.05014">
        <ele>1935.6</ele>
        <time>2021-01-16T11:26:42Z</time>
      </trkpt>
      <trkpt lat="45.30415" lon="6.05014">
        <ele>1935.8</ele>
        <time>2021-01-16T11:26:43Z</time>
      </trkpt>
      <trkpt lat="45.30415" lon="6.05014">
        <ele>1935.8</ele>
        <time>2021-01-16T11:26:44Z</time>
      </trkpt>
      <trkpt lat="45.30415" lon="6.05014">
        <ele>1935.6</ele>
        <time>2021-01-16T11:26:45Z</time>
      </trkpt>
      <trkpt lat="45.30415" lon="6.05014">
        <ele>1935.6</ele>
        <time>2021-01-16T11:26:46Z</time>
      </trkpt>
      <trkpt lat="45.30415" lon="6.05014">
        <ele>1935.6</ele>
        <time>2021-01-16T11:26:47Z</time>
      </trkpt>
      <trkpt lat="45.30415" lon="6.05014">
        <ele>1935.6</ele>
        <time>2021-01-16T11:26:48Z</time>
      </trkpt>
      <trkpt lat="45.30415" lon="6.05014">
        <ele>1935.6</ele>
        <time>2021-01-16T11:26:49Z</time>
      </trkpt>
      <trkpt lat="45.30415" lon="6.05014">
        <ele>1935.8</ele>
        <time>2021-01-16T11:26:50Z</time>
      </trkpt>
      <trkpt lat="45.30415" lon="6.05014">
        <ele>1935.8</ele>
        <time>2021-01-16T11:26:51Z</time>
      </trkpt>
      <trkpt lat="45.30415" lon="6.05014">
        <ele>1935.8</ele>
        <time>2021-01-16T11:26:52Z</time>
      </trkpt>
      <trkpt lat="45.30415" lon="6.05014">
        <ele>1935.8</ele>
        <time>2021-01-16T11:26:53Z</time>
      </trkpt>
      <trkpt lat="45.30415" lon="6.05014">
        <ele>1935.8</ele>
        <time>2021-01-16T11:26:54Z</time>
      </trkpt>
      <trkpt lat="45.30415" lon="6.05014">
        <ele>1935.8</ele>
        <time>2021-01-16T11:26:55Z</time>
      </trkpt>
      <trkpt lat="45.30415" lon="6.05014">
        <ele>1935.8</ele>
        <time>2021-01-16T11:26:56Z</time>
      </trkpt>
      <trkpt lat="45.30415" lon="6.05014">
        <ele>1935.8</ele>
        <time>2021-01-16T11:26:57Z</time>
      </trkpt>
      <trkpt lat="45.30415" lon="6.05014">
        <ele>1935.8</ele>
        <time>2021-01-16T11:26:58Z</time>
      </trkpt>
      <trkpt lat="45.30415" lon="6.05014">
        <ele>1935.8</ele>
        <time>2021-01-16T11:26:59Z</time>
      </trkpt>
      <trkpt lat="45.30415" lon="6.05014">
        <ele>1935.8</ele>
        <time>2021-01-16T11:27:00Z</time>
      </trkpt>
      <trkpt lat="45.30415" lon="6.05014">
        <ele>1935.8</ele>
        <time>2021-01-16T11:27:01Z</time>
      </trkpt>
      <trkpt lat="45.30415" lon="6.05014">
        <ele>1935.8</ele>
        <time>2021-01-16T11:27:02Z</time>
      </trkpt>
      <trkpt lat="45.30415" lon="6.05014">
        <ele>1935.8</ele>
        <time>2021-01-16T11:27:03Z</time>
      </trkpt>
      <trkpt lat="45.30415" lon="6.05014">
        <ele>1935.8</ele>
        <time>2021-01-16T11:27:04Z</time>
      </trkpt>
      <trkpt lat="45.30415" lon="6.05014">
        <ele>1935.8</ele>
        <time>2021-01-16T11:27:05Z</time>
      </trkpt>
      <trkpt lat="45.30415" lon="6.05014">
        <ele>1935.8</ele>
        <time>2021-01-16T11:27:06Z</time>
      </trkpt>
      <trkpt lat="45.30415" lon="6.05014">
        <ele>1935.8</ele>
        <time>2021-01-16T11:27:07Z</time>
      </trkpt>
      <trkpt lat="45.30415" lon="6.05014">
        <ele>1935.8</ele>
        <time>2021-01-16T11:27:08Z</time>
      </trkpt>
      <trkpt lat="45.30415" lon="6.05014">
        <ele>1935.8</ele>
        <time>2021-01-16T11:27:09Z</time>
      </trkpt>
      <trkpt lat="45.30415" lon="6.05014">
        <ele>1935.8</ele>
        <time>2021-01-16T11:27:10Z</time>
      </trkpt>
      <trkpt lat="45.30415" lon="6.05014">
        <ele>1935.8</ele>
        <time>2021-01-16T11:27:11Z</time>
      </trkpt>
      <trkpt lat="45.30415" lon="6.05014">
        <ele>1935.8</ele>
        <time>2021-01-16T11:27:12Z</time>
      </trkpt>
      <trkpt lat="45.30415" lon="6.05014">
        <ele>1935.8</ele>
        <time>2021-01-16T11:27:13Z</time>
      </trkpt>
      <trkpt lat="45.30415" lon="6.05014">
        <ele>1935.8</ele>
        <time>2021-01-16T11:27:14Z</time>
      </trkpt>
      <trkpt lat="45.30415" lon="6.05014">
        <ele>1935.8</ele>
        <time>2021-01-16T11:27:15Z</time>
      </trkpt>
      <trkpt lat="45.30415" lon="6.05014">
        <ele>1935.8</ele>
        <time>2021-01-16T11:27:16Z</time>
      </trkpt>
      <trkpt lat="45.30415" lon="6.05014">
        <ele>1935.8</ele>
        <time>2021-01-16T11:27:17Z</time>
      </trkpt>
      <trkpt lat="45.30415" lon="6.05014">
        <ele>1935.8</ele>
        <time>2021-01-16T11:27:18Z</time>
      </trkpt>
      <trkpt lat="45.30415" lon="6.05014">
        <ele>1935.8</ele>
        <time>2021-01-16T11:27:19Z</time>
      </trkpt>
      <trkpt lat="45.30415" lon="6.05014">
        <ele>1935.8</ele>
        <time>2021-01-16T11:27:20Z</time>
      </trkpt>
      <trkpt lat="45.30415" lon="6.05014">
        <ele>1935.8</ele>
        <time>2021-01-16T11:27:21Z</time>
      </trkpt>
      <trkpt lat="45.30415" lon="6.05014">
        <ele>1936</ele>
        <time>2021-01-16T11:27:22Z</time>
      </trkpt>
      <trkpt lat="45.30415" lon="6.05014">
        <ele>1936</ele>
        <time>2021-01-16T11:27:23Z</time>
      </trkpt>
      <trkpt lat="45.30415" lon="6.05014">
        <ele>1935.8</ele>
        <time>2021-01-16T11:27:24Z</time>
      </trkpt>
      <trkpt lat="45.30415" lon="6.05014">
        <ele>1935.8</ele>
        <time>2021-01-16T11:27:25Z</time>
      </trkpt>
      <trkpt lat="45.30415" lon="6.05014">
        <ele>1935.8</ele>
        <time>2021-01-16T11:27:26Z</time>
      </trkpt>
      <trkpt lat="45.30415" lon="6.05014">
        <ele>1935.8</ele>
        <time>2021-01-16T11:27:27Z</time>
      </trkpt>
      <trkpt lat="45.30415" lon="6.05014">
        <ele>1935.8</ele>
        <time>2021-01-16T11:27:28Z</time>
      </trkpt>
      <trkpt lat="45.30415" lon="6.05014">
        <ele>1935.8</ele>
        <time>2021-01-16T11:27:29Z</time>
      </trkpt>
      <trkpt lat="45.30415" lon="6.05014">
        <ele>1935.8</ele>
        <time>2021-01-16T11:27:30Z</time>
      </trkpt>
      <trkpt lat="45.30415" lon="6.05014">
        <ele>1935.8</ele>
        <time>2021-01-16T11:27:31Z</time>
      </trkpt>
      <trkpt lat="45.30415" lon="6.05014">
        <ele>1935.8</ele>
        <time>2021-01-16T11:27:32Z</time>
      </trkpt>
      <trkpt lat="45.30415" lon="6.05014">
        <ele>1935.8</ele>
        <time>2021-01-16T11:27:33Z</time>
      </trkpt>
      <trkpt lat="45.30415" lon="6.05014">
        <ele>1935.8</ele>
        <time>2021-01-16T11:27:34Z</time>
      </trkpt>
      <trkpt lat="45.30415" lon="6.05014">
        <ele>1935.8</ele>
        <time>2021-01-16T11:27:35Z</time>
      </trkpt>
      <trkpt lat="45.30415" lon="6.05014">
        <ele>1935.8</ele>
        <time>2021-01-16T11:27:36Z</time>
      </trkpt>
      <trkpt lat="45.30415" lon="6.05014">
        <ele>1935.8</ele>
        <time>2021-01-16T11:27:37Z</time>
      </trkpt>
      <trkpt lat="45.30415" lon="6.05014">
        <ele>1935.8</ele>
        <time>2021-01-16T11:27:38Z</time>
      </trkpt>
      <trkpt lat="45.30415" lon="6.05014">
        <ele>1935.6</ele>
        <time>2021-01-16T11:27:39Z</time>
      </trkpt>
      <trkpt lat="45.30415" lon="6.05014">
        <ele>1935.6</ele>
        <time>2021-01-16T11:27:40Z</time>
      </trkpt>
      <trkpt lat="45.30415" lon="6.05014">
        <ele>1935.6</ele>
        <time>2021-01-16T11:27:41Z</time>
      </trkpt>
      <trkpt lat="45.30415" lon="6.05014">
        <ele>1935.6</ele>
        <time>2021-01-16T11:27:42Z</time>
      </trkpt>
      <trkpt lat="45.30415" lon="6.05014">
        <ele>1935.6</ele>
        <time>2021-01-16T11:27:43Z</time>
      </trkpt>
      <trkpt lat="45.30415" lon="6.05014">
        <ele>1935.6</ele>
        <time>2021-01-16T11:27:44Z</time>
      </trkpt>
      <trkpt lat="45.30415" lon="6.05014">
        <ele>1935.6</ele>
        <time>2021-01-16T11:27:45Z</time>
      </trkpt>
      <trkpt lat="45.30415" lon="6.05014">
        <ele>1935.6</ele>
        <time>2021-01-16T11:27:46Z</time>
      </trkpt>
      <trkpt lat="45.30415" lon="6.05014">
        <ele>1935.6</ele>
        <time>2021-01-16T11:27:47Z</time>
      </trkpt>
      <trkpt lat="45.30415" lon="6.05014">
        <ele>1935.6</ele>
        <time>2021-01-16T11:27:48Z</time>
      </trkpt>
      <trkpt lat="45.30415" lon="6.05014">
        <ele>1935.6</ele>
        <time>2021-01-16T11:27:49Z</time>
      </trkpt>
      <trkpt lat="45.30415" lon="6.05014">
        <ele>1935.6</ele>
        <time>2021-01-16T11:27:50Z</time>
      </trkpt>
      <trkpt lat="45.30415" lon="6.05014">
        <ele>1935.6</ele>
        <time>2021-01-16T11:27:51Z</time>
      </trkpt>
      <trkpt lat="45.30415" lon="6.05014">
        <ele>1935.6</ele>
        <time>2021-01-16T11:27:52Z</time>
      </trkpt>
      <trkpt lat="45.30415" lon="6.05014">
        <ele>1935.8</ele>
        <time>2021-01-16T11:27:53Z</time>
      </trkpt>
      <trkpt lat="45.30415" lon="6.05014">
        <ele>1935.8</ele>
        <time>2021-01-16T11:27:54Z</time>
      </trkpt>
      <trkpt lat="45.30415" lon="6.05014">
        <ele>1935.8</ele>
        <time>2021-01-16T11:27:55Z</time>
      </trkpt>
      <trkpt lat="45.30415" lon="6.05014">
        <ele>1935.8</ele>
        <time>2021-01-16T11:27:56Z</time>
      </trkpt>
      <trkpt lat="45.30415" lon="6.05014">
        <ele>1935.8</ele>
        <time>2021-01-16T11:27:57Z</time>
      </trkpt>
      <trkpt lat="45.30415" lon="6.05014">
        <ele>1935.6</ele>
        <time>2021-01-16T11:27:58Z</time>
      </trkpt>
      <trkpt lat="45.30415" lon="6.05014">
        <ele>1935.6</ele>
        <time>2021-01-16T11:27:59Z</time>
      </trkpt>
      <trkpt lat="45.30415" lon="6.05014">
        <ele>1935.8</ele>
        <time>2021-01-16T11:28:00Z</time>
      </trkpt>
      <trkpt lat="45.30415" lon="6.05014">
        <ele>1935.8</ele>
        <time>2021-01-16T11:28:01Z</time>
      </trkpt>
      <trkpt lat="45.30415" lon="6.05014">
        <ele>1935.8</ele>
        <time>2021-01-16T11:28:02Z</time>
      </trkpt>
      <trkpt lat="45.30415" lon="6.05014">
        <ele>1935.8</ele>
        <time>2021-01-16T11:28:03Z</time>
      </trkpt>
      <trkpt lat="45.30415" lon="6.05014">
        <ele>1935.6</ele>
        <time>2021-01-16T11:28:04Z</time>
      </trkpt>
      <trkpt lat="45.30415" lon="6.05014">
        <ele>1935.8</ele>
        <time>2021-01-16T11:28:05Z</time>
      </trkpt>
      <trkpt lat="45.30415" lon="6.05014">
        <ele>1935.8</ele>
        <time>2021-01-16T11:28:06Z</time>
      </trkpt>
      <trkpt lat="45.30415" lon="6.05014">
        <ele>1935.8</ele>
        <time>2021-01-16T11:28:07Z</time>
      </trkpt>
      <trkpt lat="45.30415" lon="6.05014">
        <ele>1935.8</ele>
        <time>2021-01-16T11:28:08Z</time>
      </trkpt>
      <trkpt lat="45.30415" lon="6.05014">
        <ele>1935.8</ele>
        <time>2021-01-16T11:28:09Z</time>
      </trkpt>
      <trkpt lat="45.30415" lon="6.05014">
        <ele>1935.8</ele>
        <time>2021-01-16T11:28:10Z</time>
      </trkpt>
      <trkpt lat="45.30415" lon="6.05014">
        <ele>1935.8</ele>
        <time>2021-01-16T11:28:11Z</time>
      </trkpt>
      <trkpt lat="45.30415" lon="6.05014">
        <ele>1935.8</ele>
        <time>2021-01-16T11:28:12Z</time>
      </trkpt>
      <trkpt lat="45.30415" lon="6.05014">
        <ele>1935.8</ele>
        <time>2021-01-16T11:28:13Z</time>
      </trkpt>
      <trkpt lat="45.30415" lon="6.05014">
        <ele>1935.8</ele>
        <time>2021-01-16T11:28:14Z</time>
      </trkpt>
      <trkpt lat="45.30415" lon="6.05014">
        <ele>1935.8</ele>
        <time>2021-01-16T11:28:15Z</time>
      </trkpt>
      <trkpt lat="45.30415" lon="6.05014">
        <ele>1935.8</ele>
        <time>2021-01-16T11:28:16Z</time>
      </trkpt>
      <trkpt lat="45.30415" lon="6.05014">
        <ele>1935.8</ele>
        <time>2021-01-16T11:28:17Z</time>
      </trkpt>
      <trkpt lat="45.30415" lon="6.05014">
        <ele>1935.8</ele>
        <time>2021-01-16T11:28:18Z</time>
      </trkpt>
      <trkpt lat="45.30415" lon="6.05014">
        <ele>1936</ele>
        <time>2021-01-16T11:28:19Z</time>
      </trkpt>
      <trkpt lat="45.30415" lon="6.05014">
        <ele>1936</ele>
        <time>2021-01-16T11:28:20Z</time>
      </trkpt>
      <trkpt lat="45.30415" lon="6.05014">
        <ele>1936</ele>
        <time>2021-01-16T11:28:21Z</time>
      </trkpt>
      <trkpt lat="45.30415" lon="6.05014">
        <ele>1936</ele>
        <time>2021-01-16T11:28:22Z</time>
      </trkpt>
      <trkpt lat="45.30415" lon="6.05014">
        <ele>1936</ele>
        <time>2021-01-16T11:28:23Z</time>
      </trkpt>
      <trkpt lat="45.30415" lon="6.05014">
        <ele>1936</ele>
        <time>2021-01-16T11:28:24Z</time>
      </trkpt>
      <trkpt lat="45.30415" lon="6.05014">
        <ele>1936</ele>
        <time>2021-01-16T11:28:25Z</time>
      </trkpt>
      <trkpt lat="45.30415" lon="6.05014">
        <ele>1936</ele>
        <time>2021-01-16T11:28:26Z</time>
      </trkpt>
      <trkpt lat="45.30415" lon="6.05014">
        <ele>1936</ele>
        <time>2021-01-16T11:28:27Z</time>
      </trkpt>
      <trkpt lat="45.30415" lon="6.05014">
        <ele>1936</ele>
        <time>2021-01-16T11:28:28Z</time>
      </trkpt>
      <trkpt lat="45.30415" lon="6.05014">
        <ele>1936</ele>
        <time>2021-01-16T11:28:29Z</time>
      </trkpt>
      <trkpt lat="45.30415" lon="6.05014">
        <ele>1936</ele>
        <time>2021-01-16T11:28:30Z</time>
      </trkpt>
      <trkpt lat="45.30415" lon="6.05014">
        <ele>1936</ele>
        <time>2021-01-16T11:28:31Z</time>
      </trkpt>
      <trkpt lat="45.30415" lon="6.05014">
        <ele>1936</ele>
        <time>2021-01-16T11:28:32Z</time>
      </trkpt>
      <trkpt lat="45.30415" lon="6.05014">
        <ele>1936</ele>
        <time>2021-01-16T11:28:33Z</time>
      </trkpt>
      <trkpt lat="45.30415" lon="6.05014">
        <ele>1936</ele>
        <time>2021-01-16T11:28:34Z</time>
      </trkpt>
      <trkpt lat="45.30415" lon="6.05014">
        <ele>1936</ele>
        <time>2021-01-16T11:28:35Z</time>
      </trkpt>
      <trkpt lat="45.30415" lon="6.05014">
        <ele>1936</ele>
        <time>2021-01-16T11:28:36Z</time>
      </trkpt>
      <trkpt lat="45.30415" lon="6.05014">
        <ele>1936</ele>
        <time>2021-01-16T11:28:37Z</time>
      </trkpt>
      <trkpt lat="45.30415" lon="6.05014">
        <ele>1936</ele>
        <time>2021-01-16T11:28:38Z</time>
      </trkpt>
      <trkpt lat="45.30415" lon="6.05014">
        <ele>1936</ele>
        <time>2021-01-16T11:28:39Z</time>
      </trkpt>
      <trkpt lat="45.30415" lon="6.05014">
        <ele>1936</ele>
        <time>2021-01-16T11:28:40Z</time>
      </trkpt>
      <trkpt lat="45.30415" lon="6.05014">
        <ele>1936</ele>
        <time>2021-01-16T11:28:41Z</time>
      </trkpt>
      <trkpt lat="45.30415" lon="6.05014">
        <ele>1936</ele>
        <time>2021-01-16T11:28:42Z</time>
      </trkpt>
      <trkpt lat="45.30415" lon="6.05014">
        <ele>1936</ele>
        <time>2021-01-16T11:28:43Z</time>
      </trkpt>
      <trkpt lat="45.30415" lon="6.05014">
        <ele>1936</ele>
        <time>2021-01-16T11:28:44Z</time>
      </trkpt>
      <trkpt lat="45.30415" lon="6.05014">
        <ele>1936</ele>
        <time>2021-01-16T11:28:45Z</time>
      </trkpt>
      <trkpt lat="45.30415" lon="6.05014">
        <ele>1936</ele>
        <time>2021-01-16T11:28:46Z</time>
      </trkpt>
      <trkpt lat="45.30415" lon="6.05014">
        <ele>1936</ele>
        <time>2021-01-16T11:28:47Z</time>
      </trkpt>
      <trkpt lat="45.30415" lon="6.05014">
        <ele>1936</ele>
        <time>2021-01-16T11:28:48Z</time>
      </trkpt>
      <trkpt lat="45.30415" lon="6.05014">
        <ele>1936</ele>
        <time>2021-01-16T11:28:49Z</time>
      </trkpt>
      <trkpt lat="45.30415" lon="6.05014">
        <ele>1936</ele>
        <time>2021-01-16T11:28:50Z</time>
      </trkpt>
      <trkpt lat="45.30415" lon="6.05014">
        <ele>1936</ele>
        <time>2021-01-16T11:28:51Z</time>
      </trkpt>
      <trkpt lat="45.30415" lon="6.05014">
        <ele>1936</ele>
        <time>2021-01-16T11:28:52Z</time>
      </trkpt>
      <trkpt lat="45.30415" lon="6.05014">
        <ele>1936</ele>
        <time>2021-01-16T11:28:53Z</time>
      </trkpt>
      <trkpt lat="45.30415" lon="6.05014">
        <ele>1936.2</ele>
        <time>2021-01-16T11:28:54Z</time>
      </trkpt>
      <trkpt lat="45.30415" lon="6.05014">
        <ele>1936.2</ele>
        <time>2021-01-16T11:28:55Z</time>
      </trkpt>
      <trkpt lat="45.30415" lon="6.05014">
        <ele>1936.2</ele>
        <time>2021-01-16T11:28:56Z</time>
      </trkpt>
      <trkpt lat="45.30415" lon="6.05014">
        <ele>1936.2</ele>
        <time>2021-01-16T11:28:57Z</time>
      </trkpt>
      <trkpt lat="45.30415" lon="6.05014">
        <ele>1936.2</ele>
        <time>2021-01-16T11:28:58Z</time>
      </trkpt>
      <trkpt lat="45.30415" lon="6.05014">
        <ele>1936.2</ele>
        <time>2021-01-16T11:28:59Z</time>
      </trkpt>
      <trkpt lat="45.30415" lon="6.05014">
        <ele>1936.2</ele>
        <time>2021-01-16T11:29:00Z</time>
      </trkpt>
      <trkpt lat="45.30415" lon="6.05014">
        <ele>1936.2</ele>
        <time>2021-01-16T11:29:01Z</time>
      </trkpt>
      <trkpt lat="45.30415" lon="6.05014">
        <ele>1936.2</ele>
        <time>2021-01-16T11:29:02Z</time>
      </trkpt>
      <trkpt lat="45.30415" lon="6.05014">
        <ele>1936.2</ele>
        <time>2021-01-16T11:29:03Z</time>
      </trkpt>
      <trkpt lat="45.30415" lon="6.05014">
        <ele>1936.2</ele>
        <time>2021-01-16T11:29:04Z</time>
      </trkpt>
      <trkpt lat="45.30415" lon="6.05014">
        <ele>1936.2</ele>
        <time>2021-01-16T11:29:05Z</time>
      </trkpt>
      <trkpt lat="45.30415" lon="6.05014">
        <ele>1936.2</ele>
        <time>2021-01-16T11:29:06Z</time>
      </trkpt>
      <trkpt lat="45.30415" lon="6.05014">
        <ele>1936.2</ele>
        <time>2021-01-16T11:29:07Z</time>
      </trkpt>
      <trkpt lat="45.30415" lon="6.05014">
        <ele>1936.2</ele>
        <time>2021-01-16T11:29:08Z</time>
      </trkpt>
      <trkpt lat="45.30415" lon="6.05014">
        <ele>1936.2</ele>
        <time>2021-01-16T11:29:09Z</time>
      </trkpt>
      <trkpt lat="45.30415" lon="6.05014">
        <ele>1936.2</ele>
        <time>2021-01-16T11:29:10Z</time>
      </trkpt>
      <trkpt lat="45.30415" lon="6.05014">
        <ele>1936.2</ele>
        <time>2021-01-16T11:29:11Z</time>
      </trkpt>
      <trkpt lat="45.30415" lon="6.05014">
        <ele>1936.2</ele>
        <time>2021-01-16T11:29:12Z</time>
      </trkpt>
      <trkpt lat="45.30415" lon="6.05014">
        <ele>1936.2</ele>
        <time>2021-01-16T11:29:13Z</time>
      </trkpt>
      <trkpt lat="45.30415" lon="6.05014">
        <ele>1936.2</ele>
        <time>2021-01-16T11:29:14Z</time>
      </trkpt>
      <trkpt lat="45.30415" lon="6.05014">
        <ele>1936.2</ele>
        <time>2021-01-16T11:29:15Z</time>
      </trkpt>
      <trkpt lat="45.30415" lon="6.05014">
        <ele>1936.2</ele>
        <time>2021-01-16T11:29:16Z</time>
      </trkpt>
      <trkpt lat="45.30415" lon="6.05014">
        <ele>1936</ele>
        <time>2021-01-16T11:29:17Z</time>
      </trkpt>
      <trkpt lat="45.30415" lon="6.05014">
        <ele>1936</ele>
        <time>2021-01-16T11:29:18Z</time>
      </trkpt>
      <trkpt lat="45.30415" lon="6.05014">
        <ele>1936</ele>
        <time>2021-01-16T11:29:19Z</time>
      </trkpt>
      <trkpt lat="45.30415" lon="6.05014">
        <ele>1936</ele>
        <time>2021-01-16T11:29:20Z</time>
      </trkpt>
      <trkpt lat="45.30415" lon="6.05014">
        <ele>1936</ele>
        <time>2021-01-16T11:29:21Z</time>
      </trkpt>
      <trkpt lat="45.30415" lon="6.05014">
        <ele>1936</ele>
        <time>2021-01-16T11:29:22Z</time>
      </trkpt>
      <trkpt lat="45.30415" lon="6.05014">
        <ele>1936.2</ele>
        <time>2021-01-16T11:29:23Z</time>
      </trkpt>
      <trkpt lat="45.30415" lon="6.05014">
        <ele>1936.2</ele>
        <time>2021-01-16T11:29:24Z</time>
      </trkpt>
      <trkpt lat="45.30415" lon="6.05014">
        <ele>1936.2</ele>
        <time>2021-01-16T11:29:25Z</time>
      </trkpt>
      <trkpt lat="45.30415" lon="6.05014">
        <ele>1936.2</ele>
        <time>2021-01-16T11:29:26Z</time>
      </trkpt>
      <trkpt lat="45.30415" lon="6.05014">
        <ele>1936.2</ele>
        <time>2021-01-16T11:29:27Z</time>
      </trkpt>
      <trkpt lat="45.30415" lon="6.05014">
        <ele>1936.2</ele>
        <time>2021-01-16T11:29:28Z</time>
      </trkpt>
      <trkpt lat="45.30415" lon="6.05014">
        <ele>1936.2</ele>
        <time>2021-01-16T11:29:29Z</time>
      </trkpt>
      <trkpt lat="45.30415" lon="6.05014">
        <ele>1936.2</ele>
        <time>2021-01-16T11:29:30Z</time>
      </trkpt>
      <trkpt lat="45.30415" lon="6.05014">
        <ele>1936.2</ele>
        <time>2021-01-16T11:29:31Z</time>
      </trkpt>
      <trkpt lat="45.30415" lon="6.05014">
        <ele>1936.2</ele>
        <time>2021-01-16T11:29:32Z</time>
      </trkpt>
      <trkpt lat="45.30415" lon="6.05014">
        <ele>1936.2</ele>
        <time>2021-01-16T11:29:33Z</time>
      </trkpt>
      <trkpt lat="45.30415" lon="6.05014">
        <ele>1936.2</ele>
        <time>2021-01-16T11:29:34Z</time>
      </trkpt>
      <trkpt lat="45.30415" lon="6.05014">
        <ele>1936.2</ele>
        <time>2021-01-16T11:29:35Z</time>
      </trkpt>
      <trkpt lat="45.30415" lon="6.05014">
        <ele>1936.2</ele>
        <time>2021-01-16T11:29:36Z</time>
      </trkpt>
      <trkpt lat="45.30415" lon="6.05014">
        <ele>1936.2</ele>
        <time>2021-01-16T11:29:37Z</time>
      </trkpt>
      <trkpt lat="45.30415" lon="6.05014">
        <ele>1936.2</ele>
        <time>2021-01-16T11:29:38Z</time>
      </trkpt>
      <trkpt lat="45.30415" lon="6.05014">
        <ele>1936.2</ele>
        <time>2021-01-16T11:29:39Z</time>
      </trkpt>
      <trkpt lat="45.30415" lon="6.05014">
        <ele>1936.2</ele>
        <time>2021-01-16T11:29:40Z</time>
      </trkpt>
      <trkpt lat="45.30415" lon="6.05014">
        <ele>1936.2</ele>
        <time>2021-01-16T11:29:41Z</time>
      </trkpt>
      <trkpt lat="45.30415" lon="6.05014">
        <ele>1936.2</ele>
        <time>2021-01-16T11:29:42Z</time>
      </trkpt>
      <trkpt lat="45.30415" lon="6.05014">
        <ele>1936.2</ele>
        <time>2021-01-16T11:29:43Z</time>
      </trkpt>
      <trkpt lat="45.30415" lon="6.05014">
        <ele>1936.2</ele>
        <time>2021-01-16T11:29:44Z</time>
      </trkpt>
      <trkpt lat="45.30415" lon="6.05014">
        <ele>1936.2</ele>
        <time>2021-01-16T11:29:45Z</time>
      </trkpt>
      <trkpt lat="45.30415" lon="6.05014">
        <ele>1936.2</ele>
        <time>2021-01-16T11:29:46Z</time>
      </trkpt>
      <trkpt lat="45.30415" lon="6.05014">
        <ele>1936.2</ele>
        <time>2021-01-16T11:29:47Z</time>
      </trkpt>
      <trkpt lat="45.30415" lon="6.05014">
        <ele>1936.2</ele>
        <time>2021-01-16T11:29:48Z</time>
      </trkpt>
      <trkpt lat="45.30415" lon="6.05014">
        <ele>1936.2</ele>
        <time>2021-01-16T11:29:49Z</time>
      </trkpt>
      <trkpt lat="45.30415" lon="6.05014">
        <ele>1936.2</ele>
        <time>2021-01-16T11:29:50Z</time>
      </trkpt>
      <trkpt lat="45.30415" lon="6.05014">
        <ele>1936.2</ele>
        <time>2021-01-16T11:29:51Z</time>
      </trkpt>
      <trkpt lat="45.30415" lon="6.05014">
        <ele>1936.2</ele>
        <time>2021-01-16T11:29:52Z</time>
      </trkpt>
      <trkpt lat="45.30415" lon="6.05014">
        <ele>1936.2</ele>
        <time>2021-01-16T11:29:53Z</time>
      </trkpt>
      <trkpt lat="45.30415" lon="6.05014">
        <ele>1936.2</ele>
        <time>2021-01-16T11:29:54Z</time>
      </trkpt>
      <trkpt lat="45.30415" lon="6.05014">
        <ele>1936.2</ele>
        <time>2021-01-16T11:29:55Z</time>
      </trkpt>
      <trkpt lat="45.30415" lon="6.05014">
        <ele>1936.2</ele>
        <time>2021-01-16T11:29:56Z</time>
      </trkpt>
      <trkpt lat="45.30415" lon="6.05014">
        <ele>1936.2</ele>
        <time>2021-01-16T11:29:57Z</time>
      </trkpt>
      <trkpt lat="45.30415" lon="6.05014">
        <ele>1936.2</ele>
        <time>2021-01-16T11:29:58Z</time>
      </trkpt>
      <trkpt lat="45.30415" lon="6.05014">
        <ele>1936.2</ele>
        <time>2021-01-16T11:29:59Z</time>
      </trkpt>
      <trkpt lat="45.30415" lon="6.05014">
        <ele>1936.2</ele>
        <time>2021-01-16T11:30:00Z</time>
      </trkpt>
      <trkpt lat="45.30415" lon="6.05014">
        <ele>1936.2</ele>
        <time>2021-01-16T11:30:01Z</time>
      </trkpt>
      <trkpt lat="45.30415" lon="6.05014">
        <ele>1936.2</ele>
        <time>2021-01-16T11:30:02Z</time>
      </trkpt>
      <trkpt lat="45.30415" lon="6.05014">
        <ele>1936.2</ele>
        <time>2021-01-16T11:30:03Z</time>
      </trkpt>
      <trkpt lat="45.30415" lon="6.05014">
        <ele>1936.2</ele>
        <time>2021-01-16T11:30:04Z</time>
      </trkpt>
      <trkpt lat="45.30415" lon="6.05014">
        <ele>1936.2</ele>
        <time>2021-01-16T11:30:05Z</time>
      </trkpt>
      <trkpt lat="45.30415" lon="6.05014">
        <ele>1936.2</ele>
        <time>2021-01-16T11:30:06Z</time>
      </trkpt>
      <trkpt lat="45.30415" lon="6.05014">
        <ele>1936.4</ele>
        <time>2021-01-16T11:30:07Z</time>
      </trkpt>
      <trkpt lat="45.30415" lon="6.05014">
        <ele>1936.4</ele>
        <time>2021-01-16T11:30:08Z</time>
      </trkpt>
      <trkpt lat="45.30415" lon="6.05014">
        <ele>1936.4</ele>
        <time>2021-01-16T11:30:09Z</time>
      </trkpt>
      <trkpt lat="45.30415" lon="6.05014">
        <ele>1936.4</ele>
        <time>2021-01-16T11:30:10Z</time>
      </trkpt>
      <trkpt lat="45.30415" lon="6.05014">
        <ele>1936.2</ele>
        <time>2021-01-16T11:30:11Z</time>
      </trkpt>
      <trkpt lat="45.30415" lon="6.05014">
        <ele>1936.4</ele>
        <time>2021-01-16T11:30:12Z</time>
      </trkpt>
      <trkpt lat="45.30415" lon="6.05014">
        <ele>1936.4</ele>
        <time>2021-01-16T11:30:13Z</time>
      </trkpt>
      <trkpt lat="45.30415" lon="6.05014">
        <ele>1936.4</ele>
        <time>2021-01-16T11:30:14Z</time>
      </trkpt>
      <trkpt lat="45.30415" lon="6.05014">
        <ele>1936.4</ele>
        <time>2021-01-16T11:30:15Z</time>
      </trkpt>
      <trkpt lat="45.30415" lon="6.05014">
        <ele>1936.4</ele>
        <time>2021-01-16T11:30:16Z</time>
      </trkpt>
      <trkpt lat="45.30415" lon="6.05014">
        <ele>1936.4</ele>
        <time>2021-01-16T11:30:17Z</time>
      </trkpt>
      <trkpt lat="45.30415" lon="6.05014">
        <ele>1936.4</ele>
        <time>2021-01-16T11:30:18Z</time>
      </trkpt>
      <trkpt lat="45.30415" lon="6.05014">
        <ele>1936.4</ele>
        <time>2021-01-16T11:30:19Z</time>
      </trkpt>
      <trkpt lat="45.30415" lon="6.05014">
        <ele>1936.4</ele>
        <time>2021-01-16T11:30:20Z</time>
      </trkpt>
      <trkpt lat="45.30415" lon="6.05014">
        <ele>1936.4</ele>
        <time>2021-01-16T11:30:21Z</time>
      </trkpt>
      <trkpt lat="45.30415" lon="6.05014">
        <ele>1936.4</ele>
        <time>2021-01-16T11:30:22Z</time>
      </trkpt>
      <trkpt lat="45.30415" lon="6.05014">
        <ele>1936.4</ele>
        <time>2021-01-16T11:30:23Z</time>
      </trkpt>
      <trkpt lat="45.30415" lon="6.05014">
        <ele>1936.4</ele>
        <time>2021-01-16T11:30:24Z</time>
      </trkpt>
      <trkpt lat="45.30415" lon="6.05014">
        <ele>1936.4</ele>
        <time>2021-01-16T11:30:25Z</time>
      </trkpt>
      <trkpt lat="45.30415" lon="6.05014">
        <ele>1936.4</ele>
        <time>2021-01-16T11:30:26Z</time>
      </trkpt>
      <trkpt lat="45.30415" lon="6.05014">
        <ele>1936.4</ele>
        <time>2021-01-16T11:30:27Z</time>
      </trkpt>
      <trkpt lat="45.30415" lon="6.05014">
        <ele>1936.4</ele>
        <time>2021-01-16T11:30:28Z</time>
      </trkpt>
      <trkpt lat="45.30415" lon="6.05014">
        <ele>1936.4</ele>
        <time>2021-01-16T11:30:29Z</time>
      </trkpt>
      <trkpt lat="45.30415" lon="6.05014">
        <ele>1936.4</ele>
        <time>2021-01-16T11:30:30Z</time>
      </trkpt>
      <trkpt lat="45.30415" lon="6.05014">
        <ele>1936.4</ele>
        <time>2021-01-16T11:30:31Z</time>
      </trkpt>
      <trkpt lat="45.30415" lon="6.05014">
        <ele>1936.4</ele>
        <time>2021-01-16T11:30:32Z</time>
      </trkpt>
      <trkpt lat="45.30415" lon="6.05014">
        <ele>1936.4</ele>
        <time>2021-01-16T11:30:33Z</time>
      </trkpt>
      <trkpt lat="45.30415" lon="6.05014">
        <ele>1936.4</ele>
        <time>2021-01-16T11:30:34Z</time>
      </trkpt>
      <trkpt lat="45.30415" lon="6.05014">
        <ele>1936.6</ele>
        <time>2021-01-16T11:30:35Z</time>
      </trkpt>
      <trkpt lat="45.30415" lon="6.05014">
        <ele>1936.6</ele>
        <time>2021-01-16T11:30:36Z</time>
      </trkpt>
      <trkpt lat="45.30415" lon="6.05014">
        <ele>1936.6</ele>
        <time>2021-01-16T11:30:37Z</time>
      </trkpt>
      <trkpt lat="45.30415" lon="6.05014">
        <ele>1936.4</ele>
        <time>2021-01-16T11:30:38Z</time>
      </trkpt>
      <trkpt lat="45.30415" lon="6.05014">
        <ele>1936.4</ele>
        <time>2021-01-16T11:30:39Z</time>
      </trkpt>
      <trkpt lat="45.30415" lon="6.05014">
        <ele>1936.4</ele>
        <time>2021-01-16T11:30:40Z</time>
      </trkpt>
      <trkpt lat="45.30415" lon="6.05014">
        <ele>1936.4</ele>
        <time>2021-01-16T11:30:41Z</time>
      </trkpt>
      <trkpt lat="45.30415" lon="6.05014">
        <ele>1936.4</ele>
        <time>2021-01-16T11:30:42Z</time>
      </trkpt>
      <trkpt lat="45.30415" lon="6.05014">
        <ele>1936.4</ele>
        <time>2021-01-16T11:30:43Z</time>
      </trkpt>
      <trkpt lat="45.30415" lon="6.05014">
        <ele>1936.6</ele>
        <time>2021-01-16T11:30:44Z</time>
      </trkpt>
      <trkpt lat="45.30415" lon="6.05014">
        <ele>1936.6</ele>
        <time>2021-01-16T11:30:45Z</time>
      </trkpt>
      <trkpt lat="45.30415" lon="6.05014">
        <ele>1936.6</ele>
        <time>2021-01-16T11:30:46Z</time>
      </trkpt>
      <trkpt lat="45.30415" lon="6.05014">
        <ele>1936.6</ele>
        <time>2021-01-16T11:30:47Z</time>
      </trkpt>
      <trkpt lat="45.30415" lon="6.05014">
        <ele>1936.6</ele>
        <time>2021-01-16T11:30:48Z</time>
      </trkpt>
      <trkpt lat="45.30415" lon="6.05014">
        <ele>1936.6</ele>
        <time>2021-01-16T11:30:49Z</time>
      </trkpt>
      <trkpt lat="45.30415" lon="6.05014">
        <ele>1936.6</ele>
        <time>2021-01-16T11:30:50Z</time>
      </trkpt>
      <trkpt lat="45.30415" lon="6.05014">
        <ele>1936.6</ele>
        <time>2021-01-16T11:30:51Z</time>
      </trkpt>
      <trkpt lat="45.30415" lon="6.05014">
        <ele>1936.6</ele>
        <time>2021-01-16T11:30:52Z</time>
      </trkpt>
      <trkpt lat="45.30415" lon="6.05014">
        <ele>1936.6</ele>
        <time>2021-01-16T11:30:53Z</time>
      </trkpt>
      <trkpt lat="45.30415" lon="6.05014">
        <ele>1936.6</ele>
        <time>2021-01-16T11:30:54Z</time>
      </trkpt>
      <trkpt lat="45.30415" lon="6.05014">
        <ele>1936.6</ele>
        <time>2021-01-16T11:30:55Z</time>
      </trkpt>
      <trkpt lat="45.30415" lon="6.05014">
        <ele>1936.6</ele>
        <time>2021-01-16T11:30:56Z</time>
      </trkpt>
      <trkpt lat="45.30415" lon="6.05014">
        <ele>1936.6</ele>
        <time>2021-01-16T11:30:57Z</time>
      </trkpt>
      <trkpt lat="45.30415" lon="6.05014">
        <ele>1936.6</ele>
        <time>2021-01-16T11:30:58Z</time>
      </trkpt>
      <trkpt lat="45.30415" lon="6.05014">
        <ele>1936.6</ele>
        <time>2021-01-16T11:30:59Z</time>
      </trkpt>
      <trkpt lat="45.30415" lon="6.05014">
        <ele>1936.6</ele>
        <time>2021-01-16T11:31:00Z</time>
      </trkpt>
      <trkpt lat="45.30415" lon="6.05014">
        <ele>1936.6</ele>
        <time>2021-01-16T11:31:01Z</time>
      </trkpt>
      <trkpt lat="45.30415" lon="6.05014">
        <ele>1936.6</ele>
        <time>2021-01-16T11:31:02Z</time>
      </trkpt>
      <trkpt lat="45.30415" lon="6.05014">
        <ele>1936.6</ele>
        <time>2021-01-16T11:31:03Z</time>
      </trkpt>
      <trkpt lat="45.30415" lon="6.05014">
        <ele>1936.8</ele>
        <time>2021-01-16T11:31:04Z</time>
      </trkpt>
      <trkpt lat="45.30415" lon="6.05014">
        <ele>1936.8</ele>
        <time>2021-01-16T11:31:05Z</time>
      </trkpt>
      <trkpt lat="45.30415" lon="6.05014">
        <ele>1936.8</ele>
        <time>2021-01-16T11:31:06Z</time>
      </trkpt>
      <trkpt lat="45.30415" lon="6.05014">
        <ele>1936.8</ele>
        <time>2021-01-16T11:31:07Z</time>
      </trkpt>
      <trkpt lat="45.30415" lon="6.05014">
        <ele>1936.8</ele>
        <time>2021-01-16T11:31:08Z</time>
      </trkpt>
      <trkpt lat="45.30415" lon="6.05014">
        <ele>1936.8</ele>
        <time>2021-01-16T11:31:09Z</time>
      </trkpt>
      <trkpt lat="45.30415" lon="6.05014">
        <ele>1936.8</ele>
        <time>2021-01-16T11:31:10Z</time>
      </trkpt>
      <trkpt lat="45.30415" lon="6.05014">
        <ele>1936.8</ele>
        <time>2021-01-16T11:31:11Z</time>
      </trkpt>
      <trkpt lat="45.30415" lon="6.05014">
        <ele>1936.8</ele>
        <time>2021-01-16T11:31:12Z</time>
      </trkpt>
      <trkpt lat="45.30415" lon="6.05014">
        <ele>1936.8</ele>
        <time>2021-01-16T11:31:13Z</time>
      </trkpt>
      <trkpt lat="45.30415" lon="6.05014">
        <ele>1936.8</ele>
        <time>2021-01-16T11:31:14Z</time>
      </trkpt>
      <trkpt lat="45.30415" lon="6.05014">
        <ele>1936.8</ele>
        <time>2021-01-16T11:31:15Z</time>
      </trkpt>
      <trkpt lat="45.30415" lon="6.05014">
        <ele>1936.8</ele>
        <time>2021-01-16T11:31:16Z</time>
      </trkpt>
      <trkpt lat="45.30415" lon="6.05014">
        <ele>1936.8</ele>
        <time>2021-01-16T11:31:17Z</time>
      </trkpt>
      <trkpt lat="45.30415" lon="6.05014">
        <ele>1936.8</ele>
        <time>2021-01-16T11:31:18Z</time>
      </trkpt>
      <trkpt lat="45.30415" lon="6.05014">
        <ele>1936.8</ele>
        <time>2021-01-16T11:31:19Z</time>
      </trkpt>
      <trkpt lat="45.30415" lon="6.05014">
        <ele>1936.8</ele>
        <time>2021-01-16T11:31:20Z</time>
      </trkpt>
      <trkpt lat="45.30415" lon="6.05014">
        <ele>1936.8</ele>
        <time>2021-01-16T11:31:21Z</time>
      </trkpt>
      <trkpt lat="45.30415" lon="6.05014">
        <ele>1936.8</ele>
        <time>2021-01-16T11:31:22Z</time>
      </trkpt>
      <trkpt lat="45.30415" lon="6.05014">
        <ele>1936.8</ele>
        <time>2021-01-16T11:31:23Z</time>
      </trkpt>
      <trkpt lat="45.30415" lon="6.05014">
        <ele>1936.8</ele>
        <time>2021-01-16T11:31:24Z</time>
      </trkpt>
      <trkpt lat="45.30415" lon="6.05014">
        <ele>1936.8</ele>
        <time>2021-01-16T11:31:25Z</time>
      </trkpt>
      <trkpt lat="45.30415" lon="6.05014">
        <ele>1936.8</ele>
        <time>2021-01-16T11:31:26Z</time>
      </trkpt>
      <trkpt lat="45.30415" lon="6.05014">
        <ele>1936.8</ele>
        <time>2021-01-16T11:31:27Z</time>
      </trkpt>
      <trkpt lat="45.30415" lon="6.05014">
        <ele>1936.8</ele>
        <time>2021-01-16T11:31:28Z</time>
      </trkpt>
      <trkpt lat="45.30415" lon="6.05014">
        <ele>1937</ele>
        <time>2021-01-16T11:31:29Z</time>
      </trkpt>
      <trkpt lat="45.30415" lon="6.05014">
        <ele>1937</ele>
        <time>2021-01-16T11:31:30Z</time>
      </trkpt>
      <trkpt lat="45.30415" lon="6.05014">
        <ele>1937</ele>
        <time>2021-01-16T11:31:31Z</time>
      </trkpt>
      <trkpt lat="45.30415" lon="6.05014">
        <ele>1936.8</ele>
        <time>2021-01-16T11:31:32Z</time>
      </trkpt>
      <trkpt lat="45.30415" lon="6.05014">
        <ele>1937</ele>
        <time>2021-01-16T11:31:33Z</time>
      </trkpt>
      <trkpt lat="45.30415" lon="6.05014">
        <ele>1937</ele>
        <time>2021-01-16T11:31:34Z</time>
      </trkpt>
      <trkpt lat="45.30415" lon="6.05014">
        <ele>1937</ele>
        <time>2021-01-16T11:31:35Z</time>
      </trkpt>
      <trkpt lat="45.30415" lon="6.05014">
        <ele>1937</ele>
        <time>2021-01-16T11:31:36Z</time>
      </trkpt>
      <trkpt lat="45.30415" lon="6.05014">
        <ele>1937</ele>
        <time>2021-01-16T11:31:37Z</time>
      </trkpt>
      <trkpt lat="45.30415" lon="6.05014">
        <ele>1937</ele>
        <time>2021-01-16T11:31:38Z</time>
      </trkpt>
      <trkpt lat="45.30415" lon="6.05014">
        <ele>1937</ele>
        <time>2021-01-16T11:31:39Z</time>
      </trkpt>
      <trkpt lat="45.30415" lon="6.05014">
        <ele>1937</ele>
        <time>2021-01-16T11:31:40Z</time>
      </trkpt>
      <trkpt lat="45.30415" lon="6.05014">
        <ele>1937</ele>
        <time>2021-01-16T11:31:41Z</time>
      </trkpt>
      <trkpt lat="45.30415" lon="6.05014">
        <ele>1937</ele>
        <time>2021-01-16T11:31:42Z</time>
      </trkpt>
      <trkpt lat="45.30415" lon="6.05014">
        <ele>1937</ele>
        <time>2021-01-16T11:31:43Z</time>
      </trkpt>
      <trkpt lat="45.30415" lon="6.05014">
        <ele>1937</ele>
        <time>2021-01-16T11:31:44Z</time>
      </trkpt>
      <trkpt lat="45.30415" lon="6.05014">
        <ele>1937</ele>
        <time>2021-01-16T11:31:45Z</time>
      </trkpt>
      <trkpt lat="45.30415" lon="6.05014">
        <ele>1937</ele>
        <time>2021-01-16T11:31:46Z</time>
      </trkpt>
      <trkpt lat="45.30415" lon="6.05014">
        <ele>1937</ele>
        <time>2021-01-16T11:31:47Z</time>
      </trkpt>
      <trkpt lat="45.30415" lon="6.05014">
        <ele>1937</ele>
        <time>2021-01-16T11:31:48Z</time>
      </trkpt>
      <trkpt lat="45.30415" lon="6.05014">
        <ele>1937</ele>
        <time>2021-01-16T11:31:49Z</time>
      </trkpt>
      <trkpt lat="45.30415" lon="6.05014">
        <ele>1937</ele>
        <time>2021-01-16T11:31:50Z</time>
      </trkpt>
      <trkpt lat="45.30415" lon="6.05014">
        <ele>1937</ele>
        <time>2021-01-16T11:31:51Z</time>
      </trkpt>
      <trkpt lat="45.30415" lon="6.05014">
        <ele>1937</ele>
        <time>2021-01-16T11:31:52Z</time>
      </trkpt>
      <trkpt lat="45.30415" lon="6.05014">
        <ele>1937</ele>
        <time>2021-01-16T11:31:53Z</time>
      </trkpt>
      <trkpt lat="45.30415" lon="6.05014">
        <ele>1937</ele>
        <time>2021-01-16T11:31:54Z</time>
      </trkpt>
      <trkpt lat="45.30415" lon="6.05014">
        <ele>1937</ele>
        <time>2021-01-16T11:31:55Z</time>
      </trkpt>
      <trkpt lat="45.30415" lon="6.05014">
        <ele>1937</ele>
        <time>2021-01-16T11:31:56Z</time>
      </trkpt>
      <trkpt lat="45.30415" lon="6.05014">
        <ele>1937</ele>
        <time>2021-01-16T11:31:57Z</time>
      </trkpt>
      <trkpt lat="45.30415" lon="6.05014">
        <ele>1937</ele>
        <time>2021-01-16T11:31:58Z</time>
      </trkpt>
      <trkpt lat="45.30415" lon="6.05014">
        <ele>1937</ele>
        <time>2021-01-16T11:31:59Z</time>
      </trkpt>
      <trkpt lat="45.30415" lon="6.05014">
        <ele>1937</ele>
        <time>2021-01-16T11:32:00Z</time>
      </trkpt>
      <trkpt lat="45.30415" lon="6.05014">
        <ele>1937</ele>
        <time>2021-01-16T11:32:01Z</time>
      </trkpt>
      <trkpt lat="45.30415" lon="6.05014">
        <ele>1937</ele>
        <time>2021-01-16T11:32:02Z</time>
      </trkpt>
      <trkpt lat="45.30415" lon="6.05014">
        <ele>1937</ele>
        <time>2021-01-16T11:32:03Z</time>
      </trkpt>
      <trkpt lat="45.30415" lon="6.05014">
        <ele>1937</ele>
        <time>2021-01-16T11:32:04Z</time>
      </trkpt>
      <trkpt lat="45.30415" lon="6.05014">
        <ele>1937</ele>
        <time>2021-01-16T11:32:05Z</time>
      </trkpt>
      <trkpt lat="45.30415" lon="6.05014">
        <ele>1937</ele>
        <time>2021-01-16T11:32:06Z</time>
      </trkpt>
      <trkpt lat="45.30415" lon="6.05014">
        <ele>1937</ele>
        <time>2021-01-16T11:32:07Z</time>
      </trkpt>
      <trkpt lat="45.30415" lon="6.05014">
        <ele>1937</ele>
        <time>2021-01-16T11:32:08Z</time>
      </trkpt>
      <trkpt lat="45.30415" lon="6.05014">
        <ele>1937</ele>
        <time>2021-01-16T11:32:09Z</time>
      </trkpt>
      <trkpt lat="45.30415" lon="6.05014">
        <ele>1937</ele>
        <time>2021-01-16T11:32:10Z</time>
      </trkpt>
      <trkpt lat="45.30415" lon="6.05014">
        <ele>1937</ele>
        <time>2021-01-16T11:32:11Z</time>
      </trkpt>
      <trkpt lat="45.30415" lon="6.05014">
        <ele>1937</ele>
        <time>2021-01-16T11:32:12Z</time>
      </trkpt>
      <trkpt lat="45.30415" lon="6.05014">
        <ele>1937</ele>
        <time>2021-01-16T11:32:13Z</time>
      </trkpt>
      <trkpt lat="45.30415" lon="6.05014">
        <ele>1937</ele>
        <time>2021-01-16T11:32:14Z</time>
      </trkpt>
      <trkpt lat="45.30415" lon="6.05014">
        <ele>1937</ele>
        <time>2021-01-16T11:32:15Z</time>
      </trkpt>
      <trkpt lat="45.30415" lon="6.05014">
        <ele>1937</ele>
        <time>2021-01-16T11:32:16Z</time>
      </trkpt>
      <trkpt lat="45.30415" lon="6.05014">
        <ele>1937</ele>
        <time>2021-01-16T11:32:17Z</time>
      </trkpt>
      <trkpt lat="45.30415" lon="6.05014">
        <ele>1937</ele>
        <time>2021-01-16T11:32:18Z</time>
      </trkpt>
      <trkpt lat="45.30415" lon="6.05014">
        <ele>1937</ele>
        <time>2021-01-16T11:32:19Z</time>
      </trkpt>
      <trkpt lat="45.30415" lon="6.05014">
        <ele>1937.2</ele>
        <time>2021-01-16T11:32:20Z</time>
      </trkpt>
      <trkpt lat="45.30415" lon="6.05014">
        <ele>1937.2</ele>
        <time>2021-01-16T11:32:21Z</time>
      </trkpt>
      <trkpt lat="45.30415" lon="6.05014">
        <ele>1937.2</ele>
        <time>2021-01-16T11:32:22Z</time>
      </trkpt>
      <trkpt lat="45.30415" lon="6.05014">
        <ele>1937.2</ele>
        <time>2021-01-16T11:32:23Z</time>
      </trkpt>
      <trkpt lat="45.30415" lon="6.05014">
        <ele>1937.2</ele>
        <time>2021-01-16T11:32:24Z</time>
      </trkpt>
      <trkpt lat="45.30415" lon="6.05014">
        <ele>1937.2</ele>
        <time>2021-01-16T11:32:25Z</time>
      </trkpt>
      <trkpt lat="45.30415" lon="6.05014">
        <ele>1937.2</ele>
        <time>2021-01-16T11:32:26Z</time>
      </trkpt>
      <trkpt lat="45.30415" lon="6.05014">
        <ele>1937.2</ele>
        <time>2021-01-16T11:32:27Z</time>
      </trkpt>
      <trkpt lat="45.30415" lon="6.05014">
        <ele>1937.2</ele>
        <time>2021-01-16T11:32:28Z</time>
      </trkpt>
      <trkpt lat="45.30415" lon="6.05014">
        <ele>1937.2</ele>
        <time>2021-01-16T11:32:29Z</time>
      </trkpt>
      <trkpt lat="45.30415" lon="6.05014">
        <ele>1937.2</ele>
        <time>2021-01-16T11:32:30Z</time>
      </trkpt>
      <trkpt lat="45.30415" lon="6.05014">
        <ele>1937.2</ele>
        <time>2021-01-16T11:32:31Z</time>
      </trkpt>
      <trkpt lat="45.30415" lon="6.05014">
        <ele>1937.2</ele>
        <time>2021-01-16T11:32:32Z</time>
      </trkpt>
      <trkpt lat="45.30415" lon="6.05014">
        <ele>1937.2</ele>
        <time>2021-01-16T11:32:33Z</time>
      </trkpt>
      <trkpt lat="45.30415" lon="6.05014">
        <ele>1937.2</ele>
        <time>2021-01-16T11:32:34Z</time>
      </trkpt>
      <trkpt lat="45.30415" lon="6.05014">
        <ele>1937.2</ele>
        <time>2021-01-16T11:32:35Z</time>
      </trkpt>
      <trkpt lat="45.30415" lon="6.05014">
        <ele>1937.2</ele>
        <time>2021-01-16T11:32:36Z</time>
      </trkpt>
      <trkpt lat="45.30415" lon="6.05014">
        <ele>1937.2</ele>
        <time>2021-01-16T11:32:37Z</time>
      </trkpt>
      <trkpt lat="45.30415" lon="6.05014">
        <ele>1937.2</ele>
        <time>2021-01-16T11:32:38Z</time>
      </trkpt>
      <trkpt lat="45.30415" lon="6.05014">
        <ele>1937.2</ele>
        <time>2021-01-16T11:32:39Z</time>
      </trkpt>
      <trkpt lat="45.30415" lon="6.05014">
        <ele>1937.2</ele>
        <time>2021-01-16T11:32:40Z</time>
      </trkpt>
      <trkpt lat="45.30415" lon="6.05014">
        <ele>1937.2</ele>
        <time>2021-01-16T11:32:41Z</time>
      </trkpt>
      <trkpt lat="45.30415" lon="6.05014">
        <ele>1937.2</ele>
        <time>2021-01-16T11:32:42Z</time>
      </trkpt>
      <trkpt lat="45.30415" lon="6.05014">
        <ele>1937.2</ele>
        <time>2021-01-16T11:32:43Z</time>
      </trkpt>
      <trkpt lat="45.30415" lon="6.05014">
        <ele>1937.2</ele>
        <time>2021-01-16T11:32:44Z</time>
      </trkpt>
      <trkpt lat="45.30415" lon="6.05014">
        <ele>1937.4</ele>
        <time>2021-01-16T11:32:45Z</time>
      </trkpt>
      <trkpt lat="45.30415" lon="6.05014">
        <ele>1937.4</ele>
        <time>2021-01-16T11:32:46Z</time>
      </trkpt>
      <trkpt lat="45.30415" lon="6.05014">
        <ele>1937.4</ele>
        <time>2021-01-16T11:32:47Z</time>
      </trkpt>
      <trkpt lat="45.30415" lon="6.05014">
        <ele>1937.4</ele>
        <time>2021-01-16T11:32:48Z</time>
      </trkpt>
      <trkpt lat="45.30415" lon="6.05014">
        <ele>1937.4</ele>
        <time>2021-01-16T11:32:49Z</time>
      </trkpt>
      <trkpt lat="45.30415" lon="6.05014">
        <ele>1937.4</ele>
        <time>2021-01-16T11:32:50Z</time>
      </trkpt>
      <trkpt lat="45.30415" lon="6.05014">
        <ele>1937.4</ele>
        <time>2021-01-16T11:32:51Z</time>
      </trkpt>
      <trkpt lat="45.30415" lon="6.05014">
        <ele>1937.4</ele>
        <time>2021-01-16T11:32:52Z</time>
      </trkpt>
      <trkpt lat="45.30415" lon="6.05014">
        <ele>1937.4</ele>
        <time>2021-01-16T11:32:53Z</time>
      </trkpt>
      <trkpt lat="45.30415" lon="6.05014">
        <ele>1937.4</ele>
        <time>2021-01-16T11:32:54Z</time>
      </trkpt>
      <trkpt lat="45.30415" lon="6.05014">
        <ele>1937.4</ele>
        <time>2021-01-16T11:32:55Z</time>
      </trkpt>
      <trkpt lat="45.30415" lon="6.05014">
        <ele>1937.4</ele>
        <time>2021-01-16T11:32:56Z</time>
      </trkpt>
      <trkpt lat="45.30415" lon="6.05014">
        <ele>1937.4</ele>
        <time>2021-01-16T11:32:57Z</time>
      </trkpt>
      <trkpt lat="45.30415" lon="6.05014">
        <ele>1937.4</ele>
        <time>2021-01-16T11:32:58Z</time>
      </trkpt>
      <trkpt lat="45.30415" lon="6.05014">
        <ele>1937.4</ele>
        <time>2021-01-16T11:32:59Z</time>
      </trkpt>
      <trkpt lat="45.30415" lon="6.05014">
        <ele>1937.4</ele>
        <time>2021-01-16T11:33:00Z</time>
      </trkpt>
      <trkpt lat="45.30415" lon="6.05014">
        <ele>1937.4</ele>
        <time>2021-01-16T11:33:01Z</time>
      </trkpt>
      <trkpt lat="45.30415" lon="6.05014">
        <ele>1937.4</ele>
        <time>2021-01-16T11:33:02Z</time>
      </trkpt>
      <trkpt lat="45.30415" lon="6.05014">
        <ele>1937.4</ele>
        <time>2021-01-16T11:33:03Z</time>
      </trkpt>
      <trkpt lat="45.30415" lon="6.05014">
        <ele>1937.4</ele>
        <time>2021-01-16T11:33:04Z</time>
      </trkpt>
      <trkpt lat="45.30415" lon="6.05014">
        <ele>1937.6</ele>
        <time>2021-01-16T11:33:05Z</time>
      </trkpt>
      <trkpt lat="45.30415" lon="6.05014">
        <ele>1937.6</ele>
        <time>2021-01-16T11:33:06Z</time>
      </trkpt>
      <trkpt lat="45.30415" lon="6.05014">
        <ele>1937.6</ele>
        <time>2021-01-16T11:33:07Z</time>
      </trkpt>
      <trkpt lat="45.30415" lon="6.05014">
        <ele>1937.6</ele>
        <time>2021-01-16T11:33:08Z</time>
      </trkpt>
      <trkpt lat="45.30415" lon="6.05014">
        <ele>1937.6</ele>
        <time>2021-01-16T11:33:09Z</time>
      </trkpt>
      <trkpt lat="45.30415" lon="6.05014">
        <ele>1937.6</ele>
        <time>2021-01-16T11:33:10Z</time>
      </trkpt>
      <trkpt lat="45.30415" lon="6.05014">
        <ele>1937.6</ele>
        <time>2021-01-16T11:33:11Z</time>
      </trkpt>
      <trkpt lat="45.30415" lon="6.05014">
        <ele>1937.6</ele>
        <time>2021-01-16T11:33:12Z</time>
      </trkpt>
      <trkpt lat="45.30415" lon="6.05014">
        <ele>1937.6</ele>
        <time>2021-01-16T11:33:13Z</time>
      </trkpt>
      <trkpt lat="45.30415" lon="6.05014">
        <ele>1937.6</ele>
        <time>2021-01-16T11:33:14Z</time>
      </trkpt>
      <trkpt lat="45.30415" lon="6.05014">
        <ele>1937.6</ele>
        <time>2021-01-16T11:33:15Z</time>
      </trkpt>
      <trkpt lat="45.30415" lon="6.05014">
        <ele>1937.6</ele>
        <time>2021-01-16T11:33:16Z</time>
      </trkpt>
      <trkpt lat="45.30415" lon="6.05014">
        <ele>1937.6</ele>
        <time>2021-01-16T11:33:17Z</time>
      </trkpt>
      <trkpt lat="45.30415" lon="6.05014">
        <ele>1937.6</ele>
        <time>2021-01-16T11:33:18Z</time>
      </trkpt>
      <trkpt lat="45.30415" lon="6.05014">
        <ele>1937.6</ele>
        <time>2021-01-16T11:33:19Z</time>
      </trkpt>
      <trkpt lat="45.30415" lon="6.05014">
        <ele>1937.8</ele>
        <time>2021-01-16T11:33:20Z</time>
      </trkpt>
      <trkpt lat="45.30415" lon="6.05014">
        <ele>1937.8</ele>
        <time>2021-01-16T11:33:21Z</time>
      </trkpt>
      <trkpt lat="45.30415" lon="6.05014">
        <ele>1937.8</ele>
        <time>2021-01-16T11:33:22Z</time>
      </trkpt>
      <trkpt lat="45.30415" lon="6.05014">
        <ele>1937.8</ele>
        <time>2021-01-16T11:33:23Z</time>
      </trkpt>
      <trkpt lat="45.30415" lon="6.05014">
        <ele>1937.8</ele>
        <time>2021-01-16T11:33:24Z</time>
      </trkpt>
      <trkpt lat="45.30415" lon="6.05014">
        <ele>1937.8</ele>
        <time>2021-01-16T11:33:25Z</time>
      </trkpt>
      <trkpt lat="45.30415" lon="6.05014">
        <ele>1937.8</ele>
        <time>2021-01-16T11:33:26Z</time>
      </trkpt>
      <trkpt lat="45.30415" lon="6.05014">
        <ele>1937.8</ele>
        <time>2021-01-16T11:33:27Z</time>
      </trkpt>
      <trkpt lat="45.30415" lon="6.05014">
        <ele>1937.8</ele>
        <time>2021-01-16T11:33:28Z</time>
      </trkpt>
      <trkpt lat="45.30415" lon="6.05014">
        <ele>1937.8</ele>
        <time>2021-01-16T11:33:29Z</time>
      </trkpt>
      <trkpt lat="45.30415" lon="6.05014">
        <ele>1937.8</ele>
        <time>2021-01-16T11:33:30Z</time>
      </trkpt>
      <trkpt lat="45.30415" lon="6.05014">
        <ele>1937.8</ele>
        <time>2021-01-16T11:33:31Z</time>
      </trkpt>
      <trkpt lat="45.30415" lon="6.05014">
        <ele>1937.8</ele>
        <time>2021-01-16T11:33:32Z</time>
      </trkpt>
      <trkpt lat="45.30415" lon="6.05014">
        <ele>1937.8</ele>
        <time>2021-01-16T11:33:33Z</time>
      </trkpt>
      <trkpt lat="45.30415" lon="6.05014">
        <ele>1937.8</ele>
        <time>2021-01-16T11:33:34Z</time>
      </trkpt>
      <trkpt lat="45.30415" lon="6.05014">
        <ele>1937.8</ele>
        <time>2021-01-16T11:33:35Z</time>
      </trkpt>
      <trkpt lat="45.30415" lon="6.05014">
        <ele>1937.8</ele>
        <time>2021-01-16T11:33:36Z</time>
      </trkpt>
      <trkpt lat="45.30415" lon="6.05014">
        <ele>1937.8</ele>
        <time>2021-01-16T11:33:37Z</time>
      </trkpt>
      <trkpt lat="45.30415" lon="6.05014">
        <ele>1937.8</ele>
        <time>2021-01-16T11:33:38Z</time>
      </trkpt>
      <trkpt lat="45.30415" lon="6.05014">
        <ele>1937.8</ele>
        <time>2021-01-16T11:33:39Z</time>
      </trkpt>
      <trkpt lat="45.30415" lon="6.05014">
        <ele>1937.8</ele>
        <time>2021-01-16T11:33:40Z</time>
      </trkpt>
      <trkpt lat="45.30415" lon="6.05014">
        <ele>1938</ele>
        <time>2021-01-16T11:33:41Z</time>
      </trkpt>
      <trkpt lat="45.30415" lon="6.05014">
        <ele>1938</ele>
        <time>2021-01-16T11:33:42Z</time>
      </trkpt>
      <trkpt lat="45.30415" lon="6.05014">
        <ele>1938</ele>
        <time>2021-01-16T11:33:43Z</time>
      </trkpt>
      <trkpt lat="45.30415" lon="6.05014">
        <ele>1938</ele>
        <time>2021-01-16T11:33:44Z</time>
      </trkpt>
      <trkpt lat="45.30415" lon="6.05014">
        <ele>1938</ele>
        <time>2021-01-16T11:33:45Z</time>
      </trkpt>
      <trkpt lat="45.30415" lon="6.05014">
        <ele>1938</ele>
        <time>2021-01-16T11:33:46Z</time>
      </trkpt>
      <trkpt lat="45.30415" lon="6.05014">
        <ele>1938</ele>
        <time>2021-01-16T11:33:47Z</time>
      </trkpt>
      <trkpt lat="45.30415" lon="6.05014">
        <ele>1938</ele>
        <time>2021-01-16T11:33:48Z</time>
      </trkpt>
      <trkpt lat="45.30415" lon="6.05014">
        <ele>1938</ele>
        <time>2021-01-16T11:33:49Z</time>
      </trkpt>
      <trkpt lat="45.30415" lon="6.05014">
        <ele>1938</ele>
        <time>2021-01-16T11:33:50Z</time>
      </trkpt>
      <trkpt lat="45.30415" lon="6.05014">
        <ele>1938</ele>
        <time>2021-01-16T11:33:51Z</time>
      </trkpt>
      <trkpt lat="45.30415" lon="6.05014">
        <ele>1938</ele>
        <time>2021-01-16T11:33:52Z</time>
      </trkpt>
      <trkpt lat="45.30415" lon="6.05014">
        <ele>1938</ele>
        <time>2021-01-16T11:33:53Z</time>
      </trkpt>
      <trkpt lat="45.30415" lon="6.05014">
        <ele>1938</ele>
        <time>2021-01-16T11:33:54Z</time>
      </trkpt>
      <trkpt lat="45.30415" lon="6.05014">
        <ele>1938</ele>
        <time>2021-01-16T11:33:55Z</time>
      </trkpt>
      <trkpt lat="45.30415" lon="6.05014">
        <ele>1938</ele>
        <time>2021-01-16T11:33:56Z</time>
      </trkpt>
      <trkpt lat="45.30415" lon="6.05014">
        <ele>1938</ele>
        <time>2021-01-16T11:33:57Z</time>
      </trkpt>
      <trkpt lat="45.30415" lon="6.05014">
        <ele>1938</ele>
        <time>2021-01-16T11:33:58Z</time>
      </trkpt>
      <trkpt lat="45.30415" lon="6.05014">
        <ele>1938</ele>
        <time>2021-01-16T11:33:59Z</time>
      </trkpt>
      <trkpt lat="45.30415" lon="6.05014">
        <ele>1938.2</ele>
        <time>2021-01-16T11:34:00Z</time>
      </trkpt>
      <trkpt lat="45.30415" lon="6.05014">
        <ele>1938.2</ele>
        <time>2021-01-16T11:34:01Z</time>
      </trkpt>
      <trkpt lat="45.30415" lon="6.05014">
        <ele>1938.2</ele>
        <time>2021-01-16T11:34:02Z</time>
      </trkpt>
      <trkpt lat="45.30415" lon="6.05014">
        <ele>1938.2</ele>
        <time>2021-01-16T11:34:03Z</time>
      </trkpt>
      <trkpt lat="45.30415" lon="6.05014">
        <ele>1938.2</ele>
        <time>2021-01-16T11:34:04Z</time>
      </trkpt>
      <trkpt lat="45.30415" lon="6.05014">
        <ele>1938.2</ele>
        <time>2021-01-16T11:34:05Z</time>
      </trkpt>
      <trkpt lat="45.30415" lon="6.05014">
        <ele>1938.2</ele>
        <time>2021-01-16T11:34:06Z</time>
      </trkpt>
      <trkpt lat="45.30415" lon="6.05014">
        <ele>1938.2</ele>
        <time>2021-01-16T11:34:07Z</time>
      </trkpt>
      <trkpt lat="45.30415" lon="6.05014">
        <ele>1938.2</ele>
        <time>2021-01-16T11:34:08Z</time>
      </trkpt>
      <trkpt lat="45.30415" lon="6.05014">
        <ele>1938.2</ele>
        <time>2021-01-16T11:34:09Z</time>
      </trkpt>
      <trkpt lat="45.30415" lon="6.05014">
        <ele>1938.2</ele>
        <time>2021-01-16T11:34:10Z</time>
      </trkpt>
      <trkpt lat="45.30415" lon="6.05014">
        <ele>1938.2</ele>
        <time>2021-01-16T11:34:11Z</time>
      </trkpt>
      <trkpt lat="45.30415" lon="6.05014">
        <ele>1938.2</ele>
        <time>2021-01-16T11:34:12Z</time>
      </trkpt>
      <trkpt lat="45.30415" lon="6.05014">
        <ele>1938.2</ele>
        <time>2021-01-16T11:34:13Z</time>
      </trkpt>
      <trkpt lat="45.30415" lon="6.05014">
        <ele>1938.2</ele>
        <time>2021-01-16T11:34:14Z</time>
      </trkpt>
      <trkpt lat="45.30415" lon="6.05014">
        <ele>1938.2</ele>
        <time>2021-01-16T11:34:15Z</time>
      </trkpt>
      <trkpt lat="45.30415" lon="6.05014">
        <ele>1938.2</ele>
        <time>2021-01-16T11:34:16Z</time>
      </trkpt>
      <trkpt lat="45.30415" lon="6.05014">
        <ele>1938.2</ele>
        <time>2021-01-16T11:34:17Z</time>
      </trkpt>
      <trkpt lat="45.30415" lon="6.05014">
        <ele>1938.2</ele>
        <time>2021-01-16T11:34:18Z</time>
      </trkpt>
      <trkpt lat="45.30415" lon="6.05014">
        <ele>1938.2</ele>
        <time>2021-01-16T11:34:19Z</time>
      </trkpt>
      <trkpt lat="45.30415" lon="6.05014">
        <ele>1938.2</ele>
        <time>2021-01-16T11:34:20Z</time>
      </trkpt>
      <trkpt lat="45.30415" lon="6.05014">
        <ele>1938.2</ele>
        <time>2021-01-16T11:34:21Z</time>
      </trkpt>
      <trkpt lat="45.30415" lon="6.05014">
        <ele>1938.2</ele>
        <time>2021-01-16T11:34:22Z</time>
      </trkpt>
      <trkpt lat="45.30415" lon="6.05014">
        <ele>1938.2</ele>
        <time>2021-01-16T11:34:23Z</time>
      </trkpt>
      <trkpt lat="45.30415" lon="6.05014">
        <ele>1938.2</ele>
        <time>2021-01-16T11:34:24Z</time>
      </trkpt>
      <trkpt lat="45.30415" lon="6.05014">
        <ele>1938.2</ele>
        <time>2021-01-16T11:34:25Z</time>
      </trkpt>
      <trkpt lat="45.30415" lon="6.05014">
        <ele>1938.2</ele>
        <time>2021-01-16T11:34:26Z</time>
      </trkpt>
      <trkpt lat="45.30415" lon="6.05014">
        <ele>1938.2</ele>
        <time>2021-01-16T11:34:27Z</time>
      </trkpt>
      <trkpt lat="45.30415" lon="6.05014">
        <ele>1938.2</ele>
        <time>2021-01-16T11:34:28Z</time>
      </trkpt>
      <trkpt lat="45.30415" lon="6.05014">
        <ele>1938.2</ele>
        <time>2021-01-16T11:34:29Z</time>
      </trkpt>
      <trkpt lat="45.30415" lon="6.05014">
        <ele>1938.4</ele>
        <time>2021-01-16T11:34:30Z</time>
      </trkpt>
      <trkpt lat="45.30415" lon="6.05014">
        <ele>1938.4</ele>
        <time>2021-01-16T11:34:31Z</time>
      </trkpt>
      <trkpt lat="45.30415" lon="6.05014">
        <ele>1938.4</ele>
        <time>2021-01-16T11:34:32Z</time>
      </trkpt>
      <trkpt lat="45.30415" lon="6.05014">
        <ele>1938.4</ele>
        <time>2021-01-16T11:34:33Z</time>
      </trkpt>
      <trkpt lat="45.30415" lon="6.05014">
        <ele>1938.4</ele>
        <time>2021-01-16T11:34:34Z</time>
      </trkpt>
      <trkpt lat="45.30415" lon="6.05014">
        <ele>1938.4</ele>
        <time>2021-01-16T11:34:35Z</time>
      </trkpt>
      <trkpt lat="45.30415" lon="6.05014">
        <ele>1938.4</ele>
        <time>2021-01-16T11:34:36Z</time>
      </trkpt>
      <trkpt lat="45.30415" lon="6.05014">
        <ele>1938.4</ele>
        <time>2021-01-16T11:34:37Z</time>
      </trkpt>
      <trkpt lat="45.30415" lon="6.05014">
        <ele>1938.4</ele>
        <time>2021-01-16T11:34:38Z</time>
      </trkpt>
      <trkpt lat="45.30415" lon="6.05014">
        <ele>1938.4</ele>
        <time>2021-01-16T11:34:39Z</time>
      </trkpt>
      <trkpt lat="45.30415" lon="6.05014">
        <ele>1938.4</ele>
        <time>2021-01-16T11:34:40Z</time>
      </trkpt>
      <trkpt lat="45.30415" lon="6.05014">
        <ele>1938.4</ele>
        <time>2021-01-16T11:34:41Z</time>
      </trkpt>
      <trkpt lat="45.30415" lon="6.05014">
        <ele>1938.4</ele>
        <time>2021-01-16T11:34:42Z</time>
      </trkpt>
      <trkpt lat="45.30415" lon="6.05014">
        <ele>1938.4</ele>
        <time>2021-01-16T11:34:43Z</time>
      </trkpt>
      <trkpt lat="45.30415" lon="6.05014">
        <ele>1938.4</ele>
        <time>2021-01-16T11:34:44Z</time>
      </trkpt>
      <trkpt lat="45.30415" lon="6.05014">
        <ele>1938.4</ele>
        <time>2021-01-16T11:34:45Z</time>
      </trkpt>
      <trkpt lat="45.30415" lon="6.05014">
        <ele>1938.4</ele>
        <time>2021-01-16T11:34:46Z</time>
      </trkpt>
      <trkpt lat="45.30415" lon="6.05014">
        <ele>1938.4</ele>
        <time>2021-01-16T11:34:47Z</time>
      </trkpt>
      <trkpt lat="45.30415" lon="6.05014">
        <ele>1938.4</ele>
        <time>2021-01-16T11:34:48Z</time>
      </trkpt>
      <trkpt lat="45.30415" lon="6.05014">
        <ele>1938.4</ele>
        <time>2021-01-16T11:34:49Z</time>
      </trkpt>
      <trkpt lat="45.30415" lon="6.05014">
        <ele>1938.4</ele>
        <time>2021-01-16T11:34:50Z</time>
      </trkpt>
      <trkpt lat="45.30415" lon="6.05014">
        <ele>1938.4</ele>
        <time>2021-01-16T11:34:51Z</time>
      </trkpt>
      <trkpt lat="45.30415" lon="6.05014">
        <ele>1938.4</ele>
        <time>2021-01-16T11:34:52Z</time>
      </trkpt>
      <trkpt lat="45.30415" lon="6.05014">
        <ele>1938.4</ele>
        <time>2021-01-16T11:34:53Z</time>
      </trkpt>
      <trkpt lat="45.30415" lon="6.05014">
        <ele>1938.4</ele>
        <time>2021-01-16T11:34:54Z</time>
      </trkpt>
      <trkpt lat="45.30415" lon="6.05014">
        <ele>1938.4</ele>
        <time>2021-01-16T11:34:55Z</time>
      </trkpt>
      <trkpt lat="45.30415" lon="6.05014">
        <ele>1938.4</ele>
        <time>2021-01-16T11:34:56Z</time>
      </trkpt>
      <trkpt lat="45.30415" lon="6.05014">
        <ele>1938.4</ele>
        <time>2021-01-16T11:34:57Z</time>
      </trkpt>
      <trkpt lat="45.30415" lon="6.05014">
        <ele>1938.6</ele>
        <time>2021-01-16T11:34:58Z</time>
      </trkpt>
      <trkpt lat="45.30415" lon="6.05014">
        <ele>1938.4</ele>
        <time>2021-01-16T11:34:59Z</time>
      </trkpt>
      <trkpt lat="45.30415" lon="6.05014">
        <ele>1938.6</ele>
        <time>2021-01-16T11:35:00Z</time>
      </trkpt>
      <trkpt lat="45.30415" lon="6.05014">
        <ele>1938.6</ele>
        <time>2021-01-16T11:35:01Z</time>
      </trkpt>
      <trkpt lat="45.30415" lon="6.05014">
        <ele>1938.6</ele>
        <time>2021-01-16T11:35:02Z</time>
      </trkpt>
      <trkpt lat="45.30415" lon="6.05014">
        <ele>1938.4</ele>
        <time>2021-01-16T11:35:03Z</time>
      </trkpt>
      <trkpt lat="45.30415" lon="6.05014">
        <ele>1938.4</ele>
        <time>2021-01-16T11:35:04Z</time>
      </trkpt>
      <trkpt lat="45.30415" lon="6.05014">
        <ele>1938.6</ele>
        <time>2021-01-16T11:35:05Z</time>
      </trkpt>
      <trkpt lat="45.30415" lon="6.05014">
        <ele>1938.6</ele>
        <time>2021-01-16T11:35:06Z</time>
      </trkpt>
      <trkpt lat="45.30415" lon="6.05014">
        <ele>1938.6</ele>
        <time>2021-01-16T11:35:07Z</time>
      </trkpt>
      <trkpt lat="45.30415" lon="6.05014">
        <ele>1938.6</ele>
        <time>2021-01-16T11:35:08Z</time>
      </trkpt>
      <trkpt lat="45.30415" lon="6.05014">
        <ele>1938.6</ele>
        <time>2021-01-16T11:35:09Z</time>
      </trkpt>
      <trkpt lat="45.30415" lon="6.05014">
        <ele>1938.6</ele>
        <time>2021-01-16T11:35:10Z</time>
      </trkpt>
      <trkpt lat="45.30415" lon="6.05014">
        <ele>1938.6</ele>
        <time>2021-01-16T11:35:11Z</time>
      </trkpt>
      <trkpt lat="45.30415" lon="6.05014">
        <ele>1938.6</ele>
        <time>2021-01-16T11:35:12Z</time>
      </trkpt>
      <trkpt lat="45.30415" lon="6.05014">
        <ele>1938.8</ele>
        <time>2021-01-16T11:35:13Z</time>
      </trkpt>
      <trkpt lat="45.30415" lon="6.05014">
        <ele>1938.8</ele>
        <time>2021-01-16T11:35:14Z</time>
      </trkpt>
      <trkpt lat="45.30415" lon="6.05014">
        <ele>1938.8</ele>
        <time>2021-01-16T11:35:15Z</time>
      </trkpt>
      <trkpt lat="45.30415" lon="6.05014">
        <ele>1938.8</ele>
        <time>2021-01-16T11:35:16Z</time>
      </trkpt>
      <trkpt lat="45.30415" lon="6.05014">
        <ele>1938.8</ele>
        <time>2021-01-16T11:35:17Z</time>
      </trkpt>
      <trkpt lat="45.30415" lon="6.05014">
        <ele>1938.8</ele>
        <time>2021-01-16T11:35:18Z</time>
      </trkpt>
      <trkpt lat="45.30415" lon="6.05014">
        <ele>1938.8</ele>
        <time>2021-01-16T11:35:19Z</time>
      </trkpt>
      <trkpt lat="45.30415" lon="6.05014">
        <ele>1938.8</ele>
        <time>2021-01-16T11:35:20Z</time>
      </trkpt>
      <trkpt lat="45.30415" lon="6.05014">
        <ele>1938.8</ele>
        <time>2021-01-16T11:35:21Z</time>
      </trkpt>
      <trkpt lat="45.30415" lon="6.05014">
        <ele>1938.8</ele>
        <time>2021-01-16T11:35:22Z</time>
      </trkpt>
      <trkpt lat="45.30415" lon="6.05014">
        <ele>1938.8</ele>
        <time>2021-01-16T11:35:23Z</time>
      </trkpt>
      <trkpt lat="45.30415" lon="6.05014">
        <ele>1938.8</ele>
        <time>2021-01-16T11:35:24Z</time>
      </trkpt>
      <trkpt lat="45.30415" lon="6.05014">
        <ele>1938.8</ele>
        <time>2021-01-16T11:35:25Z</time>
      </trkpt>
      <trkpt lat="45.30415" lon="6.05014">
        <ele>1938.8</ele>
        <time>2021-01-16T11:35:26Z</time>
      </trkpt>
      <trkpt lat="45.30415" lon="6.05014">
        <ele>1938.8</ele>
        <time>2021-01-16T11:35:27Z</time>
      </trkpt>
      <trkpt lat="45.30415" lon="6.05014">
        <ele>1938.8</ele>
        <time>2021-01-16T11:35:28Z</time>
      </trkpt>
      <trkpt lat="45.30415" lon="6.05014">
        <ele>1938.8</ele>
        <time>2021-01-16T11:35:29Z</time>
      </trkpt>
      <trkpt lat="45.30415" lon="6.05014">
        <ele>1938.8</ele>
        <time>2021-01-16T11:35:30Z</time>
      </trkpt>
      <trkpt lat="45.30415" lon="6.05014">
        <ele>1938.8</ele>
        <time>2021-01-16T11:35:31Z</time>
      </trkpt>
      <trkpt lat="45.30415" lon="6.05014">
        <ele>1938.8</ele>
        <time>2021-01-16T11:35:32Z</time>
      </trkpt>
      <trkpt lat="45.30415" lon="6.05014">
        <ele>1938.8</ele>
        <time>2021-01-16T11:35:33Z</time>
      </trkpt>
      <trkpt lat="45.30415" lon="6.05014">
        <ele>1938.8</ele>
        <time>2021-01-16T11:35:34Z</time>
      </trkpt>
      <trkpt lat="45.30415" lon="6.05014">
        <ele>1938.8</ele>
        <time>2021-01-16T11:35:35Z</time>
      </trkpt>
      <trkpt lat="45.30415" lon="6.05014">
        <ele>1938.8</ele>
        <time>2021-01-16T11:35:36Z</time>
      </trkpt>
      <trkpt lat="45.30415" lon="6.05014">
        <ele>1938.8</ele>
        <time>2021-01-16T11:35:37Z</time>
      </trkpt>
      <trkpt lat="45.30415" lon="6.05014">
        <ele>1938.8</ele>
        <time>2021-01-16T11:35:38Z</time>
      </trkpt>
      <trkpt lat="45.30415" lon="6.05014">
        <ele>1939</ele>
        <time>2021-01-16T11:35:39Z</time>
      </trkpt>
      <trkpt lat="45.30415" lon="6.05014">
        <ele>1939</ele>
        <time>2021-01-16T11:35:40Z</time>
      </trkpt>
      <trkpt lat="45.30415" lon="6.05014">
        <ele>1939</ele>
        <time>2021-01-16T11:35:41Z</time>
      </trkpt>
      <trkpt lat="45.30415" lon="6.05014">
        <ele>1939</ele>
        <time>2021-01-16T11:35:42Z</time>
      </trkpt>
      <trkpt lat="45.30415" lon="6.05014">
        <ele>1939</ele>
        <time>2021-01-16T11:35:43Z</time>
      </trkpt>
      <trkpt lat="45.30415" lon="6.05014">
        <ele>1939</ele>
        <time>2021-01-16T11:35:44Z</time>
      </trkpt>
      <trkpt lat="45.30415" lon="6.05014">
        <ele>1939</ele>
        <time>2021-01-16T11:35:45Z</time>
      </trkpt>
      <trkpt lat="45.30415" lon="6.05014">
        <ele>1939</ele>
        <time>2021-01-16T11:35:46Z</time>
      </trkpt>
      <trkpt lat="45.30415" lon="6.05014">
        <ele>1939</ele>
        <time>2021-01-16T11:35:47Z</time>
      </trkpt>
      <trkpt lat="45.30415" lon="6.05014">
        <ele>1939</ele>
        <time>2021-01-16T11:35:48Z</time>
      </trkpt>
      <trkpt lat="45.30415" lon="6.05014">
        <ele>1939</ele>
        <time>2021-01-16T11:35:49Z</time>
      </trkpt>
      <trkpt lat="45.30415" lon="6.05014">
        <ele>1939</ele>
        <time>2021-01-16T11:35:50Z</time>
      </trkpt>
      <trkpt lat="45.30415" lon="6.05014">
        <ele>1939</ele>
        <time>2021-01-16T11:35:51Z</time>
      </trkpt>
      <trkpt lat="45.30415" lon="6.05014">
        <ele>1939</ele>
        <time>2021-01-16T11:35:52Z</time>
      </trkpt>
      <trkpt lat="45.30415" lon="6.05014">
        <ele>1939</ele>
        <time>2021-01-16T11:35:53Z</time>
      </trkpt>
      <trkpt lat="45.30415" lon="6.05014">
        <ele>1939</ele>
        <time>2021-01-16T11:35:54Z</time>
      </trkpt>
      <trkpt lat="45.30415" lon="6.05014">
        <ele>1939</ele>
        <time>2021-01-16T11:35:55Z</time>
      </trkpt>
      <trkpt lat="45.30415" lon="6.05014">
        <ele>1939</ele>
        <time>2021-01-16T11:35:56Z</time>
      </trkpt>
      <trkpt lat="45.30415" lon="6.05014">
        <ele>1939</ele>
        <time>2021-01-16T11:35:57Z</time>
      </trkpt>
      <trkpt lat="45.30415" lon="6.05014">
        <ele>1939</ele>
        <time>2021-01-16T11:35:58Z</time>
      </trkpt>
      <trkpt lat="45.30415" lon="6.05014">
        <ele>1939</ele>
        <time>2021-01-16T11:35:59Z</time>
      </trkpt>
      <trkpt lat="45.30415" lon="6.05014">
        <ele>1939.2</ele>
        <time>2021-01-16T11:36:00Z</time>
      </trkpt>
      <trkpt lat="45.30415" lon="6.05014">
        <ele>1939.2</ele>
        <time>2021-01-16T11:36:01Z</time>
      </trkpt>
      <trkpt lat="45.30415" lon="6.05014">
        <ele>1939.2</ele>
        <time>2021-01-16T11:36:02Z</time>
      </trkpt>
      <trkpt lat="45.30415" lon="6.05014">
        <ele>1939.2</ele>
        <time>2021-01-16T11:36:03Z</time>
      </trkpt>
      <trkpt lat="45.30415" lon="6.05014">
        <ele>1939.2</ele>
        <time>2021-01-16T11:36:04Z</time>
      </trkpt>
      <trkpt lat="45.30415" lon="6.05014">
        <ele>1939.2</ele>
        <time>2021-01-16T11:36:05Z</time>
      </trkpt>
      <trkpt lat="45.30415" lon="6.05014">
        <ele>1939.2</ele>
        <time>2021-01-16T11:36:06Z</time>
      </trkpt>
      <trkpt lat="45.30415" lon="6.05014">
        <ele>1939.2</ele>
        <time>2021-01-16T11:36:07Z</time>
      </trkpt>
      <trkpt lat="45.30415" lon="6.05014">
        <ele>1939.2</ele>
        <time>2021-01-16T11:36:08Z</time>
      </trkpt>
      <trkpt lat="45.30415" lon="6.05014">
        <ele>1939.2</ele>
        <time>2021-01-16T11:36:09Z</time>
      </trkpt>
      <trkpt lat="45.30415" lon="6.05014">
        <ele>1939.2</ele>
        <time>2021-01-16T11:36:10Z</time>
      </trkpt>
      <trkpt lat="45.30415" lon="6.05014">
        <ele>1939.2</ele>
        <time>2021-01-16T11:36:11Z</time>
      </trkpt>
      <trkpt lat="45.30415" lon="6.05014">
        <ele>1939.2</ele>
        <time>2021-01-16T11:36:12Z</time>
      </trkpt>
      <trkpt lat="45.30415" lon="6.05014">
        <ele>1939.2</ele>
        <time>2021-01-16T11:36:13Z</time>
      </trkpt>
      <trkpt lat="45.30415" lon="6.05014">
        <ele>1939.2</ele>
        <time>2021-01-16T11:36:14Z</time>
      </trkpt>
      <trkpt lat="45.30415" lon="6.05014">
        <ele>1939.2</ele>
        <time>2021-01-16T11:36:15Z</time>
      </trkpt>
      <trkpt lat="45.30415" lon="6.05014">
        <ele>1939.2</ele>
        <time>2021-01-16T11:36:16Z</time>
      </trkpt>
      <trkpt lat="45.30415" lon="6.05014">
        <ele>1939.2</ele>
        <time>2021-01-16T11:36:17Z</time>
      </trkpt>
      <trkpt lat="45.30415" lon="6.05014">
        <ele>1939.2</ele>
        <time>2021-01-16T11:36:18Z</time>
      </trkpt>
      <trkpt lat="45.30415" lon="6.05014">
        <ele>1939.2</ele>
        <time>2021-01-16T11:36:19Z</time>
      </trkpt>
      <trkpt lat="45.30415" lon="6.05014">
        <ele>1939.2</ele>
        <time>2021-01-16T11:36:20Z</time>
      </trkpt>
      <trkpt lat="45.30415" lon="6.05014">
        <ele>1939.2</ele>
        <time>2021-01-16T11:36:21Z</time>
      </trkpt>
      <trkpt lat="45.30415" lon="6.05014">
        <ele>1939.2</ele>
        <time>2021-01-16T11:36:22Z</time>
      </trkpt>
      <trkpt lat="45.30415" lon="6.05014">
        <ele>1939.2</ele>
        <time>2021-01-16T11:36:23Z</time>
      </trkpt>
      <trkpt lat="45.30415" lon="6.05014">
        <ele>1939.2</ele>
        <time>2021-01-16T11:36:24Z</time>
      </trkpt>
      <trkpt lat="45.30415" lon="6.05014">
        <ele>1939.2</ele>
        <time>2021-01-16T11:36:25Z</time>
      </trkpt>
      <trkpt lat="45.30415" lon="6.05014">
        <ele>1939.2</ele>
        <time>2021-01-16T11:36:26Z</time>
      </trkpt>
      <trkpt lat="45.30415" lon="6.05014">
        <ele>1939.2</ele>
        <time>2021-01-16T11:36:27Z</time>
      </trkpt>
      <trkpt lat="45.30415" lon="6.05014">
        <ele>1939.2</ele>
        <time>2021-01-16T11:36:28Z</time>
      </trkpt>
      <trkpt lat="45.30415" lon="6.05014">
        <ele>1939.4</ele>
        <time>2021-01-16T11:36:29Z</time>
      </trkpt>
      <trkpt lat="45.30415" lon="6.05014">
        <ele>1939.4</ele>
        <time>2021-01-16T11:36:30Z</time>
      </trkpt>
      <trkpt lat="45.30415" lon="6.05014">
        <ele>1939.4</ele>
        <time>2021-01-16T11:36:31Z</time>
      </trkpt>
      <trkpt lat="45.30415" lon="6.05014">
        <ele>1939.4</ele>
        <time>2021-01-16T11:36:32Z</time>
      </trkpt>
      <trkpt lat="45.30415" lon="6.05014">
        <ele>1939.4</ele>
        <time>2021-01-16T11:36:33Z</time>
      </trkpt>
      <trkpt lat="45.30415" lon="6.05014">
        <ele>1939.4</ele>
        <time>2021-01-16T11:36:34Z</time>
      </trkpt>
      <trkpt lat="45.30415" lon="6.05014">
        <ele>1939.2</ele>
        <time>2021-01-16T11:36:35Z</time>
      </trkpt>
      <trkpt lat="45.30415" lon="6.05014">
        <ele>1939.4</ele>
        <time>2021-01-16T11:36:36Z</time>
      </trkpt>
      <trkpt lat="45.30415" lon="6.05014">
        <ele>1939.4</ele>
        <time>2021-01-16T11:36:37Z</time>
      </trkpt>
      <trkpt lat="45.30415" lon="6.05014">
        <ele>1939.4</ele>
        <time>2021-01-16T11:36:38Z</time>
      </trkpt>
      <trkpt lat="45.30415" lon="6.05014">
        <ele>1939.4</ele>
        <time>2021-01-16T11:36:39Z</time>
      </trkpt>
      <trkpt lat="45.30415" lon="6.05014">
        <ele>1939.4</ele>
        <time>2021-01-16T11:36:40Z</time>
      </trkpt>
      <trkpt lat="45.30415" lon="6.05014">
        <ele>1939.4</ele>
        <time>2021-01-16T11:36:41Z</time>
      </trkpt>
      <trkpt lat="45.30415" lon="6.05014">
        <ele>1939.4</ele>
        <time>2021-01-16T11:36:42Z</time>
      </trkpt>
      <trkpt lat="45.30415" lon="6.05014">
        <ele>1939.4</ele>
        <time>2021-01-16T11:36:43Z</time>
      </trkpt>
      <trkpt lat="45.30415" lon="6.05014">
        <ele>1939.4</ele>
        <time>2021-01-16T11:36:44Z</time>
      </trkpt>
      <trkpt lat="45.30415" lon="6.05014">
        <ele>1939.4</ele>
        <time>2021-01-16T11:36:45Z</time>
      </trkpt>
      <trkpt lat="45.30415" lon="6.05014">
        <ele>1939.4</ele>
        <time>2021-01-16T11:36:46Z</time>
      </trkpt>
      <trkpt lat="45.30415" lon="6.05014">
        <ele>1939.4</ele>
        <time>2021-01-16T11:36:47Z</time>
      </trkpt>
      <trkpt lat="45.30415" lon="6.05014">
        <ele>1939.4</ele>
        <time>2021-01-16T11:36:48Z</time>
      </trkpt>
      <trkpt lat="45.30415" lon="6.05014">
        <ele>1939.4</ele>
        <time>2021-01-16T11:36:49Z</time>
      </trkpt>
      <trkpt lat="45.30415" lon="6.05014">
        <ele>1939.4</ele>
        <time>2021-01-16T11:36:50Z</time>
      </trkpt>
      <trkpt lat="45.30415" lon="6.05014">
        <ele>1939.4</ele>
        <time>2021-01-16T11:36:51Z</time>
      </trkpt>
      <trkpt lat="45.30415" lon="6.05014">
        <ele>1939.6</ele>
        <time>2021-01-16T11:36:52Z</time>
      </trkpt>
      <trkpt lat="45.30415" lon="6.05014">
        <ele>1939.6</ele>
        <time>2021-01-16T11:36:53Z</time>
      </trkpt>
      <trkpt lat="45.30415" lon="6.05014">
        <ele>1939.6</ele>
        <time>2021-01-16T11:36:54Z</time>
      </trkpt>
      <trkpt lat="45.30415" lon="6.05014">
        <ele>1939.6</ele>
        <time>2021-01-16T11:36:55Z</time>
      </trkpt>
      <trkpt lat="45.30415" lon="6.05014">
        <ele>1939.6</ele>
        <time>2021-01-16T11:36:56Z</time>
      </trkpt>
      <trkpt lat="45.30415" lon="6.05014">
        <ele>1939.6</ele>
        <time>2021-01-16T11:36:57Z</time>
      </trkpt>
      <trkpt lat="45.30415" lon="6.05014">
        <ele>1939.6</ele>
        <time>2021-01-16T11:36:58Z</time>
      </trkpt>
      <trkpt lat="45.30415" lon="6.05014">
        <ele>1939.6</ele>
        <time>2021-01-16T11:36:59Z</time>
      </trkpt>
      <trkpt lat="45.30415" lon="6.05014">
        <ele>1939.6</ele>
        <time>2021-01-16T11:37:00Z</time>
      </trkpt>
      <trkpt lat="45.30415" lon="6.05014">
        <ele>1939.6</ele>
        <time>2021-01-16T11:37:01Z</time>
      </trkpt>
      <trkpt lat="45.30415" lon="6.05014">
        <ele>1939.6</ele>
        <time>2021-01-16T11:37:02Z</time>
      </trkpt>
      <trkpt lat="45.30415" lon="6.05014">
        <ele>1939.6</ele>
        <time>2021-01-16T11:37:03Z</time>
      </trkpt>
      <trkpt lat="45.30415" lon="6.05014">
        <ele>1939.6</ele>
        <time>2021-01-16T11:37:04Z</time>
      </trkpt>
      <trkpt lat="45.30415" lon="6.05014">
        <ele>1939.6</ele>
        <time>2021-01-16T11:37:05Z</time>
      </trkpt>
      <trkpt lat="45.30415" lon="6.05014">
        <ele>1939.6</ele>
        <time>2021-01-16T11:37:06Z</time>
      </trkpt>
      <trkpt lat="45.30415" lon="6.05014">
        <ele>1939.6</ele>
        <time>2021-01-16T11:37:07Z</time>
      </trkpt>
      <trkpt lat="45.30415" lon="6.05014">
        <ele>1939.6</ele>
        <time>2021-01-16T11:37:08Z</time>
      </trkpt>
      <trkpt lat="45.30415" lon="6.05014">
        <ele>1939.6</ele>
        <time>2021-01-16T11:37:09Z</time>
      </trkpt>
      <trkpt lat="45.30415" lon="6.05014">
        <ele>1939.6</ele>
        <time>2021-01-16T11:37:10Z</time>
      </trkpt>
      <trkpt lat="45.30415" lon="6.05014">
        <ele>1939.6</ele>
        <time>2021-01-16T11:37:11Z</time>
      </trkpt>
      <trkpt lat="45.30415" lon="6.05014">
        <ele>1939.6</ele>
        <time>2021-01-16T11:37:12Z</time>
      </trkpt>
      <trkpt lat="45.30415" lon="6.05014">
        <ele>1939.6</ele>
        <time>2021-01-16T11:37:13Z</time>
      </trkpt>
      <trkpt lat="45.30415" lon="6.05014">
        <ele>1939.6</ele>
        <time>2021-01-16T11:37:14Z</time>
      </trkpt>
      <trkpt lat="45.30415" lon="6.05014">
        <ele>1939.6</ele>
        <time>2021-01-16T11:37:15Z</time>
      </trkpt>
      <trkpt lat="45.30415" lon="6.05014">
        <ele>1939.6</ele>
        <time>2021-01-16T11:37:16Z</time>
      </trkpt>
      <trkpt lat="45.30415" lon="6.05014">
        <ele>1939.6</ele>
        <time>2021-01-16T11:37:17Z</time>
      </trkpt>
      <trkpt lat="45.30415" lon="6.05014">
        <ele>1939.6</ele>
        <time>2021-01-16T11:37:18Z</time>
      </trkpt>
      <trkpt lat="45.30415" lon="6.05014">
        <ele>1939.6</ele>
        <time>2021-01-16T11:37:19Z</time>
      </trkpt>
      <trkpt lat="45.30415" lon="6.05014">
        <ele>1939.6</ele>
        <time>2021-01-16T11:37:20Z</time>
      </trkpt>
      <trkpt lat="45.30415" lon="6.05014">
        <ele>1939.6</ele>
        <time>2021-01-16T11:37:21Z</time>
      </trkpt>
      <trkpt lat="45.30415" lon="6.05014">
        <ele>1939.6</ele>
        <time>2021-01-16T11:37:22Z</time>
      </trkpt>
      <trkpt lat="45.30415" lon="6.05014">
        <ele>1939.6</ele>
        <time>2021-01-16T11:37:23Z</time>
      </trkpt>
      <trkpt lat="45.30415" lon="6.05014">
        <ele>1939.6</ele>
        <time>2021-01-16T11:37:24Z</time>
      </trkpt>
      <trkpt lat="45.30415" lon="6.05014">
        <ele>1939.6</ele>
        <time>2021-01-16T11:37:25Z</time>
      </trkpt>
      <trkpt lat="45.30415" lon="6.05014">
        <ele>1939.8</ele>
        <time>2021-01-16T11:37:26Z</time>
      </trkpt>
      <trkpt lat="45.30415" lon="6.05014">
        <ele>1939.8</ele>
        <time>2021-01-16T11:37:27Z</time>
      </trkpt>
      <trkpt lat="45.30415" lon="6.05014">
        <ele>1939.8</ele>
        <time>2021-01-16T11:37:28Z</time>
      </trkpt>
      <trkpt lat="45.30415" lon="6.05014">
        <ele>1939.8</ele>
        <time>2021-01-16T11:37:29Z</time>
      </trkpt>
      <trkpt lat="45.30415" lon="6.05014">
        <ele>1939.8</ele>
        <time>2021-01-16T11:37:30Z</time>
      </trkpt>
      <trkpt lat="45.30415" lon="6.05014">
        <ele>1939.8</ele>
        <time>2021-01-16T11:37:31Z</time>
      </trkpt>
      <trkpt lat="45.30415" lon="6.05014">
        <ele>1939.8</ele>
        <time>2021-01-16T11:37:32Z</time>
      </trkpt>
      <trkpt lat="45.30415" lon="6.05014">
        <ele>1939.8</ele>
        <time>2021-01-16T11:37:33Z</time>
      </trkpt>
      <trkpt lat="45.30415" lon="6.05014">
        <ele>1939.8</ele>
        <time>2021-01-16T11:37:34Z</time>
      </trkpt>
      <trkpt lat="45.30415" lon="6.05014">
        <ele>1939.8</ele>
        <time>2021-01-16T11:37:35Z</time>
      </trkpt>
      <trkpt lat="45.30415" lon="6.05014">
        <ele>1939.8</ele>
        <time>2021-01-16T11:37:36Z</time>
      </trkpt>
      <trkpt lat="45.30415" lon="6.05014">
        <ele>1939.8</ele>
        <time>2021-01-16T11:37:37Z</time>
      </trkpt>
      <trkpt lat="45.30415" lon="6.05014">
        <ele>1939.8</ele>
        <time>2021-01-16T11:37:38Z</time>
      </trkpt>
      <trkpt lat="45.30415" lon="6.05014">
        <ele>1939.8</ele>
        <time>2021-01-16T11:37:39Z</time>
      </trkpt>
      <trkpt lat="45.30415" lon="6.05014">
        <ele>1939.8</ele>
        <time>2021-01-16T11:37:40Z</time>
      </trkpt>
      <trkpt lat="45.30415" lon="6.05014">
        <ele>1939.8</ele>
        <time>2021-01-16T11:37:41Z</time>
      </trkpt>
      <trkpt lat="45.30415" lon="6.05014">
        <ele>1939.8</ele>
        <time>2021-01-16T11:37:42Z</time>
      </trkpt>
      <trkpt lat="45.30415" lon="6.05014">
        <ele>1939.8</ele>
        <time>2021-01-16T11:37:43Z</time>
      </trkpt>
      <trkpt lat="45.30415" lon="6.05014">
        <ele>1939.8</ele>
        <time>2021-01-16T11:37:44Z</time>
      </trkpt>
      <trkpt lat="45.30415" lon="6.05014">
        <ele>1939.8</ele>
        <time>2021-01-16T11:37:45Z</time>
      </trkpt>
      <trkpt lat="45.30415" lon="6.05014">
        <ele>1939.8</ele>
        <time>2021-01-16T11:37:46Z</time>
      </trkpt>
      <trkpt lat="45.30415" lon="6.05014">
        <ele>1939.8</ele>
        <time>2021-01-16T11:37:47Z</time>
      </trkpt>
      <trkpt lat="45.30415" lon="6.05014">
        <ele>1939.8</ele>
        <time>2021-01-16T11:37:48Z</time>
      </trkpt>
      <trkpt lat="45.30415" lon="6.05014">
        <ele>1939.8</ele>
        <time>2021-01-16T11:37:49Z</time>
      </trkpt>
      <trkpt lat="45.30415" lon="6.05014">
        <ele>1939.8</ele>
        <time>2021-01-16T11:37:50Z</time>
      </trkpt>
      <trkpt lat="45.30415" lon="6.05014">
        <ele>1939.8</ele>
        <time>2021-01-16T11:37:51Z</time>
      </trkpt>
      <trkpt lat="45.30415" lon="6.05014">
        <ele>1939.8</ele>
        <time>2021-01-16T11:37:52Z</time>
      </trkpt>
      <trkpt lat="45.30415" lon="6.05014">
        <ele>1939.8</ele>
        <time>2021-01-16T11:37:53Z</time>
      </trkpt>
      <trkpt lat="45.30415" lon="6.05014">
        <ele>1939.8</ele>
        <time>2021-01-16T11:37:54Z</time>
      </trkpt>
      <trkpt lat="45.30415" lon="6.05014">
        <ele>1940</ele>
        <time>2021-01-16T11:37:55Z</time>
      </trkpt>
      <trkpt lat="45.30415" lon="6.05014">
        <ele>1940</ele>
        <time>2021-01-16T11:37:56Z</time>
      </trkpt>
      <trkpt lat="45.30415" lon="6.05014">
        <ele>1939.8</ele>
        <time>2021-01-16T11:37:57Z</time>
      </trkpt>
      <trkpt lat="45.30415" lon="6.05014">
        <ele>1939.8</ele>
        <time>2021-01-16T11:37:58Z</time>
      </trkpt>
      <trkpt lat="45.30415" lon="6.05014">
        <ele>1939.8</ele>
        <time>2021-01-16T11:37:59Z</time>
      </trkpt>
      <trkpt lat="45.30415" lon="6.05014">
        <ele>1939.8</ele>
        <time>2021-01-16T11:38:00Z</time>
      </trkpt>
      <trkpt lat="45.30415" lon="6.05014">
        <ele>1939.8</ele>
        <time>2021-01-16T11:38:01Z</time>
      </trkpt>
      <trkpt lat="45.30415" lon="6.05014">
        <ele>1939.8</ele>
        <time>2021-01-16T11:38:02Z</time>
      </trkpt>
      <trkpt lat="45.30415" lon="6.05014">
        <ele>1939.8</ele>
        <time>2021-01-16T11:38:03Z</time>
      </trkpt>
      <trkpt lat="45.30415" lon="6.05014">
        <ele>1939.8</ele>
        <time>2021-01-16T11:38:04Z</time>
      </trkpt>
      <trkpt lat="45.30415" lon="6.05014">
        <ele>1939.8</ele>
        <time>2021-01-16T11:38:05Z</time>
      </trkpt>
      <trkpt lat="45.30415" lon="6.05014">
        <ele>1939.8</ele>
        <time>2021-01-16T11:38:06Z</time>
      </trkpt>
      <trkpt lat="45.30415" lon="6.05014">
        <ele>1939.8</ele>
        <time>2021-01-16T11:38:07Z</time>
      </trkpt>
      <trkpt lat="45.30415" lon="6.05014">
        <ele>1939.8</ele>
        <time>2021-01-16T11:38:08Z</time>
      </trkpt>
      <trkpt lat="45.30415" lon="6.05014">
        <ele>1939.8</ele>
        <time>2021-01-16T11:38:09Z</time>
      </trkpt>
      <trkpt lat="45.30415" lon="6.05014">
        <ele>1939.8</ele>
        <time>2021-01-16T11:38:10Z</time>
      </trkpt>
      <trkpt lat="45.30415" lon="6.05014">
        <ele>1939.8</ele>
        <time>2021-01-16T11:38:11Z</time>
      </trkpt>
      <trkpt lat="45.30415" lon="6.05014">
        <ele>1939.8</ele>
        <time>2021-01-16T11:38:12Z</time>
      </trkpt>
      <trkpt lat="45.30415" lon="6.05014">
        <ele>1939.8</ele>
        <time>2021-01-16T11:38:13Z</time>
      </trkpt>
      <trkpt lat="45.30415" lon="6.05014">
        <ele>1939.8</ele>
        <time>2021-01-16T11:38:14Z</time>
      </trkpt>
      <trkpt lat="45.30415" lon="6.05014">
        <ele>1939.8</ele>
        <time>2021-01-16T11:38:15Z</time>
      </trkpt>
      <trkpt lat="45.30415" lon="6.05014">
        <ele>1939.8</ele>
        <time>2021-01-16T11:38:16Z</time>
      </trkpt>
      <trkpt lat="45.30415" lon="6.05014">
        <ele>1939.8</ele>
        <time>2021-01-16T11:38:17Z</time>
      </trkpt>
      <trkpt lat="45.30415" lon="6.05014">
        <ele>1940</ele>
        <time>2021-01-16T11:38:18Z</time>
      </trkpt>
      <trkpt lat="45.30415" lon="6.05014">
        <ele>1940</ele>
        <time>2021-01-16T11:38:19Z</time>
      </trkpt>
      <trkpt lat="45.30415" lon="6.05014">
        <ele>1940</ele>
        <time>2021-01-16T11:38:20Z</time>
      </trkpt>
      <trkpt lat="45.30415" lon="6.05014">
        <ele>1940</ele>
        <time>2021-01-16T11:38:21Z</time>
      </trkpt>
      <trkpt lat="45.30415" lon="6.05014">
        <ele>1940</ele>
        <time>2021-01-16T11:38:22Z</time>
      </trkpt>
      <trkpt lat="45.30415" lon="6.05014">
        <ele>1940</ele>
        <time>2021-01-16T11:38:23Z</time>
      </trkpt>
      <trkpt lat="45.30415" lon="6.05014">
        <ele>1940</ele>
        <time>2021-01-16T11:38:24Z</time>
      </trkpt>
      <trkpt lat="45.30415" lon="6.05014">
        <ele>1940</ele>
        <time>2021-01-16T11:38:25Z</time>
      </trkpt>
      <trkpt lat="45.30415" lon="6.05014">
        <ele>1940</ele>
        <time>2021-01-16T11:38:26Z</time>
      </trkpt>
      <trkpt lat="45.30415" lon="6.05014">
        <ele>1940</ele>
        <time>2021-01-16T11:38:27Z</time>
      </trkpt>
      <trkpt lat="45.30415" lon="6.05014">
        <ele>1940</ele>
        <time>2021-01-16T11:38:28Z</time>
      </trkpt>
      <trkpt lat="45.30415" lon="6.05014">
        <ele>1940</ele>
        <time>2021-01-16T11:38:29Z</time>
      </trkpt>
      <trkpt lat="45.30415" lon="6.05014">
        <ele>1940</ele>
        <time>2021-01-16T11:38:30Z</time>
      </trkpt>
      <trkpt lat="45.30415" lon="6.05014">
        <ele>1940</ele>
        <time>2021-01-16T11:38:31Z</time>
      </trkpt>
      <trkpt lat="45.30415" lon="6.05014">
        <ele>1940</ele>
        <time>2021-01-16T11:38:32Z</time>
      </trkpt>
      <trkpt lat="45.30415" lon="6.05014">
        <ele>1940</ele>
        <time>2021-01-16T11:38:33Z</time>
      </trkpt>
      <trkpt lat="45.30415" lon="6.05014">
        <ele>1940</ele>
        <time>2021-01-16T11:38:34Z</time>
      </trkpt>
      <trkpt lat="45.30415" lon="6.05014">
        <ele>1940</ele>
        <time>2021-01-16T11:38:35Z</time>
      </trkpt>
      <trkpt lat="45.30415" lon="6.05014">
        <ele>1940</ele>
        <time>2021-01-16T11:38:36Z</time>
      </trkpt>
      <trkpt lat="45.30415" lon="6.05014">
        <ele>1940</ele>
        <time>2021-01-16T11:38:37Z</time>
      </trkpt>
      <trkpt lat="45.30415" lon="6.05014">
        <ele>1940</ele>
        <time>2021-01-16T11:38:38Z</time>
      </trkpt>
      <trkpt lat="45.30415" lon="6.05014">
        <ele>1940</ele>
        <time>2021-01-16T11:38:39Z</time>
      </trkpt>
      <trkpt lat="45.30415" lon="6.05014">
        <ele>1940</ele>
        <time>2021-01-16T11:38:40Z</time>
      </trkpt>
      <trkpt lat="45.30415" lon="6.05014">
        <ele>1940</ele>
        <time>2021-01-16T11:38:41Z</time>
      </trkpt>
      <trkpt lat="45.30415" lon="6.05014">
        <ele>1940</ele>
        <time>2021-01-16T11:38:42Z</time>
      </trkpt>
      <trkpt lat="45.30415" lon="6.05014">
        <ele>1940</ele>
        <time>2021-01-16T11:38:43Z</time>
      </trkpt>
      <trkpt lat="45.30415" lon="6.05014">
        <ele>1940</ele>
        <time>2021-01-16T11:38:44Z</time>
      </trkpt>
      <trkpt lat="45.30415" lon="6.05014">
        <ele>1940</ele>
        <time>2021-01-16T11:38:45Z</time>
      </trkpt>
      <trkpt lat="45.30415" lon="6.05014">
        <ele>1940</ele>
        <time>2021-01-16T11:38:46Z</time>
      </trkpt>
      <trkpt lat="45.30415" lon="6.05014">
        <ele>1940</ele>
        <time>2021-01-16T11:38:47Z</time>
      </trkpt>
      <trkpt lat="45.30415" lon="6.05014">
        <ele>1940</ele>
        <time>2021-01-16T11:38:48Z</time>
      </trkpt>
      <trkpt lat="45.30415" lon="6.05014">
        <ele>1940</ele>
        <time>2021-01-16T11:38:49Z</time>
      </trkpt>
      <trkpt lat="45.30415" lon="6.05014">
        <ele>1940</ele>
        <time>2021-01-16T11:38:50Z</time>
      </trkpt>
      <trkpt lat="45.30415" lon="6.05014">
        <ele>1940</ele>
        <time>2021-01-16T11:38:51Z</time>
      </trkpt>
      <trkpt lat="45.30415" lon="6.05014">
        <ele>1940</ele>
        <time>2021-01-16T11:38:52Z</time>
      </trkpt>
      <trkpt lat="45.30415" lon="6.05014">
        <ele>1940</ele>
        <time>2021-01-16T11:38:53Z</time>
      </trkpt>
      <trkpt lat="45.30415" lon="6.05014">
        <ele>1940</ele>
        <time>2021-01-16T11:38:54Z</time>
      </trkpt>
      <trkpt lat="45.30415" lon="6.05014">
        <ele>1940</ele>
        <time>2021-01-16T11:38:55Z</time>
      </trkpt>
      <trkpt lat="45.30415" lon="6.05014">
        <ele>1940</ele>
        <time>2021-01-16T11:38:56Z</time>
      </trkpt>
      <trkpt lat="45.30415" lon="6.05014">
        <ele>1940</ele>
        <time>2021-01-16T11:38:57Z</time>
      </trkpt>
      <trkpt lat="45.30415" lon="6.05014">
        <ele>1940</ele>
        <time>2021-01-16T11:38:58Z</time>
      </trkpt>
      <trkpt lat="45.30415" lon="6.05014">
        <ele>1940</ele>
        <time>2021-01-16T11:38:59Z</time>
      </trkpt>
      <trkpt lat="45.30415" lon="6.05014">
        <ele>1940</ele>
        <time>2021-01-16T11:39:00Z</time>
      </trkpt>
      <trkpt lat="45.30415" lon="6.05014">
        <ele>1940.2</ele>
        <time>2021-01-16T11:39:01Z</time>
      </trkpt>
      <trkpt lat="45.30415" lon="6.05014">
        <ele>1940.2</ele>
        <time>2021-01-16T11:39:02Z</time>
      </trkpt>
      <trkpt lat="45.30415" lon="6.05014">
        <ele>1940.2</ele>
        <time>2021-01-16T11:39:03Z</time>
      </trkpt>
      <trkpt lat="45.30415" lon="6.05014">
        <ele>1940.2</ele>
        <time>2021-01-16T11:39:04Z</time>
      </trkpt>
      <trkpt lat="45.30415" lon="6.05014">
        <ele>1940.2</ele>
        <time>2021-01-16T11:39:05Z</time>
      </trkpt>
      <trkpt lat="45.30415" lon="6.05014">
        <ele>1940.2</ele>
        <time>2021-01-16T11:39:06Z</time>
      </trkpt>
      <trkpt lat="45.30415" lon="6.05014">
        <ele>1940.2</ele>
        <time>2021-01-16T11:39:07Z</time>
      </trkpt>
      <trkpt lat="45.30415" lon="6.05014">
        <ele>1940.2</ele>
        <time>2021-01-16T11:39:08Z</time>
      </trkpt>
      <trkpt lat="45.30415" lon="6.05014">
        <ele>1940.2</ele>
        <time>2021-01-16T11:39:09Z</time>
      </trkpt>
      <trkpt lat="45.30415" lon="6.05014">
        <ele>1940.2</ele>
        <time>2021-01-16T11:39:10Z</time>
      </trkpt>
      <trkpt lat="45.30415" lon="6.05014">
        <ele>1940.2</ele>
        <time>2021-01-16T11:39:11Z</time>
      </trkpt>
      <trkpt lat="45.30415" lon="6.05014">
        <ele>1940.2</ele>
        <time>2021-01-16T11:39:12Z</time>
      </trkpt>
      <trkpt lat="45.30415" lon="6.05014">
        <ele>1940.2</ele>
        <time>2021-01-16T11:39:13Z</time>
      </trkpt>
      <trkpt lat="45.30415" lon="6.05014">
        <ele>1940.2</ele>
        <time>2021-01-16T11:39:14Z</time>
      </trkpt>
      <trkpt lat="45.30415" lon="6.05014">
        <ele>1940.2</ele>
        <time>2021-01-16T11:39:15Z</time>
      </trkpt>
      <trkpt lat="45.30415" lon="6.05014">
        <ele>1940.2</ele>
        <time>2021-01-16T11:39:16Z</time>
      </trkpt>
      <trkpt lat="45.30415" lon="6.05014">
        <ele>1940.2</ele>
        <time>2021-01-16T11:39:17Z</time>
      </trkpt>
      <trkpt lat="45.30415" lon="6.05014">
        <ele>1940.2</ele>
        <time>2021-01-16T11:39:18Z</time>
      </trkpt>
      <trkpt lat="45.30415" lon="6.05014">
        <ele>1940.2</ele>
        <time>2021-01-16T11:39:19Z</time>
      </trkpt>
      <trkpt lat="45.30415" lon="6.05014">
        <ele>1940.2</ele>
        <time>2021-01-16T11:39:20Z</time>
      </trkpt>
      <trkpt lat="45.30415" lon="6.05014">
        <ele>1940.2</ele>
        <time>2021-01-16T11:39:21Z</time>
      </trkpt>
      <trkpt lat="45.30415" lon="6.05014">
        <ele>1940.2</ele>
        <time>2021-01-16T11:39:22Z</time>
      </trkpt>
      <trkpt lat="45.30415" lon="6.05014">
        <ele>1940.2</ele>
        <time>2021-01-16T11:39:23Z</time>
      </trkpt>
      <trkpt lat="45.30415" lon="6.05014">
        <ele>1940.2</ele>
        <time>2021-01-16T11:39:24Z</time>
      </trkpt>
      <trkpt lat="45.30415" lon="6.05014">
        <ele>1940.2</ele>
        <time>2021-01-16T11:39:25Z</time>
      </trkpt>
      <trkpt lat="45.30415" lon="6.05014">
        <ele>1940.2</ele>
        <time>2021-01-16T11:39:26Z</time>
      </trkpt>
      <trkpt lat="45.30415" lon="6.05014">
        <ele>1940.2</ele>
        <time>2021-01-16T11:39:27Z</time>
      </trkpt>
      <trkpt lat="45.30415" lon="6.05014">
        <ele>1940.2</ele>
        <time>2021-01-16T11:39:28Z</time>
      </trkpt>
      <trkpt lat="45.30415" lon="6.05014">
        <ele>1940.2</ele>
        <time>2021-01-16T11:39:29Z</time>
      </trkpt>
      <trkpt lat="45.30415" lon="6.05014">
        <ele>1940.4</ele>
        <time>2021-01-16T11:39:30Z</time>
      </trkpt>
      <trkpt lat="45.30415" lon="6.05014">
        <ele>1940.4</ele>
        <time>2021-01-16T11:39:31Z</time>
      </trkpt>
      <trkpt lat="45.30415" lon="6.05014">
        <ele>1940.2</ele>
        <time>2021-01-16T11:39:32Z</time>
      </trkpt>
      <trkpt lat="45.30415" lon="6.05014">
        <ele>1940.2</ele>
        <time>2021-01-16T11:39:33Z</time>
      </trkpt>
      <trkpt lat="45.30415" lon="6.05014">
        <ele>1940.2</ele>
        <time>2021-01-16T11:39:34Z</time>
      </trkpt>
      <trkpt lat="45.30415" lon="6.05014">
        <ele>1940.2</ele>
        <time>2021-01-16T11:39:35Z</time>
      </trkpt>
      <trkpt lat="45.30415" lon="6.05014">
        <ele>1940.2</ele>
        <time>2021-01-16T11:39:36Z</time>
      </trkpt>
      <trkpt lat="45.30415" lon="6.05014">
        <ele>1940.2</ele>
        <time>2021-01-16T11:39:37Z</time>
      </trkpt>
      <trkpt lat="45.30415" lon="6.05014">
        <ele>1940.2</ele>
        <time>2021-01-16T11:39:38Z</time>
      </trkpt>
      <trkpt lat="45.30415" lon="6.05014">
        <ele>1940.4</ele>
        <time>2021-01-16T11:39:39Z</time>
      </trkpt>
      <trkpt lat="45.30415" lon="6.05014">
        <ele>1940.4</ele>
        <time>2021-01-16T11:39:40Z</time>
      </trkpt>
      <trkpt lat="45.30415" lon="6.05014">
        <ele>1940.4</ele>
        <time>2021-01-16T11:39:41Z</time>
      </trkpt>
      <trkpt lat="45.30415" lon="6.05014">
        <ele>1940.4</ele>
        <time>2021-01-16T11:39:42Z</time>
      </trkpt>
      <trkpt lat="45.30415" lon="6.05014">
        <ele>1940.4</ele>
        <time>2021-01-16T11:39:43Z</time>
      </trkpt>
      <trkpt lat="45.30415" lon="6.05014">
        <ele>1940.4</ele>
        <time>2021-01-16T11:39:44Z</time>
      </trkpt>
      <trkpt lat="45.30415" lon="6.05014">
        <ele>1940.4</ele>
        <time>2021-01-16T11:39:45Z</time>
      </trkpt>
      <trkpt lat="45.30415" lon="6.05014">
        <ele>1940.4</ele>
        <time>2021-01-16T11:39:46Z</time>
      </trkpt>
      <trkpt lat="45.30415" lon="6.05014">
        <ele>1940.4</ele>
        <time>2021-01-16T11:39:47Z</time>
      </trkpt>
      <trkpt lat="45.30415" lon="6.05014">
        <ele>1940.4</ele>
        <time>2021-01-16T11:39:48Z</time>
      </trkpt>
      <trkpt lat="45.30415" lon="6.05014">
        <ele>1940.4</ele>
        <time>2021-01-16T11:39:49Z</time>
      </trkpt>
      <trkpt lat="45.30415" lon="6.05014">
        <ele>1940.4</ele>
        <time>2021-01-16T11:39:50Z</time>
      </trkpt>
      <trkpt lat="45.30415" lon="6.05014">
        <ele>1940.4</ele>
        <time>2021-01-16T11:39:51Z</time>
      </trkpt>
      <trkpt lat="45.30415" lon="6.05014">
        <ele>1940.4</ele>
        <time>2021-01-16T11:39:52Z</time>
      </trkpt>
      <trkpt lat="45.30415" lon="6.05014">
        <ele>1940.4</ele>
        <time>2021-01-16T11:39:53Z</time>
      </trkpt>
      <trkpt lat="45.30415" lon="6.05014">
        <ele>1940.4</ele>
        <time>2021-01-16T11:39:54Z</time>
      </trkpt>
      <trkpt lat="45.30415" lon="6.05014">
        <ele>1940.4</ele>
        <time>2021-01-16T11:39:55Z</time>
      </trkpt>
      <trkpt lat="45.30415" lon="6.05014">
        <ele>1940.4</ele>
        <time>2021-01-16T11:39:56Z</time>
      </trkpt>
      <trkpt lat="45.30415" lon="6.05014">
        <ele>1940.4</ele>
        <time>2021-01-16T11:39:57Z</time>
      </trkpt>
      <trkpt lat="45.30415" lon="6.05014">
        <ele>1940.4</ele>
        <time>2021-01-16T11:39:58Z</time>
      </trkpt>
      <trkpt lat="45.30415" lon="6.05014">
        <ele>1940.4</ele>
        <time>2021-01-16T11:39:59Z</time>
      </trkpt>
      <trkpt lat="45.30415" lon="6.05014">
        <ele>1940.4</ele>
        <time>2021-01-16T11:40:00Z</time>
      </trkpt>
      <trkpt lat="45.30415" lon="6.05014">
        <ele>1940.4</ele>
        <time>2021-01-16T11:40:01Z</time>
      </trkpt>
      <trkpt lat="45.30415" lon="6.05014">
        <ele>1940.4</ele>
        <time>2021-01-16T11:40:02Z</time>
      </trkpt>
      <trkpt lat="45.30415" lon="6.05014">
        <ele>1940.4</ele>
        <time>2021-01-16T11:40:03Z</time>
      </trkpt>
      <trkpt lat="45.30415" lon="6.05014">
        <ele>1940.4</ele>
        <time>2021-01-16T11:40:04Z</time>
      </trkpt>
      <trkpt lat="45.30415" lon="6.05014">
        <ele>1940.4</ele>
        <time>2021-01-16T11:40:05Z</time>
      </trkpt>
      <trkpt lat="45.30415" lon="6.05014">
        <ele>1940.4</ele>
        <time>2021-01-16T11:40:06Z</time>
      </trkpt>
      <trkpt lat="45.30415" lon="6.05014">
        <ele>1940.4</ele>
        <time>2021-01-16T11:40:07Z</time>
      </trkpt>
      <trkpt lat="45.30415" lon="6.05014">
        <ele>1940.4</ele>
        <time>2021-01-16T11:40:08Z</time>
      </trkpt>
      <trkpt lat="45.30415" lon="6.05014">
        <ele>1940.4</ele>
        <time>2021-01-16T11:40:09Z</time>
      </trkpt>
      <trkpt lat="45.30415" lon="6.05014">
        <ele>1940.4</ele>
        <time>2021-01-16T11:40:10Z</time>
      </trkpt>
      <trkpt lat="45.30415" lon="6.05014">
        <ele>1940.4</ele>
        <time>2021-01-16T11:40:11Z</time>
      </trkpt>
      <trkpt lat="45.30415" lon="6.05014">
        <ele>1940.4</ele>
        <time>2021-01-16T11:40:12Z</time>
      </trkpt>
      <trkpt lat="45.30415" lon="6.05014">
        <ele>1940.4</ele>
        <time>2021-01-16T11:40:13Z</time>
      </trkpt>
      <trkpt lat="45.30415" lon="6.05014">
        <ele>1940.4</ele>
        <time>2021-01-16T11:40:14Z</time>
      </trkpt>
      <trkpt lat="45.30415" lon="6.05014">
        <ele>1940.4</ele>
        <time>2021-01-16T11:40:15Z</time>
      </trkpt>
      <trkpt lat="45.30415" lon="6.05014">
        <ele>1940.4</ele>
        <time>2021-01-16T11:40:16Z</time>
      </trkpt>
      <trkpt lat="45.30415" lon="6.05014">
        <ele>1940.4</ele>
        <time>2021-01-16T11:40:17Z</time>
      </trkpt>
      <trkpt lat="45.30415" lon="6.05014">
        <ele>1940.4</ele>
        <time>2021-01-16T11:40:18Z</time>
      </trkpt>
      <trkpt lat="45.30415" lon="6.05014">
        <ele>1940.4</ele>
        <time>2021-01-16T11:40:19Z</time>
      </trkpt>
      <trkpt lat="45.30415" lon="6.05014">
        <ele>1940.4</ele>
        <time>2021-01-16T11:40:20Z</time>
      </trkpt>
      <trkpt lat="45.30415" lon="6.05014">
        <ele>1940.4</ele>
        <time>2021-01-16T11:40:21Z</time>
      </trkpt>
      <trkpt lat="45.30415" lon="6.05014">
        <ele>1940.4</ele>
        <time>2021-01-16T11:40:22Z</time>
      </trkpt>
      <trkpt lat="45.30415" lon="6.05014">
        <ele>1940.4</ele>
        <time>2021-01-16T11:40:23Z</time>
      </trkpt>
      <trkpt lat="45.30415" lon="6.05014">
        <ele>1940.4</ele>
        <time>2021-01-16T11:40:24Z</time>
      </trkpt>
      <trkpt lat="45.30415" lon="6.05014">
        <ele>1940.4</ele>
        <time>2021-01-16T11:40:25Z</time>
      </trkpt>
      <trkpt lat="45.30415" lon="6.05014">
        <ele>1940.4</ele>
        <time>2021-01-16T11:40:26Z</time>
      </trkpt>
      <trkpt lat="45.30415" lon="6.05014">
        <ele>1940.4</ele>
        <time>2021-01-16T11:40:27Z</time>
      </trkpt>
      <trkpt lat="45.30415" lon="6.05014">
        <ele>1940.4</ele>
        <time>2021-01-16T11:40:28Z</time>
      </trkpt>
      <trkpt lat="45.30415" lon="6.05014">
        <ele>1940.4</ele>
        <time>2021-01-16T11:40:29Z</time>
      </trkpt>
      <trkpt lat="45.30415" lon="6.05014">
        <ele>1940.4</ele>
        <time>2021-01-16T11:40:30Z</time>
      </trkpt>
      <trkpt lat="45.30415" lon="6.05014">
        <ele>1940.4</ele>
        <time>2021-01-16T11:40:31Z</time>
      </trkpt>
      <trkpt lat="45.30415" lon="6.05014">
        <ele>1940.4</ele>
        <time>2021-01-16T11:40:32Z</time>
      </trkpt>
      <trkpt lat="45.30415" lon="6.05014">
        <ele>1940.6</ele>
        <time>2021-01-16T11:40:33Z</time>
      </trkpt>
      <trkpt lat="45.30415" lon="6.05014">
        <ele>1940.6</ele>
        <time>2021-01-16T11:40:34Z</time>
      </trkpt>
      <trkpt lat="45.30415" lon="6.05014">
        <ele>1940.6</ele>
        <time>2021-01-16T11:40:35Z</time>
      </trkpt>
      <trkpt lat="45.30415" lon="6.05014">
        <ele>1940.6</ele>
        <time>2021-01-16T11:40:36Z</time>
      </trkpt>
      <trkpt lat="45.30415" lon="6.05014">
        <ele>1940.6</ele>
        <time>2021-01-16T11:40:37Z</time>
      </trkpt>
      <trkpt lat="45.30415" lon="6.05014">
        <ele>1940.6</ele>
        <time>2021-01-16T11:40:38Z</time>
      </trkpt>
      <trkpt lat="45.30415" lon="6.05014">
        <ele>1940.6</ele>
        <time>2021-01-16T11:40:39Z</time>
      </trkpt>
      <trkpt lat="45.30415" lon="6.05014">
        <ele>1940.6</ele>
        <time>2021-01-16T11:40:40Z</time>
      </trkpt>
      <trkpt lat="45.30415" lon="6.05014">
        <ele>1940.6</ele>
        <time>2021-01-16T11:40:41Z</time>
      </trkpt>
      <trkpt lat="45.30415" lon="6.05014">
        <ele>1940.6</ele>
        <time>2021-01-16T11:40:42Z</time>
      </trkpt>
      <trkpt lat="45.30415" lon="6.05014">
        <ele>1940.6</ele>
        <time>2021-01-16T11:40:43Z</time>
      </trkpt>
      <trkpt lat="45.30415" lon="6.05014">
        <ele>1940.6</ele>
        <time>2021-01-16T11:40:44Z</time>
      </trkpt>
      <trkpt lat="45.30415" lon="6.05014">
        <ele>1940.6</ele>
        <time>2021-01-16T11:40:45Z</time>
      </trkpt>
      <trkpt lat="45.30415" lon="6.05014">
        <ele>1940.6</ele>
        <time>2021-01-16T11:40:46Z</time>
      </trkpt>
      <trkpt lat="45.30415" lon="6.05014">
        <ele>1940.6</ele>
        <time>2021-01-16T11:40:47Z</time>
      </trkpt>
      <trkpt lat="45.30415" lon="6.05014">
        <ele>1940.6</ele>
        <time>2021-01-16T11:40:48Z</time>
      </trkpt>
      <trkpt lat="45.30415" lon="6.05014">
        <ele>1940.6</ele>
        <time>2021-01-16T11:40:49Z</time>
      </trkpt>
      <trkpt lat="45.30415" lon="6.05014">
        <ele>1940.6</ele>
        <time>2021-01-16T11:40:50Z</time>
      </trkpt>
      <trkpt lat="45.30415" lon="6.05014">
        <ele>1940.6</ele>
        <time>2021-01-16T11:40:51Z</time>
      </trkpt>
      <trkpt lat="45.30415" lon="6.05014">
        <ele>1940.6</ele>
        <time>2021-01-16T11:40:52Z</time>
      </trkpt>
      <trkpt lat="45.30415" lon="6.05014">
        <ele>1940.6</ele>
        <time>2021-01-16T11:40:53Z</time>
      </trkpt>
      <trkpt lat="45.30415" lon="6.05014">
        <ele>1940.6</ele>
        <time>2021-01-16T11:40:54Z</time>
      </trkpt>
      <trkpt lat="45.30415" lon="6.05014">
        <ele>1940.6</ele>
        <time>2021-01-16T11:40:55Z</time>
      </trkpt>
      <trkpt lat="45.30415" lon="6.05014">
        <ele>1940.6</ele>
        <time>2021-01-16T11:40:56Z</time>
      </trkpt>
      <trkpt lat="45.30415" lon="6.05014">
        <ele>1940.6</ele>
        <time>2021-01-16T11:40:57Z</time>
      </trkpt>
      <trkpt lat="45.30415" lon="6.05014">
        <ele>1940.6</ele>
        <time>2021-01-16T11:40:58Z</time>
      </trkpt>
      <trkpt lat="45.30415" lon="6.05014">
        <ele>1940.6</ele>
        <time>2021-01-16T11:40:59Z</time>
      </trkpt>
      <trkpt lat="45.30415" lon="6.05014">
        <ele>1940.6</ele>
        <time>2021-01-16T11:41:00Z</time>
      </trkpt>
      <trkpt lat="45.30415" lon="6.05014">
        <ele>1940.6</ele>
        <time>2021-01-16T11:41:01Z</time>
      </trkpt>
      <trkpt lat="45.30415" lon="6.05014">
        <ele>1940.6</ele>
        <time>2021-01-16T11:41:02Z</time>
      </trkpt>
      <trkpt lat="45.30415" lon="6.05014">
        <ele>1940.6</ele>
        <time>2021-01-16T11:41:03Z</time>
      </trkpt>
      <trkpt lat="45.30415" lon="6.05014">
        <ele>1940.8</ele>
        <time>2021-01-16T11:41:04Z</time>
      </trkpt>
      <trkpt lat="45.30415" lon="6.05014">
        <ele>1940.8</ele>
        <time>2021-01-16T11:41:05Z</time>
      </trkpt>
      <trkpt lat="45.30415" lon="6.05014">
        <ele>1940.8</ele>
        <time>2021-01-16T11:41:06Z</time>
      </trkpt>
      <trkpt lat="45.30415" lon="6.05014">
        <ele>1940.8</ele>
        <time>2021-01-16T11:41:07Z</time>
      </trkpt>
      <trkpt lat="45.30415" lon="6.05014">
        <ele>1940.8</ele>
        <time>2021-01-16T11:41:08Z</time>
      </trkpt>
      <trkpt lat="45.30415" lon="6.05014">
        <ele>1940.8</ele>
        <time>2021-01-16T11:41:09Z</time>
      </trkpt>
      <trkpt lat="45.30415" lon="6.05014">
        <ele>1940.8</ele>
        <time>2021-01-16T11:41:10Z</time>
      </trkpt>
      <trkpt lat="45.30415" lon="6.05014">
        <ele>1940.8</ele>
        <time>2021-01-16T11:41:11Z</time>
      </trkpt>
      <trkpt lat="45.30415" lon="6.05014">
        <ele>1940.8</ele>
        <time>2021-01-16T11:41:12Z</time>
      </trkpt>
      <trkpt lat="45.30415" lon="6.05014">
        <ele>1940.8</ele>
        <time>2021-01-16T11:41:13Z</time>
      </trkpt>
      <trkpt lat="45.30415" lon="6.05014">
        <ele>1940.8</ele>
        <time>2021-01-16T11:41:14Z</time>
      </trkpt>
      <trkpt lat="45.30415" lon="6.05014">
        <ele>1940.8</ele>
        <time>2021-01-16T11:41:15Z</time>
      </trkpt>
      <trkpt lat="45.30415" lon="6.05014">
        <ele>1940.8</ele>
        <time>2021-01-16T11:41:16Z</time>
      </trkpt>
      <trkpt lat="45.30415" lon="6.05014">
        <ele>1940.8</ele>
        <time>2021-01-16T11:41:17Z</time>
      </trkpt>
      <trkpt lat="45.30415" lon="6.05014">
        <ele>1940.8</ele>
        <time>2021-01-16T11:41:18Z</time>
      </trkpt>
      <trkpt lat="45.30415" lon="6.05014">
        <ele>1940.8</ele>
        <time>2021-01-16T11:41:19Z</time>
      </trkpt>
      <trkpt lat="45.30415" lon="6.05014">
        <ele>1940.8</ele>
        <time>2021-01-16T11:41:20Z</time>
      </trkpt>
      <trkpt lat="45.30415" lon="6.05014">
        <ele>1940.8</ele>
        <time>2021-01-16T11:41:21Z</time>
      </trkpt>
      <trkpt lat="45.30415" lon="6.05014">
        <ele>1940.8</ele>
        <time>2021-01-16T11:41:22Z</time>
      </trkpt>
      <trkpt lat="45.30415" lon="6.05014">
        <ele>1940.8</ele>
        <time>2021-01-16T11:41:23Z</time>
      </trkpt>
      <trkpt lat="45.30415" lon="6.05014">
        <ele>1940.8</ele>
        <time>2021-01-16T11:41:24Z</time>
      </trkpt>
      <trkpt lat="45.30415" lon="6.05014">
        <ele>1940.8</ele>
        <time>2021-01-16T11:41:25Z</time>
      </trkpt>
      <trkpt lat="45.30415" lon="6.05014">
        <ele>1940.8</ele>
        <time>2021-01-16T11:41:26Z</time>
      </trkpt>
      <trkpt lat="45.30415" lon="6.05014">
        <ele>1940.8</ele>
        <time>2021-01-16T11:41:27Z</time>
      </trkpt>
      <trkpt lat="45.30415" lon="6.05014">
        <ele>1940.8</ele>
        <time>2021-01-16T11:41:28Z</time>
      </trkpt>
      <trkpt lat="45.30415" lon="6.05014">
        <ele>1940.8</ele>
        <time>2021-01-16T11:41:29Z</time>
      </trkpt>
      <trkpt lat="45.30415" lon="6.05014">
        <ele>1940.8</ele>
        <time>2021-01-16T11:41:30Z</time>
      </trkpt>
      <trkpt lat="45.30415" lon="6.05014">
        <ele>1940.8</ele>
        <time>2021-01-16T11:41:31Z</time>
      </trkpt>
      <trkpt lat="45.30415" lon="6.05014">
        <ele>1940.8</ele>
        <time>2021-01-16T11:41:32Z</time>
      </trkpt>
      <trkpt lat="45.30415" lon="6.05014">
        <ele>1941</ele>
        <time>2021-01-16T11:41:33Z</time>
      </trkpt>
      <trkpt lat="45.30415" lon="6.05014">
        <ele>1941</ele>
        <time>2021-01-16T11:41:34Z</time>
      </trkpt>
      <trkpt lat="45.30415" lon="6.05014">
        <ele>1941</ele>
        <time>2021-01-16T11:41:35Z</time>
      </trkpt>
      <trkpt lat="45.30415" lon="6.05014">
        <ele>1941</ele>
        <time>2021-01-16T11:41:36Z</time>
      </trkpt>
      <trkpt lat="45.30415" lon="6.05014">
        <ele>1941</ele>
        <time>2021-01-16T11:41:37Z</time>
      </trkpt>
      <trkpt lat="45.30415" lon="6.05014">
        <ele>1941</ele>
        <time>2021-01-16T11:41:38Z</time>
      </trkpt>
      <trkpt lat="45.30415" lon="6.05014">
        <ele>1941</ele>
        <time>2021-01-16T11:41:39Z</time>
      </trkpt>
      <trkpt lat="45.30415" lon="6.05014">
        <ele>1941</ele>
        <time>2021-01-16T11:41:40Z</time>
      </trkpt>
      <trkpt lat="45.30415" lon="6.05014">
        <ele>1941</ele>
        <time>2021-01-16T11:41:41Z</time>
      </trkpt>
      <trkpt lat="45.30415" lon="6.05014">
        <ele>1941</ele>
        <time>2021-01-16T11:41:42Z</time>
      </trkpt>
      <trkpt lat="45.30415" lon="6.05014">
        <ele>1941</ele>
        <time>2021-01-16T11:41:43Z</time>
      </trkpt>
      <trkpt lat="45.30415" lon="6.05014">
        <ele>1941</ele>
        <time>2021-01-16T11:41:44Z</time>
      </trkpt>
      <trkpt lat="45.30415" lon="6.05014">
        <ele>1941</ele>
        <time>2021-01-16T11:41:45Z</time>
      </trkpt>
      <trkpt lat="45.30415" lon="6.05014">
        <ele>1941</ele>
        <time>2021-01-16T11:41:46Z</time>
      </trkpt>
      <trkpt lat="45.30415" lon="6.05014">
        <ele>1941</ele>
        <time>2021-01-16T11:41:47Z</time>
      </trkpt>
      <trkpt lat="45.30415" lon="6.05014">
        <ele>1941</ele>
        <time>2021-01-16T11:41:48Z</time>
      </trkpt>
      <trkpt lat="45.30415" lon="6.05014">
        <ele>1941</ele>
        <time>2021-01-16T11:41:49Z</time>
      </trkpt>
      <trkpt lat="45.30415" lon="6.05014">
        <ele>1941</ele>
        <time>2021-01-16T11:41:50Z</time>
      </trkpt>
      <trkpt lat="45.30415" lon="6.05014">
        <ele>1941</ele>
        <time>2021-01-16T11:41:51Z</time>
      </trkpt>
      <trkpt lat="45.30415" lon="6.05014">
        <ele>1941</ele>
        <time>2021-01-16T11:41:52Z</time>
      </trkpt>
      <trkpt lat="45.30415" lon="6.05014">
        <ele>1941</ele>
        <time>2021-01-16T11:41:53Z</time>
      </trkpt>
      <trkpt lat="45.30415" lon="6.05014">
        <ele>1941</ele>
        <time>2021-01-16T11:41:54Z</time>
      </trkpt>
      <trkpt lat="45.30415" lon="6.05014">
        <ele>1941</ele>
        <time>2021-01-16T11:41:55Z</time>
      </trkpt>
      <trkpt lat="45.30415" lon="6.05014">
        <ele>1941</ele>
        <time>2021-01-16T11:41:56Z</time>
      </trkpt>
      <trkpt lat="45.30415" lon="6.05014">
        <ele>1941</ele>
        <time>2021-01-16T11:41:57Z</time>
      </trkpt>
      <trkpt lat="45.30415" lon="6.05014">
        <ele>1941</ele>
        <time>2021-01-16T11:41:58Z</time>
      </trkpt>
      <trkpt lat="45.30415" lon="6.05014">
        <ele>1941</ele>
        <time>2021-01-16T11:41:59Z</time>
      </trkpt>
      <trkpt lat="45.30415" lon="6.05014">
        <ele>1941</ele>
        <time>2021-01-16T11:42:00Z</time>
      </trkpt>
      <trkpt lat="45.30415" lon="6.05014">
        <ele>1941</ele>
        <time>2021-01-16T11:42:01Z</time>
      </trkpt>
      <trkpt lat="45.30415" lon="6.05014">
        <ele>1941</ele>
        <time>2021-01-16T11:42:02Z</time>
      </trkpt>
      <trkpt lat="45.30415" lon="6.05014">
        <ele>1941</ele>
        <time>2021-01-16T11:42:03Z</time>
      </trkpt>
      <trkpt lat="45.30415" lon="6.05014">
        <ele>1941</ele>
        <time>2021-01-16T11:42:04Z</time>
      </trkpt>
      <trkpt lat="45.30415" lon="6.05014">
        <ele>1941</ele>
        <time>2021-01-16T11:42:05Z</time>
      </trkpt>
      <trkpt lat="45.30415" lon="6.05014">
        <ele>1941</ele>
        <time>2021-01-16T11:42:06Z</time>
      </trkpt>
      <trkpt lat="45.30415" lon="6.05014">
        <ele>1941</ele>
        <time>2021-01-16T11:42:07Z</time>
      </trkpt>
      <trkpt lat="45.30415" lon="6.05014">
        <ele>1941</ele>
        <time>2021-01-16T11:42:08Z</time>
      </trkpt>
      <trkpt lat="45.30415" lon="6.05014">
        <ele>1941</ele>
        <time>2021-01-16T11:42:09Z</time>
      </trkpt>
      <trkpt lat="45.30415" lon="6.05014">
        <ele>1941</ele>
        <time>2021-01-16T11:42:10Z</time>
      </trkpt>
      <trkpt lat="45.30415" lon="6.05014">
        <ele>1941</ele>
        <time>2021-01-16T11:42:11Z</time>
      </trkpt>
      <trkpt lat="45.30415" lon="6.05014">
        <ele>1941</ele>
        <time>2021-01-16T11:42:12Z</time>
      </trkpt>
      <trkpt lat="45.30415" lon="6.05014">
        <ele>1941</ele>
        <time>2021-01-16T11:42:13Z</time>
      </trkpt>
      <trkpt lat="45.30415" lon="6.05014">
        <ele>1941</ele>
        <time>2021-01-16T11:42:14Z</time>
      </trkpt>
      <trkpt lat="45.30415" lon="6.05014">
        <ele>1941</ele>
        <time>2021-01-16T11:42:15Z</time>
      </trkpt>
      <trkpt lat="45.30415" lon="6.05014">
        <ele>1941</ele>
        <time>2021-01-16T11:42:16Z</time>
      </trkpt>
      <trkpt lat="45.30415" lon="6.05014">
        <ele>1941</ele>
        <time>2021-01-16T11:42:17Z</time>
      </trkpt>
      <trkpt lat="45.30415" lon="6.05014">
        <ele>1941.2</ele>
        <time>2021-01-16T11:42:18Z</time>
      </trkpt>
      <trkpt lat="45.30415" lon="6.05014">
        <ele>1941.2</ele>
        <time>2021-01-16T11:42:19Z</time>
      </trkpt>
      <trkpt lat="45.30415" lon="6.05014">
        <ele>1941.2</ele>
        <time>2021-01-16T11:42:20Z</time>
      </trkpt>
      <trkpt lat="45.30415" lon="6.05014">
        <ele>1941.2</ele>
        <time>2021-01-16T11:42:21Z</time>
      </trkpt>
      <trkpt lat="45.30415" lon="6.05014">
        <ele>1941.2</ele>
        <time>2021-01-16T11:42:22Z</time>
      </trkpt>
      <trkpt lat="45.30415" lon="6.05014">
        <ele>1941.2</ele>
        <time>2021-01-16T11:42:23Z</time>
      </trkpt>
      <trkpt lat="45.30415" lon="6.05014">
        <ele>1941.2</ele>
        <time>2021-01-16T11:42:24Z</time>
      </trkpt>
      <trkpt lat="45.30415" lon="6.05014">
        <ele>1941.2</ele>
        <time>2021-01-16T11:42:25Z</time>
      </trkpt>
      <trkpt lat="45.30415" lon="6.05014">
        <ele>1941.2</ele>
        <time>2021-01-16T11:42:26Z</time>
      </trkpt>
      <trkpt lat="45.30415" lon="6.05014">
        <ele>1941.2</ele>
        <time>2021-01-16T11:42:27Z</time>
      </trkpt>
      <trkpt lat="45.30415" lon="6.05014">
        <ele>1941.2</ele>
        <time>2021-01-16T11:42:28Z</time>
      </trkpt>
      <trkpt lat="45.30415" lon="6.05014">
        <ele>1941.2</ele>
        <time>2021-01-16T11:42:29Z</time>
      </trkpt>
      <trkpt lat="45.30415" lon="6.05014">
        <ele>1941.4</ele>
        <time>2021-01-16T11:42:30Z</time>
      </trkpt>
      <trkpt lat="45.30415" lon="6.05014">
        <ele>1941.4</ele>
        <time>2021-01-16T11:42:31Z</time>
      </trkpt>
      <trkpt lat="45.30415" lon="6.05014">
        <ele>1941.4</ele>
        <time>2021-01-16T11:42:32Z</time>
      </trkpt>
      <trkpt lat="45.30415" lon="6.05014">
        <ele>1941.4</ele>
        <time>2021-01-16T11:42:33Z</time>
      </trkpt>
      <trkpt lat="45.30415" lon="6.05014">
        <ele>1941.4</ele>
        <time>2021-01-16T11:42:34Z</time>
      </trkpt>
      <trkpt lat="45.30415" lon="6.05014">
        <ele>1941.4</ele>
        <time>2021-01-16T11:42:35Z</time>
      </trkpt>
      <trkpt lat="45.30415" lon="6.05014">
        <ele>1941.4</ele>
        <time>2021-01-16T11:42:36Z</time>
      </trkpt>
      <trkpt lat="45.30415" lon="6.05014">
        <ele>1941.4</ele>
        <time>2021-01-16T11:42:37Z</time>
      </trkpt>
      <trkpt lat="45.30415" lon="6.05014">
        <ele>1941.4</ele>
        <time>2021-01-16T11:42:38Z</time>
      </trkpt>
      <trkpt lat="45.30415" lon="6.05014">
        <ele>1941.4</ele>
        <time>2021-01-16T11:42:39Z</time>
      </trkpt>
      <trkpt lat="45.30415" lon="6.05014">
        <ele>1941.4</ele>
        <time>2021-01-16T11:42:40Z</time>
      </trkpt>
      <trkpt lat="45.30415" lon="6.05014">
        <ele>1941.4</ele>
        <time>2021-01-16T11:42:41Z</time>
      </trkpt>
      <trkpt lat="45.30415" lon="6.05014">
        <ele>1941.4</ele>
        <time>2021-01-16T11:42:42Z</time>
      </trkpt>
      <trkpt lat="45.30415" lon="6.05014">
        <ele>1941.4</ele>
        <time>2021-01-16T11:42:43Z</time>
      </trkpt>
      <trkpt lat="45.30415" lon="6.05014">
        <ele>1941.4</ele>
        <time>2021-01-16T11:42:44Z</time>
      </trkpt>
      <trkpt lat="45.30415" lon="6.05014">
        <ele>1941.4</ele>
        <time>2021-01-16T11:42:45Z</time>
      </trkpt>
      <trkpt lat="45.30415" lon="6.05014">
        <ele>1941.4</ele>
        <time>2021-01-16T11:42:46Z</time>
      </trkpt>
      <trkpt lat="45.30415" lon="6.05014">
        <ele>1941.4</ele>
        <time>2021-01-16T11:42:47Z</time>
      </trkpt>
      <trkpt lat="45.30415" lon="6.05014">
        <ele>1941.4</ele>
        <time>2021-01-16T11:42:48Z</time>
      </trkpt>
      <trkpt lat="45.30415" lon="6.05014">
        <ele>1941.4</ele>
        <time>2021-01-16T11:42:49Z</time>
      </trkpt>
      <trkpt lat="45.30415" lon="6.05014">
        <ele>1941.4</ele>
        <time>2021-01-16T11:42:50Z</time>
      </trkpt>
      <trkpt lat="45.30415" lon="6.05014">
        <ele>1941.6</ele>
        <time>2021-01-16T11:42:51Z</time>
      </trkpt>
      <trkpt lat="45.30415" lon="6.05014">
        <ele>1941.6</ele>
        <time>2021-01-16T11:42:52Z</time>
      </trkpt>
      <trkpt lat="45.30415" lon="6.05014">
        <ele>1941.6</ele>
        <time>2021-01-16T11:42:53Z</time>
      </trkpt>
      <trkpt lat="45.30415" lon="6.05014">
        <ele>1941.6</ele>
        <time>2021-01-16T11:42:54Z</time>
      </trkpt>
      <trkpt lat="45.30415" lon="6.05014">
        <ele>1941.6</ele>
        <time>2021-01-16T11:42:55Z</time>
      </trkpt>
      <trkpt lat="45.30415" lon="6.05014">
        <ele>1941.6</ele>
        <time>2021-01-16T11:42:56Z</time>
      </trkpt>
      <trkpt lat="45.30415" lon="6.05014">
        <ele>1941.6</ele>
        <time>2021-01-16T11:42:57Z</time>
      </trkpt>
      <trkpt lat="45.30415" lon="6.05014">
        <ele>1941.6</ele>
        <time>2021-01-16T11:42:58Z</time>
      </trkpt>
      <trkpt lat="45.30415" lon="6.05014">
        <ele>1941.6</ele>
        <time>2021-01-16T11:42:59Z</time>
      </trkpt>
      <trkpt lat="45.30415" lon="6.05014">
        <ele>1941.6</ele>
        <time>2021-01-16T11:43:00Z</time>
      </trkpt>
      <trkpt lat="45.30415" lon="6.05014">
        <ele>1941.6</ele>
        <time>2021-01-16T11:43:01Z</time>
      </trkpt>
      <trkpt lat="45.30415" lon="6.05014">
        <ele>1941.6</ele>
        <time>2021-01-16T11:43:02Z</time>
      </trkpt>
      <trkpt lat="45.30415" lon="6.05014">
        <ele>1941.6</ele>
        <time>2021-01-16T11:43:03Z</time>
      </trkpt>
      <trkpt lat="45.30415" lon="6.05014">
        <ele>1941.6</ele>
        <time>2021-01-16T11:43:04Z</time>
      </trkpt>
      <trkpt lat="45.30415" lon="6.05014">
        <ele>1941.6</ele>
        <time>2021-01-16T11:43:05Z</time>
      </trkpt>
      <trkpt lat="45.30415" lon="6.05014">
        <ele>1941.6</ele>
        <time>2021-01-16T11:43:06Z</time>
      </trkpt>
      <trkpt lat="45.30415" lon="6.05014">
        <ele>1941.6</ele>
        <time>2021-01-16T11:43:07Z</time>
      </trkpt>
      <trkpt lat="45.30415" lon="6.05014">
        <ele>1941.6</ele>
        <time>2021-01-16T11:43:08Z</time>
      </trkpt>
      <trkpt lat="45.30415" lon="6.05014">
        <ele>1941.6</ele>
        <time>2021-01-16T11:43:09Z</time>
      </trkpt>
      <trkpt lat="45.30415" lon="6.05014">
        <ele>1941.6</ele>
        <time>2021-01-16T11:43:10Z</time>
      </trkpt>
      <trkpt lat="45.30415" lon="6.05014">
        <ele>1941.6</ele>
        <time>2021-01-16T11:43:11Z</time>
      </trkpt>
      <trkpt lat="45.30415" lon="6.05014">
        <ele>1941.6</ele>
        <time>2021-01-16T11:43:12Z</time>
      </trkpt>
      <trkpt lat="45.30415" lon="6.05014">
        <ele>1941.6</ele>
        <time>2021-01-16T11:43:13Z</time>
      </trkpt>
      <trkpt lat="45.30415" lon="6.05014">
        <ele>1941.6</ele>
        <time>2021-01-16T11:43:14Z</time>
      </trkpt>
      <trkpt lat="45.30415" lon="6.05014">
        <ele>1941.6</ele>
        <time>2021-01-16T11:43:15Z</time>
      </trkpt>
      <trkpt lat="45.30415" lon="6.05014">
        <ele>1941.6</ele>
        <time>2021-01-16T11:43:16Z</time>
      </trkpt>
      <trkpt lat="45.30415" lon="6.05014">
        <ele>1941.6</ele>
        <time>2021-01-16T11:43:17Z</time>
      </trkpt>
      <trkpt lat="45.30415" lon="6.05014">
        <ele>1941.6</ele>
        <time>2021-01-16T11:43:18Z</time>
      </trkpt>
      <trkpt lat="45.30415" lon="6.05014">
        <ele>1941.6</ele>
        <time>2021-01-16T11:43:19Z</time>
      </trkpt>
      <trkpt lat="45.30415" lon="6.05014">
        <ele>1941.6</ele>
        <time>2021-01-16T11:43:20Z</time>
      </trkpt>
      <trkpt lat="45.30415" lon="6.05014">
        <ele>1941.6</ele>
        <time>2021-01-16T11:43:21Z</time>
      </trkpt>
      <trkpt lat="45.30415" lon="6.05014">
        <ele>1941.6</ele>
        <time>2021-01-16T11:43:22Z</time>
      </trkpt>
      <trkpt lat="45.30415" lon="6.05014">
        <ele>1941.6</ele>
        <time>2021-01-16T11:43:23Z</time>
      </trkpt>
      <trkpt lat="45.30415" lon="6.05014">
        <ele>1941.6</ele>
        <time>2021-01-16T11:43:24Z</time>
      </trkpt>
      <trkpt lat="45.30415" lon="6.05014">
        <ele>1941.6</ele>
        <time>2021-01-16T11:43:25Z</time>
      </trkpt>
      <trkpt lat="45.30415" lon="6.05014">
        <ele>1941.6</ele>
        <time>2021-01-16T11:43:26Z</time>
      </trkpt>
      <trkpt lat="45.30415" lon="6.05014">
        <ele>1941.6</ele>
        <time>2021-01-16T11:43:27Z</time>
      </trkpt>
      <trkpt lat="45.30415" lon="6.05014">
        <ele>1941.6</ele>
        <time>2021-01-16T11:43:28Z</time>
      </trkpt>
      <trkpt lat="45.30415" lon="6.05014">
        <ele>1941.6</ele>
        <time>2021-01-16T11:43:29Z</time>
      </trkpt>
      <trkpt lat="45.30415" lon="6.05014">
        <ele>1941.6</ele>
        <time>2021-01-16T11:43:30Z</time>
      </trkpt>
      <trkpt lat="45.30415" lon="6.05014">
        <ele>1941.6</ele>
        <time>2021-01-16T11:43:31Z</time>
      </trkpt>
      <trkpt lat="45.30415" lon="6.05014">
        <ele>1941.6</ele>
        <time>2021-01-16T11:43:32Z</time>
      </trkpt>
      <trkpt lat="45.30415" lon="6.05014">
        <ele>1941.6</ele>
        <time>2021-01-16T11:43:33Z</time>
      </trkpt>
      <trkpt lat="45.30415" lon="6.05014">
        <ele>1941.8</ele>
        <time>2021-01-16T11:43:34Z</time>
      </trkpt>
      <trkpt lat="45.30415" lon="6.05014">
        <ele>1941.6</ele>
        <time>2021-01-16T11:43:35Z</time>
      </trkpt>
      <trkpt lat="45.30415" lon="6.05014">
        <ele>1941.6</ele>
        <time>2021-01-16T11:43:36Z</time>
      </trkpt>
      <trkpt lat="45.30415" lon="6.05014">
        <ele>1941.6</ele>
        <time>2021-01-16T11:43:37Z</time>
      </trkpt>
      <trkpt lat="45.30415" lon="6.05014">
        <ele>1941.6</ele>
        <time>2021-01-16T11:43:38Z</time>
      </trkpt>
      <trkpt lat="45.30415" lon="6.05014">
        <ele>1941.6</ele>
        <time>2021-01-16T11:43:39Z</time>
      </trkpt>
      <trkpt lat="45.30415" lon="6.05014">
        <ele>1941.6</ele>
        <time>2021-01-16T11:43:40Z</time>
      </trkpt>
      <trkpt lat="45.30415" lon="6.05014">
        <ele>1941.6</ele>
        <time>2021-01-16T11:43:41Z</time>
      </trkpt>
      <trkpt lat="45.30415" lon="6.05014">
        <ele>1941.6</ele>
        <time>2021-01-16T11:43:42Z</time>
      </trkpt>
      <trkpt lat="45.30415" lon="6.05014">
        <ele>1941.6</ele>
        <time>2021-01-16T11:43:43Z</time>
      </trkpt>
      <trkpt lat="45.30415" lon="6.05014">
        <ele>1941.6</ele>
        <time>2021-01-16T11:43:44Z</time>
      </trkpt>
      <trkpt lat="45.30415" lon="6.05014">
        <ele>1941.6</ele>
        <time>2021-01-16T11:43:45Z</time>
      </trkpt>
      <trkpt lat="45.30415" lon="6.05014">
        <ele>1941.6</ele>
        <time>2021-01-16T11:43:46Z</time>
      </trkpt>
      <trkpt lat="45.30415" lon="6.05014">
        <ele>1941.6</ele>
        <time>2021-01-16T11:43:47Z</time>
      </trkpt>
      <trkpt lat="45.30415" lon="6.05014">
        <ele>1941.6</ele>
        <time>2021-01-16T11:43:48Z</time>
      </trkpt>
      <trkpt lat="45.30415" lon="6.05014">
        <ele>1941.6</ele>
        <time>2021-01-16T11:43:49Z</time>
      </trkpt>
      <trkpt lat="45.30415" lon="6.05014">
        <ele>1941.6</ele>
        <time>2021-01-16T11:43:50Z</time>
      </trkpt>
      <trkpt lat="45.30415" lon="6.05014">
        <ele>1941.6</ele>
        <time>2021-01-16T11:43:51Z</time>
      </trkpt>
      <trkpt lat="45.30415" lon="6.05014">
        <ele>1941.6</ele>
        <time>2021-01-16T11:43:52Z</time>
      </trkpt>
      <trkpt lat="45.30415" lon="6.05014">
        <ele>1941.6</ele>
        <time>2021-01-16T11:43:53Z</time>
      </trkpt>
      <trkpt lat="45.30415" lon="6.05014">
        <ele>1941.6</ele>
        <time>2021-01-16T11:43:54Z</time>
      </trkpt>
      <trkpt lat="45.30415" lon="6.05014">
        <ele>1941.6</ele>
        <time>2021-01-16T11:43:55Z</time>
      </trkpt>
      <trkpt lat="45.30415" lon="6.05014">
        <ele>1941.6</ele>
        <time>2021-01-16T11:43:56Z</time>
      </trkpt>
      <trkpt lat="45.30415" lon="6.05014">
        <ele>1941.8</ele>
        <time>2021-01-16T11:43:57Z</time>
      </trkpt>
      <trkpt lat="45.30415" lon="6.05014">
        <ele>1941.8</ele>
        <time>2021-01-16T11:43:58Z</time>
      </trkpt>
      <trkpt lat="45.30415" lon="6.05014">
        <ele>1941.8</ele>
        <time>2021-01-16T11:43:59Z</time>
      </trkpt>
      <trkpt lat="45.30415" lon="6.05014">
        <ele>1941.8</ele>
        <time>2021-01-16T11:44:00Z</time>
      </trkpt>
      <trkpt lat="45.30415" lon="6.05014">
        <ele>1941.8</ele>
        <time>2021-01-16T11:44:01Z</time>
      </trkpt>
      <trkpt lat="45.30415" lon="6.05014">
        <ele>1941.8</ele>
        <time>2021-01-16T11:44:02Z</time>
      </trkpt>
      <trkpt lat="45.30415" lon="6.05014">
        <ele>1941.8</ele>
        <time>2021-01-16T11:44:03Z</time>
      </trkpt>
      <trkpt lat="45.30415" lon="6.05014">
        <ele>1941.8</ele>
        <time>2021-01-16T11:44:04Z</time>
      </trkpt>
      <trkpt lat="45.30415" lon="6.05014">
        <ele>1941.8</ele>
        <time>2021-01-16T11:44:05Z</time>
      </trkpt>
      <trkpt lat="45.30415" lon="6.05014">
        <ele>1941.8</ele>
        <time>2021-01-16T11:44:06Z</time>
      </trkpt>
      <trkpt lat="45.30415" lon="6.05014">
        <ele>1941.8</ele>
        <time>2021-01-16T11:44:07Z</time>
      </trkpt>
      <trkpt lat="45.30415" lon="6.05014">
        <ele>1941.8</ele>
        <time>2021-01-16T11:44:08Z</time>
      </trkpt>
      <trkpt lat="45.30415" lon="6.05014">
        <ele>1941.8</ele>
        <time>2021-01-16T11:44:09Z</time>
      </trkpt>
      <trkpt lat="45.30415" lon="6.05014">
        <ele>1941.8</ele>
        <time>2021-01-16T11:44:10Z</time>
      </trkpt>
      <trkpt lat="45.30415" lon="6.05014">
        <ele>1941.8</ele>
        <time>2021-01-16T11:44:11Z</time>
      </trkpt>
      <trkpt lat="45.30415" lon="6.05014">
        <ele>1941.8</ele>
        <time>2021-01-16T11:44:12Z</time>
      </trkpt>
      <trkpt lat="45.30415" lon="6.05014">
        <ele>1941.8</ele>
        <time>2021-01-16T11:44:13Z</time>
      </trkpt>
      <trkpt lat="45.30415" lon="6.05014">
        <ele>1941.8</ele>
        <time>2021-01-16T11:44:14Z</time>
      </trkpt>
      <trkpt lat="45.30415" lon="6.05014">
        <ele>1941.8</ele>
        <time>2021-01-16T11:44:15Z</time>
      </trkpt>
      <trkpt lat="45.30415" lon="6.05014">
        <ele>1942</ele>
        <time>2021-01-16T11:44:16Z</time>
      </trkpt>
      <trkpt lat="45.30415" lon="6.05014">
        <ele>1942</ele>
        <time>2021-01-16T11:44:17Z</time>
      </trkpt>
      <trkpt lat="45.30415" lon="6.05014">
        <ele>1942</ele>
        <time>2021-01-16T11:44:18Z</time>
      </trkpt>
      <trkpt lat="45.30415" lon="6.05014">
        <ele>1942</ele>
        <time>2021-01-16T11:44:19Z</time>
      </trkpt>
      <trkpt lat="45.30415" lon="6.05014">
        <ele>1941.8</ele>
        <time>2021-01-16T11:44:20Z</time>
      </trkpt>
      <trkpt lat="45.30415" lon="6.05014">
        <ele>1941.8</ele>
        <time>2021-01-16T11:44:21Z</time>
      </trkpt>
      <trkpt lat="45.30415" lon="6.05014">
        <ele>1941.8</ele>
        <time>2021-01-16T11:44:22Z</time>
      </trkpt>
      <trkpt lat="45.30415" lon="6.05014">
        <ele>1941.8</ele>
        <time>2021-01-16T11:44:23Z</time>
      </trkpt>
      <trkpt lat="45.30415" lon="6.05014">
        <ele>1941.8</ele>
        <time>2021-01-16T11:44:24Z</time>
      </trkpt>
      <trkpt lat="45.30415" lon="6.05014">
        <ele>1942</ele>
        <time>2021-01-16T11:44:25Z</time>
      </trkpt>
      <trkpt lat="45.30415" lon="6.05014">
        <ele>1942</ele>
        <time>2021-01-16T11:44:26Z</time>
      </trkpt>
      <trkpt lat="45.30415" lon="6.05014">
        <ele>1942</ele>
        <time>2021-01-16T11:44:27Z</time>
      </trkpt>
      <trkpt lat="45.30415" lon="6.05014">
        <ele>1942</ele>
        <time>2021-01-16T11:44:28Z</time>
      </trkpt>
      <trkpt lat="45.30415" lon="6.05014">
        <ele>1942</ele>
        <time>2021-01-16T11:44:29Z</time>
      </trkpt>
      <trkpt lat="45.30415" lon="6.05014">
        <ele>1942</ele>
        <time>2021-01-16T11:44:30Z</time>
      </trkpt>
      <trkpt lat="45.30415" lon="6.05014">
        <ele>1942</ele>
        <time>2021-01-16T11:44:31Z</time>
      </trkpt>
      <trkpt lat="45.30415" lon="6.05014">
        <ele>1942</ele>
        <time>2021-01-16T11:44:32Z</time>
      </trkpt>
      <trkpt lat="45.30415" lon="6.05014">
        <ele>1942</ele>
        <time>2021-01-16T11:44:33Z</time>
      </trkpt>
      <trkpt lat="45.30415" lon="6.05014">
        <ele>1942</ele>
        <time>2021-01-16T11:44:34Z</time>
      </trkpt>
      <trkpt lat="45.30415" lon="6.05014">
        <ele>1942</ele>
        <time>2021-01-16T11:44:35Z</time>
      </trkpt>
      <trkpt lat="45.30415" lon="6.05014">
        <ele>1942</ele>
        <time>2021-01-16T11:44:36Z</time>
      </trkpt>
      <trkpt lat="45.30415" lon="6.05014">
        <ele>1942</ele>
        <time>2021-01-16T11:44:37Z</time>
      </trkpt>
      <trkpt lat="45.30415" lon="6.05014">
        <ele>1942</ele>
        <time>2021-01-16T11:44:38Z</time>
      </trkpt>
      <trkpt lat="45.30415" lon="6.05014">
        <ele>1942</ele>
        <time>2021-01-16T11:44:39Z</time>
      </trkpt>
      <trkpt lat="45.30415" lon="6.05014">
        <ele>1942</ele>
        <time>2021-01-16T11:44:40Z</time>
      </trkpt>
      <trkpt lat="45.30415" lon="6.05014">
        <ele>1942</ele>
        <time>2021-01-16T11:44:41Z</time>
      </trkpt>
      <trkpt lat="45.30415" lon="6.05014">
        <ele>1942</ele>
        <time>2021-01-16T11:44:42Z</time>
      </trkpt>
      <trkpt lat="45.30415" lon="6.05014">
        <ele>1942</ele>
        <time>2021-01-16T11:44:43Z</time>
      </trkpt>
      <trkpt lat="45.30415" lon="6.05014">
        <ele>1942</ele>
        <time>2021-01-16T11:44:44Z</time>
      </trkpt>
      <trkpt lat="45.30415" lon="6.05014">
        <ele>1942</ele>
        <time>2021-01-16T11:44:45Z</time>
      </trkpt>
      <trkpt lat="45.30415" lon="6.05014">
        <ele>1942</ele>
        <time>2021-01-16T11:44:46Z</time>
      </trkpt>
      <trkpt lat="45.30415" lon="6.05014">
        <ele>1942</ele>
        <time>2021-01-16T11:44:47Z</time>
      </trkpt>
      <trkpt lat="45.30415" lon="6.05014">
        <ele>1942</ele>
        <time>2021-01-16T11:44:48Z</time>
      </trkpt>
      <trkpt lat="45.30415" lon="6.05014">
        <ele>1942</ele>
        <time>2021-01-16T11:44:49Z</time>
      </trkpt>
      <trkpt lat="45.30415" lon="6.05014">
        <ele>1942</ele>
        <time>2021-01-16T11:44:50Z</time>
      </trkpt>
      <trkpt lat="45.30415" lon="6.05014">
        <ele>1942</ele>
        <time>2021-01-16T11:44:51Z</time>
      </trkpt>
      <trkpt lat="45.30415" lon="6.05014">
        <ele>1942</ele>
        <time>2021-01-16T11:44:52Z</time>
      </trkpt>
      <trkpt lat="45.30415" lon="6.05014">
        <ele>1942</ele>
        <time>2021-01-16T11:44:53Z</time>
      </trkpt>
      <trkpt lat="45.30415" lon="6.05014">
        <ele>1942</ele>
        <time>2021-01-16T11:44:54Z</time>
      </trkpt>
      <trkpt lat="45.30415" lon="6.05014">
        <ele>1942</ele>
        <time>2021-01-16T11:44:55Z</time>
      </trkpt>
      <trkpt lat="45.30415" lon="6.05014">
        <ele>1942</ele>
        <time>2021-01-16T11:44:56Z</time>
      </trkpt>
      <trkpt lat="45.30415" lon="6.05014">
        <ele>1942</ele>
        <time>2021-01-16T11:44:57Z</time>
      </trkpt>
      <trkpt lat="45.30415" lon="6.05014">
        <ele>1942</ele>
        <time>2021-01-16T11:44:58Z</time>
      </trkpt>
      <trkpt lat="45.30415" lon="6.05014">
        <ele>1942</ele>
        <time>2021-01-16T11:44:59Z</time>
      </trkpt>
      <trkpt lat="45.30415" lon="6.05014">
        <ele>1942</ele>
        <time>2021-01-16T11:45:00Z</time>
      </trkpt>
      <trkpt lat="45.30415" lon="6.05014">
        <ele>1942</ele>
        <time>2021-01-16T11:45:01Z</time>
      </trkpt>
      <trkpt lat="45.30415" lon="6.05014">
        <ele>1942</ele>
        <time>2021-01-16T11:45:02Z</time>
      </trkpt>
      <trkpt lat="45.30415" lon="6.05014">
        <ele>1942</ele>
        <time>2021-01-16T11:45:03Z</time>
      </trkpt>
      <trkpt lat="45.30415" lon="6.05014">
        <ele>1942</ele>
        <time>2021-01-16T11:45:04Z</time>
      </trkpt>
      <trkpt lat="45.30415" lon="6.05014">
        <ele>1942</ele>
        <time>2021-01-16T11:45:05Z</time>
      </trkpt>
      <trkpt lat="45.30415" lon="6.05014">
        <ele>1942</ele>
        <time>2021-01-16T11:45:06Z</time>
      </trkpt>
      <trkpt lat="45.30415" lon="6.05014">
        <ele>1942</ele>
        <time>2021-01-16T11:45:07Z</time>
      </trkpt>
      <trkpt lat="45.30415" lon="6.05014">
        <ele>1942</ele>
        <time>2021-01-16T11:45:08Z</time>
      </trkpt>
      <trkpt lat="45.30415" lon="6.05014">
        <ele>1942</ele>
        <time>2021-01-16T11:45:09Z</time>
      </trkpt>
      <trkpt lat="45.30415" lon="6.05014">
        <ele>1942.2</ele>
        <time>2021-01-16T11:45:10Z</time>
      </trkpt>
      <trkpt lat="45.30415" lon="6.05014">
        <ele>1942.2</ele>
        <time>2021-01-16T11:45:11Z</time>
      </trkpt>
      <trkpt lat="45.30415" lon="6.05014">
        <ele>1942.2</ele>
        <time>2021-01-16T11:45:12Z</time>
      </trkpt>
      <trkpt lat="45.30415" lon="6.05014">
        <ele>1942.2</ele>
        <time>2021-01-16T11:45:13Z</time>
      </trkpt>
      <trkpt lat="45.30415" lon="6.05014">
        <ele>1942.2</ele>
        <time>2021-01-16T11:45:14Z</time>
      </trkpt>
      <trkpt lat="45.30415" lon="6.05014">
        <ele>1942.2</ele>
        <time>2021-01-16T11:45:15Z</time>
      </trkpt>
      <trkpt lat="45.30415" lon="6.05014">
        <ele>1942.2</ele>
        <time>2021-01-16T11:45:16Z</time>
      </trkpt>
      <trkpt lat="45.30415" lon="6.05014">
        <ele>1942.2</ele>
        <time>2021-01-16T11:45:17Z</time>
      </trkpt>
      <trkpt lat="45.30415" lon="6.05014">
        <ele>1942.2</ele>
        <time>2021-01-16T11:45:18Z</time>
      </trkpt>
      <trkpt lat="45.30415" lon="6.05014">
        <ele>1942.2</ele>
        <time>2021-01-16T11:45:19Z</time>
      </trkpt>
      <trkpt lat="45.30415" lon="6.05014">
        <ele>1942.2</ele>
        <time>2021-01-16T11:45:20Z</time>
      </trkpt>
      <trkpt lat="45.30415" lon="6.05014">
        <ele>1942.2</ele>
        <time>2021-01-16T11:45:21Z</time>
      </trkpt>
      <trkpt lat="45.30415" lon="6.05014">
        <ele>1942.2</ele>
        <time>2021-01-16T11:45:22Z</time>
      </trkpt>
      <trkpt lat="45.30415" lon="6.05014">
        <ele>1942.2</ele>
        <time>2021-01-16T11:45:23Z</time>
      </trkpt>
      <trkpt lat="45.30415" lon="6.05014">
        <ele>1942.2</ele>
        <time>2021-01-16T11:45:24Z</time>
      </trkpt>
      <trkpt lat="45.30415" lon="6.05014">
        <ele>1942.2</ele>
        <time>2021-01-16T11:45:25Z</time>
      </trkpt>
      <trkpt lat="45.30415" lon="6.05014">
        <ele>1942.2</ele>
        <time>2021-01-16T11:45:26Z</time>
      </trkpt>
      <trkpt lat="45.30415" lon="6.05014">
        <ele>1942.2</ele>
        <time>2021-01-16T11:45:27Z</time>
      </trkpt>
      <trkpt lat="45.30415" lon="6.05014">
        <ele>1942.2</ele>
        <time>2021-01-16T11:45:28Z</time>
      </trkpt>
      <trkpt lat="45.30415" lon="6.05014">
        <ele>1942.2</ele>
        <time>2021-01-16T11:45:29Z</time>
      </trkpt>
      <trkpt lat="45.30415" lon="6.05014">
        <ele>1942.2</ele>
        <time>2021-01-16T11:45:30Z</time>
      </trkpt>
      <trkpt lat="45.30415" lon="6.05014">
        <ele>1942.2</ele>
        <time>2021-01-16T11:45:31Z</time>
      </trkpt>
      <trkpt lat="45.30415" lon="6.05014">
        <ele>1942.2</ele>
        <time>2021-01-16T11:45:32Z</time>
      </trkpt>
      <trkpt lat="45.30415" lon="6.05014">
        <ele>1942.2</ele>
        <time>2021-01-16T11:45:33Z</time>
      </trkpt>
      <trkpt lat="45.30415" lon="6.05014">
        <ele>1942.2</ele>
        <time>2021-01-16T11:45:34Z</time>
      </trkpt>
      <trkpt lat="45.30415" lon="6.05014">
        <ele>1942.2</ele>
        <time>2021-01-16T11:45:35Z</time>
      </trkpt>
      <trkpt lat="45.30415" lon="6.05014">
        <ele>1942.2</ele>
        <time>2021-01-16T11:45:36Z</time>
      </trkpt>
      <trkpt lat="45.30415" lon="6.05014">
        <ele>1942.2</ele>
        <time>2021-01-16T11:45:37Z</time>
      </trkpt>
      <trkpt lat="45.30415" lon="6.05014">
        <ele>1942.2</ele>
        <time>2021-01-16T11:45:38Z</time>
      </trkpt>
      <trkpt lat="45.30415" lon="6.05014">
        <ele>1942.2</ele>
        <time>2021-01-16T11:45:39Z</time>
      </trkpt>
      <trkpt lat="45.30415" lon="6.05014">
        <ele>1942.2</ele>
        <time>2021-01-16T11:45:40Z</time>
      </trkpt>
      <trkpt lat="45.30415" lon="6.05014">
        <ele>1942.2</ele>
        <time>2021-01-16T11:45:41Z</time>
      </trkpt>
      <trkpt lat="45.30415" lon="6.05014">
        <ele>1942.2</ele>
        <time>2021-01-16T11:45:42Z</time>
      </trkpt>
      <trkpt lat="45.30415" lon="6.05014">
        <ele>1942.2</ele>
        <time>2021-01-16T11:45:43Z</time>
      </trkpt>
      <trkpt lat="45.30415" lon="6.05014">
        <ele>1942.2</ele>
        <time>2021-01-16T11:45:44Z</time>
      </trkpt>
      <trkpt lat="45.30415" lon="6.05014">
        <ele>1942.2</ele>
        <time>2021-01-16T11:45:45Z</time>
      </trkpt>
      <trkpt lat="45.30415" lon="6.05014">
        <ele>1942.2</ele>
        <time>2021-01-16T11:45:46Z</time>
      </trkpt>
      <trkpt lat="45.30415" lon="6.05014">
        <ele>1942.2</ele>
        <time>2021-01-16T11:45:47Z</time>
      </trkpt>
      <trkpt lat="45.30415" lon="6.05014">
        <ele>1942.2</ele>
        <time>2021-01-16T11:45:48Z</time>
      </trkpt>
      <trkpt lat="45.30415" lon="6.05014">
        <ele>1942.2</ele>
        <time>2021-01-16T11:45:49Z</time>
      </trkpt>
      <trkpt lat="45.30415" lon="6.05014">
        <ele>1942.2</ele>
        <time>2021-01-16T11:45:50Z</time>
      </trkpt>
      <trkpt lat="45.30415" lon="6.05014">
        <ele>1942.2</ele>
        <time>2021-01-16T11:45:51Z</time>
      </trkpt>
      <trkpt lat="45.30415" lon="6.05014">
        <ele>1942.2</ele>
        <time>2021-01-16T11:45:52Z</time>
      </trkpt>
      <trkpt lat="45.30415" lon="6.05014">
        <ele>1942.2</ele>
        <time>2021-01-16T11:45:53Z</time>
      </trkpt>
      <trkpt lat="45.30415" lon="6.05014">
        <ele>1942.2</ele>
        <time>2021-01-16T11:45:54Z</time>
      </trkpt>
      <trkpt lat="45.30415" lon="6.05014">
        <ele>1942.2</ele>
        <time>2021-01-16T11:45:55Z</time>
      </trkpt>
      <trkpt lat="45.30415" lon="6.05014">
        <ele>1942.2</ele>
        <time>2021-01-16T11:45:56Z</time>
      </trkpt>
      <trkpt lat="45.30415" lon="6.05014">
        <ele>1942.2</ele>
        <time>2021-01-16T11:45:57Z</time>
      </trkpt>
      <trkpt lat="45.30415" lon="6.05014">
        <ele>1942.2</ele>
        <time>2021-01-16T11:45:58Z</time>
      </trkpt>
      <trkpt lat="45.30415" lon="6.05014">
        <ele>1942.2</ele>
        <time>2021-01-16T11:45:59Z</time>
      </trkpt>
      <trkpt lat="45.30415" lon="6.05014">
        <ele>1942.2</ele>
        <time>2021-01-16T11:46:00Z</time>
      </trkpt>
      <trkpt lat="45.30415" lon="6.05014">
        <ele>1942.2</ele>
        <time>2021-01-16T11:46:01Z</time>
      </trkpt>
      <trkpt lat="45.30415" lon="6.05014">
        <ele>1942.2</ele>
        <time>2021-01-16T11:46:02Z</time>
      </trkpt>
      <trkpt lat="45.30415" lon="6.05014">
        <ele>1942.2</ele>
        <time>2021-01-16T11:46:03Z</time>
      </trkpt>
      <trkpt lat="45.30415" lon="6.05014">
        <ele>1942.2</ele>
        <time>2021-01-16T11:46:04Z</time>
      </trkpt>
      <trkpt lat="45.30415" lon="6.05014">
        <ele>1942.2</ele>
        <time>2021-01-16T11:46:05Z</time>
      </trkpt>
      <trkpt lat="45.30415" lon="6.05014">
        <ele>1942.2</ele>
        <time>2021-01-16T11:46:06Z</time>
      </trkpt>
      <trkpt lat="45.30415" lon="6.05014">
        <ele>1942.2</ele>
        <time>2021-01-16T11:46:07Z</time>
      </trkpt>
      <trkpt lat="45.30415" lon="6.05014">
        <ele>1942.4</ele>
        <time>2021-01-16T11:46:08Z</time>
      </trkpt>
      <trkpt lat="45.30415" lon="6.05014">
        <ele>1942.4</ele>
        <time>2021-01-16T11:46:09Z</time>
      </trkpt>
      <trkpt lat="45.30415" lon="6.05014">
        <ele>1942.4</ele>
        <time>2021-01-16T11:46:10Z</time>
      </trkpt>
      <trkpt lat="45.30415" lon="6.05014">
        <ele>1942.4</ele>
        <time>2021-01-16T11:46:11Z</time>
      </trkpt>
      <trkpt lat="45.30415" lon="6.05014">
        <ele>1942.4</ele>
        <time>2021-01-16T11:46:12Z</time>
      </trkpt>
      <trkpt lat="45.30415" lon="6.05014">
        <ele>1942.4</ele>
        <time>2021-01-16T11:46:13Z</time>
      </trkpt>
      <trkpt lat="45.30415" lon="6.05014">
        <ele>1942.4</ele>
        <time>2021-01-16T11:46:14Z</time>
      </trkpt>
      <trkpt lat="45.30415" lon="6.05014">
        <ele>1942.4</ele>
        <time>2021-01-16T11:46:15Z</time>
      </trkpt>
      <trkpt lat="45.30415" lon="6.05014">
        <ele>1942.4</ele>
        <time>2021-01-16T11:46:16Z</time>
      </trkpt>
      <trkpt lat="45.30415" lon="6.05014">
        <ele>1942.4</ele>
        <time>2021-01-16T11:46:17Z</time>
      </trkpt>
      <trkpt lat="45.30415" lon="6.05014">
        <ele>1942.4</ele>
        <time>2021-01-16T11:46:18Z</time>
      </trkpt>
      <trkpt lat="45.30415" lon="6.05014">
        <ele>1942.4</ele>
        <time>2021-01-16T11:46:19Z</time>
      </trkpt>
      <trkpt lat="45.30415" lon="6.05014">
        <ele>1942.4</ele>
        <time>2021-01-16T11:46:20Z</time>
      </trkpt>
      <trkpt lat="45.30415" lon="6.05014">
        <ele>1942.4</ele>
        <time>2021-01-16T11:46:21Z</time>
      </trkpt>
      <trkpt lat="45.30415" lon="6.05014">
        <ele>1942.4</ele>
        <time>2021-01-16T11:46:22Z</time>
      </trkpt>
      <trkpt lat="45.30415" lon="6.05014">
        <ele>1942.4</ele>
        <time>2021-01-16T11:46:23Z</time>
      </trkpt>
      <trkpt lat="45.30415" lon="6.05014">
        <ele>1942.4</ele>
        <time>2021-01-16T11:46:24Z</time>
      </trkpt>
      <trkpt lat="45.30415" lon="6.05014">
        <ele>1942.4</ele>
        <time>2021-01-16T11:46:25Z</time>
      </trkpt>
      <trkpt lat="45.30415" lon="6.05014">
        <ele>1942.4</ele>
        <time>2021-01-16T11:46:26Z</time>
      </trkpt>
      <trkpt lat="45.30415" lon="6.05014">
        <ele>1942.4</ele>
        <time>2021-01-16T11:46:27Z</time>
      </trkpt>
      <trkpt lat="45.30415" lon="6.05014">
        <ele>1942.4</ele>
        <time>2021-01-16T11:46:28Z</time>
      </trkpt>
      <trkpt lat="45.30415" lon="6.05014">
        <ele>1942.4</ele>
        <time>2021-01-16T11:46:29Z</time>
      </trkpt>
      <trkpt lat="45.30415" lon="6.05014">
        <ele>1942.4</ele>
        <time>2021-01-16T11:46:30Z</time>
      </trkpt>
      <trkpt lat="45.30415" lon="6.05014">
        <ele>1942.4</ele>
        <time>2021-01-16T11:46:31Z</time>
      </trkpt>
      <trkpt lat="45.30415" lon="6.05014">
        <ele>1942.4</ele>
        <time>2021-01-16T11:46:32Z</time>
      </trkpt>
      <trkpt lat="45.30415" lon="6.05014">
        <ele>1942.4</ele>
        <time>2021-01-16T11:46:33Z</time>
      </trkpt>
      <trkpt lat="45.30415" lon="6.05014">
        <ele>1942.4</ele>
        <time>2021-01-16T11:46:34Z</time>
      </trkpt>
      <trkpt lat="45.30415" lon="6.05014">
        <ele>1942.4</ele>
        <time>2021-01-16T11:46:35Z</time>
      </trkpt>
      <trkpt lat="45.30415" lon="6.05014">
        <ele>1942.4</ele>
        <time>2021-01-16T11:46:36Z</time>
      </trkpt>
      <trkpt lat="45.30415" lon="6.05014">
        <ele>1942.2</ele>
        <time>2021-01-16T11:46:37Z</time>
      </trkpt>
      <trkpt lat="45.30415" lon="6.05014">
        <ele>1942.4</ele>
        <time>2021-01-16T11:46:38Z</time>
      </trkpt>
      <trkpt lat="45.30415" lon="6.05014">
        <ele>1942.2</ele>
        <time>2021-01-16T11:46:39Z</time>
      </trkpt>
      <trkpt lat="45.30415" lon="6.05014">
        <ele>1942.4</ele>
        <time>2021-01-16T11:46:40Z</time>
      </trkpt>
      <trkpt lat="45.30415" lon="6.05014">
        <ele>1942.4</ele>
        <time>2021-01-16T11:46:41Z</time>
      </trkpt>
      <trkpt lat="45.30415" lon="6.05014">
        <ele>1942.4</ele>
        <time>2021-01-16T11:46:42Z</time>
      </trkpt>
      <trkpt lat="45.30415" lon="6.05014">
        <ele>1942.4</ele>
        <time>2021-01-16T11:46:43Z</time>
      </trkpt>
      <trkpt lat="45.30415" lon="6.05014">
        <ele>1942.4</ele>
        <time>2021-01-16T11:46:44Z</time>
      </trkpt>
      <trkpt lat="45.30415" lon="6.05014">
        <ele>1942.4</ele>
        <time>2021-01-16T11:46:45Z</time>
      </trkpt>
      <trkpt lat="45.30415" lon="6.05014">
        <ele>1942.4</ele>
        <time>2021-01-16T11:46:46Z</time>
      </trkpt>
      <trkpt lat="45.30415" lon="6.05014">
        <ele>1942.4</ele>
        <time>2021-01-16T11:46:47Z</time>
      </trkpt>
      <trkpt lat="45.30415" lon="6.05014">
        <ele>1942.4</ele>
        <time>2021-01-16T11:46:48Z</time>
      </trkpt>
      <trkpt lat="45.30415" lon="6.05014">
        <ele>1942.4</ele>
        <time>2021-01-16T11:46:49Z</time>
      </trkpt>
      <trkpt lat="45.30415" lon="6.05014">
        <ele>1942.4</ele>
        <time>2021-01-16T11:46:50Z</time>
      </trkpt>
      <trkpt lat="45.30415" lon="6.05014">
        <ele>1942.4</ele>
        <time>2021-01-16T11:46:51Z</time>
      </trkpt>
      <trkpt lat="45.30415" lon="6.05014">
        <ele>1942.4</ele>
        <time>2021-01-16T11:46:52Z</time>
      </trkpt>
      <trkpt lat="45.30415" lon="6.05014">
        <ele>1942.4</ele>
        <time>2021-01-16T11:46:53Z</time>
      </trkpt>
      <trkpt lat="45.30415" lon="6.05014">
        <ele>1942.4</ele>
        <time>2021-01-16T11:46:54Z</time>
      </trkpt>
      <trkpt lat="45.30415" lon="6.05014">
        <ele>1942.4</ele>
        <time>2021-01-16T11:46:55Z</time>
      </trkpt>
      <trkpt lat="45.30415" lon="6.05014">
        <ele>1942.4</ele>
        <time>2021-01-16T11:46:56Z</time>
      </trkpt>
      <trkpt lat="45.30415" lon="6.05014">
        <ele>1942.4</ele>
        <time>2021-01-16T11:46:57Z</time>
      </trkpt>
      <trkpt lat="45.30415" lon="6.05014">
        <ele>1942.4</ele>
        <time>2021-01-16T11:46:58Z</time>
      </trkpt>
      <trkpt lat="45.30415" lon="6.05014">
        <ele>1942.4</ele>
        <time>2021-01-16T11:46:59Z</time>
      </trkpt>
      <trkpt lat="45.30415" lon="6.05014">
        <ele>1942.4</ele>
        <time>2021-01-16T11:47:00Z</time>
      </trkpt>
      <trkpt lat="45.30415" lon="6.05014">
        <ele>1942.4</ele>
        <time>2021-01-16T11:47:01Z</time>
      </trkpt>
      <trkpt lat="45.30415" lon="6.05014">
        <ele>1942.4</ele>
        <time>2021-01-16T11:47:02Z</time>
      </trkpt>
      <trkpt lat="45.30415" lon="6.05014">
        <ele>1942.4</ele>
        <time>2021-01-16T11:47:03Z</time>
      </trkpt>
      <trkpt lat="45.30415" lon="6.05014">
        <ele>1942.4</ele>
        <time>2021-01-16T11:47:04Z</time>
      </trkpt>
      <trkpt lat="45.30415" lon="6.05014">
        <ele>1942.4</ele>
        <time>2021-01-16T11:47:05Z</time>
      </trkpt>
      <trkpt lat="45.30415" lon="6.05014">
        <ele>1942.4</ele>
        <time>2021-01-16T11:47:06Z</time>
      </trkpt>
      <trkpt lat="45.30415" lon="6.05014">
        <ele>1942.4</ele>
        <time>2021-01-16T11:47:07Z</time>
      </trkpt>
      <trkpt lat="45.30415" lon="6.05014">
        <ele>1942.4</ele>
        <time>2021-01-16T11:47:08Z</time>
      </trkpt>
      <trkpt lat="45.30415" lon="6.05014">
        <ele>1942.4</ele>
        <time>2021-01-16T11:47:09Z</time>
      </trkpt>
      <trkpt lat="45.30415" lon="6.05014">
        <ele>1942.4</ele>
        <time>2021-01-16T11:47:10Z</time>
      </trkpt>
      <trkpt lat="45.30415" lon="6.05014">
        <ele>1942.4</ele>
        <time>2021-01-16T11:47:11Z</time>
      </trkpt>
      <trkpt lat="45.30415" lon="6.05014">
        <ele>1942.4</ele>
        <time>2021-01-16T11:47:12Z</time>
      </trkpt>
      <trkpt lat="45.30415" lon="6.05014">
        <ele>1942.4</ele>
        <time>2021-01-16T11:47:13Z</time>
      </trkpt>
      <trkpt lat="45.30415" lon="6.05014">
        <ele>1942.4</ele>
        <time>2021-01-16T11:47:14Z</time>
      </trkpt>
      <trkpt lat="45.30415" lon="6.05014">
        <ele>1942.4</ele>
        <time>2021-01-16T11:47:15Z</time>
      </trkpt>
      <trkpt lat="45.30415" lon="6.05014">
        <ele>1942.4</ele>
        <time>2021-01-16T11:47:16Z</time>
      </trkpt>
      <trkpt lat="45.30415" lon="6.05014">
        <ele>1942.4</ele>
        <time>2021-01-16T11:47:17Z</time>
      </trkpt>
      <trkpt lat="45.30415" lon="6.05014">
        <ele>1942.4</ele>
        <time>2021-01-16T11:47:18Z</time>
      </trkpt>
      <trkpt lat="45.30415" lon="6.05014">
        <ele>1942.4</ele>
        <time>2021-01-16T11:47:19Z</time>
      </trkpt>
      <trkpt lat="45.30415" lon="6.05014">
        <ele>1942.4</ele>
        <time>2021-01-16T11:47:20Z</time>
      </trkpt>
      <trkpt lat="45.30415" lon="6.05014">
        <ele>1942.4</ele>
        <time>2021-01-16T11:47:21Z</time>
      </trkpt>
      <trkpt lat="45.30415" lon="6.05014">
        <ele>1942.4</ele>
        <time>2021-01-16T11:47:22Z</time>
      </trkpt>
      <trkpt lat="45.30415" lon="6.05014">
        <ele>1942.4</ele>
        <time>2021-01-16T11:47:23Z</time>
      </trkpt>
      <trkpt lat="45.30415" lon="6.05014">
        <ele>1942.4</ele>
        <time>2021-01-16T11:47:24Z</time>
      </trkpt>
      <trkpt lat="45.30415" lon="6.05014">
        <ele>1942.4</ele>
        <time>2021-01-16T11:47:25Z</time>
      </trkpt>
      <trkpt lat="45.30415" lon="6.05014">
        <ele>1942.4</ele>
        <time>2021-01-16T11:47:26Z</time>
      </trkpt>
      <trkpt lat="45.30415" lon="6.05014">
        <ele>1942.4</ele>
        <time>2021-01-16T11:47:27Z</time>
      </trkpt>
      <trkpt lat="45.30415" lon="6.05014">
        <ele>1942.4</ele>
        <time>2021-01-16T11:47:28Z</time>
      </trkpt>
      <trkpt lat="45.30415" lon="6.05014">
        <ele>1942.4</ele>
        <time>2021-01-16T11:47:29Z</time>
      </trkpt>
      <trkpt lat="45.30415" lon="6.05014">
        <ele>1942.4</ele>
        <time>2021-01-16T11:47:30Z</time>
      </trkpt>
      <trkpt lat="45.30415" lon="6.05014">
        <ele>1942.4</ele>
        <time>2021-01-16T11:47:31Z</time>
      </trkpt>
      <trkpt lat="45.30415" lon="6.05014">
        <ele>1942.4</ele>
        <time>2021-01-16T11:47:32Z</time>
      </trkpt>
      <trkpt lat="45.30415" lon="6.05014">
        <ele>1942.4</ele>
        <time>2021-01-16T11:47:33Z</time>
      </trkpt>
      <trkpt lat="45.30415" lon="6.05014">
        <ele>1942.4</ele>
        <time>2021-01-16T11:47:34Z</time>
      </trkpt>
      <trkpt lat="45.30415" lon="6.05014">
        <ele>1942.4</ele>
        <time>2021-01-16T11:47:35Z</time>
      </trkpt>
      <trkpt lat="45.30415" lon="6.05014">
        <ele>1942.2</ele>
        <time>2021-01-16T11:47:36Z</time>
      </trkpt>
      <trkpt lat="45.30415" lon="6.05014">
        <ele>1942.2</ele>
        <time>2021-01-16T11:47:37Z</time>
      </trkpt>
      <trkpt lat="45.30415" lon="6.05014">
        <ele>1942.4</ele>
        <time>2021-01-16T11:47:38Z</time>
      </trkpt>
      <trkpt lat="45.30415" lon="6.05014">
        <ele>1942.4</ele>
        <time>2021-01-16T11:47:39Z</time>
      </trkpt>
      <trkpt lat="45.30415" lon="6.05014">
        <ele>1942.6</ele>
        <time>2021-01-16T11:47:40Z</time>
      </trkpt>
      <trkpt lat="45.30415" lon="6.05014">
        <ele>1942.6</ele>
        <time>2021-01-16T11:47:41Z</time>
      </trkpt>
      <trkpt lat="45.30415" lon="6.05014">
        <ele>1942.4</ele>
        <time>2021-01-16T11:47:42Z</time>
      </trkpt>
      <trkpt lat="45.30415" lon="6.05014">
        <ele>1942.6</ele>
        <time>2021-01-16T11:47:43Z</time>
      </trkpt>
      <trkpt lat="45.30415" lon="6.05014">
        <ele>1942.6</ele>
        <time>2021-01-16T11:47:44Z</time>
      </trkpt>
      <trkpt lat="45.30415" lon="6.05014">
        <ele>1942.4</ele>
        <time>2021-01-16T11:47:45Z</time>
      </trkpt>
      <trkpt lat="45.30415" lon="6.05014">
        <ele>1942.4</ele>
        <time>2021-01-16T11:47:46Z</time>
      </trkpt>
      <trkpt lat="45.30415" lon="6.05014">
        <ele>1942.4</ele>
        <time>2021-01-16T11:47:47Z</time>
      </trkpt>
      <trkpt lat="45.30415" lon="6.05014">
        <ele>1942.4</ele>
        <time>2021-01-16T11:47:48Z</time>
      </trkpt>
      <trkpt lat="45.30415" lon="6.05014">
        <ele>1942.4</ele>
        <time>2021-01-16T11:47:49Z</time>
      </trkpt>
      <trkpt lat="45.30415" lon="6.05014">
        <ele>1942.4</ele>
        <time>2021-01-16T11:47:50Z</time>
      </trkpt>
      <trkpt lat="45.30415" lon="6.05014">
        <ele>1942.4</ele>
        <time>2021-01-16T11:47:51Z</time>
      </trkpt>
      <trkpt lat="45.30415" lon="6.05014">
        <ele>1942.4</ele>
        <time>2021-01-16T11:47:52Z</time>
      </trkpt>
      <trkpt lat="45.30415" lon="6.05014">
        <ele>1942.4</ele>
        <time>2021-01-16T11:47:53Z</time>
      </trkpt>
      <trkpt lat="45.30415" lon="6.05014">
        <ele>1942.4</ele>
        <time>2021-01-16T11:47:54Z</time>
      </trkpt>
      <trkpt lat="45.30415" lon="6.05014">
        <ele>1942.4</ele>
        <time>2021-01-16T11:47:55Z</time>
      </trkpt>
      <trkpt lat="45.30415" lon="6.05014">
        <ele>1942.4</ele>
        <time>2021-01-16T11:47:56Z</time>
      </trkpt>
      <trkpt lat="45.30415" lon="6.05014">
        <ele>1942.4</ele>
        <time>2021-01-16T11:47:57Z</time>
      </trkpt>
      <trkpt lat="45.30415" lon="6.05014">
        <ele>1942.4</ele>
        <time>2021-01-16T11:47:58Z</time>
      </trkpt>
      <trkpt lat="45.30415" lon="6.05014">
        <ele>1942.4</ele>
        <time>2021-01-16T11:47:59Z</time>
      </trkpt>
      <trkpt lat="45.30415" lon="6.05014">
        <ele>1942.4</ele>
        <time>2021-01-16T11:48:00Z</time>
      </trkpt>
      <trkpt lat="45.30415" lon="6.05014">
        <ele>1942.4</ele>
        <time>2021-01-16T11:48:01Z</time>
      </trkpt>
      <trkpt lat="45.30415" lon="6.05014">
        <ele>1942.4</ele>
        <time>2021-01-16T11:48:02Z</time>
      </trkpt>
      <trkpt lat="45.30415" lon="6.05014">
        <ele>1942.4</ele>
        <time>2021-01-16T11:48:03Z</time>
      </trkpt>
      <trkpt lat="45.30415" lon="6.05014">
        <ele>1942.4</ele>
        <time>2021-01-16T11:48:04Z</time>
      </trkpt>
      <trkpt lat="45.30415" lon="6.05014">
        <ele>1942.4</ele>
        <time>2021-01-16T11:48:05Z</time>
      </trkpt>
      <trkpt lat="45.30415" lon="6.05014">
        <ele>1942.4</ele>
        <time>2021-01-16T11:48:06Z</time>
      </trkpt>
      <trkpt lat="45.30415" lon="6.05014">
        <ele>1942.4</ele>
        <time>2021-01-16T11:48:07Z</time>
      </trkpt>
      <trkpt lat="45.30415" lon="6.05014">
        <ele>1942.4</ele>
        <time>2021-01-16T11:48:08Z</time>
      </trkpt>
      <trkpt lat="45.30415" lon="6.05014">
        <ele>1942.4</ele>
        <time>2021-01-16T11:48:09Z</time>
      </trkpt>
      <trkpt lat="45.30415" lon="6.05014">
        <ele>1942.4</ele>
        <time>2021-01-16T11:48:10Z</time>
      </trkpt>
      <trkpt lat="45.30415" lon="6.05014">
        <ele>1942.4</ele>
        <time>2021-01-16T11:48:11Z</time>
      </trkpt>
      <trkpt lat="45.30415" lon="6.05014">
        <ele>1942.4</ele>
        <time>2021-01-16T11:48:12Z</time>
      </trkpt>
      <trkpt lat="45.30415" lon="6.05014">
        <ele>1942.4</ele>
        <time>2021-01-16T11:48:13Z</time>
      </trkpt>
      <trkpt lat="45.30415" lon="6.05014">
        <ele>1942.4</ele>
        <time>2021-01-16T11:48:14Z</time>
      </trkpt>
      <trkpt lat="45.30415" lon="6.05014">
        <ele>1942.4</ele>
        <time>2021-01-16T11:48:15Z</time>
      </trkpt>
      <trkpt lat="45.30415" lon="6.05014">
        <ele>1942.4</ele>
        <time>2021-01-16T11:48:16Z</time>
      </trkpt>
      <trkpt lat="45.30415" lon="6.05014">
        <ele>1942.4</ele>
        <time>2021-01-16T11:48:17Z</time>
      </trkpt>
      <trkpt lat="45.30415" lon="6.05014">
        <ele>1942.2</ele>
        <time>2021-01-16T11:48:18Z</time>
      </trkpt>
      <trkpt lat="45.30415" lon="6.05014">
        <ele>1942.2</ele>
        <time>2021-01-16T11:48:19Z</time>
      </trkpt>
      <trkpt lat="45.30415" lon="6.05014">
        <ele>1942.4</ele>
        <time>2021-01-16T11:48:20Z</time>
      </trkpt>
      <trkpt lat="45.30415" lon="6.05014">
        <ele>1942.4</ele>
        <time>2021-01-16T11:48:21Z</time>
      </trkpt>
      <trkpt lat="45.30415" lon="6.05014">
        <ele>1942.4</ele>
        <time>2021-01-16T11:48:22Z</time>
      </trkpt>
      <trkpt lat="45.30415" lon="6.05013">
        <ele>1942.2</ele>
        <time>2021-01-16T11:48:23Z</time>
      </trkpt>
      <trkpt lat="45.30415" lon="6.05013">
        <ele>1942.4</ele>
        <time>2021-01-16T11:48:24Z</time>
      </trkpt>
      <trkpt lat="45.30415" lon="6.05013">
        <ele>1942.4</ele>
        <time>2021-01-16T11:48:25Z</time>
      </trkpt>
      <trkpt lat="45.30415" lon="6.05011">
        <ele>1941.8</ele>
        <time>2021-01-16T11:48:26Z</time>
      </trkpt>
      <trkpt lat="45.30415" lon="6.0501">
        <ele>1942</ele>
        <time>2021-01-16T11:48:27Z</time>
      </trkpt>
      <trkpt lat="45.30415" lon="6.05009">
        <ele>1942</ele>
        <time>2021-01-16T11:48:28Z</time>
      </trkpt>
      <trkpt lat="45.30415" lon="6.05009">
        <ele>1942</ele>
        <time>2021-01-16T11:48:29Z</time>
      </trkpt>
      <trkpt lat="45.30415" lon="6.05009">
        <ele>1942</ele>
        <time>2021-01-16T11:48:30Z</time>
      </trkpt>
      <trkpt lat="45.30415" lon="6.05009">
        <ele>1942</ele>
        <time>2021-01-16T11:48:31Z</time>
      </trkpt>
      <trkpt lat="45.30415" lon="6.05009">
        <ele>1941.8</ele>
        <time>2021-01-16T11:48:32Z</time>
      </trkpt>
      <trkpt lat="45.30415" lon="6.05009">
        <ele>1942</ele>
        <time>2021-01-16T11:48:33Z</time>
      </trkpt>
      <trkpt lat="45.30415" lon="6.05009">
        <ele>1942</ele>
        <time>2021-01-16T11:48:34Z</time>
      </trkpt>
      <trkpt lat="45.30415" lon="6.05009">
        <ele>1942</ele>
        <time>2021-01-16T11:48:35Z</time>
      </trkpt>
      <trkpt lat="45.30415" lon="6.05009">
        <ele>1941.8</ele>
        <time>2021-01-16T11:48:36Z</time>
      </trkpt>
      <trkpt lat="45.30415" lon="6.05009">
        <ele>1941.8</ele>
        <time>2021-01-16T11:48:37Z</time>
      </trkpt>
      <trkpt lat="45.30415" lon="6.05009">
        <ele>1941.8</ele>
        <time>2021-01-16T11:48:38Z</time>
      </trkpt>
      <trkpt lat="45.30415" lon="6.05009">
        <ele>1941.8</ele>
        <time>2021-01-16T11:48:39Z</time>
      </trkpt>
      <trkpt lat="45.30415" lon="6.05009">
        <ele>1941.8</ele>
        <time>2021-01-16T11:48:40Z</time>
      </trkpt>
      <trkpt lat="45.30415" lon="6.05009">
        <ele>1941.6</ele>
        <time>2021-01-16T11:48:41Z</time>
      </trkpt>
      <trkpt lat="45.30415" lon="6.05009">
        <ele>1941.6</ele>
        <time>2021-01-16T11:48:42Z</time>
      </trkpt>
      <trkpt lat="45.30415" lon="6.05009">
        <ele>1941.6</ele>
        <time>2021-01-16T11:48:43Z</time>
      </trkpt>
      <trkpt lat="45.30415" lon="6.05009">
        <ele>1941.6</ele>
        <time>2021-01-16T11:48:44Z</time>
      </trkpt>
      <trkpt lat="45.30415" lon="6.05009">
        <ele>1941.6</ele>
        <time>2021-01-16T11:48:45Z</time>
      </trkpt>
      <trkpt lat="45.30415" lon="6.05009">
        <ele>1941.4</ele>
        <time>2021-01-16T11:48:46Z</time>
      </trkpt>
      <trkpt lat="45.30415" lon="6.05009">
        <ele>1941.4</ele>
        <time>2021-01-16T11:48:47Z</time>
      </trkpt>
      <trkpt lat="45.30415" lon="6.05009">
        <ele>1941.4</ele>
        <time>2021-01-16T11:48:48Z</time>
      </trkpt>
      <trkpt lat="45.30415" lon="6.05009">
        <ele>1941.4</ele>
        <time>2021-01-16T11:48:49Z</time>
      </trkpt>
      <trkpt lat="45.30415" lon="6.05009">
        <ele>1941.4</ele>
        <time>2021-01-16T11:48:50Z</time>
      </trkpt>
      <trkpt lat="45.30415" lon="6.05009">
        <ele>1941.2</ele>
        <time>2021-01-16T11:48:51Z</time>
      </trkpt>
      <trkpt lat="45.30415" lon="6.05009">
        <ele>1941</ele>
        <time>2021-01-16T11:48:52Z</time>
      </trkpt>
      <trkpt lat="45.30415" lon="6.05009">
        <ele>1941.2</ele>
        <time>2021-01-16T11:48:53Z</time>
      </trkpt>
      <trkpt lat="45.30415" lon="6.05009">
        <ele>1941.2</ele>
        <time>2021-01-16T11:48:54Z</time>
      </trkpt>
      <trkpt lat="45.30415" lon="6.05009">
        <ele>1941.2</ele>
        <time>2021-01-16T11:48:55Z</time>
      </trkpt>
      <trkpt lat="45.30415" lon="6.05009">
        <ele>1941.2</ele>
        <time>2021-01-16T11:48:56Z</time>
      </trkpt>
      <trkpt lat="45.30415" lon="6.05009">
        <ele>1941.4</ele>
        <time>2021-01-16T11:48:57Z</time>
      </trkpt>
      <trkpt lat="45.30415" lon="6.05009">
        <ele>1941.4</ele>
        <time>2021-01-16T11:48:58Z</time>
      </trkpt>
      <trkpt lat="45.30415" lon="6.05009">
        <ele>1941.4</ele>
        <time>2021-01-16T11:48:59Z</time>
      </trkpt>
      <trkpt lat="45.30415" lon="6.05009">
        <ele>1941.4</ele>
        <time>2021-01-16T11:49:00Z</time>
      </trkpt>
      <trkpt lat="45.30416" lon="6.05009">
        <ele>1941.2</ele>
        <time>2021-01-16T11:49:01Z</time>
      </trkpt>
      <trkpt lat="45.30416" lon="6.0501">
        <ele>1941.4</ele>
        <time>2021-01-16T11:49:02Z</time>
      </trkpt>
      <trkpt lat="45.30416" lon="6.0501">
        <ele>1941.4</ele>
        <time>2021-01-16T11:49:03Z</time>
      </trkpt>
      <trkpt lat="45.30416" lon="6.05011">
        <ele>1941.6</ele>
        <time>2021-01-16T11:49:04Z</time>
      </trkpt>
      <trkpt lat="45.30416" lon="6.05011">
        <ele>1941.6</ele>
        <time>2021-01-16T11:49:05Z</time>
      </trkpt>
      <trkpt lat="45.30416" lon="6.05011">
        <ele>1941.6</ele>
        <time>2021-01-16T11:49:06Z</time>
      </trkpt>
      <trkpt lat="45.30416" lon="6.05011">
        <ele>1941.6</ele>
        <time>2021-01-16T11:49:07Z</time>
      </trkpt>
      <trkpt lat="45.30416" lon="6.05011">
        <ele>1941.6</ele>
        <time>2021-01-16T11:49:08Z</time>
      </trkpt>
      <trkpt lat="45.30416" lon="6.05011">
        <ele>1941.6</ele>
        <time>2021-01-16T11:49:09Z</time>
      </trkpt>
      <trkpt lat="45.30416" lon="6.05011">
        <ele>1941.6</ele>
        <time>2021-01-16T11:49:10Z</time>
      </trkpt>
      <trkpt lat="45.30416" lon="6.05011">
        <ele>1941.8</ele>
        <time>2021-01-16T11:49:11Z</time>
      </trkpt>
      <trkpt lat="45.30416" lon="6.05011">
        <ele>1941.8</ele>
        <time>2021-01-16T11:49:12Z</time>
      </trkpt>
      <trkpt lat="45.30416" lon="6.05011">
        <ele>1941.8</ele>
        <time>2021-01-16T11:49:13Z</time>
      </trkpt>
      <trkpt lat="45.30416" lon="6.05011">
        <ele>1941.8</ele>
        <time>2021-01-16T11:49:14Z</time>
      </trkpt>
      <trkpt lat="45.30416" lon="6.05011">
        <ele>1941.8</ele>
        <time>2021-01-16T11:49:15Z</time>
      </trkpt>
      <trkpt lat="45.30416" lon="6.05011">
        <ele>1941.8</ele>
        <time>2021-01-16T11:49:16Z</time>
      </trkpt>
      <trkpt lat="45.30416" lon="6.05011">
        <ele>1941.6</ele>
        <time>2021-01-16T11:49:17Z</time>
      </trkpt>
      <trkpt lat="45.30416" lon="6.05011">
        <ele>1941.6</ele>
        <time>2021-01-16T11:49:18Z</time>
      </trkpt>
      <trkpt lat="45.30416" lon="6.05011">
        <ele>1941.8</ele>
        <time>2021-01-16T11:49:19Z</time>
      </trkpt>
      <trkpt lat="45.30416" lon="6.05011">
        <ele>1941.8</ele>
        <time>2021-01-16T11:49:20Z</time>
      </trkpt>
      <trkpt lat="45.30416" lon="6.05011">
        <ele>1941.8</ele>
        <time>2021-01-16T11:49:21Z</time>
      </trkpt>
      <trkpt lat="45.30416" lon="6.05011">
        <ele>1941.8</ele>
        <time>2021-01-16T11:49:22Z</time>
      </trkpt>
      <trkpt lat="45.30416" lon="6.05011">
        <ele>1942</ele>
        <time>2021-01-16T11:49:23Z</time>
      </trkpt>
      <trkpt lat="45.30416" lon="6.05011">
        <ele>1942</ele>
        <time>2021-01-16T11:49:24Z</time>
      </trkpt>
      <trkpt lat="45.30416" lon="6.05011">
        <ele>1942</ele>
        <time>2021-01-16T11:49:25Z</time>
      </trkpt>
      <trkpt lat="45.30416" lon="6.05011">
        <ele>1942</ele>
        <time>2021-01-16T11:49:26Z</time>
      </trkpt>
      <trkpt lat="45.30416" lon="6.05011">
        <ele>1942</ele>
        <time>2021-01-16T11:49:27Z</time>
      </trkpt>
      <trkpt lat="45.30416" lon="6.05011">
        <ele>1942</ele>
        <time>2021-01-16T11:49:28Z</time>
      </trkpt>
      <trkpt lat="45.30416" lon="6.05011">
        <ele>1942</ele>
        <time>2021-01-16T11:49:29Z</time>
      </trkpt>
      <trkpt lat="45.30416" lon="6.05011">
        <ele>1942</ele>
        <time>2021-01-16T11:49:30Z</time>
      </trkpt>
      <trkpt lat="45.30416" lon="6.05011">
        <ele>1942</ele>
        <time>2021-01-16T11:49:31Z</time>
      </trkpt>
      <trkpt lat="45.30416" lon="6.05011">
        <ele>1942</ele>
        <time>2021-01-16T11:49:32Z</time>
      </trkpt>
      <trkpt lat="45.30416" lon="6.05011">
        <ele>1942</ele>
        <time>2021-01-16T11:49:33Z</time>
      </trkpt>
      <trkpt lat="45.30416" lon="6.05011">
        <ele>1942</ele>
        <time>2021-01-16T11:49:34Z</time>
      </trkpt>
      <trkpt lat="45.30416" lon="6.05011">
        <ele>1942</ele>
        <time>2021-01-16T11:49:35Z</time>
      </trkpt>
      <trkpt lat="45.30416" lon="6.05011">
        <ele>1942</ele>
        <time>2021-01-16T11:49:36Z</time>
      </trkpt>
      <trkpt lat="45.30416" lon="6.05011">
        <ele>1942</ele>
        <time>2021-01-16T11:49:37Z</time>
      </trkpt>
      <trkpt lat="45.30416" lon="6.05011">
        <ele>1942</ele>
        <time>2021-01-16T11:49:38Z</time>
      </trkpt>
      <trkpt lat="45.30416" lon="6.05011">
        <ele>1942</ele>
        <time>2021-01-16T11:49:39Z</time>
      </trkpt>
      <trkpt lat="45.30416" lon="6.05011">
        <ele>1942</ele>
        <time>2021-01-16T11:49:40Z</time>
      </trkpt>
      <trkpt lat="45.30416" lon="6.05011">
        <ele>1942</ele>
        <time>2021-01-16T11:49:41Z</time>
      </trkpt>
      <trkpt lat="45.30416" lon="6.05011">
        <ele>1942</ele>
        <time>2021-01-16T11:49:42Z</time>
      </trkpt>
      <trkpt lat="45.30416" lon="6.05011">
        <ele>1942</ele>
        <time>2021-01-16T11:49:43Z</time>
      </trkpt>
      <trkpt lat="45.30416" lon="6.05011">
        <ele>1942</ele>
        <time>2021-01-16T11:49:44Z</time>
      </trkpt>
      <trkpt lat="45.30416" lon="6.05011">
        <ele>1942</ele>
        <time>2021-01-16T11:49:45Z</time>
      </trkpt>
      <trkpt lat="45.30416" lon="6.05011">
        <ele>1942</ele>
        <time>2021-01-16T11:49:46Z</time>
      </trkpt>
      <trkpt lat="45.30416" lon="6.05011">
        <ele>1942</ele>
        <time>2021-01-16T11:49:47Z</time>
      </trkpt>
      <trkpt lat="45.30416" lon="6.05011">
        <ele>1942</ele>
        <time>2021-01-16T11:49:48Z</time>
      </trkpt>
      <trkpt lat="45.30416" lon="6.05011">
        <ele>1942</ele>
        <time>2021-01-16T11:49:49Z</time>
      </trkpt>
      <trkpt lat="45.30416" lon="6.05011">
        <ele>1941.8</ele>
        <time>2021-01-16T11:49:50Z</time>
      </trkpt>
      <trkpt lat="45.30416" lon="6.05011">
        <ele>1942</ele>
        <time>2021-01-16T11:49:51Z</time>
      </trkpt>
      <trkpt lat="45.30416" lon="6.05011">
        <ele>1941.6</ele>
        <time>2021-01-16T11:49:52Z</time>
      </trkpt>
      <trkpt lat="45.30416" lon="6.05011">
        <ele>1941.8</ele>
        <time>2021-01-16T11:49:53Z</time>
      </trkpt>
      <trkpt lat="45.30415" lon="6.05012">
        <ele>1941.6</ele>
        <time>2021-01-16T11:49:54Z</time>
      </trkpt>
      <trkpt lat="45.30414" lon="6.05012">
        <ele>1941.8</ele>
        <time>2021-01-16T11:49:55Z</time>
      </trkpt>
      <trkpt lat="45.30414" lon="6.05013">
        <ele>1941.8</ele>
        <time>2021-01-16T11:49:56Z</time>
      </trkpt>
      <trkpt lat="45.30414" lon="6.05013">
        <ele>1942</ele>
        <time>2021-01-16T11:49:57Z</time>
      </trkpt>
      <trkpt lat="45.30414" lon="6.05014">
        <ele>1942</ele>
        <time>2021-01-16T11:49:58Z</time>
      </trkpt>
      <trkpt lat="45.30414" lon="6.05014">
        <ele>1942.2</ele>
        <time>2021-01-16T11:49:59Z</time>
      </trkpt>
      <trkpt lat="45.30414" lon="6.05014">
        <ele>1942.2</ele>
        <time>2021-01-16T11:50:00Z</time>
      </trkpt>
      <trkpt lat="45.30414" lon="6.05015">
        <ele>1942.2</ele>
        <time>2021-01-16T11:50:01Z</time>
      </trkpt>
      <trkpt lat="45.30414" lon="6.05015">
        <ele>1942</ele>
        <time>2021-01-16T11:50:02Z</time>
      </trkpt>
      <trkpt lat="45.30414" lon="6.05015">
        <ele>1942</ele>
        <time>2021-01-16T11:50:03Z</time>
      </trkpt>
      <trkpt lat="45.30414" lon="6.05015">
        <ele>1942</ele>
        <time>2021-01-16T11:50:04Z</time>
      </trkpt>
      <trkpt lat="45.30414" lon="6.05015">
        <ele>1942.2</ele>
        <time>2021-01-16T11:50:05Z</time>
      </trkpt>
      <trkpt lat="45.30414" lon="6.05015">
        <ele>1942.2</ele>
        <time>2021-01-16T11:50:06Z</time>
      </trkpt>
      <trkpt lat="45.30414" lon="6.05015">
        <ele>1942.2</ele>
        <time>2021-01-16T11:50:07Z</time>
      </trkpt>
      <trkpt lat="45.30414" lon="6.05015">
        <ele>1942.2</ele>
        <time>2021-01-16T11:50:08Z</time>
      </trkpt>
      <trkpt lat="45.30414" lon="6.05015">
        <ele>1942.2</ele>
        <time>2021-01-16T11:50:09Z</time>
      </trkpt>
      <trkpt lat="45.30414" lon="6.05015">
        <ele>1942.2</ele>
        <time>2021-01-16T11:50:10Z</time>
      </trkpt>
      <trkpt lat="45.30414" lon="6.05015">
        <ele>1942.2</ele>
        <time>2021-01-16T11:50:11Z</time>
      </trkpt>
      <trkpt lat="45.30414" lon="6.05015">
        <ele>1942.2</ele>
        <time>2021-01-16T11:50:12Z</time>
      </trkpt>
      <trkpt lat="45.30414" lon="6.05015">
        <ele>1942.2</ele>
        <time>2021-01-16T11:50:13Z</time>
      </trkpt>
      <trkpt lat="45.30414" lon="6.05015">
        <ele>1942</ele>
        <time>2021-01-16T11:50:14Z</time>
      </trkpt>
      <trkpt lat="45.30414" lon="6.05015">
        <ele>1942</ele>
        <time>2021-01-16T11:50:15Z</time>
      </trkpt>
      <trkpt lat="45.30414" lon="6.05015">
        <ele>1942</ele>
        <time>2021-01-16T11:50:16Z</time>
      </trkpt>
      <trkpt lat="45.30414" lon="6.05015">
        <ele>1942.2</ele>
        <time>2021-01-16T11:50:17Z</time>
      </trkpt>
      <trkpt lat="45.30414" lon="6.05015">
        <ele>1942.2</ele>
        <time>2021-01-16T11:50:18Z</time>
      </trkpt>
      <trkpt lat="45.30414" lon="6.05015">
        <ele>1942.2</ele>
        <time>2021-01-16T11:50:19Z</time>
      </trkpt>
      <trkpt lat="45.30414" lon="6.05015">
        <ele>1942.2</ele>
        <time>2021-01-16T11:50:20Z</time>
      </trkpt>
      <trkpt lat="45.30414" lon="6.05015">
        <ele>1942.2</ele>
        <time>2021-01-16T11:50:21Z</time>
      </trkpt>
      <trkpt lat="45.30414" lon="6.05015">
        <ele>1942.2</ele>
        <time>2021-01-16T11:50:22Z</time>
      </trkpt>
      <trkpt lat="45.30414" lon="6.05015">
        <ele>1942.2</ele>
        <time>2021-01-16T11:50:23Z</time>
      </trkpt>
      <trkpt lat="45.30414" lon="6.05015">
        <ele>1942.2</ele>
        <time>2021-01-16T11:50:24Z</time>
      </trkpt>
      <trkpt lat="45.30414" lon="6.05015">
        <ele>1942.2</ele>
        <time>2021-01-16T11:50:25Z</time>
      </trkpt>
      <trkpt lat="45.30414" lon="6.05015">
        <ele>1942.2</ele>
        <time>2021-01-16T11:50:26Z</time>
      </trkpt>
      <trkpt lat="45.30414" lon="6.05015">
        <ele>1942.2</ele>
        <time>2021-01-16T11:50:27Z</time>
      </trkpt>
      <trkpt lat="45.30414" lon="6.05015">
        <ele>1942.4</ele>
        <time>2021-01-16T11:50:28Z</time>
      </trkpt>
      <trkpt lat="45.30414" lon="6.05015">
        <ele>1942.4</ele>
        <time>2021-01-16T11:50:29Z</time>
      </trkpt>
      <trkpt lat="45.30414" lon="6.05015">
        <ele>1942.4</ele>
        <time>2021-01-16T11:50:30Z</time>
      </trkpt>
      <trkpt lat="45.30414" lon="6.05015">
        <ele>1942.4</ele>
        <time>2021-01-16T11:50:31Z</time>
      </trkpt>
      <trkpt lat="45.30414" lon="6.05015">
        <ele>1942.4</ele>
        <time>2021-01-16T11:50:32Z</time>
      </trkpt>
      <trkpt lat="45.30414" lon="6.05015">
        <ele>1942.4</ele>
        <time>2021-01-16T11:50:33Z</time>
      </trkpt>
      <trkpt lat="45.30414" lon="6.05015">
        <ele>1942.4</ele>
        <time>2021-01-16T11:50:34Z</time>
      </trkpt>
      <trkpt lat="45.30414" lon="6.05015">
        <ele>1942.4</ele>
        <time>2021-01-16T11:50:35Z</time>
      </trkpt>
      <trkpt lat="45.30414" lon="6.05015">
        <ele>1942.4</ele>
        <time>2021-01-16T11:50:36Z</time>
      </trkpt>
      <trkpt lat="45.30414" lon="6.05015">
        <ele>1942.4</ele>
        <time>2021-01-16T11:50:37Z</time>
      </trkpt>
      <trkpt lat="45.30414" lon="6.05015">
        <ele>1942.4</ele>
        <time>2021-01-16T11:50:38Z</time>
      </trkpt>
      <trkpt lat="45.30414" lon="6.05015">
        <ele>1942.4</ele>
        <time>2021-01-16T11:50:39Z</time>
      </trkpt>
      <trkpt lat="45.30414" lon="6.05015">
        <ele>1942.4</ele>
        <time>2021-01-16T11:50:40Z</time>
      </trkpt>
      <trkpt lat="45.30414" lon="6.05015">
        <ele>1942.4</ele>
        <time>2021-01-16T11:50:41Z</time>
      </trkpt>
      <trkpt lat="45.30414" lon="6.05015">
        <ele>1942.4</ele>
        <time>2021-01-16T11:50:42Z</time>
      </trkpt>
      <trkpt lat="45.30414" lon="6.05015">
        <ele>1942.4</ele>
        <time>2021-01-16T11:50:43Z</time>
      </trkpt>
      <trkpt lat="45.30414" lon="6.05015">
        <ele>1942.4</ele>
        <time>2021-01-16T11:50:44Z</time>
      </trkpt>
      <trkpt lat="45.30414" lon="6.05015">
        <ele>1942.4</ele>
        <time>2021-01-16T11:50:45Z</time>
      </trkpt>
      <trkpt lat="45.30414" lon="6.05015">
        <ele>1942.4</ele>
        <time>2021-01-16T11:50:46Z</time>
      </trkpt>
      <trkpt lat="45.30414" lon="6.05015">
        <ele>1942.4</ele>
        <time>2021-01-16T11:50:47Z</time>
      </trkpt>
      <trkpt lat="45.30414" lon="6.05015">
        <ele>1942.4</ele>
        <time>2021-01-16T11:50:48Z</time>
      </trkpt>
      <trkpt lat="45.30414" lon="6.05015">
        <ele>1942.4</ele>
        <time>2021-01-16T11:50:49Z</time>
      </trkpt>
      <trkpt lat="45.30414" lon="6.05015">
        <ele>1942.4</ele>
        <time>2021-01-16T11:50:50Z</time>
      </trkpt>
      <trkpt lat="45.30414" lon="6.05015">
        <ele>1942.4</ele>
        <time>2021-01-16T11:50:51Z</time>
      </trkpt>
      <trkpt lat="45.30414" lon="6.05015">
        <ele>1942.4</ele>
        <time>2021-01-16T11:50:52Z</time>
      </trkpt>
      <trkpt lat="45.30414" lon="6.05015">
        <ele>1942.4</ele>
        <time>2021-01-16T11:50:53Z</time>
      </trkpt>
      <trkpt lat="45.30414" lon="6.05015">
        <ele>1942.4</ele>
        <time>2021-01-16T11:50:54Z</time>
      </trkpt>
      <trkpt lat="45.30414" lon="6.05015">
        <ele>1942.4</ele>
        <time>2021-01-16T11:50:55Z</time>
      </trkpt>
      <trkpt lat="45.30414" lon="6.05015">
        <ele>1942.4</ele>
        <time>2021-01-16T11:50:56Z</time>
      </trkpt>
      <trkpt lat="45.30414" lon="6.05015">
        <ele>1942.4</ele>
        <time>2021-01-16T11:50:57Z</time>
      </trkpt>
      <trkpt lat="45.30414" lon="6.05015">
        <ele>1942.4</ele>
        <time>2021-01-16T11:50:58Z</time>
      </trkpt>
      <trkpt lat="45.30414" lon="6.05015">
        <ele>1942.4</ele>
        <time>2021-01-16T11:50:59Z</time>
      </trkpt>
      <trkpt lat="45.30414" lon="6.05015">
        <ele>1942.4</ele>
        <time>2021-01-16T11:51:00Z</time>
      </trkpt>
      <trkpt lat="45.30414" lon="6.05015">
        <ele>1942.4</ele>
        <time>2021-01-16T11:51:01Z</time>
      </trkpt>
      <trkpt lat="45.30414" lon="6.05015">
        <ele>1942.6</ele>
        <time>2021-01-16T11:51:02Z</time>
      </trkpt>
      <trkpt lat="45.30414" lon="6.05015">
        <ele>1942.6</ele>
        <time>2021-01-16T11:51:03Z</time>
      </trkpt>
      <trkpt lat="45.30414" lon="6.05015">
        <ele>1942.6</ele>
        <time>2021-01-16T11:51:04Z</time>
      </trkpt>
      <trkpt lat="45.30414" lon="6.05015">
        <ele>1942.4</ele>
        <time>2021-01-16T11:51:05Z</time>
      </trkpt>
      <trkpt lat="45.30414" lon="6.05015">
        <ele>1942.4</ele>
        <time>2021-01-16T11:51:06Z</time>
      </trkpt>
      <trkpt lat="45.30414" lon="6.05015">
        <ele>1942.4</ele>
        <time>2021-01-16T11:51:07Z</time>
      </trkpt>
      <trkpt lat="45.30414" lon="6.05015">
        <ele>1942.4</ele>
        <time>2021-01-16T11:51:08Z</time>
      </trkpt>
      <trkpt lat="45.30414" lon="6.05015">
        <ele>1942.4</ele>
        <time>2021-01-16T11:51:09Z</time>
      </trkpt>
      <trkpt lat="45.30414" lon="6.05015">
        <ele>1942.4</ele>
        <time>2021-01-16T11:51:10Z</time>
      </trkpt>
      <trkpt lat="45.30414" lon="6.05015">
        <ele>1942.4</ele>
        <time>2021-01-16T11:51:11Z</time>
      </trkpt>
      <trkpt lat="45.30414" lon="6.05015">
        <ele>1942.4</ele>
        <time>2021-01-16T11:51:12Z</time>
      </trkpt>
      <trkpt lat="45.30414" lon="6.05015">
        <ele>1942.4</ele>
        <time>2021-01-16T11:51:13Z</time>
      </trkpt>
      <trkpt lat="45.30414" lon="6.05015">
        <ele>1942.4</ele>
        <time>2021-01-16T11:51:14Z</time>
      </trkpt>
      <trkpt lat="45.30414" lon="6.05015">
        <ele>1942.4</ele>
        <time>2021-01-16T11:51:15Z</time>
      </trkpt>
      <trkpt lat="45.30414" lon="6.05015">
        <ele>1942.4</ele>
        <time>2021-01-16T11:51:16Z</time>
      </trkpt>
      <trkpt lat="45.30414" lon="6.05015">
        <ele>1942.4</ele>
        <time>2021-01-16T11:51:17Z</time>
      </trkpt>
      <trkpt lat="45.30414" lon="6.05015">
        <ele>1942.4</ele>
        <time>2021-01-16T11:51:18Z</time>
      </trkpt>
      <trkpt lat="45.30414" lon="6.05015">
        <ele>1942.4</ele>
        <time>2021-01-16T11:51:19Z</time>
      </trkpt>
      <trkpt lat="45.30414" lon="6.05015">
        <ele>1942.4</ele>
        <time>2021-01-16T11:51:20Z</time>
      </trkpt>
      <trkpt lat="45.30414" lon="6.05015">
        <ele>1942.4</ele>
        <time>2021-01-16T11:51:21Z</time>
      </trkpt>
      <trkpt lat="45.30414" lon="6.05015">
        <ele>1942.4</ele>
        <time>2021-01-16T11:51:22Z</time>
      </trkpt>
      <trkpt lat="45.30414" lon="6.05015">
        <ele>1942.4</ele>
        <time>2021-01-16T11:51:23Z</time>
      </trkpt>
      <trkpt lat="45.30414" lon="6.05015">
        <ele>1942.2</ele>
        <time>2021-01-16T11:51:24Z</time>
      </trkpt>
      <trkpt lat="45.30414" lon="6.05015">
        <ele>1942.2</ele>
        <time>2021-01-16T11:51:25Z</time>
      </trkpt>
      <trkpt lat="45.30414" lon="6.05015">
        <ele>1942.2</ele>
        <time>2021-01-16T11:51:26Z</time>
      </trkpt>
      <trkpt lat="45.30414" lon="6.05015">
        <ele>1942.2</ele>
        <time>2021-01-16T11:51:27Z</time>
      </trkpt>
      <trkpt lat="45.30414" lon="6.05015">
        <ele>1942.2</ele>
        <time>2021-01-16T11:51:28Z</time>
      </trkpt>
      <trkpt lat="45.30414" lon="6.05015">
        <ele>1942.4</ele>
        <time>2021-01-16T11:51:29Z</time>
      </trkpt>
      <trkpt lat="45.30414" lon="6.05015">
        <ele>1942.4</ele>
        <time>2021-01-16T11:51:30Z</time>
      </trkpt>
      <trkpt lat="45.30414" lon="6.05015">
        <ele>1942.4</ele>
        <time>2021-01-16T11:51:31Z</time>
      </trkpt>
      <trkpt lat="45.30414" lon="6.05015">
        <ele>1942.4</ele>
        <time>2021-01-16T11:51:32Z</time>
      </trkpt>
      <trkpt lat="45.30414" lon="6.05015">
        <ele>1942.4</ele>
        <time>2021-01-16T11:51:33Z</time>
      </trkpt>
      <trkpt lat="45.30414" lon="6.05015">
        <ele>1942.4</ele>
        <time>2021-01-16T11:51:34Z</time>
      </trkpt>
      <trkpt lat="45.30414" lon="6.05015">
        <ele>1942.4</ele>
        <time>2021-01-16T11:51:35Z</time>
      </trkpt>
      <trkpt lat="45.30414" lon="6.05015">
        <ele>1942.4</ele>
        <time>2021-01-16T11:51:36Z</time>
      </trkpt>
      <trkpt lat="45.30414" lon="6.05015">
        <ele>1942.4</ele>
        <time>2021-01-16T11:51:37Z</time>
      </trkpt>
      <trkpt lat="45.30414" lon="6.05015">
        <ele>1942.4</ele>
        <time>2021-01-16T11:51:38Z</time>
      </trkpt>
      <trkpt lat="45.30414" lon="6.05015">
        <ele>1942.4</ele>
        <time>2021-01-16T11:51:39Z</time>
      </trkpt>
      <trkpt lat="45.30414" lon="6.05015">
        <ele>1942.4</ele>
        <time>2021-01-16T11:51:40Z</time>
      </trkpt>
      <trkpt lat="45.30414" lon="6.05015">
        <ele>1942.4</ele>
        <time>2021-01-16T11:51:41Z</time>
      </trkpt>
      <trkpt lat="45.30414" lon="6.05015">
        <ele>1942.4</ele>
        <time>2021-01-16T11:51:42Z</time>
      </trkpt>
      <trkpt lat="45.30414" lon="6.05015">
        <ele>1942.4</ele>
        <time>2021-01-16T11:51:43Z</time>
      </trkpt>
      <trkpt lat="45.30414" lon="6.05015">
        <ele>1942.4</ele>
        <time>2021-01-16T11:51:44Z</time>
      </trkpt>
      <trkpt lat="45.30414" lon="6.05015">
        <ele>1942.4</ele>
        <time>2021-01-16T11:51:45Z</time>
      </trkpt>
      <trkpt lat="45.30414" lon="6.05015">
        <ele>1942.4</ele>
        <time>2021-01-16T11:51:46Z</time>
      </trkpt>
      <trkpt lat="45.30414" lon="6.05015">
        <ele>1942.4</ele>
        <time>2021-01-16T11:51:47Z</time>
      </trkpt>
      <trkpt lat="45.30414" lon="6.05015">
        <ele>1942.4</ele>
        <time>2021-01-16T11:51:48Z</time>
      </trkpt>
      <trkpt lat="45.30414" lon="6.05015">
        <ele>1942.4</ele>
        <time>2021-01-16T11:51:49Z</time>
      </trkpt>
      <trkpt lat="45.30414" lon="6.05015">
        <ele>1942.4</ele>
        <time>2021-01-16T11:51:50Z</time>
      </trkpt>
      <trkpt lat="45.30414" lon="6.05015">
        <ele>1942.4</ele>
        <time>2021-01-16T11:51:51Z</time>
      </trkpt>
      <trkpt lat="45.30414" lon="6.05015">
        <ele>1942.4</ele>
        <time>2021-01-16T11:51:52Z</time>
      </trkpt>
      <trkpt lat="45.30414" lon="6.05015">
        <ele>1942.6</ele>
        <time>2021-01-16T11:51:53Z</time>
      </trkpt>
      <trkpt lat="45.30414" lon="6.05015">
        <ele>1942.6</ele>
        <time>2021-01-16T11:51:54Z</time>
      </trkpt>
      <trkpt lat="45.30414" lon="6.05015">
        <ele>1942.6</ele>
        <time>2021-01-16T11:51:55Z</time>
      </trkpt>
      <trkpt lat="45.30414" lon="6.05015">
        <ele>1942.6</ele>
        <time>2021-01-16T11:51:56Z</time>
      </trkpt>
      <trkpt lat="45.30414" lon="6.05015">
        <ele>1942.6</ele>
        <time>2021-01-16T11:51:57Z</time>
      </trkpt>
      <trkpt lat="45.30414" lon="6.05015">
        <ele>1942.6</ele>
        <time>2021-01-16T11:51:58Z</time>
      </trkpt>
      <trkpt lat="45.30414" lon="6.05015">
        <ele>1942.6</ele>
        <time>2021-01-16T11:51:59Z</time>
      </trkpt>
      <trkpt lat="45.30414" lon="6.05015">
        <ele>1942.8</ele>
        <time>2021-01-16T11:52:00Z</time>
      </trkpt>
      <trkpt lat="45.30414" lon="6.05015">
        <ele>1942.8</ele>
        <time>2021-01-16T11:52:01Z</time>
      </trkpt>
      <trkpt lat="45.30414" lon="6.05015">
        <ele>1942.8</ele>
        <time>2021-01-16T11:52:02Z</time>
      </trkpt>
      <trkpt lat="45.30414" lon="6.05015">
        <ele>1942.6</ele>
        <time>2021-01-16T11:52:03Z</time>
      </trkpt>
      <trkpt lat="45.30414" lon="6.05015">
        <ele>1942.6</ele>
        <time>2021-01-16T11:52:04Z</time>
      </trkpt>
      <trkpt lat="45.30414" lon="6.05015">
        <ele>1942.6</ele>
        <time>2021-01-16T11:52:05Z</time>
      </trkpt>
      <trkpt lat="45.30414" lon="6.05015">
        <ele>1942.6</ele>
        <time>2021-01-16T11:52:06Z</time>
      </trkpt>
      <trkpt lat="45.30414" lon="6.05015">
        <ele>1942.6</ele>
        <time>2021-01-16T11:52:07Z</time>
      </trkpt>
      <trkpt lat="45.30414" lon="6.05015">
        <ele>1942.6</ele>
        <time>2021-01-16T11:52:08Z</time>
      </trkpt>
      <trkpt lat="45.30414" lon="6.05015">
        <ele>1942.6</ele>
        <time>2021-01-16T11:52:09Z</time>
      </trkpt>
      <trkpt lat="45.30414" lon="6.05015">
        <ele>1942.6</ele>
        <time>2021-01-16T11:52:10Z</time>
      </trkpt>
      <trkpt lat="45.30414" lon="6.05015">
        <ele>1942.6</ele>
        <time>2021-01-16T11:52:11Z</time>
      </trkpt>
      <trkpt lat="45.30414" lon="6.05015">
        <ele>1942.6</ele>
        <time>2021-01-16T11:52:12Z</time>
      </trkpt>
      <trkpt lat="45.30414" lon="6.05015">
        <ele>1942.6</ele>
        <time>2021-01-16T11:52:13Z</time>
      </trkpt>
      <trkpt lat="45.30414" lon="6.05015">
        <ele>1942.6</ele>
        <time>2021-01-16T11:52:14Z</time>
      </trkpt>
      <trkpt lat="45.30414" lon="6.05015">
        <ele>1942.6</ele>
        <time>2021-01-16T11:52:15Z</time>
      </trkpt>
      <trkpt lat="45.30414" lon="6.05015">
        <ele>1942.6</ele>
        <time>2021-01-16T11:52:16Z</time>
      </trkpt>
      <trkpt lat="45.30414" lon="6.05015">
        <ele>1942.6</ele>
        <time>2021-01-16T11:52:17Z</time>
      </trkpt>
      <trkpt lat="45.30414" lon="6.05015">
        <ele>1942.6</ele>
        <time>2021-01-16T11:52:18Z</time>
      </trkpt>
      <trkpt lat="45.30414" lon="6.05015">
        <ele>1942.6</ele>
        <time>2021-01-16T11:52:19Z</time>
      </trkpt>
      <trkpt lat="45.30414" lon="6.05015">
        <ele>1942.6</ele>
        <time>2021-01-16T11:52:20Z</time>
      </trkpt>
      <trkpt lat="45.30414" lon="6.05015">
        <ele>1942.8</ele>
        <time>2021-01-16T11:52:21Z</time>
      </trkpt>
      <trkpt lat="45.30414" lon="6.05015">
        <ele>1942.6</ele>
        <time>2021-01-16T11:52:22Z</time>
      </trkpt>
      <trkpt lat="45.30414" lon="6.05015">
        <ele>1942.8</ele>
        <time>2021-01-16T11:52:23Z</time>
      </trkpt>
      <trkpt lat="45.30414" lon="6.05015">
        <ele>1942.6</ele>
        <time>2021-01-16T11:52:24Z</time>
      </trkpt>
      <trkpt lat="45.30414" lon="6.05015">
        <ele>1942.6</ele>
        <time>2021-01-16T11:52:25Z</time>
      </trkpt>
      <trkpt lat="45.30414" lon="6.05015">
        <ele>1942.6</ele>
        <time>2021-01-16T11:52:26Z</time>
      </trkpt>
      <trkpt lat="45.30414" lon="6.05015">
        <ele>1942.6</ele>
        <time>2021-01-16T11:52:27Z</time>
      </trkpt>
      <trkpt lat="45.30414" lon="6.05015">
        <ele>1942.8</ele>
        <time>2021-01-16T11:52:28Z</time>
      </trkpt>
      <trkpt lat="45.30414" lon="6.05015">
        <ele>1942.8</ele>
        <time>2021-01-16T11:52:29Z</time>
      </trkpt>
      <trkpt lat="45.30414" lon="6.05015">
        <ele>1942.6</ele>
        <time>2021-01-16T11:52:30Z</time>
      </trkpt>
      <trkpt lat="45.30414" lon="6.05015">
        <ele>1942.6</ele>
        <time>2021-01-16T11:52:31Z</time>
      </trkpt>
      <trkpt lat="45.30414" lon="6.05015">
        <ele>1942.6</ele>
        <time>2021-01-16T11:52:32Z</time>
      </trkpt>
      <trkpt lat="45.30414" lon="6.05015">
        <ele>1942.6</ele>
        <time>2021-01-16T11:52:33Z</time>
      </trkpt>
      <trkpt lat="45.30414" lon="6.05015">
        <ele>1942.6</ele>
        <time>2021-01-16T11:52:34Z</time>
      </trkpt>
      <trkpt lat="45.30414" lon="6.05015">
        <ele>1942.6</ele>
        <time>2021-01-16T11:52:35Z</time>
      </trkpt>
      <trkpt lat="45.30414" lon="6.05015">
        <ele>1942.6</ele>
        <time>2021-01-16T11:52:36Z</time>
      </trkpt>
      <trkpt lat="45.30414" lon="6.05015">
        <ele>1942.6</ele>
        <time>2021-01-16T11:52:37Z</time>
      </trkpt>
      <trkpt lat="45.30414" lon="6.05015">
        <ele>1942.6</ele>
        <time>2021-01-16T11:52:38Z</time>
      </trkpt>
      <trkpt lat="45.30414" lon="6.05015">
        <ele>1942.6</ele>
        <time>2021-01-16T11:52:39Z</time>
      </trkpt>
      <trkpt lat="45.30414" lon="6.05015">
        <ele>1942.4</ele>
        <time>2021-01-16T11:52:40Z</time>
      </trkpt>
      <trkpt lat="45.30414" lon="6.05015">
        <ele>1942.4</ele>
        <time>2021-01-16T11:52:41Z</time>
      </trkpt>
      <trkpt lat="45.30414" lon="6.05015">
        <ele>1942.2</ele>
        <time>2021-01-16T11:52:42Z</time>
      </trkpt>
      <trkpt lat="45.30414" lon="6.05015">
        <ele>1942.4</ele>
        <time>2021-01-16T11:52:43Z</time>
      </trkpt>
      <trkpt lat="45.30414" lon="6.05015">
        <ele>1942.6</ele>
        <time>2021-01-16T11:52:44Z</time>
      </trkpt>
      <trkpt lat="45.30414" lon="6.05015">
        <ele>1942.6</ele>
        <time>2021-01-16T11:52:45Z</time>
      </trkpt>
      <trkpt lat="45.30414" lon="6.05015">
        <ele>1942.6</ele>
        <time>2021-01-16T11:52:46Z</time>
      </trkpt>
      <trkpt lat="45.30414" lon="6.05015">
        <ele>1942.6</ele>
        <time>2021-01-16T11:52:47Z</time>
      </trkpt>
      <trkpt lat="45.30414" lon="6.05015">
        <ele>1942.6</ele>
        <time>2021-01-16T11:52:48Z</time>
      </trkpt>
      <trkpt lat="45.30414" lon="6.05015">
        <ele>1942.6</ele>
        <time>2021-01-16T11:52:49Z</time>
      </trkpt>
      <trkpt lat="45.30414" lon="6.05015">
        <ele>1942.6</ele>
        <time>2021-01-16T11:52:50Z</time>
      </trkpt>
      <trkpt lat="45.30414" lon="6.05015">
        <ele>1942.6</ele>
        <time>2021-01-16T11:52:51Z</time>
      </trkpt>
      <trkpt lat="45.30414" lon="6.05015">
        <ele>1942.6</ele>
        <time>2021-01-16T11:52:52Z</time>
      </trkpt>
      <trkpt lat="45.30414" lon="6.05015">
        <ele>1942.6</ele>
        <time>2021-01-16T11:52:53Z</time>
      </trkpt>
      <trkpt lat="45.30414" lon="6.05015">
        <ele>1942.6</ele>
        <time>2021-01-16T11:52:54Z</time>
      </trkpt>
      <trkpt lat="45.30414" lon="6.05015">
        <ele>1942.6</ele>
        <time>2021-01-16T11:52:55Z</time>
      </trkpt>
      <trkpt lat="45.30414" lon="6.05015">
        <ele>1942.6</ele>
        <time>2021-01-16T11:52:56Z</time>
      </trkpt>
      <trkpt lat="45.30414" lon="6.05015">
        <ele>1942.6</ele>
        <time>2021-01-16T11:52:57Z</time>
      </trkpt>
      <trkpt lat="45.30414" lon="6.05015">
        <ele>1942.6</ele>
        <time>2021-01-16T11:52:58Z</time>
      </trkpt>
      <trkpt lat="45.30414" lon="6.05015">
        <ele>1942.4</ele>
        <time>2021-01-16T11:52:59Z</time>
      </trkpt>
      <trkpt lat="45.30414" lon="6.05015">
        <ele>1942.2</ele>
        <time>2021-01-16T11:53:00Z</time>
      </trkpt>
      <trkpt lat="45.30414" lon="6.05015">
        <ele>1942.4</ele>
        <time>2021-01-16T11:53:01Z</time>
      </trkpt>
      <trkpt lat="45.30414" lon="6.05015">
        <ele>1942.6</ele>
        <time>2021-01-16T11:53:02Z</time>
      </trkpt>
      <trkpt lat="45.30414" lon="6.05015">
        <ele>1942.6</ele>
        <time>2021-01-16T11:53:03Z</time>
      </trkpt>
      <trkpt lat="45.30414" lon="6.05015">
        <ele>1942.6</ele>
        <time>2021-01-16T11:53:04Z</time>
      </trkpt>
      <trkpt lat="45.30414" lon="6.05015">
        <ele>1942.6</ele>
        <time>2021-01-16T11:53:05Z</time>
      </trkpt>
      <trkpt lat="45.30414" lon="6.05015">
        <ele>1942.6</ele>
        <time>2021-01-16T11:53:06Z</time>
      </trkpt>
      <trkpt lat="45.30414" lon="6.05015">
        <ele>1942.6</ele>
        <time>2021-01-16T11:53:07Z</time>
      </trkpt>
      <trkpt lat="45.30414" lon="6.05015">
        <ele>1942.8</ele>
        <time>2021-01-16T11:53:08Z</time>
      </trkpt>
      <trkpt lat="45.30414" lon="6.05015">
        <ele>1942.8</ele>
        <time>2021-01-16T11:53:09Z</time>
      </trkpt>
      <trkpt lat="45.30414" lon="6.05015">
        <ele>1942.8</ele>
        <time>2021-01-16T11:53:10Z</time>
      </trkpt>
      <trkpt lat="45.30414" lon="6.05015">
        <ele>1942.8</ele>
        <time>2021-01-16T11:53:11Z</time>
      </trkpt>
      <trkpt lat="45.30414" lon="6.05015">
        <ele>1942.8</ele>
        <time>2021-01-16T11:53:12Z</time>
      </trkpt>
      <trkpt lat="45.30414" lon="6.05015">
        <ele>1942.6</ele>
        <time>2021-01-16T11:53:13Z</time>
      </trkpt>
      <trkpt lat="45.30414" lon="6.05015">
        <ele>1942.6</ele>
        <time>2021-01-16T11:53:14Z</time>
      </trkpt>
      <trkpt lat="45.30414" lon="6.05015">
        <ele>1942.6</ele>
        <time>2021-01-16T11:53:15Z</time>
      </trkpt>
      <trkpt lat="45.30414" lon="6.05015">
        <ele>1942.6</ele>
        <time>2021-01-16T11:53:16Z</time>
      </trkpt>
      <trkpt lat="45.30414" lon="6.05014">
        <ele>1942.4</ele>
        <time>2021-01-16T11:53:17Z</time>
      </trkpt>
      <trkpt lat="45.30415" lon="6.05014">
        <ele>1942.4</ele>
        <time>2021-01-16T11:53:18Z</time>
      </trkpt>
      <trkpt lat="45.30415" lon="6.05014">
        <ele>1942.4</ele>
        <time>2021-01-16T11:53:19Z</time>
      </trkpt>
      <trkpt lat="45.30415" lon="6.05014">
        <ele>1942.4</ele>
        <time>2021-01-16T11:53:20Z</time>
      </trkpt>
      <trkpt lat="45.30415" lon="6.05014">
        <ele>1942.4</ele>
        <time>2021-01-16T11:53:21Z</time>
      </trkpt>
      <trkpt lat="45.30415" lon="6.05014">
        <ele>1942.4</ele>
        <time>2021-01-16T11:53:22Z</time>
      </trkpt>
      <trkpt lat="45.30415" lon="6.05014">
        <ele>1942.4</ele>
        <time>2021-01-16T11:53:23Z</time>
      </trkpt>
      <trkpt lat="45.30415" lon="6.05014">
        <ele>1942.6</ele>
        <time>2021-01-16T11:53:24Z</time>
      </trkpt>
      <trkpt lat="45.30415" lon="6.05014">
        <ele>1942.6</ele>
        <time>2021-01-16T11:53:25Z</time>
      </trkpt>
      <trkpt lat="45.30415" lon="6.05014">
        <ele>1942.6</ele>
        <time>2021-01-16T11:53:26Z</time>
      </trkpt>
      <trkpt lat="45.30415" lon="6.05014">
        <ele>1942.4</ele>
        <time>2021-01-16T11:53:27Z</time>
      </trkpt>
      <trkpt lat="45.30415" lon="6.05014">
        <ele>1942.6</ele>
        <time>2021-01-16T11:53:28Z</time>
      </trkpt>
      <trkpt lat="45.30415" lon="6.05014">
        <ele>1942.8</ele>
        <time>2021-01-16T11:53:29Z</time>
      </trkpt>
      <trkpt lat="45.30415" lon="6.05014">
        <ele>1942.8</ele>
        <time>2021-01-16T11:53:30Z</time>
      </trkpt>
      <trkpt lat="45.30415" lon="6.05014">
        <ele>1943</ele>
        <time>2021-01-16T11:53:31Z</time>
      </trkpt>
      <trkpt lat="45.30415" lon="6.05014">
        <ele>1942.8</ele>
        <time>2021-01-16T11:53:32Z</time>
      </trkpt>
      <trkpt lat="45.30415" lon="6.05014">
        <ele>1942.8</ele>
        <time>2021-01-16T11:53:33Z</time>
      </trkpt>
      <trkpt lat="45.30415" lon="6.05014">
        <ele>1942.8</ele>
        <time>2021-01-16T11:53:34Z</time>
      </trkpt>
      <trkpt lat="45.30415" lon="6.05014">
        <ele>1943</ele>
        <time>2021-01-16T11:53:35Z</time>
      </trkpt>
      <trkpt lat="45.30415" lon="6.05014">
        <ele>1942.8</ele>
        <time>2021-01-16T11:53:36Z</time>
      </trkpt>
      <trkpt lat="45.30415" lon="6.05014">
        <ele>1942.8</ele>
        <time>2021-01-16T11:53:37Z</time>
      </trkpt>
      <trkpt lat="45.30415" lon="6.05014">
        <ele>1943</ele>
        <time>2021-01-16T11:53:38Z</time>
      </trkpt>
      <trkpt lat="45.30415" lon="6.05014">
        <ele>1943</ele>
        <time>2021-01-16T11:53:39Z</time>
      </trkpt>
      <trkpt lat="45.30415" lon="6.05014">
        <ele>1943</ele>
        <time>2021-01-16T11:53:40Z</time>
      </trkpt>
      <trkpt lat="45.30415" lon="6.05014">
        <ele>1943</ele>
        <time>2021-01-16T11:53:41Z</time>
      </trkpt>
      <trkpt lat="45.30415" lon="6.05014">
        <ele>1942.8</ele>
        <time>2021-01-16T11:53:42Z</time>
      </trkpt>
      <trkpt lat="45.30415" lon="6.05014">
        <ele>1942.8</ele>
        <time>2021-01-16T11:53:43Z</time>
      </trkpt>
      <trkpt lat="45.30415" lon="6.05014">
        <ele>1942.8</ele>
        <time>2021-01-16T11:53:44Z</time>
      </trkpt>
      <trkpt lat="45.30415" lon="6.05014">
        <ele>1943</ele>
        <time>2021-01-16T11:53:45Z</time>
      </trkpt>
      <trkpt lat="45.30415" lon="6.05014">
        <ele>1943</ele>
        <time>2021-01-16T11:53:46Z</time>
      </trkpt>
      <trkpt lat="45.30415" lon="6.05014">
        <ele>1942.8</ele>
        <time>2021-01-16T11:53:47Z</time>
      </trkpt>
      <trkpt lat="45.30415" lon="6.05014">
        <ele>1943</ele>
        <time>2021-01-16T11:53:48Z</time>
      </trkpt>
      <trkpt lat="45.30415" lon="6.05014">
        <ele>1942.8</ele>
        <time>2021-01-16T11:53:49Z</time>
      </trkpt>
      <trkpt lat="45.30415" lon="6.05014">
        <ele>1942.8</ele>
        <time>2021-01-16T11:53:50Z</time>
      </trkpt>
      <trkpt lat="45.30415" lon="6.05014">
        <ele>1942.8</ele>
        <time>2021-01-16T11:53:51Z</time>
      </trkpt>
      <trkpt lat="45.30415" lon="6.05014">
        <ele>1942.8</ele>
        <time>2021-01-16T11:53:52Z</time>
      </trkpt>
      <trkpt lat="45.30415" lon="6.05014">
        <ele>1942.8</ele>
        <time>2021-01-16T11:53:53Z</time>
      </trkpt>
      <trkpt lat="45.30415" lon="6.05014">
        <ele>1943</ele>
        <time>2021-01-16T11:53:54Z</time>
      </trkpt>
      <trkpt lat="45.30415" lon="6.05014">
        <ele>1943</ele>
        <time>2021-01-16T11:53:55Z</time>
      </trkpt>
      <trkpt lat="45.30415" lon="6.05014">
        <ele>1943</ele>
        <time>2021-01-16T11:53:56Z</time>
      </trkpt>
      <trkpt lat="45.30415" lon="6.05014">
        <ele>1943</ele>
        <time>2021-01-16T11:53:57Z</time>
      </trkpt>
      <trkpt lat="45.30415" lon="6.05014">
        <ele>1943</ele>
        <time>2021-01-16T11:53:58Z</time>
      </trkpt>
      <trkpt lat="45.30415" lon="6.05014">
        <ele>1943</ele>
        <time>2021-01-16T11:53:59Z</time>
      </trkpt>
      <trkpt lat="45.30415" lon="6.05014">
        <ele>1943</ele>
        <time>2021-01-16T11:54:00Z</time>
      </trkpt>
      <trkpt lat="45.30415" lon="6.05014">
        <ele>1943</ele>
        <time>2021-01-16T11:54:01Z</time>
      </trkpt>
      <trkpt lat="45.30415" lon="6.05014">
        <ele>1943</ele>
        <time>2021-01-16T11:54:02Z</time>
      </trkpt>
      <trkpt lat="45.30415" lon="6.05014">
        <ele>1943</ele>
        <time>2021-01-16T11:54:03Z</time>
      </trkpt>
      <trkpt lat="45.30415" lon="6.05014">
        <ele>1943</ele>
        <time>2021-01-16T11:54:04Z</time>
      </trkpt>
      <trkpt lat="45.30415" lon="6.05014">
        <ele>1943</ele>
        <time>2021-01-16T11:54:05Z</time>
      </trkpt>
      <trkpt lat="45.30415" lon="6.05014">
        <ele>1943</ele>
        <time>2021-01-16T11:54:06Z</time>
      </trkpt>
      <trkpt lat="45.30415" lon="6.05014">
        <ele>1943</ele>
        <time>2021-01-16T11:54:07Z</time>
      </trkpt>
      <trkpt lat="45.30415" lon="6.05014">
        <ele>1943</ele>
        <time>2021-01-16T11:54:08Z</time>
      </trkpt>
      <trkpt lat="45.30415" lon="6.05014">
        <ele>1943</ele>
        <time>2021-01-16T11:54:09Z</time>
      </trkpt>
      <trkpt lat="45.30415" lon="6.05014">
        <ele>1943</ele>
        <time>2021-01-16T11:54:10Z</time>
      </trkpt>
      <trkpt lat="45.30415" lon="6.05014">
        <ele>1943</ele>
        <time>2021-01-16T11:54:11Z</time>
      </trkpt>
      <trkpt lat="45.30415" lon="6.05014">
        <ele>1943</ele>
        <time>2021-01-16T11:54:12Z</time>
      </trkpt>
      <trkpt lat="45.30415" lon="6.05014">
        <ele>1943</ele>
        <time>2021-01-16T11:54:13Z</time>
      </trkpt>
      <trkpt lat="45.30415" lon="6.05014">
        <ele>1943</ele>
        <time>2021-01-16T11:54:14Z</time>
      </trkpt>
      <trkpt lat="45.30415" lon="6.05014">
        <ele>1943</ele>
        <time>2021-01-16T11:54:15Z</time>
      </trkpt>
      <trkpt lat="45.30415" lon="6.05014">
        <ele>1943</ele>
        <time>2021-01-16T11:54:16Z</time>
      </trkpt>
      <trkpt lat="45.30415" lon="6.05014">
        <ele>1943</ele>
        <time>2021-01-16T11:54:17Z</time>
      </trkpt>
      <trkpt lat="45.30415" lon="6.05014">
        <ele>1943</ele>
        <time>2021-01-16T11:54:18Z</time>
      </trkpt>
      <trkpt lat="45.30415" lon="6.05014">
        <ele>1943</ele>
        <time>2021-01-16T11:54:19Z</time>
      </trkpt>
      <trkpt lat="45.30415" lon="6.05014">
        <ele>1943</ele>
        <time>2021-01-16T11:54:20Z</time>
      </trkpt>
      <trkpt lat="45.30415" lon="6.05014">
        <ele>1943</ele>
        <time>2021-01-16T11:54:21Z</time>
      </trkpt>
      <trkpt lat="45.30415" lon="6.05014">
        <ele>1943</ele>
        <time>2021-01-16T11:54:22Z</time>
      </trkpt>
      <trkpt lat="45.30415" lon="6.05014">
        <ele>1943</ele>
        <time>2021-01-16T11:54:23Z</time>
      </trkpt>
      <trkpt lat="45.30415" lon="6.05014">
        <ele>1943</ele>
        <time>2021-01-16T11:54:24Z</time>
      </trkpt>
      <trkpt lat="45.30415" lon="6.05014">
        <ele>1943</ele>
        <time>2021-01-16T11:54:25Z</time>
      </trkpt>
      <trkpt lat="45.30415" lon="6.05014">
        <ele>1943</ele>
        <time>2021-01-16T11:54:26Z</time>
      </trkpt>
      <trkpt lat="45.30415" lon="6.05014">
        <ele>1943</ele>
        <time>2021-01-16T11:54:27Z</time>
      </trkpt>
      <trkpt lat="45.30415" lon="6.05014">
        <ele>1943</ele>
        <time>2021-01-16T11:54:28Z</time>
      </trkpt>
      <trkpt lat="45.30415" lon="6.05014">
        <ele>1943</ele>
        <time>2021-01-16T11:54:29Z</time>
      </trkpt>
      <trkpt lat="45.30415" lon="6.05014">
        <ele>1943</ele>
        <time>2021-01-16T11:54:30Z</time>
      </trkpt>
      <trkpt lat="45.30415" lon="6.05014">
        <ele>1943</ele>
        <time>2021-01-16T11:54:31Z</time>
      </trkpt>
      <trkpt lat="45.30415" lon="6.05014">
        <ele>1943</ele>
        <time>2021-01-16T11:54:32Z</time>
      </trkpt>
      <trkpt lat="45.30415" lon="6.05014">
        <ele>1943</ele>
        <time>2021-01-16T11:54:33Z</time>
      </trkpt>
      <trkpt lat="45.30415" lon="6.05014">
        <ele>1943</ele>
        <time>2021-01-16T11:54:34Z</time>
      </trkpt>
      <trkpt lat="45.30415" lon="6.05014">
        <ele>1943</ele>
        <time>2021-01-16T11:54:35Z</time>
      </trkpt>
      <trkpt lat="45.30415" lon="6.05014">
        <ele>1943</ele>
        <time>2021-01-16T11:54:36Z</time>
      </trkpt>
      <trkpt lat="45.30415" lon="6.05014">
        <ele>1943</ele>
        <time>2021-01-16T11:54:37Z</time>
      </trkpt>
      <trkpt lat="45.30415" lon="6.05014">
        <ele>1943</ele>
        <time>2021-01-16T11:54:38Z</time>
      </trkpt>
      <trkpt lat="45.30415" lon="6.05014">
        <ele>1943</ele>
        <time>2021-01-16T11:54:39Z</time>
      </trkpt>
      <trkpt lat="45.30415" lon="6.05014">
        <ele>1943</ele>
        <time>2021-01-16T11:54:40Z</time>
      </trkpt>
      <trkpt lat="45.30415" lon="6.05014">
        <ele>1943</ele>
        <time>2021-01-16T11:54:41Z</time>
      </trkpt>
      <trkpt lat="45.30415" lon="6.05014">
        <ele>1943</ele>
        <time>2021-01-16T11:54:42Z</time>
      </trkpt>
      <trkpt lat="45.30415" lon="6.05014">
        <ele>1943</ele>
        <time>2021-01-16T11:54:43Z</time>
      </trkpt>
      <trkpt lat="45.30415" lon="6.05014">
        <ele>1943</ele>
        <time>2021-01-16T11:54:44Z</time>
      </trkpt>
      <trkpt lat="45.30415" lon="6.05014">
        <ele>1943</ele>
        <time>2021-01-16T11:54:45Z</time>
      </trkpt>
      <trkpt lat="45.30415" lon="6.05014">
        <ele>1943</ele>
        <time>2021-01-16T11:54:46Z</time>
      </trkpt>
      <trkpt lat="45.30415" lon="6.05014">
        <ele>1943.2</ele>
        <time>2021-01-16T11:54:47Z</time>
      </trkpt>
      <trkpt lat="45.30415" lon="6.05014">
        <ele>1943.2</ele>
        <time>2021-01-16T11:54:48Z</time>
      </trkpt>
      <trkpt lat="45.30415" lon="6.05014">
        <ele>1943</ele>
        <time>2021-01-16T11:54:49Z</time>
      </trkpt>
      <trkpt lat="45.30415" lon="6.05014">
        <ele>1942.8</ele>
        <time>2021-01-16T11:54:50Z</time>
      </trkpt>
      <trkpt lat="45.30415" lon="6.05014">
        <ele>1942.8</ele>
        <time>2021-01-16T11:54:51Z</time>
      </trkpt>
      <trkpt lat="45.30415" lon="6.05014">
        <ele>1942.8</ele>
        <time>2021-01-16T11:54:52Z</time>
      </trkpt>
      <trkpt lat="45.30415" lon="6.05014">
        <ele>1943</ele>
        <time>2021-01-16T11:54:53Z</time>
      </trkpt>
      <trkpt lat="45.30415" lon="6.05014">
        <ele>1943.2</ele>
        <time>2021-01-16T11:54:54Z</time>
      </trkpt>
      <trkpt lat="45.30415" lon="6.05014">
        <ele>1943.2</ele>
        <time>2021-01-16T11:54:55Z</time>
      </trkpt>
      <trkpt lat="45.30415" lon="6.05014">
        <ele>1943.2</ele>
        <time>2021-01-16T11:54:56Z</time>
      </trkpt>
      <trkpt lat="45.30415" lon="6.05014">
        <ele>1943.2</ele>
        <time>2021-01-16T11:54:57Z</time>
      </trkpt>
      <trkpt lat="45.30415" lon="6.05014">
        <ele>1943.2</ele>
        <time>2021-01-16T11:54:58Z</time>
      </trkpt>
      <trkpt lat="45.30415" lon="6.05014">
        <ele>1943.2</ele>
        <time>2021-01-16T11:54:59Z</time>
      </trkpt>
      <trkpt lat="45.30415" lon="6.05014">
        <ele>1943.2</ele>
        <time>2021-01-16T11:55:00Z</time>
      </trkpt>
      <trkpt lat="45.30415" lon="6.05014">
        <ele>1943.2</ele>
        <time>2021-01-16T11:55:01Z</time>
      </trkpt>
      <trkpt lat="45.30415" lon="6.05014">
        <ele>1943.2</ele>
        <time>2021-01-16T11:55:02Z</time>
      </trkpt>
      <trkpt lat="45.30415" lon="6.05014">
        <ele>1943.2</ele>
        <time>2021-01-16T11:55:03Z</time>
      </trkpt>
      <trkpt lat="45.30415" lon="6.05014">
        <ele>1943.2</ele>
        <time>2021-01-16T11:55:04Z</time>
      </trkpt>
      <trkpt lat="45.30415" lon="6.05014">
        <ele>1943.2</ele>
        <time>2021-01-16T11:55:05Z</time>
      </trkpt>
      <trkpt lat="45.30415" lon="6.05014">
        <ele>1943.2</ele>
        <time>2021-01-16T11:55:06Z</time>
      </trkpt>
      <trkpt lat="45.30415" lon="6.05014">
        <ele>1943.2</ele>
        <time>2021-01-16T11:55:07Z</time>
      </trkpt>
      <trkpt lat="45.30415" lon="6.05014">
        <ele>1943.2</ele>
        <time>2021-01-16T11:55:08Z</time>
      </trkpt>
      <trkpt lat="45.30415" lon="6.05014">
        <ele>1943.2</ele>
        <time>2021-01-16T11:55:09Z</time>
      </trkpt>
      <trkpt lat="45.30415" lon="6.05014">
        <ele>1943.2</ele>
        <time>2021-01-16T11:55:10Z</time>
      </trkpt>
      <trkpt lat="45.30415" lon="6.05014">
        <ele>1943.2</ele>
        <time>2021-01-16T11:55:11Z</time>
      </trkpt>
      <trkpt lat="45.30415" lon="6.05014">
        <ele>1943.2</ele>
        <time>2021-01-16T11:55:12Z</time>
      </trkpt>
      <trkpt lat="45.30415" lon="6.05014">
        <ele>1943.2</ele>
        <time>2021-01-16T11:55:13Z</time>
      </trkpt>
      <trkpt lat="45.30415" lon="6.05014">
        <ele>1943.2</ele>
        <time>2021-01-16T11:55:14Z</time>
      </trkpt>
      <trkpt lat="45.30415" lon="6.05014">
        <ele>1943.2</ele>
        <time>2021-01-16T11:55:15Z</time>
      </trkpt>
      <trkpt lat="45.30415" lon="6.05014">
        <ele>1943.2</ele>
        <time>2021-01-16T11:55:16Z</time>
      </trkpt>
      <trkpt lat="45.30415" lon="6.05014">
        <ele>1943.2</ele>
        <time>2021-01-16T11:55:17Z</time>
      </trkpt>
      <trkpt lat="45.30415" lon="6.05014">
        <ele>1943.2</ele>
        <time>2021-01-16T11:55:18Z</time>
      </trkpt>
      <trkpt lat="45.30415" lon="6.05014">
        <ele>1943.2</ele>
        <time>2021-01-16T11:55:19Z</time>
      </trkpt>
      <trkpt lat="45.30415" lon="6.05014">
        <ele>1943.2</ele>
        <time>2021-01-16T11:55:20Z</time>
      </trkpt>
      <trkpt lat="45.30415" lon="6.05014">
        <ele>1943.2</ele>
        <time>2021-01-16T11:55:21Z</time>
      </trkpt>
      <trkpt lat="45.30415" lon="6.05014">
        <ele>1943.2</ele>
        <time>2021-01-16T11:55:22Z</time>
      </trkpt>
      <trkpt lat="45.30415" lon="6.05014">
        <ele>1943.2</ele>
        <time>2021-01-16T11:55:23Z</time>
      </trkpt>
      <trkpt lat="45.30415" lon="6.05014">
        <ele>1943.2</ele>
        <time>2021-01-16T11:55:24Z</time>
      </trkpt>
      <trkpt lat="45.30415" lon="6.05014">
        <ele>1943.2</ele>
        <time>2021-01-16T11:55:25Z</time>
      </trkpt>
      <trkpt lat="45.30415" lon="6.05014">
        <ele>1943.2</ele>
        <time>2021-01-16T11:55:26Z</time>
      </trkpt>
      <trkpt lat="45.30415" lon="6.05014">
        <ele>1943.2</ele>
        <time>2021-01-16T11:55:27Z</time>
      </trkpt>
      <trkpt lat="45.30415" lon="6.05014">
        <ele>1943.2</ele>
        <time>2021-01-16T11:55:28Z</time>
      </trkpt>
      <trkpt lat="45.30415" lon="6.05014">
        <ele>1943.2</ele>
        <time>2021-01-16T11:55:29Z</time>
      </trkpt>
      <trkpt lat="45.30415" lon="6.05014">
        <ele>1943</ele>
        <time>2021-01-16T11:55:30Z</time>
      </trkpt>
      <trkpt lat="45.30415" lon="6.05014">
        <ele>1943.2</ele>
        <time>2021-01-16T11:55:31Z</time>
      </trkpt>
      <trkpt lat="45.30415" lon="6.05014">
        <ele>1943.2</ele>
        <time>2021-01-16T11:55:32Z</time>
      </trkpt>
      <trkpt lat="45.30415" lon="6.05014">
        <ele>1943.2</ele>
        <time>2021-01-16T11:55:33Z</time>
      </trkpt>
      <trkpt lat="45.30415" lon="6.05014">
        <ele>1943.2</ele>
        <time>2021-01-16T11:55:34Z</time>
      </trkpt>
      <trkpt lat="45.30415" lon="6.05014">
        <ele>1943</ele>
        <time>2021-01-16T11:55:35Z</time>
      </trkpt>
      <trkpt lat="45.30415" lon="6.05014">
        <ele>1943</ele>
        <time>2021-01-16T11:55:36Z</time>
      </trkpt>
      <trkpt lat="45.30415" lon="6.05014">
        <ele>1943</ele>
        <time>2021-01-16T11:55:37Z</time>
      </trkpt>
      <trkpt lat="45.30415" lon="6.05014">
        <ele>1943</ele>
        <time>2021-01-16T11:55:38Z</time>
      </trkpt>
      <trkpt lat="45.30415" lon="6.05014">
        <ele>1943.2</ele>
        <time>2021-01-16T11:55:39Z</time>
      </trkpt>
      <trkpt lat="45.30415" lon="6.05014">
        <ele>1943.2</ele>
        <time>2021-01-16T11:55:40Z</time>
      </trkpt>
      <trkpt lat="45.30415" lon="6.05014">
        <ele>1943.2</ele>
        <time>2021-01-16T11:55:41Z</time>
      </trkpt>
      <trkpt lat="45.30415" lon="6.05014">
        <ele>1943.2</ele>
        <time>2021-01-16T11:55:42Z</time>
      </trkpt>
      <trkpt lat="45.30415" lon="6.05014">
        <ele>1943.2</ele>
        <time>2021-01-16T11:55:43Z</time>
      </trkpt>
      <trkpt lat="45.30415" lon="6.05014">
        <ele>1943.4</ele>
        <time>2021-01-16T11:55:44Z</time>
      </trkpt>
      <trkpt lat="45.30415" lon="6.05014">
        <ele>1943.4</ele>
        <time>2021-01-16T11:55:45Z</time>
      </trkpt>
      <trkpt lat="45.30415" lon="6.05014">
        <ele>1943.4</ele>
        <time>2021-01-16T11:55:46Z</time>
      </trkpt>
      <trkpt lat="45.30415" lon="6.05014">
        <ele>1943.4</ele>
        <time>2021-01-16T11:55:47Z</time>
      </trkpt>
      <trkpt lat="45.30415" lon="6.05014">
        <ele>1943.4</ele>
        <time>2021-01-16T11:55:48Z</time>
      </trkpt>
      <trkpt lat="45.30415" lon="6.05014">
        <ele>1943.2</ele>
        <time>2021-01-16T11:55:49Z</time>
      </trkpt>
      <trkpt lat="45.30415" lon="6.05014">
        <ele>1943.2</ele>
        <time>2021-01-16T11:55:50Z</time>
      </trkpt>
      <trkpt lat="45.30415" lon="6.05014">
        <ele>1943.2</ele>
        <time>2021-01-16T11:55:51Z</time>
      </trkpt>
      <trkpt lat="45.30415" lon="6.05014">
        <ele>1943.2</ele>
        <time>2021-01-16T11:55:52Z</time>
      </trkpt>
      <trkpt lat="45.30415" lon="6.05014">
        <ele>1943.2</ele>
        <time>2021-01-16T11:55:53Z</time>
      </trkpt>
      <trkpt lat="45.30415" lon="6.05014">
        <ele>1943.2</ele>
        <time>2021-01-16T11:55:54Z</time>
      </trkpt>
      <trkpt lat="45.30415" lon="6.05014">
        <ele>1943.2</ele>
        <time>2021-01-16T11:55:55Z</time>
      </trkpt>
      <trkpt lat="45.30415" lon="6.05014">
        <ele>1943.4</ele>
        <time>2021-01-16T11:55:56Z</time>
      </trkpt>
      <trkpt lat="45.30415" lon="6.05014">
        <ele>1943.4</ele>
        <time>2021-01-16T11:55:57Z</time>
      </trkpt>
      <trkpt lat="45.30415" lon="6.05014">
        <ele>1943.2</ele>
        <time>2021-01-16T11:55:58Z</time>
      </trkpt>
      <trkpt lat="45.30415" lon="6.05014">
        <ele>1943.2</ele>
        <time>2021-01-16T11:55:59Z</time>
      </trkpt>
      <trkpt lat="45.30415" lon="6.05014">
        <ele>1943.2</ele>
        <time>2021-01-16T11:56:00Z</time>
      </trkpt>
      <trkpt lat="45.30415" lon="6.05014">
        <ele>1943.2</ele>
        <time>2021-01-16T11:56:01Z</time>
      </trkpt>
      <trkpt lat="45.30415" lon="6.05014">
        <ele>1943.2</ele>
        <time>2021-01-16T11:56:02Z</time>
      </trkpt>
      <trkpt lat="45.30415" lon="6.05014">
        <ele>1943.2</ele>
        <time>2021-01-16T11:56:03Z</time>
      </trkpt>
      <trkpt lat="45.30415" lon="6.05014">
        <ele>1943.2</ele>
        <time>2021-01-16T11:56:04Z</time>
      </trkpt>
      <trkpt lat="45.30415" lon="6.05014">
        <ele>1943.4</ele>
        <time>2021-01-16T11:56:05Z</time>
      </trkpt>
      <trkpt lat="45.30415" lon="6.05014">
        <ele>1943.2</ele>
        <time>2021-01-16T11:56:06Z</time>
      </trkpt>
      <trkpt lat="45.30415" lon="6.05014">
        <ele>1943.2</ele>
        <time>2021-01-16T11:56:07Z</time>
      </trkpt>
      <trkpt lat="45.30415" lon="6.05014">
        <ele>1943.4</ele>
        <time>2021-01-16T11:56:08Z</time>
      </trkpt>
      <trkpt lat="45.30415" lon="6.05014">
        <ele>1943.4</ele>
        <time>2021-01-16T11:56:09Z</time>
      </trkpt>
      <trkpt lat="45.30415" lon="6.05014">
        <ele>1943.2</ele>
        <time>2021-01-16T11:56:10Z</time>
      </trkpt>
      <trkpt lat="45.30415" lon="6.05014">
        <ele>1943.2</ele>
        <time>2021-01-16T11:56:11Z</time>
      </trkpt>
      <trkpt lat="45.30415" lon="6.05014">
        <ele>1943.2</ele>
        <time>2021-01-16T11:56:12Z</time>
      </trkpt>
      <trkpt lat="45.30415" lon="6.05014">
        <ele>1943.2</ele>
        <time>2021-01-16T11:56:13Z</time>
      </trkpt>
      <trkpt lat="45.30415" lon="6.05014">
        <ele>1943.4</ele>
        <time>2021-01-16T11:56:14Z</time>
      </trkpt>
      <trkpt lat="45.30415" lon="6.05014">
        <ele>1943.4</ele>
        <time>2021-01-16T11:56:15Z</time>
      </trkpt>
      <trkpt lat="45.30415" lon="6.05014">
        <ele>1943.4</ele>
        <time>2021-01-16T11:56:16Z</time>
      </trkpt>
      <trkpt lat="45.30415" lon="6.05014">
        <ele>1943.2</ele>
        <time>2021-01-16T11:56:17Z</time>
      </trkpt>
      <trkpt lat="45.30415" lon="6.05014">
        <ele>1943.2</ele>
        <time>2021-01-16T11:56:18Z</time>
      </trkpt>
      <trkpt lat="45.30415" lon="6.05014">
        <ele>1943.2</ele>
        <time>2021-01-16T11:56:19Z</time>
      </trkpt>
      <trkpt lat="45.30415" lon="6.05014">
        <ele>1943.2</ele>
        <time>2021-01-16T11:56:20Z</time>
      </trkpt>
      <trkpt lat="45.30417" lon="6.05012">
        <ele>1943.2</ele>
        <time>2021-01-16T11:56:21Z</time>
      </trkpt>
      <trkpt lat="45.30418" lon="6.05011">
        <ele>1943.2</ele>
        <time>2021-01-16T11:56:22Z</time>
      </trkpt>
      <trkpt lat="45.30419" lon="6.05011">
        <ele>1943.2</ele>
        <time>2021-01-16T11:56:23Z</time>
      </trkpt>
      <trkpt lat="45.30419" lon="6.05011">
        <ele>1943.2</ele>
        <time>2021-01-16T11:56:24Z</time>
      </trkpt>
      <trkpt lat="45.30419" lon="6.05011">
        <ele>1943.2</ele>
        <time>2021-01-16T11:56:25Z</time>
      </trkpt>
      <trkpt lat="45.30419" lon="6.05011">
        <ele>1943.2</ele>
        <time>2021-01-16T11:56:26Z</time>
      </trkpt>
      <trkpt lat="45.30419" lon="6.05011">
        <ele>1943.2</ele>
        <time>2021-01-16T11:56:27Z</time>
      </trkpt>
      <trkpt lat="45.30419" lon="6.05011">
        <ele>1943.2</ele>
        <time>2021-01-16T11:56:28Z</time>
      </trkpt>
      <trkpt lat="45.30419" lon="6.05011">
        <ele>1943</ele>
        <time>2021-01-16T11:56:29Z</time>
      </trkpt>
      <trkpt lat="45.30419" lon="6.05011">
        <ele>1943.2</ele>
        <time>2021-01-16T11:56:30Z</time>
      </trkpt>
      <trkpt lat="45.3042" lon="6.05011">
        <ele>1943</ele>
        <time>2021-01-16T11:56:31Z</time>
      </trkpt>
      <trkpt lat="45.3042" lon="6.0501">
        <ele>1943</ele>
        <time>2021-01-16T11:56:32Z</time>
      </trkpt>
      <trkpt lat="45.30421" lon="6.0501">
        <ele>1943</ele>
        <time>2021-01-16T11:56:33Z</time>
      </trkpt>
      <trkpt lat="45.30422" lon="6.0501">
        <ele>1943</ele>
        <time>2021-01-16T11:56:34Z</time>
      </trkpt>
      <trkpt lat="45.30423" lon="6.0501">
        <ele>1942.8</ele>
        <time>2021-01-16T11:56:35Z</time>
      </trkpt>
      <trkpt lat="45.30424" lon="6.05009">
        <ele>1942.8</ele>
        <time>2021-01-16T11:56:36Z</time>
      </trkpt>
      <trkpt lat="45.30426" lon="6.05009">
        <ele>1942.6</ele>
        <time>2021-01-16T11:56:37Z</time>
      </trkpt>
      <trkpt lat="45.30428" lon="6.05008">
        <ele>1942.4</ele>
        <time>2021-01-16T11:56:38Z</time>
      </trkpt>
      <trkpt lat="45.3043" lon="6.05007">
        <ele>1942.2</ele>
        <time>2021-01-16T11:56:39Z</time>
      </trkpt>
      <trkpt lat="45.30433" lon="6.05007">
        <ele>1942</ele>
        <time>2021-01-16T11:56:40Z</time>
      </trkpt>
      <trkpt lat="45.30434" lon="6.05007">
        <ele>1941.8</ele>
        <time>2021-01-16T11:56:41Z</time>
      </trkpt>
      <trkpt lat="45.30436" lon="6.05007">
        <ele>1941.4</ele>
        <time>2021-01-16T11:56:42Z</time>
      </trkpt>
      <trkpt lat="45.30438" lon="6.05006">
        <ele>1941</ele>
        <time>2021-01-16T11:56:43Z</time>
      </trkpt>
      <trkpt lat="45.3044" lon="6.05005">
        <ele>1940.6</ele>
        <time>2021-01-16T11:56:44Z</time>
      </trkpt>
      <trkpt lat="45.30443" lon="6.05004">
        <ele>1940.2</ele>
        <time>2021-01-16T11:56:45Z</time>
      </trkpt>
      <trkpt lat="45.30445" lon="6.05003">
        <ele>1939.8</ele>
        <time>2021-01-16T11:56:46Z</time>
      </trkpt>
      <trkpt lat="45.30449" lon="6.05002">
        <ele>1939.2</ele>
        <time>2021-01-16T11:56:47Z</time>
      </trkpt>
      <trkpt lat="45.30453" lon="6.05002">
        <ele>1938.6</ele>
        <time>2021-01-16T11:56:48Z</time>
      </trkpt>
      <trkpt lat="45.30458" lon="6.05001">
        <ele>1938</ele>
        <time>2021-01-16T11:56:49Z</time>
      </trkpt>
      <trkpt lat="45.30462" lon="6.05001">
        <ele>1937.4</ele>
        <time>2021-01-16T11:56:50Z</time>
      </trkpt>
      <trkpt lat="45.30467" lon="6.05001">
        <ele>1936.6</ele>
        <time>2021-01-16T11:56:51Z</time>
      </trkpt>
      <trkpt lat="45.30471" lon="6.05001">
        <ele>1935.6</ele>
        <time>2021-01-16T11:56:52Z</time>
      </trkpt>
      <trkpt lat="45.30475" lon="6.05001">
        <ele>1935</ele>
        <time>2021-01-16T11:56:53Z</time>
      </trkpt>
      <trkpt lat="45.3048" lon="6.05001">
        <ele>1934</ele>
        <time>2021-01-16T11:56:54Z</time>
      </trkpt>
      <trkpt lat="45.30484" lon="6.05001">
        <ele>1933.2</ele>
        <time>2021-01-16T11:56:55Z</time>
      </trkpt>
      <trkpt lat="45.30489" lon="6.05001">
        <ele>1932.4</ele>
        <time>2021-01-16T11:56:56Z</time>
      </trkpt>
      <trkpt lat="45.30493" lon="6.05001">
        <ele>1931.4</ele>
        <time>2021-01-16T11:56:57Z</time>
      </trkpt>
      <trkpt lat="45.30498" lon="6.05001">
        <ele>1930.4</ele>
        <time>2021-01-16T11:56:58Z</time>
      </trkpt>
      <trkpt lat="45.30503" lon="6.05001">
        <ele>1929.4</ele>
        <time>2021-01-16T11:56:59Z</time>
      </trkpt>
      <trkpt lat="45.30509" lon="6.05001">
        <ele>1928.4</ele>
        <time>2021-01-16T11:57:00Z</time>
      </trkpt>
      <trkpt lat="45.30514" lon="6.05001">
        <ele>1927.4</ele>
        <time>2021-01-16T11:57:01Z</time>
      </trkpt>
      <trkpt lat="45.30518" lon="6.05001">
        <ele>1926.4</ele>
        <time>2021-01-16T11:57:02Z</time>
      </trkpt>
      <trkpt lat="45.30522" lon="6.05001">
        <ele>1925.6</ele>
        <time>2021-01-16T11:57:03Z</time>
      </trkpt>
      <trkpt lat="45.30525" lon="6.05001">
        <ele>1924.8</ele>
        <time>2021-01-16T11:57:04Z</time>
      </trkpt>
      <trkpt lat="45.3053" lon="6.05">
        <ele>1924</ele>
        <time>2021-01-16T11:57:05Z</time>
      </trkpt>
      <trkpt lat="45.30535" lon="6.05">
        <ele>1923.2</ele>
        <time>2021-01-16T11:57:06Z</time>
      </trkpt>
      <trkpt lat="45.3054" lon="6.05">
        <ele>1922.4</ele>
        <time>2021-01-16T11:57:07Z</time>
      </trkpt>
      <trkpt lat="45.30545" lon="6.05">
        <ele>1921.4</ele>
        <time>2021-01-16T11:57:08Z</time>
      </trkpt>
      <trkpt lat="45.30549" lon="6.04999">
        <ele>1920.4</ele>
        <time>2021-01-16T11:57:09Z</time>
      </trkpt>
      <trkpt lat="45.30555" lon="6.04999">
        <ele>1919.2</ele>
        <time>2021-01-16T11:57:10Z</time>
      </trkpt>
      <trkpt lat="45.3056" lon="6.04998">
        <ele>1918</ele>
        <time>2021-01-16T11:57:11Z</time>
      </trkpt>
      <trkpt lat="45.30566" lon="6.04998">
        <ele>1917</ele>
        <time>2021-01-16T11:57:12Z</time>
      </trkpt>
      <trkpt lat="45.30571" lon="6.04996">
        <ele>1915.8</ele>
        <time>2021-01-16T11:57:13Z</time>
      </trkpt>
      <trkpt lat="45.30574" lon="6.04991">
        <ele>1914</ele>
        <time>2021-01-16T11:57:14Z</time>
      </trkpt>
      <trkpt lat="45.30577" lon="6.04985">
        <ele>1912.2</ele>
        <time>2021-01-16T11:57:15Z</time>
      </trkpt>
      <trkpt lat="45.30582" lon="6.04982">
        <ele>1910.6</ele>
        <time>2021-01-16T11:57:16Z</time>
      </trkpt>
      <trkpt lat="45.30586" lon="6.04978">
        <ele>1908.4</ele>
        <time>2021-01-16T11:57:17Z</time>
      </trkpt>
      <trkpt lat="45.3059" lon="6.04974">
        <ele>1906.2</ele>
        <time>2021-01-16T11:57:18Z</time>
      </trkpt>
      <trkpt lat="45.30595" lon="6.04973">
        <ele>1904.2</ele>
        <time>2021-01-16T11:57:19Z</time>
      </trkpt>
      <trkpt lat="45.30601" lon="6.04973">
        <ele>1902.2</ele>
        <time>2021-01-16T11:57:20Z</time>
      </trkpt>
      <trkpt lat="45.30606" lon="6.04974">
        <ele>1900.4</ele>
        <time>2021-01-16T11:57:21Z</time>
      </trkpt>
      <trkpt lat="45.3061" lon="6.04973">
        <ele>1898.6</ele>
        <time>2021-01-16T11:57:22Z</time>
      </trkpt>
      <trkpt lat="45.30611" lon="6.04968">
        <ele>1896.4</ele>
        <time>2021-01-16T11:57:23Z</time>
      </trkpt>
      <trkpt lat="45.30612" lon="6.04961">
        <ele>1894.4</ele>
        <time>2021-01-16T11:57:24Z</time>
      </trkpt>
      <trkpt lat="45.30614" lon="6.04957">
        <ele>1892.6</ele>
        <time>2021-01-16T11:57:25Z</time>
      </trkpt>
      <trkpt lat="45.30618" lon="6.04955">
        <ele>1890.8</ele>
        <time>2021-01-16T11:57:26Z</time>
      </trkpt>
      <trkpt lat="45.3062" lon="6.04953">
        <ele>1889</ele>
        <time>2021-01-16T11:57:27Z</time>
      </trkpt>
      <trkpt lat="45.30622" lon="6.04948">
        <ele>1887.2</ele>
        <time>2021-01-16T11:57:28Z</time>
      </trkpt>
      <trkpt lat="45.30623" lon="6.04944">
        <ele>1885.2</ele>
        <time>2021-01-16T11:57:29Z</time>
      </trkpt>
      <trkpt lat="45.30624" lon="6.04941">
        <ele>1883.4</ele>
        <time>2021-01-16T11:57:30Z</time>
      </trkpt>
      <trkpt lat="45.30624" lon="6.04936">
        <ele>1881.2</ele>
        <time>2021-01-16T11:57:31Z</time>
      </trkpt>
      <trkpt lat="45.30624" lon="6.0493">
        <ele>1879.2</ele>
        <time>2021-01-16T11:57:32Z</time>
      </trkpt>
      <trkpt lat="45.30625" lon="6.04925">
        <ele>1877.2</ele>
        <time>2021-01-16T11:57:33Z</time>
      </trkpt>
      <trkpt lat="45.30628" lon="6.04924">
        <ele>1875.2</ele>
        <time>2021-01-16T11:57:34Z</time>
      </trkpt>
      <trkpt lat="45.30633" lon="6.04926">
        <ele>1873.2</ele>
        <time>2021-01-16T11:57:35Z</time>
      </trkpt>
      <trkpt lat="45.30639" lon="6.04927">
        <ele>1871.4</ele>
        <time>2021-01-16T11:57:36Z</time>
      </trkpt>
      <trkpt lat="45.30644" lon="6.04928">
        <ele>1869.6</ele>
        <time>2021-01-16T11:57:37Z</time>
      </trkpt>
      <trkpt lat="45.30647" lon="6.04928">
        <ele>1867.8</ele>
        <time>2021-01-16T11:57:38Z</time>
      </trkpt>
      <trkpt lat="45.30649" lon="6.04923">
        <ele>1865.8</ele>
        <time>2021-01-16T11:57:39Z</time>
      </trkpt>
      <trkpt lat="45.30647" lon="6.04914">
        <ele>1863.8</ele>
        <time>2021-01-16T11:57:40Z</time>
      </trkpt>
      <trkpt lat="45.30645" lon="6.04907">
        <ele>1861.8</ele>
        <time>2021-01-16T11:57:41Z</time>
      </trkpt>
      <trkpt lat="45.30642" lon="6.04899">
        <ele>1860.2</ele>
        <time>2021-01-16T11:57:42Z</time>
      </trkpt>
      <trkpt lat="45.30639" lon="6.04892">
        <ele>1858.4</ele>
        <time>2021-01-16T11:57:43Z</time>
      </trkpt>
      <trkpt lat="45.30638" lon="6.04886">
        <ele>1856.8</ele>
        <time>2021-01-16T11:57:44Z</time>
      </trkpt>
      <trkpt lat="45.30639" lon="6.04883">
        <ele>1854.8</ele>
        <time>2021-01-16T11:57:45Z</time>
      </trkpt>
      <trkpt lat="45.3064" lon="6.0488">
        <ele>1853</ele>
        <time>2021-01-16T11:57:46Z</time>
      </trkpt>
      <trkpt lat="45.30641" lon="6.04874">
        <ele>1851.2</ele>
        <time>2021-01-16T11:57:47Z</time>
      </trkpt>
      <trkpt lat="45.30642" lon="6.0487">
        <ele>1849</ele>
        <time>2021-01-16T11:57:48Z</time>
      </trkpt>
      <trkpt lat="45.30647" lon="6.04869">
        <ele>1846.8</ele>
        <time>2021-01-16T11:57:49Z</time>
      </trkpt>
      <trkpt lat="45.30653" lon="6.04871">
        <ele>1844.8</ele>
        <time>2021-01-16T11:57:50Z</time>
      </trkpt>
      <trkpt lat="45.30657" lon="6.0487">
        <ele>1842.8</ele>
        <time>2021-01-16T11:57:51Z</time>
      </trkpt>
      <trkpt lat="45.30661" lon="6.04863">
        <ele>1840.4</ele>
        <time>2021-01-16T11:57:52Z</time>
      </trkpt>
      <trkpt lat="45.30663" lon="6.04856">
        <ele>1837.8</ele>
        <time>2021-01-16T11:57:53Z</time>
      </trkpt>
      <trkpt lat="45.30667" lon="6.04849">
        <ele>1835.4</ele>
        <time>2021-01-16T11:57:54Z</time>
      </trkpt>
      <trkpt lat="45.30672" lon="6.04844">
        <ele>1833</ele>
        <time>2021-01-16T11:57:55Z</time>
      </trkpt>
      <trkpt lat="45.30679" lon="6.04842">
        <ele>1830.8</ele>
        <time>2021-01-16T11:57:56Z</time>
      </trkpt>
      <trkpt lat="45.30685" lon="6.04844">
        <ele>1829</ele>
        <time>2021-01-16T11:57:57Z</time>
      </trkpt>
      <trkpt lat="45.30689" lon="6.04847">
        <ele>1827.2</ele>
        <time>2021-01-16T11:57:58Z</time>
      </trkpt>
      <trkpt lat="45.30694" lon="6.04849">
        <ele>1825.8</ele>
        <time>2021-01-16T11:57:59Z</time>
      </trkpt>
      <trkpt lat="45.30697" lon="6.04849">
        <ele>1824.8</ele>
        <time>2021-01-16T11:58:00Z</time>
      </trkpt>
      <trkpt lat="45.30701" lon="6.0485">
        <ele>1824</ele>
        <time>2021-01-16T11:58:01Z</time>
      </trkpt>
      <trkpt lat="45.30703" lon="6.0485">
        <ele>1823.2</ele>
        <time>2021-01-16T11:58:02Z</time>
      </trkpt>
      <trkpt lat="45.30705" lon="6.0485">
        <ele>1822.4</ele>
        <time>2021-01-16T11:58:03Z</time>
      </trkpt>
      <trkpt lat="45.30706" lon="6.0485">
        <ele>1822</ele>
        <time>2021-01-16T11:58:04Z</time>
      </trkpt>
      <trkpt lat="45.30706" lon="6.0485">
        <ele>1821.6</ele>
        <time>2021-01-16T11:58:05Z</time>
      </trkpt>
      <trkpt lat="45.30706" lon="6.0485">
        <ele>1821.4</ele>
        <time>2021-01-16T11:58:06Z</time>
      </trkpt>
      <trkpt lat="45.30706" lon="6.0485">
        <ele>1821.2</ele>
        <time>2021-01-16T11:58:07Z</time>
      </trkpt>
      <trkpt lat="45.30706" lon="6.0485">
        <ele>1821</ele>
        <time>2021-01-16T11:58:08Z</time>
      </trkpt>
      <trkpt lat="45.30706" lon="6.04851">
        <ele>1820.8</ele>
        <time>2021-01-16T11:58:09Z</time>
      </trkpt>
      <trkpt lat="45.30706" lon="6.04851">
        <ele>1820.6</ele>
        <time>2021-01-16T11:58:10Z</time>
      </trkpt>
      <trkpt lat="45.30706" lon="6.04851">
        <ele>1820.6</ele>
        <time>2021-01-16T11:58:11Z</time>
      </trkpt>
      <trkpt lat="45.30706" lon="6.04851">
        <ele>1820.6</ele>
        <time>2021-01-16T11:58:12Z</time>
      </trkpt>
      <trkpt lat="45.30706" lon="6.04851">
        <ele>1820.4</ele>
        <time>2021-01-16T11:58:13Z</time>
      </trkpt>
      <trkpt lat="45.30706" lon="6.04851">
        <ele>1820.4</ele>
        <time>2021-01-16T11:58:14Z</time>
      </trkpt>
      <trkpt lat="45.30706" lon="6.04851">
        <ele>1820.4</ele>
        <time>2021-01-16T11:58:15Z</time>
      </trkpt>
      <trkpt lat="45.30706" lon="6.04851">
        <ele>1820.4</ele>
        <time>2021-01-16T11:58:16Z</time>
      </trkpt>
      <trkpt lat="45.30706" lon="6.04851">
        <ele>1820.4</ele>
        <time>2021-01-16T11:58:17Z</time>
      </trkpt>
      <trkpt lat="45.30706" lon="6.04851">
        <ele>1820.4</ele>
        <time>2021-01-16T11:58:18Z</time>
      </trkpt>
      <trkpt lat="45.30706" lon="6.04851">
        <ele>1820.4</ele>
        <time>2021-01-16T11:58:19Z</time>
      </trkpt>
      <trkpt lat="45.30706" lon="6.04851">
        <ele>1820.4</ele>
        <time>2021-01-16T11:58:20Z</time>
      </trkpt>
      <trkpt lat="45.30706" lon="6.04851">
        <ele>1820.4</ele>
        <time>2021-01-16T11:58:21Z</time>
      </trkpt>
      <trkpt lat="45.30706" lon="6.04851">
        <ele>1820.2</ele>
        <time>2021-01-16T11:58:22Z</time>
      </trkpt>
      <trkpt lat="45.30706" lon="6.04851">
        <ele>1820.4</ele>
        <time>2021-01-16T11:58:23Z</time>
      </trkpt>
      <trkpt lat="45.30706" lon="6.04851">
        <ele>1820.4</ele>
        <time>2021-01-16T11:58:24Z</time>
      </trkpt>
      <trkpt lat="45.30706" lon="6.04851">
        <ele>1820.4</ele>
        <time>2021-01-16T11:58:25Z</time>
      </trkpt>
      <trkpt lat="45.30706" lon="6.04851">
        <ele>1820.6</ele>
        <time>2021-01-16T11:58:26Z</time>
      </trkpt>
      <trkpt lat="45.30706" lon="6.04851">
        <ele>1820.6</ele>
        <time>2021-01-16T11:58:27Z</time>
      </trkpt>
      <trkpt lat="45.30706" lon="6.04851">
        <ele>1820.6</ele>
        <time>2021-01-16T11:58:28Z</time>
      </trkpt>
      <trkpt lat="45.30706" lon="6.04851">
        <ele>1820.6</ele>
        <time>2021-01-16T11:58:29Z</time>
      </trkpt>
      <trkpt lat="45.30706" lon="6.04851">
        <ele>1820.6</ele>
        <time>2021-01-16T11:58:30Z</time>
      </trkpt>
      <trkpt lat="45.30706" lon="6.04851">
        <ele>1820.6</ele>
        <time>2021-01-16T11:58:31Z</time>
      </trkpt>
      <trkpt lat="45.30706" lon="6.04851">
        <ele>1820.6</ele>
        <time>2021-01-16T11:58:32Z</time>
      </trkpt>
      <trkpt lat="45.30706" lon="6.04851">
        <ele>1820.6</ele>
        <time>2021-01-16T11:58:33Z</time>
      </trkpt>
      <trkpt lat="45.30706" lon="6.04851">
        <ele>1820.6</ele>
        <time>2021-01-16T11:58:34Z</time>
      </trkpt>
      <trkpt lat="45.30706" lon="6.04851">
        <ele>1820.6</ele>
        <time>2021-01-16T11:58:35Z</time>
      </trkpt>
      <trkpt lat="45.30706" lon="6.04851">
        <ele>1820.8</ele>
        <time>2021-01-16T11:58:36Z</time>
      </trkpt>
      <trkpt lat="45.30706" lon="6.04851">
        <ele>1820.8</ele>
        <time>2021-01-16T11:58:37Z</time>
      </trkpt>
      <trkpt lat="45.30706" lon="6.04851">
        <ele>1820.8</ele>
        <time>2021-01-16T11:58:38Z</time>
      </trkpt>
      <trkpt lat="45.30706" lon="6.04851">
        <ele>1820.8</ele>
        <time>2021-01-16T11:58:39Z</time>
      </trkpt>
      <trkpt lat="45.30706" lon="6.04851">
        <ele>1820.8</ele>
        <time>2021-01-16T11:58:40Z</time>
      </trkpt>
      <trkpt lat="45.30706" lon="6.04851">
        <ele>1820.8</ele>
        <time>2021-01-16T11:58:41Z</time>
      </trkpt>
      <trkpt lat="45.30706" lon="6.04851">
        <ele>1820.8</ele>
        <time>2021-01-16T11:58:42Z</time>
      </trkpt>
      <trkpt lat="45.30706" lon="6.04852">
        <ele>1820.8</ele>
        <time>2021-01-16T11:58:43Z</time>
      </trkpt>
      <trkpt lat="45.30706" lon="6.04852">
        <ele>1821</ele>
        <time>2021-01-16T11:58:44Z</time>
      </trkpt>
      <trkpt lat="45.30706" lon="6.04852">
        <ele>1820.8</ele>
        <time>2021-01-16T11:58:45Z</time>
      </trkpt>
      <trkpt lat="45.30706" lon="6.04852">
        <ele>1820.8</ele>
        <time>2021-01-16T11:58:46Z</time>
      </trkpt>
      <trkpt lat="45.30706" lon="6.04852">
        <ele>1820.8</ele>
        <time>2021-01-16T11:58:47Z</time>
      </trkpt>
      <trkpt lat="45.30706" lon="6.04852">
        <ele>1820.8</ele>
        <time>2021-01-16T11:58:48Z</time>
      </trkpt>
      <trkpt lat="45.30706" lon="6.04852">
        <ele>1820.8</ele>
        <time>2021-01-16T11:58:49Z</time>
      </trkpt>
      <trkpt lat="45.30706" lon="6.04852">
        <ele>1820.8</ele>
        <time>2021-01-16T11:58:50Z</time>
      </trkpt>
      <trkpt lat="45.30706" lon="6.04852">
        <ele>1820.8</ele>
        <time>2021-01-16T11:58:51Z</time>
      </trkpt>
      <trkpt lat="45.30706" lon="6.04852">
        <ele>1820.8</ele>
        <time>2021-01-16T11:58:52Z</time>
      </trkpt>
      <trkpt lat="45.30706" lon="6.04852">
        <ele>1820.8</ele>
        <time>2021-01-16T11:58:53Z</time>
      </trkpt>
      <trkpt lat="45.30706" lon="6.04852">
        <ele>1821</ele>
        <time>2021-01-16T11:58:54Z</time>
      </trkpt>
      <trkpt lat="45.30706" lon="6.04852">
        <ele>1821</ele>
        <time>2021-01-16T11:58:55Z</time>
      </trkpt>
      <trkpt lat="45.30706" lon="6.04852">
        <ele>1821</ele>
        <time>2021-01-16T11:58:56Z</time>
      </trkpt>
      <trkpt lat="45.30706" lon="6.04852">
        <ele>1821.2</ele>
        <time>2021-01-16T11:58:57Z</time>
      </trkpt>
      <trkpt lat="45.30706" lon="6.04852">
        <ele>1821.2</ele>
        <time>2021-01-16T11:58:58Z</time>
      </trkpt>
      <trkpt lat="45.30706" lon="6.04852">
        <ele>1821.2</ele>
        <time>2021-01-16T11:58:59Z</time>
      </trkpt>
      <trkpt lat="45.30706" lon="6.04852">
        <ele>1821.2</ele>
        <time>2021-01-16T11:59:00Z</time>
      </trkpt>
      <trkpt lat="45.30706" lon="6.04852">
        <ele>1821.2</ele>
        <time>2021-01-16T11:59:01Z</time>
      </trkpt>
      <trkpt lat="45.30706" lon="6.04852">
        <ele>1821.2</ele>
        <time>2021-01-16T11:59:02Z</time>
      </trkpt>
      <trkpt lat="45.30706" lon="6.04852">
        <ele>1821.2</ele>
        <time>2021-01-16T11:59:03Z</time>
      </trkpt>
      <trkpt lat="45.30706" lon="6.04852">
        <ele>1821.2</ele>
        <time>2021-01-16T11:59:04Z</time>
      </trkpt>
      <trkpt lat="45.30706" lon="6.04852">
        <ele>1821.2</ele>
        <time>2021-01-16T11:59:05Z</time>
      </trkpt>
      <trkpt lat="45.30706" lon="6.04852">
        <ele>1821.2</ele>
        <time>2021-01-16T11:59:06Z</time>
      </trkpt>
      <trkpt lat="45.30706" lon="6.04852">
        <ele>1821.2</ele>
        <time>2021-01-16T11:59:07Z</time>
      </trkpt>
      <trkpt lat="45.30706" lon="6.04852">
        <ele>1821.2</ele>
        <time>2021-01-16T11:59:08Z</time>
      </trkpt>
      <trkpt lat="45.30706" lon="6.04852">
        <ele>1821.2</ele>
        <time>2021-01-16T11:59:09Z</time>
      </trkpt>
      <trkpt lat="45.30706" lon="6.04852">
        <ele>1821.2</ele>
        <time>2021-01-16T11:59:10Z</time>
      </trkpt>
      <trkpt lat="45.30706" lon="6.04852">
        <ele>1821.2</ele>
        <time>2021-01-16T11:59:11Z</time>
      </trkpt>
      <trkpt lat="45.30706" lon="6.04852">
        <ele>1821.2</ele>
        <time>2021-01-16T11:59:12Z</time>
      </trkpt>
      <trkpt lat="45.30706" lon="6.04852">
        <ele>1821.2</ele>
        <time>2021-01-16T11:59:13Z</time>
      </trkpt>
      <trkpt lat="45.30706" lon="6.04852">
        <ele>1821.2</ele>
        <time>2021-01-16T11:59:14Z</time>
      </trkpt>
      <trkpt lat="45.30706" lon="6.04852">
        <ele>1821.2</ele>
        <time>2021-01-16T11:59:15Z</time>
      </trkpt>
      <trkpt lat="45.30706" lon="6.04852">
        <ele>1821.2</ele>
        <time>2021-01-16T11:59:16Z</time>
      </trkpt>
      <trkpt lat="45.30706" lon="6.04853">
        <ele>1821.2</ele>
        <time>2021-01-16T11:59:17Z</time>
      </trkpt>
      <trkpt lat="45.30706" lon="6.04853">
        <ele>1821.2</ele>
        <time>2021-01-16T11:59:18Z</time>
      </trkpt>
      <trkpt lat="45.30706" lon="6.04853">
        <ele>1821.2</ele>
        <time>2021-01-16T11:59:19Z</time>
      </trkpt>
      <trkpt lat="45.30706" lon="6.04853">
        <ele>1821.2</ele>
        <time>2021-01-16T11:59:20Z</time>
      </trkpt>
      <trkpt lat="45.30706" lon="6.04853">
        <ele>1821.2</ele>
        <time>2021-01-16T11:59:21Z</time>
      </trkpt>
      <trkpt lat="45.30706" lon="6.04853">
        <ele>1821.2</ele>
        <time>2021-01-16T11:59:22Z</time>
      </trkpt>
      <trkpt lat="45.30706" lon="6.04853">
        <ele>1821.2</ele>
        <time>2021-01-16T11:59:23Z</time>
      </trkpt>
      <trkpt lat="45.30706" lon="6.04853">
        <ele>1821.2</ele>
        <time>2021-01-16T11:59:24Z</time>
      </trkpt>
      <trkpt lat="45.30706" lon="6.04853">
        <ele>1821.2</ele>
        <time>2021-01-16T11:59:25Z</time>
      </trkpt>
      <trkpt lat="45.30706" lon="6.04853">
        <ele>1821.2</ele>
        <time>2021-01-16T11:59:26Z</time>
      </trkpt>
      <trkpt lat="45.30706" lon="6.04853">
        <ele>1821.4</ele>
        <time>2021-01-16T11:59:27Z</time>
      </trkpt>
      <trkpt lat="45.30706" lon="6.04853">
        <ele>1821.4</ele>
        <time>2021-01-16T11:59:28Z</time>
      </trkpt>
      <trkpt lat="45.30706" lon="6.04853">
        <ele>1821.4</ele>
        <time>2021-01-16T11:59:29Z</time>
      </trkpt>
      <trkpt lat="45.30706" lon="6.04853">
        <ele>1821.4</ele>
        <time>2021-01-16T11:59:30Z</time>
      </trkpt>
      <trkpt lat="45.30706" lon="6.04853">
        <ele>1821.4</ele>
        <time>2021-01-16T11:59:31Z</time>
      </trkpt>
      <trkpt lat="45.30706" lon="6.04853">
        <ele>1821.4</ele>
        <time>2021-01-16T11:59:32Z</time>
      </trkpt>
      <trkpt lat="45.30706" lon="6.04853">
        <ele>1821.4</ele>
        <time>2021-01-16T11:59:33Z</time>
      </trkpt>
      <trkpt lat="45.30706" lon="6.04853">
        <ele>1821.4</ele>
        <time>2021-01-16T11:59:34Z</time>
      </trkpt>
      <trkpt lat="45.30706" lon="6.04853">
        <ele>1821.4</ele>
        <time>2021-01-16T11:59:35Z</time>
      </trkpt>
      <trkpt lat="45.30706" lon="6.04853">
        <ele>1821.4</ele>
        <time>2021-01-16T11:59:36Z</time>
      </trkpt>
      <trkpt lat="45.30706" lon="6.04853">
        <ele>1821.4</ele>
        <time>2021-01-16T11:59:37Z</time>
      </trkpt>
      <trkpt lat="45.30706" lon="6.04853">
        <ele>1821.4</ele>
        <time>2021-01-16T11:59:38Z</time>
      </trkpt>
      <trkpt lat="45.30706" lon="6.04853">
        <ele>1821.4</ele>
        <time>2021-01-16T11:59:39Z</time>
      </trkpt>
      <trkpt lat="45.30706" lon="6.04853">
        <ele>1821.4</ele>
        <time>2021-01-16T11:59:40Z</time>
      </trkpt>
      <trkpt lat="45.30706" lon="6.04853">
        <ele>1821.4</ele>
        <time>2021-01-16T11:59:41Z</time>
      </trkpt>
      <trkpt lat="45.30706" lon="6.04853">
        <ele>1821.4</ele>
        <time>2021-01-16T11:59:42Z</time>
      </trkpt>
      <trkpt lat="45.30706" lon="6.04853">
        <ele>1821.4</ele>
        <time>2021-01-16T11:59:43Z</time>
      </trkpt>
      <trkpt lat="45.30706" lon="6.04853">
        <ele>1821.4</ele>
        <time>2021-01-16T11:59:44Z</time>
      </trkpt>
      <trkpt lat="45.30706" lon="6.04853">
        <ele>1821.4</ele>
        <time>2021-01-16T11:59:45Z</time>
      </trkpt>
      <trkpt lat="45.30706" lon="6.04853">
        <ele>1821.4</ele>
        <time>2021-01-16T11:59:46Z</time>
      </trkpt>
      <trkpt lat="45.30706" lon="6.04853">
        <ele>1821.4</ele>
        <time>2021-01-16T11:59:47Z</time>
      </trkpt>
      <trkpt lat="45.30706" lon="6.04853">
        <ele>1821.4</ele>
        <time>2021-01-16T11:59:48Z</time>
      </trkpt>
      <trkpt lat="45.30706" lon="6.04853">
        <ele>1821.4</ele>
        <time>2021-01-16T11:59:49Z</time>
      </trkpt>
      <trkpt lat="45.30706" lon="6.04853">
        <ele>1821.4</ele>
        <time>2021-01-16T11:59:50Z</time>
      </trkpt>
      <trkpt lat="45.30706" lon="6.04854">
        <ele>1821.4</ele>
        <time>2021-01-16T11:59:51Z</time>
      </trkpt>
      <trkpt lat="45.30706" lon="6.04854">
        <ele>1821.4</ele>
        <time>2021-01-16T11:59:52Z</time>
      </trkpt>
      <trkpt lat="45.30706" lon="6.04854">
        <ele>1821.4</ele>
        <time>2021-01-16T11:59:53Z</time>
      </trkpt>
      <trkpt lat="45.30706" lon="6.04854">
        <ele>1821.4</ele>
        <time>2021-01-16T11:59:54Z</time>
      </trkpt>
      <trkpt lat="45.30706" lon="6.04854">
        <ele>1821.4</ele>
        <time>2021-01-16T11:59:55Z</time>
      </trkpt>
      <trkpt lat="45.30706" lon="6.04854">
        <ele>1821.6</ele>
        <time>2021-01-16T11:59:56Z</time>
      </trkpt>
      <trkpt lat="45.30706" lon="6.04854">
        <ele>1821.6</ele>
        <time>2021-01-16T11:59:57Z</time>
      </trkpt>
      <trkpt lat="45.30706" lon="6.04854">
        <ele>1821.6</ele>
        <time>2021-01-16T11:59:58Z</time>
      </trkpt>
      <trkpt lat="45.30706" lon="6.04854">
        <ele>1821.6</ele>
        <time>2021-01-16T11:59:59Z</time>
      </trkpt>
      <trkpt lat="45.30706" lon="6.04854">
        <ele>1821.6</ele>
        <time>2021-01-16T12:00:00Z</time>
      </trkpt>
      <trkpt lat="45.30706" lon="6.04854">
        <ele>1821.6</ele>
        <time>2021-01-16T12:00:01Z</time>
      </trkpt>
      <trkpt lat="45.30706" lon="6.04854">
        <ele>1821.6</ele>
        <time>2021-01-16T12:00:02Z</time>
      </trkpt>
      <trkpt lat="45.30706" lon="6.04854">
        <ele>1821.6</ele>
        <time>2021-01-16T12:00:03Z</time>
      </trkpt>
      <trkpt lat="45.30706" lon="6.04854">
        <ele>1821.6</ele>
        <time>2021-01-16T12:00:04Z</time>
      </trkpt>
      <trkpt lat="45.30706" lon="6.04854">
        <ele>1821.6</ele>
        <time>2021-01-16T12:00:05Z</time>
      </trkpt>
      <trkpt lat="45.30706" lon="6.04854">
        <ele>1821.6</ele>
        <time>2021-01-16T12:00:06Z</time>
      </trkpt>
      <trkpt lat="45.30706" lon="6.04854">
        <ele>1821.6</ele>
        <time>2021-01-16T12:00:07Z</time>
      </trkpt>
      <trkpt lat="45.30706" lon="6.04854">
        <ele>1821.6</ele>
        <time>2021-01-16T12:00:08Z</time>
      </trkpt>
      <trkpt lat="45.30706" lon="6.04854">
        <ele>1821.6</ele>
        <time>2021-01-16T12:00:09Z</time>
      </trkpt>
      <trkpt lat="45.30706" lon="6.04854">
        <ele>1821.6</ele>
        <time>2021-01-16T12:00:10Z</time>
      </trkpt>
      <trkpt lat="45.30706" lon="6.04854">
        <ele>1821.6</ele>
        <time>2021-01-16T12:00:11Z</time>
      </trkpt>
      <trkpt lat="45.30706" lon="6.04854">
        <ele>1821.6</ele>
        <time>2021-01-16T12:00:12Z</time>
      </trkpt>
      <trkpt lat="45.30706" lon="6.04854">
        <ele>1821.6</ele>
        <time>2021-01-16T12:00:13Z</time>
      </trkpt>
      <trkpt lat="45.30706" lon="6.04854">
        <ele>1821.6</ele>
        <time>2021-01-16T12:00:14Z</time>
      </trkpt>
      <trkpt lat="45.30706" lon="6.04854">
        <ele>1821.6</ele>
        <time>2021-01-16T12:00:15Z</time>
      </trkpt>
      <trkpt lat="45.30706" lon="6.04854">
        <ele>1821.6</ele>
        <time>2021-01-16T12:00:16Z</time>
      </trkpt>
      <trkpt lat="45.30706" lon="6.04854">
        <ele>1821.6</ele>
        <time>2021-01-16T12:00:17Z</time>
      </trkpt>
      <trkpt lat="45.30706" lon="6.04854">
        <ele>1821.6</ele>
        <time>2021-01-16T12:00:18Z</time>
      </trkpt>
      <trkpt lat="45.30706" lon="6.04854">
        <ele>1821.6</ele>
        <time>2021-01-16T12:00:19Z</time>
      </trkpt>
      <trkpt lat="45.30706" lon="6.04854">
        <ele>1821.6</ele>
        <time>2021-01-16T12:00:20Z</time>
      </trkpt>
      <trkpt lat="45.30706" lon="6.04854">
        <ele>1821.6</ele>
        <time>2021-01-16T12:00:21Z</time>
      </trkpt>
      <trkpt lat="45.30706" lon="6.04854">
        <ele>1821.6</ele>
        <time>2021-01-16T12:00:22Z</time>
      </trkpt>
      <trkpt lat="45.30706" lon="6.04854">
        <ele>1821.6</ele>
        <time>2021-01-16T12:00:23Z</time>
      </trkpt>
      <trkpt lat="45.30706" lon="6.04854">
        <ele>1821.6</ele>
        <time>2021-01-16T12:00:24Z</time>
      </trkpt>
      <trkpt lat="45.30706" lon="6.04855">
        <ele>1821.6</ele>
        <time>2021-01-16T12:00:25Z</time>
      </trkpt>
      <trkpt lat="45.30706" lon="6.04855">
        <ele>1821.6</ele>
        <time>2021-01-16T12:00:26Z</time>
      </trkpt>
      <trkpt lat="45.30706" lon="6.04855">
        <ele>1821.8</ele>
        <time>2021-01-16T12:00:27Z</time>
      </trkpt>
      <trkpt lat="45.30706" lon="6.04855">
        <ele>1821.8</ele>
        <time>2021-01-16T12:00:28Z</time>
      </trkpt>
      <trkpt lat="45.30706" lon="6.04855">
        <ele>1821.8</ele>
        <time>2021-01-16T12:00:29Z</time>
      </trkpt>
      <trkpt lat="45.30706" lon="6.04855">
        <ele>1821.8</ele>
        <time>2021-01-16T12:00:30Z</time>
      </trkpt>
      <trkpt lat="45.30706" lon="6.04855">
        <ele>1821.8</ele>
        <time>2021-01-16T12:00:31Z</time>
      </trkpt>
      <trkpt lat="45.30706" lon="6.04855">
        <ele>1821.8</ele>
        <time>2021-01-16T12:00:32Z</time>
      </trkpt>
      <trkpt lat="45.30706" lon="6.04855">
        <ele>1821.8</ele>
        <time>2021-01-16T12:00:33Z</time>
      </trkpt>
      <trkpt lat="45.30706" lon="6.04855">
        <ele>1821.8</ele>
        <time>2021-01-16T12:00:34Z</time>
      </trkpt>
      <trkpt lat="45.30706" lon="6.04855">
        <ele>1821.8</ele>
        <time>2021-01-16T12:00:35Z</time>
      </trkpt>
      <trkpt lat="45.30706" lon="6.04855">
        <ele>1821.8</ele>
        <time>2021-01-16T12:00:36Z</time>
      </trkpt>
      <trkpt lat="45.30706" lon="6.04855">
        <ele>1821.8</ele>
        <time>2021-01-16T12:00:37Z</time>
      </trkpt>
      <trkpt lat="45.30706" lon="6.04855">
        <ele>1821.8</ele>
        <time>2021-01-16T12:00:38Z</time>
      </trkpt>
      <trkpt lat="45.30706" lon="6.04855">
        <ele>1821.8</ele>
        <time>2021-01-16T12:00:39Z</time>
      </trkpt>
      <trkpt lat="45.30706" lon="6.04855">
        <ele>1821.8</ele>
        <time>2021-01-16T12:00:40Z</time>
      </trkpt>
      <trkpt lat="45.30706" lon="6.04855">
        <ele>1821.8</ele>
        <time>2021-01-16T12:00:41Z</time>
      </trkpt>
      <trkpt lat="45.30706" lon="6.04855">
        <ele>1821.8</ele>
        <time>2021-01-16T12:00:42Z</time>
      </trkpt>
      <trkpt lat="45.30706" lon="6.04855">
        <ele>1821.8</ele>
        <time>2021-01-16T12:00:43Z</time>
      </trkpt>
      <trkpt lat="45.30706" lon="6.04855">
        <ele>1821.8</ele>
        <time>2021-01-16T12:00:44Z</time>
      </trkpt>
      <trkpt lat="45.30706" lon="6.04855">
        <ele>1822</ele>
        <time>2021-01-16T12:00:45Z</time>
      </trkpt>
      <trkpt lat="45.30706" lon="6.04855">
        <ele>1822</ele>
        <time>2021-01-16T12:00:46Z</time>
      </trkpt>
      <trkpt lat="45.30706" lon="6.04855">
        <ele>1822</ele>
        <time>2021-01-16T12:00:47Z</time>
      </trkpt>
      <trkpt lat="45.30706" lon="6.04855">
        <ele>1822</ele>
        <time>2021-01-16T12:00:48Z</time>
      </trkpt>
      <trkpt lat="45.30706" lon="6.04855">
        <ele>1822</ele>
        <time>2021-01-16T12:00:49Z</time>
      </trkpt>
      <trkpt lat="45.30706" lon="6.04855">
        <ele>1822</ele>
        <time>2021-01-16T12:00:50Z</time>
      </trkpt>
      <trkpt lat="45.30706" lon="6.04855">
        <ele>1822</ele>
        <time>2021-01-16T12:00:51Z</time>
      </trkpt>
      <trkpt lat="45.30706" lon="6.04855">
        <ele>1822</ele>
        <time>2021-01-16T12:00:52Z</time>
      </trkpt>
      <trkpt lat="45.30706" lon="6.04855">
        <ele>1822</ele>
        <time>2021-01-16T12:00:53Z</time>
      </trkpt>
      <trkpt lat="45.30706" lon="6.04855">
        <ele>1822</ele>
        <time>2021-01-16T12:00:54Z</time>
      </trkpt>
      <trkpt lat="45.30706" lon="6.04855">
        <ele>1822</ele>
        <time>2021-01-16T12:00:55Z</time>
      </trkpt>
      <trkpt lat="45.30706" lon="6.04855">
        <ele>1822</ele>
        <time>2021-01-16T12:00:56Z</time>
      </trkpt>
      <trkpt lat="45.30706" lon="6.04855">
        <ele>1822</ele>
        <time>2021-01-16T12:00:57Z</time>
      </trkpt>
      <trkpt lat="45.30706" lon="6.04855">
        <ele>1822.2</ele>
        <time>2021-01-16T12:00:58Z</time>
      </trkpt>
      <trkpt lat="45.30706" lon="6.04856">
        <ele>1822.2</ele>
        <time>2021-01-16T12:00:59Z</time>
      </trkpt>
      <trkpt lat="45.30706" lon="6.04856">
        <ele>1822.2</ele>
        <time>2021-01-16T12:01:00Z</time>
      </trkpt>
      <trkpt lat="45.30706" lon="6.04856">
        <ele>1822.2</ele>
        <time>2021-01-16T12:01:01Z</time>
      </trkpt>
      <trkpt lat="45.30706" lon="6.04856">
        <ele>1822.2</ele>
        <time>2021-01-16T12:01:02Z</time>
      </trkpt>
      <trkpt lat="45.30706" lon="6.04856">
        <ele>1822.2</ele>
        <time>2021-01-16T12:01:03Z</time>
      </trkpt>
      <trkpt lat="45.30706" lon="6.04856">
        <ele>1822.2</ele>
        <time>2021-01-16T12:01:04Z</time>
      </trkpt>
      <trkpt lat="45.30706" lon="6.04856">
        <ele>1822.2</ele>
        <time>2021-01-16T12:01:05Z</time>
      </trkpt>
      <trkpt lat="45.30706" lon="6.04856">
        <ele>1822.2</ele>
        <time>2021-01-16T12:01:06Z</time>
      </trkpt>
      <trkpt lat="45.30706" lon="6.04856">
        <ele>1822.2</ele>
        <time>2021-01-16T12:01:07Z</time>
      </trkpt>
      <trkpt lat="45.30706" lon="6.04856">
        <ele>1822.4</ele>
        <time>2021-01-16T12:01:08Z</time>
      </trkpt>
      <trkpt lat="45.30706" lon="6.04856">
        <ele>1822.4</ele>
        <time>2021-01-16T12:01:09Z</time>
      </trkpt>
      <trkpt lat="45.30706" lon="6.04856">
        <ele>1822.4</ele>
        <time>2021-01-16T12:01:10Z</time>
      </trkpt>
      <trkpt lat="45.30706" lon="6.04856">
        <ele>1822.4</ele>
        <time>2021-01-16T12:01:11Z</time>
      </trkpt>
      <trkpt lat="45.30706" lon="6.04856">
        <ele>1822.4</ele>
        <time>2021-01-16T12:01:12Z</time>
      </trkpt>
      <trkpt lat="45.30706" lon="6.04856">
        <ele>1822.4</ele>
        <time>2021-01-16T12:01:13Z</time>
      </trkpt>
      <trkpt lat="45.30706" lon="6.04856">
        <ele>1822.4</ele>
        <time>2021-01-16T12:01:14Z</time>
      </trkpt>
      <trkpt lat="45.30706" lon="6.04856">
        <ele>1822.6</ele>
        <time>2021-01-16T12:01:15Z</time>
      </trkpt>
      <trkpt lat="45.30706" lon="6.04856">
        <ele>1822.6</ele>
        <time>2021-01-16T12:01:16Z</time>
      </trkpt>
      <trkpt lat="45.30706" lon="6.04856">
        <ele>1822.6</ele>
        <time>2021-01-16T12:01:17Z</time>
      </trkpt>
      <trkpt lat="45.30706" lon="6.04856">
        <ele>1822.6</ele>
        <time>2021-01-16T12:01:18Z</time>
      </trkpt>
      <trkpt lat="45.30706" lon="6.04856">
        <ele>1822.6</ele>
        <time>2021-01-16T12:01:19Z</time>
      </trkpt>
      <trkpt lat="45.30706" lon="6.04856">
        <ele>1822.6</ele>
        <time>2021-01-16T12:01:20Z</time>
      </trkpt>
      <trkpt lat="45.30706" lon="6.04856">
        <ele>1822.6</ele>
        <time>2021-01-16T12:01:21Z</time>
      </trkpt>
      <trkpt lat="45.30706" lon="6.04856">
        <ele>1822.6</ele>
        <time>2021-01-16T12:01:22Z</time>
      </trkpt>
      <trkpt lat="45.30706" lon="6.04856">
        <ele>1822.6</ele>
        <time>2021-01-16T12:01:23Z</time>
      </trkpt>
      <trkpt lat="45.30706" lon="6.04856">
        <ele>1822.6</ele>
        <time>2021-01-16T12:01:24Z</time>
      </trkpt>
      <trkpt lat="45.30706" lon="6.04856">
        <ele>1822.6</ele>
        <time>2021-01-16T12:01:25Z</time>
      </trkpt>
      <trkpt lat="45.30706" lon="6.04856">
        <ele>1822.6</ele>
        <time>2021-01-16T12:01:26Z</time>
      </trkpt>
      <trkpt lat="45.30706" lon="6.04856">
        <ele>1822.6</ele>
        <time>2021-01-16T12:01:27Z</time>
      </trkpt>
      <trkpt lat="45.30706" lon="6.04856">
        <ele>1822.6</ele>
        <time>2021-01-16T12:01:28Z</time>
      </trkpt>
      <trkpt lat="45.30706" lon="6.04856">
        <ele>1822.6</ele>
        <time>2021-01-16T12:01:29Z</time>
      </trkpt>
      <trkpt lat="45.30706" lon="6.04856">
        <ele>1822.6</ele>
        <time>2021-01-16T12:01:30Z</time>
      </trkpt>
      <trkpt lat="45.30706" lon="6.04856">
        <ele>1822.6</ele>
        <time>2021-01-16T12:01:31Z</time>
      </trkpt>
      <trkpt lat="45.30706" lon="6.04856">
        <ele>1822.6</ele>
        <time>2021-01-16T12:01:32Z</time>
      </trkpt>
      <trkpt lat="45.30706" lon="6.04857">
        <ele>1822.8</ele>
        <time>2021-01-16T12:01:33Z</time>
      </trkpt>
      <trkpt lat="45.30706" lon="6.04857">
        <ele>1822.8</ele>
        <time>2021-01-16T12:01:34Z</time>
      </trkpt>
      <trkpt lat="45.30706" lon="6.04857">
        <ele>1822.8</ele>
        <time>2021-01-16T12:01:35Z</time>
      </trkpt>
      <trkpt lat="45.30706" lon="6.04857">
        <ele>1822.8</ele>
        <time>2021-01-16T12:01:36Z</time>
      </trkpt>
      <trkpt lat="45.30706" lon="6.04857">
        <ele>1822.8</ele>
        <time>2021-01-16T12:01:37Z</time>
      </trkpt>
      <trkpt lat="45.30706" lon="6.04857">
        <ele>1822.8</ele>
        <time>2021-01-16T12:01:38Z</time>
      </trkpt>
      <trkpt lat="45.30706" lon="6.04857">
        <ele>1822.8</ele>
        <time>2021-01-16T12:01:39Z</time>
      </trkpt>
      <trkpt lat="45.30706" lon="6.04857">
        <ele>1822.8</ele>
        <time>2021-01-16T12:01:40Z</time>
      </trkpt>
      <trkpt lat="45.30706" lon="6.04857">
        <ele>1822.8</ele>
        <time>2021-01-16T12:01:41Z</time>
      </trkpt>
      <trkpt lat="45.30706" lon="6.04857">
        <ele>1822.8</ele>
        <time>2021-01-16T12:01:42Z</time>
      </trkpt>
      <trkpt lat="45.30706" lon="6.04857">
        <ele>1822.8</ele>
        <time>2021-01-16T12:01:43Z</time>
      </trkpt>
      <trkpt lat="45.30706" lon="6.04857">
        <ele>1822.8</ele>
        <time>2021-01-16T12:01:44Z</time>
      </trkpt>
      <trkpt lat="45.30706" lon="6.04857">
        <ele>1822.8</ele>
        <time>2021-01-16T12:01:45Z</time>
      </trkpt>
      <trkpt lat="45.30706" lon="6.04857">
        <ele>1822.8</ele>
        <time>2021-01-16T12:01:46Z</time>
      </trkpt>
      <trkpt lat="45.30706" lon="6.04857">
        <ele>1823</ele>
        <time>2021-01-16T12:01:47Z</time>
      </trkpt>
      <trkpt lat="45.30706" lon="6.04857">
        <ele>1823</ele>
        <time>2021-01-16T12:01:48Z</time>
      </trkpt>
      <trkpt lat="45.30706" lon="6.04857">
        <ele>1823</ele>
        <time>2021-01-16T12:01:49Z</time>
      </trkpt>
      <trkpt lat="45.30706" lon="6.04857">
        <ele>1823</ele>
        <time>2021-01-16T12:01:50Z</time>
      </trkpt>
      <trkpt lat="45.30706" lon="6.04857">
        <ele>1823</ele>
        <time>2021-01-16T12:01:51Z</time>
      </trkpt>
      <trkpt lat="45.30706" lon="6.04857">
        <ele>1823</ele>
        <time>2021-01-16T12:01:52Z</time>
      </trkpt>
      <trkpt lat="45.30706" lon="6.04857">
        <ele>1823</ele>
        <time>2021-01-16T12:01:53Z</time>
      </trkpt>
      <trkpt lat="45.30706" lon="6.04857">
        <ele>1823</ele>
        <time>2021-01-16T12:01:54Z</time>
      </trkpt>
      <trkpt lat="45.30706" lon="6.04857">
        <ele>1823</ele>
        <time>2021-01-16T12:01:55Z</time>
      </trkpt>
      <trkpt lat="45.30706" lon="6.04857">
        <ele>1823</ele>
        <time>2021-01-16T12:01:56Z</time>
      </trkpt>
      <trkpt lat="45.30706" lon="6.04857">
        <ele>1823</ele>
        <time>2021-01-16T12:01:57Z</time>
      </trkpt>
      <trkpt lat="45.30706" lon="6.04857">
        <ele>1823</ele>
        <time>2021-01-16T12:01:58Z</time>
      </trkpt>
      <trkpt lat="45.30706" lon="6.04857">
        <ele>1823</ele>
        <time>2021-01-16T12:01:59Z</time>
      </trkpt>
      <trkpt lat="45.30706" lon="6.04857">
        <ele>1823</ele>
        <time>2021-01-16T12:02:00Z</time>
      </trkpt>
      <trkpt lat="45.30706" lon="6.04857">
        <ele>1823</ele>
        <time>2021-01-16T12:02:01Z</time>
      </trkpt>
      <trkpt lat="45.30706" lon="6.04857">
        <ele>1823</ele>
        <time>2021-01-16T12:02:02Z</time>
      </trkpt>
      <trkpt lat="45.30706" lon="6.04857">
        <ele>1823</ele>
        <time>2021-01-16T12:02:03Z</time>
      </trkpt>
      <trkpt lat="45.30706" lon="6.04857">
        <ele>1823</ele>
        <time>2021-01-16T12:02:04Z</time>
      </trkpt>
      <trkpt lat="45.30706" lon="6.04857">
        <ele>1823.2</ele>
        <time>2021-01-16T12:02:05Z</time>
      </trkpt>
      <trkpt lat="45.30706" lon="6.04857">
        <ele>1823</ele>
        <time>2021-01-16T12:02:06Z</time>
      </trkpt>
      <trkpt lat="45.30706" lon="6.04858">
        <ele>1823</ele>
        <time>2021-01-16T12:02:07Z</time>
      </trkpt>
      <trkpt lat="45.30706" lon="6.04858">
        <ele>1823</ele>
        <time>2021-01-16T12:02:08Z</time>
      </trkpt>
      <trkpt lat="45.30706" lon="6.04858">
        <ele>1823</ele>
        <time>2021-01-16T12:02:09Z</time>
      </trkpt>
      <trkpt lat="45.30706" lon="6.04858">
        <ele>1823.2</ele>
        <time>2021-01-16T12:02:10Z</time>
      </trkpt>
      <trkpt lat="45.30706" lon="6.04858">
        <ele>1823.2</ele>
        <time>2021-01-16T12:02:11Z</time>
      </trkpt>
      <trkpt lat="45.30706" lon="6.04858">
        <ele>1823.2</ele>
        <time>2021-01-16T12:02:12Z</time>
      </trkpt>
      <trkpt lat="45.30706" lon="6.04858">
        <ele>1823.2</ele>
        <time>2021-01-16T12:02:13Z</time>
      </trkpt>
      <trkpt lat="45.30706" lon="6.04858">
        <ele>1823.2</ele>
        <time>2021-01-16T12:02:14Z</time>
      </trkpt>
      <trkpt lat="45.30706" lon="6.04858">
        <ele>1823.2</ele>
        <time>2021-01-16T12:02:15Z</time>
      </trkpt>
      <trkpt lat="45.30706" lon="6.04858">
        <ele>1823.2</ele>
        <time>2021-01-16T12:02:16Z</time>
      </trkpt>
      <trkpt lat="45.30706" lon="6.04858">
        <ele>1823.2</ele>
        <time>2021-01-16T12:02:17Z</time>
      </trkpt>
      <trkpt lat="45.30706" lon="6.04858">
        <ele>1823.2</ele>
        <time>2021-01-16T12:02:18Z</time>
      </trkpt>
      <trkpt lat="45.30706" lon="6.04858">
        <ele>1823.2</ele>
        <time>2021-01-16T12:02:19Z</time>
      </trkpt>
      <trkpt lat="45.30706" lon="6.04858">
        <ele>1823.2</ele>
        <time>2021-01-16T12:02:20Z</time>
      </trkpt>
      <trkpt lat="45.30706" lon="6.04858">
        <ele>1823.2</ele>
        <time>2021-01-16T12:02:21Z</time>
      </trkpt>
      <trkpt lat="45.30706" lon="6.04858">
        <ele>1823.2</ele>
        <time>2021-01-16T12:02:22Z</time>
      </trkpt>
      <trkpt lat="45.30706" lon="6.04858">
        <ele>1823.2</ele>
        <time>2021-01-16T12:02:23Z</time>
      </trkpt>
      <trkpt lat="45.30706" lon="6.04858">
        <ele>1823.2</ele>
        <time>2021-01-16T12:02:24Z</time>
      </trkpt>
      <trkpt lat="45.30706" lon="6.04858">
        <ele>1823.2</ele>
        <time>2021-01-16T12:02:25Z</time>
      </trkpt>
      <trkpt lat="45.30706" lon="6.04858">
        <ele>1823.2</ele>
        <time>2021-01-16T12:02:26Z</time>
      </trkpt>
      <trkpt lat="45.30706" lon="6.04858">
        <ele>1823.2</ele>
        <time>2021-01-16T12:02:27Z</time>
      </trkpt>
      <trkpt lat="45.30706" lon="6.04858">
        <ele>1823.2</ele>
        <time>2021-01-16T12:02:28Z</time>
      </trkpt>
      <trkpt lat="45.30706" lon="6.04858">
        <ele>1823</ele>
        <time>2021-01-16T12:02:29Z</time>
      </trkpt>
      <trkpt lat="45.30706" lon="6.04858">
        <ele>1823</ele>
        <time>2021-01-16T12:02:30Z</time>
      </trkpt>
      <trkpt lat="45.30706" lon="6.04858">
        <ele>1823</ele>
        <time>2021-01-16T12:02:31Z</time>
      </trkpt>
      <trkpt lat="45.30706" lon="6.04858">
        <ele>1823</ele>
        <time>2021-01-16T12:02:32Z</time>
      </trkpt>
      <trkpt lat="45.30706" lon="6.04858">
        <ele>1823</ele>
        <time>2021-01-16T12:02:33Z</time>
      </trkpt>
      <trkpt lat="45.30706" lon="6.04858">
        <ele>1823</ele>
        <time>2021-01-16T12:02:34Z</time>
      </trkpt>
      <trkpt lat="45.30706" lon="6.04858">
        <ele>1823</ele>
        <time>2021-01-16T12:02:35Z</time>
      </trkpt>
      <trkpt lat="45.30706" lon="6.04858">
        <ele>1823</ele>
        <time>2021-01-16T12:02:36Z</time>
      </trkpt>
      <trkpt lat="45.30706" lon="6.04858">
        <ele>1823</ele>
        <time>2021-01-16T12:02:37Z</time>
      </trkpt>
      <trkpt lat="45.30706" lon="6.04858">
        <ele>1823</ele>
        <time>2021-01-16T12:02:38Z</time>
      </trkpt>
      <trkpt lat="45.30706" lon="6.04858">
        <ele>1823</ele>
        <time>2021-01-16T12:02:39Z</time>
      </trkpt>
      <trkpt lat="45.30706" lon="6.04858">
        <ele>1823</ele>
        <time>2021-01-16T12:02:40Z</time>
      </trkpt>
      <trkpt lat="45.30706" lon="6.04859">
        <ele>1823</ele>
        <time>2021-01-16T12:02:41Z</time>
      </trkpt>
      <trkpt lat="45.30706" lon="6.04859">
        <ele>1823</ele>
        <time>2021-01-16T12:02:42Z</time>
      </trkpt>
      <trkpt lat="45.30706" lon="6.04859">
        <ele>1823</ele>
        <time>2021-01-16T12:02:43Z</time>
      </trkpt>
      <trkpt lat="45.30706" lon="6.04859">
        <ele>1823</ele>
        <time>2021-01-16T12:02:44Z</time>
      </trkpt>
      <trkpt lat="45.30706" lon="6.04859">
        <ele>1823</ele>
        <time>2021-01-16T12:02:45Z</time>
      </trkpt>
      <trkpt lat="45.30706" lon="6.04859">
        <ele>1823</ele>
        <time>2021-01-16T12:02:46Z</time>
      </trkpt>
      <trkpt lat="45.30706" lon="6.04859">
        <ele>1823</ele>
        <time>2021-01-16T12:02:47Z</time>
      </trkpt>
      <trkpt lat="45.30706" lon="6.04859">
        <ele>1823</ele>
        <time>2021-01-16T12:02:48Z</time>
      </trkpt>
      <trkpt lat="45.30706" lon="6.04859">
        <ele>1823</ele>
        <time>2021-01-16T12:02:49Z</time>
      </trkpt>
      <trkpt lat="45.30706" lon="6.04859">
        <ele>1823</ele>
        <time>2021-01-16T12:02:50Z</time>
      </trkpt>
      <trkpt lat="45.30706" lon="6.04859">
        <ele>1823</ele>
        <time>2021-01-16T12:02:51Z</time>
      </trkpt>
      <trkpt lat="45.30706" lon="6.04859">
        <ele>1823</ele>
        <time>2021-01-16T12:02:52Z</time>
      </trkpt>
      <trkpt lat="45.30706" lon="6.04859">
        <ele>1823</ele>
        <time>2021-01-16T12:02:53Z</time>
      </trkpt>
      <trkpt lat="45.30706" lon="6.04859">
        <ele>1823</ele>
        <time>2021-01-16T12:02:54Z</time>
      </trkpt>
      <trkpt lat="45.30706" lon="6.04859">
        <ele>1823</ele>
        <time>2021-01-16T12:02:55Z</time>
      </trkpt>
      <trkpt lat="45.30706" lon="6.04859">
        <ele>1823</ele>
        <time>2021-01-16T12:02:56Z</time>
      </trkpt>
      <trkpt lat="45.30706" lon="6.04859">
        <ele>1823</ele>
        <time>2021-01-16T12:02:57Z</time>
      </trkpt>
      <trkpt lat="45.30706" lon="6.04859">
        <ele>1823</ele>
        <time>2021-01-16T12:02:58Z</time>
      </trkpt>
      <trkpt lat="45.30706" lon="6.04859">
        <ele>1823</ele>
        <time>2021-01-16T12:02:59Z</time>
      </trkpt>
      <trkpt lat="45.30706" lon="6.04859">
        <ele>1823</ele>
        <time>2021-01-16T12:03:00Z</time>
      </trkpt>
      <trkpt lat="45.30706" lon="6.04859">
        <ele>1823</ele>
        <time>2021-01-16T12:03:01Z</time>
      </trkpt>
      <trkpt lat="45.30706" lon="6.04859">
        <ele>1823</ele>
        <time>2021-01-16T12:03:02Z</time>
      </trkpt>
      <trkpt lat="45.30706" lon="6.04859">
        <ele>1823</ele>
        <time>2021-01-16T12:03:03Z</time>
      </trkpt>
      <trkpt lat="45.30706" lon="6.04859">
        <ele>1823</ele>
        <time>2021-01-16T12:03:04Z</time>
      </trkpt>
      <trkpt lat="45.30706" lon="6.04859">
        <ele>1823</ele>
        <time>2021-01-16T12:03:05Z</time>
      </trkpt>
      <trkpt lat="45.30706" lon="6.04859">
        <ele>1823</ele>
        <time>2021-01-16T12:03:06Z</time>
      </trkpt>
      <trkpt lat="45.30706" lon="6.04859">
        <ele>1823.2</ele>
        <time>2021-01-16T12:03:07Z</time>
      </trkpt>
      <trkpt lat="45.30706" lon="6.04859">
        <ele>1823.2</ele>
        <time>2021-01-16T12:03:08Z</time>
      </trkpt>
      <trkpt lat="45.30706" lon="6.04859">
        <ele>1823.2</ele>
        <time>2021-01-16T12:03:09Z</time>
      </trkpt>
      <trkpt lat="45.30706" lon="6.04859">
        <ele>1823.2</ele>
        <time>2021-01-16T12:03:10Z</time>
      </trkpt>
      <trkpt lat="45.30706" lon="6.04859">
        <ele>1823.2</ele>
        <time>2021-01-16T12:03:11Z</time>
      </trkpt>
      <trkpt lat="45.30706" lon="6.04859">
        <ele>1823.2</ele>
        <time>2021-01-16T12:03:12Z</time>
      </trkpt>
      <trkpt lat="45.30706" lon="6.04859">
        <ele>1823.2</ele>
        <time>2021-01-16T12:03:13Z</time>
      </trkpt>
      <trkpt lat="45.30706" lon="6.04859">
        <ele>1823.2</ele>
        <time>2021-01-16T12:03:14Z</time>
      </trkpt>
      <trkpt lat="45.30706" lon="6.0486">
        <ele>1823.2</ele>
        <time>2021-01-16T12:03:15Z</time>
      </trkpt>
      <trkpt lat="45.30706" lon="6.0486">
        <ele>1823.2</ele>
        <time>2021-01-16T12:03:16Z</time>
      </trkpt>
      <trkpt lat="45.30706" lon="6.0486">
        <ele>1823</ele>
        <time>2021-01-16T12:03:17Z</time>
      </trkpt>
      <trkpt lat="45.30706" lon="6.0486">
        <ele>1823.2</ele>
        <time>2021-01-16T12:03:18Z</time>
      </trkpt>
      <trkpt lat="45.30706" lon="6.0486">
        <ele>1823.2</ele>
        <time>2021-01-16T12:03:19Z</time>
      </trkpt>
      <trkpt lat="45.30706" lon="6.0486">
        <ele>1823.2</ele>
        <time>2021-01-16T12:03:20Z</time>
      </trkpt>
      <trkpt lat="45.30706" lon="6.0486">
        <ele>1823.2</ele>
        <time>2021-01-16T12:03:21Z</time>
      </trkpt>
      <trkpt lat="45.30706" lon="6.0486">
        <ele>1823.2</ele>
        <time>2021-01-16T12:03:22Z</time>
      </trkpt>
      <trkpt lat="45.30706" lon="6.0486">
        <ele>1823.2</ele>
        <time>2021-01-16T12:03:23Z</time>
      </trkpt>
      <trkpt lat="45.30706" lon="6.0486">
        <ele>1823.2</ele>
        <time>2021-01-16T12:03:24Z</time>
      </trkpt>
      <trkpt lat="45.30706" lon="6.0486">
        <ele>1823.2</ele>
        <time>2021-01-16T12:03:25Z</time>
      </trkpt>
      <trkpt lat="45.30706" lon="6.0486">
        <ele>1823.2</ele>
        <time>2021-01-16T12:03:26Z</time>
      </trkpt>
      <trkpt lat="45.30706" lon="6.0486">
        <ele>1823.2</ele>
        <time>2021-01-16T12:03:27Z</time>
      </trkpt>
      <trkpt lat="45.30706" lon="6.0486">
        <ele>1823.2</ele>
        <time>2021-01-16T12:03:28Z</time>
      </trkpt>
      <trkpt lat="45.30706" lon="6.0486">
        <ele>1823.2</ele>
        <time>2021-01-16T12:03:29Z</time>
      </trkpt>
      <trkpt lat="45.30706" lon="6.0486">
        <ele>1823.2</ele>
        <time>2021-01-16T12:03:30Z</time>
      </trkpt>
      <trkpt lat="45.30706" lon="6.0486">
        <ele>1823.2</ele>
        <time>2021-01-16T12:03:31Z</time>
      </trkpt>
      <trkpt lat="45.30706" lon="6.0486">
        <ele>1823.2</ele>
        <time>2021-01-16T12:03:32Z</time>
      </trkpt>
      <trkpt lat="45.30706" lon="6.0486">
        <ele>1823.4</ele>
        <time>2021-01-16T12:03:33Z</time>
      </trkpt>
      <trkpt lat="45.30706" lon="6.0486">
        <ele>1823.4</ele>
        <time>2021-01-16T12:03:34Z</time>
      </trkpt>
      <trkpt lat="45.30706" lon="6.0486">
        <ele>1823.4</ele>
        <time>2021-01-16T12:03:35Z</time>
      </trkpt>
      <trkpt lat="45.30706" lon="6.0486">
        <ele>1823.4</ele>
        <time>2021-01-16T12:03:36Z</time>
      </trkpt>
      <trkpt lat="45.30706" lon="6.0486">
        <ele>1823.4</ele>
        <time>2021-01-16T12:03:37Z</time>
      </trkpt>
      <trkpt lat="45.30706" lon="6.0486">
        <ele>1823.4</ele>
        <time>2021-01-16T12:03:38Z</time>
      </trkpt>
      <trkpt lat="45.30706" lon="6.0486">
        <ele>1823.4</ele>
        <time>2021-01-16T12:03:39Z</time>
      </trkpt>
      <trkpt lat="45.30706" lon="6.0486">
        <ele>1823.4</ele>
        <time>2021-01-16T12:03:40Z</time>
      </trkpt>
      <trkpt lat="45.30706" lon="6.0486">
        <ele>1823.4</ele>
        <time>2021-01-16T12:03:41Z</time>
      </trkpt>
      <trkpt lat="45.30706" lon="6.0486">
        <ele>1823.4</ele>
        <time>2021-01-16T12:03:42Z</time>
      </trkpt>
      <trkpt lat="45.30706" lon="6.0486">
        <ele>1823.4</ele>
        <time>2021-01-16T12:03:43Z</time>
      </trkpt>
      <trkpt lat="45.30706" lon="6.0486">
        <ele>1823.4</ele>
        <time>2021-01-16T12:03:44Z</time>
      </trkpt>
      <trkpt lat="45.30706" lon="6.0486">
        <ele>1823.4</ele>
        <time>2021-01-16T12:03:45Z</time>
      </trkpt>
      <trkpt lat="45.30706" lon="6.0486">
        <ele>1823.4</ele>
        <time>2021-01-16T12:03:46Z</time>
      </trkpt>
      <trkpt lat="45.30706" lon="6.0486">
        <ele>1823.4</ele>
        <time>2021-01-16T12:03:47Z</time>
      </trkpt>
      <trkpt lat="45.30706" lon="6.0486">
        <ele>1823.4</ele>
        <time>2021-01-16T12:03:48Z</time>
      </trkpt>
      <trkpt lat="45.30706" lon="6.04861">
        <ele>1823.4</ele>
        <time>2021-01-16T12:03:49Z</time>
      </trkpt>
      <trkpt lat="45.30706" lon="6.04861">
        <ele>1823.4</ele>
        <time>2021-01-16T12:03:50Z</time>
      </trkpt>
      <trkpt lat="45.30706" lon="6.04861">
        <ele>1823.6</ele>
        <time>2021-01-16T12:03:51Z</time>
      </trkpt>
      <trkpt lat="45.30706" lon="6.04861">
        <ele>1823.6</ele>
        <time>2021-01-16T12:03:52Z</time>
      </trkpt>
      <trkpt lat="45.30706" lon="6.04861">
        <ele>1823.6</ele>
        <time>2021-01-16T12:03:53Z</time>
      </trkpt>
      <trkpt lat="45.30706" lon="6.04861">
        <ele>1823.6</ele>
        <time>2021-01-16T12:03:54Z</time>
      </trkpt>
      <trkpt lat="45.30706" lon="6.04861">
        <ele>1823.6</ele>
        <time>2021-01-16T12:03:55Z</time>
      </trkpt>
      <trkpt lat="45.30706" lon="6.04861">
        <ele>1823.6</ele>
        <time>2021-01-16T12:03:56Z</time>
      </trkpt>
      <trkpt lat="45.30706" lon="6.04861">
        <ele>1823.6</ele>
        <time>2021-01-16T12:03:57Z</time>
      </trkpt>
      <trkpt lat="45.30706" lon="6.04861">
        <ele>1823.6</ele>
        <time>2021-01-16T12:03:58Z</time>
      </trkpt>
      <trkpt lat="45.30706" lon="6.04861">
        <ele>1823.6</ele>
        <time>2021-01-16T12:03:59Z</time>
      </trkpt>
      <trkpt lat="45.30706" lon="6.04861">
        <ele>1823.6</ele>
        <time>2021-01-16T12:04:00Z</time>
      </trkpt>
      <trkpt lat="45.30706" lon="6.04861">
        <ele>1823.6</ele>
        <time>2021-01-16T12:04:01Z</time>
      </trkpt>
      <trkpt lat="45.30706" lon="6.04861">
        <ele>1823.6</ele>
        <time>2021-01-16T12:04:02Z</time>
      </trkpt>
      <trkpt lat="45.30706" lon="6.04861">
        <ele>1823.6</ele>
        <time>2021-01-16T12:04:03Z</time>
      </trkpt>
      <trkpt lat="45.30706" lon="6.04861">
        <ele>1823.6</ele>
        <time>2021-01-16T12:04:04Z</time>
      </trkpt>
      <trkpt lat="45.30706" lon="6.04861">
        <ele>1823.8</ele>
        <time>2021-01-16T12:04:05Z</time>
      </trkpt>
      <trkpt lat="45.30706" lon="6.04861">
        <ele>1823.8</ele>
        <time>2021-01-16T12:04:06Z</time>
      </trkpt>
      <trkpt lat="45.30706" lon="6.04861">
        <ele>1823.8</ele>
        <time>2021-01-16T12:04:07Z</time>
      </trkpt>
      <trkpt lat="45.30706" lon="6.04861">
        <ele>1823.8</ele>
        <time>2021-01-16T12:04:08Z</time>
      </trkpt>
      <trkpt lat="45.30706" lon="6.04861">
        <ele>1823.8</ele>
        <time>2021-01-16T12:04:09Z</time>
      </trkpt>
      <trkpt lat="45.30706" lon="6.04861">
        <ele>1823.8</ele>
        <time>2021-01-16T12:04:10Z</time>
      </trkpt>
      <trkpt lat="45.30706" lon="6.04861">
        <ele>1823.8</ele>
        <time>2021-01-16T12:04:11Z</time>
      </trkpt>
      <trkpt lat="45.30706" lon="6.04861">
        <ele>1823.8</ele>
        <time>2021-01-16T12:04:12Z</time>
      </trkpt>
      <trkpt lat="45.30706" lon="6.04861">
        <ele>1823.8</ele>
        <time>2021-01-16T12:04:13Z</time>
      </trkpt>
      <trkpt lat="45.30706" lon="6.04861">
        <ele>1823.8</ele>
        <time>2021-01-16T12:04:14Z</time>
      </trkpt>
      <trkpt lat="45.30706" lon="6.04861">
        <ele>1823.8</ele>
        <time>2021-01-16T12:04:15Z</time>
      </trkpt>
      <trkpt lat="45.30706" lon="6.04861">
        <ele>1823.8</ele>
        <time>2021-01-16T12:04:16Z</time>
      </trkpt>
      <trkpt lat="45.30706" lon="6.04861">
        <ele>1823.8</ele>
        <time>2021-01-16T12:04:17Z</time>
      </trkpt>
      <trkpt lat="45.30706" lon="6.04861">
        <ele>1823.8</ele>
        <time>2021-01-16T12:04:18Z</time>
      </trkpt>
      <trkpt lat="45.30706" lon="6.04861">
        <ele>1823.8</ele>
        <time>2021-01-16T12:04:19Z</time>
      </trkpt>
      <trkpt lat="45.30706" lon="6.04861">
        <ele>1823.8</ele>
        <time>2021-01-16T12:04:20Z</time>
      </trkpt>
      <trkpt lat="45.30706" lon="6.04861">
        <ele>1823.8</ele>
        <time>2021-01-16T12:04:21Z</time>
      </trkpt>
      <trkpt lat="45.30706" lon="6.04861">
        <ele>1823.8</ele>
        <time>2021-01-16T12:04:22Z</time>
      </trkpt>
      <trkpt lat="45.30706" lon="6.04862">
        <ele>1823.8</ele>
        <time>2021-01-16T12:04:23Z</time>
      </trkpt>
      <trkpt lat="45.30706" lon="6.04862">
        <ele>1823.8</ele>
        <time>2021-01-16T12:04:24Z</time>
      </trkpt>
      <trkpt lat="45.30706" lon="6.04862">
        <ele>1824</ele>
        <time>2021-01-16T12:04:25Z</time>
      </trkpt>
      <trkpt lat="45.30706" lon="6.04862">
        <ele>1824</ele>
        <time>2021-01-16T12:04:26Z</time>
      </trkpt>
      <trkpt lat="45.30706" lon="6.04862">
        <ele>1824</ele>
        <time>2021-01-16T12:04:27Z</time>
      </trkpt>
      <trkpt lat="45.30706" lon="6.04862">
        <ele>1824</ele>
        <time>2021-01-16T12:04:28Z</time>
      </trkpt>
      <trkpt lat="45.30706" lon="6.04862">
        <ele>1824</ele>
        <time>2021-01-16T12:04:29Z</time>
      </trkpt>
      <trkpt lat="45.30706" lon="6.04862">
        <ele>1824</ele>
        <time>2021-01-16T12:04:30Z</time>
      </trkpt>
      <trkpt lat="45.30706" lon="6.04862">
        <ele>1823.8</ele>
        <time>2021-01-16T12:04:31Z</time>
      </trkpt>
      <trkpt lat="45.30706" lon="6.04862">
        <ele>1824</ele>
        <time>2021-01-16T12:04:32Z</time>
      </trkpt>
      <trkpt lat="45.30706" lon="6.04862">
        <ele>1824</ele>
        <time>2021-01-16T12:04:33Z</time>
      </trkpt>
      <trkpt lat="45.30706" lon="6.04862">
        <ele>1824</ele>
        <time>2021-01-16T12:04:34Z</time>
      </trkpt>
      <trkpt lat="45.30706" lon="6.04862">
        <ele>1824.2</ele>
        <time>2021-01-16T12:04:35Z</time>
      </trkpt>
      <trkpt lat="45.30706" lon="6.04862">
        <ele>1824.2</ele>
        <time>2021-01-16T12:04:36Z</time>
      </trkpt>
      <trkpt lat="45.30706" lon="6.04862">
        <ele>1824.2</ele>
        <time>2021-01-16T12:04:37Z</time>
      </trkpt>
      <trkpt lat="45.30706" lon="6.04862">
        <ele>1824</ele>
        <time>2021-01-16T12:04:38Z</time>
      </trkpt>
      <trkpt lat="45.30706" lon="6.04862">
        <ele>1824</ele>
        <time>2021-01-16T12:04:39Z</time>
      </trkpt>
      <trkpt lat="45.30706" lon="6.04862">
        <ele>1824</ele>
        <time>2021-01-16T12:04:40Z</time>
      </trkpt>
      <trkpt lat="45.30706" lon="6.04862">
        <ele>1824</ele>
        <time>2021-01-16T12:04:41Z</time>
      </trkpt>
      <trkpt lat="45.30706" lon="6.04862">
        <ele>1824.2</ele>
        <time>2021-01-16T12:04:42Z</time>
      </trkpt>
      <trkpt lat="45.30706" lon="6.04862">
        <ele>1824.2</ele>
        <time>2021-01-16T12:04:43Z</time>
      </trkpt>
      <trkpt lat="45.30706" lon="6.04862">
        <ele>1824.2</ele>
        <time>2021-01-16T12:04:44Z</time>
      </trkpt>
      <trkpt lat="45.30706" lon="6.04862">
        <ele>1824.2</ele>
        <time>2021-01-16T12:04:45Z</time>
      </trkpt>
      <trkpt lat="45.30706" lon="6.04862">
        <ele>1824.2</ele>
        <time>2021-01-16T12:04:46Z</time>
      </trkpt>
      <trkpt lat="45.30706" lon="6.04862">
        <ele>1824</ele>
        <time>2021-01-16T12:04:47Z</time>
      </trkpt>
      <trkpt lat="45.30706" lon="6.04862">
        <ele>1824</ele>
        <time>2021-01-16T12:04:48Z</time>
      </trkpt>
      <trkpt lat="45.30706" lon="6.04862">
        <ele>1824</ele>
        <time>2021-01-16T12:04:49Z</time>
      </trkpt>
      <trkpt lat="45.30706" lon="6.04862">
        <ele>1824</ele>
        <time>2021-01-16T12:04:50Z</time>
      </trkpt>
      <trkpt lat="45.30706" lon="6.04862">
        <ele>1824.2</ele>
        <time>2021-01-16T12:04:51Z</time>
      </trkpt>
      <trkpt lat="45.30706" lon="6.04862">
        <ele>1824.2</ele>
        <time>2021-01-16T12:04:52Z</time>
      </trkpt>
      <trkpt lat="45.30706" lon="6.04862">
        <ele>1824.2</ele>
        <time>2021-01-16T12:04:53Z</time>
      </trkpt>
      <trkpt lat="45.30706" lon="6.04862">
        <ele>1824.2</ele>
        <time>2021-01-16T12:04:54Z</time>
      </trkpt>
      <trkpt lat="45.30706" lon="6.04862">
        <ele>1824.2</ele>
        <time>2021-01-16T12:04:55Z</time>
      </trkpt>
      <trkpt lat="45.30706" lon="6.04862">
        <ele>1824</ele>
        <time>2021-01-16T12:04:56Z</time>
      </trkpt>
      <trkpt lat="45.30706" lon="6.04863">
        <ele>1824.2</ele>
        <time>2021-01-16T12:04:57Z</time>
      </trkpt>
      <trkpt lat="45.30706" lon="6.04863">
        <ele>1824.2</ele>
        <time>2021-01-16T12:04:58Z</time>
      </trkpt>
      <trkpt lat="45.30706" lon="6.04863">
        <ele>1824.2</ele>
        <time>2021-01-16T12:04:59Z</time>
      </trkpt>
      <trkpt lat="45.30706" lon="6.04863">
        <ele>1824.2</ele>
        <time>2021-01-16T12:05:00Z</time>
      </trkpt>
      <trkpt lat="45.30706" lon="6.04863">
        <ele>1824.2</ele>
        <time>2021-01-16T12:05:01Z</time>
      </trkpt>
      <trkpt lat="45.30706" lon="6.04863">
        <ele>1824.2</ele>
        <time>2021-01-16T12:05:02Z</time>
      </trkpt>
      <trkpt lat="45.30706" lon="6.04863">
        <ele>1824.2</ele>
        <time>2021-01-16T12:05:03Z</time>
      </trkpt>
      <trkpt lat="45.30706" lon="6.04863">
        <ele>1824.2</ele>
        <time>2021-01-16T12:05:04Z</time>
      </trkpt>
      <trkpt lat="45.30706" lon="6.04863">
        <ele>1824.2</ele>
        <time>2021-01-16T12:05:05Z</time>
      </trkpt>
      <trkpt lat="45.30706" lon="6.04863">
        <ele>1824.2</ele>
        <time>2021-01-16T12:05:06Z</time>
      </trkpt>
      <trkpt lat="45.30706" lon="6.04863">
        <ele>1824.2</ele>
        <time>2021-01-16T12:05:07Z</time>
      </trkpt>
      <trkpt lat="45.30706" lon="6.04863">
        <ele>1824.2</ele>
        <time>2021-01-16T12:05:08Z</time>
      </trkpt>
      <trkpt lat="45.30706" lon="6.04863">
        <ele>1824.2</ele>
        <time>2021-01-16T12:05:09Z</time>
      </trkpt>
      <trkpt lat="45.30706" lon="6.04863">
        <ele>1824.2</ele>
        <time>2021-01-16T12:05:10Z</time>
      </trkpt>
      <trkpt lat="45.30706" lon="6.04863">
        <ele>1824.2</ele>
        <time>2021-01-16T12:05:11Z</time>
      </trkpt>
      <trkpt lat="45.30706" lon="6.04863">
        <ele>1824.2</ele>
        <time>2021-01-16T12:05:12Z</time>
      </trkpt>
      <trkpt lat="45.30706" lon="6.04863">
        <ele>1824.2</ele>
        <time>2021-01-16T12:05:13Z</time>
      </trkpt>
      <trkpt lat="45.30706" lon="6.04863">
        <ele>1824.4</ele>
        <time>2021-01-16T12:05:14Z</time>
      </trkpt>
      <trkpt lat="45.30706" lon="6.04863">
        <ele>1824.4</ele>
        <time>2021-01-16T12:05:15Z</time>
      </trkpt>
      <trkpt lat="45.30706" lon="6.04863">
        <ele>1824.4</ele>
        <time>2021-01-16T12:05:16Z</time>
      </trkpt>
      <trkpt lat="45.30706" lon="6.04863">
        <ele>1824.4</ele>
        <time>2021-01-16T12:05:17Z</time>
      </trkpt>
      <trkpt lat="45.30706" lon="6.04863">
        <ele>1824.4</ele>
        <time>2021-01-16T12:05:18Z</time>
      </trkpt>
      <trkpt lat="45.30706" lon="6.04863">
        <ele>1824.4</ele>
        <time>2021-01-16T12:05:19Z</time>
      </trkpt>
      <trkpt lat="45.30706" lon="6.04863">
        <ele>1824.4</ele>
        <time>2021-01-16T12:05:20Z</time>
      </trkpt>
      <trkpt lat="45.30706" lon="6.04863">
        <ele>1824.4</ele>
        <time>2021-01-16T12:05:21Z</time>
      </trkpt>
      <trkpt lat="45.30706" lon="6.04863">
        <ele>1824.4</ele>
        <time>2021-01-16T12:05:22Z</time>
      </trkpt>
      <trkpt lat="45.30706" lon="6.04863">
        <ele>1824.4</ele>
        <time>2021-01-16T12:05:23Z</time>
      </trkpt>
      <trkpt lat="45.30706" lon="6.04863">
        <ele>1824.4</ele>
        <time>2021-01-16T12:05:24Z</time>
      </trkpt>
      <trkpt lat="45.30706" lon="6.04863">
        <ele>1824.4</ele>
        <time>2021-01-16T12:05:25Z</time>
      </trkpt>
      <trkpt lat="45.30706" lon="6.04863">
        <ele>1824.4</ele>
        <time>2021-01-16T12:05:26Z</time>
      </trkpt>
      <trkpt lat="45.30706" lon="6.04863">
        <ele>1824.4</ele>
        <time>2021-01-16T12:05:27Z</time>
      </trkpt>
      <trkpt lat="45.30706" lon="6.04863">
        <ele>1824.4</ele>
        <time>2021-01-16T12:05:28Z</time>
      </trkpt>
      <trkpt lat="45.30706" lon="6.04863">
        <ele>1824.4</ele>
        <time>2021-01-16T12:05:29Z</time>
      </trkpt>
      <trkpt lat="45.30706" lon="6.04863">
        <ele>1824.4</ele>
        <time>2021-01-16T12:05:30Z</time>
      </trkpt>
      <trkpt lat="45.30706" lon="6.04864">
        <ele>1824.4</ele>
        <time>2021-01-16T12:05:31Z</time>
      </trkpt>
      <trkpt lat="45.30706" lon="6.04864">
        <ele>1824.6</ele>
        <time>2021-01-16T12:05:32Z</time>
      </trkpt>
      <trkpt lat="45.30706" lon="6.04864">
        <ele>1824.6</ele>
        <time>2021-01-16T12:05:33Z</time>
      </trkpt>
      <trkpt lat="45.30706" lon="6.04864">
        <ele>1824.4</ele>
        <time>2021-01-16T12:05:34Z</time>
      </trkpt>
      <trkpt lat="45.30706" lon="6.04864">
        <ele>1824.4</ele>
        <time>2021-01-16T12:05:35Z</time>
      </trkpt>
      <trkpt lat="45.30706" lon="6.04864">
        <ele>1824.6</ele>
        <time>2021-01-16T12:05:36Z</time>
      </trkpt>
      <trkpt lat="45.30706" lon="6.04864">
        <ele>1824.6</ele>
        <time>2021-01-16T12:05:37Z</time>
      </trkpt>
      <trkpt lat="45.30706" lon="6.04864">
        <ele>1824.6</ele>
        <time>2021-01-16T12:05:38Z</time>
      </trkpt>
      <trkpt lat="45.30706" lon="6.04864">
        <ele>1824.6</ele>
        <time>2021-01-16T12:05:39Z</time>
      </trkpt>
      <trkpt lat="45.30706" lon="6.04864">
        <ele>1824.6</ele>
        <time>2021-01-16T12:05:40Z</time>
      </trkpt>
      <trkpt lat="45.30706" lon="6.04864">
        <ele>1824.6</ele>
        <time>2021-01-16T12:05:41Z</time>
      </trkpt>
      <trkpt lat="45.30706" lon="6.04864">
        <ele>1824.6</ele>
        <time>2021-01-16T12:05:42Z</time>
      </trkpt>
      <trkpt lat="45.30706" lon="6.04864">
        <ele>1824.4</ele>
        <time>2021-01-16T12:05:43Z</time>
      </trkpt>
      <trkpt lat="45.30706" lon="6.04864">
        <ele>1824.4</ele>
        <time>2021-01-16T12:05:44Z</time>
      </trkpt>
      <trkpt lat="45.30706" lon="6.04864">
        <ele>1824.6</ele>
        <time>2021-01-16T12:05:45Z</time>
      </trkpt>
      <trkpt lat="45.30706" lon="6.04864">
        <ele>1824.6</ele>
        <time>2021-01-16T12:05:46Z</time>
      </trkpt>
      <trkpt lat="45.30706" lon="6.04864">
        <ele>1824.6</ele>
        <time>2021-01-16T12:05:47Z</time>
      </trkpt>
      <trkpt lat="45.30706" lon="6.04864">
        <ele>1824.8</ele>
        <time>2021-01-16T12:05:48Z</time>
      </trkpt>
      <trkpt lat="45.30706" lon="6.04864">
        <ele>1824.8</ele>
        <time>2021-01-16T12:05:49Z</time>
      </trkpt>
      <trkpt lat="45.30706" lon="6.04864">
        <ele>1824.8</ele>
        <time>2021-01-16T12:05:50Z</time>
      </trkpt>
      <trkpt lat="45.30706" lon="6.04864">
        <ele>1824.8</ele>
        <time>2021-01-16T12:05:51Z</time>
      </trkpt>
      <trkpt lat="45.30706" lon="6.04864">
        <ele>1824.8</ele>
        <time>2021-01-16T12:05:52Z</time>
      </trkpt>
      <trkpt lat="45.30706" lon="6.04864">
        <ele>1824.8</ele>
        <time>2021-01-16T12:05:53Z</time>
      </trkpt>
      <trkpt lat="45.30706" lon="6.04864">
        <ele>1824.8</ele>
        <time>2021-01-16T12:05:54Z</time>
      </trkpt>
      <trkpt lat="45.30706" lon="6.04864">
        <ele>1824.8</ele>
        <time>2021-01-16T12:05:55Z</time>
      </trkpt>
      <trkpt lat="45.30706" lon="6.04864">
        <ele>1824.8</ele>
        <time>2021-01-16T12:05:56Z</time>
      </trkpt>
      <trkpt lat="45.30706" lon="6.04864">
        <ele>1824.8</ele>
        <time>2021-01-16T12:05:57Z</time>
      </trkpt>
      <trkpt lat="45.30706" lon="6.04864">
        <ele>1824.8</ele>
        <time>2021-01-16T12:05:58Z</time>
      </trkpt>
      <trkpt lat="45.30706" lon="6.04864">
        <ele>1824.8</ele>
        <time>2021-01-16T12:05:59Z</time>
      </trkpt>
      <trkpt lat="45.30706" lon="6.04864">
        <ele>1824.8</ele>
        <time>2021-01-16T12:06:00Z</time>
      </trkpt>
      <trkpt lat="45.30706" lon="6.04864">
        <ele>1824.8</ele>
        <time>2021-01-16T12:06:01Z</time>
      </trkpt>
      <trkpt lat="45.30706" lon="6.04864">
        <ele>1824.8</ele>
        <time>2021-01-16T12:06:02Z</time>
      </trkpt>
      <trkpt lat="45.30706" lon="6.04864">
        <ele>1824.8</ele>
        <time>2021-01-16T12:06:03Z</time>
      </trkpt>
      <trkpt lat="45.30706" lon="6.04864">
        <ele>1824.8</ele>
        <time>2021-01-16T12:06:04Z</time>
      </trkpt>
      <trkpt lat="45.30706" lon="6.04865">
        <ele>1824.8</ele>
        <time>2021-01-16T12:06:05Z</time>
      </trkpt>
      <trkpt lat="45.30706" lon="6.04865">
        <ele>1824.8</ele>
        <time>2021-01-16T12:06:06Z</time>
      </trkpt>
      <trkpt lat="45.30706" lon="6.04865">
        <ele>1824.8</ele>
        <time>2021-01-16T12:06:07Z</time>
      </trkpt>
      <trkpt lat="45.30706" lon="6.04865">
        <ele>1824.8</ele>
        <time>2021-01-16T12:06:08Z</time>
      </trkpt>
      <trkpt lat="45.30706" lon="6.04865">
        <ele>1824.8</ele>
        <time>2021-01-16T12:06:09Z</time>
      </trkpt>
      <trkpt lat="45.30706" lon="6.04865">
        <ele>1824.8</ele>
        <time>2021-01-16T12:06:10Z</time>
      </trkpt>
      <trkpt lat="45.30706" lon="6.04865">
        <ele>1824.8</ele>
        <time>2021-01-16T12:06:11Z</time>
      </trkpt>
      <trkpt lat="45.30706" lon="6.04865">
        <ele>1824.8</ele>
        <time>2021-01-16T12:06:12Z</time>
      </trkpt>
      <trkpt lat="45.30706" lon="6.04865">
        <ele>1824.8</ele>
        <time>2021-01-16T12:06:13Z</time>
      </trkpt>
      <trkpt lat="45.30706" lon="6.04865">
        <ele>1824.8</ele>
        <time>2021-01-16T12:06:14Z</time>
      </trkpt>
      <trkpt lat="45.30706" lon="6.04865">
        <ele>1824.8</ele>
        <time>2021-01-16T12:06:15Z</time>
      </trkpt>
      <trkpt lat="45.30706" lon="6.04865">
        <ele>1824.8</ele>
        <time>2021-01-16T12:06:16Z</time>
      </trkpt>
      <trkpt lat="45.30706" lon="6.04865">
        <ele>1824.8</ele>
        <time>2021-01-16T12:06:17Z</time>
      </trkpt>
      <trkpt lat="45.30706" lon="6.04865">
        <ele>1824.8</ele>
        <time>2021-01-16T12:06:18Z</time>
      </trkpt>
      <trkpt lat="45.30706" lon="6.04865">
        <ele>1824.8</ele>
        <time>2021-01-16T12:06:19Z</time>
      </trkpt>
      <trkpt lat="45.30706" lon="6.04865">
        <ele>1824.8</ele>
        <time>2021-01-16T12:06:20Z</time>
      </trkpt>
      <trkpt lat="45.30706" lon="6.04865">
        <ele>1824.8</ele>
        <time>2021-01-16T12:06:21Z</time>
      </trkpt>
      <trkpt lat="45.30706" lon="6.04865">
        <ele>1824.8</ele>
        <time>2021-01-16T12:06:22Z</time>
      </trkpt>
      <trkpt lat="45.30706" lon="6.04865">
        <ele>1824.8</ele>
        <time>2021-01-16T12:06:23Z</time>
      </trkpt>
      <trkpt lat="45.30706" lon="6.04865">
        <ele>1824.8</ele>
        <time>2021-01-16T12:06:24Z</time>
      </trkpt>
      <trkpt lat="45.30706" lon="6.04865">
        <ele>1824.8</ele>
        <time>2021-01-16T12:06:25Z</time>
      </trkpt>
      <trkpt lat="45.30706" lon="6.04865">
        <ele>1824.8</ele>
        <time>2021-01-16T12:06:26Z</time>
      </trkpt>
      <trkpt lat="45.30706" lon="6.04865">
        <ele>1824.8</ele>
        <time>2021-01-16T12:06:27Z</time>
      </trkpt>
      <trkpt lat="45.30706" lon="6.04865">
        <ele>1824.8</ele>
        <time>2021-01-16T12:06:28Z</time>
      </trkpt>
      <trkpt lat="45.30706" lon="6.04865">
        <ele>1824.8</ele>
        <time>2021-01-16T12:06:29Z</time>
      </trkpt>
      <trkpt lat="45.30706" lon="6.04865">
        <ele>1824.8</ele>
        <time>2021-01-16T12:06:30Z</time>
      </trkpt>
      <trkpt lat="45.30706" lon="6.04865">
        <ele>1824.8</ele>
        <time>2021-01-16T12:06:31Z</time>
      </trkpt>
      <trkpt lat="45.30706" lon="6.04865">
        <ele>1824.8</ele>
        <time>2021-01-16T12:06:32Z</time>
      </trkpt>
      <trkpt lat="45.30706" lon="6.04865">
        <ele>1824.8</ele>
        <time>2021-01-16T12:06:33Z</time>
      </trkpt>
      <trkpt lat="45.30706" lon="6.04865">
        <ele>1824.8</ele>
        <time>2021-01-16T12:06:34Z</time>
      </trkpt>
      <trkpt lat="45.30706" lon="6.04865">
        <ele>1824.8</ele>
        <time>2021-01-16T12:06:35Z</time>
      </trkpt>
      <trkpt lat="45.30706" lon="6.04865">
        <ele>1824.8</ele>
        <time>2021-01-16T12:06:36Z</time>
      </trkpt>
      <trkpt lat="45.30706" lon="6.04865">
        <ele>1824.8</ele>
        <time>2021-01-16T12:06:37Z</time>
      </trkpt>
      <trkpt lat="45.30706" lon="6.04865">
        <ele>1824.8</ele>
        <time>2021-01-16T12:06:38Z</time>
      </trkpt>
      <trkpt lat="45.30706" lon="6.04866">
        <ele>1824.8</ele>
        <time>2021-01-16T12:06:39Z</time>
      </trkpt>
      <trkpt lat="45.30706" lon="6.04866">
        <ele>1824.8</ele>
        <time>2021-01-16T12:06:40Z</time>
      </trkpt>
      <trkpt lat="45.30706" lon="6.04866">
        <ele>1824.8</ele>
        <time>2021-01-16T12:06:41Z</time>
      </trkpt>
      <trkpt lat="45.30706" lon="6.04866">
        <ele>1824.8</ele>
        <time>2021-01-16T12:06:42Z</time>
      </trkpt>
      <trkpt lat="45.30706" lon="6.04866">
        <ele>1824.8</ele>
        <time>2021-01-16T12:06:43Z</time>
      </trkpt>
      <trkpt lat="45.30706" lon="6.04866">
        <ele>1824.8</ele>
        <time>2021-01-16T12:06:44Z</time>
      </trkpt>
      <trkpt lat="45.30706" lon="6.04866">
        <ele>1824.8</ele>
        <time>2021-01-16T12:06:45Z</time>
      </trkpt>
      <trkpt lat="45.30706" lon="6.04866">
        <ele>1824.8</ele>
        <time>2021-01-16T12:06:46Z</time>
      </trkpt>
      <trkpt lat="45.30706" lon="6.04866">
        <ele>1824.8</ele>
        <time>2021-01-16T12:06:47Z</time>
      </trkpt>
      <trkpt lat="45.30706" lon="6.04866">
        <ele>1824.8</ele>
        <time>2021-01-16T12:06:48Z</time>
      </trkpt>
      <trkpt lat="45.30706" lon="6.04866">
        <ele>1824.8</ele>
        <time>2021-01-16T12:06:49Z</time>
      </trkpt>
      <trkpt lat="45.30706" lon="6.04866">
        <ele>1824.8</ele>
        <time>2021-01-16T12:06:50Z</time>
      </trkpt>
      <trkpt lat="45.30706" lon="6.04866">
        <ele>1824.8</ele>
        <time>2021-01-16T12:06:51Z</time>
      </trkpt>
      <trkpt lat="45.30706" lon="6.04866">
        <ele>1824.8</ele>
        <time>2021-01-16T12:06:52Z</time>
      </trkpt>
      <trkpt lat="45.30706" lon="6.04866">
        <ele>1824.8</ele>
        <time>2021-01-16T12:06:53Z</time>
      </trkpt>
      <trkpt lat="45.30706" lon="6.04866">
        <ele>1824.8</ele>
        <time>2021-01-16T12:06:54Z</time>
      </trkpt>
      <trkpt lat="45.30706" lon="6.04866">
        <ele>1824.8</ele>
        <time>2021-01-16T12:06:55Z</time>
      </trkpt>
      <trkpt lat="45.30706" lon="6.04866">
        <ele>1824.8</ele>
        <time>2021-01-16T12:06:56Z</time>
      </trkpt>
      <trkpt lat="45.30706" lon="6.04866">
        <ele>1824.8</ele>
        <time>2021-01-16T12:06:57Z</time>
      </trkpt>
      <trkpt lat="45.30706" lon="6.04866">
        <ele>1824.6</ele>
        <time>2021-01-16T12:06:58Z</time>
      </trkpt>
      <trkpt lat="45.30706" lon="6.04866">
        <ele>1824.6</ele>
        <time>2021-01-16T12:06:59Z</time>
      </trkpt>
      <trkpt lat="45.30706" lon="6.04866">
        <ele>1824.8</ele>
        <time>2021-01-16T12:07:00Z</time>
      </trkpt>
      <trkpt lat="45.30706" lon="6.04866">
        <ele>1824.8</ele>
        <time>2021-01-16T12:07:01Z</time>
      </trkpt>
      <trkpt lat="45.30706" lon="6.04866">
        <ele>1824.8</ele>
        <time>2021-01-16T12:07:02Z</time>
      </trkpt>
      <trkpt lat="45.30706" lon="6.04866">
        <ele>1824.8</ele>
        <time>2021-01-16T12:07:03Z</time>
      </trkpt>
      <trkpt lat="45.30706" lon="6.04866">
        <ele>1824.8</ele>
        <time>2021-01-16T12:07:04Z</time>
      </trkpt>
      <trkpt lat="45.30706" lon="6.04866">
        <ele>1824.8</ele>
        <time>2021-01-16T12:07:05Z</time>
      </trkpt>
      <trkpt lat="45.30706" lon="6.04866">
        <ele>1824.8</ele>
        <time>2021-01-16T12:07:06Z</time>
      </trkpt>
      <trkpt lat="45.30706" lon="6.04866">
        <ele>1824.8</ele>
        <time>2021-01-16T12:07:07Z</time>
      </trkpt>
      <trkpt lat="45.30706" lon="6.04866">
        <ele>1824.8</ele>
        <time>2021-01-16T12:07:08Z</time>
      </trkpt>
      <trkpt lat="45.30706" lon="6.04866">
        <ele>1824.8</ele>
        <time>2021-01-16T12:07:09Z</time>
      </trkpt>
      <trkpt lat="45.30706" lon="6.04866">
        <ele>1824.8</ele>
        <time>2021-01-16T12:07:10Z</time>
      </trkpt>
      <trkpt lat="45.30706" lon="6.04866">
        <ele>1824.8</ele>
        <time>2021-01-16T12:07:11Z</time>
      </trkpt>
      <trkpt lat="45.30706" lon="6.04866">
        <ele>1824.8</ele>
        <time>2021-01-16T12:07:12Z</time>
      </trkpt>
      <trkpt lat="45.30706" lon="6.04867">
        <ele>1824.8</ele>
        <time>2021-01-16T12:07:13Z</time>
      </trkpt>
      <trkpt lat="45.30706" lon="6.04867">
        <ele>1824.8</ele>
        <time>2021-01-16T12:07:14Z</time>
      </trkpt>
      <trkpt lat="45.30706" lon="6.04867">
        <ele>1824.8</ele>
        <time>2021-01-16T12:07:15Z</time>
      </trkpt>
      <trkpt lat="45.30706" lon="6.04867">
        <ele>1824.8</ele>
        <time>2021-01-16T12:07:16Z</time>
      </trkpt>
      <trkpt lat="45.30706" lon="6.04867">
        <ele>1824.8</ele>
        <time>2021-01-16T12:07:17Z</time>
      </trkpt>
      <trkpt lat="45.30706" lon="6.04867">
        <ele>1824.8</ele>
        <time>2021-01-16T12:07:18Z</time>
      </trkpt>
      <trkpt lat="45.30706" lon="6.04867">
        <ele>1824.8</ele>
        <time>2021-01-16T12:07:19Z</time>
      </trkpt>
      <trkpt lat="45.30706" lon="6.04867">
        <ele>1824.8</ele>
        <time>2021-01-16T12:07:20Z</time>
      </trkpt>
      <trkpt lat="45.30706" lon="6.04867">
        <ele>1825</ele>
        <time>2021-01-16T12:07:21Z</time>
      </trkpt>
      <trkpt lat="45.30706" lon="6.04867">
        <ele>1825</ele>
        <time>2021-01-16T12:07:22Z</time>
      </trkpt>
      <trkpt lat="45.30706" lon="6.04867">
        <ele>1825</ele>
        <time>2021-01-16T12:07:23Z</time>
      </trkpt>
      <trkpt lat="45.30706" lon="6.04867">
        <ele>1824.8</ele>
        <time>2021-01-16T12:07:24Z</time>
      </trkpt>
      <trkpt lat="45.30706" lon="6.04867">
        <ele>1825</ele>
        <time>2021-01-16T12:07:25Z</time>
      </trkpt>
      <trkpt lat="45.30706" lon="6.04867">
        <ele>1825</ele>
        <time>2021-01-16T12:07:26Z</time>
      </trkpt>
      <trkpt lat="45.30706" lon="6.04867">
        <ele>1825</ele>
        <time>2021-01-16T12:07:27Z</time>
      </trkpt>
      <trkpt lat="45.30706" lon="6.04867">
        <ele>1825</ele>
        <time>2021-01-16T12:07:28Z</time>
      </trkpt>
      <trkpt lat="45.30706" lon="6.04867">
        <ele>1825</ele>
        <time>2021-01-16T12:07:29Z</time>
      </trkpt>
      <trkpt lat="45.30706" lon="6.04867">
        <ele>1825</ele>
        <time>2021-01-16T12:07:30Z</time>
      </trkpt>
      <trkpt lat="45.30706" lon="6.04867">
        <ele>1825</ele>
        <time>2021-01-16T12:07:31Z</time>
      </trkpt>
      <trkpt lat="45.30706" lon="6.04867">
        <ele>1825</ele>
        <time>2021-01-16T12:07:32Z</time>
      </trkpt>
      <trkpt lat="45.30706" lon="6.04867">
        <ele>1825</ele>
        <time>2021-01-16T12:07:33Z</time>
      </trkpt>
      <trkpt lat="45.30706" lon="6.04867">
        <ele>1825</ele>
        <time>2021-01-16T12:07:34Z</time>
      </trkpt>
      <trkpt lat="45.30706" lon="6.04867">
        <ele>1825</ele>
        <time>2021-01-16T12:07:35Z</time>
      </trkpt>
      <trkpt lat="45.30706" lon="6.04867">
        <ele>1825</ele>
        <time>2021-01-16T12:07:36Z</time>
      </trkpt>
      <trkpt lat="45.30706" lon="6.04867">
        <ele>1825</ele>
        <time>2021-01-16T12:07:37Z</time>
      </trkpt>
      <trkpt lat="45.30706" lon="6.04867">
        <ele>1825</ele>
        <time>2021-01-16T12:07:38Z</time>
      </trkpt>
      <trkpt lat="45.30706" lon="6.04867">
        <ele>1825</ele>
        <time>2021-01-16T12:07:39Z</time>
      </trkpt>
      <trkpt lat="45.30706" lon="6.04867">
        <ele>1825</ele>
        <time>2021-01-16T12:07:40Z</time>
      </trkpt>
      <trkpt lat="45.30706" lon="6.04867">
        <ele>1825</ele>
        <time>2021-01-16T12:07:41Z</time>
      </trkpt>
      <trkpt lat="45.30706" lon="6.04867">
        <ele>1825</ele>
        <time>2021-01-16T12:07:42Z</time>
      </trkpt>
      <trkpt lat="45.30706" lon="6.04867">
        <ele>1825</ele>
        <time>2021-01-16T12:07:43Z</time>
      </trkpt>
      <trkpt lat="45.30706" lon="6.04867">
        <ele>1825</ele>
        <time>2021-01-16T12:07:44Z</time>
      </trkpt>
      <trkpt lat="45.30706" lon="6.04867">
        <ele>1825</ele>
        <time>2021-01-16T12:07:45Z</time>
      </trkpt>
      <trkpt lat="45.30706" lon="6.04867">
        <ele>1825</ele>
        <time>2021-01-16T12:07:46Z</time>
      </trkpt>
      <trkpt lat="45.30706" lon="6.04868">
        <ele>1825</ele>
        <time>2021-01-16T12:07:47Z</time>
      </trkpt>
      <trkpt lat="45.30706" lon="6.04868">
        <ele>1825</ele>
        <time>2021-01-16T12:07:48Z</time>
      </trkpt>
      <trkpt lat="45.30706" lon="6.04868">
        <ele>1825</ele>
        <time>2021-01-16T12:07:49Z</time>
      </trkpt>
      <trkpt lat="45.30706" lon="6.04868">
        <ele>1825</ele>
        <time>2021-01-16T12:07:50Z</time>
      </trkpt>
      <trkpt lat="45.30706" lon="6.04868">
        <ele>1825</ele>
        <time>2021-01-16T12:07:51Z</time>
      </trkpt>
      <trkpt lat="45.30706" lon="6.04868">
        <ele>1825</ele>
        <time>2021-01-16T12:07:52Z</time>
      </trkpt>
      <trkpt lat="45.30706" lon="6.04868">
        <ele>1825</ele>
        <time>2021-01-16T12:07:53Z</time>
      </trkpt>
      <trkpt lat="45.30706" lon="6.04868">
        <ele>1825.2</ele>
        <time>2021-01-16T12:07:54Z</time>
      </trkpt>
      <trkpt lat="45.30706" lon="6.04868">
        <ele>1825.2</ele>
        <time>2021-01-16T12:07:55Z</time>
      </trkpt>
      <trkpt lat="45.30706" lon="6.04868">
        <ele>1825.2</ele>
        <time>2021-01-16T12:07:56Z</time>
      </trkpt>
      <trkpt lat="45.30706" lon="6.04868">
        <ele>1825.2</ele>
        <time>2021-01-16T12:07:57Z</time>
      </trkpt>
      <trkpt lat="45.30706" lon="6.04868">
        <ele>1825.2</ele>
        <time>2021-01-16T12:07:58Z</time>
      </trkpt>
      <trkpt lat="45.30706" lon="6.04868">
        <ele>1825.2</ele>
        <time>2021-01-16T12:07:59Z</time>
      </trkpt>
      <trkpt lat="45.30706" lon="6.04868">
        <ele>1825.2</ele>
        <time>2021-01-16T12:08:00Z</time>
      </trkpt>
      <trkpt lat="45.30706" lon="6.04868">
        <ele>1825.2</ele>
        <time>2021-01-16T12:08:01Z</time>
      </trkpt>
      <trkpt lat="45.30706" lon="6.04868">
        <ele>1825.2</ele>
        <time>2021-01-16T12:08:02Z</time>
      </trkpt>
      <trkpt lat="45.30706" lon="6.04868">
        <ele>1825.2</ele>
        <time>2021-01-16T12:08:03Z</time>
      </trkpt>
      <trkpt lat="45.30706" lon="6.04868">
        <ele>1825.2</ele>
        <time>2021-01-16T12:08:04Z</time>
      </trkpt>
      <trkpt lat="45.30706" lon="6.04868">
        <ele>1825.2</ele>
        <time>2021-01-16T12:08:05Z</time>
      </trkpt>
      <trkpt lat="45.30706" lon="6.04868">
        <ele>1825.2</ele>
        <time>2021-01-16T12:08:06Z</time>
      </trkpt>
      <trkpt lat="45.30706" lon="6.04868">
        <ele>1825.2</ele>
        <time>2021-01-16T12:08:07Z</time>
      </trkpt>
      <trkpt lat="45.30706" lon="6.04868">
        <ele>1825.2</ele>
        <time>2021-01-16T12:08:08Z</time>
      </trkpt>
      <trkpt lat="45.30706" lon="6.04868">
        <ele>1825.2</ele>
        <time>2021-01-16T12:08:09Z</time>
      </trkpt>
      <trkpt lat="45.30706" lon="6.04868">
        <ele>1825.2</ele>
        <time>2021-01-16T12:08:10Z</time>
      </trkpt>
      <trkpt lat="45.30706" lon="6.04868">
        <ele>1825.2</ele>
        <time>2021-01-16T12:08:11Z</time>
      </trkpt>
      <trkpt lat="45.30706" lon="6.04868">
        <ele>1825.2</ele>
        <time>2021-01-16T12:08:12Z</time>
      </trkpt>
      <trkpt lat="45.30706" lon="6.04868">
        <ele>1825.4</ele>
        <time>2021-01-16T12:08:13Z</time>
      </trkpt>
      <trkpt lat="45.30706" lon="6.04868">
        <ele>1825.4</ele>
        <time>2021-01-16T12:08:14Z</time>
      </trkpt>
      <trkpt lat="45.30706" lon="6.04868">
        <ele>1825.4</ele>
        <time>2021-01-16T12:08:15Z</time>
      </trkpt>
      <trkpt lat="45.30706" lon="6.04868">
        <ele>1825.4</ele>
        <time>2021-01-16T12:08:16Z</time>
      </trkpt>
      <trkpt lat="45.30706" lon="6.04868">
        <ele>1825.4</ele>
        <time>2021-01-16T12:08:17Z</time>
      </trkpt>
      <trkpt lat="45.30706" lon="6.04868">
        <ele>1825.4</ele>
        <time>2021-01-16T12:08:18Z</time>
      </trkpt>
      <trkpt lat="45.30706" lon="6.04868">
        <ele>1825.4</ele>
        <time>2021-01-16T12:08:19Z</time>
      </trkpt>
      <trkpt lat="45.30706" lon="6.04868">
        <ele>1825.4</ele>
        <time>2021-01-16T12:08:20Z</time>
      </trkpt>
      <trkpt lat="45.30706" lon="6.04869">
        <ele>1825.4</ele>
        <time>2021-01-16T12:08:21Z</time>
      </trkpt>
      <trkpt lat="45.30706" lon="6.04869">
        <ele>1825.4</ele>
        <time>2021-01-16T12:08:22Z</time>
      </trkpt>
      <trkpt lat="45.30706" lon="6.04869">
        <ele>1825.4</ele>
        <time>2021-01-16T12:08:23Z</time>
      </trkpt>
      <trkpt lat="45.30706" lon="6.04869">
        <ele>1825.4</ele>
        <time>2021-01-16T12:08:24Z</time>
      </trkpt>
      <trkpt lat="45.30706" lon="6.04869">
        <ele>1825.4</ele>
        <time>2021-01-16T12:08:25Z</time>
      </trkpt>
      <trkpt lat="45.30706" lon="6.04869">
        <ele>1825.4</ele>
        <time>2021-01-16T12:08:26Z</time>
      </trkpt>
      <trkpt lat="45.30706" lon="6.04869">
        <ele>1825.4</ele>
        <time>2021-01-16T12:08:27Z</time>
      </trkpt>
      <trkpt lat="45.30706" lon="6.04869">
        <ele>1825.4</ele>
        <time>2021-01-16T12:08:28Z</time>
      </trkpt>
      <trkpt lat="45.30706" lon="6.04869">
        <ele>1825.4</ele>
        <time>2021-01-16T12:08:29Z</time>
      </trkpt>
      <trkpt lat="45.30706" lon="6.04869">
        <ele>1825.4</ele>
        <time>2021-01-16T12:08:30Z</time>
      </trkpt>
      <trkpt lat="45.30706" lon="6.04869">
        <ele>1825.4</ele>
        <time>2021-01-16T12:08:31Z</time>
      </trkpt>
      <trkpt lat="45.30706" lon="6.04869">
        <ele>1825.4</ele>
        <time>2021-01-16T12:08:32Z</time>
      </trkpt>
      <trkpt lat="45.30706" lon="6.04869">
        <ele>1825.4</ele>
        <time>2021-01-16T12:08:33Z</time>
      </trkpt>
      <trkpt lat="45.30706" lon="6.04869">
        <ele>1825.4</ele>
        <time>2021-01-16T12:08:34Z</time>
      </trkpt>
      <trkpt lat="45.30706" lon="6.04869">
        <ele>1825.4</ele>
        <time>2021-01-16T12:08:35Z</time>
      </trkpt>
      <trkpt lat="45.30706" lon="6.04869">
        <ele>1825.4</ele>
        <time>2021-01-16T12:08:36Z</time>
      </trkpt>
      <trkpt lat="45.30706" lon="6.04869">
        <ele>1825.4</ele>
        <time>2021-01-16T12:08:37Z</time>
      </trkpt>
      <trkpt lat="45.30706" lon="6.04869">
        <ele>1825.4</ele>
        <time>2021-01-16T12:08:38Z</time>
      </trkpt>
      <trkpt lat="45.30706" lon="6.04869">
        <ele>1825.4</ele>
        <time>2021-01-16T12:08:39Z</time>
      </trkpt>
      <trkpt lat="45.30706" lon="6.04869">
        <ele>1825.4</ele>
        <time>2021-01-16T12:08:40Z</time>
      </trkpt>
      <trkpt lat="45.30706" lon="6.04869">
        <ele>1825.4</ele>
        <time>2021-01-16T12:08:41Z</time>
      </trkpt>
      <trkpt lat="45.30706" lon="6.04869">
        <ele>1825.4</ele>
        <time>2021-01-16T12:08:42Z</time>
      </trkpt>
      <trkpt lat="45.30706" lon="6.04869">
        <ele>1825.4</ele>
        <time>2021-01-16T12:08:43Z</time>
      </trkpt>
      <trkpt lat="45.30706" lon="6.04869">
        <ele>1825.4</ele>
        <time>2021-01-16T12:08:44Z</time>
      </trkpt>
      <trkpt lat="45.30706" lon="6.04869">
        <ele>1825.6</ele>
        <time>2021-01-16T12:08:45Z</time>
      </trkpt>
      <trkpt lat="45.30706" lon="6.04869">
        <ele>1825.6</ele>
        <time>2021-01-16T12:08:46Z</time>
      </trkpt>
      <trkpt lat="45.30706" lon="6.04869">
        <ele>1825.6</ele>
        <time>2021-01-16T12:08:47Z</time>
      </trkpt>
      <trkpt lat="45.30706" lon="6.04869">
        <ele>1825.6</ele>
        <time>2021-01-16T12:08:48Z</time>
      </trkpt>
      <trkpt lat="45.30706" lon="6.04869">
        <ele>1825.6</ele>
        <time>2021-01-16T12:08:49Z</time>
      </trkpt>
      <trkpt lat="45.30706" lon="6.04869">
        <ele>1825.6</ele>
        <time>2021-01-16T12:08:50Z</time>
      </trkpt>
      <trkpt lat="45.30706" lon="6.04869">
        <ele>1825.6</ele>
        <time>2021-01-16T12:08:51Z</time>
      </trkpt>
      <trkpt lat="45.30706" lon="6.04869">
        <ele>1825.6</ele>
        <time>2021-01-16T12:08:52Z</time>
      </trkpt>
      <trkpt lat="45.30706" lon="6.04869">
        <ele>1825.6</ele>
        <time>2021-01-16T12:08:53Z</time>
      </trkpt>
      <trkpt lat="45.30706" lon="6.04869">
        <ele>1825.6</ele>
        <time>2021-01-16T12:08:54Z</time>
      </trkpt>
      <trkpt lat="45.30706" lon="6.0487">
        <ele>1825.6</ele>
        <time>2021-01-16T12:08:55Z</time>
      </trkpt>
      <trkpt lat="45.30706" lon="6.0487">
        <ele>1825.6</ele>
        <time>2021-01-16T12:08:56Z</time>
      </trkpt>
      <trkpt lat="45.30706" lon="6.0487">
        <ele>1825.6</ele>
        <time>2021-01-16T12:08:57Z</time>
      </trkpt>
      <trkpt lat="45.30706" lon="6.0487">
        <ele>1825.6</ele>
        <time>2021-01-16T12:08:58Z</time>
      </trkpt>
      <trkpt lat="45.30706" lon="6.0487">
        <ele>1825.6</ele>
        <time>2021-01-16T12:08:59Z</time>
      </trkpt>
      <trkpt lat="45.30706" lon="6.0487">
        <ele>1825.6</ele>
        <time>2021-01-16T12:09:00Z</time>
      </trkpt>
      <trkpt lat="45.30706" lon="6.0487">
        <ele>1825.6</ele>
        <time>2021-01-16T12:09:01Z</time>
      </trkpt>
      <trkpt lat="45.30706" lon="6.0487">
        <ele>1825.6</ele>
        <time>2021-01-16T12:09:02Z</time>
      </trkpt>
      <trkpt lat="45.30706" lon="6.0487">
        <ele>1825.6</ele>
        <time>2021-01-16T12:09:03Z</time>
      </trkpt>
      <trkpt lat="45.30706" lon="6.0487">
        <ele>1825.6</ele>
        <time>2021-01-16T12:09:04Z</time>
      </trkpt>
      <trkpt lat="45.30706" lon="6.0487">
        <ele>1825.6</ele>
        <time>2021-01-16T12:09:05Z</time>
      </trkpt>
      <trkpt lat="45.30706" lon="6.0487">
        <ele>1825.6</ele>
        <time>2021-01-16T12:09:06Z</time>
      </trkpt>
      <trkpt lat="45.30706" lon="6.0487">
        <ele>1825.6</ele>
        <time>2021-01-16T12:09:07Z</time>
      </trkpt>
      <trkpt lat="45.30706" lon="6.0487">
        <ele>1825.6</ele>
        <time>2021-01-16T12:09:08Z</time>
      </trkpt>
      <trkpt lat="45.30706" lon="6.0487">
        <ele>1825.6</ele>
        <time>2021-01-16T12:09:09Z</time>
      </trkpt>
      <trkpt lat="45.30706" lon="6.0487">
        <ele>1825.6</ele>
        <time>2021-01-16T12:09:10Z</time>
      </trkpt>
      <trkpt lat="45.30706" lon="6.0487">
        <ele>1825.6</ele>
        <time>2021-01-16T12:09:11Z</time>
      </trkpt>
      <trkpt lat="45.30706" lon="6.0487">
        <ele>1825.4</ele>
        <time>2021-01-16T12:09:12Z</time>
      </trkpt>
      <trkpt lat="45.30706" lon="6.0487">
        <ele>1825.6</ele>
        <time>2021-01-16T12:09:13Z</time>
      </trkpt>
      <trkpt lat="45.30706" lon="6.0487">
        <ele>1825.6</ele>
        <time>2021-01-16T12:09:14Z</time>
      </trkpt>
      <trkpt lat="45.30706" lon="6.0487">
        <ele>1825.6</ele>
        <time>2021-01-16T12:09:15Z</time>
      </trkpt>
      <trkpt lat="45.30706" lon="6.0487">
        <ele>1825.6</ele>
        <time>2021-01-16T12:09:16Z</time>
      </trkpt>
      <trkpt lat="45.30706" lon="6.0487">
        <ele>1825.6</ele>
        <time>2021-01-16T12:09:17Z</time>
      </trkpt>
      <trkpt lat="45.30706" lon="6.0487">
        <ele>1825.6</ele>
        <time>2021-01-16T12:09:18Z</time>
      </trkpt>
      <trkpt lat="45.30706" lon="6.0487">
        <ele>1825.6</ele>
        <time>2021-01-16T12:09:19Z</time>
      </trkpt>
      <trkpt lat="45.30706" lon="6.0487">
        <ele>1825.6</ele>
        <time>2021-01-16T12:09:20Z</time>
      </trkpt>
      <trkpt lat="45.30706" lon="6.0487">
        <ele>1825.4</ele>
        <time>2021-01-16T12:09:21Z</time>
      </trkpt>
      <trkpt lat="45.30706" lon="6.0487">
        <ele>1825.6</ele>
        <time>2021-01-16T12:09:22Z</time>
      </trkpt>
      <trkpt lat="45.30706" lon="6.0487">
        <ele>1825.6</ele>
        <time>2021-01-16T12:09:23Z</time>
      </trkpt>
      <trkpt lat="45.30706" lon="6.0487">
        <ele>1825.6</ele>
        <time>2021-01-16T12:09:24Z</time>
      </trkpt>
      <trkpt lat="45.30706" lon="6.0487">
        <ele>1825.6</ele>
        <time>2021-01-16T12:09:25Z</time>
      </trkpt>
      <trkpt lat="45.30706" lon="6.0487">
        <ele>1825.6</ele>
        <time>2021-01-16T12:09:26Z</time>
      </trkpt>
      <trkpt lat="45.30706" lon="6.0487">
        <ele>1825.6</ele>
        <time>2021-01-16T12:09:27Z</time>
      </trkpt>
      <trkpt lat="45.30706" lon="6.0487">
        <ele>1825.6</ele>
        <time>2021-01-16T12:09:28Z</time>
      </trkpt>
      <trkpt lat="45.30706" lon="6.04871">
        <ele>1825.6</ele>
        <time>2021-01-16T12:09:29Z</time>
      </trkpt>
      <trkpt lat="45.30706" lon="6.04871">
        <ele>1825.6</ele>
        <time>2021-01-16T12:09:30Z</time>
      </trkpt>
      <trkpt lat="45.30706" lon="6.04871">
        <ele>1825.6</ele>
        <time>2021-01-16T12:09:31Z</time>
      </trkpt>
      <trkpt lat="45.30706" lon="6.04871">
        <ele>1825.6</ele>
        <time>2021-01-16T12:09:32Z</time>
      </trkpt>
      <trkpt lat="45.30706" lon="6.04871">
        <ele>1825.6</ele>
        <time>2021-01-16T12:09:33Z</time>
      </trkpt>
      <trkpt lat="45.30706" lon="6.04871">
        <ele>1825.6</ele>
        <time>2021-01-16T12:09:34Z</time>
      </trkpt>
      <trkpt lat="45.30706" lon="6.04871">
        <ele>1825.6</ele>
        <time>2021-01-16T12:09:35Z</time>
      </trkpt>
      <trkpt lat="45.30706" lon="6.04871">
        <ele>1825.6</ele>
        <time>2021-01-16T12:09:36Z</time>
      </trkpt>
      <trkpt lat="45.30706" lon="6.04871">
        <ele>1825.6</ele>
        <time>2021-01-16T12:09:37Z</time>
      </trkpt>
      <trkpt lat="45.30706" lon="6.04871">
        <ele>1825.6</ele>
        <time>2021-01-16T12:09:38Z</time>
      </trkpt>
      <trkpt lat="45.30706" lon="6.04871">
        <ele>1825.6</ele>
        <time>2021-01-16T12:09:39Z</time>
      </trkpt>
      <trkpt lat="45.30706" lon="6.04871">
        <ele>1825.6</ele>
        <time>2021-01-16T12:09:40Z</time>
      </trkpt>
      <trkpt lat="45.30706" lon="6.04871">
        <ele>1825.6</ele>
        <time>2021-01-16T12:09:41Z</time>
      </trkpt>
      <trkpt lat="45.30706" lon="6.04871">
        <ele>1825.6</ele>
        <time>2021-01-16T12:09:42Z</time>
      </trkpt>
      <trkpt lat="45.30706" lon="6.04871">
        <ele>1825.6</ele>
        <time>2021-01-16T12:09:43Z</time>
      </trkpt>
      <trkpt lat="45.30706" lon="6.04871">
        <ele>1825.6</ele>
        <time>2021-01-16T12:09:44Z</time>
      </trkpt>
      <trkpt lat="45.30706" lon="6.04871">
        <ele>1825.6</ele>
        <time>2021-01-16T12:09:45Z</time>
      </trkpt>
      <trkpt lat="45.30706" lon="6.04871">
        <ele>1825.6</ele>
        <time>2021-01-16T12:09:46Z</time>
      </trkpt>
      <trkpt lat="45.30706" lon="6.04871">
        <ele>1825.6</ele>
        <time>2021-01-16T12:09:47Z</time>
      </trkpt>
      <trkpt lat="45.30706" lon="6.04871">
        <ele>1825.6</ele>
        <time>2021-01-16T12:09:48Z</time>
      </trkpt>
      <trkpt lat="45.30706" lon="6.04871">
        <ele>1825.8</ele>
        <time>2021-01-16T12:09:49Z</time>
      </trkpt>
      <trkpt lat="45.30706" lon="6.04871">
        <ele>1825.8</ele>
        <time>2021-01-16T12:09:50Z</time>
      </trkpt>
      <trkpt lat="45.30706" lon="6.04871">
        <ele>1825.8</ele>
        <time>2021-01-16T12:09:51Z</time>
      </trkpt>
      <trkpt lat="45.30706" lon="6.04871">
        <ele>1825.8</ele>
        <time>2021-01-16T12:09:52Z</time>
      </trkpt>
      <trkpt lat="45.30706" lon="6.04871">
        <ele>1825.8</ele>
        <time>2021-01-16T12:09:53Z</time>
      </trkpt>
      <trkpt lat="45.30706" lon="6.04871">
        <ele>1825.8</ele>
        <time>2021-01-16T12:09:54Z</time>
      </trkpt>
      <trkpt lat="45.30706" lon="6.04871">
        <ele>1825.8</ele>
        <time>2021-01-16T12:09:55Z</time>
      </trkpt>
      <trkpt lat="45.30706" lon="6.04871">
        <ele>1825.8</ele>
        <time>2021-01-16T12:09:56Z</time>
      </trkpt>
      <trkpt lat="45.30706" lon="6.04871">
        <ele>1825.8</ele>
        <time>2021-01-16T12:09:57Z</time>
      </trkpt>
      <trkpt lat="45.30706" lon="6.04871">
        <ele>1825.8</ele>
        <time>2021-01-16T12:09:58Z</time>
      </trkpt>
      <trkpt lat="45.30706" lon="6.04871">
        <ele>1825.8</ele>
        <time>2021-01-16T12:09:59Z</time>
      </trkpt>
      <trkpt lat="45.30706" lon="6.04871">
        <ele>1825.8</ele>
        <time>2021-01-16T12:10:00Z</time>
      </trkpt>
      <trkpt lat="45.30706" lon="6.04871">
        <ele>1825.6</ele>
        <time>2021-01-16T12:10:01Z</time>
      </trkpt>
      <trkpt lat="45.30706" lon="6.04871">
        <ele>1825.6</ele>
        <time>2021-01-16T12:10:02Z</time>
      </trkpt>
      <trkpt lat="45.30706" lon="6.04872">
        <ele>1825.6</ele>
        <time>2021-01-16T12:10:03Z</time>
      </trkpt>
      <trkpt lat="45.30706" lon="6.04872">
        <ele>1825.6</ele>
        <time>2021-01-16T12:10:04Z</time>
      </trkpt>
      <trkpt lat="45.30706" lon="6.04872">
        <ele>1825.6</ele>
        <time>2021-01-16T12:10:05Z</time>
      </trkpt>
      <trkpt lat="45.30706" lon="6.04872">
        <ele>1825.6</ele>
        <time>2021-01-16T12:10:06Z</time>
      </trkpt>
      <trkpt lat="45.30706" lon="6.04872">
        <ele>1825.4</ele>
        <time>2021-01-16T12:10:07Z</time>
      </trkpt>
      <trkpt lat="45.30706" lon="6.04872">
        <ele>1825.6</ele>
        <time>2021-01-16T12:10:08Z</time>
      </trkpt>
      <trkpt lat="45.30706" lon="6.04872">
        <ele>1825.4</ele>
        <time>2021-01-16T12:10:09Z</time>
      </trkpt>
      <trkpt lat="45.30706" lon="6.04872">
        <ele>1825.4</ele>
        <time>2021-01-16T12:10:10Z</time>
      </trkpt>
      <trkpt lat="45.30706" lon="6.04872">
        <ele>1825.4</ele>
        <time>2021-01-16T12:10:11Z</time>
      </trkpt>
      <trkpt lat="45.30706" lon="6.04872">
        <ele>1825.6</ele>
        <time>2021-01-16T12:10:12Z</time>
      </trkpt>
      <trkpt lat="45.30706" lon="6.04872">
        <ele>1825.6</ele>
        <time>2021-01-16T12:10:13Z</time>
      </trkpt>
      <trkpt lat="45.30706" lon="6.04872">
        <ele>1825.8</ele>
        <time>2021-01-16T12:10:14Z</time>
      </trkpt>
      <trkpt lat="45.30706" lon="6.04872">
        <ele>1825.8</ele>
        <time>2021-01-16T12:10:15Z</time>
      </trkpt>
      <trkpt lat="45.30706" lon="6.04872">
        <ele>1825.6</ele>
        <time>2021-01-16T12:10:16Z</time>
      </trkpt>
      <trkpt lat="45.30706" lon="6.04872">
        <ele>1825.6</ele>
        <time>2021-01-16T12:10:17Z</time>
      </trkpt>
      <trkpt lat="45.30706" lon="6.04872">
        <ele>1825.6</ele>
        <time>2021-01-16T12:10:18Z</time>
      </trkpt>
      <trkpt lat="45.30706" lon="6.04872">
        <ele>1825.6</ele>
        <time>2021-01-16T12:10:19Z</time>
      </trkpt>
      <trkpt lat="45.30706" lon="6.04872">
        <ele>1825.6</ele>
        <time>2021-01-16T12:10:20Z</time>
      </trkpt>
      <trkpt lat="45.30706" lon="6.04872">
        <ele>1825.6</ele>
        <time>2021-01-16T12:10:21Z</time>
      </trkpt>
      <trkpt lat="45.30706" lon="6.04872">
        <ele>1825.6</ele>
        <time>2021-01-16T12:10:22Z</time>
      </trkpt>
      <trkpt lat="45.30706" lon="6.04872">
        <ele>1825.6</ele>
        <time>2021-01-16T12:10:23Z</time>
      </trkpt>
      <trkpt lat="45.30706" lon="6.04872">
        <ele>1825.6</ele>
        <time>2021-01-16T12:10:24Z</time>
      </trkpt>
      <trkpt lat="45.30706" lon="6.04872">
        <ele>1825.8</ele>
        <time>2021-01-16T12:10:25Z</time>
      </trkpt>
      <trkpt lat="45.30706" lon="6.04872">
        <ele>1825.8</ele>
        <time>2021-01-16T12:10:26Z</time>
      </trkpt>
      <trkpt lat="45.30706" lon="6.04872">
        <ele>1825.8</ele>
        <time>2021-01-16T12:10:27Z</time>
      </trkpt>
      <trkpt lat="45.30706" lon="6.04872">
        <ele>1825.8</ele>
        <time>2021-01-16T12:10:28Z</time>
      </trkpt>
      <trkpt lat="45.30706" lon="6.04872">
        <ele>1825.8</ele>
        <time>2021-01-16T12:10:29Z</time>
      </trkpt>
      <trkpt lat="45.30706" lon="6.04872">
        <ele>1825.8</ele>
        <time>2021-01-16T12:10:30Z</time>
      </trkpt>
      <trkpt lat="45.30706" lon="6.04872">
        <ele>1825.8</ele>
        <time>2021-01-16T12:10:31Z</time>
      </trkpt>
      <trkpt lat="45.30706" lon="6.04872">
        <ele>1825.8</ele>
        <time>2021-01-16T12:10:32Z</time>
      </trkpt>
      <trkpt lat="45.30706" lon="6.04872">
        <ele>1825.8</ele>
        <time>2021-01-16T12:10:33Z</time>
      </trkpt>
      <trkpt lat="45.30706" lon="6.04872">
        <ele>1825.8</ele>
        <time>2021-01-16T12:10:34Z</time>
      </trkpt>
      <trkpt lat="45.30706" lon="6.04872">
        <ele>1825.8</ele>
        <time>2021-01-16T12:10:35Z</time>
      </trkpt>
      <trkpt lat="45.30706" lon="6.04872">
        <ele>1825.8</ele>
        <time>2021-01-16T12:10:36Z</time>
      </trkpt>
      <trkpt lat="45.30706" lon="6.04873">
        <ele>1825.8</ele>
        <time>2021-01-16T12:10:37Z</time>
      </trkpt>
      <trkpt lat="45.30706" lon="6.04873">
        <ele>1825.8</ele>
        <time>2021-01-16T12:10:38Z</time>
      </trkpt>
      <trkpt lat="45.30706" lon="6.04873">
        <ele>1825.8</ele>
        <time>2021-01-16T12:10:39Z</time>
      </trkpt>
      <trkpt lat="45.30706" lon="6.04873">
        <ele>1825.8</ele>
        <time>2021-01-16T12:10:40Z</time>
      </trkpt>
      <trkpt lat="45.30706" lon="6.04873">
        <ele>1825.8</ele>
        <time>2021-01-16T12:10:41Z</time>
      </trkpt>
      <trkpt lat="45.30706" lon="6.04873">
        <ele>1825.8</ele>
        <time>2021-01-16T12:10:42Z</time>
      </trkpt>
      <trkpt lat="45.30706" lon="6.04873">
        <ele>1825.8</ele>
        <time>2021-01-16T12:10:43Z</time>
      </trkpt>
      <trkpt lat="45.30706" lon="6.04873">
        <ele>1825.8</ele>
        <time>2021-01-16T12:10:44Z</time>
      </trkpt>
      <trkpt lat="45.30706" lon="6.04873">
        <ele>1825.8</ele>
        <time>2021-01-16T12:10:45Z</time>
      </trkpt>
      <trkpt lat="45.30706" lon="6.04873">
        <ele>1825.8</ele>
        <time>2021-01-16T12:10:46Z</time>
      </trkpt>
      <trkpt lat="45.30706" lon="6.04873">
        <ele>1825.8</ele>
        <time>2021-01-16T12:10:47Z</time>
      </trkpt>
      <trkpt lat="45.30706" lon="6.04873">
        <ele>1825.8</ele>
        <time>2021-01-16T12:10:48Z</time>
      </trkpt>
      <trkpt lat="45.30706" lon="6.04873">
        <ele>1825.8</ele>
        <time>2021-01-16T12:10:49Z</time>
      </trkpt>
      <trkpt lat="45.30706" lon="6.04873">
        <ele>1826</ele>
        <time>2021-01-16T12:10:50Z</time>
      </trkpt>
      <trkpt lat="45.30706" lon="6.04873">
        <ele>1826</ele>
        <time>2021-01-16T12:10:51Z</time>
      </trkpt>
      <trkpt lat="45.30706" lon="6.04873">
        <ele>1826</ele>
        <time>2021-01-16T12:10:52Z</time>
      </trkpt>
      <trkpt lat="45.30706" lon="6.04873">
        <ele>1826</ele>
        <time>2021-01-16T12:10:53Z</time>
      </trkpt>
      <trkpt lat="45.30706" lon="6.04873">
        <ele>1826</ele>
        <time>2021-01-16T12:10:54Z</time>
      </trkpt>
      <trkpt lat="45.30706" lon="6.04873">
        <ele>1826</ele>
        <time>2021-01-16T12:10:55Z</time>
      </trkpt>
      <trkpt lat="45.30706" lon="6.04873">
        <ele>1826</ele>
        <time>2021-01-16T12:10:56Z</time>
      </trkpt>
      <trkpt lat="45.30706" lon="6.04873">
        <ele>1826</ele>
        <time>2021-01-16T12:10:57Z</time>
      </trkpt>
      <trkpt lat="45.30706" lon="6.04873">
        <ele>1826</ele>
        <time>2021-01-16T12:10:58Z</time>
      </trkpt>
      <trkpt lat="45.30706" lon="6.04873">
        <ele>1826</ele>
        <time>2021-01-16T12:10:59Z</time>
      </trkpt>
      <trkpt lat="45.30706" lon="6.04873">
        <ele>1826</ele>
        <time>2021-01-16T12:11:00Z</time>
      </trkpt>
      <trkpt lat="45.30706" lon="6.04873">
        <ele>1826</ele>
        <time>2021-01-16T12:11:01Z</time>
      </trkpt>
      <trkpt lat="45.30706" lon="6.04873">
        <ele>1826</ele>
        <time>2021-01-16T12:11:02Z</time>
      </trkpt>
      <trkpt lat="45.30706" lon="6.04873">
        <ele>1826</ele>
        <time>2021-01-16T12:11:03Z</time>
      </trkpt>
      <trkpt lat="45.30706" lon="6.04873">
        <ele>1826</ele>
        <time>2021-01-16T12:11:04Z</time>
      </trkpt>
      <trkpt lat="45.30706" lon="6.04873">
        <ele>1826</ele>
        <time>2021-01-16T12:11:05Z</time>
      </trkpt>
      <trkpt lat="45.30706" lon="6.04873">
        <ele>1826</ele>
        <time>2021-01-16T12:11:06Z</time>
      </trkpt>
      <trkpt lat="45.30706" lon="6.04873">
        <ele>1826</ele>
        <time>2021-01-16T12:11:07Z</time>
      </trkpt>
      <trkpt lat="45.30706" lon="6.04873">
        <ele>1826</ele>
        <time>2021-01-16T12:11:08Z</time>
      </trkpt>
      <trkpt lat="45.30706" lon="6.04873">
        <ele>1826</ele>
        <time>2021-01-16T12:11:09Z</time>
      </trkpt>
      <trkpt lat="45.30706" lon="6.04873">
        <ele>1826</ele>
        <time>2021-01-16T12:11:10Z</time>
      </trkpt>
      <trkpt lat="45.30706" lon="6.04874">
        <ele>1826</ele>
        <time>2021-01-16T12:11:11Z</time>
      </trkpt>
      <trkpt lat="45.30706" lon="6.04874">
        <ele>1826</ele>
        <time>2021-01-16T12:11:12Z</time>
      </trkpt>
      <trkpt lat="45.30706" lon="6.04874">
        <ele>1826</ele>
        <time>2021-01-16T12:11:13Z</time>
      </trkpt>
      <trkpt lat="45.30706" lon="6.04874">
        <ele>1826.2</ele>
        <time>2021-01-16T12:11:14Z</time>
      </trkpt>
      <trkpt lat="45.30706" lon="6.04874">
        <ele>1826.2</ele>
        <time>2021-01-16T12:11:15Z</time>
      </trkpt>
      <trkpt lat="45.30706" lon="6.04874">
        <ele>1826.2</ele>
        <time>2021-01-16T12:11:16Z</time>
      </trkpt>
      <trkpt lat="45.30706" lon="6.04874">
        <ele>1826.2</ele>
        <time>2021-01-16T12:11:17Z</time>
      </trkpt>
      <trkpt lat="45.30706" lon="6.04874">
        <ele>1826.2</ele>
        <time>2021-01-16T12:11:18Z</time>
      </trkpt>
      <trkpt lat="45.30706" lon="6.04874">
        <ele>1826.2</ele>
        <time>2021-01-16T12:11:19Z</time>
      </trkpt>
      <trkpt lat="45.30706" lon="6.04874">
        <ele>1826.2</ele>
        <time>2021-01-16T12:11:20Z</time>
      </trkpt>
      <trkpt lat="45.30706" lon="6.04874">
        <ele>1826.2</ele>
        <time>2021-01-16T12:11:21Z</time>
      </trkpt>
      <trkpt lat="45.30706" lon="6.04874">
        <ele>1826.2</ele>
        <time>2021-01-16T12:11:22Z</time>
      </trkpt>
      <trkpt lat="45.30706" lon="6.04874">
        <ele>1826.2</ele>
        <time>2021-01-16T12:11:23Z</time>
      </trkpt>
      <trkpt lat="45.30706" lon="6.04874">
        <ele>1826.2</ele>
        <time>2021-01-16T12:11:24Z</time>
      </trkpt>
      <trkpt lat="45.30706" lon="6.04874">
        <ele>1826.2</ele>
        <time>2021-01-16T12:11:25Z</time>
      </trkpt>
      <trkpt lat="45.30706" lon="6.04874">
        <ele>1826.2</ele>
        <time>2021-01-16T12:11:26Z</time>
      </trkpt>
      <trkpt lat="45.30706" lon="6.04874">
        <ele>1826.2</ele>
        <time>2021-01-16T12:11:27Z</time>
      </trkpt>
      <trkpt lat="45.30706" lon="6.04874">
        <ele>1826.2</ele>
        <time>2021-01-16T12:11:28Z</time>
      </trkpt>
      <trkpt lat="45.30706" lon="6.04874">
        <ele>1826.2</ele>
        <time>2021-01-16T12:11:29Z</time>
      </trkpt>
      <trkpt lat="45.30706" lon="6.04874">
        <ele>1826.2</ele>
        <time>2021-01-16T12:11:30Z</time>
      </trkpt>
      <trkpt lat="45.30706" lon="6.04874">
        <ele>1826.2</ele>
        <time>2021-01-16T12:11:31Z</time>
      </trkpt>
      <trkpt lat="45.30706" lon="6.04874">
        <ele>1826.2</ele>
        <time>2021-01-16T12:11:32Z</time>
      </trkpt>
      <trkpt lat="45.30706" lon="6.04874">
        <ele>1826.2</ele>
        <time>2021-01-16T12:11:33Z</time>
      </trkpt>
      <trkpt lat="45.30706" lon="6.04874">
        <ele>1826.2</ele>
        <time>2021-01-16T12:11:34Z</time>
      </trkpt>
      <trkpt lat="45.30706" lon="6.04874">
        <ele>1826.4</ele>
        <time>2021-01-16T12:11:35Z</time>
      </trkpt>
      <trkpt lat="45.30706" lon="6.04874">
        <ele>1826.4</ele>
        <time>2021-01-16T12:11:36Z</time>
      </trkpt>
      <trkpt lat="45.30706" lon="6.04874">
        <ele>1826.4</ele>
        <time>2021-01-16T12:11:37Z</time>
      </trkpt>
      <trkpt lat="45.30706" lon="6.04874">
        <ele>1826.4</ele>
        <time>2021-01-16T12:11:38Z</time>
      </trkpt>
      <trkpt lat="45.30706" lon="6.04874">
        <ele>1826.4</ele>
        <time>2021-01-16T12:11:39Z</time>
      </trkpt>
      <trkpt lat="45.30706" lon="6.04874">
        <ele>1826.4</ele>
        <time>2021-01-16T12:11:40Z</time>
      </trkpt>
      <trkpt lat="45.30706" lon="6.04874">
        <ele>1826.4</ele>
        <time>2021-01-16T12:11:41Z</time>
      </trkpt>
      <trkpt lat="45.30706" lon="6.04874">
        <ele>1826.4</ele>
        <time>2021-01-16T12:11:42Z</time>
      </trkpt>
      <trkpt lat="45.30706" lon="6.04874">
        <ele>1826.4</ele>
        <time>2021-01-16T12:11:43Z</time>
      </trkpt>
      <trkpt lat="45.30706" lon="6.04874">
        <ele>1826.4</ele>
        <time>2021-01-16T12:11:44Z</time>
      </trkpt>
      <trkpt lat="45.30706" lon="6.04875">
        <ele>1826.4</ele>
        <time>2021-01-16T12:11:45Z</time>
      </trkpt>
      <trkpt lat="45.30706" lon="6.04875">
        <ele>1826.4</ele>
        <time>2021-01-16T12:11:46Z</time>
      </trkpt>
      <trkpt lat="45.30706" lon="6.04875">
        <ele>1826.4</ele>
        <time>2021-01-16T12:11:47Z</time>
      </trkpt>
      <trkpt lat="45.30706" lon="6.04875">
        <ele>1826.4</ele>
        <time>2021-01-16T12:11:48Z</time>
      </trkpt>
      <trkpt lat="45.30706" lon="6.04875">
        <ele>1826.4</ele>
        <time>2021-01-16T12:11:49Z</time>
      </trkpt>
      <trkpt lat="45.30706" lon="6.04875">
        <ele>1826.4</ele>
        <time>2021-01-16T12:11:50Z</time>
      </trkpt>
      <trkpt lat="45.30706" lon="6.04875">
        <ele>1826.4</ele>
        <time>2021-01-16T12:11:51Z</time>
      </trkpt>
      <trkpt lat="45.30706" lon="6.04875">
        <ele>1826.4</ele>
        <time>2021-01-16T12:11:52Z</time>
      </trkpt>
      <trkpt lat="45.30706" lon="6.04875">
        <ele>1826.4</ele>
        <time>2021-01-16T12:11:53Z</time>
      </trkpt>
      <trkpt lat="45.30706" lon="6.04875">
        <ele>1826.4</ele>
        <time>2021-01-16T12:11:54Z</time>
      </trkpt>
      <trkpt lat="45.30706" lon="6.04875">
        <ele>1826.6</ele>
        <time>2021-01-16T12:11:55Z</time>
      </trkpt>
      <trkpt lat="45.30706" lon="6.04875">
        <ele>1826.4</ele>
        <time>2021-01-16T12:11:56Z</time>
      </trkpt>
      <trkpt lat="45.30706" lon="6.04875">
        <ele>1826.6</ele>
        <time>2021-01-16T12:11:57Z</time>
      </trkpt>
      <trkpt lat="45.30706" lon="6.04875">
        <ele>1826.6</ele>
        <time>2021-01-16T12:11:58Z</time>
      </trkpt>
      <trkpt lat="45.30706" lon="6.04875">
        <ele>1826.6</ele>
        <time>2021-01-16T12:11:59Z</time>
      </trkpt>
      <trkpt lat="45.30706" lon="6.04875">
        <ele>1826.6</ele>
        <time>2021-01-16T12:12:00Z</time>
      </trkpt>
      <trkpt lat="45.30706" lon="6.04875">
        <ele>1826.6</ele>
        <time>2021-01-16T12:12:01Z</time>
      </trkpt>
      <trkpt lat="45.30706" lon="6.04875">
        <ele>1826.6</ele>
        <time>2021-01-16T12:12:02Z</time>
      </trkpt>
      <trkpt lat="45.30706" lon="6.04875">
        <ele>1826.6</ele>
        <time>2021-01-16T12:12:03Z</time>
      </trkpt>
      <trkpt lat="45.30706" lon="6.04875">
        <ele>1826.6</ele>
        <time>2021-01-16T12:12:04Z</time>
      </trkpt>
      <trkpt lat="45.30706" lon="6.04875">
        <ele>1826.6</ele>
        <time>2021-01-16T12:12:05Z</time>
      </trkpt>
      <trkpt lat="45.30706" lon="6.04875">
        <ele>1826.6</ele>
        <time>2021-01-16T12:12:06Z</time>
      </trkpt>
      <trkpt lat="45.30706" lon="6.04875">
        <ele>1826.6</ele>
        <time>2021-01-16T12:12:07Z</time>
      </trkpt>
      <trkpt lat="45.30706" lon="6.04875">
        <ele>1826.6</ele>
        <time>2021-01-16T12:12:08Z</time>
      </trkpt>
      <trkpt lat="45.30706" lon="6.04875">
        <ele>1826.6</ele>
        <time>2021-01-16T12:12:09Z</time>
      </trkpt>
      <trkpt lat="45.30706" lon="6.04875">
        <ele>1826.6</ele>
        <time>2021-01-16T12:12:10Z</time>
      </trkpt>
      <trkpt lat="45.30706" lon="6.04875">
        <ele>1826.6</ele>
        <time>2021-01-16T12:12:11Z</time>
      </trkpt>
      <trkpt lat="45.30706" lon="6.04875">
        <ele>1826.6</ele>
        <time>2021-01-16T12:12:12Z</time>
      </trkpt>
      <trkpt lat="45.30706" lon="6.04875">
        <ele>1826.6</ele>
        <time>2021-01-16T12:12:13Z</time>
      </trkpt>
      <trkpt lat="45.30706" lon="6.04875">
        <ele>1826.6</ele>
        <time>2021-01-16T12:12:14Z</time>
      </trkpt>
      <trkpt lat="45.30706" lon="6.04875">
        <ele>1826.6</ele>
        <time>2021-01-16T12:12:15Z</time>
      </trkpt>
      <trkpt lat="45.30706" lon="6.04875">
        <ele>1826.6</ele>
        <time>2021-01-16T12:12:16Z</time>
      </trkpt>
      <trkpt lat="45.30706" lon="6.04875">
        <ele>1826.6</ele>
        <time>2021-01-16T12:12:17Z</time>
      </trkpt>
      <trkpt lat="45.30706" lon="6.04875">
        <ele>1826.6</ele>
        <time>2021-01-16T12:12:18Z</time>
      </trkpt>
      <trkpt lat="45.30706" lon="6.04876">
        <ele>1826.6</ele>
        <time>2021-01-16T12:12:19Z</time>
      </trkpt>
      <trkpt lat="45.30706" lon="6.04876">
        <ele>1826.6</ele>
        <time>2021-01-16T12:12:20Z</time>
      </trkpt>
      <trkpt lat="45.30706" lon="6.04876">
        <ele>1826.6</ele>
        <time>2021-01-16T12:12:21Z</time>
      </trkpt>
      <trkpt lat="45.30706" lon="6.04876">
        <ele>1826.6</ele>
        <time>2021-01-16T12:12:22Z</time>
      </trkpt>
      <trkpt lat="45.30706" lon="6.04876">
        <ele>1826.6</ele>
        <time>2021-01-16T12:12:23Z</time>
      </trkpt>
      <trkpt lat="45.30706" lon="6.04876">
        <ele>1826.6</ele>
        <time>2021-01-16T12:12:24Z</time>
      </trkpt>
      <trkpt lat="45.30706" lon="6.04876">
        <ele>1826.6</ele>
        <time>2021-01-16T12:12:25Z</time>
      </trkpt>
      <trkpt lat="45.30706" lon="6.04876">
        <ele>1826.6</ele>
        <time>2021-01-16T12:12:26Z</time>
      </trkpt>
      <trkpt lat="45.30706" lon="6.04876">
        <ele>1826.6</ele>
        <time>2021-01-16T12:12:27Z</time>
      </trkpt>
      <trkpt lat="45.30706" lon="6.04876">
        <ele>1826.6</ele>
        <time>2021-01-16T12:12:28Z</time>
      </trkpt>
      <trkpt lat="45.30706" lon="6.04876">
        <ele>1826.6</ele>
        <time>2021-01-16T12:12:29Z</time>
      </trkpt>
      <trkpt lat="45.30706" lon="6.04876">
        <ele>1826.6</ele>
        <time>2021-01-16T12:12:30Z</time>
      </trkpt>
      <trkpt lat="45.30706" lon="6.04876">
        <ele>1826.6</ele>
        <time>2021-01-16T12:12:31Z</time>
      </trkpt>
      <trkpt lat="45.30706" lon="6.04876">
        <ele>1826.6</ele>
        <time>2021-01-16T12:12:32Z</time>
      </trkpt>
      <trkpt lat="45.30706" lon="6.04876">
        <ele>1826.6</ele>
        <time>2021-01-16T12:12:33Z</time>
      </trkpt>
      <trkpt lat="45.30706" lon="6.04876">
        <ele>1826.6</ele>
        <time>2021-01-16T12:12:34Z</time>
      </trkpt>
      <trkpt lat="45.30706" lon="6.04876">
        <ele>1826.6</ele>
        <time>2021-01-16T12:12:35Z</time>
      </trkpt>
      <trkpt lat="45.30706" lon="6.04876">
        <ele>1826.6</ele>
        <time>2021-01-16T12:12:36Z</time>
      </trkpt>
      <trkpt lat="45.30706" lon="6.04876">
        <ele>1826.6</ele>
        <time>2021-01-16T12:12:37Z</time>
      </trkpt>
      <trkpt lat="45.30706" lon="6.04876">
        <ele>1826.6</ele>
        <time>2021-01-16T12:12:38Z</time>
      </trkpt>
      <trkpt lat="45.30706" lon="6.04876">
        <ele>1826.6</ele>
        <time>2021-01-16T12:12:39Z</time>
      </trkpt>
      <trkpt lat="45.30706" lon="6.04876">
        <ele>1826.6</ele>
        <time>2021-01-16T12:12:40Z</time>
      </trkpt>
      <trkpt lat="45.30706" lon="6.04876">
        <ele>1826.6</ele>
        <time>2021-01-16T12:12:41Z</time>
      </trkpt>
      <trkpt lat="45.30706" lon="6.04876">
        <ele>1826.6</ele>
        <time>2021-01-16T12:12:42Z</time>
      </trkpt>
      <trkpt lat="45.30706" lon="6.04876">
        <ele>1826.6</ele>
        <time>2021-01-16T12:12:43Z</time>
      </trkpt>
      <trkpt lat="45.30706" lon="6.04876">
        <ele>1826.6</ele>
        <time>2021-01-16T12:12:44Z</time>
      </trkpt>
      <trkpt lat="45.30706" lon="6.04876">
        <ele>1826.6</ele>
        <time>2021-01-16T12:12:45Z</time>
      </trkpt>
      <trkpt lat="45.30706" lon="6.04876">
        <ele>1826.8</ele>
        <time>2021-01-16T12:12:46Z</time>
      </trkpt>
      <trkpt lat="45.30706" lon="6.04876">
        <ele>1826.6</ele>
        <time>2021-01-16T12:12:47Z</time>
      </trkpt>
      <trkpt lat="45.30706" lon="6.04876">
        <ele>1826.6</ele>
        <time>2021-01-16T12:12:48Z</time>
      </trkpt>
      <trkpt lat="45.30706" lon="6.04876">
        <ele>1826.6</ele>
        <time>2021-01-16T12:12:49Z</time>
      </trkpt>
      <trkpt lat="45.30706" lon="6.04876">
        <ele>1826.6</ele>
        <time>2021-01-16T12:12:50Z</time>
      </trkpt>
      <trkpt lat="45.30706" lon="6.04876">
        <ele>1826.6</ele>
        <time>2021-01-16T12:12:51Z</time>
      </trkpt>
      <trkpt lat="45.30706" lon="6.04876">
        <ele>1826.8</ele>
        <time>2021-01-16T12:12:52Z</time>
      </trkpt>
      <trkpt lat="45.30706" lon="6.04877">
        <ele>1826.6</ele>
        <time>2021-01-16T12:12:53Z</time>
      </trkpt>
      <trkpt lat="45.30706" lon="6.04877">
        <ele>1826.6</ele>
        <time>2021-01-16T12:12:54Z</time>
      </trkpt>
      <trkpt lat="45.30706" lon="6.04877">
        <ele>1826.8</ele>
        <time>2021-01-16T12:12:55Z</time>
      </trkpt>
      <trkpt lat="45.30706" lon="6.04877">
        <ele>1826.8</ele>
        <time>2021-01-16T12:12:56Z</time>
      </trkpt>
      <trkpt lat="45.30706" lon="6.04877">
        <ele>1826.6</ele>
        <time>2021-01-16T12:12:57Z</time>
      </trkpt>
      <trkpt lat="45.30706" lon="6.04877">
        <ele>1826.6</ele>
        <time>2021-01-16T12:12:58Z</time>
      </trkpt>
      <trkpt lat="45.30706" lon="6.04877">
        <ele>1826.6</ele>
        <time>2021-01-16T12:12:59Z</time>
      </trkpt>
      <trkpt lat="45.30706" lon="6.04877">
        <ele>1826.6</ele>
        <time>2021-01-16T12:13:00Z</time>
      </trkpt>
      <trkpt lat="45.30706" lon="6.04877">
        <ele>1826.6</ele>
        <time>2021-01-16T12:13:01Z</time>
      </trkpt>
      <trkpt lat="45.30706" lon="6.04877">
        <ele>1826.6</ele>
        <time>2021-01-16T12:13:02Z</time>
      </trkpt>
      <trkpt lat="45.30706" lon="6.04877">
        <ele>1826.6</ele>
        <time>2021-01-16T12:13:03Z</time>
      </trkpt>
      <trkpt lat="45.30706" lon="6.04877">
        <ele>1826.6</ele>
        <time>2021-01-16T12:13:04Z</time>
      </trkpt>
      <trkpt lat="45.30706" lon="6.04877">
        <ele>1826.6</ele>
        <time>2021-01-16T12:13:05Z</time>
      </trkpt>
      <trkpt lat="45.30706" lon="6.04877">
        <ele>1826.6</ele>
        <time>2021-01-16T12:13:06Z</time>
      </trkpt>
      <trkpt lat="45.30706" lon="6.04877">
        <ele>1826.6</ele>
        <time>2021-01-16T12:13:07Z</time>
      </trkpt>
      <trkpt lat="45.30706" lon="6.04877">
        <ele>1826.6</ele>
        <time>2021-01-16T12:13:08Z</time>
      </trkpt>
      <trkpt lat="45.30706" lon="6.04877">
        <ele>1826.6</ele>
        <time>2021-01-16T12:13:09Z</time>
      </trkpt>
      <trkpt lat="45.30706" lon="6.04877">
        <ele>1826.6</ele>
        <time>2021-01-16T12:13:10Z</time>
      </trkpt>
      <trkpt lat="45.30706" lon="6.04877">
        <ele>1826.6</ele>
        <time>2021-01-16T12:13:11Z</time>
      </trkpt>
      <trkpt lat="45.30706" lon="6.04877">
        <ele>1826.6</ele>
        <time>2021-01-16T12:13:12Z</time>
      </trkpt>
      <trkpt lat="45.30706" lon="6.04877">
        <ele>1826.6</ele>
        <time>2021-01-16T12:13:13Z</time>
      </trkpt>
      <trkpt lat="45.30706" lon="6.04877">
        <ele>1826.8</ele>
        <time>2021-01-16T12:13:14Z</time>
      </trkpt>
      <trkpt lat="45.30706" lon="6.04877">
        <ele>1826.8</ele>
        <time>2021-01-16T12:13:15Z</time>
      </trkpt>
      <trkpt lat="45.30706" lon="6.04877">
        <ele>1826.8</ele>
        <time>2021-01-16T12:13:16Z</time>
      </trkpt>
      <trkpt lat="45.30706" lon="6.04877">
        <ele>1826.8</ele>
        <time>2021-01-16T12:13:17Z</time>
      </trkpt>
      <trkpt lat="45.30706" lon="6.04877">
        <ele>1826.8</ele>
        <time>2021-01-16T12:13:18Z</time>
      </trkpt>
      <trkpt lat="45.30706" lon="6.04877">
        <ele>1826.8</ele>
        <time>2021-01-16T12:13:19Z</time>
      </trkpt>
      <trkpt lat="45.30706" lon="6.04877">
        <ele>1826.8</ele>
        <time>2021-01-16T12:13:20Z</time>
      </trkpt>
      <trkpt lat="45.30706" lon="6.04877">
        <ele>1826.8</ele>
        <time>2021-01-16T12:13:21Z</time>
      </trkpt>
      <trkpt lat="45.30706" lon="6.04877">
        <ele>1826.8</ele>
        <time>2021-01-16T12:13:22Z</time>
      </trkpt>
      <trkpt lat="45.30706" lon="6.04877">
        <ele>1826.8</ele>
        <time>2021-01-16T12:13:23Z</time>
      </trkpt>
      <trkpt lat="45.30706" lon="6.04877">
        <ele>1826.8</ele>
        <time>2021-01-16T12:13:24Z</time>
      </trkpt>
      <trkpt lat="45.30706" lon="6.04877">
        <ele>1826.8</ele>
        <time>2021-01-16T12:13:25Z</time>
      </trkpt>
      <trkpt lat="45.30706" lon="6.04877">
        <ele>1826.8</ele>
        <time>2021-01-16T12:13:26Z</time>
      </trkpt>
      <trkpt lat="45.30706" lon="6.04878">
        <ele>1826.8</ele>
        <time>2021-01-16T12:13:27Z</time>
      </trkpt>
      <trkpt lat="45.30706" lon="6.04878">
        <ele>1826.8</ele>
        <time>2021-01-16T12:13:28Z</time>
      </trkpt>
      <trkpt lat="45.30706" lon="6.04878">
        <ele>1826.8</ele>
        <time>2021-01-16T12:13:29Z</time>
      </trkpt>
      <trkpt lat="45.30706" lon="6.04878">
        <ele>1826.8</ele>
        <time>2021-01-16T12:13:30Z</time>
      </trkpt>
      <trkpt lat="45.30706" lon="6.04878">
        <ele>1826.8</ele>
        <time>2021-01-16T12:13:31Z</time>
      </trkpt>
      <trkpt lat="45.30706" lon="6.04878">
        <ele>1826.8</ele>
        <time>2021-01-16T12:13:32Z</time>
      </trkpt>
      <trkpt lat="45.30706" lon="6.04878">
        <ele>1826.8</ele>
        <time>2021-01-16T12:13:33Z</time>
      </trkpt>
      <trkpt lat="45.30706" lon="6.04878">
        <ele>1826.8</ele>
        <time>2021-01-16T12:13:34Z</time>
      </trkpt>
      <trkpt lat="45.30706" lon="6.04878">
        <ele>1827</ele>
        <time>2021-01-16T12:13:35Z</time>
      </trkpt>
      <trkpt lat="45.30706" lon="6.04878">
        <ele>1827</ele>
        <time>2021-01-16T12:13:36Z</time>
      </trkpt>
      <trkpt lat="45.30706" lon="6.04878">
        <ele>1827</ele>
        <time>2021-01-16T12:13:37Z</time>
      </trkpt>
      <trkpt lat="45.30706" lon="6.04878">
        <ele>1827</ele>
        <time>2021-01-16T12:13:38Z</time>
      </trkpt>
      <trkpt lat="45.30706" lon="6.04878">
        <ele>1827</ele>
        <time>2021-01-16T12:13:39Z</time>
      </trkpt>
      <trkpt lat="45.30706" lon="6.04878">
        <ele>1827</ele>
        <time>2021-01-16T12:13:40Z</time>
      </trkpt>
      <trkpt lat="45.30706" lon="6.04878">
        <ele>1827</ele>
        <time>2021-01-16T12:13:41Z</time>
      </trkpt>
      <trkpt lat="45.30706" lon="6.04878">
        <ele>1827</ele>
        <time>2021-01-16T12:13:42Z</time>
      </trkpt>
      <trkpt lat="45.30706" lon="6.04878">
        <ele>1827</ele>
        <time>2021-01-16T12:13:43Z</time>
      </trkpt>
      <trkpt lat="45.30706" lon="6.04878">
        <ele>1827</ele>
        <time>2021-01-16T12:13:44Z</time>
      </trkpt>
      <trkpt lat="45.30706" lon="6.04878">
        <ele>1827</ele>
        <time>2021-01-16T12:13:45Z</time>
      </trkpt>
      <trkpt lat="45.30706" lon="6.04878">
        <ele>1827</ele>
        <time>2021-01-16T12:13:46Z</time>
      </trkpt>
      <trkpt lat="45.30706" lon="6.04878">
        <ele>1827</ele>
        <time>2021-01-16T12:13:47Z</time>
      </trkpt>
      <trkpt lat="45.30706" lon="6.04878">
        <ele>1827</ele>
        <time>2021-01-16T12:13:48Z</time>
      </trkpt>
      <trkpt lat="45.30706" lon="6.04878">
        <ele>1827</ele>
        <time>2021-01-16T12:13:49Z</time>
      </trkpt>
      <trkpt lat="45.30706" lon="6.04878">
        <ele>1827</ele>
        <time>2021-01-16T12:13:50Z</time>
      </trkpt>
      <trkpt lat="45.30706" lon="6.04878">
        <ele>1827</ele>
        <time>2021-01-16T12:13:51Z</time>
      </trkpt>
      <trkpt lat="45.30706" lon="6.04878">
        <ele>1827.2</ele>
        <time>2021-01-16T12:13:52Z</time>
      </trkpt>
      <trkpt lat="45.30706" lon="6.04878">
        <ele>1827.2</ele>
        <time>2021-01-16T12:13:53Z</time>
      </trkpt>
      <trkpt lat="45.30706" lon="6.04878">
        <ele>1827.2</ele>
        <time>2021-01-16T12:13:54Z</time>
      </trkpt>
      <trkpt lat="45.30706" lon="6.04878">
        <ele>1827.2</ele>
        <time>2021-01-16T12:13:55Z</time>
      </trkpt>
      <trkpt lat="45.30706" lon="6.04878">
        <ele>1827.2</ele>
        <time>2021-01-16T12:13:56Z</time>
      </trkpt>
      <trkpt lat="45.30706" lon="6.04878">
        <ele>1827</ele>
        <time>2021-01-16T12:13:57Z</time>
      </trkpt>
      <trkpt lat="45.30706" lon="6.04878">
        <ele>1827</ele>
        <time>2021-01-16T12:13:58Z</time>
      </trkpt>
      <trkpt lat="45.30706" lon="6.04878">
        <ele>1827.2</ele>
        <time>2021-01-16T12:13:59Z</time>
      </trkpt>
      <trkpt lat="45.30706" lon="6.04878">
        <ele>1827.2</ele>
        <time>2021-01-16T12:14:00Z</time>
      </trkpt>
      <trkpt lat="45.30706" lon="6.04878">
        <ele>1827.4</ele>
        <time>2021-01-16T12:14:01Z</time>
      </trkpt>
      <trkpt lat="45.30706" lon="6.04879">
        <ele>1827.2</ele>
        <time>2021-01-16T12:14:02Z</time>
      </trkpt>
      <trkpt lat="45.30706" lon="6.04879">
        <ele>1827.2</ele>
        <time>2021-01-16T12:14:03Z</time>
      </trkpt>
      <trkpt lat="45.30706" lon="6.04879">
        <ele>1827.2</ele>
        <time>2021-01-16T12:14:04Z</time>
      </trkpt>
      <trkpt lat="45.30706" lon="6.04879">
        <ele>1827.2</ele>
        <time>2021-01-16T12:14:05Z</time>
      </trkpt>
      <trkpt lat="45.30706" lon="6.04879">
        <ele>1827.2</ele>
        <time>2021-01-16T12:14:06Z</time>
      </trkpt>
      <trkpt lat="45.30706" lon="6.04879">
        <ele>1827.4</ele>
        <time>2021-01-16T12:14:07Z</time>
      </trkpt>
      <trkpt lat="45.30706" lon="6.04879">
        <ele>1827.4</ele>
        <time>2021-01-16T12:14:08Z</time>
      </trkpt>
      <trkpt lat="45.30706" lon="6.04879">
        <ele>1827.4</ele>
        <time>2021-01-16T12:14:09Z</time>
      </trkpt>
      <trkpt lat="45.30706" lon="6.04879">
        <ele>1827.4</ele>
        <time>2021-01-16T12:14:10Z</time>
      </trkpt>
      <trkpt lat="45.30706" lon="6.04879">
        <ele>1827.4</ele>
        <time>2021-01-16T12:14:11Z</time>
      </trkpt>
      <trkpt lat="45.30706" lon="6.04879">
        <ele>1827.4</ele>
        <time>2021-01-16T12:14:12Z</time>
      </trkpt>
      <trkpt lat="45.30706" lon="6.04879">
        <ele>1827.4</ele>
        <time>2021-01-16T12:14:13Z</time>
      </trkpt>
      <trkpt lat="45.30706" lon="6.04879">
        <ele>1827.4</ele>
        <time>2021-01-16T12:14:14Z</time>
      </trkpt>
      <trkpt lat="45.30706" lon="6.04879">
        <ele>1827.4</ele>
        <time>2021-01-16T12:14:15Z</time>
      </trkpt>
      <trkpt lat="45.30706" lon="6.04879">
        <ele>1827.2</ele>
        <time>2021-01-16T12:14:16Z</time>
      </trkpt>
      <trkpt lat="45.30706" lon="6.04879">
        <ele>1827.4</ele>
        <time>2021-01-16T12:14:17Z</time>
      </trkpt>
      <trkpt lat="45.30706" lon="6.04879">
        <ele>1827.4</ele>
        <time>2021-01-16T12:14:18Z</time>
      </trkpt>
      <trkpt lat="45.30706" lon="6.04879">
        <ele>1827.4</ele>
        <time>2021-01-16T12:14:19Z</time>
      </trkpt>
      <trkpt lat="45.30706" lon="6.04879">
        <ele>1827.4</ele>
        <time>2021-01-16T12:14:20Z</time>
      </trkpt>
      <trkpt lat="45.30706" lon="6.04879">
        <ele>1827.4</ele>
        <time>2021-01-16T12:14:21Z</time>
      </trkpt>
      <trkpt lat="45.30706" lon="6.04879">
        <ele>1827.4</ele>
        <time>2021-01-16T12:14:22Z</time>
      </trkpt>
      <trkpt lat="45.30706" lon="6.04879">
        <ele>1827.4</ele>
        <time>2021-01-16T12:14:23Z</time>
      </trkpt>
      <trkpt lat="45.30706" lon="6.04879">
        <ele>1827.4</ele>
        <time>2021-01-16T12:14:24Z</time>
      </trkpt>
      <trkpt lat="45.30706" lon="6.04879">
        <ele>1827.4</ele>
        <time>2021-01-16T12:14:25Z</time>
      </trkpt>
      <trkpt lat="45.30706" lon="6.04879">
        <ele>1827.4</ele>
        <time>2021-01-16T12:14:26Z</time>
      </trkpt>
      <trkpt lat="45.30706" lon="6.04879">
        <ele>1827.4</ele>
        <time>2021-01-16T12:14:27Z</time>
      </trkpt>
      <trkpt lat="45.30706" lon="6.04879">
        <ele>1827.4</ele>
        <time>2021-01-16T12:14:28Z</time>
      </trkpt>
      <trkpt lat="45.30706" lon="6.04879">
        <ele>1827.4</ele>
        <time>2021-01-16T12:14:29Z</time>
      </trkpt>
      <trkpt lat="45.30706" lon="6.04879">
        <ele>1827.4</ele>
        <time>2021-01-16T12:14:30Z</time>
      </trkpt>
      <trkpt lat="45.30706" lon="6.04879">
        <ele>1827.4</ele>
        <time>2021-01-16T12:14:31Z</time>
      </trkpt>
      <trkpt lat="45.30706" lon="6.04879">
        <ele>1827.4</ele>
        <time>2021-01-16T12:14:32Z</time>
      </trkpt>
      <trkpt lat="45.30706" lon="6.04879">
        <ele>1827.4</ele>
        <time>2021-01-16T12:14:33Z</time>
      </trkpt>
      <trkpt lat="45.30706" lon="6.04879">
        <ele>1827.4</ele>
        <time>2021-01-16T12:14:34Z</time>
      </trkpt>
      <trkpt lat="45.30706" lon="6.04879">
        <ele>1827.6</ele>
        <time>2021-01-16T12:14:35Z</time>
      </trkpt>
      <trkpt lat="45.30706" lon="6.0488">
        <ele>1827.6</ele>
        <time>2021-01-16T12:14:36Z</time>
      </trkpt>
      <trkpt lat="45.30706" lon="6.0488">
        <ele>1827.6</ele>
        <time>2021-01-16T12:14:37Z</time>
      </trkpt>
      <trkpt lat="45.30706" lon="6.0488">
        <ele>1827.6</ele>
        <time>2021-01-16T12:14:38Z</time>
      </trkpt>
      <trkpt lat="45.30706" lon="6.0488">
        <ele>1827.4</ele>
        <time>2021-01-16T12:14:39Z</time>
      </trkpt>
      <trkpt lat="45.30706" lon="6.0488">
        <ele>1827.4</ele>
        <time>2021-01-16T12:14:40Z</time>
      </trkpt>
      <trkpt lat="45.30706" lon="6.0488">
        <ele>1827.4</ele>
        <time>2021-01-16T12:14:41Z</time>
      </trkpt>
      <trkpt lat="45.30706" lon="6.0488">
        <ele>1827.6</ele>
        <time>2021-01-16T12:14:42Z</time>
      </trkpt>
      <trkpt lat="45.30706" lon="6.0488">
        <ele>1827.6</ele>
        <time>2021-01-16T12:14:43Z</time>
      </trkpt>
      <trkpt lat="45.30706" lon="6.0488">
        <ele>1827.6</ele>
        <time>2021-01-16T12:14:44Z</time>
      </trkpt>
      <trkpt lat="45.30706" lon="6.0488">
        <ele>1827.6</ele>
        <time>2021-01-16T12:14:45Z</time>
      </trkpt>
      <trkpt lat="45.30706" lon="6.0488">
        <ele>1827.6</ele>
        <time>2021-01-16T12:14:46Z</time>
      </trkpt>
      <trkpt lat="45.30706" lon="6.0488">
        <ele>1827.6</ele>
        <time>2021-01-16T12:14:47Z</time>
      </trkpt>
      <trkpt lat="45.30706" lon="6.0488">
        <ele>1827.6</ele>
        <time>2021-01-16T12:14:48Z</time>
      </trkpt>
      <trkpt lat="45.30706" lon="6.0488">
        <ele>1827.6</ele>
        <time>2021-01-16T12:14:49Z</time>
      </trkpt>
      <trkpt lat="45.30706" lon="6.0488">
        <ele>1827.6</ele>
        <time>2021-01-16T12:14:50Z</time>
      </trkpt>
      <trkpt lat="45.30706" lon="6.0488">
        <ele>1827.6</ele>
        <time>2021-01-16T12:14:51Z</time>
      </trkpt>
      <trkpt lat="45.30706" lon="6.0488">
        <ele>1827.6</ele>
        <time>2021-01-16T12:14:52Z</time>
      </trkpt>
      <trkpt lat="45.30706" lon="6.0488">
        <ele>1827.6</ele>
        <time>2021-01-16T12:14:53Z</time>
      </trkpt>
      <trkpt lat="45.30706" lon="6.0488">
        <ele>1827.6</ele>
        <time>2021-01-16T12:14:54Z</time>
      </trkpt>
      <trkpt lat="45.30706" lon="6.0488">
        <ele>1827.6</ele>
        <time>2021-01-16T12:14:55Z</time>
      </trkpt>
      <trkpt lat="45.30706" lon="6.0488">
        <ele>1827.6</ele>
        <time>2021-01-16T12:14:56Z</time>
      </trkpt>
      <trkpt lat="45.30706" lon="6.0488">
        <ele>1827.6</ele>
        <time>2021-01-16T12:14:57Z</time>
      </trkpt>
      <trkpt lat="45.30706" lon="6.0488">
        <ele>1827.6</ele>
        <time>2021-01-16T12:14:58Z</time>
      </trkpt>
      <trkpt lat="45.30706" lon="6.0488">
        <ele>1827.6</ele>
        <time>2021-01-16T12:14:59Z</time>
      </trkpt>
      <trkpt lat="45.30706" lon="6.0488">
        <ele>1827.6</ele>
        <time>2021-01-16T12:15:00Z</time>
      </trkpt>
      <trkpt lat="45.30706" lon="6.0488">
        <ele>1827.6</ele>
        <time>2021-01-16T12:15:01Z</time>
      </trkpt>
      <trkpt lat="45.30706" lon="6.0488">
        <ele>1827.6</ele>
        <time>2021-01-16T12:15:02Z</time>
      </trkpt>
      <trkpt lat="45.30706" lon="6.0488">
        <ele>1827.6</ele>
        <time>2021-01-16T12:15:03Z</time>
      </trkpt>
      <trkpt lat="45.30706" lon="6.0488">
        <ele>1827.6</ele>
        <time>2021-01-16T12:15:04Z</time>
      </trkpt>
      <trkpt lat="45.30706" lon="6.0488">
        <ele>1827.8</ele>
        <time>2021-01-16T12:15:05Z</time>
      </trkpt>
      <trkpt lat="45.30706" lon="6.0488">
        <ele>1827.8</ele>
        <time>2021-01-16T12:15:06Z</time>
      </trkpt>
      <trkpt lat="45.30706" lon="6.0488">
        <ele>1827.8</ele>
        <time>2021-01-16T12:15:07Z</time>
      </trkpt>
      <trkpt lat="45.30706" lon="6.0488">
        <ele>1827.8</ele>
        <time>2021-01-16T12:15:08Z</time>
      </trkpt>
      <trkpt lat="45.30706" lon="6.0488">
        <ele>1827.8</ele>
        <time>2021-01-16T12:15:09Z</time>
      </trkpt>
      <trkpt lat="45.30706" lon="6.04881">
        <ele>1827.8</ele>
        <time>2021-01-16T12:15:10Z</time>
      </trkpt>
      <trkpt lat="45.30706" lon="6.04881">
        <ele>1827.8</ele>
        <time>2021-01-16T12:15:11Z</time>
      </trkpt>
      <trkpt lat="45.30706" lon="6.04881">
        <ele>1828</ele>
        <time>2021-01-16T12:15:12Z</time>
      </trkpt>
      <trkpt lat="45.30706" lon="6.04881">
        <ele>1828</ele>
        <time>2021-01-16T12:15:13Z</time>
      </trkpt>
      <trkpt lat="45.30706" lon="6.04881">
        <ele>1828.2</ele>
        <time>2021-01-16T12:15:14Z</time>
      </trkpt>
      <trkpt lat="45.30706" lon="6.04881">
        <ele>1828.2</ele>
        <time>2021-01-16T12:15:15Z</time>
      </trkpt>
      <trkpt lat="45.30706" lon="6.04881">
        <ele>1828.4</ele>
        <time>2021-01-16T12:15:16Z</time>
      </trkpt>
      <trkpt lat="45.30706" lon="6.04881">
        <ele>1828.4</ele>
        <time>2021-01-16T12:15:17Z</time>
      </trkpt>
      <trkpt lat="45.30706" lon="6.04881">
        <ele>1828.4</ele>
        <time>2021-01-16T12:15:18Z</time>
      </trkpt>
      <trkpt lat="45.30706" lon="6.04881">
        <ele>1828.4</ele>
        <time>2021-01-16T12:15:19Z</time>
      </trkpt>
      <trkpt lat="45.30706" lon="6.04881">
        <ele>1828.6</ele>
        <time>2021-01-16T12:15:20Z</time>
      </trkpt>
      <trkpt lat="45.30706" lon="6.04881">
        <ele>1828.6</ele>
        <time>2021-01-16T12:15:21Z</time>
      </trkpt>
      <trkpt lat="45.30706" lon="6.04881">
        <ele>1828.6</ele>
        <time>2021-01-16T12:15:22Z</time>
      </trkpt>
      <trkpt lat="45.30706" lon="6.04881">
        <ele>1828.8</ele>
        <time>2021-01-16T12:15:23Z</time>
      </trkpt>
      <trkpt lat="45.30706" lon="6.04881">
        <ele>1828.8</ele>
        <time>2021-01-16T12:15:24Z</time>
      </trkpt>
      <trkpt lat="45.30706" lon="6.04881">
        <ele>1828.8</ele>
        <time>2021-01-16T12:15:25Z</time>
      </trkpt>
      <trkpt lat="45.30706" lon="6.04881">
        <ele>1828.8</ele>
        <time>2021-01-16T12:15:26Z</time>
      </trkpt>
      <trkpt lat="45.30706" lon="6.04881">
        <ele>1828.8</ele>
        <time>2021-01-16T12:15:27Z</time>
      </trkpt>
      <trkpt lat="45.30706" lon="6.04881">
        <ele>1828.8</ele>
        <time>2021-01-16T12:15:28Z</time>
      </trkpt>
      <trkpt lat="45.30706" lon="6.04881">
        <ele>1829</ele>
        <time>2021-01-16T12:15:29Z</time>
      </trkpt>
      <trkpt lat="45.30706" lon="6.04881">
        <ele>1829</ele>
        <time>2021-01-16T12:15:30Z</time>
      </trkpt>
      <trkpt lat="45.30706" lon="6.04881">
        <ele>1829.2</ele>
        <time>2021-01-16T12:15:31Z</time>
      </trkpt>
      <trkpt lat="45.30706" lon="6.04881">
        <ele>1829.2</ele>
        <time>2021-01-16T12:15:32Z</time>
      </trkpt>
      <trkpt lat="45.30706" lon="6.04881">
        <ele>1829.2</ele>
        <time>2021-01-16T12:15:33Z</time>
      </trkpt>
      <trkpt lat="45.30706" lon="6.04881">
        <ele>1829.2</ele>
        <time>2021-01-16T12:15:34Z</time>
      </trkpt>
      <trkpt lat="45.30706" lon="6.04881">
        <ele>1829.4</ele>
        <time>2021-01-16T12:15:35Z</time>
      </trkpt>
      <trkpt lat="45.30706" lon="6.04881">
        <ele>1829.4</ele>
        <time>2021-01-16T12:15:36Z</time>
      </trkpt>
      <trkpt lat="45.30706" lon="6.04881">
        <ele>1829.4</ele>
        <time>2021-01-16T12:15:37Z</time>
      </trkpt>
      <trkpt lat="45.30706" lon="6.04881">
        <ele>1829.4</ele>
        <time>2021-01-16T12:15:38Z</time>
      </trkpt>
      <trkpt lat="45.30706" lon="6.04881">
        <ele>1829.4</ele>
        <time>2021-01-16T12:15:39Z</time>
      </trkpt>
      <trkpt lat="45.30706" lon="6.04881">
        <ele>1829.4</ele>
        <time>2021-01-16T12:15:40Z</time>
      </trkpt>
      <trkpt lat="45.30706" lon="6.04881">
        <ele>1829.4</ele>
        <time>2021-01-16T12:15:41Z</time>
      </trkpt>
      <trkpt lat="45.30706" lon="6.04881">
        <ele>1829.6</ele>
        <time>2021-01-16T12:15:42Z</time>
      </trkpt>
      <trkpt lat="45.30706" lon="6.04881">
        <ele>1829.6</ele>
        <time>2021-01-16T12:15:43Z</time>
      </trkpt>
      <trkpt lat="45.30706" lon="6.04882">
        <ele>1829.6</ele>
        <time>2021-01-16T12:15:44Z</time>
      </trkpt>
      <trkpt lat="45.30706" lon="6.04882">
        <ele>1829.6</ele>
        <time>2021-01-16T12:15:45Z</time>
      </trkpt>
      <trkpt lat="45.30706" lon="6.04882">
        <ele>1829.4</ele>
        <time>2021-01-16T12:15:46Z</time>
      </trkpt>
      <trkpt lat="45.30706" lon="6.04882">
        <ele>1829.4</ele>
        <time>2021-01-16T12:15:47Z</time>
      </trkpt>
      <trkpt lat="45.30706" lon="6.04882">
        <ele>1829.4</ele>
        <time>2021-01-16T12:15:48Z</time>
      </trkpt>
      <trkpt lat="45.30706" lon="6.04882">
        <ele>1829.4</ele>
        <time>2021-01-16T12:15:49Z</time>
      </trkpt>
      <trkpt lat="45.30706" lon="6.04882">
        <ele>1829.4</ele>
        <time>2021-01-16T12:15:50Z</time>
      </trkpt>
      <trkpt lat="45.30706" lon="6.04882">
        <ele>1829.6</ele>
        <time>2021-01-16T12:15:51Z</time>
      </trkpt>
      <trkpt lat="45.30706" lon="6.04882">
        <ele>1829.6</ele>
        <time>2021-01-16T12:15:52Z</time>
      </trkpt>
      <trkpt lat="45.30706" lon="6.04882">
        <ele>1829.6</ele>
        <time>2021-01-16T12:15:53Z</time>
      </trkpt>
      <trkpt lat="45.30706" lon="6.04882">
        <ele>1829.6</ele>
        <time>2021-01-16T12:15:54Z</time>
      </trkpt>
      <trkpt lat="45.30706" lon="6.04882">
        <ele>1829.6</ele>
        <time>2021-01-16T12:15:55Z</time>
      </trkpt>
      <trkpt lat="45.30706" lon="6.04882">
        <ele>1829.6</ele>
        <time>2021-01-16T12:15:56Z</time>
      </trkpt>
      <trkpt lat="45.30706" lon="6.04882">
        <ele>1829.6</ele>
        <time>2021-01-16T12:15:57Z</time>
      </trkpt>
      <trkpt lat="45.30706" lon="6.04882">
        <ele>1829.6</ele>
        <time>2021-01-16T12:15:58Z</time>
      </trkpt>
      <trkpt lat="45.30706" lon="6.04882">
        <ele>1829.6</ele>
        <time>2021-01-16T12:15:59Z</time>
      </trkpt>
      <trkpt lat="45.30706" lon="6.04882">
        <ele>1829.6</ele>
        <time>2021-01-16T12:16:00Z</time>
      </trkpt>
      <trkpt lat="45.30706" lon="6.04882">
        <ele>1829.6</ele>
        <time>2021-01-16T12:16:01Z</time>
      </trkpt>
      <trkpt lat="45.30706" lon="6.04882">
        <ele>1829.6</ele>
        <time>2021-01-16T12:16:02Z</time>
      </trkpt>
      <trkpt lat="45.30706" lon="6.04882">
        <ele>1829.6</ele>
        <time>2021-01-16T12:16:03Z</time>
      </trkpt>
      <trkpt lat="45.30706" lon="6.04882">
        <ele>1829.6</ele>
        <time>2021-01-16T12:16:04Z</time>
      </trkpt>
      <trkpt lat="45.30706" lon="6.04882">
        <ele>1829.6</ele>
        <time>2021-01-16T12:16:05Z</time>
      </trkpt>
      <trkpt lat="45.30706" lon="6.04882">
        <ele>1829.6</ele>
        <time>2021-01-16T12:16:06Z</time>
      </trkpt>
      <trkpt lat="45.30706" lon="6.04882">
        <ele>1829.6</ele>
        <time>2021-01-16T12:16:07Z</time>
      </trkpt>
      <trkpt lat="45.30706" lon="6.04882">
        <ele>1829.6</ele>
        <time>2021-01-16T12:16:08Z</time>
      </trkpt>
      <trkpt lat="45.30706" lon="6.04882">
        <ele>1829.6</ele>
        <time>2021-01-16T12:16:09Z</time>
      </trkpt>
      <trkpt lat="45.30706" lon="6.04882">
        <ele>1829.6</ele>
        <time>2021-01-16T12:16:10Z</time>
      </trkpt>
      <trkpt lat="45.30706" lon="6.04882">
        <ele>1829.6</ele>
        <time>2021-01-16T12:16:11Z</time>
      </trkpt>
      <trkpt lat="45.30706" lon="6.04882">
        <ele>1829.6</ele>
        <time>2021-01-16T12:16:12Z</time>
      </trkpt>
      <trkpt lat="45.30706" lon="6.04882">
        <ele>1829.6</ele>
        <time>2021-01-16T12:16:13Z</time>
      </trkpt>
      <trkpt lat="45.30706" lon="6.04882">
        <ele>1829.6</ele>
        <time>2021-01-16T12:16:14Z</time>
      </trkpt>
      <trkpt lat="45.30706" lon="6.04882">
        <ele>1829.6</ele>
        <time>2021-01-16T12:16:15Z</time>
      </trkpt>
      <trkpt lat="45.30706" lon="6.04882">
        <ele>1829.6</ele>
        <time>2021-01-16T12:16:16Z</time>
      </trkpt>
      <trkpt lat="45.30706" lon="6.04882">
        <ele>1829.6</ele>
        <time>2021-01-16T12:16:17Z</time>
      </trkpt>
      <trkpt lat="45.30706" lon="6.04883">
        <ele>1829.6</ele>
        <time>2021-01-16T12:16:18Z</time>
      </trkpt>
      <trkpt lat="45.30706" lon="6.04883">
        <ele>1829.6</ele>
        <time>2021-01-16T12:16:19Z</time>
      </trkpt>
      <trkpt lat="45.30706" lon="6.04883">
        <ele>1829.8</ele>
        <time>2021-01-16T12:16:20Z</time>
      </trkpt>
      <trkpt lat="45.30706" lon="6.04883">
        <ele>1829.8</ele>
        <time>2021-01-16T12:16:21Z</time>
      </trkpt>
      <trkpt lat="45.30706" lon="6.04883">
        <ele>1829.8</ele>
        <time>2021-01-16T12:16:22Z</time>
      </trkpt>
      <trkpt lat="45.30706" lon="6.04883">
        <ele>1829.8</ele>
        <time>2021-01-16T12:16:23Z</time>
      </trkpt>
      <trkpt lat="45.30706" lon="6.04883">
        <ele>1829.8</ele>
        <time>2021-01-16T12:16:24Z</time>
      </trkpt>
      <trkpt lat="45.30706" lon="6.04883">
        <ele>1829.8</ele>
        <time>2021-01-16T12:16:25Z</time>
      </trkpt>
      <trkpt lat="45.30706" lon="6.04883">
        <ele>1829.8</ele>
        <time>2021-01-16T12:16:26Z</time>
      </trkpt>
      <trkpt lat="45.30706" lon="6.04883">
        <ele>1829.8</ele>
        <time>2021-01-16T12:16:27Z</time>
      </trkpt>
      <trkpt lat="45.30706" lon="6.04883">
        <ele>1829.8</ele>
        <time>2021-01-16T12:16:28Z</time>
      </trkpt>
      <trkpt lat="45.30706" lon="6.04883">
        <ele>1829.8</ele>
        <time>2021-01-16T12:16:29Z</time>
      </trkpt>
      <trkpt lat="45.30706" lon="6.04883">
        <ele>1829.8</ele>
        <time>2021-01-16T12:16:30Z</time>
      </trkpt>
      <trkpt lat="45.30706" lon="6.04883">
        <ele>1829.8</ele>
        <time>2021-01-16T12:16:31Z</time>
      </trkpt>
      <trkpt lat="45.30706" lon="6.04883">
        <ele>1829.8</ele>
        <time>2021-01-16T12:16:32Z</time>
      </trkpt>
      <trkpt lat="45.30706" lon="6.04883">
        <ele>1829.8</ele>
        <time>2021-01-16T12:16:33Z</time>
      </trkpt>
      <trkpt lat="45.30706" lon="6.04883">
        <ele>1829.8</ele>
        <time>2021-01-16T12:16:34Z</time>
      </trkpt>
      <trkpt lat="45.30706" lon="6.04883">
        <ele>1829.8</ele>
        <time>2021-01-16T12:16:35Z</time>
      </trkpt>
      <trkpt lat="45.30706" lon="6.04883">
        <ele>1829.8</ele>
        <time>2021-01-16T12:16:36Z</time>
      </trkpt>
      <trkpt lat="45.30706" lon="6.04883">
        <ele>1829.8</ele>
        <time>2021-01-16T12:16:37Z</time>
      </trkpt>
      <trkpt lat="45.30706" lon="6.04883">
        <ele>1829.8</ele>
        <time>2021-01-16T12:16:38Z</time>
      </trkpt>
      <trkpt lat="45.30706" lon="6.04883">
        <ele>1829.8</ele>
        <time>2021-01-16T12:16:39Z</time>
      </trkpt>
      <trkpt lat="45.30706" lon="6.04883">
        <ele>1829.8</ele>
        <time>2021-01-16T12:16:40Z</time>
      </trkpt>
      <trkpt lat="45.30706" lon="6.04883">
        <ele>1829.8</ele>
        <time>2021-01-16T12:16:41Z</time>
      </trkpt>
      <trkpt lat="45.30706" lon="6.04883">
        <ele>1829.8</ele>
        <time>2021-01-16T12:16:42Z</time>
      </trkpt>
      <trkpt lat="45.30706" lon="6.04883">
        <ele>1829.8</ele>
        <time>2021-01-16T12:16:43Z</time>
      </trkpt>
      <trkpt lat="45.30706" lon="6.04883">
        <ele>1829.8</ele>
        <time>2021-01-16T12:16:44Z</time>
      </trkpt>
      <trkpt lat="45.30706" lon="6.04883">
        <ele>1830</ele>
        <time>2021-01-16T12:16:45Z</time>
      </trkpt>
      <trkpt lat="45.30706" lon="6.04883">
        <ele>1830</ele>
        <time>2021-01-16T12:16:46Z</time>
      </trkpt>
      <trkpt lat="45.30706" lon="6.04883">
        <ele>1830</ele>
        <time>2021-01-16T12:16:47Z</time>
      </trkpt>
      <trkpt lat="45.30706" lon="6.04883">
        <ele>1830.2</ele>
        <time>2021-01-16T12:16:48Z</time>
      </trkpt>
      <trkpt lat="45.30706" lon="6.04883">
        <ele>1830.4</ele>
        <time>2021-01-16T12:16:49Z</time>
      </trkpt>
      <trkpt lat="45.30706" lon="6.04883">
        <ele>1830.4</ele>
        <time>2021-01-16T12:16:50Z</time>
      </trkpt>
      <trkpt lat="45.30706" lon="6.04883">
        <ele>1830.4</ele>
        <time>2021-01-16T12:16:51Z</time>
      </trkpt>
      <trkpt lat="45.30706" lon="6.04884">
        <ele>1830.4</ele>
        <time>2021-01-16T12:16:52Z</time>
      </trkpt>
      <trkpt lat="45.30706" lon="6.04884">
        <ele>1830.4</ele>
        <time>2021-01-16T12:16:53Z</time>
      </trkpt>
      <trkpt lat="45.30706" lon="6.04884">
        <ele>1830.4</ele>
        <time>2021-01-16T12:16:54Z</time>
      </trkpt>
      <trkpt lat="45.30706" lon="6.04884">
        <ele>1830.6</ele>
        <time>2021-01-16T12:16:55Z</time>
      </trkpt>
      <trkpt lat="45.30706" lon="6.04884">
        <ele>1830.8</ele>
        <time>2021-01-16T12:16:56Z</time>
      </trkpt>
      <trkpt lat="45.30706" lon="6.04884">
        <ele>1830.8</ele>
        <time>2021-01-16T12:16:57Z</time>
      </trkpt>
      <trkpt lat="45.30706" lon="6.04884">
        <ele>1830.8</ele>
        <time>2021-01-16T12:16:58Z</time>
      </trkpt>
      <trkpt lat="45.30706" lon="6.04884">
        <ele>1830.8</ele>
        <time>2021-01-16T12:16:59Z</time>
      </trkpt>
      <trkpt lat="45.30706" lon="6.04884">
        <ele>1830.8</ele>
        <time>2021-01-16T12:17:00Z</time>
      </trkpt>
      <trkpt lat="45.30706" lon="6.04884">
        <ele>1831</ele>
        <time>2021-01-16T12:17:01Z</time>
      </trkpt>
      <trkpt lat="45.30706" lon="6.04884">
        <ele>1831</ele>
        <time>2021-01-16T12:17:02Z</time>
      </trkpt>
      <trkpt lat="45.30706" lon="6.04884">
        <ele>1831</ele>
        <time>2021-01-16T12:17:03Z</time>
      </trkpt>
      <trkpt lat="45.30706" lon="6.04884">
        <ele>1831</ele>
        <time>2021-01-16T12:17:04Z</time>
      </trkpt>
      <trkpt lat="45.30706" lon="6.04884">
        <ele>1831</ele>
        <time>2021-01-16T12:17:05Z</time>
      </trkpt>
      <trkpt lat="45.30706" lon="6.04884">
        <ele>1831</ele>
        <time>2021-01-16T12:17:06Z</time>
      </trkpt>
      <trkpt lat="45.30706" lon="6.04884">
        <ele>1831</ele>
        <time>2021-01-16T12:17:07Z</time>
      </trkpt>
      <trkpt lat="45.30706" lon="6.04884">
        <ele>1831</ele>
        <time>2021-01-16T12:17:08Z</time>
      </trkpt>
      <trkpt lat="45.30706" lon="6.04884">
        <ele>1831</ele>
        <time>2021-01-16T12:17:09Z</time>
      </trkpt>
      <trkpt lat="45.30706" lon="6.04884">
        <ele>1831</ele>
        <time>2021-01-16T12:17:10Z</time>
      </trkpt>
      <trkpt lat="45.30706" lon="6.04884">
        <ele>1831</ele>
        <time>2021-01-16T12:17:11Z</time>
      </trkpt>
      <trkpt lat="45.30706" lon="6.04884">
        <ele>1831.2</ele>
        <time>2021-01-16T12:17:12Z</time>
      </trkpt>
      <trkpt lat="45.30706" lon="6.04884">
        <ele>1831.2</ele>
        <time>2021-01-16T12:17:13Z</time>
      </trkpt>
      <trkpt lat="45.30706" lon="6.04884">
        <ele>1831.2</ele>
        <time>2021-01-16T12:17:14Z</time>
      </trkpt>
      <trkpt lat="45.30706" lon="6.04884">
        <ele>1831.2</ele>
        <time>2021-01-16T12:17:15Z</time>
      </trkpt>
      <trkpt lat="45.30706" lon="6.04884">
        <ele>1831.2</ele>
        <time>2021-01-16T12:17:16Z</time>
      </trkpt>
      <trkpt lat="45.30706" lon="6.04884">
        <ele>1831.2</ele>
        <time>2021-01-16T12:17:17Z</time>
      </trkpt>
      <trkpt lat="45.30706" lon="6.04884">
        <ele>1831.2</ele>
        <time>2021-01-16T12:17:18Z</time>
      </trkpt>
      <trkpt lat="45.30706" lon="6.04884">
        <ele>1831.2</ele>
        <time>2021-01-16T12:17:19Z</time>
      </trkpt>
      <trkpt lat="45.30706" lon="6.04884">
        <ele>1831.2</ele>
        <time>2021-01-16T12:17:20Z</time>
      </trkpt>
      <trkpt lat="45.30706" lon="6.04884">
        <ele>1831.2</ele>
        <time>2021-01-16T12:17:21Z</time>
      </trkpt>
      <trkpt lat="45.30706" lon="6.04884">
        <ele>1831</ele>
        <time>2021-01-16T12:17:22Z</time>
      </trkpt>
      <trkpt lat="45.30706" lon="6.04884">
        <ele>1831.2</ele>
        <time>2021-01-16T12:17:23Z</time>
      </trkpt>
      <trkpt lat="45.30706" lon="6.04884">
        <ele>1831.2</ele>
        <time>2021-01-16T12:17:24Z</time>
      </trkpt>
      <trkpt lat="45.30706" lon="6.04884">
        <ele>1831.2</ele>
        <time>2021-01-16T12:17:25Z</time>
      </trkpt>
      <trkpt lat="45.30706" lon="6.04885">
        <ele>1831.2</ele>
        <time>2021-01-16T12:17:26Z</time>
      </trkpt>
      <trkpt lat="45.30706" lon="6.04885">
        <ele>1831</ele>
        <time>2021-01-16T12:17:27Z</time>
      </trkpt>
      <trkpt lat="45.30706" lon="6.04885">
        <ele>1831</ele>
        <time>2021-01-16T12:17:28Z</time>
      </trkpt>
      <trkpt lat="45.30706" lon="6.04885">
        <ele>1831.2</ele>
        <time>2021-01-16T12:17:29Z</time>
      </trkpt>
      <trkpt lat="45.30706" lon="6.04885">
        <ele>1831</ele>
        <time>2021-01-16T12:17:30Z</time>
      </trkpt>
      <trkpt lat="45.30706" lon="6.04885">
        <ele>1831</ele>
        <time>2021-01-16T12:17:31Z</time>
      </trkpt>
      <trkpt lat="45.30706" lon="6.04885">
        <ele>1831.2</ele>
        <time>2021-01-16T12:17:32Z</time>
      </trkpt>
      <trkpt lat="45.30706" lon="6.04885">
        <ele>1831.2</ele>
        <time>2021-01-16T12:17:33Z</time>
      </trkpt>
      <trkpt lat="45.30706" lon="6.04885">
        <ele>1831.2</ele>
        <time>2021-01-16T12:17:34Z</time>
      </trkpt>
      <trkpt lat="45.30706" lon="6.04885">
        <ele>1831.2</ele>
        <time>2021-01-16T12:17:35Z</time>
      </trkpt>
      <trkpt lat="45.30706" lon="6.04885">
        <ele>1831.2</ele>
        <time>2021-01-16T12:17:36Z</time>
      </trkpt>
      <trkpt lat="45.30706" lon="6.04885">
        <ele>1831.2</ele>
        <time>2021-01-16T12:17:37Z</time>
      </trkpt>
      <trkpt lat="45.30706" lon="6.04885">
        <ele>1831.2</ele>
        <time>2021-01-16T12:17:38Z</time>
      </trkpt>
      <trkpt lat="45.30706" lon="6.04885">
        <ele>1831.2</ele>
        <time>2021-01-16T12:17:39Z</time>
      </trkpt>
      <trkpt lat="45.30706" lon="6.04885">
        <ele>1831.2</ele>
        <time>2021-01-16T12:17:40Z</time>
      </trkpt>
      <trkpt lat="45.30706" lon="6.04885">
        <ele>1831.2</ele>
        <time>2021-01-16T12:17:41Z</time>
      </trkpt>
      <trkpt lat="45.30706" lon="6.04885">
        <ele>1831.2</ele>
        <time>2021-01-16T12:17:42Z</time>
      </trkpt>
      <trkpt lat="45.30706" lon="6.04885">
        <ele>1831.2</ele>
        <time>2021-01-16T12:17:43Z</time>
      </trkpt>
      <trkpt lat="45.30706" lon="6.04885">
        <ele>1831.2</ele>
        <time>2021-01-16T12:17:44Z</time>
      </trkpt>
      <trkpt lat="45.30706" lon="6.04885">
        <ele>1831.2</ele>
        <time>2021-01-16T12:17:45Z</time>
      </trkpt>
      <trkpt lat="45.30706" lon="6.04885">
        <ele>1831.2</ele>
        <time>2021-01-16T12:17:46Z</time>
      </trkpt>
      <trkpt lat="45.30706" lon="6.04885">
        <ele>1831.2</ele>
        <time>2021-01-16T12:17:47Z</time>
      </trkpt>
      <trkpt lat="45.30706" lon="6.04885">
        <ele>1831.2</ele>
        <time>2021-01-16T12:17:48Z</time>
      </trkpt>
      <trkpt lat="45.30706" lon="6.04885">
        <ele>1831.2</ele>
        <time>2021-01-16T12:17:49Z</time>
      </trkpt>
      <trkpt lat="45.30706" lon="6.04885">
        <ele>1831.2</ele>
        <time>2021-01-16T12:17:50Z</time>
      </trkpt>
      <trkpt lat="45.30706" lon="6.04885">
        <ele>1831.2</ele>
        <time>2021-01-16T12:17:51Z</time>
      </trkpt>
      <trkpt lat="45.30706" lon="6.04885">
        <ele>1831.2</ele>
        <time>2021-01-16T12:17:52Z</time>
      </trkpt>
      <trkpt lat="45.30706" lon="6.04885">
        <ele>1831.2</ele>
        <time>2021-01-16T12:17:53Z</time>
      </trkpt>
      <trkpt lat="45.30706" lon="6.04885">
        <ele>1831.2</ele>
        <time>2021-01-16T12:17:54Z</time>
      </trkpt>
      <trkpt lat="45.30706" lon="6.04885">
        <ele>1831.2</ele>
        <time>2021-01-16T12:17:55Z</time>
      </trkpt>
      <trkpt lat="45.30706" lon="6.04885">
        <ele>1831.2</ele>
        <time>2021-01-16T12:17:56Z</time>
      </trkpt>
      <trkpt lat="45.30706" lon="6.04885">
        <ele>1831.2</ele>
        <time>2021-01-16T12:17:57Z</time>
      </trkpt>
      <trkpt lat="45.30706" lon="6.04885">
        <ele>1831.2</ele>
        <time>2021-01-16T12:17:58Z</time>
      </trkpt>
      <trkpt lat="45.30706" lon="6.04885">
        <ele>1831.2</ele>
        <time>2021-01-16T12:17:59Z</time>
      </trkpt>
      <trkpt lat="45.30706" lon="6.04886">
        <ele>1831.2</ele>
        <time>2021-01-16T12:18:00Z</time>
      </trkpt>
      <trkpt lat="45.30706" lon="6.04886">
        <ele>1831.2</ele>
        <time>2021-01-16T12:18:01Z</time>
      </trkpt>
      <trkpt lat="45.30706" lon="6.04886">
        <ele>1831.2</ele>
        <time>2021-01-16T12:18:02Z</time>
      </trkpt>
      <trkpt lat="45.30706" lon="6.04886">
        <ele>1831.2</ele>
        <time>2021-01-16T12:18:03Z</time>
      </trkpt>
      <trkpt lat="45.30706" lon="6.04886">
        <ele>1831.2</ele>
        <time>2021-01-16T12:18:04Z</time>
      </trkpt>
      <trkpt lat="45.30706" lon="6.04886">
        <ele>1831.2</ele>
        <time>2021-01-16T12:18:05Z</time>
      </trkpt>
      <trkpt lat="45.30706" lon="6.04886">
        <ele>1831.2</ele>
        <time>2021-01-16T12:18:06Z</time>
      </trkpt>
      <trkpt lat="45.30706" lon="6.04886">
        <ele>1831.4</ele>
        <time>2021-01-16T12:18:07Z</time>
      </trkpt>
      <trkpt lat="45.30706" lon="6.04886">
        <ele>1831.4</ele>
        <time>2021-01-16T12:18:08Z</time>
      </trkpt>
      <trkpt lat="45.30706" lon="6.04886">
        <ele>1831.4</ele>
        <time>2021-01-16T12:18:09Z</time>
      </trkpt>
      <trkpt lat="45.30706" lon="6.04886">
        <ele>1831.4</ele>
        <time>2021-01-16T12:18:10Z</time>
      </trkpt>
      <trkpt lat="45.30706" lon="6.04886">
        <ele>1831.4</ele>
        <time>2021-01-16T12:18:11Z</time>
      </trkpt>
      <trkpt lat="45.30706" lon="6.04886">
        <ele>1831.4</ele>
        <time>2021-01-16T12:18:12Z</time>
      </trkpt>
      <trkpt lat="45.30706" lon="6.04886">
        <ele>1831.4</ele>
        <time>2021-01-16T12:18:13Z</time>
      </trkpt>
      <trkpt lat="45.30706" lon="6.04886">
        <ele>1831.4</ele>
        <time>2021-01-16T12:18:14Z</time>
      </trkpt>
      <trkpt lat="45.30706" lon="6.04886">
        <ele>1831.4</ele>
        <time>2021-01-16T12:18:15Z</time>
      </trkpt>
      <trkpt lat="45.30706" lon="6.04886">
        <ele>1831.4</ele>
        <time>2021-01-16T12:18:16Z</time>
      </trkpt>
      <trkpt lat="45.30706" lon="6.04886">
        <ele>1831.4</ele>
        <time>2021-01-16T12:18:17Z</time>
      </trkpt>
      <trkpt lat="45.30706" lon="6.04886">
        <ele>1831.4</ele>
        <time>2021-01-16T12:18:18Z</time>
      </trkpt>
      <trkpt lat="45.30706" lon="6.04886">
        <ele>1831.4</ele>
        <time>2021-01-16T12:18:19Z</time>
      </trkpt>
      <trkpt lat="45.30706" lon="6.04886">
        <ele>1831.4</ele>
        <time>2021-01-16T12:18:20Z</time>
      </trkpt>
      <trkpt lat="45.30706" lon="6.04886">
        <ele>1831.2</ele>
        <time>2021-01-16T12:18:21Z</time>
      </trkpt>
      <trkpt lat="45.30706" lon="6.04886">
        <ele>1831.4</ele>
        <time>2021-01-16T12:18:22Z</time>
      </trkpt>
      <trkpt lat="45.30706" lon="6.04886">
        <ele>1831.4</ele>
        <time>2021-01-16T12:18:23Z</time>
      </trkpt>
      <trkpt lat="45.30706" lon="6.04886">
        <ele>1831.2</ele>
        <time>2021-01-16T12:18:24Z</time>
      </trkpt>
      <trkpt lat="45.30706" lon="6.04886">
        <ele>1831.4</ele>
        <time>2021-01-16T12:18:25Z</time>
      </trkpt>
      <trkpt lat="45.30706" lon="6.04886">
        <ele>1831.4</ele>
        <time>2021-01-16T12:18:26Z</time>
      </trkpt>
      <trkpt lat="45.30706" lon="6.04886">
        <ele>1831.4</ele>
        <time>2021-01-16T12:18:27Z</time>
      </trkpt>
      <trkpt lat="45.30706" lon="6.04886">
        <ele>1831.4</ele>
        <time>2021-01-16T12:18:28Z</time>
      </trkpt>
      <trkpt lat="45.30706" lon="6.04886">
        <ele>1831.2</ele>
        <time>2021-01-16T12:18:29Z</time>
      </trkpt>
      <trkpt lat="45.30706" lon="6.04886">
        <ele>1831.2</ele>
        <time>2021-01-16T12:18:30Z</time>
      </trkpt>
      <trkpt lat="45.30706" lon="6.04886">
        <ele>1831.2</ele>
        <time>2021-01-16T12:18:31Z</time>
      </trkpt>
      <trkpt lat="45.30706" lon="6.04886">
        <ele>1831.2</ele>
        <time>2021-01-16T12:18:32Z</time>
      </trkpt>
      <trkpt lat="45.30706" lon="6.04886">
        <ele>1831.2</ele>
        <time>2021-01-16T12:18:33Z</time>
      </trkpt>
      <trkpt lat="45.30706" lon="6.04887">
        <ele>1831.4</ele>
        <time>2021-01-16T12:18:34Z</time>
      </trkpt>
      <trkpt lat="45.30706" lon="6.04887">
        <ele>1831.4</ele>
        <time>2021-01-16T12:18:35Z</time>
      </trkpt>
      <trkpt lat="45.30706" lon="6.04887">
        <ele>1831.4</ele>
        <time>2021-01-16T12:18:36Z</time>
      </trkpt>
      <trkpt lat="45.30706" lon="6.04887">
        <ele>1831.4</ele>
        <time>2021-01-16T12:18:37Z</time>
      </trkpt>
      <trkpt lat="45.30706" lon="6.04887">
        <ele>1831.4</ele>
        <time>2021-01-16T12:18:38Z</time>
      </trkpt>
      <trkpt lat="45.30706" lon="6.04887">
        <ele>1831.4</ele>
        <time>2021-01-16T12:18:39Z</time>
      </trkpt>
      <trkpt lat="45.30706" lon="6.04887">
        <ele>1831.4</ele>
        <time>2021-01-16T12:18:40Z</time>
      </trkpt>
      <trkpt lat="45.30706" lon="6.04887">
        <ele>1831.4</ele>
        <time>2021-01-16T12:18:41Z</time>
      </trkpt>
      <trkpt lat="45.30706" lon="6.04887">
        <ele>1831.4</ele>
        <time>2021-01-16T12:18:42Z</time>
      </trkpt>
      <trkpt lat="45.30706" lon="6.04887">
        <ele>1831.6</ele>
        <time>2021-01-16T12:18:43Z</time>
      </trkpt>
      <trkpt lat="45.30706" lon="6.04887">
        <ele>1831.6</ele>
        <time>2021-01-16T12:18:44Z</time>
      </trkpt>
      <trkpt lat="45.30706" lon="6.04887">
        <ele>1831.6</ele>
        <time>2021-01-16T12:18:45Z</time>
      </trkpt>
      <trkpt lat="45.30706" lon="6.04887">
        <ele>1831.6</ele>
        <time>2021-01-16T12:18:46Z</time>
      </trkpt>
      <trkpt lat="45.30706" lon="6.04887">
        <ele>1831.6</ele>
        <time>2021-01-16T12:18:47Z</time>
      </trkpt>
      <trkpt lat="45.30706" lon="6.04887">
        <ele>1831.6</ele>
        <time>2021-01-16T12:18:48Z</time>
      </trkpt>
      <trkpt lat="45.30706" lon="6.04887">
        <ele>1831.6</ele>
        <time>2021-01-16T12:18:49Z</time>
      </trkpt>
      <trkpt lat="45.30706" lon="6.04887">
        <ele>1831.6</ele>
        <time>2021-01-16T12:18:50Z</time>
      </trkpt>
      <trkpt lat="45.30706" lon="6.04887">
        <ele>1831.6</ele>
        <time>2021-01-16T12:18:51Z</time>
      </trkpt>
      <trkpt lat="45.30706" lon="6.04887">
        <ele>1831.6</ele>
        <time>2021-01-16T12:18:52Z</time>
      </trkpt>
      <trkpt lat="45.30706" lon="6.04887">
        <ele>1831.6</ele>
        <time>2021-01-16T12:18:53Z</time>
      </trkpt>
      <trkpt lat="45.30706" lon="6.04887">
        <ele>1831.6</ele>
        <time>2021-01-16T12:18:54Z</time>
      </trkpt>
      <trkpt lat="45.30706" lon="6.04887">
        <ele>1831.6</ele>
        <time>2021-01-16T12:18:55Z</time>
      </trkpt>
      <trkpt lat="45.30706" lon="6.04887">
        <ele>1831.6</ele>
        <time>2021-01-16T12:18:56Z</time>
      </trkpt>
      <trkpt lat="45.30706" lon="6.04887">
        <ele>1831.6</ele>
        <time>2021-01-16T12:18:57Z</time>
      </trkpt>
      <trkpt lat="45.30706" lon="6.04887">
        <ele>1831.6</ele>
        <time>2021-01-16T12:18:58Z</time>
      </trkpt>
      <trkpt lat="45.30706" lon="6.04887">
        <ele>1831.6</ele>
        <time>2021-01-16T12:18:59Z</time>
      </trkpt>
      <trkpt lat="45.30706" lon="6.04887">
        <ele>1831.6</ele>
        <time>2021-01-16T12:19:00Z</time>
      </trkpt>
      <trkpt lat="45.30706" lon="6.04887">
        <ele>1831.6</ele>
        <time>2021-01-16T12:19:01Z</time>
      </trkpt>
      <trkpt lat="45.30706" lon="6.04887">
        <ele>1831.6</ele>
        <time>2021-01-16T12:19:02Z</time>
      </trkpt>
      <trkpt lat="45.30706" lon="6.04887">
        <ele>1831.6</ele>
        <time>2021-01-16T12:19:03Z</time>
      </trkpt>
      <trkpt lat="45.30706" lon="6.04887">
        <ele>1831.6</ele>
        <time>2021-01-16T12:19:04Z</time>
      </trkpt>
      <trkpt lat="45.30706" lon="6.04887">
        <ele>1831.6</ele>
        <time>2021-01-16T12:19:05Z</time>
      </trkpt>
      <trkpt lat="45.30706" lon="6.04887">
        <ele>1831.6</ele>
        <time>2021-01-16T12:19:06Z</time>
      </trkpt>
      <trkpt lat="45.30706" lon="6.04887">
        <ele>1831.6</ele>
        <time>2021-01-16T12:19:07Z</time>
      </trkpt>
      <trkpt lat="45.30706" lon="6.04888">
        <ele>1831.6</ele>
        <time>2021-01-16T12:19:08Z</time>
      </trkpt>
      <trkpt lat="45.30706" lon="6.04888">
        <ele>1831.6</ele>
        <time>2021-01-16T12:19:09Z</time>
      </trkpt>
      <trkpt lat="45.30706" lon="6.04888">
        <ele>1831.6</ele>
        <time>2021-01-16T12:19:10Z</time>
      </trkpt>
      <trkpt lat="45.30706" lon="6.04888">
        <ele>1831.6</ele>
        <time>2021-01-16T12:19:11Z</time>
      </trkpt>
      <trkpt lat="45.30706" lon="6.04888">
        <ele>1831.6</ele>
        <time>2021-01-16T12:19:12Z</time>
      </trkpt>
      <trkpt lat="45.30706" lon="6.04888">
        <ele>1831.6</ele>
        <time>2021-01-16T12:19:13Z</time>
      </trkpt>
      <trkpt lat="45.30706" lon="6.04888">
        <ele>1831.6</ele>
        <time>2021-01-16T12:19:14Z</time>
      </trkpt>
      <trkpt lat="45.30706" lon="6.04888">
        <ele>1831.6</ele>
        <time>2021-01-16T12:19:15Z</time>
      </trkpt>
      <trkpt lat="45.30706" lon="6.04888">
        <ele>1831.6</ele>
        <time>2021-01-16T12:19:16Z</time>
      </trkpt>
      <trkpt lat="45.30706" lon="6.04888">
        <ele>1831.6</ele>
        <time>2021-01-16T12:19:17Z</time>
      </trkpt>
      <trkpt lat="45.30706" lon="6.04888">
        <ele>1831.6</ele>
        <time>2021-01-16T12:19:18Z</time>
      </trkpt>
      <trkpt lat="45.30706" lon="6.04888">
        <ele>1831.6</ele>
        <time>2021-01-16T12:19:19Z</time>
      </trkpt>
      <trkpt lat="45.30706" lon="6.04888">
        <ele>1831.6</ele>
        <time>2021-01-16T12:19:20Z</time>
      </trkpt>
      <trkpt lat="45.30706" lon="6.04888">
        <ele>1831.6</ele>
        <time>2021-01-16T12:19:21Z</time>
      </trkpt>
      <trkpt lat="45.30706" lon="6.04888">
        <ele>1831.6</ele>
        <time>2021-01-16T12:19:22Z</time>
      </trkpt>
      <trkpt lat="45.30706" lon="6.04888">
        <ele>1831.6</ele>
        <time>2021-01-16T12:19:23Z</time>
      </trkpt>
      <trkpt lat="45.30706" lon="6.04888">
        <ele>1831.6</ele>
        <time>2021-01-16T12:19:24Z</time>
      </trkpt>
      <trkpt lat="45.30706" lon="6.04888">
        <ele>1831.6</ele>
        <time>2021-01-16T12:19:25Z</time>
      </trkpt>
      <trkpt lat="45.30706" lon="6.04888">
        <ele>1831.6</ele>
        <time>2021-01-16T12:19:26Z</time>
      </trkpt>
      <trkpt lat="45.30706" lon="6.04888">
        <ele>1831.6</ele>
        <time>2021-01-16T12:19:27Z</time>
      </trkpt>
      <trkpt lat="45.30706" lon="6.04888">
        <ele>1831.6</ele>
        <time>2021-01-16T12:19:28Z</time>
      </trkpt>
      <trkpt lat="45.30706" lon="6.04888">
        <ele>1831.6</ele>
        <time>2021-01-16T12:19:29Z</time>
      </trkpt>
      <trkpt lat="45.30706" lon="6.04888">
        <ele>1831.6</ele>
        <time>2021-01-16T12:19:30Z</time>
      </trkpt>
      <trkpt lat="45.30706" lon="6.04888">
        <ele>1831.6</ele>
        <time>2021-01-16T12:19:31Z</time>
      </trkpt>
      <trkpt lat="45.30706" lon="6.04888">
        <ele>1831.6</ele>
        <time>2021-01-16T12:19:32Z</time>
      </trkpt>
      <trkpt lat="45.30706" lon="6.04888">
        <ele>1831.6</ele>
        <time>2021-01-16T12:19:33Z</time>
      </trkpt>
      <trkpt lat="45.30706" lon="6.04888">
        <ele>1831.8</ele>
        <time>2021-01-16T12:19:34Z</time>
      </trkpt>
      <trkpt lat="45.30706" lon="6.04888">
        <ele>1831.8</ele>
        <time>2021-01-16T12:19:35Z</time>
      </trkpt>
      <trkpt lat="45.30706" lon="6.04888">
        <ele>1831.6</ele>
        <time>2021-01-16T12:19:36Z</time>
      </trkpt>
      <trkpt lat="45.30706" lon="6.04888">
        <ele>1831.6</ele>
        <time>2021-01-16T12:19:37Z</time>
      </trkpt>
      <trkpt lat="45.30706" lon="6.04888">
        <ele>1831.6</ele>
        <time>2021-01-16T12:19:38Z</time>
      </trkpt>
      <trkpt lat="45.30706" lon="6.04888">
        <ele>1831.6</ele>
        <time>2021-01-16T12:19:39Z</time>
      </trkpt>
      <trkpt lat="45.30706" lon="6.04888">
        <ele>1831.8</ele>
        <time>2021-01-16T12:19:40Z</time>
      </trkpt>
      <trkpt lat="45.30706" lon="6.04888">
        <ele>1831.8</ele>
        <time>2021-01-16T12:19:41Z</time>
      </trkpt>
      <trkpt lat="45.30706" lon="6.04889">
        <ele>1831.8</ele>
        <time>2021-01-16T12:19:42Z</time>
      </trkpt>
      <trkpt lat="45.30706" lon="6.04889">
        <ele>1831.8</ele>
        <time>2021-01-16T12:19:43Z</time>
      </trkpt>
      <trkpt lat="45.30706" lon="6.04889">
        <ele>1831.8</ele>
        <time>2021-01-16T12:19:44Z</time>
      </trkpt>
      <trkpt lat="45.30706" lon="6.04889">
        <ele>1831.8</ele>
        <time>2021-01-16T12:19:45Z</time>
      </trkpt>
      <trkpt lat="45.30706" lon="6.04889">
        <ele>1831.8</ele>
        <time>2021-01-16T12:19:46Z</time>
      </trkpt>
      <trkpt lat="45.30706" lon="6.04889">
        <ele>1831.8</ele>
        <time>2021-01-16T12:19:47Z</time>
      </trkpt>
      <trkpt lat="45.30706" lon="6.04889">
        <ele>1831.8</ele>
        <time>2021-01-16T12:19:48Z</time>
      </trkpt>
      <trkpt lat="45.30706" lon="6.04889">
        <ele>1831.8</ele>
        <time>2021-01-16T12:19:49Z</time>
      </trkpt>
      <trkpt lat="45.30706" lon="6.04889">
        <ele>1831.8</ele>
        <time>2021-01-16T12:19:50Z</time>
      </trkpt>
      <trkpt lat="45.30706" lon="6.04889">
        <ele>1831.8</ele>
        <time>2021-01-16T12:19:51Z</time>
      </trkpt>
      <trkpt lat="45.30706" lon="6.04889">
        <ele>1831.8</ele>
        <time>2021-01-16T12:19:52Z</time>
      </trkpt>
      <trkpt lat="45.30706" lon="6.04889">
        <ele>1831.8</ele>
        <time>2021-01-16T12:19:53Z</time>
      </trkpt>
      <trkpt lat="45.30706" lon="6.04889">
        <ele>1831.8</ele>
        <time>2021-01-16T12:19:54Z</time>
      </trkpt>
      <trkpt lat="45.30706" lon="6.04889">
        <ele>1831.8</ele>
        <time>2021-01-16T12:19:55Z</time>
      </trkpt>
      <trkpt lat="45.30706" lon="6.04889">
        <ele>1831.8</ele>
        <time>2021-01-16T12:19:56Z</time>
      </trkpt>
      <trkpt lat="45.30706" lon="6.04889">
        <ele>1831.8</ele>
        <time>2021-01-16T12:19:57Z</time>
      </trkpt>
      <trkpt lat="45.30706" lon="6.04889">
        <ele>1831.8</ele>
        <time>2021-01-16T12:19:58Z</time>
      </trkpt>
      <trkpt lat="45.30706" lon="6.04889">
        <ele>1831.8</ele>
        <time>2021-01-16T12:19:59Z</time>
      </trkpt>
      <trkpt lat="45.30706" lon="6.04889">
        <ele>1831.8</ele>
        <time>2021-01-16T12:20:00Z</time>
      </trkpt>
      <trkpt lat="45.30706" lon="6.04889">
        <ele>1831.8</ele>
        <time>2021-01-16T12:20:01Z</time>
      </trkpt>
      <trkpt lat="45.30706" lon="6.04889">
        <ele>1831.8</ele>
        <time>2021-01-16T12:20:02Z</time>
      </trkpt>
      <trkpt lat="45.30706" lon="6.04889">
        <ele>1831.8</ele>
        <time>2021-01-16T12:20:03Z</time>
      </trkpt>
      <trkpt lat="45.30706" lon="6.04889">
        <ele>1831.8</ele>
        <time>2021-01-16T12:20:04Z</time>
      </trkpt>
      <trkpt lat="45.30706" lon="6.04889">
        <ele>1831.8</ele>
        <time>2021-01-16T12:20:05Z</time>
      </trkpt>
      <trkpt lat="45.30706" lon="6.04889">
        <ele>1831.8</ele>
        <time>2021-01-16T12:20:06Z</time>
      </trkpt>
      <trkpt lat="45.30706" lon="6.04889">
        <ele>1831.8</ele>
        <time>2021-01-16T12:20:07Z</time>
      </trkpt>
      <trkpt lat="45.30706" lon="6.04889">
        <ele>1831.8</ele>
        <time>2021-01-16T12:20:08Z</time>
      </trkpt>
      <trkpt lat="45.30706" lon="6.04889">
        <ele>1831.8</ele>
        <time>2021-01-16T12:20:09Z</time>
      </trkpt>
      <trkpt lat="45.30706" lon="6.04889">
        <ele>1831.8</ele>
        <time>2021-01-16T12:20:10Z</time>
      </trkpt>
      <trkpt lat="45.30706" lon="6.04889">
        <ele>1831.8</ele>
        <time>2021-01-16T12:20:11Z</time>
      </trkpt>
      <trkpt lat="45.30706" lon="6.04889">
        <ele>1831.8</ele>
        <time>2021-01-16T12:20:12Z</time>
      </trkpt>
      <trkpt lat="45.30706" lon="6.04889">
        <ele>1831.8</ele>
        <time>2021-01-16T12:20:13Z</time>
      </trkpt>
      <trkpt lat="45.30706" lon="6.04889">
        <ele>1832</ele>
        <time>2021-01-16T12:20:14Z</time>
      </trkpt>
      <trkpt lat="45.30706" lon="6.04889">
        <ele>1831.8</ele>
        <time>2021-01-16T12:20:15Z</time>
      </trkpt>
      <trkpt lat="45.30706" lon="6.0489">
        <ele>1831.8</ele>
        <time>2021-01-16T12:20:16Z</time>
      </trkpt>
      <trkpt lat="45.30706" lon="6.0489">
        <ele>1831.8</ele>
        <time>2021-01-16T12:20:17Z</time>
      </trkpt>
      <trkpt lat="45.30706" lon="6.0489">
        <ele>1831.8</ele>
        <time>2021-01-16T12:20:18Z</time>
      </trkpt>
      <trkpt lat="45.30706" lon="6.0489">
        <ele>1831.8</ele>
        <time>2021-01-16T12:20:19Z</time>
      </trkpt>
      <trkpt lat="45.30706" lon="6.0489">
        <ele>1832</ele>
        <time>2021-01-16T12:20:20Z</time>
      </trkpt>
      <trkpt lat="45.30706" lon="6.0489">
        <ele>1832</ele>
        <time>2021-01-16T12:20:21Z</time>
      </trkpt>
      <trkpt lat="45.30706" lon="6.0489">
        <ele>1832</ele>
        <time>2021-01-16T12:20:22Z</time>
      </trkpt>
      <trkpt lat="45.30706" lon="6.0489">
        <ele>1832</ele>
        <time>2021-01-16T12:20:23Z</time>
      </trkpt>
      <trkpt lat="45.30706" lon="6.0489">
        <ele>1832</ele>
        <time>2021-01-16T12:20:24Z</time>
      </trkpt>
      <trkpt lat="45.30706" lon="6.0489">
        <ele>1832</ele>
        <time>2021-01-16T12:20:25Z</time>
      </trkpt>
      <trkpt lat="45.30706" lon="6.0489">
        <ele>1832</ele>
        <time>2021-01-16T12:20:26Z</time>
      </trkpt>
      <trkpt lat="45.30706" lon="6.0489">
        <ele>1832</ele>
        <time>2021-01-16T12:20:27Z</time>
      </trkpt>
      <trkpt lat="45.30706" lon="6.0489">
        <ele>1832</ele>
        <time>2021-01-16T12:20:28Z</time>
      </trkpt>
      <trkpt lat="45.30706" lon="6.0489">
        <ele>1832</ele>
        <time>2021-01-16T12:20:29Z</time>
      </trkpt>
      <trkpt lat="45.30706" lon="6.0489">
        <ele>1832</ele>
        <time>2021-01-16T12:20:30Z</time>
      </trkpt>
      <trkpt lat="45.30706" lon="6.0489">
        <ele>1832</ele>
        <time>2021-01-16T12:20:31Z</time>
      </trkpt>
      <trkpt lat="45.30706" lon="6.0489">
        <ele>1832</ele>
        <time>2021-01-16T12:20:32Z</time>
      </trkpt>
      <trkpt lat="45.30706" lon="6.0489">
        <ele>1832</ele>
        <time>2021-01-16T12:20:33Z</time>
      </trkpt>
      <trkpt lat="45.30706" lon="6.0489">
        <ele>1832</ele>
        <time>2021-01-16T12:20:34Z</time>
      </trkpt>
      <trkpt lat="45.30706" lon="6.0489">
        <ele>1832</ele>
        <time>2021-01-16T12:20:35Z</time>
      </trkpt>
      <trkpt lat="45.30706" lon="6.0489">
        <ele>1832</ele>
        <time>2021-01-16T12:20:36Z</time>
      </trkpt>
      <trkpt lat="45.30706" lon="6.0489">
        <ele>1832</ele>
        <time>2021-01-16T12:20:37Z</time>
      </trkpt>
      <trkpt lat="45.30706" lon="6.0489">
        <ele>1832</ele>
        <time>2021-01-16T12:20:38Z</time>
      </trkpt>
      <trkpt lat="45.30706" lon="6.0489">
        <ele>1832</ele>
        <time>2021-01-16T12:20:39Z</time>
      </trkpt>
      <trkpt lat="45.30706" lon="6.0489">
        <ele>1832</ele>
        <time>2021-01-16T12:20:40Z</time>
      </trkpt>
      <trkpt lat="45.30706" lon="6.0489">
        <ele>1832</ele>
        <time>2021-01-16T12:20:41Z</time>
      </trkpt>
      <trkpt lat="45.30706" lon="6.0489">
        <ele>1832</ele>
        <time>2021-01-16T12:20:42Z</time>
      </trkpt>
      <trkpt lat="45.30706" lon="6.0489">
        <ele>1832</ele>
        <time>2021-01-16T12:20:43Z</time>
      </trkpt>
      <trkpt lat="45.30706" lon="6.0489">
        <ele>1832</ele>
        <time>2021-01-16T12:20:44Z</time>
      </trkpt>
      <trkpt lat="45.30706" lon="6.0489">
        <ele>1832</ele>
        <time>2021-01-16T12:20:45Z</time>
      </trkpt>
      <trkpt lat="45.30706" lon="6.0489">
        <ele>1832</ele>
        <time>2021-01-16T12:20:46Z</time>
      </trkpt>
      <trkpt lat="45.30706" lon="6.0489">
        <ele>1832</ele>
        <time>2021-01-16T12:20:47Z</time>
      </trkpt>
      <trkpt lat="45.30706" lon="6.0489">
        <ele>1832</ele>
        <time>2021-01-16T12:20:48Z</time>
      </trkpt>
      <trkpt lat="45.30706" lon="6.0489">
        <ele>1832</ele>
        <time>2021-01-16T12:20:49Z</time>
      </trkpt>
      <trkpt lat="45.30706" lon="6.04891">
        <ele>1832</ele>
        <time>2021-01-16T12:20:50Z</time>
      </trkpt>
      <trkpt lat="45.30706" lon="6.04891">
        <ele>1832</ele>
        <time>2021-01-16T12:20:51Z</time>
      </trkpt>
      <trkpt lat="45.30706" lon="6.04891">
        <ele>1832.2</ele>
        <time>2021-01-16T12:20:52Z</time>
      </trkpt>
      <trkpt lat="45.30706" lon="6.04891">
        <ele>1832</ele>
        <time>2021-01-16T12:20:53Z</time>
      </trkpt>
      <trkpt lat="45.30706" lon="6.04891">
        <ele>1832</ele>
        <time>2021-01-16T12:20:54Z</time>
      </trkpt>
      <trkpt lat="45.30706" lon="6.04891">
        <ele>1832</ele>
        <time>2021-01-16T12:20:55Z</time>
      </trkpt>
      <trkpt lat="45.30706" lon="6.04891">
        <ele>1832.2</ele>
        <time>2021-01-16T12:20:56Z</time>
      </trkpt>
      <trkpt lat="45.30706" lon="6.04891">
        <ele>1832.2</ele>
        <time>2021-01-16T12:20:57Z</time>
      </trkpt>
      <trkpt lat="45.30706" lon="6.04891">
        <ele>1832.2</ele>
        <time>2021-01-16T12:20:58Z</time>
      </trkpt>
      <trkpt lat="45.30706" lon="6.04891">
        <ele>1832.2</ele>
        <time>2021-01-16T12:20:59Z</time>
      </trkpt>
      <trkpt lat="45.30706" lon="6.04891">
        <ele>1832.2</ele>
        <time>2021-01-16T12:21:00Z</time>
      </trkpt>
      <trkpt lat="45.30706" lon="6.04891">
        <ele>1832.2</ele>
        <time>2021-01-16T12:21:01Z</time>
      </trkpt>
      <trkpt lat="45.30706" lon="6.04891">
        <ele>1832.2</ele>
        <time>2021-01-16T12:21:02Z</time>
      </trkpt>
      <trkpt lat="45.30706" lon="6.04891">
        <ele>1832.2</ele>
        <time>2021-01-16T12:21:03Z</time>
      </trkpt>
      <trkpt lat="45.30706" lon="6.04891">
        <ele>1832.2</ele>
        <time>2021-01-16T12:21:04Z</time>
      </trkpt>
      <trkpt lat="45.30706" lon="6.04891">
        <ele>1832.2</ele>
        <time>2021-01-16T12:21:05Z</time>
      </trkpt>
      <trkpt lat="45.30706" lon="6.04891">
        <ele>1832.2</ele>
        <time>2021-01-16T12:21:06Z</time>
      </trkpt>
      <trkpt lat="45.30706" lon="6.04891">
        <ele>1832.2</ele>
        <time>2021-01-16T12:21:07Z</time>
      </trkpt>
      <trkpt lat="45.30706" lon="6.04891">
        <ele>1832.2</ele>
        <time>2021-01-16T12:21:08Z</time>
      </trkpt>
      <trkpt lat="45.30706" lon="6.04891">
        <ele>1832.2</ele>
        <time>2021-01-16T12:21:09Z</time>
      </trkpt>
      <trkpt lat="45.30706" lon="6.04891">
        <ele>1832.2</ele>
        <time>2021-01-16T12:21:10Z</time>
      </trkpt>
      <trkpt lat="45.30706" lon="6.04891">
        <ele>1832.2</ele>
        <time>2021-01-16T12:21:11Z</time>
      </trkpt>
      <trkpt lat="45.30706" lon="6.04891">
        <ele>1832.2</ele>
        <time>2021-01-16T12:21:12Z</time>
      </trkpt>
      <trkpt lat="45.30706" lon="6.04891">
        <ele>1832.2</ele>
        <time>2021-01-16T12:21:13Z</time>
      </trkpt>
      <trkpt lat="45.30706" lon="6.04891">
        <ele>1832.2</ele>
        <time>2021-01-16T12:21:14Z</time>
      </trkpt>
      <trkpt lat="45.30706" lon="6.04891">
        <ele>1832.2</ele>
        <time>2021-01-16T12:21:15Z</time>
      </trkpt>
      <trkpt lat="45.30706" lon="6.04891">
        <ele>1832.2</ele>
        <time>2021-01-16T12:21:16Z</time>
      </trkpt>
      <trkpt lat="45.30706" lon="6.04891">
        <ele>1832.4</ele>
        <time>2021-01-16T12:21:17Z</time>
      </trkpt>
      <trkpt lat="45.30706" lon="6.04891">
        <ele>1832.4</ele>
        <time>2021-01-16T12:21:18Z</time>
      </trkpt>
      <trkpt lat="45.30706" lon="6.04891">
        <ele>1832.2</ele>
        <time>2021-01-16T12:21:19Z</time>
      </trkpt>
      <trkpt lat="45.30706" lon="6.04891">
        <ele>1832.4</ele>
        <time>2021-01-16T12:21:20Z</time>
      </trkpt>
      <trkpt lat="45.30706" lon="6.04891">
        <ele>1832.4</ele>
        <time>2021-01-16T12:21:21Z</time>
      </trkpt>
      <trkpt lat="45.30706" lon="6.04891">
        <ele>1832.4</ele>
        <time>2021-01-16T12:21:22Z</time>
      </trkpt>
      <trkpt lat="45.30706" lon="6.04891">
        <ele>1832.4</ele>
        <time>2021-01-16T12:21:23Z</time>
      </trkpt>
      <trkpt lat="45.30706" lon="6.04892">
        <ele>1832.4</ele>
        <time>2021-01-16T12:21:24Z</time>
      </trkpt>
      <trkpt lat="45.30706" lon="6.04892">
        <ele>1832.4</ele>
        <time>2021-01-16T12:21:25Z</time>
      </trkpt>
      <trkpt lat="45.30706" lon="6.04892">
        <ele>1832.4</ele>
        <time>2021-01-16T12:21:26Z</time>
      </trkpt>
      <trkpt lat="45.30706" lon="6.04892">
        <ele>1832.4</ele>
        <time>2021-01-16T12:21:27Z</time>
      </trkpt>
      <trkpt lat="45.30706" lon="6.04892">
        <ele>1832.4</ele>
        <time>2021-01-16T12:21:28Z</time>
      </trkpt>
      <trkpt lat="45.30706" lon="6.04892">
        <ele>1832.2</ele>
        <time>2021-01-16T12:21:29Z</time>
      </trkpt>
      <trkpt lat="45.30706" lon="6.04892">
        <ele>1832.4</ele>
        <time>2021-01-16T12:21:30Z</time>
      </trkpt>
      <trkpt lat="45.30706" lon="6.04892">
        <ele>1832.4</ele>
        <time>2021-01-16T12:21:31Z</time>
      </trkpt>
      <trkpt lat="45.30706" lon="6.04892">
        <ele>1832.4</ele>
        <time>2021-01-16T12:21:32Z</time>
      </trkpt>
      <trkpt lat="45.30706" lon="6.04892">
        <ele>1832.4</ele>
        <time>2021-01-16T12:21:33Z</time>
      </trkpt>
      <trkpt lat="45.30706" lon="6.04892">
        <ele>1832.4</ele>
        <time>2021-01-16T12:21:34Z</time>
      </trkpt>
      <trkpt lat="45.30706" lon="6.04892">
        <ele>1832.4</ele>
        <time>2021-01-16T12:21:35Z</time>
      </trkpt>
      <trkpt lat="45.30706" lon="6.04892">
        <ele>1832.4</ele>
        <time>2021-01-16T12:21:36Z</time>
      </trkpt>
      <trkpt lat="45.30706" lon="6.04892">
        <ele>1832.4</ele>
        <time>2021-01-16T12:21:37Z</time>
      </trkpt>
      <trkpt lat="45.30706" lon="6.04892">
        <ele>1832.4</ele>
        <time>2021-01-16T12:21:38Z</time>
      </trkpt>
      <trkpt lat="45.30706" lon="6.04892">
        <ele>1832.6</ele>
        <time>2021-01-16T12:21:39Z</time>
      </trkpt>
      <trkpt lat="45.30706" lon="6.04892">
        <ele>1832.6</ele>
        <time>2021-01-16T12:21:40Z</time>
      </trkpt>
      <trkpt lat="45.30706" lon="6.04892">
        <ele>1832.6</ele>
        <time>2021-01-16T12:21:41Z</time>
      </trkpt>
      <trkpt lat="45.30706" lon="6.04892">
        <ele>1832.6</ele>
        <time>2021-01-16T12:21:42Z</time>
      </trkpt>
      <trkpt lat="45.30706" lon="6.04892">
        <ele>1832.6</ele>
        <time>2021-01-16T12:21:43Z</time>
      </trkpt>
      <trkpt lat="45.30706" lon="6.04892">
        <ele>1832.6</ele>
        <time>2021-01-16T12:21:44Z</time>
      </trkpt>
      <trkpt lat="45.30706" lon="6.04892">
        <ele>1832.6</ele>
        <time>2021-01-16T12:21:45Z</time>
      </trkpt>
      <trkpt lat="45.30706" lon="6.04892">
        <ele>1832.6</ele>
        <time>2021-01-16T12:21:46Z</time>
      </trkpt>
      <trkpt lat="45.30706" lon="6.04892">
        <ele>1832.6</ele>
        <time>2021-01-16T12:21:47Z</time>
      </trkpt>
      <trkpt lat="45.30706" lon="6.04892">
        <ele>1832.6</ele>
        <time>2021-01-16T12:21:48Z</time>
      </trkpt>
      <trkpt lat="45.30706" lon="6.04892">
        <ele>1832.6</ele>
        <time>2021-01-16T12:21:49Z</time>
      </trkpt>
      <trkpt lat="45.30706" lon="6.04892">
        <ele>1832.8</ele>
        <time>2021-01-16T12:21:50Z</time>
      </trkpt>
      <trkpt lat="45.30706" lon="6.04892">
        <ele>1832.8</ele>
        <time>2021-01-16T12:21:51Z</time>
      </trkpt>
      <trkpt lat="45.30706" lon="6.04892">
        <ele>1832.8</ele>
        <time>2021-01-16T12:21:52Z</time>
      </trkpt>
      <trkpt lat="45.30706" lon="6.04892">
        <ele>1832.8</ele>
        <time>2021-01-16T12:21:53Z</time>
      </trkpt>
      <trkpt lat="45.30706" lon="6.04892">
        <ele>1833</ele>
        <time>2021-01-16T12:21:54Z</time>
      </trkpt>
      <trkpt lat="45.30706" lon="6.04892">
        <ele>1833</ele>
        <time>2021-01-16T12:21:55Z</time>
      </trkpt>
      <trkpt lat="45.30706" lon="6.04892">
        <ele>1833.2</ele>
        <time>2021-01-16T12:21:56Z</time>
      </trkpt>
      <trkpt lat="45.30706" lon="6.04892">
        <ele>1833.2</ele>
        <time>2021-01-16T12:21:57Z</time>
      </trkpt>
      <trkpt lat="45.30706" lon="6.04893">
        <ele>1833.4</ele>
        <time>2021-01-16T12:21:58Z</time>
      </trkpt>
      <trkpt lat="45.30706" lon="6.04893">
        <ele>1833.4</ele>
        <time>2021-01-16T12:21:59Z</time>
      </trkpt>
      <trkpt lat="45.30706" lon="6.04893">
        <ele>1833.4</ele>
        <time>2021-01-16T12:22:00Z</time>
      </trkpt>
      <trkpt lat="45.30706" lon="6.04893">
        <ele>1833.4</ele>
        <time>2021-01-16T12:22:01Z</time>
      </trkpt>
      <trkpt lat="45.30706" lon="6.04893">
        <ele>1833.6</ele>
        <time>2021-01-16T12:22:02Z</time>
      </trkpt>
      <trkpt lat="45.30706" lon="6.04893">
        <ele>1833.6</ele>
        <time>2021-01-16T12:22:03Z</time>
      </trkpt>
      <trkpt lat="45.30706" lon="6.04893">
        <ele>1833.6</ele>
        <time>2021-01-16T12:22:04Z</time>
      </trkpt>
      <trkpt lat="45.30706" lon="6.04893">
        <ele>1833.6</ele>
        <time>2021-01-16T12:22:05Z</time>
      </trkpt>
      <trkpt lat="45.30706" lon="6.04893">
        <ele>1833.6</ele>
        <time>2021-01-16T12:22:06Z</time>
      </trkpt>
      <trkpt lat="45.30706" lon="6.04893">
        <ele>1833.6</ele>
        <time>2021-01-16T12:22:07Z</time>
      </trkpt>
      <trkpt lat="45.30706" lon="6.04893">
        <ele>1833.6</ele>
        <time>2021-01-16T12:22:08Z</time>
      </trkpt>
      <trkpt lat="45.30706" lon="6.04893">
        <ele>1833.8</ele>
        <time>2021-01-16T12:22:09Z</time>
      </trkpt>
      <trkpt lat="45.30706" lon="6.04893">
        <ele>1833.8</ele>
        <time>2021-01-16T12:22:10Z</time>
      </trkpt>
      <trkpt lat="45.30706" lon="6.04893">
        <ele>1833.8</ele>
        <time>2021-01-16T12:22:11Z</time>
      </trkpt>
      <trkpt lat="45.30706" lon="6.04893">
        <ele>1833.8</ele>
        <time>2021-01-16T12:22:12Z</time>
      </trkpt>
      <trkpt lat="45.30706" lon="6.04893">
        <ele>1833.8</ele>
        <time>2021-01-16T12:22:13Z</time>
      </trkpt>
      <trkpt lat="45.30706" lon="6.04893">
        <ele>1833.8</ele>
        <time>2021-01-16T12:22:14Z</time>
      </trkpt>
      <trkpt lat="45.30706" lon="6.04893">
        <ele>1833.8</ele>
        <time>2021-01-16T12:22:15Z</time>
      </trkpt>
      <trkpt lat="45.30706" lon="6.04893">
        <ele>1833.8</ele>
        <time>2021-01-16T12:22:16Z</time>
      </trkpt>
      <trkpt lat="45.30706" lon="6.04893">
        <ele>1834</ele>
        <time>2021-01-16T12:22:17Z</time>
      </trkpt>
      <trkpt lat="45.30706" lon="6.04893">
        <ele>1834</ele>
        <time>2021-01-16T12:22:18Z</time>
      </trkpt>
      <trkpt lat="45.30706" lon="6.04893">
        <ele>1834</ele>
        <time>2021-01-16T12:22:19Z</time>
      </trkpt>
      <trkpt lat="45.30706" lon="6.04893">
        <ele>1834.2</ele>
        <time>2021-01-16T12:22:20Z</time>
      </trkpt>
      <trkpt lat="45.30706" lon="6.04893">
        <ele>1834.2</ele>
        <time>2021-01-16T12:22:21Z</time>
      </trkpt>
      <trkpt lat="45.30706" lon="6.04893">
        <ele>1834.2</ele>
        <time>2021-01-16T12:22:22Z</time>
      </trkpt>
      <trkpt lat="45.30706" lon="6.04893">
        <ele>1834.4</ele>
        <time>2021-01-16T12:22:23Z</time>
      </trkpt>
      <trkpt lat="45.30706" lon="6.04893">
        <ele>1834.4</ele>
        <time>2021-01-16T12:22:24Z</time>
      </trkpt>
      <trkpt lat="45.30706" lon="6.04893">
        <ele>1834.6</ele>
        <time>2021-01-16T12:22:25Z</time>
      </trkpt>
      <trkpt lat="45.30706" lon="6.04893">
        <ele>1834.8</ele>
        <time>2021-01-16T12:22:26Z</time>
      </trkpt>
      <trkpt lat="45.30706" lon="6.04893">
        <ele>1835</ele>
        <time>2021-01-16T12:22:27Z</time>
      </trkpt>
      <trkpt lat="45.30706" lon="6.04893">
        <ele>1835.2</ele>
        <time>2021-01-16T12:22:28Z</time>
      </trkpt>
      <trkpt lat="45.30706" lon="6.04893">
        <ele>1835.2</ele>
        <time>2021-01-16T12:22:29Z</time>
      </trkpt>
      <trkpt lat="45.30706" lon="6.04893">
        <ele>1835.4</ele>
        <time>2021-01-16T12:22:30Z</time>
      </trkpt>
      <trkpt lat="45.30706" lon="6.04893">
        <ele>1835.4</ele>
        <time>2021-01-16T12:22:31Z</time>
      </trkpt>
      <trkpt lat="45.30706" lon="6.04894">
        <ele>1835.6</ele>
        <time>2021-01-16T12:22:32Z</time>
      </trkpt>
      <trkpt lat="45.30706" lon="6.04894">
        <ele>1835.6</ele>
        <time>2021-01-16T12:22:33Z</time>
      </trkpt>
      <trkpt lat="45.30706" lon="6.04894">
        <ele>1835.8</ele>
        <time>2021-01-16T12:22:34Z</time>
      </trkpt>
      <trkpt lat="45.30706" lon="6.04894">
        <ele>1836</ele>
        <time>2021-01-16T12:22:35Z</time>
      </trkpt>
      <trkpt lat="45.30706" lon="6.04894">
        <ele>1836.2</ele>
        <time>2021-01-16T12:22:36Z</time>
      </trkpt>
      <trkpt lat="45.30706" lon="6.04894">
        <ele>1836.2</ele>
        <time>2021-01-16T12:22:37Z</time>
      </trkpt>
      <trkpt lat="45.30706" lon="6.04894">
        <ele>1836.4</ele>
        <time>2021-01-16T12:22:38Z</time>
      </trkpt>
      <trkpt lat="45.30706" lon="6.04894">
        <ele>1836.2</ele>
        <time>2021-01-16T12:22:39Z</time>
      </trkpt>
      <trkpt lat="45.30706" lon="6.04894">
        <ele>1836.6</ele>
        <time>2021-01-16T12:22:40Z</time>
      </trkpt>
      <trkpt lat="45.30706" lon="6.04895">
        <ele>1836.4</ele>
        <time>2021-01-16T12:22:41Z</time>
      </trkpt>
      <trkpt lat="45.30707" lon="6.04895">
        <ele>1836.6</ele>
        <time>2021-01-16T12:22:42Z</time>
      </trkpt>
      <trkpt lat="45.30707" lon="6.04896">
        <ele>1836.6</ele>
        <time>2021-01-16T12:22:43Z</time>
      </trkpt>
      <trkpt lat="45.30707" lon="6.04896">
        <ele>1836.8</ele>
        <time>2021-01-16T12:22:44Z</time>
      </trkpt>
      <trkpt lat="45.30707" lon="6.04896">
        <ele>1836.8</ele>
        <time>2021-01-16T12:22:45Z</time>
      </trkpt>
      <trkpt lat="45.30707" lon="6.04896">
        <ele>1837</ele>
        <time>2021-01-16T12:22:46Z</time>
      </trkpt>
      <trkpt lat="45.30707" lon="6.04896">
        <ele>1837.2</ele>
        <time>2021-01-16T12:22:47Z</time>
      </trkpt>
      <trkpt lat="45.30707" lon="6.04896">
        <ele>1837.2</ele>
        <time>2021-01-16T12:22:48Z</time>
      </trkpt>
      <trkpt lat="45.30707" lon="6.04896">
        <ele>1837.4</ele>
        <time>2021-01-16T12:22:49Z</time>
      </trkpt>
      <trkpt lat="45.30707" lon="6.04896">
        <ele>1837.6</ele>
        <time>2021-01-16T12:22:50Z</time>
      </trkpt>
      <trkpt lat="45.30707" lon="6.04896">
        <ele>1837.6</ele>
        <time>2021-01-16T12:22:51Z</time>
      </trkpt>
      <trkpt lat="45.30707" lon="6.04896">
        <ele>1838</ele>
        <time>2021-01-16T12:22:52Z</time>
      </trkpt>
      <trkpt lat="45.30707" lon="6.04896">
        <ele>1838</ele>
        <time>2021-01-16T12:22:53Z</time>
      </trkpt>
      <trkpt lat="45.30707" lon="6.04896">
        <ele>1838.2</ele>
        <time>2021-01-16T12:22:54Z</time>
      </trkpt>
      <trkpt lat="45.30707" lon="6.04896">
        <ele>1838.2</ele>
        <time>2021-01-16T12:22:55Z</time>
      </trkpt>
      <trkpt lat="45.30707" lon="6.04896">
        <ele>1838.2</ele>
        <time>2021-01-16T12:22:56Z</time>
      </trkpt>
      <trkpt lat="45.30707" lon="6.04896">
        <ele>1838.4</ele>
        <time>2021-01-16T12:22:57Z</time>
      </trkpt>
      <trkpt lat="45.30707" lon="6.04896">
        <ele>1838.4</ele>
        <time>2021-01-16T12:22:58Z</time>
      </trkpt>
      <trkpt lat="45.30707" lon="6.04896">
        <ele>1838.6</ele>
        <time>2021-01-16T12:22:59Z</time>
      </trkpt>
      <trkpt lat="45.30707" lon="6.04896">
        <ele>1838.6</ele>
        <time>2021-01-16T12:23:00Z</time>
      </trkpt>
      <trkpt lat="45.30707" lon="6.04896">
        <ele>1838.6</ele>
        <time>2021-01-16T12:23:01Z</time>
      </trkpt>
      <trkpt lat="45.30707" lon="6.04896">
        <ele>1838.6</ele>
        <time>2021-01-16T12:23:02Z</time>
      </trkpt>
      <trkpt lat="45.30707" lon="6.04896">
        <ele>1838.8</ele>
        <time>2021-01-16T12:23:03Z</time>
      </trkpt>
      <trkpt lat="45.30707" lon="6.04896">
        <ele>1838.8</ele>
        <time>2021-01-16T12:23:04Z</time>
      </trkpt>
      <trkpt lat="45.30709" lon="6.04897">
        <ele>1838.8</ele>
        <time>2021-01-16T12:23:05Z</time>
      </trkpt>
      <trkpt lat="45.30715" lon="6.04903">
        <ele>1838.8</ele>
        <time>2021-01-16T12:23:06Z</time>
      </trkpt>
      <trkpt lat="45.30717" lon="6.04904">
        <ele>1839</ele>
        <time>2021-01-16T12:23:07Z</time>
      </trkpt>
      <trkpt lat="45.30717" lon="6.04905">
        <ele>1839.2</ele>
        <time>2021-01-16T12:23:08Z</time>
      </trkpt>
      <trkpt lat="45.30717" lon="6.04905">
        <ele>1839.4</ele>
        <time>2021-01-16T12:23:09Z</time>
      </trkpt>
      <trkpt lat="45.30718" lon="6.04905">
        <ele>1839.4</ele>
        <time>2021-01-16T12:23:10Z</time>
      </trkpt>
      <trkpt lat="45.30718" lon="6.04906">
        <ele>1839.8</ele>
        <time>2021-01-16T12:23:11Z</time>
      </trkpt>
      <trkpt lat="45.30719" lon="6.04906">
        <ele>1839.6</ele>
        <time>2021-01-16T12:23:12Z</time>
      </trkpt>
      <trkpt lat="45.30719" lon="6.04906">
        <ele>1840</ele>
        <time>2021-01-16T12:23:13Z</time>
      </trkpt>
      <trkpt lat="45.3072" lon="6.04907">
        <ele>1839.8</ele>
        <time>2021-01-16T12:23:14Z</time>
      </trkpt>
      <trkpt lat="45.3072" lon="6.04907">
        <ele>1840</ele>
        <time>2021-01-16T12:23:15Z</time>
      </trkpt>
      <trkpt lat="45.30721" lon="6.04908">
        <ele>1840.2</ele>
        <time>2021-01-16T12:23:16Z</time>
      </trkpt>
      <trkpt lat="45.30721" lon="6.04908">
        <ele>1840.4</ele>
        <time>2021-01-16T12:23:17Z</time>
      </trkpt>
      <trkpt lat="45.30722" lon="6.04908">
        <ele>1840.6</ele>
        <time>2021-01-16T12:23:18Z</time>
      </trkpt>
      <trkpt lat="45.30722" lon="6.04909">
        <ele>1840.8</ele>
        <time>2021-01-16T12:23:19Z</time>
      </trkpt>
      <trkpt lat="45.30722" lon="6.04909">
        <ele>1841</ele>
        <time>2021-01-16T12:23:20Z</time>
      </trkpt>
      <trkpt lat="45.30723" lon="6.0491">
        <ele>1841</ele>
        <time>2021-01-16T12:23:21Z</time>
      </trkpt>
      <trkpt lat="45.30723" lon="6.0491">
        <ele>1841.2</ele>
        <time>2021-01-16T12:23:22Z</time>
      </trkpt>
      <trkpt lat="45.30724" lon="6.0491">
        <ele>1841.4</ele>
        <time>2021-01-16T12:23:23Z</time>
      </trkpt>
      <trkpt lat="45.30724" lon="6.04911">
        <ele>1841.6</ele>
        <time>2021-01-16T12:23:24Z</time>
      </trkpt>
      <trkpt lat="45.30725" lon="6.04911">
        <ele>1841.6</ele>
        <time>2021-01-16T12:23:25Z</time>
      </trkpt>
      <trkpt lat="45.30725" lon="6.04911">
        <ele>1841.8</ele>
        <time>2021-01-16T12:23:26Z</time>
      </trkpt>
      <trkpt lat="45.30726" lon="6.04912">
        <ele>1842</ele>
        <time>2021-01-16T12:23:27Z</time>
      </trkpt>
      <trkpt lat="45.30727" lon="6.04913">
        <ele>1842</ele>
        <time>2021-01-16T12:23:28Z</time>
      </trkpt>
      <trkpt lat="45.30727" lon="6.04913">
        <ele>1842.2</ele>
        <time>2021-01-16T12:23:29Z</time>
      </trkpt>
      <trkpt lat="45.30727" lon="6.04913">
        <ele>1842.4</ele>
        <time>2021-01-16T12:23:30Z</time>
      </trkpt>
      <trkpt lat="45.30728" lon="6.04913">
        <ele>1842.4</ele>
        <time>2021-01-16T12:23:31Z</time>
      </trkpt>
      <trkpt lat="45.30728" lon="6.04914">
        <ele>1842.6</ele>
        <time>2021-01-16T12:23:32Z</time>
      </trkpt>
      <trkpt lat="45.30729" lon="6.04914">
        <ele>1842.8</ele>
        <time>2021-01-16T12:23:33Z</time>
      </trkpt>
      <trkpt lat="45.30729" lon="6.04914">
        <ele>1842.8</ele>
        <time>2021-01-16T12:23:34Z</time>
      </trkpt>
      <trkpt lat="45.30729" lon="6.04914">
        <ele>1843.2</ele>
        <time>2021-01-16T12:23:35Z</time>
      </trkpt>
      <trkpt lat="45.3073" lon="6.04915">
        <ele>1843.2</ele>
        <time>2021-01-16T12:23:36Z</time>
      </trkpt>
      <trkpt lat="45.3073" lon="6.04915">
        <ele>1843.4</ele>
        <time>2021-01-16T12:23:37Z</time>
      </trkpt>
      <trkpt lat="45.30731" lon="6.04915">
        <ele>1843.2</ele>
        <time>2021-01-16T12:23:38Z</time>
      </trkpt>
      <trkpt lat="45.30731" lon="6.04915">
        <ele>1843.6</ele>
        <time>2021-01-16T12:23:39Z</time>
      </trkpt>
      <trkpt lat="45.30732" lon="6.04916">
        <ele>1843.6</ele>
        <time>2021-01-16T12:23:40Z</time>
      </trkpt>
      <trkpt lat="45.30732" lon="6.04916">
        <ele>1843.8</ele>
        <time>2021-01-16T12:23:41Z</time>
      </trkpt>
      <trkpt lat="45.30732" lon="6.04916">
        <ele>1844</ele>
        <time>2021-01-16T12:23:42Z</time>
      </trkpt>
      <trkpt lat="45.30733" lon="6.04916">
        <ele>1844.2</ele>
        <time>2021-01-16T12:23:43Z</time>
      </trkpt>
      <trkpt lat="45.30733" lon="6.04917">
        <ele>1844.2</ele>
        <time>2021-01-16T12:23:44Z</time>
      </trkpt>
      <trkpt lat="45.30734" lon="6.04917">
        <ele>1844.6</ele>
        <time>2021-01-16T12:23:45Z</time>
      </trkpt>
      <trkpt lat="45.30734" lon="6.04917">
        <ele>1844.6</ele>
        <time>2021-01-16T12:23:46Z</time>
      </trkpt>
      <trkpt lat="45.30735" lon="6.04918">
        <ele>1845</ele>
        <time>2021-01-16T12:23:47Z</time>
      </trkpt>
      <trkpt lat="45.30735" lon="6.04918">
        <ele>1845</ele>
        <time>2021-01-16T12:23:48Z</time>
      </trkpt>
      <trkpt lat="45.30735" lon="6.04918">
        <ele>1845.2</ele>
        <time>2021-01-16T12:23:49Z</time>
      </trkpt>
      <trkpt lat="45.30736" lon="6.04918">
        <ele>1845.6</ele>
        <time>2021-01-16T12:23:50Z</time>
      </trkpt>
      <trkpt lat="45.30736" lon="6.04919">
        <ele>1845.4</ele>
        <time>2021-01-16T12:23:51Z</time>
      </trkpt>
      <trkpt lat="45.30737" lon="6.04919">
        <ele>1845.6</ele>
        <time>2021-01-16T12:23:52Z</time>
      </trkpt>
      <trkpt lat="45.30737" lon="6.04919">
        <ele>1845.8</ele>
        <time>2021-01-16T12:23:53Z</time>
      </trkpt>
      <trkpt lat="45.30738" lon="6.04919">
        <ele>1846</ele>
        <time>2021-01-16T12:23:54Z</time>
      </trkpt>
      <trkpt lat="45.30738" lon="6.0492">
        <ele>1846.2</ele>
        <time>2021-01-16T12:23:55Z</time>
      </trkpt>
      <trkpt lat="45.30738" lon="6.0492">
        <ele>1846.2</ele>
        <time>2021-01-16T12:23:56Z</time>
      </trkpt>
      <trkpt lat="45.30739" lon="6.0492">
        <ele>1846.4</ele>
        <time>2021-01-16T12:23:57Z</time>
      </trkpt>
      <trkpt lat="45.30739" lon="6.0492">
        <ele>1846.6</ele>
        <time>2021-01-16T12:23:58Z</time>
      </trkpt>
      <trkpt lat="45.3074" lon="6.04921">
        <ele>1846.8</ele>
        <time>2021-01-16T12:23:59Z</time>
      </trkpt>
      <trkpt lat="45.3074" lon="6.04921">
        <ele>1846.8</ele>
        <time>2021-01-16T12:24:00Z</time>
      </trkpt>
      <trkpt lat="45.30741" lon="6.04921">
        <ele>1847.2</ele>
        <time>2021-01-16T12:24:01Z</time>
      </trkpt>
      <trkpt lat="45.30741" lon="6.04921">
        <ele>1847</ele>
        <time>2021-01-16T12:24:02Z</time>
      </trkpt>
      <trkpt lat="45.30741" lon="6.04922">
        <ele>1847.4</ele>
        <time>2021-01-16T12:24:03Z</time>
      </trkpt>
      <trkpt lat="45.30742" lon="6.04922">
        <ele>1847.4</ele>
        <time>2021-01-16T12:24:04Z</time>
      </trkpt>
      <trkpt lat="45.30746" lon="6.04923">
        <ele>1847.6</ele>
        <time>2021-01-16T12:24:05Z</time>
      </trkpt>
      <trkpt lat="45.30747" lon="6.04924">
        <ele>1847.8</ele>
        <time>2021-01-16T12:24:06Z</time>
      </trkpt>
      <trkpt lat="45.30747" lon="6.04924">
        <ele>1847.8</ele>
        <time>2021-01-16T12:24:07Z</time>
      </trkpt>
      <trkpt lat="45.30747" lon="6.04924">
        <ele>1848</ele>
        <time>2021-01-16T12:24:08Z</time>
      </trkpt>
      <trkpt lat="45.30747" lon="6.04924">
        <ele>1848.2</ele>
        <time>2021-01-16T12:24:09Z</time>
      </trkpt>
      <trkpt lat="45.30747" lon="6.04924">
        <ele>1848.2</ele>
        <time>2021-01-16T12:24:10Z</time>
      </trkpt>
      <trkpt lat="45.30747" lon="6.04924">
        <ele>1848.4</ele>
        <time>2021-01-16T12:24:11Z</time>
      </trkpt>
      <trkpt lat="45.30747" lon="6.04924">
        <ele>1848.6</ele>
        <time>2021-01-16T12:24:12Z</time>
      </trkpt>
      <trkpt lat="45.30747" lon="6.04924">
        <ele>1848.6</ele>
        <time>2021-01-16T12:24:13Z</time>
      </trkpt>
      <trkpt lat="45.30747" lon="6.04924">
        <ele>1848.8</ele>
        <time>2021-01-16T12:24:14Z</time>
      </trkpt>
      <trkpt lat="45.30747" lon="6.04924">
        <ele>1848.8</ele>
        <time>2021-01-16T12:24:15Z</time>
      </trkpt>
      <trkpt lat="45.30747" lon="6.04924">
        <ele>1848.8</ele>
        <time>2021-01-16T12:24:16Z</time>
      </trkpt>
      <trkpt lat="45.30747" lon="6.04924">
        <ele>1848.8</ele>
        <time>2021-01-16T12:24:17Z</time>
      </trkpt>
      <trkpt lat="45.30749" lon="6.04925">
        <ele>1849</ele>
        <time>2021-01-16T12:24:18Z</time>
      </trkpt>
      <trkpt lat="45.30757" lon="6.04929">
        <ele>1849</ele>
        <time>2021-01-16T12:24:19Z</time>
      </trkpt>
      <trkpt lat="45.30758" lon="6.0493">
        <ele>1849</ele>
        <time>2021-01-16T12:24:20Z</time>
      </trkpt>
      <trkpt lat="45.30758" lon="6.0493">
        <ele>1849.2</ele>
        <time>2021-01-16T12:24:21Z</time>
      </trkpt>
      <trkpt lat="45.30759" lon="6.04931">
        <ele>1849.2</ele>
        <time>2021-01-16T12:24:22Z</time>
      </trkpt>
      <trkpt lat="45.30759" lon="6.04931">
        <ele>1849.2</ele>
        <time>2021-01-16T12:24:23Z</time>
      </trkpt>
      <trkpt lat="45.3076" lon="6.04932">
        <ele>1849.4</ele>
        <time>2021-01-16T12:24:24Z</time>
      </trkpt>
      <trkpt lat="45.3076" lon="6.04932">
        <ele>1849.4</ele>
        <time>2021-01-16T12:24:25Z</time>
      </trkpt>
      <trkpt lat="45.30761" lon="6.04933">
        <ele>1849.6</ele>
        <time>2021-01-16T12:24:26Z</time>
      </trkpt>
      <trkpt lat="45.30761" lon="6.04933">
        <ele>1849.8</ele>
        <time>2021-01-16T12:24:27Z</time>
      </trkpt>
      <trkpt lat="45.30762" lon="6.04934">
        <ele>1849.8</ele>
        <time>2021-01-16T12:24:28Z</time>
      </trkpt>
      <trkpt lat="45.30763" lon="6.04934">
        <ele>1850</ele>
        <time>2021-01-16T12:24:29Z</time>
      </trkpt>
      <trkpt lat="45.30763" lon="6.04935">
        <ele>1850</ele>
        <time>2021-01-16T12:24:30Z</time>
      </trkpt>
      <trkpt lat="45.30764" lon="6.04935">
        <ele>1850.2</ele>
        <time>2021-01-16T12:24:31Z</time>
      </trkpt>
      <trkpt lat="45.30764" lon="6.04936">
        <ele>1850.4</ele>
        <time>2021-01-16T12:24:32Z</time>
      </trkpt>
      <trkpt lat="45.30765" lon="6.04936">
        <ele>1850.6</ele>
        <time>2021-01-16T12:24:33Z</time>
      </trkpt>
      <trkpt lat="45.30765" lon="6.04937">
        <ele>1850.8</ele>
        <time>2021-01-16T12:24:34Z</time>
      </trkpt>
      <trkpt lat="45.30766" lon="6.04937">
        <ele>1851</ele>
        <time>2021-01-16T12:24:35Z</time>
      </trkpt>
      <trkpt lat="45.30766" lon="6.04938">
        <ele>1851</ele>
        <time>2021-01-16T12:24:36Z</time>
      </trkpt>
      <trkpt lat="45.30767" lon="6.04938">
        <ele>1851.2</ele>
        <time>2021-01-16T12:24:37Z</time>
      </trkpt>
      <trkpt lat="45.30767" lon="6.04939">
        <ele>1851.2</ele>
        <time>2021-01-16T12:24:38Z</time>
      </trkpt>
      <trkpt lat="45.30768" lon="6.04939">
        <ele>1851.4</ele>
        <time>2021-01-16T12:24:39Z</time>
      </trkpt>
      <trkpt lat="45.30768" lon="6.04939">
        <ele>1851.6</ele>
        <time>2021-01-16T12:24:40Z</time>
      </trkpt>
      <trkpt lat="45.30768" lon="6.04939">
        <ele>1851.6</ele>
        <time>2021-01-16T12:24:41Z</time>
      </trkpt>
      <trkpt lat="45.30768" lon="6.04939">
        <ele>1851.8</ele>
        <time>2021-01-16T12:24:42Z</time>
      </trkpt>
      <trkpt lat="45.30768" lon="6.04939">
        <ele>1852</ele>
        <time>2021-01-16T12:24:43Z</time>
      </trkpt>
      <trkpt lat="45.30768" lon="6.0494">
        <ele>1852</ele>
        <time>2021-01-16T12:24:44Z</time>
      </trkpt>
      <trkpt lat="45.30769" lon="6.04943">
        <ele>1852.2</ele>
        <time>2021-01-16T12:24:45Z</time>
      </trkpt>
      <trkpt lat="45.3077" lon="6.04947">
        <ele>1852.4</ele>
        <time>2021-01-16T12:24:46Z</time>
      </trkpt>
      <trkpt lat="45.30771" lon="6.04949">
        <ele>1852.4</ele>
        <time>2021-01-16T12:24:47Z</time>
      </trkpt>
      <trkpt lat="45.30772" lon="6.04949">
        <ele>1852.6</ele>
        <time>2021-01-16T12:24:48Z</time>
      </trkpt>
      <trkpt lat="45.30773" lon="6.04949">
        <ele>1852.8</ele>
        <time>2021-01-16T12:24:49Z</time>
      </trkpt>
      <trkpt lat="45.30774" lon="6.0495">
        <ele>1853</ele>
        <time>2021-01-16T12:24:50Z</time>
      </trkpt>
      <trkpt lat="45.30774" lon="6.04951">
        <ele>1853.2</ele>
        <time>2021-01-16T12:24:51Z</time>
      </trkpt>
      <trkpt lat="45.30775" lon="6.04952">
        <ele>1853.2</ele>
        <time>2021-01-16T12:24:52Z</time>
      </trkpt>
      <trkpt lat="45.30775" lon="6.04953">
        <ele>1853.4</ele>
        <time>2021-01-16T12:24:53Z</time>
      </trkpt>
      <trkpt lat="45.30776" lon="6.04954">
        <ele>1853.6</ele>
        <time>2021-01-16T12:24:54Z</time>
      </trkpt>
      <trkpt lat="45.30776" lon="6.04954">
        <ele>1853.6</ele>
        <time>2021-01-16T12:24:55Z</time>
      </trkpt>
      <trkpt lat="45.30776" lon="6.04957">
        <ele>1853.8</ele>
        <time>2021-01-16T12:24:56Z</time>
      </trkpt>
      <trkpt lat="45.30776" lon="6.04958">
        <ele>1854</ele>
        <time>2021-01-16T12:24:57Z</time>
      </trkpt>
      <trkpt lat="45.30777" lon="6.04959">
        <ele>1854</ele>
        <time>2021-01-16T12:24:58Z</time>
      </trkpt>
      <trkpt lat="45.30778" lon="6.0496">
        <ele>1854</ele>
        <time>2021-01-16T12:24:59Z</time>
      </trkpt>
      <trkpt lat="45.30778" lon="6.0496">
        <ele>1854.2</ele>
        <time>2021-01-16T12:25:00Z</time>
      </trkpt>
      <trkpt lat="45.30779" lon="6.04961">
        <ele>1854.2</ele>
        <time>2021-01-16T12:25:01Z</time>
      </trkpt>
      <trkpt lat="45.30779" lon="6.04963">
        <ele>1854.4</ele>
        <time>2021-01-16T12:25:02Z</time>
      </trkpt>
      <trkpt lat="45.3078" lon="6.04963">
        <ele>1854.4</ele>
        <time>2021-01-16T12:25:03Z</time>
      </trkpt>
      <trkpt lat="45.3078" lon="6.04964">
        <ele>1854.4</ele>
        <time>2021-01-16T12:25:04Z</time>
      </trkpt>
      <trkpt lat="45.30781" lon="6.04965">
        <ele>1854.4</ele>
        <time>2021-01-16T12:25:05Z</time>
      </trkpt>
      <trkpt lat="45.30781" lon="6.04966">
        <ele>1854.6</ele>
        <time>2021-01-16T12:25:06Z</time>
      </trkpt>
      <trkpt lat="45.30782" lon="6.04966">
        <ele>1854.8</ele>
        <time>2021-01-16T12:25:07Z</time>
      </trkpt>
      <trkpt lat="45.30782" lon="6.04967">
        <ele>1854.8</ele>
        <time>2021-01-16T12:25:08Z</time>
      </trkpt>
      <trkpt lat="45.30783" lon="6.04968">
        <ele>1855</ele>
        <time>2021-01-16T12:25:09Z</time>
      </trkpt>
      <trkpt lat="45.30784" lon="6.04968">
        <ele>1855.2</ele>
        <time>2021-01-16T12:25:10Z</time>
      </trkpt>
      <trkpt lat="45.30784" lon="6.04969">
        <ele>1855.2</ele>
        <time>2021-01-16T12:25:11Z</time>
      </trkpt>
      <trkpt lat="45.30785" lon="6.04969">
        <ele>1855.4</ele>
        <time>2021-01-16T12:25:12Z</time>
      </trkpt>
      <trkpt lat="45.30785" lon="6.0497">
        <ele>1855.6</ele>
        <time>2021-01-16T12:25:13Z</time>
      </trkpt>
      <trkpt lat="45.30786" lon="6.04971">
        <ele>1855.6</ele>
        <time>2021-01-16T12:25:14Z</time>
      </trkpt>
      <trkpt lat="45.30787" lon="6.04972">
        <ele>1855.6</ele>
        <time>2021-01-16T12:25:15Z</time>
      </trkpt>
      <trkpt lat="45.30787" lon="6.04973">
        <ele>1855.8</ele>
        <time>2021-01-16T12:25:16Z</time>
      </trkpt>
      <trkpt lat="45.30788" lon="6.04974">
        <ele>1855.8</ele>
        <time>2021-01-16T12:25:17Z</time>
      </trkpt>
      <trkpt lat="45.30788" lon="6.04975">
        <ele>1855.8</ele>
        <time>2021-01-16T12:25:18Z</time>
      </trkpt>
      <trkpt lat="45.30789" lon="6.04975">
        <ele>1856</ele>
        <time>2021-01-16T12:25:19Z</time>
      </trkpt>
      <trkpt lat="45.30789" lon="6.04976">
        <ele>1856</ele>
        <time>2021-01-16T12:25:20Z</time>
      </trkpt>
      <trkpt lat="45.30789" lon="6.04977">
        <ele>1856.2</ele>
        <time>2021-01-16T12:25:21Z</time>
      </trkpt>
      <trkpt lat="45.3079" lon="6.04978">
        <ele>1856.2</ele>
        <time>2021-01-16T12:25:22Z</time>
      </trkpt>
      <trkpt lat="45.3079" lon="6.04978">
        <ele>1856.2</ele>
        <time>2021-01-16T12:25:23Z</time>
      </trkpt>
      <trkpt lat="45.3079" lon="6.04979">
        <ele>1856.4</ele>
        <time>2021-01-16T12:25:24Z</time>
      </trkpt>
      <trkpt lat="45.30791" lon="6.04978">
        <ele>1856.4</ele>
        <time>2021-01-16T12:25:25Z</time>
      </trkpt>
      <trkpt lat="45.3079" lon="6.04978">
        <ele>1856.6</ele>
        <time>2021-01-16T12:25:26Z</time>
      </trkpt>
      <trkpt lat="45.3079" lon="6.04979">
        <ele>1856.4</ele>
        <time>2021-01-16T12:25:27Z</time>
      </trkpt>
      <trkpt lat="45.30791" lon="6.04979">
        <ele>1856.6</ele>
        <time>2021-01-16T12:25:28Z</time>
      </trkpt>
      <trkpt lat="45.30791" lon="6.0498">
        <ele>1856.6</ele>
        <time>2021-01-16T12:25:29Z</time>
      </trkpt>
      <trkpt lat="45.30792" lon="6.04981">
        <ele>1856.8</ele>
        <time>2021-01-16T12:25:30Z</time>
      </trkpt>
      <trkpt lat="45.30792" lon="6.04982">
        <ele>1856.8</ele>
        <time>2021-01-16T12:25:31Z</time>
      </trkpt>
      <trkpt lat="45.30793" lon="6.04983">
        <ele>1856.8</ele>
        <time>2021-01-16T12:25:32Z</time>
      </trkpt>
      <trkpt lat="45.30793" lon="6.04983">
        <ele>1856.8</ele>
        <time>2021-01-16T12:25:33Z</time>
      </trkpt>
      <trkpt lat="45.30794" lon="6.04984">
        <ele>1857</ele>
        <time>2021-01-16T12:25:34Z</time>
      </trkpt>
      <trkpt lat="45.30794" lon="6.04985">
        <ele>1857</ele>
        <time>2021-01-16T12:25:35Z</time>
      </trkpt>
      <trkpt lat="45.30795" lon="6.04986">
        <ele>1857.4</ele>
        <time>2021-01-16T12:25:36Z</time>
      </trkpt>
      <trkpt lat="45.30795" lon="6.04987">
        <ele>1857.4</ele>
        <time>2021-01-16T12:25:37Z</time>
      </trkpt>
      <trkpt lat="45.30795" lon="6.04987">
        <ele>1857.4</ele>
        <time>2021-01-16T12:25:38Z</time>
      </trkpt>
      <trkpt lat="45.30796" lon="6.04988">
        <ele>1857.6</ele>
        <time>2021-01-16T12:25:39Z</time>
      </trkpt>
      <trkpt lat="45.30796" lon="6.04988">
        <ele>1857.6</ele>
        <time>2021-01-16T12:25:40Z</time>
      </trkpt>
      <trkpt lat="45.30796" lon="6.04988">
        <ele>1857.6</ele>
        <time>2021-01-16T12:25:41Z</time>
      </trkpt>
      <trkpt lat="45.30796" lon="6.04988">
        <ele>1857.8</ele>
        <time>2021-01-16T12:25:42Z</time>
      </trkpt>
      <trkpt lat="45.30796" lon="6.04988">
        <ele>1857.8</ele>
        <time>2021-01-16T12:25:43Z</time>
      </trkpt>
      <trkpt lat="45.30796" lon="6.04988">
        <ele>1857.8</ele>
        <time>2021-01-16T12:25:44Z</time>
      </trkpt>
      <trkpt lat="45.30796" lon="6.04988">
        <ele>1857.8</ele>
        <time>2021-01-16T12:25:45Z</time>
      </trkpt>
      <trkpt lat="45.30796" lon="6.04988">
        <ele>1857.8</ele>
        <time>2021-01-16T12:25:46Z</time>
      </trkpt>
      <trkpt lat="45.30796" lon="6.04988">
        <ele>1858</ele>
        <time>2021-01-16T12:25:47Z</time>
      </trkpt>
      <trkpt lat="45.30796" lon="6.04988">
        <ele>1858</ele>
        <time>2021-01-16T12:25:48Z</time>
      </trkpt>
      <trkpt lat="45.30796" lon="6.04988">
        <ele>1858</ele>
        <time>2021-01-16T12:25:49Z</time>
      </trkpt>
      <trkpt lat="45.30796" lon="6.04988">
        <ele>1858</ele>
        <time>2021-01-16T12:25:50Z</time>
      </trkpt>
      <trkpt lat="45.30796" lon="6.04988">
        <ele>1857.8</ele>
        <time>2021-01-16T12:25:51Z</time>
      </trkpt>
      <trkpt lat="45.30796" lon="6.04988">
        <ele>1857.8</ele>
        <time>2021-01-16T12:25:52Z</time>
      </trkpt>
      <trkpt lat="45.30796" lon="6.04988">
        <ele>1857.8</ele>
        <time>2021-01-16T12:25:53Z</time>
      </trkpt>
      <trkpt lat="45.30796" lon="6.04988">
        <ele>1857.8</ele>
        <time>2021-01-16T12:25:54Z</time>
      </trkpt>
      <trkpt lat="45.30796" lon="6.04988">
        <ele>1857.8</ele>
        <time>2021-01-16T12:25:55Z</time>
      </trkpt>
      <trkpt lat="45.30796" lon="6.04988">
        <ele>1858</ele>
        <time>2021-01-16T12:25:56Z</time>
      </trkpt>
      <trkpt lat="45.30796" lon="6.04988">
        <ele>1858</ele>
        <time>2021-01-16T12:25:57Z</time>
      </trkpt>
      <trkpt lat="45.30797" lon="6.04989">
        <ele>1858</ele>
        <time>2021-01-16T12:25:58Z</time>
      </trkpt>
      <trkpt lat="45.30797" lon="6.0499">
        <ele>1858</ele>
        <time>2021-01-16T12:25:59Z</time>
      </trkpt>
      <trkpt lat="45.30797" lon="6.0499">
        <ele>1858</ele>
        <time>2021-01-16T12:26:00Z</time>
      </trkpt>
      <trkpt lat="45.30798" lon="6.0499">
        <ele>1858.2</ele>
        <time>2021-01-16T12:26:01Z</time>
      </trkpt>
      <trkpt lat="45.30798" lon="6.04991">
        <ele>1858.2</ele>
        <time>2021-01-16T12:26:02Z</time>
      </trkpt>
      <trkpt lat="45.30798" lon="6.04991">
        <ele>1858.4</ele>
        <time>2021-01-16T12:26:03Z</time>
      </trkpt>
      <trkpt lat="45.30798" lon="6.04991">
        <ele>1858.4</ele>
        <time>2021-01-16T12:26:04Z</time>
      </trkpt>
      <trkpt lat="45.30798" lon="6.04991">
        <ele>1858.4</ele>
        <time>2021-01-16T12:26:05Z</time>
      </trkpt>
      <trkpt lat="45.30798" lon="6.04991">
        <ele>1858.4</ele>
        <time>2021-01-16T12:26:06Z</time>
      </trkpt>
      <trkpt lat="45.30798" lon="6.04991">
        <ele>1858.6</ele>
        <time>2021-01-16T12:26:07Z</time>
      </trkpt>
      <trkpt lat="45.30798" lon="6.04991">
        <ele>1858.6</ele>
        <time>2021-01-16T12:26:08Z</time>
      </trkpt>
      <trkpt lat="45.30798" lon="6.04991">
        <ele>1858.6</ele>
        <time>2021-01-16T12:26:09Z</time>
      </trkpt>
      <trkpt lat="45.30798" lon="6.04991">
        <ele>1858.8</ele>
        <time>2021-01-16T12:26:10Z</time>
      </trkpt>
      <trkpt lat="45.30799" lon="6.04992">
        <ele>1858.6</ele>
        <time>2021-01-16T12:26:11Z</time>
      </trkpt>
      <trkpt lat="45.30801" lon="6.04995">
        <ele>1858.8</ele>
        <time>2021-01-16T12:26:12Z</time>
      </trkpt>
      <trkpt lat="45.30801" lon="6.04996">
        <ele>1858.8</ele>
        <time>2021-01-16T12:26:13Z</time>
      </trkpt>
      <trkpt lat="45.30802" lon="6.04997">
        <ele>1859</ele>
        <time>2021-01-16T12:26:14Z</time>
      </trkpt>
      <trkpt lat="45.30802" lon="6.04997">
        <ele>1859</ele>
        <time>2021-01-16T12:26:15Z</time>
      </trkpt>
      <trkpt lat="45.30802" lon="6.04998">
        <ele>1859.2</ele>
        <time>2021-01-16T12:26:16Z</time>
      </trkpt>
      <trkpt lat="45.30803" lon="6.04999">
        <ele>1859.4</ele>
        <time>2021-01-16T12:26:17Z</time>
      </trkpt>
      <trkpt lat="45.30804" lon="6.04999">
        <ele>1859.4</ele>
        <time>2021-01-16T12:26:18Z</time>
      </trkpt>
      <trkpt lat="45.30805" lon="6.05">
        <ele>1859.4</ele>
        <time>2021-01-16T12:26:19Z</time>
      </trkpt>
      <trkpt lat="45.30805" lon="6.05001">
        <ele>1859.4</ele>
        <time>2021-01-16T12:26:20Z</time>
      </trkpt>
      <trkpt lat="45.30806" lon="6.05001">
        <ele>1859.6</ele>
        <time>2021-01-16T12:26:21Z</time>
      </trkpt>
      <trkpt lat="45.30806" lon="6.05002">
        <ele>1859.6</ele>
        <time>2021-01-16T12:26:22Z</time>
      </trkpt>
      <trkpt lat="45.30807" lon="6.05003">
        <ele>1859.6</ele>
        <time>2021-01-16T12:26:23Z</time>
      </trkpt>
      <trkpt lat="45.30807" lon="6.05004">
        <ele>1859.8</ele>
        <time>2021-01-16T12:26:24Z</time>
      </trkpt>
      <trkpt lat="45.30808" lon="6.05004">
        <ele>1859.8</ele>
        <time>2021-01-16T12:26:25Z</time>
      </trkpt>
      <trkpt lat="45.30808" lon="6.05005">
        <ele>1860</ele>
        <time>2021-01-16T12:26:26Z</time>
      </trkpt>
      <trkpt lat="45.30809" lon="6.05006">
        <ele>1860.2</ele>
        <time>2021-01-16T12:26:27Z</time>
      </trkpt>
      <trkpt lat="45.30809" lon="6.05007">
        <ele>1860</ele>
        <time>2021-01-16T12:26:28Z</time>
      </trkpt>
      <trkpt lat="45.3081" lon="6.05007">
        <ele>1860.2</ele>
        <time>2021-01-16T12:26:29Z</time>
      </trkpt>
      <trkpt lat="45.3081" lon="6.05008">
        <ele>1860.2</ele>
        <time>2021-01-16T12:26:30Z</time>
      </trkpt>
      <trkpt lat="45.30811" lon="6.05009">
        <ele>1860.4</ele>
        <time>2021-01-16T12:26:31Z</time>
      </trkpt>
      <trkpt lat="45.30811" lon="6.0501">
        <ele>1860.6</ele>
        <time>2021-01-16T12:26:32Z</time>
      </trkpt>
      <trkpt lat="45.30812" lon="6.05011">
        <ele>1860.6</ele>
        <time>2021-01-16T12:26:33Z</time>
      </trkpt>
      <trkpt lat="45.30812" lon="6.05012">
        <ele>1860.8</ele>
        <time>2021-01-16T12:26:34Z</time>
      </trkpt>
      <trkpt lat="45.30813" lon="6.05013">
        <ele>1860.8</ele>
        <time>2021-01-16T12:26:35Z</time>
      </trkpt>
      <trkpt lat="45.30813" lon="6.05013">
        <ele>1860.8</ele>
        <time>2021-01-16T12:26:36Z</time>
      </trkpt>
      <trkpt lat="45.30813" lon="6.05014">
        <ele>1861</ele>
        <time>2021-01-16T12:26:37Z</time>
      </trkpt>
      <trkpt lat="45.30814" lon="6.05015">
        <ele>1860.8</ele>
        <time>2021-01-16T12:26:38Z</time>
      </trkpt>
      <trkpt lat="45.30815" lon="6.05016">
        <ele>1861.2</ele>
        <time>2021-01-16T12:26:39Z</time>
      </trkpt>
      <trkpt lat="45.30815" lon="6.05017">
        <ele>1861.2</ele>
        <time>2021-01-16T12:26:40Z</time>
      </trkpt>
      <trkpt lat="45.30816" lon="6.05017">
        <ele>1861.4</ele>
        <time>2021-01-16T12:26:41Z</time>
      </trkpt>
      <trkpt lat="45.30816" lon="6.05018">
        <ele>1861.4</ele>
        <time>2021-01-16T12:26:42Z</time>
      </trkpt>
      <trkpt lat="45.30817" lon="6.05018">
        <ele>1861.4</ele>
        <time>2021-01-16T12:26:43Z</time>
      </trkpt>
      <trkpt lat="45.30818" lon="6.05019">
        <ele>1861.4</ele>
        <time>2021-01-16T12:26:44Z</time>
      </trkpt>
      <trkpt lat="45.30818" lon="6.05019">
        <ele>1861.6</ele>
        <time>2021-01-16T12:26:45Z</time>
      </trkpt>
      <trkpt lat="45.30819" lon="6.0502">
        <ele>1861.6</ele>
        <time>2021-01-16T12:26:46Z</time>
      </trkpt>
      <trkpt lat="45.3082" lon="6.0502">
        <ele>1861.8</ele>
        <time>2021-01-16T12:26:47Z</time>
      </trkpt>
      <trkpt lat="45.3082" lon="6.05021">
        <ele>1861.8</ele>
        <time>2021-01-16T12:26:48Z</time>
      </trkpt>
      <trkpt lat="45.30821" lon="6.05021">
        <ele>1862</ele>
        <time>2021-01-16T12:26:49Z</time>
      </trkpt>
      <trkpt lat="45.30821" lon="6.05022">
        <ele>1862</ele>
        <time>2021-01-16T12:26:50Z</time>
      </trkpt>
      <trkpt lat="45.30822" lon="6.05023">
        <ele>1861.8</ele>
        <time>2021-01-16T12:26:51Z</time>
      </trkpt>
      <trkpt lat="45.30822" lon="6.05023">
        <ele>1862</ele>
        <time>2021-01-16T12:26:52Z</time>
      </trkpt>
      <trkpt lat="45.30823" lon="6.05024">
        <ele>1862</ele>
        <time>2021-01-16T12:26:53Z</time>
      </trkpt>
      <trkpt lat="45.30823" lon="6.05025">
        <ele>1862.2</ele>
        <time>2021-01-16T12:26:54Z</time>
      </trkpt>
      <trkpt lat="45.30824" lon="6.05026">
        <ele>1862.2</ele>
        <time>2021-01-16T12:26:55Z</time>
      </trkpt>
      <trkpt lat="45.30824" lon="6.05026">
        <ele>1862.2</ele>
        <time>2021-01-16T12:26:56Z</time>
      </trkpt>
      <trkpt lat="45.30825" lon="6.05027">
        <ele>1862.2</ele>
        <time>2021-01-16T12:26:57Z</time>
      </trkpt>
      <trkpt lat="45.30826" lon="6.05028">
        <ele>1862.2</ele>
        <time>2021-01-16T12:26:58Z</time>
      </trkpt>
      <trkpt lat="45.30826" lon="6.05029">
        <ele>1862.2</ele>
        <time>2021-01-16T12:26:59Z</time>
      </trkpt>
      <trkpt lat="45.30827" lon="6.05029">
        <ele>1862.2</ele>
        <time>2021-01-16T12:27:00Z</time>
      </trkpt>
      <trkpt lat="45.30828" lon="6.0503">
        <ele>1862.2</ele>
        <time>2021-01-16T12:27:01Z</time>
      </trkpt>
      <trkpt lat="45.30828" lon="6.05031">
        <ele>1862.2</ele>
        <time>2021-01-16T12:27:02Z</time>
      </trkpt>
      <trkpt lat="45.30829" lon="6.05031">
        <ele>1862.4</ele>
        <time>2021-01-16T12:27:03Z</time>
      </trkpt>
      <trkpt lat="45.30829" lon="6.05032">
        <ele>1862</ele>
        <time>2021-01-16T12:27:04Z</time>
      </trkpt>
      <trkpt lat="45.3083" lon="6.05033">
        <ele>1862</ele>
        <time>2021-01-16T12:27:05Z</time>
      </trkpt>
      <trkpt lat="45.30831" lon="6.05033">
        <ele>1862</ele>
        <time>2021-01-16T12:27:06Z</time>
      </trkpt>
      <trkpt lat="45.30831" lon="6.05034">
        <ele>1862</ele>
        <time>2021-01-16T12:27:07Z</time>
      </trkpt>
      <trkpt lat="45.30832" lon="6.05034">
        <ele>1862</ele>
        <time>2021-01-16T12:27:08Z</time>
      </trkpt>
      <trkpt lat="45.30833" lon="6.05035">
        <ele>1862</ele>
        <time>2021-01-16T12:27:09Z</time>
      </trkpt>
      <trkpt lat="45.30833" lon="6.05035">
        <ele>1862</ele>
        <time>2021-01-16T12:27:10Z</time>
      </trkpt>
      <trkpt lat="45.30834" lon="6.05036">
        <ele>1862</ele>
        <time>2021-01-16T12:27:11Z</time>
      </trkpt>
      <trkpt lat="45.30835" lon="6.05036">
        <ele>1862</ele>
        <time>2021-01-16T12:27:12Z</time>
      </trkpt>
      <trkpt lat="45.30836" lon="6.05037">
        <ele>1862</ele>
        <time>2021-01-16T12:27:13Z</time>
      </trkpt>
      <trkpt lat="45.30836" lon="6.05038">
        <ele>1862</ele>
        <time>2021-01-16T12:27:14Z</time>
      </trkpt>
      <trkpt lat="45.30837" lon="6.05039">
        <ele>1861.8</ele>
        <time>2021-01-16T12:27:15Z</time>
      </trkpt>
      <trkpt lat="45.30837" lon="6.05039">
        <ele>1861.8</ele>
        <time>2021-01-16T12:27:16Z</time>
      </trkpt>
      <trkpt lat="45.30838" lon="6.0504">
        <ele>1861.8</ele>
        <time>2021-01-16T12:27:17Z</time>
      </trkpt>
      <trkpt lat="45.30839" lon="6.05041">
        <ele>1861.8</ele>
        <time>2021-01-16T12:27:18Z</time>
      </trkpt>
      <trkpt lat="45.30839" lon="6.05042">
        <ele>1862</ele>
        <time>2021-01-16T12:27:19Z</time>
      </trkpt>
      <trkpt lat="45.3084" lon="6.05042">
        <ele>1861.8</ele>
        <time>2021-01-16T12:27:20Z</time>
      </trkpt>
      <trkpt lat="45.30841" lon="6.05043">
        <ele>1861.8</ele>
        <time>2021-01-16T12:27:21Z</time>
      </trkpt>
      <trkpt lat="45.30841" lon="6.05044">
        <ele>1861.8</ele>
        <time>2021-01-16T12:27:22Z</time>
      </trkpt>
      <trkpt lat="45.30842" lon="6.05044">
        <ele>1861.8</ele>
        <time>2021-01-16T12:27:23Z</time>
      </trkpt>
      <trkpt lat="45.30842" lon="6.05045">
        <ele>1861.8</ele>
        <time>2021-01-16T12:27:24Z</time>
      </trkpt>
      <trkpt lat="45.30843" lon="6.05046">
        <ele>1861.8</ele>
        <time>2021-01-16T12:27:25Z</time>
      </trkpt>
      <trkpt lat="45.30843" lon="6.05046">
        <ele>1861.8</ele>
        <time>2021-01-16T12:27:26Z</time>
      </trkpt>
      <trkpt lat="45.30844" lon="6.05047">
        <ele>1861.8</ele>
        <time>2021-01-16T12:27:27Z</time>
      </trkpt>
      <trkpt lat="45.30845" lon="6.05048">
        <ele>1861.8</ele>
        <time>2021-01-16T12:27:28Z</time>
      </trkpt>
      <trkpt lat="45.30845" lon="6.05049">
        <ele>1861.8</ele>
        <time>2021-01-16T12:27:29Z</time>
      </trkpt>
      <trkpt lat="45.30846" lon="6.0505">
        <ele>1861.8</ele>
        <time>2021-01-16T12:27:30Z</time>
      </trkpt>
      <trkpt lat="45.30847" lon="6.05051">
        <ele>1861.8</ele>
        <time>2021-01-16T12:27:31Z</time>
      </trkpt>
      <trkpt lat="45.30847" lon="6.05051">
        <ele>1861.8</ele>
        <time>2021-01-16T12:27:32Z</time>
      </trkpt>
      <trkpt lat="45.30848" lon="6.05052">
        <ele>1861.8</ele>
        <time>2021-01-16T12:27:33Z</time>
      </trkpt>
      <trkpt lat="45.30848" lon="6.05053">
        <ele>1861.8</ele>
        <time>2021-01-16T12:27:34Z</time>
      </trkpt>
      <trkpt lat="45.30849" lon="6.05054">
        <ele>1861.8</ele>
        <time>2021-01-16T12:27:35Z</time>
      </trkpt>
      <trkpt lat="45.3085" lon="6.05055">
        <ele>1861.8</ele>
        <time>2021-01-16T12:27:36Z</time>
      </trkpt>
      <trkpt lat="45.3085" lon="6.05056">
        <ele>1861.8</ele>
        <time>2021-01-16T12:27:37Z</time>
      </trkpt>
      <trkpt lat="45.30851" lon="6.05056">
        <ele>1861.8</ele>
        <time>2021-01-16T12:27:38Z</time>
      </trkpt>
      <trkpt lat="45.30851" lon="6.05057">
        <ele>1861.6</ele>
        <time>2021-01-16T12:27:39Z</time>
      </trkpt>
      <trkpt lat="45.30852" lon="6.05058">
        <ele>1861.6</ele>
        <time>2021-01-16T12:27:40Z</time>
      </trkpt>
      <trkpt lat="45.30852" lon="6.05059">
        <ele>1861.6</ele>
        <time>2021-01-16T12:27:41Z</time>
      </trkpt>
      <trkpt lat="45.30853" lon="6.05059">
        <ele>1861.6</ele>
        <time>2021-01-16T12:27:42Z</time>
      </trkpt>
      <trkpt lat="45.30853" lon="6.0506">
        <ele>1861.8</ele>
        <time>2021-01-16T12:27:43Z</time>
      </trkpt>
      <trkpt lat="45.30854" lon="6.05061">
        <ele>1861.6</ele>
        <time>2021-01-16T12:27:44Z</time>
      </trkpt>
      <trkpt lat="45.30855" lon="6.05062">
        <ele>1861.6</ele>
        <time>2021-01-16T12:27:45Z</time>
      </trkpt>
      <trkpt lat="45.30855" lon="6.05062">
        <ele>1861.6</ele>
        <time>2021-01-16T12:27:46Z</time>
      </trkpt>
      <trkpt lat="45.30856" lon="6.05063">
        <ele>1861.6</ele>
        <time>2021-01-16T12:27:47Z</time>
      </trkpt>
      <trkpt lat="45.30856" lon="6.05064">
        <ele>1861.6</ele>
        <time>2021-01-16T12:27:48Z</time>
      </trkpt>
      <trkpt lat="45.30857" lon="6.05065">
        <ele>1861.6</ele>
        <time>2021-01-16T12:27:49Z</time>
      </trkpt>
      <trkpt lat="45.30858" lon="6.05066">
        <ele>1861.4</ele>
        <time>2021-01-16T12:27:50Z</time>
      </trkpt>
      <trkpt lat="45.30858" lon="6.05067">
        <ele>1861.4</ele>
        <time>2021-01-16T12:27:51Z</time>
      </trkpt>
      <trkpt lat="45.30859" lon="6.05068">
        <ele>1861.4</ele>
        <time>2021-01-16T12:27:52Z</time>
      </trkpt>
      <trkpt lat="45.30859" lon="6.05069">
        <ele>1861.6</ele>
        <time>2021-01-16T12:27:53Z</time>
      </trkpt>
      <trkpt lat="45.3086" lon="6.05069">
        <ele>1861.4</ele>
        <time>2021-01-16T12:27:54Z</time>
      </trkpt>
      <trkpt lat="45.3086" lon="6.0507">
        <ele>1861.4</ele>
        <time>2021-01-16T12:27:55Z</time>
      </trkpt>
      <trkpt lat="45.30861" lon="6.05071">
        <ele>1861.4</ele>
        <time>2021-01-16T12:27:56Z</time>
      </trkpt>
      <trkpt lat="45.30861" lon="6.05072">
        <ele>1861.2</ele>
        <time>2021-01-16T12:27:57Z</time>
      </trkpt>
      <trkpt lat="45.30862" lon="6.05073">
        <ele>1861.2</ele>
        <time>2021-01-16T12:27:58Z</time>
      </trkpt>
      <trkpt lat="45.30862" lon="6.05074">
        <ele>1861.2</ele>
        <time>2021-01-16T12:27:59Z</time>
      </trkpt>
      <trkpt lat="45.30863" lon="6.05075">
        <ele>1861.2</ele>
        <time>2021-01-16T12:28:00Z</time>
      </trkpt>
      <trkpt lat="45.30863" lon="6.05076">
        <ele>1861.2</ele>
        <time>2021-01-16T12:28:01Z</time>
      </trkpt>
      <trkpt lat="45.30864" lon="6.05076">
        <ele>1861.2</ele>
        <time>2021-01-16T12:28:02Z</time>
      </trkpt>
      <trkpt lat="45.30865" lon="6.05077">
        <ele>1861.2</ele>
        <time>2021-01-16T12:28:03Z</time>
      </trkpt>
      <trkpt lat="45.30866" lon="6.05078">
        <ele>1860.8</ele>
        <time>2021-01-16T12:28:04Z</time>
      </trkpt>
      <trkpt lat="45.30866" lon="6.05079">
        <ele>1861</ele>
        <time>2021-01-16T12:28:05Z</time>
      </trkpt>
      <trkpt lat="45.30867" lon="6.05079">
        <ele>1861</ele>
        <time>2021-01-16T12:28:06Z</time>
      </trkpt>
      <trkpt lat="45.30867" lon="6.0508">
        <ele>1861</ele>
        <time>2021-01-16T12:28:07Z</time>
      </trkpt>
      <trkpt lat="45.30868" lon="6.05081">
        <ele>1861</ele>
        <time>2021-01-16T12:28:08Z</time>
      </trkpt>
      <trkpt lat="45.30869" lon="6.05082">
        <ele>1861</ele>
        <time>2021-01-16T12:28:09Z</time>
      </trkpt>
      <trkpt lat="45.30869" lon="6.05083">
        <ele>1861.2</ele>
        <time>2021-01-16T12:28:10Z</time>
      </trkpt>
      <trkpt lat="45.3087" lon="6.05084">
        <ele>1861</ele>
        <time>2021-01-16T12:28:11Z</time>
      </trkpt>
      <trkpt lat="45.3087" lon="6.05084">
        <ele>1861</ele>
        <time>2021-01-16T12:28:12Z</time>
      </trkpt>
      <trkpt lat="45.30871" lon="6.05085">
        <ele>1861</ele>
        <time>2021-01-16T12:28:13Z</time>
      </trkpt>
      <trkpt lat="45.30872" lon="6.05085">
        <ele>1861</ele>
        <time>2021-01-16T12:28:14Z</time>
      </trkpt>
      <trkpt lat="45.30872" lon="6.05086">
        <ele>1861</ele>
        <time>2021-01-16T12:28:15Z</time>
      </trkpt>
      <trkpt lat="45.30873" lon="6.05086">
        <ele>1861</ele>
        <time>2021-01-16T12:28:16Z</time>
      </trkpt>
      <trkpt lat="45.30874" lon="6.05087">
        <ele>1861</ele>
        <time>2021-01-16T12:28:17Z</time>
      </trkpt>
      <trkpt lat="45.30875" lon="6.05087">
        <ele>1861</ele>
        <time>2021-01-16T12:28:18Z</time>
      </trkpt>
      <trkpt lat="45.30876" lon="6.05088">
        <ele>1860.8</ele>
        <time>2021-01-16T12:28:19Z</time>
      </trkpt>
      <trkpt lat="45.30876" lon="6.05088">
        <ele>1860.8</ele>
        <time>2021-01-16T12:28:20Z</time>
      </trkpt>
      <trkpt lat="45.30877" lon="6.05089">
        <ele>1860.8</ele>
        <time>2021-01-16T12:28:21Z</time>
      </trkpt>
      <trkpt lat="45.30878" lon="6.0509">
        <ele>1860.8</ele>
        <time>2021-01-16T12:28:22Z</time>
      </trkpt>
      <trkpt lat="45.30879" lon="6.0509">
        <ele>1860.8</ele>
        <time>2021-01-16T12:28:23Z</time>
      </trkpt>
      <trkpt lat="45.30879" lon="6.0509">
        <ele>1860.8</ele>
        <time>2021-01-16T12:28:24Z</time>
      </trkpt>
      <trkpt lat="45.3088" lon="6.05091">
        <ele>1860.8</ele>
        <time>2021-01-16T12:28:25Z</time>
      </trkpt>
      <trkpt lat="45.30881" lon="6.05092">
        <ele>1860.6</ele>
        <time>2021-01-16T12:28:26Z</time>
      </trkpt>
      <trkpt lat="45.30881" lon="6.05092">
        <ele>1860.8</ele>
        <time>2021-01-16T12:28:27Z</time>
      </trkpt>
      <trkpt lat="45.30882" lon="6.05093">
        <ele>1860.6</ele>
        <time>2021-01-16T12:28:28Z</time>
      </trkpt>
      <trkpt lat="45.30883" lon="6.05094">
        <ele>1860.6</ele>
        <time>2021-01-16T12:28:29Z</time>
      </trkpt>
      <trkpt lat="45.30884" lon="6.05095">
        <ele>1860.6</ele>
        <time>2021-01-16T12:28:30Z</time>
      </trkpt>
      <trkpt lat="45.30884" lon="6.05096">
        <ele>1860.6</ele>
        <time>2021-01-16T12:28:31Z</time>
      </trkpt>
      <trkpt lat="45.30885" lon="6.05097">
        <ele>1860.6</ele>
        <time>2021-01-16T12:28:32Z</time>
      </trkpt>
      <trkpt lat="45.30886" lon="6.05098">
        <ele>1860.6</ele>
        <time>2021-01-16T12:28:33Z</time>
      </trkpt>
      <trkpt lat="45.30886" lon="6.05099">
        <ele>1860.6</ele>
        <time>2021-01-16T12:28:34Z</time>
      </trkpt>
      <trkpt lat="45.30887" lon="6.051">
        <ele>1860.6</ele>
        <time>2021-01-16T12:28:35Z</time>
      </trkpt>
      <trkpt lat="45.30887" lon="6.051">
        <ele>1860.6</ele>
        <time>2021-01-16T12:28:36Z</time>
      </trkpt>
      <trkpt lat="45.30888" lon="6.05101">
        <ele>1860.6</ele>
        <time>2021-01-16T12:28:37Z</time>
      </trkpt>
      <trkpt lat="45.30889" lon="6.05101">
        <ele>1860.6</ele>
        <time>2021-01-16T12:28:38Z</time>
      </trkpt>
      <trkpt lat="45.30889" lon="6.05102">
        <ele>1860.4</ele>
        <time>2021-01-16T12:28:39Z</time>
      </trkpt>
      <trkpt lat="45.3089" lon="6.05103">
        <ele>1860.6</ele>
        <time>2021-01-16T12:28:40Z</time>
      </trkpt>
      <trkpt lat="45.30891" lon="6.05103">
        <ele>1860.4</ele>
        <time>2021-01-16T12:28:41Z</time>
      </trkpt>
      <trkpt lat="45.30891" lon="6.05104">
        <ele>1860.4</ele>
        <time>2021-01-16T12:28:42Z</time>
      </trkpt>
      <trkpt lat="45.30892" lon="6.05105">
        <ele>1860.4</ele>
        <time>2021-01-16T12:28:43Z</time>
      </trkpt>
      <trkpt lat="45.30892" lon="6.05105">
        <ele>1860.4</ele>
        <time>2021-01-16T12:28:44Z</time>
      </trkpt>
      <trkpt lat="45.30893" lon="6.05106">
        <ele>1860.4</ele>
        <time>2021-01-16T12:28:45Z</time>
      </trkpt>
      <trkpt lat="45.30893" lon="6.05107">
        <ele>1860.2</ele>
        <time>2021-01-16T12:28:46Z</time>
      </trkpt>
      <trkpt lat="45.30894" lon="6.05108">
        <ele>1860.2</ele>
        <time>2021-01-16T12:28:47Z</time>
      </trkpt>
      <trkpt lat="45.30895" lon="6.05109">
        <ele>1860.2</ele>
        <time>2021-01-16T12:28:48Z</time>
      </trkpt>
      <trkpt lat="45.30895" lon="6.05109">
        <ele>1860.2</ele>
        <time>2021-01-16T12:28:49Z</time>
      </trkpt>
      <trkpt lat="45.30896" lon="6.0511">
        <ele>1860.2</ele>
        <time>2021-01-16T12:28:50Z</time>
      </trkpt>
      <trkpt lat="45.30896" lon="6.05111">
        <ele>1860.2</ele>
        <time>2021-01-16T12:28:51Z</time>
      </trkpt>
      <trkpt lat="45.30897" lon="6.05111">
        <ele>1860.2</ele>
        <time>2021-01-16T12:28:52Z</time>
      </trkpt>
      <trkpt lat="45.30897" lon="6.05112">
        <ele>1860.2</ele>
        <time>2021-01-16T12:28:53Z</time>
      </trkpt>
      <trkpt lat="45.30898" lon="6.05113">
        <ele>1860.2</ele>
        <time>2021-01-16T12:28:54Z</time>
      </trkpt>
      <trkpt lat="45.30898" lon="6.05113">
        <ele>1860.2</ele>
        <time>2021-01-16T12:28:55Z</time>
      </trkpt>
      <trkpt lat="45.30898" lon="6.05114">
        <ele>1860.4</ele>
        <time>2021-01-16T12:28:56Z</time>
      </trkpt>
      <trkpt lat="45.30898" lon="6.05114">
        <ele>1860.4</ele>
        <time>2021-01-16T12:28:57Z</time>
      </trkpt>
      <trkpt lat="45.30898" lon="6.05114">
        <ele>1860.4</ele>
        <time>2021-01-16T12:28:58Z</time>
      </trkpt>
      <trkpt lat="45.30898" lon="6.05114">
        <ele>1860.4</ele>
        <time>2021-01-16T12:28:59Z</time>
      </trkpt>
      <trkpt lat="45.30898" lon="6.05114">
        <ele>1860.4</ele>
        <time>2021-01-16T12:29:00Z</time>
      </trkpt>
      <trkpt lat="45.30898" lon="6.05114">
        <ele>1860.2</ele>
        <time>2021-01-16T12:29:01Z</time>
      </trkpt>
      <trkpt lat="45.30898" lon="6.05114">
        <ele>1860.2</ele>
        <time>2021-01-16T12:29:02Z</time>
      </trkpt>
      <trkpt lat="45.30898" lon="6.05114">
        <ele>1860.2</ele>
        <time>2021-01-16T12:29:03Z</time>
      </trkpt>
      <trkpt lat="45.30898" lon="6.05114">
        <ele>1860.2</ele>
        <time>2021-01-16T12:29:04Z</time>
      </trkpt>
      <trkpt lat="45.30898" lon="6.05114">
        <ele>1860.2</ele>
        <time>2021-01-16T12:29:05Z</time>
      </trkpt>
      <trkpt lat="45.30898" lon="6.05114">
        <ele>1860.2</ele>
        <time>2021-01-16T12:29:06Z</time>
      </trkpt>
      <trkpt lat="45.30898" lon="6.05114">
        <ele>1860.2</ele>
        <time>2021-01-16T12:29:07Z</time>
      </trkpt>
      <trkpt lat="45.30898" lon="6.05114">
        <ele>1860.2</ele>
        <time>2021-01-16T12:29:08Z</time>
      </trkpt>
      <trkpt lat="45.30898" lon="6.05114">
        <ele>1860.2</ele>
        <time>2021-01-16T12:29:09Z</time>
      </trkpt>
      <trkpt lat="45.30898" lon="6.05114">
        <ele>1860.2</ele>
        <time>2021-01-16T12:29:10Z</time>
      </trkpt>
      <trkpt lat="45.30898" lon="6.05114">
        <ele>1860.2</ele>
        <time>2021-01-16T12:29:11Z</time>
      </trkpt>
      <trkpt lat="45.30898" lon="6.05114">
        <ele>1860.2</ele>
        <time>2021-01-16T12:29:12Z</time>
      </trkpt>
      <trkpt lat="45.30898" lon="6.05114">
        <ele>1860.2</ele>
        <time>2021-01-16T12:29:13Z</time>
      </trkpt>
      <trkpt lat="45.30898" lon="6.05114">
        <ele>1860.2</ele>
        <time>2021-01-16T12:29:14Z</time>
      </trkpt>
      <trkpt lat="45.30898" lon="6.05114">
        <ele>1860.2</ele>
        <time>2021-01-16T12:29:15Z</time>
      </trkpt>
      <trkpt lat="45.30898" lon="6.05114">
        <ele>1860.2</ele>
        <time>2021-01-16T12:29:16Z</time>
      </trkpt>
      <trkpt lat="45.30898" lon="6.05114">
        <ele>1860.2</ele>
        <time>2021-01-16T12:29:17Z</time>
      </trkpt>
      <trkpt lat="45.30898" lon="6.05114">
        <ele>1860.2</ele>
        <time>2021-01-16T12:29:18Z</time>
      </trkpt>
      <trkpt lat="45.30898" lon="6.05114">
        <ele>1860.2</ele>
        <time>2021-01-16T12:29:19Z</time>
      </trkpt>
      <trkpt lat="45.30898" lon="6.05114">
        <ele>1860.2</ele>
        <time>2021-01-16T12:29:20Z</time>
      </trkpt>
      <trkpt lat="45.30898" lon="6.05114">
        <ele>1860.2</ele>
        <time>2021-01-16T12:29:21Z</time>
      </trkpt>
      <trkpt lat="45.30898" lon="6.05114">
        <ele>1860.2</ele>
        <time>2021-01-16T12:29:22Z</time>
      </trkpt>
      <trkpt lat="45.30898" lon="6.05114">
        <ele>1860.2</ele>
        <time>2021-01-16T12:29:23Z</time>
      </trkpt>
      <trkpt lat="45.30898" lon="6.05114">
        <ele>1860.2</ele>
        <time>2021-01-16T12:29:24Z</time>
      </trkpt>
      <trkpt lat="45.30898" lon="6.05114">
        <ele>1860.2</ele>
        <time>2021-01-16T12:29:25Z</time>
      </trkpt>
      <trkpt lat="45.30898" lon="6.05114">
        <ele>1860</ele>
        <time>2021-01-16T12:29:26Z</time>
      </trkpt>
      <trkpt lat="45.30898" lon="6.05114">
        <ele>1860</ele>
        <time>2021-01-16T12:29:27Z</time>
      </trkpt>
      <trkpt lat="45.30898" lon="6.05114">
        <ele>1860.2</ele>
        <time>2021-01-16T12:29:28Z</time>
      </trkpt>
      <trkpt lat="45.30898" lon="6.05114">
        <ele>1860.2</ele>
        <time>2021-01-16T12:29:29Z</time>
      </trkpt>
      <trkpt lat="45.30898" lon="6.05114">
        <ele>1860.2</ele>
        <time>2021-01-16T12:29:30Z</time>
      </trkpt>
      <trkpt lat="45.30898" lon="6.05114">
        <ele>1860</ele>
        <time>2021-01-16T12:29:31Z</time>
      </trkpt>
      <trkpt lat="45.30898" lon="6.05114">
        <ele>1860</ele>
        <time>2021-01-16T12:29:32Z</time>
      </trkpt>
      <trkpt lat="45.30898" lon="6.05114">
        <ele>1860</ele>
        <time>2021-01-16T12:29:33Z</time>
      </trkpt>
      <trkpt lat="45.30898" lon="6.05114">
        <ele>1860</ele>
        <time>2021-01-16T12:29:34Z</time>
      </trkpt>
      <trkpt lat="45.30898" lon="6.05114">
        <ele>1860</ele>
        <time>2021-01-16T12:29:35Z</time>
      </trkpt>
      <trkpt lat="45.30898" lon="6.05114">
        <ele>1860</ele>
        <time>2021-01-16T12:29:36Z</time>
      </trkpt>
      <trkpt lat="45.30898" lon="6.05114">
        <ele>1860</ele>
        <time>2021-01-16T12:29:37Z</time>
      </trkpt>
      <trkpt lat="45.30898" lon="6.05114">
        <ele>1860</ele>
        <time>2021-01-16T12:29:38Z</time>
      </trkpt>
      <trkpt lat="45.30898" lon="6.05114">
        <ele>1860</ele>
        <time>2021-01-16T12:29:39Z</time>
      </trkpt>
      <trkpt lat="45.30898" lon="6.05114">
        <ele>1860</ele>
        <time>2021-01-16T12:29:40Z</time>
      </trkpt>
      <trkpt lat="45.30898" lon="6.05114">
        <ele>1860</ele>
        <time>2021-01-16T12:29:41Z</time>
      </trkpt>
      <trkpt lat="45.30898" lon="6.05114">
        <ele>1860</ele>
        <time>2021-01-16T12:29:42Z</time>
      </trkpt>
      <trkpt lat="45.30898" lon="6.05114">
        <ele>1860</ele>
        <time>2021-01-16T12:29:43Z</time>
      </trkpt>
      <trkpt lat="45.30898" lon="6.05114">
        <ele>1860</ele>
        <time>2021-01-16T12:29:44Z</time>
      </trkpt>
      <trkpt lat="45.30898" lon="6.05114">
        <ele>1860</ele>
        <time>2021-01-16T12:29:45Z</time>
      </trkpt>
      <trkpt lat="45.30898" lon="6.05114">
        <ele>1860</ele>
        <time>2021-01-16T12:29:46Z</time>
      </trkpt>
      <trkpt lat="45.30898" lon="6.05114">
        <ele>1860</ele>
        <time>2021-01-16T12:29:47Z</time>
      </trkpt>
      <trkpt lat="45.30898" lon="6.05114">
        <ele>1859.8</ele>
        <time>2021-01-16T12:29:48Z</time>
      </trkpt>
      <trkpt lat="45.30898" lon="6.05114">
        <ele>1859.8</ele>
        <time>2021-01-16T12:29:49Z</time>
      </trkpt>
      <trkpt lat="45.30898" lon="6.05114">
        <ele>1859.8</ele>
        <time>2021-01-16T12:29:50Z</time>
      </trkpt>
      <trkpt lat="45.30898" lon="6.05114">
        <ele>1859.8</ele>
        <time>2021-01-16T12:29:51Z</time>
      </trkpt>
      <trkpt lat="45.30898" lon="6.05114">
        <ele>1859.8</ele>
        <time>2021-01-16T12:29:52Z</time>
      </trkpt>
      <trkpt lat="45.30898" lon="6.05114">
        <ele>1859.8</ele>
        <time>2021-01-16T12:29:53Z</time>
      </trkpt>
      <trkpt lat="45.30898" lon="6.05114">
        <ele>1859.8</ele>
        <time>2021-01-16T12:29:54Z</time>
      </trkpt>
      <trkpt lat="45.30898" lon="6.05114">
        <ele>1859.8</ele>
        <time>2021-01-16T12:29:55Z</time>
      </trkpt>
      <trkpt lat="45.30898" lon="6.05114">
        <ele>1859.8</ele>
        <time>2021-01-16T12:29:56Z</time>
      </trkpt>
      <trkpt lat="45.30898" lon="6.05114">
        <ele>1859.8</ele>
        <time>2021-01-16T12:29:57Z</time>
      </trkpt>
      <trkpt lat="45.30898" lon="6.05114">
        <ele>1859.8</ele>
        <time>2021-01-16T12:29:58Z</time>
      </trkpt>
      <trkpt lat="45.30898" lon="6.05114">
        <ele>1859.8</ele>
        <time>2021-01-16T12:29:59Z</time>
      </trkpt>
      <trkpt lat="45.30898" lon="6.05114">
        <ele>1859.8</ele>
        <time>2021-01-16T12:30:00Z</time>
      </trkpt>
      <trkpt lat="45.30898" lon="6.05114">
        <ele>1859.8</ele>
        <time>2021-01-16T12:30:01Z</time>
      </trkpt>
      <trkpt lat="45.30898" lon="6.05114">
        <ele>1859.8</ele>
        <time>2021-01-16T12:30:02Z</time>
      </trkpt>
      <trkpt lat="45.30898" lon="6.05114">
        <ele>1859.8</ele>
        <time>2021-01-16T12:30:03Z</time>
      </trkpt>
      <trkpt lat="45.30898" lon="6.05114">
        <ele>1859.8</ele>
        <time>2021-01-16T12:30:04Z</time>
      </trkpt>
      <trkpt lat="45.30898" lon="6.05114">
        <ele>1859.8</ele>
        <time>2021-01-16T12:30:05Z</time>
      </trkpt>
      <trkpt lat="45.30898" lon="6.05114">
        <ele>1859.6</ele>
        <time>2021-01-16T12:30:06Z</time>
      </trkpt>
      <trkpt lat="45.30898" lon="6.05114">
        <ele>1859.6</ele>
        <time>2021-01-16T12:30:07Z</time>
      </trkpt>
      <trkpt lat="45.30898" lon="6.05114">
        <ele>1859.6</ele>
        <time>2021-01-16T12:30:08Z</time>
      </trkpt>
      <trkpt lat="45.30898" lon="6.05114">
        <ele>1859.6</ele>
        <time>2021-01-16T12:30:09Z</time>
      </trkpt>
      <trkpt lat="45.30898" lon="6.05114">
        <ele>1859.6</ele>
        <time>2021-01-16T12:30:10Z</time>
      </trkpt>
      <trkpt lat="45.30898" lon="6.05114">
        <ele>1859.6</ele>
        <time>2021-01-16T12:30:11Z</time>
      </trkpt>
      <trkpt lat="45.30898" lon="6.05114">
        <ele>1859.6</ele>
        <time>2021-01-16T12:30:12Z</time>
      </trkpt>
      <trkpt lat="45.30898" lon="6.05114">
        <ele>1859.6</ele>
        <time>2021-01-16T12:30:13Z</time>
      </trkpt>
      <trkpt lat="45.30898" lon="6.05114">
        <ele>1859.6</ele>
        <time>2021-01-16T12:30:14Z</time>
      </trkpt>
      <trkpt lat="45.30898" lon="6.05114">
        <ele>1859.6</ele>
        <time>2021-01-16T12:30:15Z</time>
      </trkpt>
      <trkpt lat="45.30898" lon="6.05114">
        <ele>1859.6</ele>
        <time>2021-01-16T12:30:16Z</time>
      </trkpt>
      <trkpt lat="45.30898" lon="6.05114">
        <ele>1859.6</ele>
        <time>2021-01-16T12:30:17Z</time>
      </trkpt>
      <trkpt lat="45.30898" lon="6.05114">
        <ele>1859.6</ele>
        <time>2021-01-16T12:30:18Z</time>
      </trkpt>
      <trkpt lat="45.30898" lon="6.05114">
        <ele>1859.6</ele>
        <time>2021-01-16T12:30:19Z</time>
      </trkpt>
      <trkpt lat="45.30898" lon="6.05114">
        <ele>1859.4</ele>
        <time>2021-01-16T12:30:20Z</time>
      </trkpt>
      <trkpt lat="45.30898" lon="6.05114">
        <ele>1859.4</ele>
        <time>2021-01-16T12:30:21Z</time>
      </trkpt>
      <trkpt lat="45.30898" lon="6.05114">
        <ele>1859.6</ele>
        <time>2021-01-16T12:30:22Z</time>
      </trkpt>
      <trkpt lat="45.30898" lon="6.05114">
        <ele>1859.6</ele>
        <time>2021-01-16T12:30:23Z</time>
      </trkpt>
      <trkpt lat="45.30898" lon="6.05114">
        <ele>1859.6</ele>
        <time>2021-01-16T12:30:24Z</time>
      </trkpt>
      <trkpt lat="45.30898" lon="6.05114">
        <ele>1859.4</ele>
        <time>2021-01-16T12:30:25Z</time>
      </trkpt>
      <trkpt lat="45.30898" lon="6.05114">
        <ele>1859.4</ele>
        <time>2021-01-16T12:30:26Z</time>
      </trkpt>
      <trkpt lat="45.30898" lon="6.05114">
        <ele>1859.4</ele>
        <time>2021-01-16T12:30:27Z</time>
      </trkpt>
      <trkpt lat="45.30898" lon="6.05114">
        <ele>1859.4</ele>
        <time>2021-01-16T12:30:28Z</time>
      </trkpt>
      <trkpt lat="45.30898" lon="6.05114">
        <ele>1859.4</ele>
        <time>2021-01-16T12:30:29Z</time>
      </trkpt>
      <trkpt lat="45.30898" lon="6.05114">
        <ele>1859.4</ele>
        <time>2021-01-16T12:30:30Z</time>
      </trkpt>
      <trkpt lat="45.30898" lon="6.05114">
        <ele>1859.4</ele>
        <time>2021-01-16T12:30:31Z</time>
      </trkpt>
      <trkpt lat="45.30898" lon="6.05114">
        <ele>1859.4</ele>
        <time>2021-01-16T12:30:32Z</time>
      </trkpt>
      <trkpt lat="45.30898" lon="6.05114">
        <ele>1859.4</ele>
        <time>2021-01-16T12:30:33Z</time>
      </trkpt>
      <trkpt lat="45.30898" lon="6.05114">
        <ele>1859.4</ele>
        <time>2021-01-16T12:30:34Z</time>
      </trkpt>
      <trkpt lat="45.30898" lon="6.05114">
        <ele>1859.4</ele>
        <time>2021-01-16T12:30:35Z</time>
      </trkpt>
      <trkpt lat="45.30898" lon="6.05114">
        <ele>1859.4</ele>
        <time>2021-01-16T12:30:36Z</time>
      </trkpt>
      <trkpt lat="45.30898" lon="6.05114">
        <ele>1859.4</ele>
        <time>2021-01-16T12:30:37Z</time>
      </trkpt>
      <trkpt lat="45.30898" lon="6.05114">
        <ele>1859.4</ele>
        <time>2021-01-16T12:30:38Z</time>
      </trkpt>
      <trkpt lat="45.30898" lon="6.05114">
        <ele>1859.4</ele>
        <time>2021-01-16T12:30:39Z</time>
      </trkpt>
      <trkpt lat="45.30898" lon="6.05114">
        <ele>1859.4</ele>
        <time>2021-01-16T12:30:40Z</time>
      </trkpt>
      <trkpt lat="45.30898" lon="6.05114">
        <ele>1859.4</ele>
        <time>2021-01-16T12:30:41Z</time>
      </trkpt>
      <trkpt lat="45.30898" lon="6.05114">
        <ele>1859.4</ele>
        <time>2021-01-16T12:30:42Z</time>
      </trkpt>
      <trkpt lat="45.30898" lon="6.05114">
        <ele>1859.4</ele>
        <time>2021-01-16T12:30:43Z</time>
      </trkpt>
      <trkpt lat="45.30898" lon="6.05114">
        <ele>1859.4</ele>
        <time>2021-01-16T12:30:44Z</time>
      </trkpt>
      <trkpt lat="45.30898" lon="6.05114">
        <ele>1859.4</ele>
        <time>2021-01-16T12:30:45Z</time>
      </trkpt>
      <trkpt lat="45.30898" lon="6.05114">
        <ele>1859.4</ele>
        <time>2021-01-16T12:30:46Z</time>
      </trkpt>
      <trkpt lat="45.30898" lon="6.05114">
        <ele>1859.2</ele>
        <time>2021-01-16T12:30:47Z</time>
      </trkpt>
      <trkpt lat="45.30898" lon="6.05114">
        <ele>1859.2</ele>
        <time>2021-01-16T12:30:48Z</time>
      </trkpt>
      <trkpt lat="45.30898" lon="6.05114">
        <ele>1859.2</ele>
        <time>2021-01-16T12:30:49Z</time>
      </trkpt>
      <trkpt lat="45.30898" lon="6.05114">
        <ele>1859.2</ele>
        <time>2021-01-16T12:30:50Z</time>
      </trkpt>
      <trkpt lat="45.30898" lon="6.05114">
        <ele>1859.2</ele>
        <time>2021-01-16T12:30:51Z</time>
      </trkpt>
      <trkpt lat="45.30898" lon="6.05114">
        <ele>1859.2</ele>
        <time>2021-01-16T12:30:52Z</time>
      </trkpt>
      <trkpt lat="45.30898" lon="6.05114">
        <ele>1859.2</ele>
        <time>2021-01-16T12:30:53Z</time>
      </trkpt>
      <trkpt lat="45.30898" lon="6.05114">
        <ele>1859.2</ele>
        <time>2021-01-16T12:30:54Z</time>
      </trkpt>
      <trkpt lat="45.30898" lon="6.05114">
        <ele>1859.2</ele>
        <time>2021-01-16T12:30:55Z</time>
      </trkpt>
      <trkpt lat="45.30898" lon="6.05114">
        <ele>1859.2</ele>
        <time>2021-01-16T12:30:56Z</time>
      </trkpt>
      <trkpt lat="45.30898" lon="6.05114">
        <ele>1859.2</ele>
        <time>2021-01-16T12:30:57Z</time>
      </trkpt>
      <trkpt lat="45.30898" lon="6.05114">
        <ele>1859.2</ele>
        <time>2021-01-16T12:30:58Z</time>
      </trkpt>
      <trkpt lat="45.30898" lon="6.05114">
        <ele>1859.2</ele>
        <time>2021-01-16T12:30:59Z</time>
      </trkpt>
      <trkpt lat="45.30898" lon="6.05114">
        <ele>1859.2</ele>
        <time>2021-01-16T12:31:00Z</time>
      </trkpt>
      <trkpt lat="45.30898" lon="6.05114">
        <ele>1859.2</ele>
        <time>2021-01-16T12:31:01Z</time>
      </trkpt>
      <trkpt lat="45.30898" lon="6.05114">
        <ele>1859.2</ele>
        <time>2021-01-16T12:31:02Z</time>
      </trkpt>
      <trkpt lat="45.30898" lon="6.05114">
        <ele>1859</ele>
        <time>2021-01-16T12:31:03Z</time>
      </trkpt>
      <trkpt lat="45.30898" lon="6.05114">
        <ele>1859</ele>
        <time>2021-01-16T12:31:04Z</time>
      </trkpt>
      <trkpt lat="45.30898" lon="6.05114">
        <ele>1859.2</ele>
        <time>2021-01-16T12:31:05Z</time>
      </trkpt>
      <trkpt lat="45.30898" lon="6.05114">
        <ele>1859.2</ele>
        <time>2021-01-16T12:31:06Z</time>
      </trkpt>
      <trkpt lat="45.30898" lon="6.05114">
        <ele>1859.2</ele>
        <time>2021-01-16T12:31:07Z</time>
      </trkpt>
      <trkpt lat="45.30898" lon="6.05114">
        <ele>1859.2</ele>
        <time>2021-01-16T12:31:08Z</time>
      </trkpt>
      <trkpt lat="45.30898" lon="6.05114">
        <ele>1859.2</ele>
        <time>2021-01-16T12:31:09Z</time>
      </trkpt>
      <trkpt lat="45.30898" lon="6.05114">
        <ele>1859.2</ele>
        <time>2021-01-16T12:31:10Z</time>
      </trkpt>
      <trkpt lat="45.30898" lon="6.05114">
        <ele>1859</ele>
        <time>2021-01-16T12:31:11Z</time>
      </trkpt>
      <trkpt lat="45.30898" lon="6.05114">
        <ele>1859</ele>
        <time>2021-01-16T12:31:12Z</time>
      </trkpt>
      <trkpt lat="45.30898" lon="6.05114">
        <ele>1859</ele>
        <time>2021-01-16T12:31:13Z</time>
      </trkpt>
      <trkpt lat="45.30898" lon="6.05114">
        <ele>1859</ele>
        <time>2021-01-16T12:31:14Z</time>
      </trkpt>
      <trkpt lat="45.30898" lon="6.05114">
        <ele>1859</ele>
        <time>2021-01-16T12:31:15Z</time>
      </trkpt>
      <trkpt lat="45.30898" lon="6.05114">
        <ele>1859</ele>
        <time>2021-01-16T12:31:16Z</time>
      </trkpt>
      <trkpt lat="45.30898" lon="6.05114">
        <ele>1859</ele>
        <time>2021-01-16T12:31:17Z</time>
      </trkpt>
      <trkpt lat="45.30898" lon="6.05114">
        <ele>1859</ele>
        <time>2021-01-16T12:31:18Z</time>
      </trkpt>
      <trkpt lat="45.30898" lon="6.05114">
        <ele>1858.8</ele>
        <time>2021-01-16T12:31:19Z</time>
      </trkpt>
      <trkpt lat="45.30898" lon="6.05114">
        <ele>1859</ele>
        <time>2021-01-16T12:31:20Z</time>
      </trkpt>
      <trkpt lat="45.30898" lon="6.05114">
        <ele>1859</ele>
        <time>2021-01-16T12:31:21Z</time>
      </trkpt>
      <trkpt lat="45.30898" lon="6.05114">
        <ele>1859</ele>
        <time>2021-01-16T12:31:22Z</time>
      </trkpt>
      <trkpt lat="45.30898" lon="6.05114">
        <ele>1859</ele>
        <time>2021-01-16T12:31:23Z</time>
      </trkpt>
      <trkpt lat="45.30898" lon="6.05114">
        <ele>1859</ele>
        <time>2021-01-16T12:31:24Z</time>
      </trkpt>
      <trkpt lat="45.30898" lon="6.05114">
        <ele>1859</ele>
        <time>2021-01-16T12:31:25Z</time>
      </trkpt>
      <trkpt lat="45.30898" lon="6.05114">
        <ele>1859</ele>
        <time>2021-01-16T12:31:26Z</time>
      </trkpt>
      <trkpt lat="45.30898" lon="6.05114">
        <ele>1859</ele>
        <time>2021-01-16T12:31:27Z</time>
      </trkpt>
      <trkpt lat="45.30898" lon="6.05114">
        <ele>1859</ele>
        <time>2021-01-16T12:31:28Z</time>
      </trkpt>
      <trkpt lat="45.30898" lon="6.05114">
        <ele>1859</ele>
        <time>2021-01-16T12:31:29Z</time>
      </trkpt>
      <trkpt lat="45.30898" lon="6.05114">
        <ele>1859</ele>
        <time>2021-01-16T12:31:30Z</time>
      </trkpt>
      <trkpt lat="45.30898" lon="6.05114">
        <ele>1859</ele>
        <time>2021-01-16T12:31:31Z</time>
      </trkpt>
      <trkpt lat="45.30898" lon="6.05114">
        <ele>1859</ele>
        <time>2021-01-16T12:31:32Z</time>
      </trkpt>
      <trkpt lat="45.30898" lon="6.05114">
        <ele>1859</ele>
        <time>2021-01-16T12:31:33Z</time>
      </trkpt>
      <trkpt lat="45.30898" lon="6.05114">
        <ele>1859</ele>
        <time>2021-01-16T12:31:34Z</time>
      </trkpt>
      <trkpt lat="45.30898" lon="6.05114">
        <ele>1858.8</ele>
        <time>2021-01-16T12:31:35Z</time>
      </trkpt>
      <trkpt lat="45.30898" lon="6.05114">
        <ele>1858.8</ele>
        <time>2021-01-16T12:31:36Z</time>
      </trkpt>
      <trkpt lat="45.30898" lon="6.05114">
        <ele>1858.8</ele>
        <time>2021-01-16T12:31:37Z</time>
      </trkpt>
      <trkpt lat="45.30898" lon="6.05114">
        <ele>1858.8</ele>
        <time>2021-01-16T12:31:38Z</time>
      </trkpt>
      <trkpt lat="45.30898" lon="6.05114">
        <ele>1858.8</ele>
        <time>2021-01-16T12:31:39Z</time>
      </trkpt>
      <trkpt lat="45.30898" lon="6.05114">
        <ele>1858.8</ele>
        <time>2021-01-16T12:31:40Z</time>
      </trkpt>
      <trkpt lat="45.30898" lon="6.05114">
        <ele>1858.8</ele>
        <time>2021-01-16T12:31:41Z</time>
      </trkpt>
      <trkpt lat="45.30898" lon="6.05114">
        <ele>1858.8</ele>
        <time>2021-01-16T12:31:42Z</time>
      </trkpt>
      <trkpt lat="45.30898" lon="6.05114">
        <ele>1858.8</ele>
        <time>2021-01-16T12:31:43Z</time>
      </trkpt>
      <trkpt lat="45.30898" lon="6.05114">
        <ele>1858.8</ele>
        <time>2021-01-16T12:31:44Z</time>
      </trkpt>
      <trkpt lat="45.309" lon="6.05116">
        <ele>1858.8</ele>
        <time>2021-01-16T12:31:45Z</time>
      </trkpt>
      <trkpt lat="45.309" lon="6.05117">
        <ele>1858.8</ele>
        <time>2021-01-16T12:31:46Z</time>
      </trkpt>
      <trkpt lat="45.30901" lon="6.05118">
        <ele>1858.6</ele>
        <time>2021-01-16T12:31:47Z</time>
      </trkpt>
      <trkpt lat="45.30902" lon="6.05119">
        <ele>1858.6</ele>
        <time>2021-01-16T12:31:48Z</time>
      </trkpt>
      <trkpt lat="45.30902" lon="6.0512">
        <ele>1858.6</ele>
        <time>2021-01-16T12:31:49Z</time>
      </trkpt>
      <trkpt lat="45.30903" lon="6.0512">
        <ele>1858.6</ele>
        <time>2021-01-16T12:31:50Z</time>
      </trkpt>
      <trkpt lat="45.30903" lon="6.05121">
        <ele>1858.6</ele>
        <time>2021-01-16T12:31:51Z</time>
      </trkpt>
      <trkpt lat="45.30904" lon="6.05121">
        <ele>1858.6</ele>
        <time>2021-01-16T12:31:52Z</time>
      </trkpt>
      <trkpt lat="45.30905" lon="6.05122">
        <ele>1858.6</ele>
        <time>2021-01-16T12:31:53Z</time>
      </trkpt>
      <trkpt lat="45.30906" lon="6.05122">
        <ele>1858.4</ele>
        <time>2021-01-16T12:31:54Z</time>
      </trkpt>
      <trkpt lat="45.30907" lon="6.05123">
        <ele>1858.4</ele>
        <time>2021-01-16T12:31:55Z</time>
      </trkpt>
      <trkpt lat="45.30908" lon="6.05123">
        <ele>1858.4</ele>
        <time>2021-01-16T12:31:56Z</time>
      </trkpt>
      <trkpt lat="45.30908" lon="6.05124">
        <ele>1858.4</ele>
        <time>2021-01-16T12:31:57Z</time>
      </trkpt>
      <trkpt lat="45.3091" lon="6.05124">
        <ele>1858.4</ele>
        <time>2021-01-16T12:31:58Z</time>
      </trkpt>
      <trkpt lat="45.3091" lon="6.05125">
        <ele>1858.4</ele>
        <time>2021-01-16T12:31:59Z</time>
      </trkpt>
      <trkpt lat="45.30911" lon="6.05125">
        <ele>1858.4</ele>
        <time>2021-01-16T12:32:00Z</time>
      </trkpt>
      <trkpt lat="45.30912" lon="6.05126">
        <ele>1858.2</ele>
        <time>2021-01-16T12:32:01Z</time>
      </trkpt>
      <trkpt lat="45.30913" lon="6.05126">
        <ele>1858.2</ele>
        <time>2021-01-16T12:32:02Z</time>
      </trkpt>
      <trkpt lat="45.30914" lon="6.05127">
        <ele>1858</ele>
        <time>2021-01-16T12:32:03Z</time>
      </trkpt>
      <trkpt lat="45.30915" lon="6.05128">
        <ele>1858</ele>
        <time>2021-01-16T12:32:04Z</time>
      </trkpt>
      <trkpt lat="45.30917" lon="6.05128">
        <ele>1857.8</ele>
        <time>2021-01-16T12:32:05Z</time>
      </trkpt>
      <trkpt lat="45.30918" lon="6.05129">
        <ele>1857.8</ele>
        <time>2021-01-16T12:32:06Z</time>
      </trkpt>
      <trkpt lat="45.30918" lon="6.05129">
        <ele>1857.6</ele>
        <time>2021-01-16T12:32:07Z</time>
      </trkpt>
      <trkpt lat="45.30919" lon="6.05129">
        <ele>1857.6</ele>
        <time>2021-01-16T12:32:08Z</time>
      </trkpt>
      <trkpt lat="45.3092" lon="6.0513">
        <ele>1857.6</ele>
        <time>2021-01-16T12:32:09Z</time>
      </trkpt>
      <trkpt lat="45.30921" lon="6.0513">
        <ele>1857.4</ele>
        <time>2021-01-16T12:32:10Z</time>
      </trkpt>
      <trkpt lat="45.30923" lon="6.0513">
        <ele>1857.2</ele>
        <time>2021-01-16T12:32:11Z</time>
      </trkpt>
      <trkpt lat="45.30924" lon="6.0513">
        <ele>1857.2</ele>
        <time>2021-01-16T12:32:12Z</time>
      </trkpt>
      <trkpt lat="45.30924" lon="6.05131">
        <ele>1857.2</ele>
        <time>2021-01-16T12:32:13Z</time>
      </trkpt>
      <trkpt lat="45.30925" lon="6.05131">
        <ele>1857.2</ele>
        <time>2021-01-16T12:32:14Z</time>
      </trkpt>
      <trkpt lat="45.30926" lon="6.05131">
        <ele>1857</ele>
        <time>2021-01-16T12:32:15Z</time>
      </trkpt>
      <trkpt lat="45.30928" lon="6.05131">
        <ele>1857</ele>
        <time>2021-01-16T12:32:16Z</time>
      </trkpt>
      <trkpt lat="45.30929" lon="6.05131">
        <ele>1857</ele>
        <time>2021-01-16T12:32:17Z</time>
      </trkpt>
      <trkpt lat="45.3093" lon="6.05132">
        <ele>1856.8</ele>
        <time>2021-01-16T12:32:18Z</time>
      </trkpt>
      <trkpt lat="45.30931" lon="6.05132">
        <ele>1857</ele>
        <time>2021-01-16T12:32:19Z</time>
      </trkpt>
      <trkpt lat="45.30931" lon="6.05132">
        <ele>1857</ele>
        <time>2021-01-16T12:32:20Z</time>
      </trkpt>
      <trkpt lat="45.30932" lon="6.05133">
        <ele>1857.2</ele>
        <time>2021-01-16T12:32:21Z</time>
      </trkpt>
      <trkpt lat="45.30933" lon="6.05133">
        <ele>1857.2</ele>
        <time>2021-01-16T12:32:22Z</time>
      </trkpt>
      <trkpt lat="45.30934" lon="6.05133">
        <ele>1857.2</ele>
        <time>2021-01-16T12:32:23Z</time>
      </trkpt>
      <trkpt lat="45.30935" lon="6.05134">
        <ele>1857.2</ele>
        <time>2021-01-16T12:32:24Z</time>
      </trkpt>
      <trkpt lat="45.30935" lon="6.05134">
        <ele>1857.4</ele>
        <time>2021-01-16T12:32:25Z</time>
      </trkpt>
      <trkpt lat="45.30936" lon="6.05135">
        <ele>1857.4</ele>
        <time>2021-01-16T12:32:26Z</time>
      </trkpt>
      <trkpt lat="45.30937" lon="6.05135">
        <ele>1857.4</ele>
        <time>2021-01-16T12:32:27Z</time>
      </trkpt>
      <trkpt lat="45.30937" lon="6.05135">
        <ele>1857.4</ele>
        <time>2021-01-16T12:32:28Z</time>
      </trkpt>
      <trkpt lat="45.30938" lon="6.05136">
        <ele>1857.4</ele>
        <time>2021-01-16T12:32:29Z</time>
      </trkpt>
      <trkpt lat="45.30939" lon="6.05136">
        <ele>1857.6</ele>
        <time>2021-01-16T12:32:30Z</time>
      </trkpt>
      <trkpt lat="45.3094" lon="6.05136">
        <ele>1857.6</ele>
        <time>2021-01-16T12:32:31Z</time>
      </trkpt>
      <trkpt lat="45.3094" lon="6.05136">
        <ele>1857.6</ele>
        <time>2021-01-16T12:32:32Z</time>
      </trkpt>
      <trkpt lat="45.30941" lon="6.05136">
        <ele>1857.6</ele>
        <time>2021-01-16T12:32:33Z</time>
      </trkpt>
      <trkpt lat="45.30942" lon="6.05137">
        <ele>1857.8</ele>
        <time>2021-01-16T12:32:34Z</time>
      </trkpt>
      <trkpt lat="45.30943" lon="6.05137">
        <ele>1857.8</ele>
        <time>2021-01-16T12:32:35Z</time>
      </trkpt>
      <trkpt lat="45.30943" lon="6.05137">
        <ele>1857.8</ele>
        <time>2021-01-16T12:32:36Z</time>
      </trkpt>
      <trkpt lat="45.30944" lon="6.05137">
        <ele>1858</ele>
        <time>2021-01-16T12:32:37Z</time>
      </trkpt>
      <trkpt lat="45.30944" lon="6.05138">
        <ele>1858</ele>
        <time>2021-01-16T12:32:38Z</time>
      </trkpt>
      <trkpt lat="45.30945" lon="6.05138">
        <ele>1858</ele>
        <time>2021-01-16T12:32:39Z</time>
      </trkpt>
      <trkpt lat="45.30945" lon="6.05138">
        <ele>1858</ele>
        <time>2021-01-16T12:32:40Z</time>
      </trkpt>
      <trkpt lat="45.30946" lon="6.05138">
        <ele>1857.8</ele>
        <time>2021-01-16T12:32:41Z</time>
      </trkpt>
      <trkpt lat="45.30946" lon="6.05138">
        <ele>1858</ele>
        <time>2021-01-16T12:32:42Z</time>
      </trkpt>
      <trkpt lat="45.30946" lon="6.05138">
        <ele>1858</ele>
        <time>2021-01-16T12:32:43Z</time>
      </trkpt>
      <trkpt lat="45.30946" lon="6.05138">
        <ele>1858</ele>
        <time>2021-01-16T12:32:44Z</time>
      </trkpt>
      <trkpt lat="45.30946" lon="6.05138">
        <ele>1858</ele>
        <time>2021-01-16T12:32:45Z</time>
      </trkpt>
      <trkpt lat="45.30946" lon="6.05138">
        <ele>1858</ele>
        <time>2021-01-16T12:32:46Z</time>
      </trkpt>
      <trkpt lat="45.30946" lon="6.05138">
        <ele>1858</ele>
        <time>2021-01-16T12:32:47Z</time>
      </trkpt>
      <trkpt lat="45.30946" lon="6.05138">
        <ele>1858</ele>
        <time>2021-01-16T12:32:48Z</time>
      </trkpt>
      <trkpt lat="45.30946" lon="6.05138">
        <ele>1858</ele>
        <time>2021-01-16T12:32:49Z</time>
      </trkpt>
      <trkpt lat="45.30946" lon="6.05138">
        <ele>1858</ele>
        <time>2021-01-16T12:32:50Z</time>
      </trkpt>
      <trkpt lat="45.30946" lon="6.05138">
        <ele>1858</ele>
        <time>2021-01-16T12:32:51Z</time>
      </trkpt>
      <trkpt lat="45.30946" lon="6.05138">
        <ele>1858</ele>
        <time>2021-01-16T12:32:52Z</time>
      </trkpt>
      <trkpt lat="45.30946" lon="6.05138">
        <ele>1858</ele>
        <time>2021-01-16T12:32:53Z</time>
      </trkpt>
      <trkpt lat="45.30946" lon="6.05138">
        <ele>1858</ele>
        <time>2021-01-16T12:32:54Z</time>
      </trkpt>
      <trkpt lat="45.30946" lon="6.05138">
        <ele>1858</ele>
        <time>2021-01-16T12:32:55Z</time>
      </trkpt>
      <trkpt lat="45.30946" lon="6.05138">
        <ele>1858</ele>
        <time>2021-01-16T12:32:56Z</time>
      </trkpt>
      <trkpt lat="45.30946" lon="6.05138">
        <ele>1858</ele>
        <time>2021-01-16T12:32:57Z</time>
      </trkpt>
      <trkpt lat="45.30946" lon="6.05138">
        <ele>1858</ele>
        <time>2021-01-16T12:32:58Z</time>
      </trkpt>
      <trkpt lat="45.30946" lon="6.05138">
        <ele>1858</ele>
        <time>2021-01-16T12:32:59Z</time>
      </trkpt>
      <trkpt lat="45.30946" lon="6.05138">
        <ele>1858</ele>
        <time>2021-01-16T12:33:00Z</time>
      </trkpt>
      <trkpt lat="45.30946" lon="6.05138">
        <ele>1858</ele>
        <time>2021-01-16T12:33:01Z</time>
      </trkpt>
      <trkpt lat="45.30946" lon="6.05138">
        <ele>1858</ele>
        <time>2021-01-16T12:33:02Z</time>
      </trkpt>
      <trkpt lat="45.30946" lon="6.05138">
        <ele>1858</ele>
        <time>2021-01-16T12:33:03Z</time>
      </trkpt>
      <trkpt lat="45.30946" lon="6.05138">
        <ele>1858</ele>
        <time>2021-01-16T12:33:04Z</time>
      </trkpt>
      <trkpt lat="45.30946" lon="6.05138">
        <ele>1858</ele>
        <time>2021-01-16T12:33:05Z</time>
      </trkpt>
      <trkpt lat="45.30946" lon="6.05138">
        <ele>1858</ele>
        <time>2021-01-16T12:33:06Z</time>
      </trkpt>
      <trkpt lat="45.30946" lon="6.05138">
        <ele>1858</ele>
        <time>2021-01-16T12:33:07Z</time>
      </trkpt>
      <trkpt lat="45.30946" lon="6.05138">
        <ele>1858</ele>
        <time>2021-01-16T12:33:08Z</time>
      </trkpt>
      <trkpt lat="45.30946" lon="6.05138">
        <ele>1858</ele>
        <time>2021-01-16T12:33:09Z</time>
      </trkpt>
      <trkpt lat="45.30946" lon="6.05138">
        <ele>1858</ele>
        <time>2021-01-16T12:33:10Z</time>
      </trkpt>
      <trkpt lat="45.30946" lon="6.05138">
        <ele>1858</ele>
        <time>2021-01-16T12:33:11Z</time>
      </trkpt>
      <trkpt lat="45.30946" lon="6.05138">
        <ele>1858</ele>
        <time>2021-01-16T12:33:12Z</time>
      </trkpt>
      <trkpt lat="45.30946" lon="6.05138">
        <ele>1858</ele>
        <time>2021-01-16T12:33:13Z</time>
      </trkpt>
      <trkpt lat="45.30946" lon="6.05138">
        <ele>1858</ele>
        <time>2021-01-16T12:33:14Z</time>
      </trkpt>
      <trkpt lat="45.30946" lon="6.05138">
        <ele>1858</ele>
        <time>2021-01-16T12:33:15Z</time>
      </trkpt>
      <trkpt lat="45.30946" lon="6.05138">
        <ele>1858</ele>
        <time>2021-01-16T12:33:16Z</time>
      </trkpt>
      <trkpt lat="45.30946" lon="6.05138">
        <ele>1858</ele>
        <time>2021-01-16T12:33:17Z</time>
      </trkpt>
      <trkpt lat="45.30946" lon="6.05138">
        <ele>1858</ele>
        <time>2021-01-16T12:33:18Z</time>
      </trkpt>
      <trkpt lat="45.30946" lon="6.05138">
        <ele>1858</ele>
        <time>2021-01-16T12:33:19Z</time>
      </trkpt>
      <trkpt lat="45.30946" lon="6.05138">
        <ele>1858</ele>
        <time>2021-01-16T12:33:20Z</time>
      </trkpt>
      <trkpt lat="45.30946" lon="6.05138">
        <ele>1858</ele>
        <time>2021-01-16T12:33:21Z</time>
      </trkpt>
      <trkpt lat="45.30946" lon="6.05138">
        <ele>1858</ele>
        <time>2021-01-16T12:33:22Z</time>
      </trkpt>
      <trkpt lat="45.30946" lon="6.05138">
        <ele>1858</ele>
        <time>2021-01-16T12:33:23Z</time>
      </trkpt>
      <trkpt lat="45.30946" lon="6.05138">
        <ele>1858</ele>
        <time>2021-01-16T12:33:24Z</time>
      </trkpt>
      <trkpt lat="45.30946" lon="6.05138">
        <ele>1857.8</ele>
        <time>2021-01-16T12:33:25Z</time>
      </trkpt>
      <trkpt lat="45.30946" lon="6.05138">
        <ele>1857.8</ele>
        <time>2021-01-16T12:33:26Z</time>
      </trkpt>
      <trkpt lat="45.30946" lon="6.05138">
        <ele>1857.8</ele>
        <time>2021-01-16T12:33:27Z</time>
      </trkpt>
      <trkpt lat="45.30946" lon="6.05138">
        <ele>1857.8</ele>
        <time>2021-01-16T12:33:28Z</time>
      </trkpt>
      <trkpt lat="45.30946" lon="6.05138">
        <ele>1857.8</ele>
        <time>2021-01-16T12:33:29Z</time>
      </trkpt>
      <trkpt lat="45.30946" lon="6.05138">
        <ele>1857.8</ele>
        <time>2021-01-16T12:33:30Z</time>
      </trkpt>
      <trkpt lat="45.30946" lon="6.05138">
        <ele>1857.8</ele>
        <time>2021-01-16T12:33:31Z</time>
      </trkpt>
      <trkpt lat="45.30946" lon="6.05138">
        <ele>1857.8</ele>
        <time>2021-01-16T12:33:32Z</time>
      </trkpt>
      <trkpt lat="45.30946" lon="6.05138">
        <ele>1857.8</ele>
        <time>2021-01-16T12:33:33Z</time>
      </trkpt>
      <trkpt lat="45.30946" lon="6.05138">
        <ele>1857.8</ele>
        <time>2021-01-16T12:33:34Z</time>
      </trkpt>
      <trkpt lat="45.30946" lon="6.05138">
        <ele>1857.8</ele>
        <time>2021-01-16T12:33:35Z</time>
      </trkpt>
      <trkpt lat="45.30946" lon="6.05138">
        <ele>1857.8</ele>
        <time>2021-01-16T12:33:36Z</time>
      </trkpt>
      <trkpt lat="45.30946" lon="6.05138">
        <ele>1857.8</ele>
        <time>2021-01-16T12:33:37Z</time>
      </trkpt>
      <trkpt lat="45.30946" lon="6.05138">
        <ele>1857.8</ele>
        <time>2021-01-16T12:33:38Z</time>
      </trkpt>
      <trkpt lat="45.30946" lon="6.05138">
        <ele>1857.8</ele>
        <time>2021-01-16T12:33:39Z</time>
      </trkpt>
      <trkpt lat="45.30946" lon="6.05138">
        <ele>1857.8</ele>
        <time>2021-01-16T12:33:40Z</time>
      </trkpt>
      <trkpt lat="45.30946" lon="6.05138">
        <ele>1857.8</ele>
        <time>2021-01-16T12:33:41Z</time>
      </trkpt>
      <trkpt lat="45.30946" lon="6.05138">
        <ele>1857.8</ele>
        <time>2021-01-16T12:33:42Z</time>
      </trkpt>
      <trkpt lat="45.30946" lon="6.05138">
        <ele>1857.8</ele>
        <time>2021-01-16T12:33:43Z</time>
      </trkpt>
      <trkpt lat="45.30946" lon="6.05138">
        <ele>1857.8</ele>
        <time>2021-01-16T12:33:44Z</time>
      </trkpt>
      <trkpt lat="45.30946" lon="6.05138">
        <ele>1857.8</ele>
        <time>2021-01-16T12:33:45Z</time>
      </trkpt>
      <trkpt lat="45.30946" lon="6.05138">
        <ele>1857.8</ele>
        <time>2021-01-16T12:33:46Z</time>
      </trkpt>
      <trkpt lat="45.30946" lon="6.05138">
        <ele>1857.8</ele>
        <time>2021-01-16T12:33:47Z</time>
      </trkpt>
      <trkpt lat="45.30946" lon="6.05138">
        <ele>1857.8</ele>
        <time>2021-01-16T12:33:48Z</time>
      </trkpt>
      <trkpt lat="45.30946" lon="6.05138">
        <ele>1857.8</ele>
        <time>2021-01-16T12:33:49Z</time>
      </trkpt>
      <trkpt lat="45.30946" lon="6.05138">
        <ele>1857.6</ele>
        <time>2021-01-16T12:33:50Z</time>
      </trkpt>
      <trkpt lat="45.30946" lon="6.05138">
        <ele>1857.6</ele>
        <time>2021-01-16T12:33:51Z</time>
      </trkpt>
      <trkpt lat="45.30946" lon="6.05138">
        <ele>1857.6</ele>
        <time>2021-01-16T12:33:52Z</time>
      </trkpt>
      <trkpt lat="45.30946" lon="6.05138">
        <ele>1857.6</ele>
        <time>2021-01-16T12:33:53Z</time>
      </trkpt>
      <trkpt lat="45.30946" lon="6.05138">
        <ele>1857.6</ele>
        <time>2021-01-16T12:33:54Z</time>
      </trkpt>
      <trkpt lat="45.30946" lon="6.05138">
        <ele>1857.6</ele>
        <time>2021-01-16T12:33:55Z</time>
      </trkpt>
      <trkpt lat="45.30946" lon="6.05138">
        <ele>1857.6</ele>
        <time>2021-01-16T12:33:56Z</time>
      </trkpt>
      <trkpt lat="45.30946" lon="6.05138">
        <ele>1857.6</ele>
        <time>2021-01-16T12:33:57Z</time>
      </trkpt>
      <trkpt lat="45.30946" lon="6.05138">
        <ele>1857.6</ele>
        <time>2021-01-16T12:33:58Z</time>
      </trkpt>
      <trkpt lat="45.30946" lon="6.05138">
        <ele>1857.6</ele>
        <time>2021-01-16T12:33:59Z</time>
      </trkpt>
      <trkpt lat="45.30946" lon="6.05138">
        <ele>1857.6</ele>
        <time>2021-01-16T12:34:00Z</time>
      </trkpt>
      <trkpt lat="45.30946" lon="6.05138">
        <ele>1857.6</ele>
        <time>2021-01-16T12:34:01Z</time>
      </trkpt>
      <trkpt lat="45.30946" lon="6.05138">
        <ele>1857.6</ele>
        <time>2021-01-16T12:34:02Z</time>
      </trkpt>
      <trkpt lat="45.30946" lon="6.05137">
        <ele>1857.6</ele>
        <time>2021-01-16T12:34:03Z</time>
      </trkpt>
      <trkpt lat="45.30947" lon="6.05138">
        <ele>1857.6</ele>
        <time>2021-01-16T12:34:04Z</time>
      </trkpt>
      <trkpt lat="45.30948" lon="6.05138">
        <ele>1857.6</ele>
        <time>2021-01-16T12:34:05Z</time>
      </trkpt>
      <trkpt lat="45.30948" lon="6.05138">
        <ele>1857.6</ele>
        <time>2021-01-16T12:34:06Z</time>
      </trkpt>
      <trkpt lat="45.30949" lon="6.05138">
        <ele>1857.4</ele>
        <time>2021-01-16T12:34:07Z</time>
      </trkpt>
      <trkpt lat="45.3095" lon="6.05138">
        <ele>1857.2</ele>
        <time>2021-01-16T12:34:08Z</time>
      </trkpt>
      <trkpt lat="45.30951" lon="6.05139">
        <ele>1857.2</ele>
        <time>2021-01-16T12:34:09Z</time>
      </trkpt>
      <trkpt lat="45.30952" lon="6.05139">
        <ele>1857</ele>
        <time>2021-01-16T12:34:10Z</time>
      </trkpt>
      <trkpt lat="45.30953" lon="6.05139">
        <ele>1857</ele>
        <time>2021-01-16T12:34:11Z</time>
      </trkpt>
      <trkpt lat="45.30954" lon="6.0514">
        <ele>1857</ele>
        <time>2021-01-16T12:34:12Z</time>
      </trkpt>
      <trkpt lat="45.30955" lon="6.0514">
        <ele>1856.8</ele>
        <time>2021-01-16T12:34:13Z</time>
      </trkpt>
      <trkpt lat="45.30956" lon="6.05141">
        <ele>1856.8</ele>
        <time>2021-01-16T12:34:14Z</time>
      </trkpt>
      <trkpt lat="45.30956" lon="6.05141">
        <ele>1856.8</ele>
        <time>2021-01-16T12:34:15Z</time>
      </trkpt>
      <trkpt lat="45.30957" lon="6.05141">
        <ele>1856.8</ele>
        <time>2021-01-16T12:34:16Z</time>
      </trkpt>
      <trkpt lat="45.30957" lon="6.05141">
        <ele>1856.8</ele>
        <time>2021-01-16T12:34:17Z</time>
      </trkpt>
      <trkpt lat="45.30958" lon="6.05142">
        <ele>1856.8</ele>
        <time>2021-01-16T12:34:18Z</time>
      </trkpt>
      <trkpt lat="45.30958" lon="6.05142">
        <ele>1856.6</ele>
        <time>2021-01-16T12:34:19Z</time>
      </trkpt>
      <trkpt lat="45.30958" lon="6.05142">
        <ele>1856.6</ele>
        <time>2021-01-16T12:34:20Z</time>
      </trkpt>
      <trkpt lat="45.30958" lon="6.05142">
        <ele>1856.6</ele>
        <time>2021-01-16T12:34:21Z</time>
      </trkpt>
      <trkpt lat="45.30959" lon="6.05143">
        <ele>1856.6</ele>
        <time>2021-01-16T12:34:22Z</time>
      </trkpt>
      <trkpt lat="45.3096" lon="6.05144">
        <ele>1856.6</ele>
        <time>2021-01-16T12:34:23Z</time>
      </trkpt>
      <trkpt lat="45.30961" lon="6.05145">
        <ele>1856.6</ele>
        <time>2021-01-16T12:34:24Z</time>
      </trkpt>
      <trkpt lat="45.30961" lon="6.05146">
        <ele>1856.8</ele>
        <time>2021-01-16T12:34:25Z</time>
      </trkpt>
      <trkpt lat="45.30963" lon="6.05146">
        <ele>1856.8</ele>
        <time>2021-01-16T12:34:26Z</time>
      </trkpt>
      <trkpt lat="45.30964" lon="6.05147">
        <ele>1856.8</ele>
        <time>2021-01-16T12:34:27Z</time>
      </trkpt>
      <trkpt lat="45.30965" lon="6.05147">
        <ele>1857</ele>
        <time>2021-01-16T12:34:28Z</time>
      </trkpt>
      <trkpt lat="45.30966" lon="6.05147">
        <ele>1857.2</ele>
        <time>2021-01-16T12:34:29Z</time>
      </trkpt>
      <trkpt lat="45.30966" lon="6.05147">
        <ele>1857.4</ele>
        <time>2021-01-16T12:34:30Z</time>
      </trkpt>
      <trkpt lat="45.30968" lon="6.05147">
        <ele>1857.6</ele>
        <time>2021-01-16T12:34:31Z</time>
      </trkpt>
      <trkpt lat="45.30969" lon="6.05148">
        <ele>1857.8</ele>
        <time>2021-01-16T12:34:32Z</time>
      </trkpt>
      <trkpt lat="45.30969" lon="6.05148">
        <ele>1857.8</ele>
        <time>2021-01-16T12:34:33Z</time>
      </trkpt>
      <trkpt lat="45.3097" lon="6.05148">
        <ele>1858</ele>
        <time>2021-01-16T12:34:34Z</time>
      </trkpt>
      <trkpt lat="45.30971" lon="6.05148">
        <ele>1858</ele>
        <time>2021-01-16T12:34:35Z</time>
      </trkpt>
      <trkpt lat="45.30972" lon="6.05147">
        <ele>1858.2</ele>
        <time>2021-01-16T12:34:36Z</time>
      </trkpt>
      <trkpt lat="45.30973" lon="6.05147">
        <ele>1858.2</ele>
        <time>2021-01-16T12:34:37Z</time>
      </trkpt>
      <trkpt lat="45.30974" lon="6.05147">
        <ele>1858.4</ele>
        <time>2021-01-16T12:34:38Z</time>
      </trkpt>
      <trkpt lat="45.30975" lon="6.05147">
        <ele>1858.4</ele>
        <time>2021-01-16T12:34:39Z</time>
      </trkpt>
      <trkpt lat="45.30976" lon="6.05147">
        <ele>1858.4</ele>
        <time>2021-01-16T12:34:40Z</time>
      </trkpt>
      <trkpt lat="45.30976" lon="6.05147">
        <ele>1858.6</ele>
        <time>2021-01-16T12:34:41Z</time>
      </trkpt>
      <trkpt lat="45.30977" lon="6.05147">
        <ele>1858.6</ele>
        <time>2021-01-16T12:34:42Z</time>
      </trkpt>
      <trkpt lat="45.30978" lon="6.05147">
        <ele>1858.8</ele>
        <time>2021-01-16T12:34:43Z</time>
      </trkpt>
      <trkpt lat="45.30978" lon="6.05146">
        <ele>1859</ele>
        <time>2021-01-16T12:34:44Z</time>
      </trkpt>
      <trkpt lat="45.30978" lon="6.05146">
        <ele>1859</ele>
        <time>2021-01-16T12:34:45Z</time>
      </trkpt>
      <trkpt lat="45.30978" lon="6.05146">
        <ele>1859</ele>
        <time>2021-01-16T12:34:46Z</time>
      </trkpt>
      <trkpt lat="45.30978" lon="6.05146">
        <ele>1859</ele>
        <time>2021-01-16T12:34:47Z</time>
      </trkpt>
      <trkpt lat="45.30978" lon="6.05146">
        <ele>1859.2</ele>
        <time>2021-01-16T12:34:48Z</time>
      </trkpt>
      <trkpt lat="45.30978" lon="6.05146">
        <ele>1859.2</ele>
        <time>2021-01-16T12:34:49Z</time>
      </trkpt>
      <trkpt lat="45.30978" lon="6.05146">
        <ele>1859.2</ele>
        <time>2021-01-16T12:34:50Z</time>
      </trkpt>
      <trkpt lat="45.30978" lon="6.05146">
        <ele>1859.2</ele>
        <time>2021-01-16T12:34:51Z</time>
      </trkpt>
      <trkpt lat="45.30978" lon="6.05146">
        <ele>1859.2</ele>
        <time>2021-01-16T12:34:52Z</time>
      </trkpt>
      <trkpt lat="45.30978" lon="6.05146">
        <ele>1859.2</ele>
        <time>2021-01-16T12:34:53Z</time>
      </trkpt>
      <trkpt lat="45.30978" lon="6.05146">
        <ele>1859.2</ele>
        <time>2021-01-16T12:34:54Z</time>
      </trkpt>
      <trkpt lat="45.30978" lon="6.05146">
        <ele>1859.2</ele>
        <time>2021-01-16T12:34:55Z</time>
      </trkpt>
      <trkpt lat="45.30978" lon="6.05146">
        <ele>1859</ele>
        <time>2021-01-16T12:34:56Z</time>
      </trkpt>
      <trkpt lat="45.30978" lon="6.05146">
        <ele>1859</ele>
        <time>2021-01-16T12:34:57Z</time>
      </trkpt>
      <trkpt lat="45.30978" lon="6.05146">
        <ele>1859.2</ele>
        <time>2021-01-16T12:34:58Z</time>
      </trkpt>
      <trkpt lat="45.30978" lon="6.05146">
        <ele>1859.2</ele>
        <time>2021-01-16T12:34:59Z</time>
      </trkpt>
      <trkpt lat="45.30978" lon="6.05146">
        <ele>1859.2</ele>
        <time>2021-01-16T12:35:00Z</time>
      </trkpt>
      <trkpt lat="45.30978" lon="6.05146">
        <ele>1859.2</ele>
        <time>2021-01-16T12:35:01Z</time>
      </trkpt>
      <trkpt lat="45.30978" lon="6.05146">
        <ele>1859.2</ele>
        <time>2021-01-16T12:35:02Z</time>
      </trkpt>
      <trkpt lat="45.30978" lon="6.05146">
        <ele>1859.2</ele>
        <time>2021-01-16T12:35:03Z</time>
      </trkpt>
      <trkpt lat="45.30978" lon="6.05146">
        <ele>1859.2</ele>
        <time>2021-01-16T12:35:04Z</time>
      </trkpt>
      <trkpt lat="45.30978" lon="6.05146">
        <ele>1859.2</ele>
        <time>2021-01-16T12:35:05Z</time>
      </trkpt>
      <trkpt lat="45.30978" lon="6.05146">
        <ele>1859.2</ele>
        <time>2021-01-16T12:35:06Z</time>
      </trkpt>
      <trkpt lat="45.30978" lon="6.05146">
        <ele>1859.2</ele>
        <time>2021-01-16T12:35:07Z</time>
      </trkpt>
      <trkpt lat="45.30978" lon="6.05146">
        <ele>1859.2</ele>
        <time>2021-01-16T12:35:08Z</time>
      </trkpt>
      <trkpt lat="45.30979" lon="6.05145">
        <ele>1859</ele>
        <time>2021-01-16T12:35:09Z</time>
      </trkpt>
      <trkpt lat="45.3098" lon="6.05145">
        <ele>1859</ele>
        <time>2021-01-16T12:35:10Z</time>
      </trkpt>
      <trkpt lat="45.30981" lon="6.05145">
        <ele>1859</ele>
        <time>2021-01-16T12:35:11Z</time>
      </trkpt>
      <trkpt lat="45.30981" lon="6.05144">
        <ele>1859</ele>
        <time>2021-01-16T12:35:12Z</time>
      </trkpt>
      <trkpt lat="45.30982" lon="6.05144">
        <ele>1859</ele>
        <time>2021-01-16T12:35:13Z</time>
      </trkpt>
      <trkpt lat="45.30982" lon="6.05144">
        <ele>1859</ele>
        <time>2021-01-16T12:35:14Z</time>
      </trkpt>
      <trkpt lat="45.30983" lon="6.05143">
        <ele>1859</ele>
        <time>2021-01-16T12:35:15Z</time>
      </trkpt>
      <trkpt lat="45.30984" lon="6.05143">
        <ele>1858.8</ele>
        <time>2021-01-16T12:35:16Z</time>
      </trkpt>
      <trkpt lat="45.30985" lon="6.05142">
        <ele>1858.8</ele>
        <time>2021-01-16T12:35:17Z</time>
      </trkpt>
      <trkpt lat="45.30986" lon="6.05142">
        <ele>1858.6</ele>
        <time>2021-01-16T12:35:18Z</time>
      </trkpt>
      <trkpt lat="45.30987" lon="6.05142">
        <ele>1858.6</ele>
        <time>2021-01-16T12:35:19Z</time>
      </trkpt>
      <trkpt lat="45.30988" lon="6.05141">
        <ele>1858.6</ele>
        <time>2021-01-16T12:35:20Z</time>
      </trkpt>
      <trkpt lat="45.30989" lon="6.05141">
        <ele>1858.6</ele>
        <time>2021-01-16T12:35:21Z</time>
      </trkpt>
      <trkpt lat="45.3099" lon="6.05141">
        <ele>1858.6</ele>
        <time>2021-01-16T12:35:22Z</time>
      </trkpt>
      <trkpt lat="45.30991" lon="6.05141">
        <ele>1858.6</ele>
        <time>2021-01-16T12:35:23Z</time>
      </trkpt>
      <trkpt lat="45.30992" lon="6.05141">
        <ele>1858.6</ele>
        <time>2021-01-16T12:35:24Z</time>
      </trkpt>
      <trkpt lat="45.30993" lon="6.05142">
        <ele>1858.4</ele>
        <time>2021-01-16T12:35:25Z</time>
      </trkpt>
      <trkpt lat="45.30994" lon="6.05142">
        <ele>1858.4</ele>
        <time>2021-01-16T12:35:26Z</time>
      </trkpt>
      <trkpt lat="45.30995" lon="6.05142">
        <ele>1858.4</ele>
        <time>2021-01-16T12:35:27Z</time>
      </trkpt>
      <trkpt lat="45.30996" lon="6.05142">
        <ele>1858.4</ele>
        <time>2021-01-16T12:35:28Z</time>
      </trkpt>
      <trkpt lat="45.30997" lon="6.05143">
        <ele>1858.6</ele>
        <time>2021-01-16T12:35:29Z</time>
      </trkpt>
      <trkpt lat="45.30998" lon="6.05143">
        <ele>1858.4</ele>
        <time>2021-01-16T12:35:30Z</time>
      </trkpt>
      <trkpt lat="45.30998" lon="6.05143">
        <ele>1858.6</ele>
        <time>2021-01-16T12:35:31Z</time>
      </trkpt>
      <trkpt lat="45.31" lon="6.05143">
        <ele>1858.6</ele>
        <time>2021-01-16T12:35:32Z</time>
      </trkpt>
      <trkpt lat="45.31001" lon="6.05143">
        <ele>1858.6</ele>
        <time>2021-01-16T12:35:33Z</time>
      </trkpt>
      <trkpt lat="45.31002" lon="6.05144">
        <ele>1858.6</ele>
        <time>2021-01-16T12:35:34Z</time>
      </trkpt>
      <trkpt lat="45.31003" lon="6.05144">
        <ele>1858.6</ele>
        <time>2021-01-16T12:35:35Z</time>
      </trkpt>
      <trkpt lat="45.31004" lon="6.05144">
        <ele>1858.6</ele>
        <time>2021-01-16T12:35:36Z</time>
      </trkpt>
      <trkpt lat="45.31005" lon="6.05145">
        <ele>1858.6</ele>
        <time>2021-01-16T12:35:37Z</time>
      </trkpt>
      <trkpt lat="45.31006" lon="6.05145">
        <ele>1858.6</ele>
        <time>2021-01-16T12:35:38Z</time>
      </trkpt>
      <trkpt lat="45.31007" lon="6.05146">
        <ele>1858.6</ele>
        <time>2021-01-16T12:35:39Z</time>
      </trkpt>
      <trkpt lat="45.31008" lon="6.05146">
        <ele>1858.6</ele>
        <time>2021-01-16T12:35:40Z</time>
      </trkpt>
      <trkpt lat="45.31009" lon="6.05146">
        <ele>1858.6</ele>
        <time>2021-01-16T12:35:41Z</time>
      </trkpt>
      <trkpt lat="45.3101" lon="6.05147">
        <ele>1858.4</ele>
        <time>2021-01-16T12:35:42Z</time>
      </trkpt>
      <trkpt lat="45.31011" lon="6.05147">
        <ele>1858.4</ele>
        <time>2021-01-16T12:35:43Z</time>
      </trkpt>
      <trkpt lat="45.31011" lon="6.05147">
        <ele>1858.2</ele>
        <time>2021-01-16T12:35:44Z</time>
      </trkpt>
      <trkpt lat="45.31012" lon="6.05147">
        <ele>1858.2</ele>
        <time>2021-01-16T12:35:45Z</time>
      </trkpt>
      <trkpt lat="45.31013" lon="6.05148">
        <ele>1858.2</ele>
        <time>2021-01-16T12:35:46Z</time>
      </trkpt>
      <trkpt lat="45.31013" lon="6.05148">
        <ele>1858.2</ele>
        <time>2021-01-16T12:35:47Z</time>
      </trkpt>
      <trkpt lat="45.31014" lon="6.05148">
        <ele>1858.2</ele>
        <time>2021-01-16T12:35:48Z</time>
      </trkpt>
      <trkpt lat="45.31014" lon="6.05149">
        <ele>1858.2</ele>
        <time>2021-01-16T12:35:49Z</time>
      </trkpt>
      <trkpt lat="45.31014" lon="6.05149">
        <ele>1858.2</ele>
        <time>2021-01-16T12:35:50Z</time>
      </trkpt>
      <trkpt lat="45.31014" lon="6.0515">
        <ele>1858.2</ele>
        <time>2021-01-16T12:35:51Z</time>
      </trkpt>
      <trkpt lat="45.31014" lon="6.0515">
        <ele>1858.2</ele>
        <time>2021-01-16T12:35:52Z</time>
      </trkpt>
      <trkpt lat="45.31014" lon="6.0515">
        <ele>1858</ele>
        <time>2021-01-16T12:35:53Z</time>
      </trkpt>
      <trkpt lat="45.31014" lon="6.0515">
        <ele>1858</ele>
        <time>2021-01-16T12:35:54Z</time>
      </trkpt>
      <trkpt lat="45.31014" lon="6.0515">
        <ele>1858</ele>
        <time>2021-01-16T12:35:55Z</time>
      </trkpt>
      <trkpt lat="45.31014" lon="6.0515">
        <ele>1858</ele>
        <time>2021-01-16T12:35:56Z</time>
      </trkpt>
      <trkpt lat="45.31014" lon="6.0515">
        <ele>1858</ele>
        <time>2021-01-16T12:35:57Z</time>
      </trkpt>
      <trkpt lat="45.31014" lon="6.0515">
        <ele>1858</ele>
        <time>2021-01-16T12:35:58Z</time>
      </trkpt>
      <trkpt lat="45.31014" lon="6.0515">
        <ele>1858</ele>
        <time>2021-01-16T12:35:59Z</time>
      </trkpt>
      <trkpt lat="45.31014" lon="6.0515">
        <ele>1858</ele>
        <time>2021-01-16T12:36:00Z</time>
      </trkpt>
      <trkpt lat="45.31014" lon="6.0515">
        <ele>1858</ele>
        <time>2021-01-16T12:36:01Z</time>
      </trkpt>
      <trkpt lat="45.31014" lon="6.0515">
        <ele>1858</ele>
        <time>2021-01-16T12:36:02Z</time>
      </trkpt>
      <trkpt lat="45.31014" lon="6.0515">
        <ele>1858</ele>
        <time>2021-01-16T12:36:03Z</time>
      </trkpt>
      <trkpt lat="45.31014" lon="6.0515">
        <ele>1858</ele>
        <time>2021-01-16T12:36:04Z</time>
      </trkpt>
      <trkpt lat="45.31014" lon="6.0515">
        <ele>1858</ele>
        <time>2021-01-16T12:36:05Z</time>
      </trkpt>
      <trkpt lat="45.31014" lon="6.0515">
        <ele>1858</ele>
        <time>2021-01-16T12:36:06Z</time>
      </trkpt>
      <trkpt lat="45.31014" lon="6.0515">
        <ele>1858</ele>
        <time>2021-01-16T12:36:07Z</time>
      </trkpt>
      <trkpt lat="45.31014" lon="6.0515">
        <ele>1858</ele>
        <time>2021-01-16T12:36:08Z</time>
      </trkpt>
      <trkpt lat="45.31014" lon="6.0515">
        <ele>1858</ele>
        <time>2021-01-16T12:36:09Z</time>
      </trkpt>
      <trkpt lat="45.31014" lon="6.0515">
        <ele>1858</ele>
        <time>2021-01-16T12:36:10Z</time>
      </trkpt>
      <trkpt lat="45.31014" lon="6.0515">
        <ele>1858</ele>
        <time>2021-01-16T12:36:11Z</time>
      </trkpt>
      <trkpt lat="45.31014" lon="6.0515">
        <ele>1857.8</ele>
        <time>2021-01-16T12:36:12Z</time>
      </trkpt>
      <trkpt lat="45.31014" lon="6.0515">
        <ele>1857.8</ele>
        <time>2021-01-16T12:36:13Z</time>
      </trkpt>
      <trkpt lat="45.31014" lon="6.0515">
        <ele>1858</ele>
        <time>2021-01-16T12:36:14Z</time>
      </trkpt>
      <trkpt lat="45.31014" lon="6.0515">
        <ele>1858</ele>
        <time>2021-01-16T12:36:15Z</time>
      </trkpt>
      <trkpt lat="45.31014" lon="6.0515">
        <ele>1858</ele>
        <time>2021-01-16T12:36:16Z</time>
      </trkpt>
      <trkpt lat="45.31014" lon="6.0515">
        <ele>1857.8</ele>
        <time>2021-01-16T12:36:17Z</time>
      </trkpt>
      <trkpt lat="45.31014" lon="6.0515">
        <ele>1858</ele>
        <time>2021-01-16T12:36:18Z</time>
      </trkpt>
      <trkpt lat="45.31014" lon="6.0515">
        <ele>1858</ele>
        <time>2021-01-16T12:36:19Z</time>
      </trkpt>
      <trkpt lat="45.31014" lon="6.0515">
        <ele>1858</ele>
        <time>2021-01-16T12:36:20Z</time>
      </trkpt>
      <trkpt lat="45.31014" lon="6.0515">
        <ele>1858</ele>
        <time>2021-01-16T12:36:21Z</time>
      </trkpt>
      <trkpt lat="45.31014" lon="6.0515">
        <ele>1857.8</ele>
        <time>2021-01-16T12:36:22Z</time>
      </trkpt>
      <trkpt lat="45.31014" lon="6.0515">
        <ele>1857.8</ele>
        <time>2021-01-16T12:36:23Z</time>
      </trkpt>
      <trkpt lat="45.31014" lon="6.0515">
        <ele>1857.8</ele>
        <time>2021-01-16T12:36:24Z</time>
      </trkpt>
      <trkpt lat="45.31014" lon="6.0515">
        <ele>1857.8</ele>
        <time>2021-01-16T12:36:25Z</time>
      </trkpt>
      <trkpt lat="45.31014" lon="6.0515">
        <ele>1857.8</ele>
        <time>2021-01-16T12:36:26Z</time>
      </trkpt>
      <trkpt lat="45.31014" lon="6.0515">
        <ele>1857.8</ele>
        <time>2021-01-16T12:36:27Z</time>
      </trkpt>
      <trkpt lat="45.31014" lon="6.0515">
        <ele>1857.8</ele>
        <time>2021-01-16T12:36:28Z</time>
      </trkpt>
      <trkpt lat="45.31014" lon="6.0515">
        <ele>1857.8</ele>
        <time>2021-01-16T12:36:29Z</time>
      </trkpt>
      <trkpt lat="45.31014" lon="6.0515">
        <ele>1857.8</ele>
        <time>2021-01-16T12:36:30Z</time>
      </trkpt>
      <trkpt lat="45.31014" lon="6.0515">
        <ele>1857.8</ele>
        <time>2021-01-16T12:36:31Z</time>
      </trkpt>
      <trkpt lat="45.31014" lon="6.0515">
        <ele>1857.8</ele>
        <time>2021-01-16T12:36:32Z</time>
      </trkpt>
      <trkpt lat="45.31014" lon="6.0515">
        <ele>1857.8</ele>
        <time>2021-01-16T12:36:33Z</time>
      </trkpt>
      <trkpt lat="45.31014" lon="6.0515">
        <ele>1857.8</ele>
        <time>2021-01-16T12:36:34Z</time>
      </trkpt>
      <trkpt lat="45.31014" lon="6.0515">
        <ele>1857.8</ele>
        <time>2021-01-16T12:36:35Z</time>
      </trkpt>
      <trkpt lat="45.31014" lon="6.0515">
        <ele>1857.8</ele>
        <time>2021-01-16T12:36:36Z</time>
      </trkpt>
      <trkpt lat="45.31014" lon="6.0515">
        <ele>1857.8</ele>
        <time>2021-01-16T12:36:37Z</time>
      </trkpt>
      <trkpt lat="45.31014" lon="6.0515">
        <ele>1857.8</ele>
        <time>2021-01-16T12:36:38Z</time>
      </trkpt>
      <trkpt lat="45.31014" lon="6.0515">
        <ele>1857.8</ele>
        <time>2021-01-16T12:36:39Z</time>
      </trkpt>
      <trkpt lat="45.31014" lon="6.0515">
        <ele>1857.8</ele>
        <time>2021-01-16T12:36:40Z</time>
      </trkpt>
      <trkpt lat="45.31014" lon="6.0515">
        <ele>1857.8</ele>
        <time>2021-01-16T12:36:41Z</time>
      </trkpt>
      <trkpt lat="45.31014" lon="6.0515">
        <ele>1857.8</ele>
        <time>2021-01-16T12:36:42Z</time>
      </trkpt>
      <trkpt lat="45.31014" lon="6.0515">
        <ele>1857.8</ele>
        <time>2021-01-16T12:36:43Z</time>
      </trkpt>
      <trkpt lat="45.31014" lon="6.0515">
        <ele>1857.8</ele>
        <time>2021-01-16T12:36:44Z</time>
      </trkpt>
      <trkpt lat="45.31014" lon="6.0515">
        <ele>1857.8</ele>
        <time>2021-01-16T12:36:45Z</time>
      </trkpt>
      <trkpt lat="45.31014" lon="6.0515">
        <ele>1857.8</ele>
        <time>2021-01-16T12:36:46Z</time>
      </trkpt>
      <trkpt lat="45.31014" lon="6.0515">
        <ele>1857.8</ele>
        <time>2021-01-16T12:36:47Z</time>
      </trkpt>
      <trkpt lat="45.31014" lon="6.0515">
        <ele>1857.8</ele>
        <time>2021-01-16T12:36:48Z</time>
      </trkpt>
      <trkpt lat="45.31014" lon="6.0515">
        <ele>1857.8</ele>
        <time>2021-01-16T12:36:49Z</time>
      </trkpt>
      <trkpt lat="45.31014" lon="6.0515">
        <ele>1857.8</ele>
        <time>2021-01-16T12:36:50Z</time>
      </trkpt>
      <trkpt lat="45.31014" lon="6.0515">
        <ele>1857.8</ele>
        <time>2021-01-16T12:36:51Z</time>
      </trkpt>
      <trkpt lat="45.31014" lon="6.0515">
        <ele>1857.8</ele>
        <time>2021-01-16T12:36:52Z</time>
      </trkpt>
      <trkpt lat="45.31014" lon="6.0515">
        <ele>1857.8</ele>
        <time>2021-01-16T12:36:53Z</time>
      </trkpt>
      <trkpt lat="45.31014" lon="6.0515">
        <ele>1857.8</ele>
        <time>2021-01-16T12:36:54Z</time>
      </trkpt>
      <trkpt lat="45.31014" lon="6.0515">
        <ele>1857.8</ele>
        <time>2021-01-16T12:36:55Z</time>
      </trkpt>
      <trkpt lat="45.31014" lon="6.0515">
        <ele>1857.8</ele>
        <time>2021-01-16T12:36:56Z</time>
      </trkpt>
      <trkpt lat="45.31014" lon="6.0515">
        <ele>1857.8</ele>
        <time>2021-01-16T12:36:57Z</time>
      </trkpt>
      <trkpt lat="45.31014" lon="6.0515">
        <ele>1857.8</ele>
        <time>2021-01-16T12:36:58Z</time>
      </trkpt>
      <trkpt lat="45.31014" lon="6.0515">
        <ele>1857.8</ele>
        <time>2021-01-16T12:36:59Z</time>
      </trkpt>
      <trkpt lat="45.31014" lon="6.0515">
        <ele>1857.8</ele>
        <time>2021-01-16T12:37:00Z</time>
      </trkpt>
      <trkpt lat="45.31014" lon="6.0515">
        <ele>1857.8</ele>
        <time>2021-01-16T12:37:01Z</time>
      </trkpt>
      <trkpt lat="45.31014" lon="6.0515">
        <ele>1857.8</ele>
        <time>2021-01-16T12:37:02Z</time>
      </trkpt>
      <trkpt lat="45.31014" lon="6.0515">
        <ele>1857.8</ele>
        <time>2021-01-16T12:37:03Z</time>
      </trkpt>
      <trkpt lat="45.31014" lon="6.0515">
        <ele>1857.6</ele>
        <time>2021-01-16T12:37:04Z</time>
      </trkpt>
      <trkpt lat="45.31014" lon="6.0515">
        <ele>1857.6</ele>
        <time>2021-01-16T12:37:05Z</time>
      </trkpt>
      <trkpt lat="45.31014" lon="6.0515">
        <ele>1857.6</ele>
        <time>2021-01-16T12:37:06Z</time>
      </trkpt>
      <trkpt lat="45.31014" lon="6.0515">
        <ele>1857.6</ele>
        <time>2021-01-16T12:37:07Z</time>
      </trkpt>
      <trkpt lat="45.31014" lon="6.0515">
        <ele>1857.6</ele>
        <time>2021-01-16T12:37:08Z</time>
      </trkpt>
      <trkpt lat="45.31014" lon="6.0515">
        <ele>1857.6</ele>
        <time>2021-01-16T12:37:09Z</time>
      </trkpt>
      <trkpt lat="45.31014" lon="6.0515">
        <ele>1857.6</ele>
        <time>2021-01-16T12:37:10Z</time>
      </trkpt>
      <trkpt lat="45.31014" lon="6.0515">
        <ele>1857.6</ele>
        <time>2021-01-16T12:37:11Z</time>
      </trkpt>
      <trkpt lat="45.31014" lon="6.0515">
        <ele>1857.6</ele>
        <time>2021-01-16T12:37:12Z</time>
      </trkpt>
      <trkpt lat="45.31014" lon="6.0515">
        <ele>1857.6</ele>
        <time>2021-01-16T12:37:13Z</time>
      </trkpt>
      <trkpt lat="45.31014" lon="6.0515">
        <ele>1857.6</ele>
        <time>2021-01-16T12:37:14Z</time>
      </trkpt>
      <trkpt lat="45.31014" lon="6.0515">
        <ele>1857.6</ele>
        <time>2021-01-16T12:37:15Z</time>
      </trkpt>
      <trkpt lat="45.31014" lon="6.0515">
        <ele>1857.6</ele>
        <time>2021-01-16T12:37:16Z</time>
      </trkpt>
      <trkpt lat="45.31014" lon="6.0515">
        <ele>1857.6</ele>
        <time>2021-01-16T12:37:17Z</time>
      </trkpt>
      <trkpt lat="45.31014" lon="6.0515">
        <ele>1857.6</ele>
        <time>2021-01-16T12:37:18Z</time>
      </trkpt>
      <trkpt lat="45.31014" lon="6.0515">
        <ele>1857.6</ele>
        <time>2021-01-16T12:37:19Z</time>
      </trkpt>
      <trkpt lat="45.31014" lon="6.0515">
        <ele>1857.6</ele>
        <time>2021-01-16T12:37:20Z</time>
      </trkpt>
      <trkpt lat="45.31014" lon="6.0515">
        <ele>1857.6</ele>
        <time>2021-01-16T12:37:21Z</time>
      </trkpt>
      <trkpt lat="45.31014" lon="6.0515">
        <ele>1857.6</ele>
        <time>2021-01-16T12:37:22Z</time>
      </trkpt>
      <trkpt lat="45.31014" lon="6.0515">
        <ele>1857.6</ele>
        <time>2021-01-16T12:37:23Z</time>
      </trkpt>
      <trkpt lat="45.31014" lon="6.0515">
        <ele>1857.6</ele>
        <time>2021-01-16T12:37:24Z</time>
      </trkpt>
      <trkpt lat="45.31014" lon="6.0515">
        <ele>1857.6</ele>
        <time>2021-01-16T12:37:25Z</time>
      </trkpt>
      <trkpt lat="45.31014" lon="6.0515">
        <ele>1857.6</ele>
        <time>2021-01-16T12:37:26Z</time>
      </trkpt>
      <trkpt lat="45.31014" lon="6.0515">
        <ele>1857.6</ele>
        <time>2021-01-16T12:37:27Z</time>
      </trkpt>
      <trkpt lat="45.31014" lon="6.0515">
        <ele>1857.6</ele>
        <time>2021-01-16T12:37:28Z</time>
      </trkpt>
      <trkpt lat="45.31014" lon="6.0515">
        <ele>1857.6</ele>
        <time>2021-01-16T12:37:29Z</time>
      </trkpt>
      <trkpt lat="45.31014" lon="6.0515">
        <ele>1857.6</ele>
        <time>2021-01-16T12:37:30Z</time>
      </trkpt>
      <trkpt lat="45.31014" lon="6.0515">
        <ele>1857.6</ele>
        <time>2021-01-16T12:37:31Z</time>
      </trkpt>
      <trkpt lat="45.31014" lon="6.0515">
        <ele>1857.6</ele>
        <time>2021-01-16T12:37:32Z</time>
      </trkpt>
      <trkpt lat="45.31014" lon="6.0515">
        <ele>1857.6</ele>
        <time>2021-01-16T12:37:33Z</time>
      </trkpt>
      <trkpt lat="45.31014" lon="6.0515">
        <ele>1857.6</ele>
        <time>2021-01-16T12:37:34Z</time>
      </trkpt>
      <trkpt lat="45.31014" lon="6.0515">
        <ele>1857.6</ele>
        <time>2021-01-16T12:37:35Z</time>
      </trkpt>
      <trkpt lat="45.31014" lon="6.0515">
        <ele>1857.6</ele>
        <time>2021-01-16T12:37:36Z</time>
      </trkpt>
      <trkpt lat="45.31014" lon="6.0515">
        <ele>1857.6</ele>
        <time>2021-01-16T12:37:37Z</time>
      </trkpt>
      <trkpt lat="45.31014" lon="6.0515">
        <ele>1857.6</ele>
        <time>2021-01-16T12:37:38Z</time>
      </trkpt>
      <trkpt lat="45.31014" lon="6.0515">
        <ele>1857.6</ele>
        <time>2021-01-16T12:37:39Z</time>
      </trkpt>
      <trkpt lat="45.31014" lon="6.0515">
        <ele>1857.6</ele>
        <time>2021-01-16T12:37:40Z</time>
      </trkpt>
      <trkpt lat="45.31014" lon="6.0515">
        <ele>1857.4</ele>
        <time>2021-01-16T12:37:41Z</time>
      </trkpt>
      <trkpt lat="45.31014" lon="6.0515">
        <ele>1857.6</ele>
        <time>2021-01-16T12:37:42Z</time>
      </trkpt>
      <trkpt lat="45.31014" lon="6.0515">
        <ele>1857.6</ele>
        <time>2021-01-16T12:37:43Z</time>
      </trkpt>
      <trkpt lat="45.31014" lon="6.0515">
        <ele>1857.4</ele>
        <time>2021-01-16T12:37:44Z</time>
      </trkpt>
      <trkpt lat="45.31014" lon="6.0515">
        <ele>1857.4</ele>
        <time>2021-01-16T12:37:45Z</time>
      </trkpt>
      <trkpt lat="45.31014" lon="6.0515">
        <ele>1857.4</ele>
        <time>2021-01-16T12:37:46Z</time>
      </trkpt>
      <trkpt lat="45.31014" lon="6.0515">
        <ele>1857.4</ele>
        <time>2021-01-16T12:37:47Z</time>
      </trkpt>
      <trkpt lat="45.31014" lon="6.0515">
        <ele>1857.4</ele>
        <time>2021-01-16T12:37:48Z</time>
      </trkpt>
      <trkpt lat="45.31014" lon="6.0515">
        <ele>1857.4</ele>
        <time>2021-01-16T12:37:49Z</time>
      </trkpt>
      <trkpt lat="45.31014" lon="6.0515">
        <ele>1857.4</ele>
        <time>2021-01-16T12:37:50Z</time>
      </trkpt>
      <trkpt lat="45.31014" lon="6.0515">
        <ele>1857.4</ele>
        <time>2021-01-16T12:37:51Z</time>
      </trkpt>
      <trkpt lat="45.31014" lon="6.0515">
        <ele>1857.4</ele>
        <time>2021-01-16T12:37:52Z</time>
      </trkpt>
      <trkpt lat="45.31014" lon="6.0515">
        <ele>1857.4</ele>
        <time>2021-01-16T12:37:53Z</time>
      </trkpt>
      <trkpt lat="45.31014" lon="6.0515">
        <ele>1857.4</ele>
        <time>2021-01-16T12:37:54Z</time>
      </trkpt>
      <trkpt lat="45.31014" lon="6.0515">
        <ele>1857.4</ele>
        <time>2021-01-16T12:37:55Z</time>
      </trkpt>
      <trkpt lat="45.31014" lon="6.0515">
        <ele>1857.4</ele>
        <time>2021-01-16T12:37:56Z</time>
      </trkpt>
      <trkpt lat="45.31014" lon="6.0515">
        <ele>1857.4</ele>
        <time>2021-01-16T12:37:57Z</time>
      </trkpt>
      <trkpt lat="45.31014" lon="6.0515">
        <ele>1857.4</ele>
        <time>2021-01-16T12:37:58Z</time>
      </trkpt>
      <trkpt lat="45.31014" lon="6.0515">
        <ele>1857.4</ele>
        <time>2021-01-16T12:37:59Z</time>
      </trkpt>
      <trkpt lat="45.31014" lon="6.0515">
        <ele>1857.4</ele>
        <time>2021-01-16T12:38:00Z</time>
      </trkpt>
      <trkpt lat="45.31014" lon="6.0515">
        <ele>1857.4</ele>
        <time>2021-01-16T12:38:01Z</time>
      </trkpt>
      <trkpt lat="45.31014" lon="6.0515">
        <ele>1857.4</ele>
        <time>2021-01-16T12:38:02Z</time>
      </trkpt>
      <trkpt lat="45.31014" lon="6.0515">
        <ele>1857.4</ele>
        <time>2021-01-16T12:38:03Z</time>
      </trkpt>
      <trkpt lat="45.31014" lon="6.0515">
        <ele>1857.4</ele>
        <time>2021-01-16T12:38:04Z</time>
      </trkpt>
      <trkpt lat="45.31014" lon="6.0515">
        <ele>1857.4</ele>
        <time>2021-01-16T12:38:05Z</time>
      </trkpt>
      <trkpt lat="45.31014" lon="6.0515">
        <ele>1857.4</ele>
        <time>2021-01-16T12:38:06Z</time>
      </trkpt>
      <trkpt lat="45.31014" lon="6.0515">
        <ele>1857.4</ele>
        <time>2021-01-16T12:38:07Z</time>
      </trkpt>
      <trkpt lat="45.31014" lon="6.0515">
        <ele>1857.4</ele>
        <time>2021-01-16T12:38:08Z</time>
      </trkpt>
      <trkpt lat="45.31014" lon="6.0515">
        <ele>1857.4</ele>
        <time>2021-01-16T12:38:09Z</time>
      </trkpt>
      <trkpt lat="45.31014" lon="6.0515">
        <ele>1857.4</ele>
        <time>2021-01-16T12:38:10Z</time>
      </trkpt>
      <trkpt lat="45.31014" lon="6.0515">
        <ele>1857.4</ele>
        <time>2021-01-16T12:38:11Z</time>
      </trkpt>
      <trkpt lat="45.31014" lon="6.0515">
        <ele>1857.4</ele>
        <time>2021-01-16T12:38:12Z</time>
      </trkpt>
      <trkpt lat="45.31014" lon="6.0515">
        <ele>1857.4</ele>
        <time>2021-01-16T12:38:13Z</time>
      </trkpt>
      <trkpt lat="45.31014" lon="6.0515">
        <ele>1857.4</ele>
        <time>2021-01-16T12:38:14Z</time>
      </trkpt>
      <trkpt lat="45.31014" lon="6.0515">
        <ele>1857.4</ele>
        <time>2021-01-16T12:38:15Z</time>
      </trkpt>
      <trkpt lat="45.31014" lon="6.0515">
        <ele>1857.4</ele>
        <time>2021-01-16T12:38:16Z</time>
      </trkpt>
      <trkpt lat="45.31014" lon="6.0515">
        <ele>1857.4</ele>
        <time>2021-01-16T12:38:17Z</time>
      </trkpt>
      <trkpt lat="45.31014" lon="6.0515">
        <ele>1857.4</ele>
        <time>2021-01-16T12:38:18Z</time>
      </trkpt>
      <trkpt lat="45.31014" lon="6.0515">
        <ele>1857.4</ele>
        <time>2021-01-16T12:38:19Z</time>
      </trkpt>
      <trkpt lat="45.31014" lon="6.0515">
        <ele>1857.4</ele>
        <time>2021-01-16T12:38:20Z</time>
      </trkpt>
      <trkpt lat="45.31014" lon="6.0515">
        <ele>1857.4</ele>
        <time>2021-01-16T12:38:21Z</time>
      </trkpt>
      <trkpt lat="45.31014" lon="6.0515">
        <ele>1857.4</ele>
        <time>2021-01-16T12:38:22Z</time>
      </trkpt>
      <trkpt lat="45.31014" lon="6.0515">
        <ele>1857.4</ele>
        <time>2021-01-16T12:38:23Z</time>
      </trkpt>
      <trkpt lat="45.31014" lon="6.0515">
        <ele>1857.4</ele>
        <time>2021-01-16T12:38:24Z</time>
      </trkpt>
      <trkpt lat="45.31014" lon="6.0515">
        <ele>1857.2</ele>
        <time>2021-01-16T12:38:25Z</time>
      </trkpt>
      <trkpt lat="45.31014" lon="6.0515">
        <ele>1857.2</ele>
        <time>2021-01-16T12:38:26Z</time>
      </trkpt>
      <trkpt lat="45.31014" lon="6.0515">
        <ele>1857.4</ele>
        <time>2021-01-16T12:38:27Z</time>
      </trkpt>
      <trkpt lat="45.31014" lon="6.0515">
        <ele>1857.2</ele>
        <time>2021-01-16T12:38:28Z</time>
      </trkpt>
      <trkpt lat="45.31014" lon="6.0515">
        <ele>1857.4</ele>
        <time>2021-01-16T12:38:29Z</time>
      </trkpt>
      <trkpt lat="45.31014" lon="6.0515">
        <ele>1857.2</ele>
        <time>2021-01-16T12:38:30Z</time>
      </trkpt>
      <trkpt lat="45.31014" lon="6.0515">
        <ele>1857.2</ele>
        <time>2021-01-16T12:38:31Z</time>
      </trkpt>
      <trkpt lat="45.31014" lon="6.0515">
        <ele>1857.2</ele>
        <time>2021-01-16T12:38:32Z</time>
      </trkpt>
      <trkpt lat="45.31014" lon="6.0515">
        <ele>1857.2</ele>
        <time>2021-01-16T12:38:33Z</time>
      </trkpt>
      <trkpt lat="45.31014" lon="6.0515">
        <ele>1857.2</ele>
        <time>2021-01-16T12:38:34Z</time>
      </trkpt>
      <trkpt lat="45.31014" lon="6.0515">
        <ele>1857.2</ele>
        <time>2021-01-16T12:38:35Z</time>
      </trkpt>
      <trkpt lat="45.31014" lon="6.0515">
        <ele>1857.2</ele>
        <time>2021-01-16T12:38:36Z</time>
      </trkpt>
      <trkpt lat="45.31014" lon="6.0515">
        <ele>1857.2</ele>
        <time>2021-01-16T12:38:37Z</time>
      </trkpt>
      <trkpt lat="45.31014" lon="6.0515">
        <ele>1857.2</ele>
        <time>2021-01-16T12:38:38Z</time>
      </trkpt>
      <trkpt lat="45.31014" lon="6.0515">
        <ele>1857.2</ele>
        <time>2021-01-16T12:38:39Z</time>
      </trkpt>
      <trkpt lat="45.31014" lon="6.0515">
        <ele>1857.2</ele>
        <time>2021-01-16T12:38:40Z</time>
      </trkpt>
      <trkpt lat="45.31014" lon="6.0515">
        <ele>1857.2</ele>
        <time>2021-01-16T12:38:41Z</time>
      </trkpt>
      <trkpt lat="45.31014" lon="6.0515">
        <ele>1857.2</ele>
        <time>2021-01-16T12:38:42Z</time>
      </trkpt>
      <trkpt lat="45.31014" lon="6.0515">
        <ele>1857.2</ele>
        <time>2021-01-16T12:38:43Z</time>
      </trkpt>
      <trkpt lat="45.31014" lon="6.0515">
        <ele>1857.2</ele>
        <time>2021-01-16T12:38:44Z</time>
      </trkpt>
      <trkpt lat="45.31014" lon="6.0515">
        <ele>1857</ele>
        <time>2021-01-16T12:38:45Z</time>
      </trkpt>
      <trkpt lat="45.31014" lon="6.0515">
        <ele>1857</ele>
        <time>2021-01-16T12:38:46Z</time>
      </trkpt>
      <trkpt lat="45.31014" lon="6.0515">
        <ele>1857.2</ele>
        <time>2021-01-16T12:38:47Z</time>
      </trkpt>
      <trkpt lat="45.31014" lon="6.0515">
        <ele>1857.2</ele>
        <time>2021-01-16T12:38:48Z</time>
      </trkpt>
      <trkpt lat="45.31014" lon="6.0515">
        <ele>1857.2</ele>
        <time>2021-01-16T12:38:49Z</time>
      </trkpt>
      <trkpt lat="45.31014" lon="6.0515">
        <ele>1857.2</ele>
        <time>2021-01-16T12:38:50Z</time>
      </trkpt>
      <trkpt lat="45.31014" lon="6.0515">
        <ele>1857.2</ele>
        <time>2021-01-16T12:38:51Z</time>
      </trkpt>
      <trkpt lat="45.31014" lon="6.0515">
        <ele>1857.2</ele>
        <time>2021-01-16T12:38:52Z</time>
      </trkpt>
      <trkpt lat="45.31014" lon="6.0515">
        <ele>1857.2</ele>
        <time>2021-01-16T12:38:53Z</time>
      </trkpt>
      <trkpt lat="45.31014" lon="6.0515">
        <ele>1857.2</ele>
        <time>2021-01-16T12:38:54Z</time>
      </trkpt>
      <trkpt lat="45.31014" lon="6.0515">
        <ele>1857.2</ele>
        <time>2021-01-16T12:38:55Z</time>
      </trkpt>
      <trkpt lat="45.31014" lon="6.0515">
        <ele>1857</ele>
        <time>2021-01-16T12:38:56Z</time>
      </trkpt>
      <trkpt lat="45.31014" lon="6.0515">
        <ele>1857</ele>
        <time>2021-01-16T12:38:57Z</time>
      </trkpt>
      <trkpt lat="45.31014" lon="6.0515">
        <ele>1857</ele>
        <time>2021-01-16T12:38:58Z</time>
      </trkpt>
      <trkpt lat="45.31014" lon="6.0515">
        <ele>1857</ele>
        <time>2021-01-16T12:38:59Z</time>
      </trkpt>
      <trkpt lat="45.31014" lon="6.0515">
        <ele>1857</ele>
        <time>2021-01-16T12:39:00Z</time>
      </trkpt>
      <trkpt lat="45.31014" lon="6.0515">
        <ele>1857</ele>
        <time>2021-01-16T12:39:01Z</time>
      </trkpt>
      <trkpt lat="45.31014" lon="6.0515">
        <ele>1857</ele>
        <time>2021-01-16T12:39:02Z</time>
      </trkpt>
      <trkpt lat="45.31014" lon="6.0515">
        <ele>1857</ele>
        <time>2021-01-16T12:39:03Z</time>
      </trkpt>
      <trkpt lat="45.31014" lon="6.0515">
        <ele>1857</ele>
        <time>2021-01-16T12:39:04Z</time>
      </trkpt>
      <trkpt lat="45.31014" lon="6.0515">
        <ele>1857</ele>
        <time>2021-01-16T12:39:05Z</time>
      </trkpt>
      <trkpt lat="45.31014" lon="6.0515">
        <ele>1857</ele>
        <time>2021-01-16T12:39:06Z</time>
      </trkpt>
      <trkpt lat="45.31014" lon="6.0515">
        <ele>1857</ele>
        <time>2021-01-16T12:39:07Z</time>
      </trkpt>
      <trkpt lat="45.31014" lon="6.0515">
        <ele>1857</ele>
        <time>2021-01-16T12:39:08Z</time>
      </trkpt>
      <trkpt lat="45.31014" lon="6.0515">
        <ele>1857</ele>
        <time>2021-01-16T12:39:09Z</time>
      </trkpt>
      <trkpt lat="45.31014" lon="6.0515">
        <ele>1857</ele>
        <time>2021-01-16T12:39:10Z</time>
      </trkpt>
      <trkpt lat="45.31014" lon="6.0515">
        <ele>1857</ele>
        <time>2021-01-16T12:39:11Z</time>
      </trkpt>
      <trkpt lat="45.31014" lon="6.0515">
        <ele>1857</ele>
        <time>2021-01-16T12:39:12Z</time>
      </trkpt>
      <trkpt lat="45.31014" lon="6.0515">
        <ele>1857</ele>
        <time>2021-01-16T12:39:13Z</time>
      </trkpt>
      <trkpt lat="45.31014" lon="6.0515">
        <ele>1857</ele>
        <time>2021-01-16T12:39:14Z</time>
      </trkpt>
      <trkpt lat="45.31014" lon="6.0515">
        <ele>1857</ele>
        <time>2021-01-16T12:39:15Z</time>
      </trkpt>
      <trkpt lat="45.31014" lon="6.0515">
        <ele>1857</ele>
        <time>2021-01-16T12:39:16Z</time>
      </trkpt>
      <trkpt lat="45.31014" lon="6.0515">
        <ele>1857</ele>
        <time>2021-01-16T12:39:17Z</time>
      </trkpt>
      <trkpt lat="45.31014" lon="6.0515">
        <ele>1857</ele>
        <time>2021-01-16T12:39:18Z</time>
      </trkpt>
      <trkpt lat="45.31014" lon="6.0515">
        <ele>1857</ele>
        <time>2021-01-16T12:39:19Z</time>
      </trkpt>
      <trkpt lat="45.31014" lon="6.0515">
        <ele>1857</ele>
        <time>2021-01-16T12:39:20Z</time>
      </trkpt>
      <trkpt lat="45.31014" lon="6.0515">
        <ele>1856.8</ele>
        <time>2021-01-16T12:39:21Z</time>
      </trkpt>
      <trkpt lat="45.31014" lon="6.0515">
        <ele>1856.8</ele>
        <time>2021-01-16T12:39:22Z</time>
      </trkpt>
      <trkpt lat="45.31014" lon="6.0515">
        <ele>1856.8</ele>
        <time>2021-01-16T12:39:23Z</time>
      </trkpt>
      <trkpt lat="45.31014" lon="6.0515">
        <ele>1856.8</ele>
        <time>2021-01-16T12:39:24Z</time>
      </trkpt>
      <trkpt lat="45.31014" lon="6.0515">
        <ele>1857</ele>
        <time>2021-01-16T12:39:25Z</time>
      </trkpt>
      <trkpt lat="45.31014" lon="6.0515">
        <ele>1857</ele>
        <time>2021-01-16T12:39:26Z</time>
      </trkpt>
      <trkpt lat="45.31014" lon="6.0515">
        <ele>1857</ele>
        <time>2021-01-16T12:39:27Z</time>
      </trkpt>
      <trkpt lat="45.31014" lon="6.0515">
        <ele>1856.8</ele>
        <time>2021-01-16T12:39:28Z</time>
      </trkpt>
      <trkpt lat="45.31014" lon="6.0515">
        <ele>1856.8</ele>
        <time>2021-01-16T12:39:29Z</time>
      </trkpt>
      <trkpt lat="45.31014" lon="6.0515">
        <ele>1856.8</ele>
        <time>2021-01-16T12:39:30Z</time>
      </trkpt>
      <trkpt lat="45.31014" lon="6.0515">
        <ele>1856.8</ele>
        <time>2021-01-16T12:39:31Z</time>
      </trkpt>
      <trkpt lat="45.31014" lon="6.0515">
        <ele>1856.8</ele>
        <time>2021-01-16T12:39:32Z</time>
      </trkpt>
      <trkpt lat="45.31014" lon="6.0515">
        <ele>1856.8</ele>
        <time>2021-01-16T12:39:33Z</time>
      </trkpt>
      <trkpt lat="45.31014" lon="6.0515">
        <ele>1856.8</ele>
        <time>2021-01-16T12:39:34Z</time>
      </trkpt>
      <trkpt lat="45.31014" lon="6.0515">
        <ele>1856.8</ele>
        <time>2021-01-16T12:39:35Z</time>
      </trkpt>
      <trkpt lat="45.31014" lon="6.0515">
        <ele>1856.8</ele>
        <time>2021-01-16T12:39:36Z</time>
      </trkpt>
      <trkpt lat="45.31014" lon="6.0515">
        <ele>1856.8</ele>
        <time>2021-01-16T12:39:37Z</time>
      </trkpt>
      <trkpt lat="45.31014" lon="6.0515">
        <ele>1856.8</ele>
        <time>2021-01-16T12:39:38Z</time>
      </trkpt>
      <trkpt lat="45.31014" lon="6.0515">
        <ele>1856.8</ele>
        <time>2021-01-16T12:39:39Z</time>
      </trkpt>
      <trkpt lat="45.31014" lon="6.0515">
        <ele>1856.8</ele>
        <time>2021-01-16T12:39:40Z</time>
      </trkpt>
      <trkpt lat="45.31014" lon="6.0515">
        <ele>1856.8</ele>
        <time>2021-01-16T12:39:41Z</time>
      </trkpt>
      <trkpt lat="45.31014" lon="6.0515">
        <ele>1856.8</ele>
        <time>2021-01-16T12:39:42Z</time>
      </trkpt>
      <trkpt lat="45.31014" lon="6.0515">
        <ele>1856.6</ele>
        <time>2021-01-16T12:39:43Z</time>
      </trkpt>
      <trkpt lat="45.31014" lon="6.0515">
        <ele>1856.8</ele>
        <time>2021-01-16T12:39:44Z</time>
      </trkpt>
      <trkpt lat="45.31014" lon="6.0515">
        <ele>1856.6</ele>
        <time>2021-01-16T12:39:45Z</time>
      </trkpt>
      <trkpt lat="45.31014" lon="6.0515">
        <ele>1856.6</ele>
        <time>2021-01-16T12:39:46Z</time>
      </trkpt>
      <trkpt lat="45.31014" lon="6.0515">
        <ele>1856.8</ele>
        <time>2021-01-16T12:39:47Z</time>
      </trkpt>
      <trkpt lat="45.31014" lon="6.0515">
        <ele>1856.8</ele>
        <time>2021-01-16T12:39:48Z</time>
      </trkpt>
      <trkpt lat="45.31014" lon="6.0515">
        <ele>1856.6</ele>
        <time>2021-01-16T12:39:49Z</time>
      </trkpt>
      <trkpt lat="45.31014" lon="6.0515">
        <ele>1856.6</ele>
        <time>2021-01-16T12:39:50Z</time>
      </trkpt>
      <trkpt lat="45.31014" lon="6.0515">
        <ele>1856.6</ele>
        <time>2021-01-16T12:39:51Z</time>
      </trkpt>
      <trkpt lat="45.31014" lon="6.0515">
        <ele>1856.8</ele>
        <time>2021-01-16T12:39:52Z</time>
      </trkpt>
      <trkpt lat="45.31014" lon="6.0515">
        <ele>1856.8</ele>
        <time>2021-01-16T12:39:53Z</time>
      </trkpt>
      <trkpt lat="45.31014" lon="6.0515">
        <ele>1856.8</ele>
        <time>2021-01-16T12:39:54Z</time>
      </trkpt>
      <trkpt lat="45.31014" lon="6.0515">
        <ele>1856.6</ele>
        <time>2021-01-16T12:39:55Z</time>
      </trkpt>
      <trkpt lat="45.31014" lon="6.0515">
        <ele>1856.6</ele>
        <time>2021-01-16T12:39:56Z</time>
      </trkpt>
      <trkpt lat="45.31014" lon="6.0515">
        <ele>1856.6</ele>
        <time>2021-01-16T12:39:57Z</time>
      </trkpt>
      <trkpt lat="45.31014" lon="6.0515">
        <ele>1856.6</ele>
        <time>2021-01-16T12:39:58Z</time>
      </trkpt>
      <trkpt lat="45.31014" lon="6.0515">
        <ele>1856.6</ele>
        <time>2021-01-16T12:39:59Z</time>
      </trkpt>
      <trkpt lat="45.31014" lon="6.0515">
        <ele>1856.6</ele>
        <time>2021-01-16T12:40:00Z</time>
      </trkpt>
      <trkpt lat="45.31014" lon="6.0515">
        <ele>1856.6</ele>
        <time>2021-01-16T12:40:01Z</time>
      </trkpt>
      <trkpt lat="45.31014" lon="6.0515">
        <ele>1856.6</ele>
        <time>2021-01-16T12:40:02Z</time>
      </trkpt>
      <trkpt lat="45.31014" lon="6.0515">
        <ele>1856.6</ele>
        <time>2021-01-16T12:40:03Z</time>
      </trkpt>
      <trkpt lat="45.31014" lon="6.0515">
        <ele>1856.6</ele>
        <time>2021-01-16T12:40:04Z</time>
      </trkpt>
      <trkpt lat="45.31014" lon="6.0515">
        <ele>1856.6</ele>
        <time>2021-01-16T12:40:05Z</time>
      </trkpt>
      <trkpt lat="45.31014" lon="6.0515">
        <ele>1856.6</ele>
        <time>2021-01-16T12:40:06Z</time>
      </trkpt>
      <trkpt lat="45.31014" lon="6.0515">
        <ele>1856.6</ele>
        <time>2021-01-16T12:40:07Z</time>
      </trkpt>
      <trkpt lat="45.31014" lon="6.0515">
        <ele>1856.6</ele>
        <time>2021-01-16T12:40:08Z</time>
      </trkpt>
      <trkpt lat="45.31014" lon="6.0515">
        <ele>1856.6</ele>
        <time>2021-01-16T12:40:09Z</time>
      </trkpt>
      <trkpt lat="45.31014" lon="6.0515">
        <ele>1856.6</ele>
        <time>2021-01-16T12:40:10Z</time>
      </trkpt>
      <trkpt lat="45.31014" lon="6.0515">
        <ele>1856.6</ele>
        <time>2021-01-16T12:40:11Z</time>
      </trkpt>
      <trkpt lat="45.31014" lon="6.0515">
        <ele>1856.6</ele>
        <time>2021-01-16T12:40:12Z</time>
      </trkpt>
      <trkpt lat="45.31014" lon="6.0515">
        <ele>1856.6</ele>
        <time>2021-01-16T12:40:13Z</time>
      </trkpt>
      <trkpt lat="45.31014" lon="6.0515">
        <ele>1856.6</ele>
        <time>2021-01-16T12:40:14Z</time>
      </trkpt>
      <trkpt lat="45.31014" lon="6.0515">
        <ele>1856.6</ele>
        <time>2021-01-16T12:40:15Z</time>
      </trkpt>
      <trkpt lat="45.31014" lon="6.0515">
        <ele>1856.6</ele>
        <time>2021-01-16T12:40:16Z</time>
      </trkpt>
      <trkpt lat="45.31014" lon="6.0515">
        <ele>1856.6</ele>
        <time>2021-01-16T12:40:17Z</time>
      </trkpt>
      <trkpt lat="45.31014" lon="6.0515">
        <ele>1856.6</ele>
        <time>2021-01-16T12:40:18Z</time>
      </trkpt>
      <trkpt lat="45.31014" lon="6.0515">
        <ele>1856.6</ele>
        <time>2021-01-16T12:40:19Z</time>
      </trkpt>
      <trkpt lat="45.31014" lon="6.0515">
        <ele>1856.6</ele>
        <time>2021-01-16T12:40:20Z</time>
      </trkpt>
      <trkpt lat="45.31014" lon="6.0515">
        <ele>1856.6</ele>
        <time>2021-01-16T12:40:21Z</time>
      </trkpt>
      <trkpt lat="45.31014" lon="6.0515">
        <ele>1856.6</ele>
        <time>2021-01-16T12:40:22Z</time>
      </trkpt>
      <trkpt lat="45.31014" lon="6.0515">
        <ele>1856.6</ele>
        <time>2021-01-16T12:40:23Z</time>
      </trkpt>
      <trkpt lat="45.31014" lon="6.0515">
        <ele>1856.6</ele>
        <time>2021-01-16T12:40:24Z</time>
      </trkpt>
      <trkpt lat="45.31014" lon="6.0515">
        <ele>1856.6</ele>
        <time>2021-01-16T12:40:25Z</time>
      </trkpt>
      <trkpt lat="45.31014" lon="6.0515">
        <ele>1856.6</ele>
        <time>2021-01-16T12:40:26Z</time>
      </trkpt>
      <trkpt lat="45.31014" lon="6.0515">
        <ele>1856.6</ele>
        <time>2021-01-16T12:40:27Z</time>
      </trkpt>
      <trkpt lat="45.31014" lon="6.0515">
        <ele>1856.6</ele>
        <time>2021-01-16T12:40:28Z</time>
      </trkpt>
      <trkpt lat="45.31014" lon="6.0515">
        <ele>1856.6</ele>
        <time>2021-01-16T12:40:29Z</time>
      </trkpt>
      <trkpt lat="45.31014" lon="6.0515">
        <ele>1856.4</ele>
        <time>2021-01-16T12:40:30Z</time>
      </trkpt>
      <trkpt lat="45.31014" lon="6.0515">
        <ele>1856.4</ele>
        <time>2021-01-16T12:40:31Z</time>
      </trkpt>
      <trkpt lat="45.31014" lon="6.0515">
        <ele>1856.4</ele>
        <time>2021-01-16T12:40:32Z</time>
      </trkpt>
      <trkpt lat="45.31014" lon="6.0515">
        <ele>1856.4</ele>
        <time>2021-01-16T12:40:33Z</time>
      </trkpt>
      <trkpt lat="45.31014" lon="6.0515">
        <ele>1856.4</ele>
        <time>2021-01-16T12:40:34Z</time>
      </trkpt>
      <trkpt lat="45.31014" lon="6.0515">
        <ele>1856.4</ele>
        <time>2021-01-16T12:40:35Z</time>
      </trkpt>
      <trkpt lat="45.31014" lon="6.0515">
        <ele>1856.4</ele>
        <time>2021-01-16T12:40:36Z</time>
      </trkpt>
      <trkpt lat="45.31014" lon="6.0515">
        <ele>1856.4</ele>
        <time>2021-01-16T12:40:37Z</time>
      </trkpt>
      <trkpt lat="45.31014" lon="6.0515">
        <ele>1856.4</ele>
        <time>2021-01-16T12:40:38Z</time>
      </trkpt>
      <trkpt lat="45.31014" lon="6.0515">
        <ele>1856.4</ele>
        <time>2021-01-16T12:40:39Z</time>
      </trkpt>
      <trkpt lat="45.31014" lon="6.0515">
        <ele>1856.4</ele>
        <time>2021-01-16T12:40:40Z</time>
      </trkpt>
      <trkpt lat="45.31014" lon="6.0515">
        <ele>1856.4</ele>
        <time>2021-01-16T12:40:41Z</time>
      </trkpt>
      <trkpt lat="45.31014" lon="6.0515">
        <ele>1856.4</ele>
        <time>2021-01-16T12:40:42Z</time>
      </trkpt>
      <trkpt lat="45.31014" lon="6.0515">
        <ele>1856.4</ele>
        <time>2021-01-16T12:40:43Z</time>
      </trkpt>
      <trkpt lat="45.31014" lon="6.0515">
        <ele>1856.4</ele>
        <time>2021-01-16T12:40:44Z</time>
      </trkpt>
      <trkpt lat="45.31014" lon="6.0515">
        <ele>1856.4</ele>
        <time>2021-01-16T12:40:45Z</time>
      </trkpt>
      <trkpt lat="45.31014" lon="6.0515">
        <ele>1856.4</ele>
        <time>2021-01-16T12:40:46Z</time>
      </trkpt>
      <trkpt lat="45.31014" lon="6.0515">
        <ele>1856.4</ele>
        <time>2021-01-16T12:40:47Z</time>
      </trkpt>
      <trkpt lat="45.31014" lon="6.0515">
        <ele>1856.4</ele>
        <time>2021-01-16T12:40:48Z</time>
      </trkpt>
      <trkpt lat="45.31014" lon="6.0515">
        <ele>1856.4</ele>
        <time>2021-01-16T12:40:49Z</time>
      </trkpt>
      <trkpt lat="45.31014" lon="6.0515">
        <ele>1856.4</ele>
        <time>2021-01-16T12:40:50Z</time>
      </trkpt>
      <trkpt lat="45.31014" lon="6.0515">
        <ele>1856.4</ele>
        <time>2021-01-16T12:40:51Z</time>
      </trkpt>
      <trkpt lat="45.31014" lon="6.0515">
        <ele>1856.4</ele>
        <time>2021-01-16T12:40:52Z</time>
      </trkpt>
      <trkpt lat="45.31014" lon="6.0515">
        <ele>1856.4</ele>
        <time>2021-01-16T12:40:53Z</time>
      </trkpt>
      <trkpt lat="45.31014" lon="6.0515">
        <ele>1856.4</ele>
        <time>2021-01-16T12:40:54Z</time>
      </trkpt>
      <trkpt lat="45.31014" lon="6.0515">
        <ele>1856.4</ele>
        <time>2021-01-16T12:40:55Z</time>
      </trkpt>
      <trkpt lat="45.31014" lon="6.0515">
        <ele>1856.4</ele>
        <time>2021-01-16T12:40:56Z</time>
      </trkpt>
      <trkpt lat="45.31014" lon="6.0515">
        <ele>1856.4</ele>
        <time>2021-01-16T12:40:57Z</time>
      </trkpt>
      <trkpt lat="45.31014" lon="6.0515">
        <ele>1856.4</ele>
        <time>2021-01-16T12:40:58Z</time>
      </trkpt>
      <trkpt lat="45.31014" lon="6.0515">
        <ele>1856.4</ele>
        <time>2021-01-16T12:40:59Z</time>
      </trkpt>
      <trkpt lat="45.31014" lon="6.0515">
        <ele>1856.4</ele>
        <time>2021-01-16T12:41:00Z</time>
      </trkpt>
      <trkpt lat="45.31014" lon="6.0515">
        <ele>1856.4</ele>
        <time>2021-01-16T12:41:01Z</time>
      </trkpt>
      <trkpt lat="45.31014" lon="6.0515">
        <ele>1856.2</ele>
        <time>2021-01-16T12:41:02Z</time>
      </trkpt>
      <trkpt lat="45.31014" lon="6.0515">
        <ele>1856.2</ele>
        <time>2021-01-16T12:41:03Z</time>
      </trkpt>
      <trkpt lat="45.31014" lon="6.0515">
        <ele>1856.2</ele>
        <time>2021-01-16T12:41:04Z</time>
      </trkpt>
      <trkpt lat="45.31014" lon="6.0515">
        <ele>1856.2</ele>
        <time>2021-01-16T12:41:05Z</time>
      </trkpt>
      <trkpt lat="45.31014" lon="6.0515">
        <ele>1856.2</ele>
        <time>2021-01-16T12:41:06Z</time>
      </trkpt>
      <trkpt lat="45.31014" lon="6.0515">
        <ele>1856.2</ele>
        <time>2021-01-16T12:41:07Z</time>
      </trkpt>
      <trkpt lat="45.31014" lon="6.0515">
        <ele>1856.2</ele>
        <time>2021-01-16T12:41:08Z</time>
      </trkpt>
      <trkpt lat="45.31014" lon="6.0515">
        <ele>1856.2</ele>
        <time>2021-01-16T12:41:09Z</time>
      </trkpt>
      <trkpt lat="45.31014" lon="6.0515">
        <ele>1856.2</ele>
        <time>2021-01-16T12:41:10Z</time>
      </trkpt>
      <trkpt lat="45.31014" lon="6.0515">
        <ele>1856.2</ele>
        <time>2021-01-16T12:41:11Z</time>
      </trkpt>
      <trkpt lat="45.31014" lon="6.0515">
        <ele>1856.2</ele>
        <time>2021-01-16T12:41:12Z</time>
      </trkpt>
      <trkpt lat="45.31014" lon="6.0515">
        <ele>1856.2</ele>
        <time>2021-01-16T12:41:13Z</time>
      </trkpt>
      <trkpt lat="45.31014" lon="6.0515">
        <ele>1856.2</ele>
        <time>2021-01-16T12:41:14Z</time>
      </trkpt>
      <trkpt lat="45.31014" lon="6.0515">
        <ele>1856.2</ele>
        <time>2021-01-16T12:41:15Z</time>
      </trkpt>
      <trkpt lat="45.31014" lon="6.0515">
        <ele>1856.2</ele>
        <time>2021-01-16T12:41:16Z</time>
      </trkpt>
      <trkpt lat="45.31014" lon="6.0515">
        <ele>1856.2</ele>
        <time>2021-01-16T12:41:17Z</time>
      </trkpt>
      <trkpt lat="45.31014" lon="6.0515">
        <ele>1856.2</ele>
        <time>2021-01-16T12:41:18Z</time>
      </trkpt>
      <trkpt lat="45.31014" lon="6.0515">
        <ele>1856.2</ele>
        <time>2021-01-16T12:41:19Z</time>
      </trkpt>
      <trkpt lat="45.31014" lon="6.0515">
        <ele>1856.2</ele>
        <time>2021-01-16T12:41:20Z</time>
      </trkpt>
      <trkpt lat="45.31014" lon="6.0515">
        <ele>1856</ele>
        <time>2021-01-16T12:41:21Z</time>
      </trkpt>
      <trkpt lat="45.31014" lon="6.0515">
        <ele>1856.2</ele>
        <time>2021-01-16T12:41:22Z</time>
      </trkpt>
      <trkpt lat="45.31014" lon="6.0515">
        <ele>1856.2</ele>
        <time>2021-01-16T12:41:23Z</time>
      </trkpt>
      <trkpt lat="45.31014" lon="6.0515">
        <ele>1856.2</ele>
        <time>2021-01-16T12:41:24Z</time>
      </trkpt>
      <trkpt lat="45.31014" lon="6.0515">
        <ele>1856.2</ele>
        <time>2021-01-16T12:41:25Z</time>
      </trkpt>
      <trkpt lat="45.31014" lon="6.0515">
        <ele>1856.2</ele>
        <time>2021-01-16T12:41:26Z</time>
      </trkpt>
      <trkpt lat="45.31014" lon="6.0515">
        <ele>1856.2</ele>
        <time>2021-01-16T12:41:27Z</time>
      </trkpt>
      <trkpt lat="45.31014" lon="6.0515">
        <ele>1856.2</ele>
        <time>2021-01-16T12:41:28Z</time>
      </trkpt>
      <trkpt lat="45.31014" lon="6.0515">
        <ele>1856.2</ele>
        <time>2021-01-16T12:41:29Z</time>
      </trkpt>
      <trkpt lat="45.31014" lon="6.0515">
        <ele>1856.2</ele>
        <time>2021-01-16T12:41:30Z</time>
      </trkpt>
      <trkpt lat="45.31015" lon="6.0515">
        <ele>1856.2</ele>
        <time>2021-01-16T12:41:31Z</time>
      </trkpt>
      <trkpt lat="45.31017" lon="6.05151">
        <ele>1856.2</ele>
        <time>2021-01-16T12:41:32Z</time>
      </trkpt>
      <trkpt lat="45.31018" lon="6.0515">
        <ele>1856.2</ele>
        <time>2021-01-16T12:41:33Z</time>
      </trkpt>
      <trkpt lat="45.31019" lon="6.0515">
        <ele>1856.2</ele>
        <time>2021-01-16T12:41:34Z</time>
      </trkpt>
      <trkpt lat="45.3102" lon="6.0515">
        <ele>1856.2</ele>
        <time>2021-01-16T12:41:35Z</time>
      </trkpt>
      <trkpt lat="45.31021" lon="6.05151">
        <ele>1856.2</ele>
        <time>2021-01-16T12:41:36Z</time>
      </trkpt>
      <trkpt lat="45.31022" lon="6.05151">
        <ele>1856.2</ele>
        <time>2021-01-16T12:41:37Z</time>
      </trkpt>
      <trkpt lat="45.31023" lon="6.05151">
        <ele>1856.2</ele>
        <time>2021-01-16T12:41:38Z</time>
      </trkpt>
      <trkpt lat="45.31024" lon="6.05151">
        <ele>1856.2</ele>
        <time>2021-01-16T12:41:39Z</time>
      </trkpt>
      <trkpt lat="45.31025" lon="6.05151">
        <ele>1856.2</ele>
        <time>2021-01-16T12:41:40Z</time>
      </trkpt>
      <trkpt lat="45.31026" lon="6.05152">
        <ele>1856.4</ele>
        <time>2021-01-16T12:41:41Z</time>
      </trkpt>
      <trkpt lat="45.31027" lon="6.05153">
        <ele>1856.2</ele>
        <time>2021-01-16T12:41:42Z</time>
      </trkpt>
      <trkpt lat="45.31028" lon="6.05153">
        <ele>1856.4</ele>
        <time>2021-01-16T12:41:43Z</time>
      </trkpt>
      <trkpt lat="45.31029" lon="6.05153">
        <ele>1856.6</ele>
        <time>2021-01-16T12:41:44Z</time>
      </trkpt>
      <trkpt lat="45.3103" lon="6.05154">
        <ele>1856.6</ele>
        <time>2021-01-16T12:41:45Z</time>
      </trkpt>
      <trkpt lat="45.31031" lon="6.05154">
        <ele>1856.6</ele>
        <time>2021-01-16T12:41:46Z</time>
      </trkpt>
      <trkpt lat="45.31032" lon="6.05155">
        <ele>1856.8</ele>
        <time>2021-01-16T12:41:47Z</time>
      </trkpt>
      <trkpt lat="45.31033" lon="6.05155">
        <ele>1856.8</ele>
        <time>2021-01-16T12:41:48Z</time>
      </trkpt>
      <trkpt lat="45.31034" lon="6.05156">
        <ele>1857</ele>
        <time>2021-01-16T12:41:49Z</time>
      </trkpt>
      <trkpt lat="45.31034" lon="6.05156">
        <ele>1857</ele>
        <time>2021-01-16T12:41:50Z</time>
      </trkpt>
      <trkpt lat="45.31035" lon="6.05157">
        <ele>1857</ele>
        <time>2021-01-16T12:41:51Z</time>
      </trkpt>
      <trkpt lat="45.31036" lon="6.05157">
        <ele>1857.4</ele>
        <time>2021-01-16T12:41:52Z</time>
      </trkpt>
      <trkpt lat="45.31037" lon="6.05158">
        <ele>1857.4</ele>
        <time>2021-01-16T12:41:53Z</time>
      </trkpt>
      <trkpt lat="45.31038" lon="6.05158">
        <ele>1857.4</ele>
        <time>2021-01-16T12:41:54Z</time>
      </trkpt>
      <trkpt lat="45.31038" lon="6.05159">
        <ele>1857.6</ele>
        <time>2021-01-16T12:41:55Z</time>
      </trkpt>
      <trkpt lat="45.31039" lon="6.0516">
        <ele>1857.6</ele>
        <time>2021-01-16T12:41:56Z</time>
      </trkpt>
      <trkpt lat="45.3104" lon="6.0516">
        <ele>1857.6</ele>
        <time>2021-01-16T12:41:57Z</time>
      </trkpt>
      <trkpt lat="45.31041" lon="6.0516">
        <ele>1857.8</ele>
        <time>2021-01-16T12:41:58Z</time>
      </trkpt>
      <trkpt lat="45.31042" lon="6.05161">
        <ele>1858</ele>
        <time>2021-01-16T12:41:59Z</time>
      </trkpt>
      <trkpt lat="45.31043" lon="6.05161">
        <ele>1858</ele>
        <time>2021-01-16T12:42:00Z</time>
      </trkpt>
      <trkpt lat="45.31043" lon="6.05161">
        <ele>1858.2</ele>
        <time>2021-01-16T12:42:01Z</time>
      </trkpt>
      <trkpt lat="45.31044" lon="6.05162">
        <ele>1858.4</ele>
        <time>2021-01-16T12:42:02Z</time>
      </trkpt>
      <trkpt lat="45.31045" lon="6.05162">
        <ele>1858.4</ele>
        <time>2021-01-16T12:42:03Z</time>
      </trkpt>
      <trkpt lat="45.31046" lon="6.05162">
        <ele>1858.6</ele>
        <time>2021-01-16T12:42:04Z</time>
      </trkpt>
      <trkpt lat="45.31046" lon="6.05162">
        <ele>1858.8</ele>
        <time>2021-01-16T12:42:05Z</time>
      </trkpt>
      <trkpt lat="45.31047" lon="6.05163">
        <ele>1858.8</ele>
        <time>2021-01-16T12:42:06Z</time>
      </trkpt>
      <trkpt lat="45.31048" lon="6.05163">
        <ele>1859</ele>
        <time>2021-01-16T12:42:07Z</time>
      </trkpt>
      <trkpt lat="45.31049" lon="6.05163">
        <ele>1859.4</ele>
        <time>2021-01-16T12:42:08Z</time>
      </trkpt>
      <trkpt lat="45.3105" lon="6.05163">
        <ele>1859.4</ele>
        <time>2021-01-16T12:42:09Z</time>
      </trkpt>
      <trkpt lat="45.3105" lon="6.05163">
        <ele>1859.6</ele>
        <time>2021-01-16T12:42:10Z</time>
      </trkpt>
      <trkpt lat="45.31051" lon="6.05164">
        <ele>1859.8</ele>
        <time>2021-01-16T12:42:11Z</time>
      </trkpt>
      <trkpt lat="45.31051" lon="6.05164">
        <ele>1859.8</ele>
        <time>2021-01-16T12:42:12Z</time>
      </trkpt>
      <trkpt lat="45.31052" lon="6.05164">
        <ele>1860</ele>
        <time>2021-01-16T12:42:13Z</time>
      </trkpt>
      <trkpt lat="45.31053" lon="6.05165">
        <ele>1860</ele>
        <time>2021-01-16T12:42:14Z</time>
      </trkpt>
      <trkpt lat="45.31053" lon="6.05165">
        <ele>1860.2</ele>
        <time>2021-01-16T12:42:15Z</time>
      </trkpt>
      <trkpt lat="45.31054" lon="6.05165">
        <ele>1860.2</ele>
        <time>2021-01-16T12:42:16Z</time>
      </trkpt>
      <trkpt lat="45.31055" lon="6.05166">
        <ele>1860.4</ele>
        <time>2021-01-16T12:42:17Z</time>
      </trkpt>
      <trkpt lat="45.31055" lon="6.05166">
        <ele>1860.4</ele>
        <time>2021-01-16T12:42:18Z</time>
      </trkpt>
      <trkpt lat="45.31056" lon="6.05167">
        <ele>1860.6</ele>
        <time>2021-01-16T12:42:19Z</time>
      </trkpt>
      <trkpt lat="45.31056" lon="6.05168">
        <ele>1860.6</ele>
        <time>2021-01-16T12:42:20Z</time>
      </trkpt>
      <trkpt lat="45.31057" lon="6.05168">
        <ele>1860.6</ele>
        <time>2021-01-16T12:42:21Z</time>
      </trkpt>
      <trkpt lat="45.31058" lon="6.05169">
        <ele>1860.6</ele>
        <time>2021-01-16T12:42:22Z</time>
      </trkpt>
      <trkpt lat="45.31058" lon="6.05169">
        <ele>1860.8</ele>
        <time>2021-01-16T12:42:23Z</time>
      </trkpt>
      <trkpt lat="45.31059" lon="6.0517">
        <ele>1860.8</ele>
        <time>2021-01-16T12:42:24Z</time>
      </trkpt>
      <trkpt lat="45.3106" lon="6.05171">
        <ele>1860.8</ele>
        <time>2021-01-16T12:42:25Z</time>
      </trkpt>
      <trkpt lat="45.31061" lon="6.05172">
        <ele>1860.8</ele>
        <time>2021-01-16T12:42:26Z</time>
      </trkpt>
      <trkpt lat="45.31061" lon="6.05172">
        <ele>1860.8</ele>
        <time>2021-01-16T12:42:27Z</time>
      </trkpt>
      <trkpt lat="45.31062" lon="6.05173">
        <ele>1860.8</ele>
        <time>2021-01-16T12:42:28Z</time>
      </trkpt>
      <trkpt lat="45.31063" lon="6.05174">
        <ele>1860.8</ele>
        <time>2021-01-16T12:42:29Z</time>
      </trkpt>
      <trkpt lat="45.31063" lon="6.05175">
        <ele>1860.8</ele>
        <time>2021-01-16T12:42:30Z</time>
      </trkpt>
      <trkpt lat="45.31064" lon="6.05175">
        <ele>1860.8</ele>
        <time>2021-01-16T12:42:31Z</time>
      </trkpt>
      <trkpt lat="45.31065" lon="6.05176">
        <ele>1860.8</ele>
        <time>2021-01-16T12:42:32Z</time>
      </trkpt>
      <trkpt lat="45.31065" lon="6.05177">
        <ele>1860.8</ele>
        <time>2021-01-16T12:42:33Z</time>
      </trkpt>
      <trkpt lat="45.31066" lon="6.05178">
        <ele>1860.8</ele>
        <time>2021-01-16T12:42:34Z</time>
      </trkpt>
      <trkpt lat="45.31067" lon="6.05179">
        <ele>1860.8</ele>
        <time>2021-01-16T12:42:35Z</time>
      </trkpt>
      <trkpt lat="45.31067" lon="6.0518">
        <ele>1860.8</ele>
        <time>2021-01-16T12:42:36Z</time>
      </trkpt>
      <trkpt lat="45.31068" lon="6.05181">
        <ele>1860.8</ele>
        <time>2021-01-16T12:42:37Z</time>
      </trkpt>
      <trkpt lat="45.31069" lon="6.05182">
        <ele>1860.6</ele>
        <time>2021-01-16T12:42:38Z</time>
      </trkpt>
      <trkpt lat="45.31069" lon="6.05183">
        <ele>1860.6</ele>
        <time>2021-01-16T12:42:39Z</time>
      </trkpt>
      <trkpt lat="45.3107" lon="6.05184">
        <ele>1860.6</ele>
        <time>2021-01-16T12:42:40Z</time>
      </trkpt>
      <trkpt lat="45.3107" lon="6.05185">
        <ele>1860.6</ele>
        <time>2021-01-16T12:42:41Z</time>
      </trkpt>
      <trkpt lat="45.31071" lon="6.05186">
        <ele>1860.6</ele>
        <time>2021-01-16T12:42:42Z</time>
      </trkpt>
      <trkpt lat="45.31071" lon="6.05186">
        <ele>1860.6</ele>
        <time>2021-01-16T12:42:43Z</time>
      </trkpt>
      <trkpt lat="45.31072" lon="6.05187">
        <ele>1860.6</ele>
        <time>2021-01-16T12:42:44Z</time>
      </trkpt>
      <trkpt lat="45.31073" lon="6.05188">
        <ele>1860.6</ele>
        <time>2021-01-16T12:42:45Z</time>
      </trkpt>
      <trkpt lat="45.31073" lon="6.05189">
        <ele>1860.6</ele>
        <time>2021-01-16T12:42:46Z</time>
      </trkpt>
      <trkpt lat="45.31074" lon="6.0519">
        <ele>1860.8</ele>
        <time>2021-01-16T12:42:47Z</time>
      </trkpt>
      <trkpt lat="45.31074" lon="6.05191">
        <ele>1860.8</ele>
        <time>2021-01-16T12:42:48Z</time>
      </trkpt>
      <trkpt lat="45.31075" lon="6.05192">
        <ele>1860.8</ele>
        <time>2021-01-16T12:42:49Z</time>
      </trkpt>
      <trkpt lat="45.31075" lon="6.05193">
        <ele>1860.8</ele>
        <time>2021-01-16T12:42:50Z</time>
      </trkpt>
      <trkpt lat="45.31075" lon="6.05194">
        <ele>1860.8</ele>
        <time>2021-01-16T12:42:51Z</time>
      </trkpt>
      <trkpt lat="45.31076" lon="6.05195">
        <ele>1860.8</ele>
        <time>2021-01-16T12:42:52Z</time>
      </trkpt>
      <trkpt lat="45.31076" lon="6.05196">
        <ele>1860.8</ele>
        <time>2021-01-16T12:42:53Z</time>
      </trkpt>
      <trkpt lat="45.31076" lon="6.05196">
        <ele>1861</ele>
        <time>2021-01-16T12:42:54Z</time>
      </trkpt>
      <trkpt lat="45.31076" lon="6.05198">
        <ele>1860.8</ele>
        <time>2021-01-16T12:42:55Z</time>
      </trkpt>
      <trkpt lat="45.31075" lon="6.052">
        <ele>1861</ele>
        <time>2021-01-16T12:42:56Z</time>
      </trkpt>
      <trkpt lat="45.31075" lon="6.05202">
        <ele>1861</ele>
        <time>2021-01-16T12:42:57Z</time>
      </trkpt>
      <trkpt lat="45.31075" lon="6.05203">
        <ele>1861</ele>
        <time>2021-01-16T12:42:58Z</time>
      </trkpt>
      <trkpt lat="45.31075" lon="6.05203">
        <ele>1861</ele>
        <time>2021-01-16T12:42:59Z</time>
      </trkpt>
      <trkpt lat="45.31075" lon="6.05203">
        <ele>1861</ele>
        <time>2021-01-16T12:43:00Z</time>
      </trkpt>
      <trkpt lat="45.31075" lon="6.05204">
        <ele>1861.2</ele>
        <time>2021-01-16T12:43:01Z</time>
      </trkpt>
      <trkpt lat="45.31075" lon="6.05204">
        <ele>1861</ele>
        <time>2021-01-16T12:43:02Z</time>
      </trkpt>
      <trkpt lat="45.31075" lon="6.05205">
        <ele>1861</ele>
        <time>2021-01-16T12:43:03Z</time>
      </trkpt>
      <trkpt lat="45.31076" lon="6.05205">
        <ele>1861</ele>
        <time>2021-01-16T12:43:04Z</time>
      </trkpt>
      <trkpt lat="45.31076" lon="6.05206">
        <ele>1861.2</ele>
        <time>2021-01-16T12:43:05Z</time>
      </trkpt>
      <trkpt lat="45.31076" lon="6.05206">
        <ele>1861</ele>
        <time>2021-01-16T12:43:06Z</time>
      </trkpt>
      <trkpt lat="45.31076" lon="6.05206">
        <ele>1861.2</ele>
        <time>2021-01-16T12:43:07Z</time>
      </trkpt>
      <trkpt lat="45.31076" lon="6.05206">
        <ele>1861.2</ele>
        <time>2021-01-16T12:43:08Z</time>
      </trkpt>
      <trkpt lat="45.31076" lon="6.05206">
        <ele>1861.2</ele>
        <time>2021-01-16T12:43:09Z</time>
      </trkpt>
      <trkpt lat="45.31076" lon="6.05206">
        <ele>1861</ele>
        <time>2021-01-16T12:43:10Z</time>
      </trkpt>
      <trkpt lat="45.31076" lon="6.05206">
        <ele>1861</ele>
        <time>2021-01-16T12:43:11Z</time>
      </trkpt>
      <trkpt lat="45.31076" lon="6.05206">
        <ele>1861</ele>
        <time>2021-01-16T12:43:12Z</time>
      </trkpt>
      <trkpt lat="45.31076" lon="6.05206">
        <ele>1861.2</ele>
        <time>2021-01-16T12:43:13Z</time>
      </trkpt>
      <trkpt lat="45.31076" lon="6.05206">
        <ele>1861</ele>
        <time>2021-01-16T12:43:14Z</time>
      </trkpt>
      <trkpt lat="45.31076" lon="6.05206">
        <ele>1861</ele>
        <time>2021-01-16T12:43:15Z</time>
      </trkpt>
      <trkpt lat="45.31076" lon="6.05206">
        <ele>1861</ele>
        <time>2021-01-16T12:43:16Z</time>
      </trkpt>
      <trkpt lat="45.31076" lon="6.05206">
        <ele>1861</ele>
        <time>2021-01-16T12:43:17Z</time>
      </trkpt>
      <trkpt lat="45.31076" lon="6.05206">
        <ele>1861</ele>
        <time>2021-01-16T12:43:18Z</time>
      </trkpt>
      <trkpt lat="45.31076" lon="6.05206">
        <ele>1861</ele>
        <time>2021-01-16T12:43:19Z</time>
      </trkpt>
      <trkpt lat="45.31076" lon="6.05206">
        <ele>1861</ele>
        <time>2021-01-16T12:43:20Z</time>
      </trkpt>
      <trkpt lat="45.31076" lon="6.05206">
        <ele>1861</ele>
        <time>2021-01-16T12:43:21Z</time>
      </trkpt>
      <trkpt lat="45.31076" lon="6.05206">
        <ele>1861</ele>
        <time>2021-01-16T12:43:22Z</time>
      </trkpt>
      <trkpt lat="45.31076" lon="6.05206">
        <ele>1861</ele>
        <time>2021-01-16T12:43:23Z</time>
      </trkpt>
      <trkpt lat="45.31076" lon="6.05206">
        <ele>1861</ele>
        <time>2021-01-16T12:43:24Z</time>
      </trkpt>
      <trkpt lat="45.31076" lon="6.05206">
        <ele>1861</ele>
        <time>2021-01-16T12:43:25Z</time>
      </trkpt>
      <trkpt lat="45.31076" lon="6.05206">
        <ele>1861</ele>
        <time>2021-01-16T12:43:26Z</time>
      </trkpt>
      <trkpt lat="45.31076" lon="6.05206">
        <ele>1861</ele>
        <time>2021-01-16T12:43:27Z</time>
      </trkpt>
      <trkpt lat="45.31076" lon="6.05206">
        <ele>1861</ele>
        <time>2021-01-16T12:43:28Z</time>
      </trkpt>
      <trkpt lat="45.31076" lon="6.05206">
        <ele>1861</ele>
        <time>2021-01-16T12:43:29Z</time>
      </trkpt>
      <trkpt lat="45.31076" lon="6.05206">
        <ele>1861</ele>
        <time>2021-01-16T12:43:30Z</time>
      </trkpt>
      <trkpt lat="45.31076" lon="6.05206">
        <ele>1861</ele>
        <time>2021-01-16T12:43:31Z</time>
      </trkpt>
      <trkpt lat="45.31076" lon="6.05206">
        <ele>1861</ele>
        <time>2021-01-16T12:43:32Z</time>
      </trkpt>
      <trkpt lat="45.31076" lon="6.05206">
        <ele>1861</ele>
        <time>2021-01-16T12:43:33Z</time>
      </trkpt>
      <trkpt lat="45.31076" lon="6.05206">
        <ele>1861</ele>
        <time>2021-01-16T12:43:34Z</time>
      </trkpt>
      <trkpt lat="45.31076" lon="6.05206">
        <ele>1861</ele>
        <time>2021-01-16T12:43:35Z</time>
      </trkpt>
      <trkpt lat="45.31076" lon="6.05206">
        <ele>1861</ele>
        <time>2021-01-16T12:43:36Z</time>
      </trkpt>
      <trkpt lat="45.31076" lon="6.05206">
        <ele>1861</ele>
        <time>2021-01-16T12:43:37Z</time>
      </trkpt>
      <trkpt lat="45.31076" lon="6.05206">
        <ele>1861</ele>
        <time>2021-01-16T12:43:38Z</time>
      </trkpt>
      <trkpt lat="45.31076" lon="6.05206">
        <ele>1861</ele>
        <time>2021-01-16T12:43:39Z</time>
      </trkpt>
      <trkpt lat="45.31076" lon="6.05206">
        <ele>1861</ele>
        <time>2021-01-16T12:43:40Z</time>
      </trkpt>
      <trkpt lat="45.31076" lon="6.05206">
        <ele>1861</ele>
        <time>2021-01-16T12:43:41Z</time>
      </trkpt>
      <trkpt lat="45.31076" lon="6.05206">
        <ele>1861</ele>
        <time>2021-01-16T12:43:42Z</time>
      </trkpt>
      <trkpt lat="45.31076" lon="6.05206">
        <ele>1861</ele>
        <time>2021-01-16T12:43:43Z</time>
      </trkpt>
      <trkpt lat="45.31076" lon="6.05206">
        <ele>1861</ele>
        <time>2021-01-16T12:43:44Z</time>
      </trkpt>
      <trkpt lat="45.31076" lon="6.05206">
        <ele>1861</ele>
        <time>2021-01-16T12:43:45Z</time>
      </trkpt>
      <trkpt lat="45.31076" lon="6.05206">
        <ele>1861</ele>
        <time>2021-01-16T12:43:46Z</time>
      </trkpt>
      <trkpt lat="45.31076" lon="6.05206">
        <ele>1861</ele>
        <time>2021-01-16T12:43:47Z</time>
      </trkpt>
      <trkpt lat="45.31076" lon="6.05206">
        <ele>1860.8</ele>
        <time>2021-01-16T12:43:48Z</time>
      </trkpt>
      <trkpt lat="45.31076" lon="6.05206">
        <ele>1860.8</ele>
        <time>2021-01-16T12:43:49Z</time>
      </trkpt>
      <trkpt lat="45.31076" lon="6.05206">
        <ele>1860.8</ele>
        <time>2021-01-16T12:43:50Z</time>
      </trkpt>
      <trkpt lat="45.31076" lon="6.05206">
        <ele>1860.8</ele>
        <time>2021-01-16T12:43:51Z</time>
      </trkpt>
      <trkpt lat="45.31076" lon="6.05206">
        <ele>1861</ele>
        <time>2021-01-16T12:43:52Z</time>
      </trkpt>
      <trkpt lat="45.31076" lon="6.05206">
        <ele>1861</ele>
        <time>2021-01-16T12:43:53Z</time>
      </trkpt>
      <trkpt lat="45.31076" lon="6.05206">
        <ele>1860.8</ele>
        <time>2021-01-16T12:43:54Z</time>
      </trkpt>
      <trkpt lat="45.31076" lon="6.05206">
        <ele>1861</ele>
        <time>2021-01-16T12:43:55Z</time>
      </trkpt>
      <trkpt lat="45.31076" lon="6.05206">
        <ele>1861</ele>
        <time>2021-01-16T12:43:56Z</time>
      </trkpt>
      <trkpt lat="45.31078" lon="6.05208">
        <ele>1861</ele>
        <time>2021-01-16T12:43:57Z</time>
      </trkpt>
      <trkpt lat="45.31078" lon="6.05209">
        <ele>1861</ele>
        <time>2021-01-16T12:43:58Z</time>
      </trkpt>
      <trkpt lat="45.31078" lon="6.05209">
        <ele>1861</ele>
        <time>2021-01-16T12:43:59Z</time>
      </trkpt>
      <trkpt lat="45.31078" lon="6.05209">
        <ele>1861</ele>
        <time>2021-01-16T12:44:00Z</time>
      </trkpt>
      <trkpt lat="45.31078" lon="6.05209">
        <ele>1861</ele>
        <time>2021-01-16T12:44:01Z</time>
      </trkpt>
      <trkpt lat="45.31078" lon="6.05209">
        <ele>1861</ele>
        <time>2021-01-16T12:44:02Z</time>
      </trkpt>
      <trkpt lat="45.31078" lon="6.05209">
        <ele>1861</ele>
        <time>2021-01-16T12:44:03Z</time>
      </trkpt>
      <trkpt lat="45.31078" lon="6.05209">
        <ele>1861</ele>
        <time>2021-01-16T12:44:04Z</time>
      </trkpt>
      <trkpt lat="45.31078" lon="6.05209">
        <ele>1861</ele>
        <time>2021-01-16T12:44:05Z</time>
      </trkpt>
      <trkpt lat="45.31078" lon="6.05209">
        <ele>1861</ele>
        <time>2021-01-16T12:44:06Z</time>
      </trkpt>
      <trkpt lat="45.31078" lon="6.05209">
        <ele>1861</ele>
        <time>2021-01-16T12:44:07Z</time>
      </trkpt>
      <trkpt lat="45.31078" lon="6.05209">
        <ele>1861</ele>
        <time>2021-01-16T12:44:08Z</time>
      </trkpt>
      <trkpt lat="45.31078" lon="6.05209">
        <ele>1861</ele>
        <time>2021-01-16T12:44:09Z</time>
      </trkpt>
      <trkpt lat="45.31078" lon="6.05209">
        <ele>1861</ele>
        <time>2021-01-16T12:44:10Z</time>
      </trkpt>
      <trkpt lat="45.31078" lon="6.05209">
        <ele>1861</ele>
        <time>2021-01-16T12:44:11Z</time>
      </trkpt>
      <trkpt lat="45.31078" lon="6.05209">
        <ele>1861</ele>
        <time>2021-01-16T12:44:12Z</time>
      </trkpt>
      <trkpt lat="45.31078" lon="6.05209">
        <ele>1861</ele>
        <time>2021-01-16T12:44:13Z</time>
      </trkpt>
      <trkpt lat="45.31078" lon="6.05209">
        <ele>1861</ele>
        <time>2021-01-16T12:44:14Z</time>
      </trkpt>
      <trkpt lat="45.31078" lon="6.05209">
        <ele>1861</ele>
        <time>2021-01-16T12:44:15Z</time>
      </trkpt>
      <trkpt lat="45.31078" lon="6.05209">
        <ele>1861</ele>
        <time>2021-01-16T12:44:16Z</time>
      </trkpt>
      <trkpt lat="45.31078" lon="6.05209">
        <ele>1861</ele>
        <time>2021-01-16T12:44:17Z</time>
      </trkpt>
      <trkpt lat="45.31078" lon="6.05209">
        <ele>1861</ele>
        <time>2021-01-16T12:44:18Z</time>
      </trkpt>
      <trkpt lat="45.31078" lon="6.05209">
        <ele>1861</ele>
        <time>2021-01-16T12:44:19Z</time>
      </trkpt>
      <trkpt lat="45.31078" lon="6.05209">
        <ele>1861</ele>
        <time>2021-01-16T12:44:20Z</time>
      </trkpt>
      <trkpt lat="45.31078" lon="6.05209">
        <ele>1861</ele>
        <time>2021-01-16T12:44:21Z</time>
      </trkpt>
      <trkpt lat="45.31078" lon="6.05209">
        <ele>1861</ele>
        <time>2021-01-16T12:44:22Z</time>
      </trkpt>
      <trkpt lat="45.31078" lon="6.05209">
        <ele>1860.8</ele>
        <time>2021-01-16T12:44:23Z</time>
      </trkpt>
      <trkpt lat="45.31078" lon="6.05209">
        <ele>1860.8</ele>
        <time>2021-01-16T12:44:24Z</time>
      </trkpt>
      <trkpt lat="45.31078" lon="6.05209">
        <ele>1860.8</ele>
        <time>2021-01-16T12:44:25Z</time>
      </trkpt>
      <trkpt lat="45.31078" lon="6.05209">
        <ele>1860.8</ele>
        <time>2021-01-16T12:44:26Z</time>
      </trkpt>
      <trkpt lat="45.31078" lon="6.05209">
        <ele>1860.8</ele>
        <time>2021-01-16T12:44:27Z</time>
      </trkpt>
      <trkpt lat="45.31078" lon="6.05209">
        <ele>1860.8</ele>
        <time>2021-01-16T12:44:28Z</time>
      </trkpt>
      <trkpt lat="45.31078" lon="6.05209">
        <ele>1860.8</ele>
        <time>2021-01-16T12:44:29Z</time>
      </trkpt>
      <trkpt lat="45.31078" lon="6.05209">
        <ele>1860.8</ele>
        <time>2021-01-16T12:44:30Z</time>
      </trkpt>
      <trkpt lat="45.31078" lon="6.05209">
        <ele>1860.8</ele>
        <time>2021-01-16T12:44:31Z</time>
      </trkpt>
      <trkpt lat="45.31078" lon="6.05209">
        <ele>1860.8</ele>
        <time>2021-01-16T12:44:32Z</time>
      </trkpt>
      <trkpt lat="45.31078" lon="6.05209">
        <ele>1860.8</ele>
        <time>2021-01-16T12:44:33Z</time>
      </trkpt>
      <trkpt lat="45.31078" lon="6.05209">
        <ele>1860.8</ele>
        <time>2021-01-16T12:44:34Z</time>
      </trkpt>
      <trkpt lat="45.31078" lon="6.05209">
        <ele>1860.8</ele>
        <time>2021-01-16T12:44:35Z</time>
      </trkpt>
      <trkpt lat="45.31078" lon="6.05209">
        <ele>1860.8</ele>
        <time>2021-01-16T12:44:36Z</time>
      </trkpt>
      <trkpt lat="45.31078" lon="6.05209">
        <ele>1860.8</ele>
        <time>2021-01-16T12:44:37Z</time>
      </trkpt>
      <trkpt lat="45.31078" lon="6.05209">
        <ele>1860.8</ele>
        <time>2021-01-16T12:44:38Z</time>
      </trkpt>
      <trkpt lat="45.31078" lon="6.05209">
        <ele>1860.8</ele>
        <time>2021-01-16T12:44:39Z</time>
      </trkpt>
      <trkpt lat="45.31078" lon="6.05209">
        <ele>1860.8</ele>
        <time>2021-01-16T12:44:40Z</time>
      </trkpt>
      <trkpt lat="45.31078" lon="6.05209">
        <ele>1860.8</ele>
        <time>2021-01-16T12:44:41Z</time>
      </trkpt>
      <trkpt lat="45.31078" lon="6.05209">
        <ele>1860.8</ele>
        <time>2021-01-16T12:44:42Z</time>
      </trkpt>
      <trkpt lat="45.31078" lon="6.05209">
        <ele>1860.8</ele>
        <time>2021-01-16T12:44:43Z</time>
      </trkpt>
      <trkpt lat="45.31078" lon="6.05209">
        <ele>1860.8</ele>
        <time>2021-01-16T12:44:44Z</time>
      </trkpt>
      <trkpt lat="45.31079" lon="6.05209">
        <ele>1860.6</ele>
        <time>2021-01-16T12:44:45Z</time>
      </trkpt>
      <trkpt lat="45.31079" lon="6.0521">
        <ele>1860.8</ele>
        <time>2021-01-16T12:44:46Z</time>
      </trkpt>
      <trkpt lat="45.3108" lon="6.0521">
        <ele>1860.8</ele>
        <time>2021-01-16T12:44:47Z</time>
      </trkpt>
      <trkpt lat="45.31081" lon="6.0521">
        <ele>1860.8</ele>
        <time>2021-01-16T12:44:48Z</time>
      </trkpt>
      <trkpt lat="45.31081" lon="6.0521">
        <ele>1860.6</ele>
        <time>2021-01-16T12:44:49Z</time>
      </trkpt>
      <trkpt lat="45.31082" lon="6.05211">
        <ele>1860.6</ele>
        <time>2021-01-16T12:44:50Z</time>
      </trkpt>
      <trkpt lat="45.31083" lon="6.05211">
        <ele>1860.6</ele>
        <time>2021-01-16T12:44:51Z</time>
      </trkpt>
      <trkpt lat="45.31084" lon="6.05211">
        <ele>1860.4</ele>
        <time>2021-01-16T12:44:52Z</time>
      </trkpt>
      <trkpt lat="45.31085" lon="6.05211">
        <ele>1860.4</ele>
        <time>2021-01-16T12:44:53Z</time>
      </trkpt>
      <trkpt lat="45.31085" lon="6.05211">
        <ele>1860.4</ele>
        <time>2021-01-16T12:44:54Z</time>
      </trkpt>
      <trkpt lat="45.31086" lon="6.05211">
        <ele>1860.2</ele>
        <time>2021-01-16T12:44:55Z</time>
      </trkpt>
      <trkpt lat="45.31087" lon="6.05211">
        <ele>1860.2</ele>
        <time>2021-01-16T12:44:56Z</time>
      </trkpt>
      <trkpt lat="45.31087" lon="6.05211">
        <ele>1860.2</ele>
        <time>2021-01-16T12:44:57Z</time>
      </trkpt>
      <trkpt lat="45.31088" lon="6.0521">
        <ele>1860.2</ele>
        <time>2021-01-16T12:44:58Z</time>
      </trkpt>
      <trkpt lat="45.31089" lon="6.0521">
        <ele>1860.2</ele>
        <time>2021-01-16T12:44:59Z</time>
      </trkpt>
      <trkpt lat="45.3109" lon="6.05209">
        <ele>1860.2</ele>
        <time>2021-01-16T12:45:00Z</time>
      </trkpt>
      <trkpt lat="45.31091" lon="6.05209">
        <ele>1860</ele>
        <time>2021-01-16T12:45:01Z</time>
      </trkpt>
      <trkpt lat="45.31091" lon="6.05209">
        <ele>1860</ele>
        <time>2021-01-16T12:45:02Z</time>
      </trkpt>
      <trkpt lat="45.31092" lon="6.05209">
        <ele>1860</ele>
        <time>2021-01-16T12:45:03Z</time>
      </trkpt>
      <trkpt lat="45.31092" lon="6.05209">
        <ele>1860</ele>
        <time>2021-01-16T12:45:04Z</time>
      </trkpt>
      <trkpt lat="45.31092" lon="6.0521">
        <ele>1860</ele>
        <time>2021-01-16T12:45:05Z</time>
      </trkpt>
      <trkpt lat="45.31092" lon="6.0521">
        <ele>1860</ele>
        <time>2021-01-16T12:45:06Z</time>
      </trkpt>
      <trkpt lat="45.31092" lon="6.0521">
        <ele>1860</ele>
        <time>2021-01-16T12:45:07Z</time>
      </trkpt>
      <trkpt lat="45.31092" lon="6.0521">
        <ele>1860</ele>
        <time>2021-01-16T12:45:08Z</time>
      </trkpt>
      <trkpt lat="45.31092" lon="6.0521">
        <ele>1860</ele>
        <time>2021-01-16T12:45:09Z</time>
      </trkpt>
      <trkpt lat="45.31092" lon="6.0521">
        <ele>1860</ele>
        <time>2021-01-16T12:45:10Z</time>
      </trkpt>
      <trkpt lat="45.31092" lon="6.0521">
        <ele>1859.8</ele>
        <time>2021-01-16T12:45:11Z</time>
      </trkpt>
      <trkpt lat="45.31092" lon="6.0521">
        <ele>1859.8</ele>
        <time>2021-01-16T12:45:12Z</time>
      </trkpt>
      <trkpt lat="45.31092" lon="6.0521">
        <ele>1859.8</ele>
        <time>2021-01-16T12:45:13Z</time>
      </trkpt>
      <trkpt lat="45.31092" lon="6.0521">
        <ele>1859.8</ele>
        <time>2021-01-16T12:45:14Z</time>
      </trkpt>
      <trkpt lat="45.31092" lon="6.0521">
        <ele>1859.8</ele>
        <time>2021-01-16T12:45:15Z</time>
      </trkpt>
      <trkpt lat="45.31092" lon="6.0521">
        <ele>1859.8</ele>
        <time>2021-01-16T12:45:16Z</time>
      </trkpt>
      <trkpt lat="45.31092" lon="6.0521">
        <ele>1859.8</ele>
        <time>2021-01-16T12:45:17Z</time>
      </trkpt>
      <trkpt lat="45.31092" lon="6.0521">
        <ele>1859.8</ele>
        <time>2021-01-16T12:45:18Z</time>
      </trkpt>
      <trkpt lat="45.31092" lon="6.0521">
        <ele>1859.8</ele>
        <time>2021-01-16T12:45:19Z</time>
      </trkpt>
      <trkpt lat="45.31092" lon="6.0521">
        <ele>1859.8</ele>
        <time>2021-01-16T12:45:20Z</time>
      </trkpt>
      <trkpt lat="45.31092" lon="6.0521">
        <ele>1859.8</ele>
        <time>2021-01-16T12:45:21Z</time>
      </trkpt>
      <trkpt lat="45.31092" lon="6.0521">
        <ele>1859.8</ele>
        <time>2021-01-16T12:45:22Z</time>
      </trkpt>
      <trkpt lat="45.31092" lon="6.0521">
        <ele>1859.8</ele>
        <time>2021-01-16T12:45:23Z</time>
      </trkpt>
      <trkpt lat="45.31092" lon="6.0521">
        <ele>1859.8</ele>
        <time>2021-01-16T12:45:24Z</time>
      </trkpt>
      <trkpt lat="45.31092" lon="6.0521">
        <ele>1859.8</ele>
        <time>2021-01-16T12:45:25Z</time>
      </trkpt>
      <trkpt lat="45.31092" lon="6.0521">
        <ele>1859.8</ele>
        <time>2021-01-16T12:45:26Z</time>
      </trkpt>
      <trkpt lat="45.31092" lon="6.0521">
        <ele>1859.8</ele>
        <time>2021-01-16T12:45:27Z</time>
      </trkpt>
      <trkpt lat="45.31092" lon="6.0521">
        <ele>1859.8</ele>
        <time>2021-01-16T12:45:28Z</time>
      </trkpt>
      <trkpt lat="45.31092" lon="6.0521">
        <ele>1859.8</ele>
        <time>2021-01-16T12:45:29Z</time>
      </trkpt>
      <trkpt lat="45.31092" lon="6.0521">
        <ele>1859.8</ele>
        <time>2021-01-16T12:45:30Z</time>
      </trkpt>
      <trkpt lat="45.31092" lon="6.0521">
        <ele>1859.8</ele>
        <time>2021-01-16T12:45:31Z</time>
      </trkpt>
      <trkpt lat="45.31092" lon="6.0521">
        <ele>1859.8</ele>
        <time>2021-01-16T12:45:32Z</time>
      </trkpt>
      <trkpt lat="45.31092" lon="6.0521">
        <ele>1859.8</ele>
        <time>2021-01-16T12:45:33Z</time>
      </trkpt>
      <trkpt lat="45.31092" lon="6.0521">
        <ele>1859.8</ele>
        <time>2021-01-16T12:45:34Z</time>
      </trkpt>
      <trkpt lat="45.31092" lon="6.0521">
        <ele>1859.8</ele>
        <time>2021-01-16T12:45:35Z</time>
      </trkpt>
      <trkpt lat="45.31092" lon="6.0521">
        <ele>1859.8</ele>
        <time>2021-01-16T12:45:36Z</time>
      </trkpt>
      <trkpt lat="45.31092" lon="6.0521">
        <ele>1859.8</ele>
        <time>2021-01-16T12:45:37Z</time>
      </trkpt>
      <trkpt lat="45.31092" lon="6.0521">
        <ele>1859.8</ele>
        <time>2021-01-16T12:45:38Z</time>
      </trkpt>
      <trkpt lat="45.31092" lon="6.0521">
        <ele>1859.8</ele>
        <time>2021-01-16T12:45:39Z</time>
      </trkpt>
      <trkpt lat="45.31092" lon="6.0521">
        <ele>1859.8</ele>
        <time>2021-01-16T12:45:40Z</time>
      </trkpt>
      <trkpt lat="45.31092" lon="6.0521">
        <ele>1859.8</ele>
        <time>2021-01-16T12:45:41Z</time>
      </trkpt>
      <trkpt lat="45.31092" lon="6.0521">
        <ele>1859.8</ele>
        <time>2021-01-16T12:45:42Z</time>
      </trkpt>
      <trkpt lat="45.31092" lon="6.0521">
        <ele>1859.6</ele>
        <time>2021-01-16T12:45:43Z</time>
      </trkpt>
      <trkpt lat="45.31092" lon="6.0521">
        <ele>1859.6</ele>
        <time>2021-01-16T12:45:44Z</time>
      </trkpt>
      <trkpt lat="45.31092" lon="6.0521">
        <ele>1859.6</ele>
        <time>2021-01-16T12:45:45Z</time>
      </trkpt>
      <trkpt lat="45.31092" lon="6.0521">
        <ele>1859.6</ele>
        <time>2021-01-16T12:45:46Z</time>
      </trkpt>
      <trkpt lat="45.31092" lon="6.0521">
        <ele>1859.6</ele>
        <time>2021-01-16T12:45:47Z</time>
      </trkpt>
      <trkpt lat="45.31092" lon="6.0521">
        <ele>1859.6</ele>
        <time>2021-01-16T12:45:48Z</time>
      </trkpt>
      <trkpt lat="45.31092" lon="6.0521">
        <ele>1859.6</ele>
        <time>2021-01-16T12:45:49Z</time>
      </trkpt>
      <trkpt lat="45.31092" lon="6.0521">
        <ele>1859.6</ele>
        <time>2021-01-16T12:45:50Z</time>
      </trkpt>
      <trkpt lat="45.31092" lon="6.0521">
        <ele>1859.6</ele>
        <time>2021-01-16T12:45:51Z</time>
      </trkpt>
      <trkpt lat="45.31092" lon="6.0521">
        <ele>1859.6</ele>
        <time>2021-01-16T12:45:52Z</time>
      </trkpt>
      <trkpt lat="45.31092" lon="6.0521">
        <ele>1859.6</ele>
        <time>2021-01-16T12:45:53Z</time>
      </trkpt>
      <trkpt lat="45.31092" lon="6.0521">
        <ele>1859.6</ele>
        <time>2021-01-16T12:45:54Z</time>
      </trkpt>
      <trkpt lat="45.31092" lon="6.0521">
        <ele>1859.4</ele>
        <time>2021-01-16T12:45:55Z</time>
      </trkpt>
      <trkpt lat="45.31092" lon="6.0521">
        <ele>1859.6</ele>
        <time>2021-01-16T12:45:56Z</time>
      </trkpt>
      <trkpt lat="45.31092" lon="6.0521">
        <ele>1859.6</ele>
        <time>2021-01-16T12:45:57Z</time>
      </trkpt>
      <trkpt lat="45.31092" lon="6.0521">
        <ele>1859.6</ele>
        <time>2021-01-16T12:45:58Z</time>
      </trkpt>
      <trkpt lat="45.31092" lon="6.0521">
        <ele>1859.6</ele>
        <time>2021-01-16T12:45:59Z</time>
      </trkpt>
      <trkpt lat="45.31092" lon="6.0521">
        <ele>1859.6</ele>
        <time>2021-01-16T12:46:00Z</time>
      </trkpt>
      <trkpt lat="45.31092" lon="6.0521">
        <ele>1859.6</ele>
        <time>2021-01-16T12:46:01Z</time>
      </trkpt>
      <trkpt lat="45.31092" lon="6.0521">
        <ele>1859.6</ele>
        <time>2021-01-16T12:46:02Z</time>
      </trkpt>
      <trkpt lat="45.31092" lon="6.0521">
        <ele>1859.4</ele>
        <time>2021-01-16T12:46:03Z</time>
      </trkpt>
      <trkpt lat="45.31092" lon="6.0521">
        <ele>1859.4</ele>
        <time>2021-01-16T12:46:04Z</time>
      </trkpt>
      <trkpt lat="45.31092" lon="6.0521">
        <ele>1859.4</ele>
        <time>2021-01-16T12:46:05Z</time>
      </trkpt>
      <trkpt lat="45.31092" lon="6.0521">
        <ele>1859.4</ele>
        <time>2021-01-16T12:46:06Z</time>
      </trkpt>
      <trkpt lat="45.31092" lon="6.0521">
        <ele>1859.4</ele>
        <time>2021-01-16T12:46:07Z</time>
      </trkpt>
      <trkpt lat="45.31092" lon="6.0521">
        <ele>1859.4</ele>
        <time>2021-01-16T12:46:08Z</time>
      </trkpt>
      <trkpt lat="45.31092" lon="6.0521">
        <ele>1859.4</ele>
        <time>2021-01-16T12:46:09Z</time>
      </trkpt>
      <trkpt lat="45.31092" lon="6.0521">
        <ele>1859.4</ele>
        <time>2021-01-16T12:46:10Z</time>
      </trkpt>
      <trkpt lat="45.31092" lon="6.0521">
        <ele>1859.4</ele>
        <time>2021-01-16T12:46:11Z</time>
      </trkpt>
      <trkpt lat="45.31092" lon="6.0521">
        <ele>1859.4</ele>
        <time>2021-01-16T12:46:12Z</time>
      </trkpt>
      <trkpt lat="45.31092" lon="6.0521">
        <ele>1859.4</ele>
        <time>2021-01-16T12:46:13Z</time>
      </trkpt>
      <trkpt lat="45.31092" lon="6.0521">
        <ele>1859.4</ele>
        <time>2021-01-16T12:46:14Z</time>
      </trkpt>
      <trkpt lat="45.31092" lon="6.0521">
        <ele>1859.4</ele>
        <time>2021-01-16T12:46:15Z</time>
      </trkpt>
      <trkpt lat="45.31092" lon="6.0521">
        <ele>1859.4</ele>
        <time>2021-01-16T12:46:16Z</time>
      </trkpt>
      <trkpt lat="45.31092" lon="6.0521">
        <ele>1859.4</ele>
        <time>2021-01-16T12:46:17Z</time>
      </trkpt>
      <trkpt lat="45.31092" lon="6.0521">
        <ele>1859.4</ele>
        <time>2021-01-16T12:46:18Z</time>
      </trkpt>
      <trkpt lat="45.31092" lon="6.0521">
        <ele>1859.4</ele>
        <time>2021-01-16T12:46:19Z</time>
      </trkpt>
      <trkpt lat="45.31092" lon="6.0521">
        <ele>1859.4</ele>
        <time>2021-01-16T12:46:20Z</time>
      </trkpt>
      <trkpt lat="45.31092" lon="6.0521">
        <ele>1859.4</ele>
        <time>2021-01-16T12:46:21Z</time>
      </trkpt>
      <trkpt lat="45.31092" lon="6.0521">
        <ele>1859.4</ele>
        <time>2021-01-16T12:46:22Z</time>
      </trkpt>
      <trkpt lat="45.31092" lon="6.0521">
        <ele>1859.4</ele>
        <time>2021-01-16T12:46:23Z</time>
      </trkpt>
      <trkpt lat="45.31092" lon="6.0521">
        <ele>1859.4</ele>
        <time>2021-01-16T12:46:24Z</time>
      </trkpt>
      <trkpt lat="45.31092" lon="6.0521">
        <ele>1859.4</ele>
        <time>2021-01-16T12:46:25Z</time>
      </trkpt>
      <trkpt lat="45.31092" lon="6.0521">
        <ele>1859.4</ele>
        <time>2021-01-16T12:46:26Z</time>
      </trkpt>
      <trkpt lat="45.31092" lon="6.0521">
        <ele>1859.4</ele>
        <time>2021-01-16T12:46:27Z</time>
      </trkpt>
      <trkpt lat="45.31092" lon="6.0521">
        <ele>1859.4</ele>
        <time>2021-01-16T12:46:28Z</time>
      </trkpt>
      <trkpt lat="45.31092" lon="6.0521">
        <ele>1859.4</ele>
        <time>2021-01-16T12:46:29Z</time>
      </trkpt>
      <trkpt lat="45.31092" lon="6.0521">
        <ele>1859.4</ele>
        <time>2021-01-16T12:46:30Z</time>
      </trkpt>
      <trkpt lat="45.31092" lon="6.0521">
        <ele>1859.4</ele>
        <time>2021-01-16T12:46:31Z</time>
      </trkpt>
      <trkpt lat="45.31092" lon="6.0521">
        <ele>1859.4</ele>
        <time>2021-01-16T12:46:32Z</time>
      </trkpt>
      <trkpt lat="45.31092" lon="6.0521">
        <ele>1859.4</ele>
        <time>2021-01-16T12:46:33Z</time>
      </trkpt>
      <trkpt lat="45.31092" lon="6.0521">
        <ele>1859.4</ele>
        <time>2021-01-16T12:46:34Z</time>
      </trkpt>
      <trkpt lat="45.31092" lon="6.0521">
        <ele>1859.4</ele>
        <time>2021-01-16T12:46:35Z</time>
      </trkpt>
      <trkpt lat="45.31092" lon="6.0521">
        <ele>1859.4</ele>
        <time>2021-01-16T12:46:36Z</time>
      </trkpt>
      <trkpt lat="45.31093" lon="6.05211">
        <ele>1859.2</ele>
        <time>2021-01-16T12:46:37Z</time>
      </trkpt>
      <trkpt lat="45.31093" lon="6.05211">
        <ele>1859.2</ele>
        <time>2021-01-16T12:46:38Z</time>
      </trkpt>
      <trkpt lat="45.31094" lon="6.05212">
        <ele>1859.2</ele>
        <time>2021-01-16T12:46:39Z</time>
      </trkpt>
      <trkpt lat="45.31094" lon="6.05213">
        <ele>1859.2</ele>
        <time>2021-01-16T12:46:40Z</time>
      </trkpt>
      <trkpt lat="45.31094" lon="6.05214">
        <ele>1859.2</ele>
        <time>2021-01-16T12:46:41Z</time>
      </trkpt>
      <trkpt lat="45.31094" lon="6.05216">
        <ele>1859.2</ele>
        <time>2021-01-16T12:46:42Z</time>
      </trkpt>
      <trkpt lat="45.31094" lon="6.05218">
        <ele>1859.2</ele>
        <time>2021-01-16T12:46:43Z</time>
      </trkpt>
      <trkpt lat="45.31094" lon="6.05219">
        <ele>1859.2</ele>
        <time>2021-01-16T12:46:44Z</time>
      </trkpt>
      <trkpt lat="45.31094" lon="6.0522">
        <ele>1859.2</ele>
        <time>2021-01-16T12:46:45Z</time>
      </trkpt>
      <trkpt lat="45.31094" lon="6.05222">
        <ele>1859.2</ele>
        <time>2021-01-16T12:46:46Z</time>
      </trkpt>
      <trkpt lat="45.31094" lon="6.05223">
        <ele>1859.2</ele>
        <time>2021-01-16T12:46:47Z</time>
      </trkpt>
      <trkpt lat="45.31095" lon="6.05224">
        <ele>1859.2</ele>
        <time>2021-01-16T12:46:48Z</time>
      </trkpt>
      <trkpt lat="45.31096" lon="6.05225">
        <ele>1859.2</ele>
        <time>2021-01-16T12:46:49Z</time>
      </trkpt>
      <trkpt lat="45.31096" lon="6.05226">
        <ele>1859.4</ele>
        <time>2021-01-16T12:46:50Z</time>
      </trkpt>
      <trkpt lat="45.31097" lon="6.05227">
        <ele>1859.4</ele>
        <time>2021-01-16T12:46:51Z</time>
      </trkpt>
      <trkpt lat="45.31098" lon="6.05228">
        <ele>1859.2</ele>
        <time>2021-01-16T12:46:52Z</time>
      </trkpt>
      <trkpt lat="45.31098" lon="6.05229">
        <ele>1859.2</ele>
        <time>2021-01-16T12:46:53Z</time>
      </trkpt>
      <trkpt lat="45.31099" lon="6.0523">
        <ele>1859.2</ele>
        <time>2021-01-16T12:46:54Z</time>
      </trkpt>
      <trkpt lat="45.31099" lon="6.05231">
        <ele>1859</ele>
        <time>2021-01-16T12:46:55Z</time>
      </trkpt>
      <trkpt lat="45.31099" lon="6.05231">
        <ele>1859.2</ele>
        <time>2021-01-16T12:46:56Z</time>
      </trkpt>
      <trkpt lat="45.31099" lon="6.05231">
        <ele>1859.2</ele>
        <time>2021-01-16T12:46:57Z</time>
      </trkpt>
      <trkpt lat="45.31099" lon="6.05231">
        <ele>1859.2</ele>
        <time>2021-01-16T12:46:58Z</time>
      </trkpt>
      <trkpt lat="45.31099" lon="6.05231">
        <ele>1859.2</ele>
        <time>2021-01-16T12:46:59Z</time>
      </trkpt>
      <trkpt lat="45.311" lon="6.05231">
        <ele>1859.2</ele>
        <time>2021-01-16T12:47:00Z</time>
      </trkpt>
      <trkpt lat="45.31101" lon="6.05231">
        <ele>1859.2</ele>
        <time>2021-01-16T12:47:01Z</time>
      </trkpt>
      <trkpt lat="45.31102" lon="6.05232">
        <ele>1859</ele>
        <time>2021-01-16T12:47:02Z</time>
      </trkpt>
      <trkpt lat="45.31102" lon="6.05232">
        <ele>1859</ele>
        <time>2021-01-16T12:47:03Z</time>
      </trkpt>
      <trkpt lat="45.31102" lon="6.05232">
        <ele>1859</ele>
        <time>2021-01-16T12:47:04Z</time>
      </trkpt>
      <trkpt lat="45.31102" lon="6.05232">
        <ele>1858.8</ele>
        <time>2021-01-16T12:47:05Z</time>
      </trkpt>
      <trkpt lat="45.31102" lon="6.05233">
        <ele>1858.8</ele>
        <time>2021-01-16T12:47:06Z</time>
      </trkpt>
      <trkpt lat="45.31102" lon="6.05233">
        <ele>1858.8</ele>
        <time>2021-01-16T12:47:07Z</time>
      </trkpt>
      <trkpt lat="45.31102" lon="6.05233">
        <ele>1858.8</ele>
        <time>2021-01-16T12:47:08Z</time>
      </trkpt>
      <trkpt lat="45.31102" lon="6.05233">
        <ele>1858.8</ele>
        <time>2021-01-16T12:47:09Z</time>
      </trkpt>
      <trkpt lat="45.31104" lon="6.05235">
        <ele>1858.8</ele>
        <time>2021-01-16T12:47:10Z</time>
      </trkpt>
      <trkpt lat="45.31104" lon="6.05236">
        <ele>1858.6</ele>
        <time>2021-01-16T12:47:11Z</time>
      </trkpt>
      <trkpt lat="45.31105" lon="6.05237">
        <ele>1858.6</ele>
        <time>2021-01-16T12:47:12Z</time>
      </trkpt>
      <trkpt lat="45.31106" lon="6.05237">
        <ele>1858.6</ele>
        <time>2021-01-16T12:47:13Z</time>
      </trkpt>
      <trkpt lat="45.31108" lon="6.05238">
        <ele>1858.6</ele>
        <time>2021-01-16T12:47:14Z</time>
      </trkpt>
      <trkpt lat="45.31109" lon="6.05239">
        <ele>1858.6</ele>
        <time>2021-01-16T12:47:15Z</time>
      </trkpt>
      <trkpt lat="45.31111" lon="6.0524">
        <ele>1858.4</ele>
        <time>2021-01-16T12:47:16Z</time>
      </trkpt>
      <trkpt lat="45.31113" lon="6.0524">
        <ele>1858.2</ele>
        <time>2021-01-16T12:47:17Z</time>
      </trkpt>
      <trkpt lat="45.31114" lon="6.05241">
        <ele>1858.2</ele>
        <time>2021-01-16T12:47:18Z</time>
      </trkpt>
      <trkpt lat="45.31116" lon="6.05241">
        <ele>1858</ele>
        <time>2021-01-16T12:47:19Z</time>
      </trkpt>
      <trkpt lat="45.31118" lon="6.05241">
        <ele>1857.8</ele>
        <time>2021-01-16T12:47:20Z</time>
      </trkpt>
      <trkpt lat="45.31119" lon="6.05241">
        <ele>1857.8</ele>
        <time>2021-01-16T12:47:21Z</time>
      </trkpt>
      <trkpt lat="45.3112" lon="6.05241">
        <ele>1857.6</ele>
        <time>2021-01-16T12:47:22Z</time>
      </trkpt>
      <trkpt lat="45.31122" lon="6.05241">
        <ele>1857.6</ele>
        <time>2021-01-16T12:47:23Z</time>
      </trkpt>
      <trkpt lat="45.31123" lon="6.05241">
        <ele>1857.6</ele>
        <time>2021-01-16T12:47:24Z</time>
      </trkpt>
      <trkpt lat="45.31124" lon="6.05242">
        <ele>1857.4</ele>
        <time>2021-01-16T12:47:25Z</time>
      </trkpt>
      <trkpt lat="45.31126" lon="6.05242">
        <ele>1857.4</ele>
        <time>2021-01-16T12:47:26Z</time>
      </trkpt>
      <trkpt lat="45.31127" lon="6.05242">
        <ele>1857.4</ele>
        <time>2021-01-16T12:47:27Z</time>
      </trkpt>
      <trkpt lat="45.31128" lon="6.05241">
        <ele>1857.4</ele>
        <time>2021-01-16T12:47:28Z</time>
      </trkpt>
      <trkpt lat="45.31129" lon="6.05241">
        <ele>1857.4</ele>
        <time>2021-01-16T12:47:29Z</time>
      </trkpt>
      <trkpt lat="45.3113" lon="6.05241">
        <ele>1857.6</ele>
        <time>2021-01-16T12:47:30Z</time>
      </trkpt>
      <trkpt lat="45.31131" lon="6.05241">
        <ele>1857.6</ele>
        <time>2021-01-16T12:47:31Z</time>
      </trkpt>
      <trkpt lat="45.31132" lon="6.05241">
        <ele>1857.6</ele>
        <time>2021-01-16T12:47:32Z</time>
      </trkpt>
      <trkpt lat="45.31133" lon="6.05241">
        <ele>1857.8</ele>
        <time>2021-01-16T12:47:33Z</time>
      </trkpt>
      <trkpt lat="45.31134" lon="6.05241">
        <ele>1857.8</ele>
        <time>2021-01-16T12:47:34Z</time>
      </trkpt>
      <trkpt lat="45.31135" lon="6.05241">
        <ele>1857.8</ele>
        <time>2021-01-16T12:47:35Z</time>
      </trkpt>
      <trkpt lat="45.31135" lon="6.05241">
        <ele>1858</ele>
        <time>2021-01-16T12:47:36Z</time>
      </trkpt>
      <trkpt lat="45.31137" lon="6.05241">
        <ele>1858</ele>
        <time>2021-01-16T12:47:37Z</time>
      </trkpt>
      <trkpt lat="45.31137" lon="6.05241">
        <ele>1858</ele>
        <time>2021-01-16T12:47:38Z</time>
      </trkpt>
      <trkpt lat="45.31138" lon="6.05241">
        <ele>1858.2</ele>
        <time>2021-01-16T12:47:39Z</time>
      </trkpt>
      <trkpt lat="45.31139" lon="6.05241">
        <ele>1858.2</ele>
        <time>2021-01-16T12:47:40Z</time>
      </trkpt>
      <trkpt lat="45.3114" lon="6.0524">
        <ele>1858.2</ele>
        <time>2021-01-16T12:47:41Z</time>
      </trkpt>
      <trkpt lat="45.31141" lon="6.0524">
        <ele>1858.4</ele>
        <time>2021-01-16T12:47:42Z</time>
      </trkpt>
      <trkpt lat="45.31142" lon="6.0524">
        <ele>1858.6</ele>
        <time>2021-01-16T12:47:43Z</time>
      </trkpt>
      <trkpt lat="45.31143" lon="6.0524">
        <ele>1858.6</ele>
        <time>2021-01-16T12:47:44Z</time>
      </trkpt>
      <trkpt lat="45.31144" lon="6.0524">
        <ele>1858.8</ele>
        <time>2021-01-16T12:47:45Z</time>
      </trkpt>
      <trkpt lat="45.31145" lon="6.05239">
        <ele>1859</ele>
        <time>2021-01-16T12:47:46Z</time>
      </trkpt>
      <trkpt lat="45.31145" lon="6.05239">
        <ele>1859</ele>
        <time>2021-01-16T12:47:47Z</time>
      </trkpt>
      <trkpt lat="45.31146" lon="6.05238">
        <ele>1859</ele>
        <time>2021-01-16T12:47:48Z</time>
      </trkpt>
      <trkpt lat="45.31147" lon="6.05238">
        <ele>1859.2</ele>
        <time>2021-01-16T12:47:49Z</time>
      </trkpt>
      <trkpt lat="45.31148" lon="6.05237">
        <ele>1859.4</ele>
        <time>2021-01-16T12:47:50Z</time>
      </trkpt>
      <trkpt lat="45.31149" lon="6.05237">
        <ele>1859.4</ele>
        <time>2021-01-16T12:47:51Z</time>
      </trkpt>
      <trkpt lat="45.3115" lon="6.05237">
        <ele>1859.6</ele>
        <time>2021-01-16T12:47:52Z</time>
      </trkpt>
      <trkpt lat="45.31151" lon="6.05238">
        <ele>1859.8</ele>
        <time>2021-01-16T12:47:53Z</time>
      </trkpt>
      <trkpt lat="45.31151" lon="6.05239">
        <ele>1860</ele>
        <time>2021-01-16T12:47:54Z</time>
      </trkpt>
      <trkpt lat="45.31151" lon="6.05239">
        <ele>1860.2</ele>
        <time>2021-01-16T12:47:55Z</time>
      </trkpt>
      <trkpt lat="45.31152" lon="6.0524">
        <ele>1860.6</ele>
        <time>2021-01-16T12:47:56Z</time>
      </trkpt>
      <trkpt lat="45.31152" lon="6.05241">
        <ele>1860.8</ele>
        <time>2021-01-16T12:47:57Z</time>
      </trkpt>
      <trkpt lat="45.31152" lon="6.05243">
        <ele>1860.6</ele>
        <time>2021-01-16T12:47:58Z</time>
      </trkpt>
      <trkpt lat="45.31152" lon="6.05244">
        <ele>1861</ele>
        <time>2021-01-16T12:47:59Z</time>
      </trkpt>
      <trkpt lat="45.31152" lon="6.05245">
        <ele>1861.2</ele>
        <time>2021-01-16T12:48:00Z</time>
      </trkpt>
      <trkpt lat="45.31152" lon="6.05247">
        <ele>1861.4</ele>
        <time>2021-01-16T12:48:01Z</time>
      </trkpt>
      <trkpt lat="45.31153" lon="6.05248">
        <ele>1861.6</ele>
        <time>2021-01-16T12:48:02Z</time>
      </trkpt>
      <trkpt lat="45.31153" lon="6.0525">
        <ele>1861.6</ele>
        <time>2021-01-16T12:48:03Z</time>
      </trkpt>
      <trkpt lat="45.31153" lon="6.05251">
        <ele>1861.8</ele>
        <time>2021-01-16T12:48:04Z</time>
      </trkpt>
      <trkpt lat="45.31154" lon="6.05252">
        <ele>1862</ele>
        <time>2021-01-16T12:48:05Z</time>
      </trkpt>
      <trkpt lat="45.31154" lon="6.05253">
        <ele>1862.2</ele>
        <time>2021-01-16T12:48:06Z</time>
      </trkpt>
      <trkpt lat="45.31155" lon="6.05254">
        <ele>1862.4</ele>
        <time>2021-01-16T12:48:07Z</time>
      </trkpt>
      <trkpt lat="45.31155" lon="6.05255">
        <ele>1862.6</ele>
        <time>2021-01-16T12:48:08Z</time>
      </trkpt>
      <trkpt lat="45.31156" lon="6.05255">
        <ele>1862.6</ele>
        <time>2021-01-16T12:48:09Z</time>
      </trkpt>
      <trkpt lat="45.31156" lon="6.05255">
        <ele>1862.6</ele>
        <time>2021-01-16T12:48:10Z</time>
      </trkpt>
      <trkpt lat="45.31157" lon="6.05255">
        <ele>1863</ele>
        <time>2021-01-16T12:48:11Z</time>
      </trkpt>
      <trkpt lat="45.31158" lon="6.05255">
        <ele>1863.2</ele>
        <time>2021-01-16T12:48:12Z</time>
      </trkpt>
      <trkpt lat="45.31159" lon="6.05255">
        <ele>1863.4</ele>
        <time>2021-01-16T12:48:13Z</time>
      </trkpt>
      <trkpt lat="45.3116" lon="6.05255">
        <ele>1863.8</ele>
        <time>2021-01-16T12:48:14Z</time>
      </trkpt>
      <trkpt lat="45.31161" lon="6.05255">
        <ele>1864</ele>
        <time>2021-01-16T12:48:15Z</time>
      </trkpt>
      <trkpt lat="45.31162" lon="6.05255">
        <ele>1864</ele>
        <time>2021-01-16T12:48:16Z</time>
      </trkpt>
      <trkpt lat="45.31162" lon="6.05255">
        <ele>1864.2</ele>
        <time>2021-01-16T12:48:17Z</time>
      </trkpt>
      <trkpt lat="45.31163" lon="6.05255">
        <ele>1864.4</ele>
        <time>2021-01-16T12:48:18Z</time>
      </trkpt>
      <trkpt lat="45.31164" lon="6.05256">
        <ele>1864.6</ele>
        <time>2021-01-16T12:48:19Z</time>
      </trkpt>
      <trkpt lat="45.31165" lon="6.05256">
        <ele>1864.8</ele>
        <time>2021-01-16T12:48:20Z</time>
      </trkpt>
      <trkpt lat="45.31165" lon="6.05257">
        <ele>1865</ele>
        <time>2021-01-16T12:48:21Z</time>
      </trkpt>
      <trkpt lat="45.31166" lon="6.05258">
        <ele>1865.2</ele>
        <time>2021-01-16T12:48:22Z</time>
      </trkpt>
      <trkpt lat="45.31166" lon="6.05259">
        <ele>1865.4</ele>
        <time>2021-01-16T12:48:23Z</time>
      </trkpt>
      <trkpt lat="45.31167" lon="6.05259">
        <ele>1865.6</ele>
        <time>2021-01-16T12:48:24Z</time>
      </trkpt>
      <trkpt lat="45.31167" lon="6.0526">
        <ele>1865.8</ele>
        <time>2021-01-16T12:48:25Z</time>
      </trkpt>
      <trkpt lat="45.31168" lon="6.05261">
        <ele>1865.8</ele>
        <time>2021-01-16T12:48:26Z</time>
      </trkpt>
      <trkpt lat="45.31169" lon="6.05261">
        <ele>1866</ele>
        <time>2021-01-16T12:48:27Z</time>
      </trkpt>
      <trkpt lat="45.31169" lon="6.05262">
        <ele>1866.2</ele>
        <time>2021-01-16T12:48:28Z</time>
      </trkpt>
      <trkpt lat="45.3117" lon="6.05263">
        <ele>1866.2</ele>
        <time>2021-01-16T12:48:29Z</time>
      </trkpt>
      <trkpt lat="45.3117" lon="6.05264">
        <ele>1866.4</ele>
        <time>2021-01-16T12:48:30Z</time>
      </trkpt>
      <trkpt lat="45.31171" lon="6.05265">
        <ele>1866.6</ele>
        <time>2021-01-16T12:48:31Z</time>
      </trkpt>
      <trkpt lat="45.31172" lon="6.05266">
        <ele>1866.6</ele>
        <time>2021-01-16T12:48:32Z</time>
      </trkpt>
      <trkpt lat="45.31172" lon="6.05266">
        <ele>1867</ele>
        <time>2021-01-16T12:48:33Z</time>
      </trkpt>
      <trkpt lat="45.31172" lon="6.05267">
        <ele>1867</ele>
        <time>2021-01-16T12:48:34Z</time>
      </trkpt>
      <trkpt lat="45.31172" lon="6.05268">
        <ele>1867.2</ele>
        <time>2021-01-16T12:48:35Z</time>
      </trkpt>
      <trkpt lat="45.31172" lon="6.05269">
        <ele>1867.4</ele>
        <time>2021-01-16T12:48:36Z</time>
      </trkpt>
      <trkpt lat="45.31173" lon="6.0527">
        <ele>1867.4</ele>
        <time>2021-01-16T12:48:37Z</time>
      </trkpt>
      <trkpt lat="45.31173" lon="6.05272">
        <ele>1867.6</ele>
        <time>2021-01-16T12:48:38Z</time>
      </trkpt>
      <trkpt lat="45.31173" lon="6.05274">
        <ele>1867.8</ele>
        <time>2021-01-16T12:48:39Z</time>
      </trkpt>
      <trkpt lat="45.31173" lon="6.05275">
        <ele>1868</ele>
        <time>2021-01-16T12:48:40Z</time>
      </trkpt>
      <trkpt lat="45.31173" lon="6.05276">
        <ele>1868.2</ele>
        <time>2021-01-16T12:48:41Z</time>
      </trkpt>
      <trkpt lat="45.31173" lon="6.05277">
        <ele>1868.2</ele>
        <time>2021-01-16T12:48:42Z</time>
      </trkpt>
      <trkpt lat="45.31174" lon="6.05278">
        <ele>1868.4</ele>
        <time>2021-01-16T12:48:43Z</time>
      </trkpt>
      <trkpt lat="45.31174" lon="6.05278">
        <ele>1868.6</ele>
        <time>2021-01-16T12:48:44Z</time>
      </trkpt>
      <trkpt lat="45.31175" lon="6.05279">
        <ele>1868.6</ele>
        <time>2021-01-16T12:48:45Z</time>
      </trkpt>
      <trkpt lat="45.31175" lon="6.0528">
        <ele>1868.8</ele>
        <time>2021-01-16T12:48:46Z</time>
      </trkpt>
      <trkpt lat="45.31175" lon="6.0528">
        <ele>1869</ele>
        <time>2021-01-16T12:48:47Z</time>
      </trkpt>
      <trkpt lat="45.31176" lon="6.05281">
        <ele>1869</ele>
        <time>2021-01-16T12:48:48Z</time>
      </trkpt>
      <trkpt lat="45.31176" lon="6.05281">
        <ele>1869.2</ele>
        <time>2021-01-16T12:48:49Z</time>
      </trkpt>
      <trkpt lat="45.31177" lon="6.05282">
        <ele>1869.2</ele>
        <time>2021-01-16T12:48:50Z</time>
      </trkpt>
      <trkpt lat="45.31178" lon="6.05282">
        <ele>1869.4</ele>
        <time>2021-01-16T12:48:51Z</time>
      </trkpt>
      <trkpt lat="45.31178" lon="6.05283">
        <ele>1869.6</ele>
        <time>2021-01-16T12:48:52Z</time>
      </trkpt>
      <trkpt lat="45.31179" lon="6.05283">
        <ele>1869.6</ele>
        <time>2021-01-16T12:48:53Z</time>
      </trkpt>
      <trkpt lat="45.31179" lon="6.05284">
        <ele>1869.6</ele>
        <time>2021-01-16T12:48:54Z</time>
      </trkpt>
      <trkpt lat="45.3118" lon="6.05284">
        <ele>1869.6</ele>
        <time>2021-01-16T12:48:55Z</time>
      </trkpt>
      <trkpt lat="45.3118" lon="6.05285">
        <ele>1869.8</ele>
        <time>2021-01-16T12:48:56Z</time>
      </trkpt>
      <trkpt lat="45.3118" lon="6.05285">
        <ele>1869.6</ele>
        <time>2021-01-16T12:48:57Z</time>
      </trkpt>
      <trkpt lat="45.31181" lon="6.05286">
        <ele>1869.8</ele>
        <time>2021-01-16T12:48:58Z</time>
      </trkpt>
      <trkpt lat="45.31181" lon="6.05287">
        <ele>1869.8</ele>
        <time>2021-01-16T12:48:59Z</time>
      </trkpt>
      <trkpt lat="45.31181" lon="6.05287">
        <ele>1869.8</ele>
        <time>2021-01-16T12:49:00Z</time>
      </trkpt>
      <trkpt lat="45.31182" lon="6.05287">
        <ele>1869.8</ele>
        <time>2021-01-16T12:49:01Z</time>
      </trkpt>
      <trkpt lat="45.31182" lon="6.05287">
        <ele>1869.8</ele>
        <time>2021-01-16T12:49:02Z</time>
      </trkpt>
      <trkpt lat="45.31182" lon="6.05287">
        <ele>1869.8</ele>
        <time>2021-01-16T12:49:03Z</time>
      </trkpt>
      <trkpt lat="45.31182" lon="6.05287">
        <ele>1869.8</ele>
        <time>2021-01-16T12:49:04Z</time>
      </trkpt>
      <trkpt lat="45.31182" lon="6.05287">
        <ele>1869.8</ele>
        <time>2021-01-16T12:49:05Z</time>
      </trkpt>
      <trkpt lat="45.31182" lon="6.05287">
        <ele>1869.8</ele>
        <time>2021-01-16T12:49:06Z</time>
      </trkpt>
      <trkpt lat="45.31182" lon="6.05287">
        <ele>1869.8</ele>
        <time>2021-01-16T12:49:07Z</time>
      </trkpt>
      <trkpt lat="45.31182" lon="6.05287">
        <ele>1869.8</ele>
        <time>2021-01-16T12:49:08Z</time>
      </trkpt>
      <trkpt lat="45.31182" lon="6.05287">
        <ele>1870</ele>
        <time>2021-01-16T12:49:09Z</time>
      </trkpt>
      <trkpt lat="45.31182" lon="6.05287">
        <ele>1869.8</ele>
        <time>2021-01-16T12:49:10Z</time>
      </trkpt>
      <trkpt lat="45.31182" lon="6.05287">
        <ele>1869.8</ele>
        <time>2021-01-16T12:49:11Z</time>
      </trkpt>
      <trkpt lat="45.31182" lon="6.05287">
        <ele>1869.8</ele>
        <time>2021-01-16T12:49:12Z</time>
      </trkpt>
      <trkpt lat="45.31182" lon="6.05287">
        <ele>1869.8</ele>
        <time>2021-01-16T12:49:13Z</time>
      </trkpt>
      <trkpt lat="45.31182" lon="6.05287">
        <ele>1869.8</ele>
        <time>2021-01-16T12:49:14Z</time>
      </trkpt>
      <trkpt lat="45.31182" lon="6.05287">
        <ele>1869.8</ele>
        <time>2021-01-16T12:49:15Z</time>
      </trkpt>
      <trkpt lat="45.31182" lon="6.05287">
        <ele>1869.8</ele>
        <time>2021-01-16T12:49:16Z</time>
      </trkpt>
      <trkpt lat="45.31182" lon="6.05287">
        <ele>1869.8</ele>
        <time>2021-01-16T12:49:17Z</time>
      </trkpt>
      <trkpt lat="45.31182" lon="6.05287">
        <ele>1869.8</ele>
        <time>2021-01-16T12:49:18Z</time>
      </trkpt>
      <trkpt lat="45.31182" lon="6.05287">
        <ele>1869.8</ele>
        <time>2021-01-16T12:49:19Z</time>
      </trkpt>
      <trkpt lat="45.31182" lon="6.05287">
        <ele>1869.8</ele>
        <time>2021-01-16T12:49:20Z</time>
      </trkpt>
      <trkpt lat="45.31182" lon="6.05287">
        <ele>1869.8</ele>
        <time>2021-01-16T12:49:21Z</time>
      </trkpt>
      <trkpt lat="45.31182" lon="6.05287">
        <ele>1869.8</ele>
        <time>2021-01-16T12:49:22Z</time>
      </trkpt>
      <trkpt lat="45.31182" lon="6.05287">
        <ele>1869.8</ele>
        <time>2021-01-16T12:49:23Z</time>
      </trkpt>
      <trkpt lat="45.31182" lon="6.05287">
        <ele>1869.8</ele>
        <time>2021-01-16T12:49:24Z</time>
      </trkpt>
      <trkpt lat="45.31182" lon="6.05287">
        <ele>1869.8</ele>
        <time>2021-01-16T12:49:25Z</time>
      </trkpt>
      <trkpt lat="45.31182" lon="6.05287">
        <ele>1869.8</ele>
        <time>2021-01-16T12:49:26Z</time>
      </trkpt>
      <trkpt lat="45.31182" lon="6.05287">
        <ele>1869.8</ele>
        <time>2021-01-16T12:49:27Z</time>
      </trkpt>
      <trkpt lat="45.31182" lon="6.05287">
        <ele>1869.8</ele>
        <time>2021-01-16T12:49:28Z</time>
      </trkpt>
      <trkpt lat="45.31182" lon="6.05287">
        <ele>1869.8</ele>
        <time>2021-01-16T12:49:29Z</time>
      </trkpt>
      <trkpt lat="45.31182" lon="6.05287">
        <ele>1869.8</ele>
        <time>2021-01-16T12:49:30Z</time>
      </trkpt>
      <trkpt lat="45.31182" lon="6.05287">
        <ele>1870</ele>
        <time>2021-01-16T12:49:31Z</time>
      </trkpt>
      <trkpt lat="45.31182" lon="6.05287">
        <ele>1870</ele>
        <time>2021-01-16T12:49:32Z</time>
      </trkpt>
      <trkpt lat="45.31182" lon="6.05287">
        <ele>1870.2</ele>
        <time>2021-01-16T12:49:33Z</time>
      </trkpt>
      <trkpt lat="45.31182" lon="6.05287">
        <ele>1870.2</ele>
        <time>2021-01-16T12:49:34Z</time>
      </trkpt>
      <trkpt lat="45.31182" lon="6.05287">
        <ele>1870.2</ele>
        <time>2021-01-16T12:49:35Z</time>
      </trkpt>
      <trkpt lat="45.31182" lon="6.05287">
        <ele>1870.2</ele>
        <time>2021-01-16T12:49:36Z</time>
      </trkpt>
      <trkpt lat="45.31182" lon="6.05287">
        <ele>1870.2</ele>
        <time>2021-01-16T12:49:37Z</time>
      </trkpt>
      <trkpt lat="45.31182" lon="6.05287">
        <ele>1870.2</ele>
        <time>2021-01-16T12:49:38Z</time>
      </trkpt>
      <trkpt lat="45.31182" lon="6.05287">
        <ele>1870</ele>
        <time>2021-01-16T12:49:39Z</time>
      </trkpt>
      <trkpt lat="45.31182" lon="6.05287">
        <ele>1870</ele>
        <time>2021-01-16T12:49:40Z</time>
      </trkpt>
      <trkpt lat="45.31182" lon="6.05287">
        <ele>1870</ele>
        <time>2021-01-16T12:49:41Z</time>
      </trkpt>
      <trkpt lat="45.31182" lon="6.05287">
        <ele>1870</ele>
        <time>2021-01-16T12:49:42Z</time>
      </trkpt>
      <trkpt lat="45.31182" lon="6.05287">
        <ele>1870</ele>
        <time>2021-01-16T12:49:43Z</time>
      </trkpt>
      <trkpt lat="45.31182" lon="6.05287">
        <ele>1870</ele>
        <time>2021-01-16T12:49:44Z</time>
      </trkpt>
      <trkpt lat="45.31182" lon="6.05287">
        <ele>1870</ele>
        <time>2021-01-16T12:49:45Z</time>
      </trkpt>
      <trkpt lat="45.31182" lon="6.05287">
        <ele>1870</ele>
        <time>2021-01-16T12:49:46Z</time>
      </trkpt>
      <trkpt lat="45.31182" lon="6.05287">
        <ele>1870</ele>
        <time>2021-01-16T12:49:47Z</time>
      </trkpt>
      <trkpt lat="45.31182" lon="6.05287">
        <ele>1870</ele>
        <time>2021-01-16T12:49:48Z</time>
      </trkpt>
      <trkpt lat="45.31182" lon="6.05287">
        <ele>1870</ele>
        <time>2021-01-16T12:49:49Z</time>
      </trkpt>
      <trkpt lat="45.31182" lon="6.05287">
        <ele>1870</ele>
        <time>2021-01-16T12:49:50Z</time>
      </trkpt>
      <trkpt lat="45.31182" lon="6.05287">
        <ele>1870</ele>
        <time>2021-01-16T12:49:51Z</time>
      </trkpt>
      <trkpt lat="45.31182" lon="6.05287">
        <ele>1870</ele>
        <time>2021-01-16T12:49:52Z</time>
      </trkpt>
      <trkpt lat="45.31182" lon="6.05287">
        <ele>1870</ele>
        <time>2021-01-16T12:49:53Z</time>
      </trkpt>
      <trkpt lat="45.31182" lon="6.05287">
        <ele>1870</ele>
        <time>2021-01-16T12:49:54Z</time>
      </trkpt>
      <trkpt lat="45.31182" lon="6.05287">
        <ele>1870</ele>
        <time>2021-01-16T12:49:55Z</time>
      </trkpt>
      <trkpt lat="45.31182" lon="6.05287">
        <ele>1870</ele>
        <time>2021-01-16T12:49:56Z</time>
      </trkpt>
      <trkpt lat="45.31182" lon="6.05287">
        <ele>1870</ele>
        <time>2021-01-16T12:49:57Z</time>
      </trkpt>
      <trkpt lat="45.31182" lon="6.05287">
        <ele>1869.8</ele>
        <time>2021-01-16T12:49:58Z</time>
      </trkpt>
      <trkpt lat="45.31182" lon="6.05287">
        <ele>1869.8</ele>
        <time>2021-01-16T12:49:59Z</time>
      </trkpt>
      <trkpt lat="45.31182" lon="6.05287">
        <ele>1869.8</ele>
        <time>2021-01-16T12:50:00Z</time>
      </trkpt>
      <trkpt lat="45.31182" lon="6.05287">
        <ele>1869.8</ele>
        <time>2021-01-16T12:50:01Z</time>
      </trkpt>
      <trkpt lat="45.31182" lon="6.05287">
        <ele>1869.8</ele>
        <time>2021-01-16T12:50:02Z</time>
      </trkpt>
      <trkpt lat="45.31182" lon="6.05287">
        <ele>1869.8</ele>
        <time>2021-01-16T12:50:03Z</time>
      </trkpt>
      <trkpt lat="45.31182" lon="6.05287">
        <ele>1869.8</ele>
        <time>2021-01-16T12:50:04Z</time>
      </trkpt>
      <trkpt lat="45.31182" lon="6.05287">
        <ele>1869.8</ele>
        <time>2021-01-16T12:50:05Z</time>
      </trkpt>
      <trkpt lat="45.31182" lon="6.05287">
        <ele>1869.8</ele>
        <time>2021-01-16T12:50:06Z</time>
      </trkpt>
      <trkpt lat="45.31182" lon="6.05287">
        <ele>1869.8</ele>
        <time>2021-01-16T12:50:07Z</time>
      </trkpt>
      <trkpt lat="45.31182" lon="6.05287">
        <ele>1869.8</ele>
        <time>2021-01-16T12:50:08Z</time>
      </trkpt>
      <trkpt lat="45.31182" lon="6.05287">
        <ele>1869.8</ele>
        <time>2021-01-16T12:50:09Z</time>
      </trkpt>
      <trkpt lat="45.31182" lon="6.05287">
        <ele>1869.6</ele>
        <time>2021-01-16T12:50:10Z</time>
      </trkpt>
      <trkpt lat="45.31182" lon="6.05287">
        <ele>1869.6</ele>
        <time>2021-01-16T12:50:11Z</time>
      </trkpt>
      <trkpt lat="45.31182" lon="6.05287">
        <ele>1869.6</ele>
        <time>2021-01-16T12:50:12Z</time>
      </trkpt>
      <trkpt lat="45.31182" lon="6.05287">
        <ele>1869.6</ele>
        <time>2021-01-16T12:50:13Z</time>
      </trkpt>
      <trkpt lat="45.31182" lon="6.05287">
        <ele>1869.6</ele>
        <time>2021-01-16T12:50:14Z</time>
      </trkpt>
      <trkpt lat="45.31182" lon="6.05287">
        <ele>1869.6</ele>
        <time>2021-01-16T12:50:15Z</time>
      </trkpt>
      <trkpt lat="45.31182" lon="6.05287">
        <ele>1869.6</ele>
        <time>2021-01-16T12:50:16Z</time>
      </trkpt>
      <trkpt lat="45.31182" lon="6.05287">
        <ele>1869.6</ele>
        <time>2021-01-16T12:50:17Z</time>
      </trkpt>
      <trkpt lat="45.31182" lon="6.05287">
        <ele>1869.6</ele>
        <time>2021-01-16T12:50:18Z</time>
      </trkpt>
      <trkpt lat="45.31182" lon="6.05287">
        <ele>1869.6</ele>
        <time>2021-01-16T12:50:19Z</time>
      </trkpt>
      <trkpt lat="45.31182" lon="6.05287">
        <ele>1869.6</ele>
        <time>2021-01-16T12:50:20Z</time>
      </trkpt>
      <trkpt lat="45.31182" lon="6.05287">
        <ele>1869.6</ele>
        <time>2021-01-16T12:50:21Z</time>
      </trkpt>
      <trkpt lat="45.31182" lon="6.05287">
        <ele>1869.6</ele>
        <time>2021-01-16T12:50:22Z</time>
      </trkpt>
      <trkpt lat="45.31182" lon="6.05287">
        <ele>1869.6</ele>
        <time>2021-01-16T12:50:23Z</time>
      </trkpt>
      <trkpt lat="45.31182" lon="6.05287">
        <ele>1869.6</ele>
        <time>2021-01-16T12:50:24Z</time>
      </trkpt>
      <trkpt lat="45.31182" lon="6.05287">
        <ele>1869.6</ele>
        <time>2021-01-16T12:50:25Z</time>
      </trkpt>
      <trkpt lat="45.31182" lon="6.05287">
        <ele>1869.6</ele>
        <time>2021-01-16T12:50:26Z</time>
      </trkpt>
      <trkpt lat="45.31182" lon="6.05287">
        <ele>1869.6</ele>
        <time>2021-01-16T12:50:27Z</time>
      </trkpt>
      <trkpt lat="45.31182" lon="6.05287">
        <ele>1869.6</ele>
        <time>2021-01-16T12:50:28Z</time>
      </trkpt>
      <trkpt lat="45.31182" lon="6.05287">
        <ele>1869.4</ele>
        <time>2021-01-16T12:50:29Z</time>
      </trkpt>
      <trkpt lat="45.31182" lon="6.05287">
        <ele>1869.4</ele>
        <time>2021-01-16T12:50:30Z</time>
      </trkpt>
      <trkpt lat="45.31182" lon="6.05287">
        <ele>1869.4</ele>
        <time>2021-01-16T12:50:31Z</time>
      </trkpt>
      <trkpt lat="45.31182" lon="6.05287">
        <ele>1869.4</ele>
        <time>2021-01-16T12:50:32Z</time>
      </trkpt>
      <trkpt lat="45.31182" lon="6.05287">
        <ele>1869.4</ele>
        <time>2021-01-16T12:50:33Z</time>
      </trkpt>
      <trkpt lat="45.31182" lon="6.05287">
        <ele>1869.4</ele>
        <time>2021-01-16T12:50:34Z</time>
      </trkpt>
      <trkpt lat="45.31182" lon="6.05287">
        <ele>1869.4</ele>
        <time>2021-01-16T12:50:35Z</time>
      </trkpt>
      <trkpt lat="45.31182" lon="6.05287">
        <ele>1869.4</ele>
        <time>2021-01-16T12:50:36Z</time>
      </trkpt>
      <trkpt lat="45.31182" lon="6.05287">
        <ele>1869.4</ele>
        <time>2021-01-16T12:50:37Z</time>
      </trkpt>
      <trkpt lat="45.31182" lon="6.05287">
        <ele>1869.4</ele>
        <time>2021-01-16T12:50:38Z</time>
      </trkpt>
      <trkpt lat="45.31182" lon="6.05287">
        <ele>1869.4</ele>
        <time>2021-01-16T12:50:39Z</time>
      </trkpt>
      <trkpt lat="45.31182" lon="6.05287">
        <ele>1869.4</ele>
        <time>2021-01-16T12:50:40Z</time>
      </trkpt>
      <trkpt lat="45.31182" lon="6.05287">
        <ele>1869.4</ele>
        <time>2021-01-16T12:50:41Z</time>
      </trkpt>
      <trkpt lat="45.31182" lon="6.05287">
        <ele>1869.4</ele>
        <time>2021-01-16T12:50:42Z</time>
      </trkpt>
      <trkpt lat="45.31182" lon="6.05287">
        <ele>1869.4</ele>
        <time>2021-01-16T12:50:43Z</time>
      </trkpt>
      <trkpt lat="45.31182" lon="6.05287">
        <ele>1869.4</ele>
        <time>2021-01-16T12:50:44Z</time>
      </trkpt>
      <trkpt lat="45.31182" lon="6.05287">
        <ele>1869.4</ele>
        <time>2021-01-16T12:50:45Z</time>
      </trkpt>
      <trkpt lat="45.31182" lon="6.05287">
        <ele>1869.4</ele>
        <time>2021-01-16T12:50:46Z</time>
      </trkpt>
      <trkpt lat="45.31182" lon="6.05287">
        <ele>1869.4</ele>
        <time>2021-01-16T12:50:47Z</time>
      </trkpt>
      <trkpt lat="45.31182" lon="6.05287">
        <ele>1869.4</ele>
        <time>2021-01-16T12:50:48Z</time>
      </trkpt>
      <trkpt lat="45.31182" lon="6.05287">
        <ele>1869.4</ele>
        <time>2021-01-16T12:50:49Z</time>
      </trkpt>
      <trkpt lat="45.31182" lon="6.05287">
        <ele>1869.4</ele>
        <time>2021-01-16T12:50:50Z</time>
      </trkpt>
      <trkpt lat="45.31182" lon="6.05287">
        <ele>1869.4</ele>
        <time>2021-01-16T12:50:51Z</time>
      </trkpt>
      <trkpt lat="45.31182" lon="6.05287">
        <ele>1869.4</ele>
        <time>2021-01-16T12:50:52Z</time>
      </trkpt>
      <trkpt lat="45.31182" lon="6.05287">
        <ele>1869.6</ele>
        <time>2021-01-16T12:50:53Z</time>
      </trkpt>
      <trkpt lat="45.31182" lon="6.05287">
        <ele>1869.6</ele>
        <time>2021-01-16T12:50:54Z</time>
      </trkpt>
      <trkpt lat="45.31182" lon="6.05287">
        <ele>1869.6</ele>
        <time>2021-01-16T12:50:55Z</time>
      </trkpt>
      <trkpt lat="45.31182" lon="6.05287">
        <ele>1869.4</ele>
        <time>2021-01-16T12:50:56Z</time>
      </trkpt>
      <trkpt lat="45.31182" lon="6.05287">
        <ele>1869.4</ele>
        <time>2021-01-16T12:50:57Z</time>
      </trkpt>
      <trkpt lat="45.31182" lon="6.05287">
        <ele>1869.4</ele>
        <time>2021-01-16T12:50:58Z</time>
      </trkpt>
      <trkpt lat="45.31182" lon="6.05287">
        <ele>1869.4</ele>
        <time>2021-01-16T12:50:59Z</time>
      </trkpt>
      <trkpt lat="45.31182" lon="6.05287">
        <ele>1869.4</ele>
        <time>2021-01-16T12:51:00Z</time>
      </trkpt>
      <trkpt lat="45.31182" lon="6.05287">
        <ele>1869.4</ele>
        <time>2021-01-16T12:51:01Z</time>
      </trkpt>
      <trkpt lat="45.31182" lon="6.05287">
        <ele>1869.4</ele>
        <time>2021-01-16T12:51:02Z</time>
      </trkpt>
      <trkpt lat="45.31182" lon="6.05287">
        <ele>1869.4</ele>
        <time>2021-01-16T12:51:03Z</time>
      </trkpt>
      <trkpt lat="45.31182" lon="6.05287">
        <ele>1869.4</ele>
        <time>2021-01-16T12:51:04Z</time>
      </trkpt>
      <trkpt lat="45.31182" lon="6.05287">
        <ele>1869.4</ele>
        <time>2021-01-16T12:51:05Z</time>
      </trkpt>
      <trkpt lat="45.31182" lon="6.05287">
        <ele>1869.2</ele>
        <time>2021-01-16T12:51:06Z</time>
      </trkpt>
      <trkpt lat="45.31182" lon="6.05287">
        <ele>1869.2</ele>
        <time>2021-01-16T12:51:07Z</time>
      </trkpt>
      <trkpt lat="45.31182" lon="6.05287">
        <ele>1869.2</ele>
        <time>2021-01-16T12:51:08Z</time>
      </trkpt>
      <trkpt lat="45.31182" lon="6.05287">
        <ele>1869.2</ele>
        <time>2021-01-16T12:51:09Z</time>
      </trkpt>
      <trkpt lat="45.31182" lon="6.05287">
        <ele>1869.2</ele>
        <time>2021-01-16T12:51:10Z</time>
      </trkpt>
      <trkpt lat="45.31182" lon="6.05287">
        <ele>1869.2</ele>
        <time>2021-01-16T12:51:11Z</time>
      </trkpt>
      <trkpt lat="45.31182" lon="6.05287">
        <ele>1869.2</ele>
        <time>2021-01-16T12:51:12Z</time>
      </trkpt>
      <trkpt lat="45.31182" lon="6.05287">
        <ele>1869.2</ele>
        <time>2021-01-16T12:51:13Z</time>
      </trkpt>
      <trkpt lat="45.31182" lon="6.05287">
        <ele>1869.2</ele>
        <time>2021-01-16T12:51:14Z</time>
      </trkpt>
      <trkpt lat="45.31182" lon="6.05287">
        <ele>1869.2</ele>
        <time>2021-01-16T12:51:15Z</time>
      </trkpt>
      <trkpt lat="45.31182" lon="6.05287">
        <ele>1869.2</ele>
        <time>2021-01-16T12:51:16Z</time>
      </trkpt>
      <trkpt lat="45.31182" lon="6.05287">
        <ele>1869.2</ele>
        <time>2021-01-16T12:51:17Z</time>
      </trkpt>
      <trkpt lat="45.31182" lon="6.05287">
        <ele>1869</ele>
        <time>2021-01-16T12:51:18Z</time>
      </trkpt>
      <trkpt lat="45.31182" lon="6.05287">
        <ele>1869</ele>
        <time>2021-01-16T12:51:19Z</time>
      </trkpt>
      <trkpt lat="45.31182" lon="6.05287">
        <ele>1869</ele>
        <time>2021-01-16T12:51:20Z</time>
      </trkpt>
      <trkpt lat="45.31182" lon="6.05287">
        <ele>1869</ele>
        <time>2021-01-16T12:51:21Z</time>
      </trkpt>
      <trkpt lat="45.31182" lon="6.05287">
        <ele>1869</ele>
        <time>2021-01-16T12:51:22Z</time>
      </trkpt>
      <trkpt lat="45.31182" lon="6.05287">
        <ele>1869</ele>
        <time>2021-01-16T12:51:23Z</time>
      </trkpt>
      <trkpt lat="45.31182" lon="6.05287">
        <ele>1869.2</ele>
        <time>2021-01-16T12:51:24Z</time>
      </trkpt>
      <trkpt lat="45.31182" lon="6.05287">
        <ele>1869</ele>
        <time>2021-01-16T12:51:25Z</time>
      </trkpt>
      <trkpt lat="45.31182" lon="6.05287">
        <ele>1869</ele>
        <time>2021-01-16T12:51:26Z</time>
      </trkpt>
      <trkpt lat="45.31182" lon="6.05287">
        <ele>1869</ele>
        <time>2021-01-16T12:51:27Z</time>
      </trkpt>
      <trkpt lat="45.31182" lon="6.05287">
        <ele>1869</ele>
        <time>2021-01-16T12:51:28Z</time>
      </trkpt>
      <trkpt lat="45.31182" lon="6.05287">
        <ele>1869</ele>
        <time>2021-01-16T12:51:29Z</time>
      </trkpt>
      <trkpt lat="45.31182" lon="6.05287">
        <ele>1869</ele>
        <time>2021-01-16T12:51:30Z</time>
      </trkpt>
      <trkpt lat="45.31182" lon="6.05287">
        <ele>1869</ele>
        <time>2021-01-16T12:51:31Z</time>
      </trkpt>
      <trkpt lat="45.31182" lon="6.05287">
        <ele>1869</ele>
        <time>2021-01-16T12:51:32Z</time>
      </trkpt>
      <trkpt lat="45.31182" lon="6.05287">
        <ele>1869</ele>
        <time>2021-01-16T12:51:33Z</time>
      </trkpt>
      <trkpt lat="45.31182" lon="6.05287">
        <ele>1869</ele>
        <time>2021-01-16T12:51:34Z</time>
      </trkpt>
      <trkpt lat="45.31182" lon="6.05287">
        <ele>1869</ele>
        <time>2021-01-16T12:51:35Z</time>
      </trkpt>
      <trkpt lat="45.31182" lon="6.05287">
        <ele>1869</ele>
        <time>2021-01-16T12:51:36Z</time>
      </trkpt>
      <trkpt lat="45.31182" lon="6.05287">
        <ele>1869</ele>
        <time>2021-01-16T12:51:37Z</time>
      </trkpt>
      <trkpt lat="45.31182" lon="6.05287">
        <ele>1869</ele>
        <time>2021-01-16T12:51:38Z</time>
      </trkpt>
      <trkpt lat="45.31182" lon="6.05287">
        <ele>1869</ele>
        <time>2021-01-16T12:51:39Z</time>
      </trkpt>
      <trkpt lat="45.31182" lon="6.05287">
        <ele>1869</ele>
        <time>2021-01-16T12:51:40Z</time>
      </trkpt>
      <trkpt lat="45.31182" lon="6.05287">
        <ele>1869</ele>
        <time>2021-01-16T12:51:41Z</time>
      </trkpt>
      <trkpt lat="45.31182" lon="6.05287">
        <ele>1869</ele>
        <time>2021-01-16T12:51:42Z</time>
      </trkpt>
      <trkpt lat="45.31182" lon="6.05287">
        <ele>1869</ele>
        <time>2021-01-16T12:51:43Z</time>
      </trkpt>
      <trkpt lat="45.31182" lon="6.05287">
        <ele>1869</ele>
        <time>2021-01-16T12:51:44Z</time>
      </trkpt>
      <trkpt lat="45.31182" lon="6.05287">
        <ele>1869</ele>
        <time>2021-01-16T12:51:45Z</time>
      </trkpt>
      <trkpt lat="45.31182" lon="6.05287">
        <ele>1869</ele>
        <time>2021-01-16T12:51:46Z</time>
      </trkpt>
      <trkpt lat="45.31182" lon="6.05287">
        <ele>1869</ele>
        <time>2021-01-16T12:51:47Z</time>
      </trkpt>
      <trkpt lat="45.31182" lon="6.05287">
        <ele>1869</ele>
        <time>2021-01-16T12:51:48Z</time>
      </trkpt>
      <trkpt lat="45.31182" lon="6.05287">
        <ele>1869</ele>
        <time>2021-01-16T12:51:49Z</time>
      </trkpt>
      <trkpt lat="45.31182" lon="6.05287">
        <ele>1869</ele>
        <time>2021-01-16T12:51:50Z</time>
      </trkpt>
      <trkpt lat="45.31182" lon="6.05287">
        <ele>1869</ele>
        <time>2021-01-16T12:51:51Z</time>
      </trkpt>
      <trkpt lat="45.31182" lon="6.05287">
        <ele>1869</ele>
        <time>2021-01-16T12:51:52Z</time>
      </trkpt>
      <trkpt lat="45.31182" lon="6.05287">
        <ele>1869</ele>
        <time>2021-01-16T12:51:53Z</time>
      </trkpt>
      <trkpt lat="45.31182" lon="6.05287">
        <ele>1869</ele>
        <time>2021-01-16T12:51:54Z</time>
      </trkpt>
      <trkpt lat="45.31182" lon="6.05287">
        <ele>1869</ele>
        <time>2021-01-16T12:51:55Z</time>
      </trkpt>
      <trkpt lat="45.31182" lon="6.05287">
        <ele>1869</ele>
        <time>2021-01-16T12:51:56Z</time>
      </trkpt>
      <trkpt lat="45.31182" lon="6.05287">
        <ele>1869</ele>
        <time>2021-01-16T12:51:57Z</time>
      </trkpt>
      <trkpt lat="45.31182" lon="6.05287">
        <ele>1869</ele>
        <time>2021-01-16T12:51:58Z</time>
      </trkpt>
      <trkpt lat="45.31182" lon="6.05287">
        <ele>1869.2</ele>
        <time>2021-01-16T12:51:59Z</time>
      </trkpt>
      <trkpt lat="45.31182" lon="6.05287">
        <ele>1869.2</ele>
        <time>2021-01-16T12:52:00Z</time>
      </trkpt>
      <trkpt lat="45.31182" lon="6.05287">
        <ele>1869.2</ele>
        <time>2021-01-16T12:52:01Z</time>
      </trkpt>
      <trkpt lat="45.31182" lon="6.05287">
        <ele>1869.2</ele>
        <time>2021-01-16T12:52:02Z</time>
      </trkpt>
      <trkpt lat="45.31182" lon="6.05287">
        <ele>1869</ele>
        <time>2021-01-16T12:52:03Z</time>
      </trkpt>
      <trkpt lat="45.31182" lon="6.05287">
        <ele>1869</ele>
        <time>2021-01-16T12:52:04Z</time>
      </trkpt>
      <trkpt lat="45.31182" lon="6.05287">
        <ele>1869</ele>
        <time>2021-01-16T12:52:05Z</time>
      </trkpt>
      <trkpt lat="45.31182" lon="6.05287">
        <ele>1868.8</ele>
        <time>2021-01-16T12:52:06Z</time>
      </trkpt>
      <trkpt lat="45.31182" lon="6.05287">
        <ele>1868.8</ele>
        <time>2021-01-16T12:52:07Z</time>
      </trkpt>
      <trkpt lat="45.31182" lon="6.05287">
        <ele>1868.8</ele>
        <time>2021-01-16T12:52:08Z</time>
      </trkpt>
      <trkpt lat="45.31182" lon="6.05287">
        <ele>1869</ele>
        <time>2021-01-16T12:52:09Z</time>
      </trkpt>
      <trkpt lat="45.31182" lon="6.05287">
        <ele>1869</ele>
        <time>2021-01-16T12:52:10Z</time>
      </trkpt>
      <trkpt lat="45.31182" lon="6.05287">
        <ele>1869</ele>
        <time>2021-01-16T12:52:11Z</time>
      </trkpt>
      <trkpt lat="45.31182" lon="6.05287">
        <ele>1869</ele>
        <time>2021-01-16T12:52:12Z</time>
      </trkpt>
      <trkpt lat="45.31182" lon="6.05287">
        <ele>1869</ele>
        <time>2021-01-16T12:52:13Z</time>
      </trkpt>
      <trkpt lat="45.31182" lon="6.05287">
        <ele>1869</ele>
        <time>2021-01-16T12:52:14Z</time>
      </trkpt>
      <trkpt lat="45.31182" lon="6.05287">
        <ele>1869</ele>
        <time>2021-01-16T12:52:15Z</time>
      </trkpt>
      <trkpt lat="45.31182" lon="6.05287">
        <ele>1869</ele>
        <time>2021-01-16T12:52:16Z</time>
      </trkpt>
      <trkpt lat="45.31182" lon="6.05287">
        <ele>1868.8</ele>
        <time>2021-01-16T12:52:17Z</time>
      </trkpt>
      <trkpt lat="45.31182" lon="6.05287">
        <ele>1869</ele>
        <time>2021-01-16T12:52:18Z</time>
      </trkpt>
      <trkpt lat="45.31182" lon="6.05287">
        <ele>1869</ele>
        <time>2021-01-16T12:52:19Z</time>
      </trkpt>
      <trkpt lat="45.31182" lon="6.05287">
        <ele>1869</ele>
        <time>2021-01-16T12:52:20Z</time>
      </trkpt>
      <trkpt lat="45.31182" lon="6.05287">
        <ele>1869</ele>
        <time>2021-01-16T12:52:21Z</time>
      </trkpt>
      <trkpt lat="45.31182" lon="6.05287">
        <ele>1869</ele>
        <time>2021-01-16T12:52:22Z</time>
      </trkpt>
      <trkpt lat="45.31182" lon="6.05287">
        <ele>1869</ele>
        <time>2021-01-16T12:52:23Z</time>
      </trkpt>
      <trkpt lat="45.31182" lon="6.05287">
        <ele>1869</ele>
        <time>2021-01-16T12:52:24Z</time>
      </trkpt>
      <trkpt lat="45.31182" lon="6.05287">
        <ele>1869</ele>
        <time>2021-01-16T12:52:25Z</time>
      </trkpt>
      <trkpt lat="45.31182" lon="6.05287">
        <ele>1869</ele>
        <time>2021-01-16T12:52:26Z</time>
      </trkpt>
      <trkpt lat="45.31182" lon="6.05287">
        <ele>1869</ele>
        <time>2021-01-16T12:52:27Z</time>
      </trkpt>
      <trkpt lat="45.31182" lon="6.05287">
        <ele>1869</ele>
        <time>2021-01-16T12:52:28Z</time>
      </trkpt>
      <trkpt lat="45.31182" lon="6.05287">
        <ele>1869</ele>
        <time>2021-01-16T12:52:29Z</time>
      </trkpt>
      <trkpt lat="45.31182" lon="6.05287">
        <ele>1869</ele>
        <time>2021-01-16T12:52:30Z</time>
      </trkpt>
      <trkpt lat="45.31182" lon="6.05287">
        <ele>1869</ele>
        <time>2021-01-16T12:52:31Z</time>
      </trkpt>
      <trkpt lat="45.31182" lon="6.05287">
        <ele>1869</ele>
        <time>2021-01-16T12:52:32Z</time>
      </trkpt>
      <trkpt lat="45.31182" lon="6.05287">
        <ele>1869</ele>
        <time>2021-01-16T12:52:33Z</time>
      </trkpt>
      <trkpt lat="45.31182" lon="6.05287">
        <ele>1869</ele>
        <time>2021-01-16T12:52:34Z</time>
      </trkpt>
      <trkpt lat="45.31182" lon="6.05287">
        <ele>1869</ele>
        <time>2021-01-16T12:52:35Z</time>
      </trkpt>
      <trkpt lat="45.31182" lon="6.05287">
        <ele>1869</ele>
        <time>2021-01-16T12:52:36Z</time>
      </trkpt>
      <trkpt lat="45.31182" lon="6.05287">
        <ele>1869.2</ele>
        <time>2021-01-16T12:52:37Z</time>
      </trkpt>
      <trkpt lat="45.31182" lon="6.05287">
        <ele>1869.2</ele>
        <time>2021-01-16T12:52:38Z</time>
      </trkpt>
      <trkpt lat="45.31182" lon="6.05287">
        <ele>1869.2</ele>
        <time>2021-01-16T12:52:39Z</time>
      </trkpt>
      <trkpt lat="45.31182" lon="6.05287">
        <ele>1869.2</ele>
        <time>2021-01-16T12:52:40Z</time>
      </trkpt>
      <trkpt lat="45.31182" lon="6.05287">
        <ele>1869.2</ele>
        <time>2021-01-16T12:52:41Z</time>
      </trkpt>
      <trkpt lat="45.31182" lon="6.05287">
        <ele>1869.2</ele>
        <time>2021-01-16T12:52:42Z</time>
      </trkpt>
      <trkpt lat="45.31182" lon="6.05287">
        <ele>1869.2</ele>
        <time>2021-01-16T12:52:43Z</time>
      </trkpt>
      <trkpt lat="45.31182" lon="6.05287">
        <ele>1869.2</ele>
        <time>2021-01-16T12:52:44Z</time>
      </trkpt>
      <trkpt lat="45.31182" lon="6.05287">
        <ele>1869.2</ele>
        <time>2021-01-16T12:52:45Z</time>
      </trkpt>
      <trkpt lat="45.31182" lon="6.05287">
        <ele>1869</ele>
        <time>2021-01-16T12:52:46Z</time>
      </trkpt>
      <trkpt lat="45.31182" lon="6.05287">
        <ele>1869</ele>
        <time>2021-01-16T12:52:47Z</time>
      </trkpt>
      <trkpt lat="45.31182" lon="6.05287">
        <ele>1869</ele>
        <time>2021-01-16T12:52:48Z</time>
      </trkpt>
      <trkpt lat="45.31182" lon="6.05287">
        <ele>1869</ele>
        <time>2021-01-16T12:52:49Z</time>
      </trkpt>
      <trkpt lat="45.31182" lon="6.05287">
        <ele>1869</ele>
        <time>2021-01-16T12:52:50Z</time>
      </trkpt>
      <trkpt lat="45.31182" lon="6.05287">
        <ele>1869</ele>
        <time>2021-01-16T12:52:51Z</time>
      </trkpt>
      <trkpt lat="45.31182" lon="6.05287">
        <ele>1869</ele>
        <time>2021-01-16T12:52:52Z</time>
      </trkpt>
      <trkpt lat="45.31182" lon="6.05287">
        <ele>1869</ele>
        <time>2021-01-16T12:52:53Z</time>
      </trkpt>
      <trkpt lat="45.31182" lon="6.05287">
        <ele>1869</ele>
        <time>2021-01-16T12:52:54Z</time>
      </trkpt>
      <trkpt lat="45.31182" lon="6.05287">
        <ele>1869</ele>
        <time>2021-01-16T12:52:55Z</time>
      </trkpt>
      <trkpt lat="45.31182" lon="6.05287">
        <ele>1869</ele>
        <time>2021-01-16T12:52:56Z</time>
      </trkpt>
      <trkpt lat="45.31182" lon="6.05287">
        <ele>1869</ele>
        <time>2021-01-16T12:52:57Z</time>
      </trkpt>
      <trkpt lat="45.31182" lon="6.05287">
        <ele>1869</ele>
        <time>2021-01-16T12:52:58Z</time>
      </trkpt>
      <trkpt lat="45.31182" lon="6.05287">
        <ele>1869</ele>
        <time>2021-01-16T12:52:59Z</time>
      </trkpt>
      <trkpt lat="45.31182" lon="6.05287">
        <ele>1869</ele>
        <time>2021-01-16T12:53:00Z</time>
      </trkpt>
      <trkpt lat="45.31182" lon="6.05287">
        <ele>1868.8</ele>
        <time>2021-01-16T12:53:01Z</time>
      </trkpt>
      <trkpt lat="45.31182" lon="6.05287">
        <ele>1868.8</ele>
        <time>2021-01-16T12:53:02Z</time>
      </trkpt>
      <trkpt lat="45.31182" lon="6.05287">
        <ele>1868.8</ele>
        <time>2021-01-16T12:53:03Z</time>
      </trkpt>
      <trkpt lat="45.31182" lon="6.05287">
        <ele>1868.8</ele>
        <time>2021-01-16T12:53:04Z</time>
      </trkpt>
      <trkpt lat="45.31182" lon="6.05287">
        <ele>1868.8</ele>
        <time>2021-01-16T12:53:05Z</time>
      </trkpt>
      <trkpt lat="45.31182" lon="6.05287">
        <ele>1868.8</ele>
        <time>2021-01-16T12:53:06Z</time>
      </trkpt>
      <trkpt lat="45.31182" lon="6.05287">
        <ele>1868.8</ele>
        <time>2021-01-16T12:53:07Z</time>
      </trkpt>
      <trkpt lat="45.31182" lon="6.05287">
        <ele>1868.8</ele>
        <time>2021-01-16T12:53:08Z</time>
      </trkpt>
      <trkpt lat="45.31182" lon="6.05287">
        <ele>1868.8</ele>
        <time>2021-01-16T12:53:09Z</time>
      </trkpt>
      <trkpt lat="45.31182" lon="6.05287">
        <ele>1868.8</ele>
        <time>2021-01-16T12:53:10Z</time>
      </trkpt>
      <trkpt lat="45.31182" lon="6.05287">
        <ele>1868.8</ele>
        <time>2021-01-16T12:53:11Z</time>
      </trkpt>
      <trkpt lat="45.31182" lon="6.05287">
        <ele>1868.8</ele>
        <time>2021-01-16T12:53:12Z</time>
      </trkpt>
      <trkpt lat="45.31182" lon="6.05287">
        <ele>1868.8</ele>
        <time>2021-01-16T12:53:13Z</time>
      </trkpt>
      <trkpt lat="45.31182" lon="6.05287">
        <ele>1868.8</ele>
        <time>2021-01-16T12:53:14Z</time>
      </trkpt>
      <trkpt lat="45.31182" lon="6.05287">
        <ele>1868.8</ele>
        <time>2021-01-16T12:53:15Z</time>
      </trkpt>
      <trkpt lat="45.31182" lon="6.05287">
        <ele>1868.8</ele>
        <time>2021-01-16T12:53:16Z</time>
      </trkpt>
      <trkpt lat="45.31182" lon="6.05287">
        <ele>1868.8</ele>
        <time>2021-01-16T12:53:17Z</time>
      </trkpt>
      <trkpt lat="45.31182" lon="6.05287">
        <ele>1868.8</ele>
        <time>2021-01-16T12:53:18Z</time>
      </trkpt>
      <trkpt lat="45.31182" lon="6.05287">
        <ele>1868.8</ele>
        <time>2021-01-16T12:53:19Z</time>
      </trkpt>
      <trkpt lat="45.31182" lon="6.05287">
        <ele>1868.8</ele>
        <time>2021-01-16T12:53:20Z</time>
      </trkpt>
      <trkpt lat="45.31182" lon="6.05287">
        <ele>1868.8</ele>
        <time>2021-01-16T12:53:21Z</time>
      </trkpt>
      <trkpt lat="45.31182" lon="6.05287">
        <ele>1868.6</ele>
        <time>2021-01-16T12:53:22Z</time>
      </trkpt>
      <trkpt lat="45.31182" lon="6.05287">
        <ele>1868.6</ele>
        <time>2021-01-16T12:53:23Z</time>
      </trkpt>
      <trkpt lat="45.31182" lon="6.05287">
        <ele>1868.6</ele>
        <time>2021-01-16T12:53:24Z</time>
      </trkpt>
      <trkpt lat="45.31182" lon="6.05287">
        <ele>1868.6</ele>
        <time>2021-01-16T12:53:25Z</time>
      </trkpt>
      <trkpt lat="45.31182" lon="6.05287">
        <ele>1868.6</ele>
        <time>2021-01-16T12:53:26Z</time>
      </trkpt>
      <trkpt lat="45.31182" lon="6.05287">
        <ele>1868.6</ele>
        <time>2021-01-16T12:53:27Z</time>
      </trkpt>
      <trkpt lat="45.31182" lon="6.05287">
        <ele>1868.6</ele>
        <time>2021-01-16T12:53:28Z</time>
      </trkpt>
      <trkpt lat="45.31182" lon="6.05287">
        <ele>1868.6</ele>
        <time>2021-01-16T12:53:29Z</time>
      </trkpt>
      <trkpt lat="45.31182" lon="6.05287">
        <ele>1868.6</ele>
        <time>2021-01-16T12:53:30Z</time>
      </trkpt>
      <trkpt lat="45.31182" lon="6.05287">
        <ele>1868.6</ele>
        <time>2021-01-16T12:53:31Z</time>
      </trkpt>
      <trkpt lat="45.31182" lon="6.05287">
        <ele>1868.6</ele>
        <time>2021-01-16T12:53:32Z</time>
      </trkpt>
      <trkpt lat="45.31182" lon="6.05287">
        <ele>1868.6</ele>
        <time>2021-01-16T12:53:33Z</time>
      </trkpt>
      <trkpt lat="45.31182" lon="6.05287">
        <ele>1868.6</ele>
        <time>2021-01-16T12:53:34Z</time>
      </trkpt>
      <trkpt lat="45.31182" lon="6.05287">
        <ele>1868.6</ele>
        <time>2021-01-16T12:53:35Z</time>
      </trkpt>
      <trkpt lat="45.31182" lon="6.05287">
        <ele>1868.6</ele>
        <time>2021-01-16T12:53:36Z</time>
      </trkpt>
      <trkpt lat="45.31182" lon="6.05287">
        <ele>1868.6</ele>
        <time>2021-01-16T12:53:37Z</time>
      </trkpt>
      <trkpt lat="45.31182" lon="6.05287">
        <ele>1868.6</ele>
        <time>2021-01-16T12:53:38Z</time>
      </trkpt>
      <trkpt lat="45.31182" lon="6.05287">
        <ele>1868.6</ele>
        <time>2021-01-16T12:53:39Z</time>
      </trkpt>
      <trkpt lat="45.31182" lon="6.05287">
        <ele>1868.6</ele>
        <time>2021-01-16T12:53:40Z</time>
      </trkpt>
      <trkpt lat="45.31182" lon="6.05287">
        <ele>1868.6</ele>
        <time>2021-01-16T12:53:41Z</time>
      </trkpt>
      <trkpt lat="45.31182" lon="6.05287">
        <ele>1868.6</ele>
        <time>2021-01-16T12:53:42Z</time>
      </trkpt>
      <trkpt lat="45.31182" lon="6.05287">
        <ele>1868.6</ele>
        <time>2021-01-16T12:53:43Z</time>
      </trkpt>
      <trkpt lat="45.31182" lon="6.05287">
        <ele>1868.6</ele>
        <time>2021-01-16T12:53:44Z</time>
      </trkpt>
      <trkpt lat="45.31182" lon="6.05287">
        <ele>1868.4</ele>
        <time>2021-01-16T12:53:45Z</time>
      </trkpt>
      <trkpt lat="45.31182" lon="6.05287">
        <ele>1868.6</ele>
        <time>2021-01-16T12:53:46Z</time>
      </trkpt>
      <trkpt lat="45.31182" lon="6.05287">
        <ele>1868.6</ele>
        <time>2021-01-16T12:53:47Z</time>
      </trkpt>
      <trkpt lat="45.31182" lon="6.05287">
        <ele>1868.6</ele>
        <time>2021-01-16T12:53:48Z</time>
      </trkpt>
      <trkpt lat="45.31182" lon="6.05287">
        <ele>1868.6</ele>
        <time>2021-01-16T12:53:49Z</time>
      </trkpt>
      <trkpt lat="45.31182" lon="6.05287">
        <ele>1868.6</ele>
        <time>2021-01-16T12:53:50Z</time>
      </trkpt>
      <trkpt lat="45.31182" lon="6.05287">
        <ele>1868.6</ele>
        <time>2021-01-16T12:53:51Z</time>
      </trkpt>
      <trkpt lat="45.31182" lon="6.05287">
        <ele>1868.6</ele>
        <time>2021-01-16T12:53:52Z</time>
      </trkpt>
      <trkpt lat="45.31182" lon="6.05287">
        <ele>1868.6</ele>
        <time>2021-01-16T12:53:53Z</time>
      </trkpt>
      <trkpt lat="45.31182" lon="6.05287">
        <ele>1868.6</ele>
        <time>2021-01-16T12:53:54Z</time>
      </trkpt>
      <trkpt lat="45.31182" lon="6.05287">
        <ele>1868.6</ele>
        <time>2021-01-16T12:53:55Z</time>
      </trkpt>
      <trkpt lat="45.31182" lon="6.05287">
        <ele>1868.6</ele>
        <time>2021-01-16T12:53:56Z</time>
      </trkpt>
      <trkpt lat="45.31182" lon="6.05287">
        <ele>1868.6</ele>
        <time>2021-01-16T12:53:57Z</time>
      </trkpt>
      <trkpt lat="45.31182" lon="6.05287">
        <ele>1868.6</ele>
        <time>2021-01-16T12:53:58Z</time>
      </trkpt>
      <trkpt lat="45.31182" lon="6.05287">
        <ele>1868.6</ele>
        <time>2021-01-16T12:53:59Z</time>
      </trkpt>
      <trkpt lat="45.31182" lon="6.05287">
        <ele>1868.6</ele>
        <time>2021-01-16T12:54:00Z</time>
      </trkpt>
      <trkpt lat="45.31182" lon="6.05287">
        <ele>1868.6</ele>
        <time>2021-01-16T12:54:01Z</time>
      </trkpt>
      <trkpt lat="45.31182" lon="6.05287">
        <ele>1868.6</ele>
        <time>2021-01-16T12:54:02Z</time>
      </trkpt>
      <trkpt lat="45.31182" lon="6.05287">
        <ele>1868.6</ele>
        <time>2021-01-16T12:54:03Z</time>
      </trkpt>
      <trkpt lat="45.31182" lon="6.05287">
        <ele>1868.6</ele>
        <time>2021-01-16T12:54:04Z</time>
      </trkpt>
      <trkpt lat="45.31182" lon="6.05287">
        <ele>1868.6</ele>
        <time>2021-01-16T12:54:05Z</time>
      </trkpt>
      <trkpt lat="45.31182" lon="6.05287">
        <ele>1868.6</ele>
        <time>2021-01-16T12:54:06Z</time>
      </trkpt>
      <trkpt lat="45.31182" lon="6.05287">
        <ele>1868.4</ele>
        <time>2021-01-16T12:54:07Z</time>
      </trkpt>
      <trkpt lat="45.31182" lon="6.05287">
        <ele>1868.4</ele>
        <time>2021-01-16T12:54:08Z</time>
      </trkpt>
      <trkpt lat="45.31182" lon="6.05287">
        <ele>1868.4</ele>
        <time>2021-01-16T12:54:09Z</time>
      </trkpt>
      <trkpt lat="45.31182" lon="6.05287">
        <ele>1868.4</ele>
        <time>2021-01-16T12:54:10Z</time>
      </trkpt>
      <trkpt lat="45.31182" lon="6.05287">
        <ele>1868.4</ele>
        <time>2021-01-16T12:54:11Z</time>
      </trkpt>
      <trkpt lat="45.31182" lon="6.05287">
        <ele>1868.4</ele>
        <time>2021-01-16T12:54:12Z</time>
      </trkpt>
      <trkpt lat="45.31182" lon="6.05287">
        <ele>1868.4</ele>
        <time>2021-01-16T12:54:13Z</time>
      </trkpt>
      <trkpt lat="45.31182" lon="6.05287">
        <ele>1868.4</ele>
        <time>2021-01-16T12:54:14Z</time>
      </trkpt>
      <trkpt lat="45.31182" lon="6.05287">
        <ele>1868.4</ele>
        <time>2021-01-16T12:54:15Z</time>
      </trkpt>
      <trkpt lat="45.31182" lon="6.05287">
        <ele>1868.4</ele>
        <time>2021-01-16T12:54:16Z</time>
      </trkpt>
      <trkpt lat="45.31182" lon="6.05287">
        <ele>1868.4</ele>
        <time>2021-01-16T12:54:17Z</time>
      </trkpt>
      <trkpt lat="45.31182" lon="6.05287">
        <ele>1868.4</ele>
        <time>2021-01-16T12:54:18Z</time>
      </trkpt>
      <trkpt lat="45.31182" lon="6.05287">
        <ele>1868.4</ele>
        <time>2021-01-16T12:54:19Z</time>
      </trkpt>
      <trkpt lat="45.31182" lon="6.05287">
        <ele>1868.4</ele>
        <time>2021-01-16T12:54:20Z</time>
      </trkpt>
      <trkpt lat="45.31182" lon="6.05287">
        <ele>1868.4</ele>
        <time>2021-01-16T12:54:21Z</time>
      </trkpt>
      <trkpt lat="45.31182" lon="6.05287">
        <ele>1868.4</ele>
        <time>2021-01-16T12:54:22Z</time>
      </trkpt>
      <trkpt lat="45.31182" lon="6.05287">
        <ele>1868.4</ele>
        <time>2021-01-16T12:54:23Z</time>
      </trkpt>
      <trkpt lat="45.31182" lon="6.05287">
        <ele>1868.4</ele>
        <time>2021-01-16T12:54:24Z</time>
      </trkpt>
      <trkpt lat="45.31182" lon="6.05287">
        <ele>1868.4</ele>
        <time>2021-01-16T12:54:25Z</time>
      </trkpt>
      <trkpt lat="45.31182" lon="6.05287">
        <ele>1868.4</ele>
        <time>2021-01-16T12:54:26Z</time>
      </trkpt>
      <trkpt lat="45.31182" lon="6.05287">
        <ele>1868.4</ele>
        <time>2021-01-16T12:54:27Z</time>
      </trkpt>
      <trkpt lat="45.31182" lon="6.05287">
        <ele>1868.4</ele>
        <time>2021-01-16T12:54:28Z</time>
      </trkpt>
      <trkpt lat="45.31182" lon="6.05287">
        <ele>1868.4</ele>
        <time>2021-01-16T12:54:29Z</time>
      </trkpt>
      <trkpt lat="45.31182" lon="6.05287">
        <ele>1868.4</ele>
        <time>2021-01-16T12:54:30Z</time>
      </trkpt>
      <trkpt lat="45.31182" lon="6.05287">
        <ele>1868.4</ele>
        <time>2021-01-16T12:54:31Z</time>
      </trkpt>
      <trkpt lat="45.31182" lon="6.05287">
        <ele>1868.4</ele>
        <time>2021-01-16T12:54:32Z</time>
      </trkpt>
      <trkpt lat="45.31182" lon="6.05287">
        <ele>1868.4</ele>
        <time>2021-01-16T12:54:33Z</time>
      </trkpt>
      <trkpt lat="45.31182" lon="6.05287">
        <ele>1868.4</ele>
        <time>2021-01-16T12:54:34Z</time>
      </trkpt>
      <trkpt lat="45.31182" lon="6.05287">
        <ele>1868.4</ele>
        <time>2021-01-16T12:54:35Z</time>
      </trkpt>
      <trkpt lat="45.31182" lon="6.05287">
        <ele>1868.4</ele>
        <time>2021-01-16T12:54:36Z</time>
      </trkpt>
      <trkpt lat="45.31182" lon="6.05287">
        <ele>1868.4</ele>
        <time>2021-01-16T12:54:37Z</time>
      </trkpt>
      <trkpt lat="45.31182" lon="6.05287">
        <ele>1868.4</ele>
        <time>2021-01-16T12:54:38Z</time>
      </trkpt>
      <trkpt lat="45.31182" lon="6.05287">
        <ele>1868.4</ele>
        <time>2021-01-16T12:54:39Z</time>
      </trkpt>
      <trkpt lat="45.31182" lon="6.05287">
        <ele>1868.4</ele>
        <time>2021-01-16T12:54:40Z</time>
      </trkpt>
      <trkpt lat="45.31182" lon="6.05287">
        <ele>1868.4</ele>
        <time>2021-01-16T12:54:41Z</time>
      </trkpt>
      <trkpt lat="45.31182" lon="6.05287">
        <ele>1868.4</ele>
        <time>2021-01-16T12:54:42Z</time>
      </trkpt>
      <trkpt lat="45.31182" lon="6.05287">
        <ele>1868.4</ele>
        <time>2021-01-16T12:54:43Z</time>
      </trkpt>
      <trkpt lat="45.31182" lon="6.05287">
        <ele>1868.4</ele>
        <time>2021-01-16T12:54:44Z</time>
      </trkpt>
      <trkpt lat="45.31182" lon="6.05287">
        <ele>1868.4</ele>
        <time>2021-01-16T12:54:45Z</time>
      </trkpt>
      <trkpt lat="45.31182" lon="6.05287">
        <ele>1868.4</ele>
        <time>2021-01-16T12:54:46Z</time>
      </trkpt>
      <trkpt lat="45.31182" lon="6.05287">
        <ele>1868.4</ele>
        <time>2021-01-16T12:54:47Z</time>
      </trkpt>
      <trkpt lat="45.31182" lon="6.05287">
        <ele>1868.4</ele>
        <time>2021-01-16T12:54:48Z</time>
      </trkpt>
      <trkpt lat="45.31182" lon="6.05287">
        <ele>1868.4</ele>
        <time>2021-01-16T12:54:49Z</time>
      </trkpt>
      <trkpt lat="45.31182" lon="6.05287">
        <ele>1868.4</ele>
        <time>2021-01-16T12:54:50Z</time>
      </trkpt>
      <trkpt lat="45.31182" lon="6.05287">
        <ele>1868.4</ele>
        <time>2021-01-16T12:54:51Z</time>
      </trkpt>
      <trkpt lat="45.31182" lon="6.05287">
        <ele>1868.4</ele>
        <time>2021-01-16T12:54:52Z</time>
      </trkpt>
      <trkpt lat="45.31182" lon="6.05287">
        <ele>1868.4</ele>
        <time>2021-01-16T12:54:53Z</time>
      </trkpt>
      <trkpt lat="45.31182" lon="6.05287">
        <ele>1868.4</ele>
        <time>2021-01-16T12:54:54Z</time>
      </trkpt>
      <trkpt lat="45.31182" lon="6.05287">
        <ele>1868.4</ele>
        <time>2021-01-16T12:54:55Z</time>
      </trkpt>
      <trkpt lat="45.31182" lon="6.05287">
        <ele>1868.4</ele>
        <time>2021-01-16T12:54:56Z</time>
      </trkpt>
      <trkpt lat="45.31182" lon="6.05287">
        <ele>1868.4</ele>
        <time>2021-01-16T12:54:57Z</time>
      </trkpt>
      <trkpt lat="45.31182" lon="6.05287">
        <ele>1868.4</ele>
        <time>2021-01-16T12:54:58Z</time>
      </trkpt>
      <trkpt lat="45.31182" lon="6.05287">
        <ele>1868.6</ele>
        <time>2021-01-16T12:54:59Z</time>
      </trkpt>
      <trkpt lat="45.31182" lon="6.05287">
        <ele>1868.6</ele>
        <time>2021-01-16T12:55:00Z</time>
      </trkpt>
      <trkpt lat="45.31182" lon="6.05287">
        <ele>1868.6</ele>
        <time>2021-01-16T12:55:01Z</time>
      </trkpt>
      <trkpt lat="45.31182" lon="6.05287">
        <ele>1868.6</ele>
        <time>2021-01-16T12:55:02Z</time>
      </trkpt>
      <trkpt lat="45.31182" lon="6.05287">
        <ele>1868.6</ele>
        <time>2021-01-16T12:55:03Z</time>
      </trkpt>
      <trkpt lat="45.31182" lon="6.05287">
        <ele>1868.6</ele>
        <time>2021-01-16T12:55:04Z</time>
      </trkpt>
      <trkpt lat="45.31182" lon="6.05287">
        <ele>1868.6</ele>
        <time>2021-01-16T12:55:05Z</time>
      </trkpt>
      <trkpt lat="45.31182" lon="6.05287">
        <ele>1868.6</ele>
        <time>2021-01-16T12:55:06Z</time>
      </trkpt>
      <trkpt lat="45.31182" lon="6.05287">
        <ele>1868.6</ele>
        <time>2021-01-16T12:55:07Z</time>
      </trkpt>
      <trkpt lat="45.31182" lon="6.05287">
        <ele>1868.6</ele>
        <time>2021-01-16T12:55:08Z</time>
      </trkpt>
      <trkpt lat="45.31182" lon="6.05287">
        <ele>1868.6</ele>
        <time>2021-01-16T12:55:09Z</time>
      </trkpt>
      <trkpt lat="45.31182" lon="6.05287">
        <ele>1868.6</ele>
        <time>2021-01-16T12:55:10Z</time>
      </trkpt>
      <trkpt lat="45.31182" lon="6.05287">
        <ele>1868.6</ele>
        <time>2021-01-16T12:55:11Z</time>
      </trkpt>
      <trkpt lat="45.31182" lon="6.05287">
        <ele>1868.6</ele>
        <time>2021-01-16T12:55:12Z</time>
      </trkpt>
      <trkpt lat="45.31182" lon="6.05287">
        <ele>1868.6</ele>
        <time>2021-01-16T12:55:13Z</time>
      </trkpt>
      <trkpt lat="45.31182" lon="6.05287">
        <ele>1868.6</ele>
        <time>2021-01-16T12:55:14Z</time>
      </trkpt>
      <trkpt lat="45.31182" lon="6.05287">
        <ele>1868.6</ele>
        <time>2021-01-16T12:55:15Z</time>
      </trkpt>
      <trkpt lat="45.31182" lon="6.05287">
        <ele>1868.6</ele>
        <time>2021-01-16T12:55:16Z</time>
      </trkpt>
      <trkpt lat="45.31182" lon="6.05287">
        <ele>1868.6</ele>
        <time>2021-01-16T12:55:17Z</time>
      </trkpt>
      <trkpt lat="45.31182" lon="6.05287">
        <ele>1868.6</ele>
        <time>2021-01-16T12:55:18Z</time>
      </trkpt>
      <trkpt lat="45.31182" lon="6.05287">
        <ele>1868.6</ele>
        <time>2021-01-16T12:55:19Z</time>
      </trkpt>
      <trkpt lat="45.31182" lon="6.05287">
        <ele>1868.6</ele>
        <time>2021-01-16T12:55:20Z</time>
      </trkpt>
      <trkpt lat="45.31182" lon="6.05287">
        <ele>1868.6</ele>
        <time>2021-01-16T12:55:21Z</time>
      </trkpt>
      <trkpt lat="45.31182" lon="6.05287">
        <ele>1868.6</ele>
        <time>2021-01-16T12:55:22Z</time>
      </trkpt>
      <trkpt lat="45.31182" lon="6.05287">
        <ele>1868.6</ele>
        <time>2021-01-16T12:55:23Z</time>
      </trkpt>
      <trkpt lat="45.31182" lon="6.05287">
        <ele>1868.4</ele>
        <time>2021-01-16T12:55:24Z</time>
      </trkpt>
      <trkpt lat="45.31182" lon="6.05287">
        <ele>1868.4</ele>
        <time>2021-01-16T12:55:25Z</time>
      </trkpt>
      <trkpt lat="45.31182" lon="6.05287">
        <ele>1868.4</ele>
        <time>2021-01-16T12:55:26Z</time>
      </trkpt>
      <trkpt lat="45.31182" lon="6.05287">
        <ele>1868.4</ele>
        <time>2021-01-16T12:55:27Z</time>
      </trkpt>
      <trkpt lat="45.31182" lon="6.05287">
        <ele>1868.4</ele>
        <time>2021-01-16T12:55:28Z</time>
      </trkpt>
      <trkpt lat="45.31182" lon="6.05287">
        <ele>1868.4</ele>
        <time>2021-01-16T12:55:29Z</time>
      </trkpt>
      <trkpt lat="45.31182" lon="6.05287">
        <ele>1868.6</ele>
        <time>2021-01-16T12:55:30Z</time>
      </trkpt>
      <trkpt lat="45.31182" lon="6.05287">
        <ele>1868.6</ele>
        <time>2021-01-16T12:55:31Z</time>
      </trkpt>
      <trkpt lat="45.31182" lon="6.05287">
        <ele>1868.6</ele>
        <time>2021-01-16T12:55:32Z</time>
      </trkpt>
      <trkpt lat="45.31182" lon="6.05287">
        <ele>1868.6</ele>
        <time>2021-01-16T12:55:33Z</time>
      </trkpt>
      <trkpt lat="45.31182" lon="6.05287">
        <ele>1868.6</ele>
        <time>2021-01-16T12:55:34Z</time>
      </trkpt>
      <trkpt lat="45.31182" lon="6.05287">
        <ele>1868.4</ele>
        <time>2021-01-16T12:55:35Z</time>
      </trkpt>
      <trkpt lat="45.31182" lon="6.05287">
        <ele>1868.6</ele>
        <time>2021-01-16T12:55:36Z</time>
      </trkpt>
      <trkpt lat="45.31182" lon="6.05287">
        <ele>1868.6</ele>
        <time>2021-01-16T12:55:37Z</time>
      </trkpt>
      <trkpt lat="45.31182" lon="6.05287">
        <ele>1868.6</ele>
        <time>2021-01-16T12:55:38Z</time>
      </trkpt>
      <trkpt lat="45.31182" lon="6.05287">
        <ele>1868.6</ele>
        <time>2021-01-16T12:55:39Z</time>
      </trkpt>
      <trkpt lat="45.31182" lon="6.05287">
        <ele>1868.6</ele>
        <time>2021-01-16T12:55:40Z</time>
      </trkpt>
      <trkpt lat="45.31182" lon="6.05287">
        <ele>1868.6</ele>
        <time>2021-01-16T12:55:41Z</time>
      </trkpt>
      <trkpt lat="45.31182" lon="6.05287">
        <ele>1868.6</ele>
        <time>2021-01-16T12:55:42Z</time>
      </trkpt>
      <trkpt lat="45.31182" lon="6.05287">
        <ele>1868.6</ele>
        <time>2021-01-16T12:55:43Z</time>
      </trkpt>
      <trkpt lat="45.31182" lon="6.05287">
        <ele>1868.6</ele>
        <time>2021-01-16T12:55:44Z</time>
      </trkpt>
      <trkpt lat="45.31182" lon="6.05287">
        <ele>1868.6</ele>
        <time>2021-01-16T12:55:45Z</time>
      </trkpt>
      <trkpt lat="45.31182" lon="6.05287">
        <ele>1868.6</ele>
        <time>2021-01-16T12:55:46Z</time>
      </trkpt>
      <trkpt lat="45.31182" lon="6.05287">
        <ele>1868.6</ele>
        <time>2021-01-16T12:55:47Z</time>
      </trkpt>
      <trkpt lat="45.31182" lon="6.05287">
        <ele>1868.6</ele>
        <time>2021-01-16T12:55:48Z</time>
      </trkpt>
      <trkpt lat="45.31182" lon="6.05287">
        <ele>1868.6</ele>
        <time>2021-01-16T12:55:49Z</time>
      </trkpt>
      <trkpt lat="45.31182" lon="6.05287">
        <ele>1868.6</ele>
        <time>2021-01-16T12:55:50Z</time>
      </trkpt>
      <trkpt lat="45.31182" lon="6.05287">
        <ele>1868.6</ele>
        <time>2021-01-16T12:55:51Z</time>
      </trkpt>
      <trkpt lat="45.31182" lon="6.05287">
        <ele>1868.6</ele>
        <time>2021-01-16T12:55:52Z</time>
      </trkpt>
      <trkpt lat="45.31182" lon="6.05287">
        <ele>1868.6</ele>
        <time>2021-01-16T12:55:53Z</time>
      </trkpt>
      <trkpt lat="45.31182" lon="6.05287">
        <ele>1868.4</ele>
        <time>2021-01-16T12:55:54Z</time>
      </trkpt>
      <trkpt lat="45.31182" lon="6.05287">
        <ele>1868.6</ele>
        <time>2021-01-16T12:55:55Z</time>
      </trkpt>
      <trkpt lat="45.31182" lon="6.05287">
        <ele>1868.4</ele>
        <time>2021-01-16T12:55:56Z</time>
      </trkpt>
      <trkpt lat="45.31182" lon="6.05287">
        <ele>1868.6</ele>
        <time>2021-01-16T12:55:57Z</time>
      </trkpt>
      <trkpt lat="45.31182" lon="6.05287">
        <ele>1868.6</ele>
        <time>2021-01-16T12:55:58Z</time>
      </trkpt>
      <trkpt lat="45.31182" lon="6.05287">
        <ele>1868.6</ele>
        <time>2021-01-16T12:55:59Z</time>
      </trkpt>
      <trkpt lat="45.31182" lon="6.05287">
        <ele>1868.6</ele>
        <time>2021-01-16T12:56:00Z</time>
      </trkpt>
      <trkpt lat="45.31182" lon="6.05287">
        <ele>1868.6</ele>
        <time>2021-01-16T12:56:01Z</time>
      </trkpt>
      <trkpt lat="45.31182" lon="6.05287">
        <ele>1868.6</ele>
        <time>2021-01-16T12:56:02Z</time>
      </trkpt>
      <trkpt lat="45.31182" lon="6.05287">
        <ele>1868.6</ele>
        <time>2021-01-16T12:56:03Z</time>
      </trkpt>
      <trkpt lat="45.31182" lon="6.05287">
        <ele>1868.6</ele>
        <time>2021-01-16T12:56:04Z</time>
      </trkpt>
      <trkpt lat="45.31182" lon="6.05287">
        <ele>1868.6</ele>
        <time>2021-01-16T12:56:05Z</time>
      </trkpt>
      <trkpt lat="45.31182" lon="6.05287">
        <ele>1868.6</ele>
        <time>2021-01-16T12:56:06Z</time>
      </trkpt>
      <trkpt lat="45.31182" lon="6.05287">
        <ele>1868.6</ele>
        <time>2021-01-16T12:56:07Z</time>
      </trkpt>
      <trkpt lat="45.31182" lon="6.05287">
        <ele>1868.6</ele>
        <time>2021-01-16T12:56:08Z</time>
      </trkpt>
      <trkpt lat="45.31182" lon="6.05287">
        <ele>1868.6</ele>
        <time>2021-01-16T12:56:09Z</time>
      </trkpt>
      <trkpt lat="45.31182" lon="6.05287">
        <ele>1868.6</ele>
        <time>2021-01-16T12:56:10Z</time>
      </trkpt>
      <trkpt lat="45.31182" lon="6.05287">
        <ele>1868.6</ele>
        <time>2021-01-16T12:56:11Z</time>
      </trkpt>
      <trkpt lat="45.31182" lon="6.05287">
        <ele>1868.6</ele>
        <time>2021-01-16T12:56:12Z</time>
      </trkpt>
      <trkpt lat="45.31182" lon="6.05287">
        <ele>1868.6</ele>
        <time>2021-01-16T12:56:13Z</time>
      </trkpt>
      <trkpt lat="45.31182" lon="6.05287">
        <ele>1868.6</ele>
        <time>2021-01-16T12:56:14Z</time>
      </trkpt>
      <trkpt lat="45.31182" lon="6.05287">
        <ele>1868.6</ele>
        <time>2021-01-16T12:56:15Z</time>
      </trkpt>
      <trkpt lat="45.31182" lon="6.05287">
        <ele>1868.6</ele>
        <time>2021-01-16T12:56:16Z</time>
      </trkpt>
      <trkpt lat="45.31182" lon="6.05287">
        <ele>1868.6</ele>
        <time>2021-01-16T12:56:17Z</time>
      </trkpt>
      <trkpt lat="45.31182" lon="6.05287">
        <ele>1868.6</ele>
        <time>2021-01-16T12:56:18Z</time>
      </trkpt>
      <trkpt lat="45.31182" lon="6.05287">
        <ele>1868.6</ele>
        <time>2021-01-16T12:56:19Z</time>
      </trkpt>
      <trkpt lat="45.31182" lon="6.05287">
        <ele>1868.6</ele>
        <time>2021-01-16T12:56:20Z</time>
      </trkpt>
      <trkpt lat="45.31182" lon="6.05287">
        <ele>1868.6</ele>
        <time>2021-01-16T12:56:21Z</time>
      </trkpt>
      <trkpt lat="45.31182" lon="6.05287">
        <ele>1868.6</ele>
        <time>2021-01-16T12:56:22Z</time>
      </trkpt>
      <trkpt lat="45.31182" lon="6.05287">
        <ele>1868.6</ele>
        <time>2021-01-16T12:56:23Z</time>
      </trkpt>
      <trkpt lat="45.31182" lon="6.05287">
        <ele>1868.6</ele>
        <time>2021-01-16T12:56:24Z</time>
      </trkpt>
      <trkpt lat="45.31182" lon="6.05287">
        <ele>1868.6</ele>
        <time>2021-01-16T12:56:25Z</time>
      </trkpt>
      <trkpt lat="45.31182" lon="6.05287">
        <ele>1868.6</ele>
        <time>2021-01-16T12:56:26Z</time>
      </trkpt>
      <trkpt lat="45.31182" lon="6.05287">
        <ele>1868.6</ele>
        <time>2021-01-16T12:56:27Z</time>
      </trkpt>
      <trkpt lat="45.31182" lon="6.05287">
        <ele>1868.6</ele>
        <time>2021-01-16T12:56:28Z</time>
      </trkpt>
      <trkpt lat="45.31182" lon="6.05287">
        <ele>1868.6</ele>
        <time>2021-01-16T12:56:29Z</time>
      </trkpt>
      <trkpt lat="45.31182" lon="6.05287">
        <ele>1868.4</ele>
        <time>2021-01-16T12:56:30Z</time>
      </trkpt>
      <trkpt lat="45.31182" lon="6.05287">
        <ele>1868.4</ele>
        <time>2021-01-16T12:56:31Z</time>
      </trkpt>
      <trkpt lat="45.31182" lon="6.05287">
        <ele>1868.4</ele>
        <time>2021-01-16T12:56:32Z</time>
      </trkpt>
      <trkpt lat="45.31182" lon="6.05287">
        <ele>1868.6</ele>
        <time>2021-01-16T12:56:33Z</time>
      </trkpt>
      <trkpt lat="45.31182" lon="6.05287">
        <ele>1868.6</ele>
        <time>2021-01-16T12:56:34Z</time>
      </trkpt>
      <trkpt lat="45.31182" lon="6.05287">
        <ele>1868.6</ele>
        <time>2021-01-16T12:56:35Z</time>
      </trkpt>
      <trkpt lat="45.31182" lon="6.05287">
        <ele>1868.6</ele>
        <time>2021-01-16T12:56:36Z</time>
      </trkpt>
      <trkpt lat="45.31182" lon="6.05287">
        <ele>1868.6</ele>
        <time>2021-01-16T12:56:37Z</time>
      </trkpt>
      <trkpt lat="45.31182" lon="6.05287">
        <ele>1868.6</ele>
        <time>2021-01-16T12:56:38Z</time>
      </trkpt>
      <trkpt lat="45.31182" lon="6.05287">
        <ele>1868.6</ele>
        <time>2021-01-16T12:56:39Z</time>
      </trkpt>
      <trkpt lat="45.31182" lon="6.05287">
        <ele>1868.6</ele>
        <time>2021-01-16T12:56:40Z</time>
      </trkpt>
      <trkpt lat="45.31182" lon="6.05287">
        <ele>1868.6</ele>
        <time>2021-01-16T12:56:41Z</time>
      </trkpt>
      <trkpt lat="45.31182" lon="6.05287">
        <ele>1868.6</ele>
        <time>2021-01-16T12:56:42Z</time>
      </trkpt>
      <trkpt lat="45.31182" lon="6.05287">
        <ele>1868.6</ele>
        <time>2021-01-16T12:56:43Z</time>
      </trkpt>
      <trkpt lat="45.31182" lon="6.05287">
        <ele>1868.6</ele>
        <time>2021-01-16T12:56:44Z</time>
      </trkpt>
      <trkpt lat="45.31182" lon="6.05287">
        <ele>1868.6</ele>
        <time>2021-01-16T12:56:45Z</time>
      </trkpt>
      <trkpt lat="45.31182" lon="6.05287">
        <ele>1868.6</ele>
        <time>2021-01-16T12:56:46Z</time>
      </trkpt>
      <trkpt lat="45.31182" lon="6.05287">
        <ele>1868.6</ele>
        <time>2021-01-16T12:56:47Z</time>
      </trkpt>
      <trkpt lat="45.31182" lon="6.05287">
        <ele>1868.6</ele>
        <time>2021-01-16T12:56:48Z</time>
      </trkpt>
      <trkpt lat="45.31182" lon="6.05287">
        <ele>1868.6</ele>
        <time>2021-01-16T12:56:49Z</time>
      </trkpt>
      <trkpt lat="45.31182" lon="6.05287">
        <ele>1868.6</ele>
        <time>2021-01-16T12:56:50Z</time>
      </trkpt>
      <trkpt lat="45.31182" lon="6.05287">
        <ele>1868.6</ele>
        <time>2021-01-16T12:56:51Z</time>
      </trkpt>
      <trkpt lat="45.31182" lon="6.05287">
        <ele>1868.6</ele>
        <time>2021-01-16T12:56:52Z</time>
      </trkpt>
      <trkpt lat="45.31182" lon="6.05287">
        <ele>1868.6</ele>
        <time>2021-01-16T12:56:53Z</time>
      </trkpt>
      <trkpt lat="45.31182" lon="6.05287">
        <ele>1868.6</ele>
        <time>2021-01-16T12:56:54Z</time>
      </trkpt>
      <trkpt lat="45.31182" lon="6.05287">
        <ele>1868.6</ele>
        <time>2021-01-16T12:56:55Z</time>
      </trkpt>
      <trkpt lat="45.31182" lon="6.05287">
        <ele>1868.4</ele>
        <time>2021-01-16T12:56:56Z</time>
      </trkpt>
      <trkpt lat="45.31182" lon="6.05287">
        <ele>1868.4</ele>
        <time>2021-01-16T12:56:57Z</time>
      </trkpt>
      <trkpt lat="45.31182" lon="6.05287">
        <ele>1868.6</ele>
        <time>2021-01-16T12:56:58Z</time>
      </trkpt>
      <trkpt lat="45.31182" lon="6.05287">
        <ele>1868.6</ele>
        <time>2021-01-16T12:56:59Z</time>
      </trkpt>
      <trkpt lat="45.31182" lon="6.05287">
        <ele>1868.4</ele>
        <time>2021-01-16T12:57:00Z</time>
      </trkpt>
      <trkpt lat="45.31182" lon="6.05287">
        <ele>1868.4</ele>
        <time>2021-01-16T12:57:01Z</time>
      </trkpt>
      <trkpt lat="45.31182" lon="6.05287">
        <ele>1868.4</ele>
        <time>2021-01-16T12:57:02Z</time>
      </trkpt>
      <trkpt lat="45.31182" lon="6.05287">
        <ele>1868.6</ele>
        <time>2021-01-16T12:57:03Z</time>
      </trkpt>
      <trkpt lat="45.31182" lon="6.05287">
        <ele>1868.6</ele>
        <time>2021-01-16T12:57:04Z</time>
      </trkpt>
      <trkpt lat="45.31182" lon="6.05287">
        <ele>1868.6</ele>
        <time>2021-01-16T12:57:05Z</time>
      </trkpt>
      <trkpt lat="45.31182" lon="6.05287">
        <ele>1868.6</ele>
        <time>2021-01-16T12:57:06Z</time>
      </trkpt>
      <trkpt lat="45.31182" lon="6.05287">
        <ele>1868.8</ele>
        <time>2021-01-16T12:57:07Z</time>
      </trkpt>
      <trkpt lat="45.31182" lon="6.05287">
        <ele>1868.8</ele>
        <time>2021-01-16T12:57:08Z</time>
      </trkpt>
      <trkpt lat="45.31182" lon="6.05287">
        <ele>1868.8</ele>
        <time>2021-01-16T12:57:09Z</time>
      </trkpt>
      <trkpt lat="45.31182" lon="6.05287">
        <ele>1868.8</ele>
        <time>2021-01-16T12:57:10Z</time>
      </trkpt>
      <trkpt lat="45.31182" lon="6.05287">
        <ele>1868.8</ele>
        <time>2021-01-16T12:57:11Z</time>
      </trkpt>
      <trkpt lat="45.31182" lon="6.05287">
        <ele>1868.8</ele>
        <time>2021-01-16T12:57:12Z</time>
      </trkpt>
      <trkpt lat="45.31182" lon="6.05287">
        <ele>1868.8</ele>
        <time>2021-01-16T12:57:13Z</time>
      </trkpt>
      <trkpt lat="45.31182" lon="6.05287">
        <ele>1868.8</ele>
        <time>2021-01-16T12:57:14Z</time>
      </trkpt>
      <trkpt lat="45.31182" lon="6.05287">
        <ele>1868.8</ele>
        <time>2021-01-16T12:57:15Z</time>
      </trkpt>
      <trkpt lat="45.31182" lon="6.05287">
        <ele>1868.8</ele>
        <time>2021-01-16T12:57:16Z</time>
      </trkpt>
      <trkpt lat="45.31182" lon="6.05287">
        <ele>1868.8</ele>
        <time>2021-01-16T12:57:17Z</time>
      </trkpt>
      <trkpt lat="45.31182" lon="6.05287">
        <ele>1868.8</ele>
        <time>2021-01-16T12:57:18Z</time>
      </trkpt>
      <trkpt lat="45.31182" lon="6.05287">
        <ele>1868.8</ele>
        <time>2021-01-16T12:57:19Z</time>
      </trkpt>
      <trkpt lat="45.31182" lon="6.05287">
        <ele>1868.8</ele>
        <time>2021-01-16T12:57:20Z</time>
      </trkpt>
      <trkpt lat="45.31182" lon="6.05287">
        <ele>1868.8</ele>
        <time>2021-01-16T12:57:21Z</time>
      </trkpt>
      <trkpt lat="45.31182" lon="6.05287">
        <ele>1868.8</ele>
        <time>2021-01-16T12:57:22Z</time>
      </trkpt>
      <trkpt lat="45.31182" lon="6.05287">
        <ele>1869</ele>
        <time>2021-01-16T12:57:23Z</time>
      </trkpt>
      <trkpt lat="45.31182" lon="6.05287">
        <ele>1869</ele>
        <time>2021-01-16T12:57:24Z</time>
      </trkpt>
      <trkpt lat="45.31182" lon="6.05287">
        <ele>1869</ele>
        <time>2021-01-16T12:57:25Z</time>
      </trkpt>
      <trkpt lat="45.31182" lon="6.05287">
        <ele>1869</ele>
        <time>2021-01-16T12:57:26Z</time>
      </trkpt>
      <trkpt lat="45.31182" lon="6.05287">
        <ele>1869</ele>
        <time>2021-01-16T12:57:27Z</time>
      </trkpt>
      <trkpt lat="45.31182" lon="6.05287">
        <ele>1869</ele>
        <time>2021-01-16T12:57:28Z</time>
      </trkpt>
      <trkpt lat="45.31182" lon="6.05287">
        <ele>1868.8</ele>
        <time>2021-01-16T12:57:29Z</time>
      </trkpt>
      <trkpt lat="45.31182" lon="6.05287">
        <ele>1868.8</ele>
        <time>2021-01-16T12:57:30Z</time>
      </trkpt>
      <trkpt lat="45.31182" lon="6.05287">
        <ele>1868.8</ele>
        <time>2021-01-16T12:57:31Z</time>
      </trkpt>
      <trkpt lat="45.31182" lon="6.05287">
        <ele>1868.8</ele>
        <time>2021-01-16T12:57:32Z</time>
      </trkpt>
      <trkpt lat="45.31182" lon="6.05287">
        <ele>1868.8</ele>
        <time>2021-01-16T12:57:33Z</time>
      </trkpt>
      <trkpt lat="45.31182" lon="6.05287">
        <ele>1868.8</ele>
        <time>2021-01-16T12:57:34Z</time>
      </trkpt>
      <trkpt lat="45.31182" lon="6.05287">
        <ele>1868.8</ele>
        <time>2021-01-16T12:57:35Z</time>
      </trkpt>
      <trkpt lat="45.31182" lon="6.05287">
        <ele>1868.8</ele>
        <time>2021-01-16T12:57:36Z</time>
      </trkpt>
      <trkpt lat="45.31182" lon="6.05287">
        <ele>1868.8</ele>
        <time>2021-01-16T12:57:37Z</time>
      </trkpt>
      <trkpt lat="45.31182" lon="6.05287">
        <ele>1868.8</ele>
        <time>2021-01-16T12:57:38Z</time>
      </trkpt>
      <trkpt lat="45.31182" lon="6.05287">
        <ele>1869</ele>
        <time>2021-01-16T12:57:39Z</time>
      </trkpt>
      <trkpt lat="45.31182" lon="6.05287">
        <ele>1869</ele>
        <time>2021-01-16T12:57:40Z</time>
      </trkpt>
      <trkpt lat="45.31182" lon="6.05287">
        <ele>1868.8</ele>
        <time>2021-01-16T12:57:41Z</time>
      </trkpt>
      <trkpt lat="45.31182" lon="6.05287">
        <ele>1868.8</ele>
        <time>2021-01-16T12:57:42Z</time>
      </trkpt>
      <trkpt lat="45.31182" lon="6.05287">
        <ele>1869</ele>
        <time>2021-01-16T12:57:43Z</time>
      </trkpt>
      <trkpt lat="45.31182" lon="6.05287">
        <ele>1869</ele>
        <time>2021-01-16T12:57:44Z</time>
      </trkpt>
      <trkpt lat="45.31182" lon="6.05287">
        <ele>1868.8</ele>
        <time>2021-01-16T12:57:45Z</time>
      </trkpt>
      <trkpt lat="45.31182" lon="6.05287">
        <ele>1868.8</ele>
        <time>2021-01-16T12:57:46Z</time>
      </trkpt>
      <trkpt lat="45.31182" lon="6.05287">
        <ele>1868.8</ele>
        <time>2021-01-16T12:57:47Z</time>
      </trkpt>
      <trkpt lat="45.31182" lon="6.05287">
        <ele>1868.8</ele>
        <time>2021-01-16T12:57:48Z</time>
      </trkpt>
      <trkpt lat="45.31182" lon="6.05287">
        <ele>1869</ele>
        <time>2021-01-16T12:57:49Z</time>
      </trkpt>
      <trkpt lat="45.31182" lon="6.05287">
        <ele>1869</ele>
        <time>2021-01-16T12:57:50Z</time>
      </trkpt>
      <trkpt lat="45.31182" lon="6.05287">
        <ele>1869</ele>
        <time>2021-01-16T12:57:51Z</time>
      </trkpt>
      <trkpt lat="45.31182" lon="6.05287">
        <ele>1869</ele>
        <time>2021-01-16T12:57:52Z</time>
      </trkpt>
      <trkpt lat="45.31182" lon="6.05287">
        <ele>1869</ele>
        <time>2021-01-16T12:57:53Z</time>
      </trkpt>
      <trkpt lat="45.31182" lon="6.05287">
        <ele>1869</ele>
        <time>2021-01-16T12:57:54Z</time>
      </trkpt>
      <trkpt lat="45.31182" lon="6.05287">
        <ele>1869</ele>
        <time>2021-01-16T12:57:55Z</time>
      </trkpt>
      <trkpt lat="45.31182" lon="6.05287">
        <ele>1869</ele>
        <time>2021-01-16T12:57:56Z</time>
      </trkpt>
      <trkpt lat="45.31182" lon="6.05287">
        <ele>1869</ele>
        <time>2021-01-16T12:57:57Z</time>
      </trkpt>
      <trkpt lat="45.31182" lon="6.05287">
        <ele>1869</ele>
        <time>2021-01-16T12:57:58Z</time>
      </trkpt>
      <trkpt lat="45.31182" lon="6.05287">
        <ele>1869</ele>
        <time>2021-01-16T12:57:59Z</time>
      </trkpt>
      <trkpt lat="45.31182" lon="6.05287">
        <ele>1869</ele>
        <time>2021-01-16T12:58:00Z</time>
      </trkpt>
      <trkpt lat="45.31182" lon="6.05287">
        <ele>1869</ele>
        <time>2021-01-16T12:58:01Z</time>
      </trkpt>
      <trkpt lat="45.31182" lon="6.05287">
        <ele>1869</ele>
        <time>2021-01-16T12:58:02Z</time>
      </trkpt>
      <trkpt lat="45.31182" lon="6.05287">
        <ele>1869</ele>
        <time>2021-01-16T12:58:03Z</time>
      </trkpt>
      <trkpt lat="45.31182" lon="6.05287">
        <ele>1869</ele>
        <time>2021-01-16T12:58:04Z</time>
      </trkpt>
      <trkpt lat="45.31182" lon="6.05287">
        <ele>1869</ele>
        <time>2021-01-16T12:58:05Z</time>
      </trkpt>
      <trkpt lat="45.31182" lon="6.05287">
        <ele>1869</ele>
        <time>2021-01-16T12:58:06Z</time>
      </trkpt>
      <trkpt lat="45.31182" lon="6.05287">
        <ele>1869</ele>
        <time>2021-01-16T12:58:07Z</time>
      </trkpt>
      <trkpt lat="45.31182" lon="6.05287">
        <ele>1869</ele>
        <time>2021-01-16T12:58:08Z</time>
      </trkpt>
      <trkpt lat="45.31182" lon="6.05287">
        <ele>1869.2</ele>
        <time>2021-01-16T12:58:09Z</time>
      </trkpt>
      <trkpt lat="45.31182" lon="6.05287">
        <ele>1869.2</ele>
        <time>2021-01-16T12:58:10Z</time>
      </trkpt>
      <trkpt lat="45.31182" lon="6.05287">
        <ele>1869</ele>
        <time>2021-01-16T12:58:11Z</time>
      </trkpt>
      <trkpt lat="45.31182" lon="6.05287">
        <ele>1869</ele>
        <time>2021-01-16T12:58:12Z</time>
      </trkpt>
      <trkpt lat="45.31182" lon="6.05287">
        <ele>1869</ele>
        <time>2021-01-16T12:58:13Z</time>
      </trkpt>
      <trkpt lat="45.31182" lon="6.05287">
        <ele>1869</ele>
        <time>2021-01-16T12:58:14Z</time>
      </trkpt>
      <trkpt lat="45.31182" lon="6.05287">
        <ele>1869</ele>
        <time>2021-01-16T12:58:15Z</time>
      </trkpt>
      <trkpt lat="45.31182" lon="6.05287">
        <ele>1869</ele>
        <time>2021-01-16T12:58:16Z</time>
      </trkpt>
      <trkpt lat="45.31182" lon="6.05287">
        <ele>1869</ele>
        <time>2021-01-16T12:58:17Z</time>
      </trkpt>
      <trkpt lat="45.31182" lon="6.05287">
        <ele>1869</ele>
        <time>2021-01-16T12:58:18Z</time>
      </trkpt>
      <trkpt lat="45.31182" lon="6.05287">
        <ele>1869</ele>
        <time>2021-01-16T12:58:19Z</time>
      </trkpt>
      <trkpt lat="45.31182" lon="6.05287">
        <ele>1869</ele>
        <time>2021-01-16T12:58:20Z</time>
      </trkpt>
      <trkpt lat="45.31182" lon="6.05287">
        <ele>1869</ele>
        <time>2021-01-16T12:58:21Z</time>
      </trkpt>
      <trkpt lat="45.31182" lon="6.05287">
        <ele>1869</ele>
        <time>2021-01-16T12:58:22Z</time>
      </trkpt>
      <trkpt lat="45.31182" lon="6.05287">
        <ele>1869</ele>
        <time>2021-01-16T12:58:23Z</time>
      </trkpt>
      <trkpt lat="45.31182" lon="6.05287">
        <ele>1869</ele>
        <time>2021-01-16T12:58:24Z</time>
      </trkpt>
      <trkpt lat="45.31182" lon="6.05287">
        <ele>1869</ele>
        <time>2021-01-16T12:58:25Z</time>
      </trkpt>
      <trkpt lat="45.31182" lon="6.05287">
        <ele>1868.8</ele>
        <time>2021-01-16T12:58:26Z</time>
      </trkpt>
      <trkpt lat="45.31182" lon="6.05287">
        <ele>1868.8</ele>
        <time>2021-01-16T12:58:27Z</time>
      </trkpt>
      <trkpt lat="45.31182" lon="6.05287">
        <ele>1868.8</ele>
        <time>2021-01-16T12:58:28Z</time>
      </trkpt>
      <trkpt lat="45.31182" lon="6.05287">
        <ele>1868.8</ele>
        <time>2021-01-16T12:58:29Z</time>
      </trkpt>
      <trkpt lat="45.31182" lon="6.05287">
        <ele>1869</ele>
        <time>2021-01-16T12:58:30Z</time>
      </trkpt>
      <trkpt lat="45.31182" lon="6.05287">
        <ele>1869</ele>
        <time>2021-01-16T12:58:31Z</time>
      </trkpt>
      <trkpt lat="45.31182" lon="6.05287">
        <ele>1869</ele>
        <time>2021-01-16T12:58:32Z</time>
      </trkpt>
      <trkpt lat="45.31182" lon="6.05287">
        <ele>1868.8</ele>
        <time>2021-01-16T12:58:33Z</time>
      </trkpt>
      <trkpt lat="45.31182" lon="6.05287">
        <ele>1868.8</ele>
        <time>2021-01-16T12:58:34Z</time>
      </trkpt>
      <trkpt lat="45.31182" lon="6.05287">
        <ele>1868.8</ele>
        <time>2021-01-16T12:58:35Z</time>
      </trkpt>
      <trkpt lat="45.31182" lon="6.05287">
        <ele>1868.8</ele>
        <time>2021-01-16T12:58:36Z</time>
      </trkpt>
      <trkpt lat="45.31182" lon="6.05287">
        <ele>1868.8</ele>
        <time>2021-01-16T12:58:37Z</time>
      </trkpt>
      <trkpt lat="45.31182" lon="6.05287">
        <ele>1868.8</ele>
        <time>2021-01-16T12:58:38Z</time>
      </trkpt>
      <trkpt lat="45.31182" lon="6.05287">
        <ele>1868.8</ele>
        <time>2021-01-16T12:58:39Z</time>
      </trkpt>
      <trkpt lat="45.31182" lon="6.05287">
        <ele>1869</ele>
        <time>2021-01-16T12:58:40Z</time>
      </trkpt>
      <trkpt lat="45.31182" lon="6.05287">
        <ele>1869</ele>
        <time>2021-01-16T12:58:41Z</time>
      </trkpt>
      <trkpt lat="45.31182" lon="6.05287">
        <ele>1869</ele>
        <time>2021-01-16T12:58:42Z</time>
      </trkpt>
      <trkpt lat="45.31182" lon="6.05287">
        <ele>1869</ele>
        <time>2021-01-16T12:58:43Z</time>
      </trkpt>
      <trkpt lat="45.31182" lon="6.05287">
        <ele>1869</ele>
        <time>2021-01-16T12:58:44Z</time>
      </trkpt>
      <trkpt lat="45.31182" lon="6.05287">
        <ele>1869</ele>
        <time>2021-01-16T12:58:45Z</time>
      </trkpt>
      <trkpt lat="45.31182" lon="6.05287">
        <ele>1868.8</ele>
        <time>2021-01-16T12:58:46Z</time>
      </trkpt>
      <trkpt lat="45.31182" lon="6.05287">
        <ele>1868.8</ele>
        <time>2021-01-16T12:58:47Z</time>
      </trkpt>
      <trkpt lat="45.31182" lon="6.05287">
        <ele>1869</ele>
        <time>2021-01-16T12:58:48Z</time>
      </trkpt>
      <trkpt lat="45.31182" lon="6.05287">
        <ele>1869</ele>
        <time>2021-01-16T12:58:49Z</time>
      </trkpt>
      <trkpt lat="45.31182" lon="6.05287">
        <ele>1869</ele>
        <time>2021-01-16T12:58:50Z</time>
      </trkpt>
      <trkpt lat="45.31182" lon="6.05287">
        <ele>1869</ele>
        <time>2021-01-16T12:58:51Z</time>
      </trkpt>
      <trkpt lat="45.31182" lon="6.05287">
        <ele>1868.8</ele>
        <time>2021-01-16T12:58:52Z</time>
      </trkpt>
      <trkpt lat="45.31182" lon="6.05287">
        <ele>1868.8</ele>
        <time>2021-01-16T12:58:53Z</time>
      </trkpt>
      <trkpt lat="45.31182" lon="6.05287">
        <ele>1868.8</ele>
        <time>2021-01-16T12:58:54Z</time>
      </trkpt>
      <trkpt lat="45.31182" lon="6.05287">
        <ele>1868.8</ele>
        <time>2021-01-16T12:58:55Z</time>
      </trkpt>
      <trkpt lat="45.31182" lon="6.05287">
        <ele>1869</ele>
        <time>2021-01-16T12:58:56Z</time>
      </trkpt>
      <trkpt lat="45.31182" lon="6.05287">
        <ele>1869</ele>
        <time>2021-01-16T12:58:57Z</time>
      </trkpt>
      <trkpt lat="45.31182" lon="6.05287">
        <ele>1869</ele>
        <time>2021-01-16T12:58:58Z</time>
      </trkpt>
      <trkpt lat="45.31182" lon="6.05287">
        <ele>1869</ele>
        <time>2021-01-16T12:58:59Z</time>
      </trkpt>
      <trkpt lat="45.31182" lon="6.05287">
        <ele>1869</ele>
        <time>2021-01-16T12:59:00Z</time>
      </trkpt>
      <trkpt lat="45.31182" lon="6.05287">
        <ele>1869</ele>
        <time>2021-01-16T12:59:01Z</time>
      </trkpt>
      <trkpt lat="45.31182" lon="6.05287">
        <ele>1869</ele>
        <time>2021-01-16T12:59:02Z</time>
      </trkpt>
      <trkpt lat="45.31182" lon="6.05287">
        <ele>1869</ele>
        <time>2021-01-16T12:59:03Z</time>
      </trkpt>
      <trkpt lat="45.31182" lon="6.05287">
        <ele>1869</ele>
        <time>2021-01-16T12:59:04Z</time>
      </trkpt>
      <trkpt lat="45.31182" lon="6.05287">
        <ele>1869</ele>
        <time>2021-01-16T12:59:05Z</time>
      </trkpt>
      <trkpt lat="45.31182" lon="6.05287">
        <ele>1869</ele>
        <time>2021-01-16T12:59:06Z</time>
      </trkpt>
      <trkpt lat="45.31182" lon="6.05287">
        <ele>1869</ele>
        <time>2021-01-16T12:59:07Z</time>
      </trkpt>
      <trkpt lat="45.31182" lon="6.05287">
        <ele>1868.8</ele>
        <time>2021-01-16T12:59:08Z</time>
      </trkpt>
      <trkpt lat="45.31182" lon="6.05287">
        <ele>1869</ele>
        <time>2021-01-16T12:59:09Z</time>
      </trkpt>
      <trkpt lat="45.31182" lon="6.05287">
        <ele>1869</ele>
        <time>2021-01-16T12:59:10Z</time>
      </trkpt>
      <trkpt lat="45.31182" lon="6.05287">
        <ele>1869</ele>
        <time>2021-01-16T12:59:11Z</time>
      </trkpt>
      <trkpt lat="45.31182" lon="6.05287">
        <ele>1869.2</ele>
        <time>2021-01-16T12:59:12Z</time>
      </trkpt>
      <trkpt lat="45.31182" lon="6.05287">
        <ele>1869.2</ele>
        <time>2021-01-16T12:59:13Z</time>
      </trkpt>
      <trkpt lat="45.31182" lon="6.05287">
        <ele>1869.2</ele>
        <time>2021-01-16T12:59:14Z</time>
      </trkpt>
      <trkpt lat="45.31182" lon="6.05287">
        <ele>1869.2</ele>
        <time>2021-01-16T12:59:15Z</time>
      </trkpt>
      <trkpt lat="45.31182" lon="6.05287">
        <ele>1869.2</ele>
        <time>2021-01-16T12:59:16Z</time>
      </trkpt>
      <trkpt lat="45.31182" lon="6.05287">
        <ele>1869</ele>
        <time>2021-01-16T12:59:17Z</time>
      </trkpt>
      <trkpt lat="45.31182" lon="6.05287">
        <ele>1869</ele>
        <time>2021-01-16T12:59:18Z</time>
      </trkpt>
      <trkpt lat="45.31182" lon="6.05287">
        <ele>1869</ele>
        <time>2021-01-16T12:59:19Z</time>
      </trkpt>
      <trkpt lat="45.31182" lon="6.05287">
        <ele>1868.8</ele>
        <time>2021-01-16T12:59:20Z</time>
      </trkpt>
      <trkpt lat="45.31182" lon="6.05287">
        <ele>1868.8</ele>
        <time>2021-01-16T12:59:21Z</time>
      </trkpt>
      <trkpt lat="45.31182" lon="6.05287">
        <ele>1868.8</ele>
        <time>2021-01-16T12:59:22Z</time>
      </trkpt>
      <trkpt lat="45.31182" lon="6.05287">
        <ele>1869</ele>
        <time>2021-01-16T12:59:23Z</time>
      </trkpt>
      <trkpt lat="45.31182" lon="6.05287">
        <ele>1869</ele>
        <time>2021-01-16T12:59:24Z</time>
      </trkpt>
      <trkpt lat="45.31182" lon="6.05287">
        <ele>1869</ele>
        <time>2021-01-16T12:59:25Z</time>
      </trkpt>
      <trkpt lat="45.31182" lon="6.05287">
        <ele>1869</ele>
        <time>2021-01-16T12:59:26Z</time>
      </trkpt>
      <trkpt lat="45.31182" lon="6.05287">
        <ele>1869</ele>
        <time>2021-01-16T12:59:27Z</time>
      </trkpt>
      <trkpt lat="45.31182" lon="6.05287">
        <ele>1869</ele>
        <time>2021-01-16T12:59:28Z</time>
      </trkpt>
      <trkpt lat="45.31182" lon="6.05287">
        <ele>1869</ele>
        <time>2021-01-16T12:59:29Z</time>
      </trkpt>
      <trkpt lat="45.31182" lon="6.05287">
        <ele>1869</ele>
        <time>2021-01-16T12:59:30Z</time>
      </trkpt>
      <trkpt lat="45.31182" lon="6.05287">
        <ele>1869</ele>
        <time>2021-01-16T12:59:31Z</time>
      </trkpt>
      <trkpt lat="45.31182" lon="6.05287">
        <ele>1869</ele>
        <time>2021-01-16T12:59:32Z</time>
      </trkpt>
      <trkpt lat="45.31182" lon="6.05287">
        <ele>1869</ele>
        <time>2021-01-16T12:59:33Z</time>
      </trkpt>
      <trkpt lat="45.31182" lon="6.05287">
        <ele>1869</ele>
        <time>2021-01-16T12:59:34Z</time>
      </trkpt>
      <trkpt lat="45.31182" lon="6.05287">
        <ele>1869</ele>
        <time>2021-01-16T12:59:35Z</time>
      </trkpt>
      <trkpt lat="45.31182" lon="6.05287">
        <ele>1869</ele>
        <time>2021-01-16T12:59:36Z</time>
      </trkpt>
      <trkpt lat="45.31182" lon="6.05287">
        <ele>1869</ele>
        <time>2021-01-16T12:59:37Z</time>
      </trkpt>
      <trkpt lat="45.31182" lon="6.05287">
        <ele>1869</ele>
        <time>2021-01-16T12:59:38Z</time>
      </trkpt>
      <trkpt lat="45.31182" lon="6.05287">
        <ele>1869</ele>
        <time>2021-01-16T12:59:39Z</time>
      </trkpt>
      <trkpt lat="45.31182" lon="6.05287">
        <ele>1869</ele>
        <time>2021-01-16T12:59:40Z</time>
      </trkpt>
      <trkpt lat="45.31182" lon="6.05287">
        <ele>1869</ele>
        <time>2021-01-16T12:59:41Z</time>
      </trkpt>
      <trkpt lat="45.31182" lon="6.05287">
        <ele>1869</ele>
        <time>2021-01-16T12:59:42Z</time>
      </trkpt>
      <trkpt lat="45.31182" lon="6.05287">
        <ele>1869</ele>
        <time>2021-01-16T12:59:43Z</time>
      </trkpt>
      <trkpt lat="45.31182" lon="6.05287">
        <ele>1869</ele>
        <time>2021-01-16T12:59:44Z</time>
      </trkpt>
      <trkpt lat="45.31182" lon="6.05287">
        <ele>1869</ele>
        <time>2021-01-16T12:59:45Z</time>
      </trkpt>
      <trkpt lat="45.31182" lon="6.05287">
        <ele>1869</ele>
        <time>2021-01-16T12:59:46Z</time>
      </trkpt>
      <trkpt lat="45.31182" lon="6.05287">
        <ele>1868.8</ele>
        <time>2021-01-16T12:59:47Z</time>
      </trkpt>
      <trkpt lat="45.31182" lon="6.05287">
        <ele>1869</ele>
        <time>2021-01-16T12:59:48Z</time>
      </trkpt>
      <trkpt lat="45.31182" lon="6.05287">
        <ele>1869</ele>
        <time>2021-01-16T12:59:49Z</time>
      </trkpt>
      <trkpt lat="45.31182" lon="6.05287">
        <ele>1869</ele>
        <time>2021-01-16T12:59:50Z</time>
      </trkpt>
      <trkpt lat="45.31182" lon="6.05287">
        <ele>1869.2</ele>
        <time>2021-01-16T12:59:51Z</time>
      </trkpt>
      <trkpt lat="45.31182" lon="6.05287">
        <ele>1869.2</ele>
        <time>2021-01-16T12:59:52Z</time>
      </trkpt>
      <trkpt lat="45.31182" lon="6.05287">
        <ele>1869.2</ele>
        <time>2021-01-16T12:59:53Z</time>
      </trkpt>
      <trkpt lat="45.31182" lon="6.05287">
        <ele>1869.2</ele>
        <time>2021-01-16T12:59:54Z</time>
      </trkpt>
      <trkpt lat="45.31182" lon="6.05287">
        <ele>1869.2</ele>
        <time>2021-01-16T12:59:55Z</time>
      </trkpt>
      <trkpt lat="45.31182" lon="6.05287">
        <ele>1869.2</ele>
        <time>2021-01-16T12:59:56Z</time>
      </trkpt>
      <trkpt lat="45.31182" lon="6.05287">
        <ele>1869.2</ele>
        <time>2021-01-16T12:59:57Z</time>
      </trkpt>
      <trkpt lat="45.31182" lon="6.05287">
        <ele>1869.2</ele>
        <time>2021-01-16T12:59:58Z</time>
      </trkpt>
      <trkpt lat="45.31182" lon="6.05287">
        <ele>1869.2</ele>
        <time>2021-01-16T12:59:59Z</time>
      </trkpt>
      <trkpt lat="45.31182" lon="6.05287">
        <ele>1869.2</ele>
        <time>2021-01-16T13:00:00Z</time>
      </trkpt>
      <trkpt lat="45.31182" lon="6.05287">
        <ele>1869.2</ele>
        <time>2021-01-16T13:00:01Z</time>
      </trkpt>
      <trkpt lat="45.31182" lon="6.05287">
        <ele>1869.2</ele>
        <time>2021-01-16T13:00:02Z</time>
      </trkpt>
      <trkpt lat="45.31182" lon="6.05287">
        <ele>1869.2</ele>
        <time>2021-01-16T13:00:03Z</time>
      </trkpt>
      <trkpt lat="45.31182" lon="6.05287">
        <ele>1869</ele>
        <time>2021-01-16T13:00:04Z</time>
      </trkpt>
      <trkpt lat="45.31182" lon="6.05287">
        <ele>1869</ele>
        <time>2021-01-16T13:00:05Z</time>
      </trkpt>
      <trkpt lat="45.31182" lon="6.05287">
        <ele>1869</ele>
        <time>2021-01-16T13:00:06Z</time>
      </trkpt>
      <trkpt lat="45.31182" lon="6.05287">
        <ele>1869</ele>
        <time>2021-01-16T13:00:07Z</time>
      </trkpt>
      <trkpt lat="45.31182" lon="6.05287">
        <ele>1869</ele>
        <time>2021-01-16T13:00:08Z</time>
      </trkpt>
      <trkpt lat="45.31182" lon="6.05287">
        <ele>1869</ele>
        <time>2021-01-16T13:00:09Z</time>
      </trkpt>
      <trkpt lat="45.31182" lon="6.05287">
        <ele>1869</ele>
        <time>2021-01-16T13:00:10Z</time>
      </trkpt>
      <trkpt lat="45.31182" lon="6.05287">
        <ele>1869</ele>
        <time>2021-01-16T13:00:11Z</time>
      </trkpt>
      <trkpt lat="45.31182" lon="6.05287">
        <ele>1869</ele>
        <time>2021-01-16T13:00:12Z</time>
      </trkpt>
      <trkpt lat="45.31182" lon="6.05287">
        <ele>1869</ele>
        <time>2021-01-16T13:00:13Z</time>
      </trkpt>
      <trkpt lat="45.31182" lon="6.05287">
        <ele>1869</ele>
        <time>2021-01-16T13:00:14Z</time>
      </trkpt>
      <trkpt lat="45.31182" lon="6.05287">
        <ele>1869</ele>
        <time>2021-01-16T13:00:15Z</time>
      </trkpt>
      <trkpt lat="45.31182" lon="6.05287">
        <ele>1869</ele>
        <time>2021-01-16T13:00:16Z</time>
      </trkpt>
      <trkpt lat="45.31182" lon="6.05287">
        <ele>1869</ele>
        <time>2021-01-16T13:00:17Z</time>
      </trkpt>
      <trkpt lat="45.31182" lon="6.05287">
        <ele>1869</ele>
        <time>2021-01-16T13:00:18Z</time>
      </trkpt>
      <trkpt lat="45.31182" lon="6.05287">
        <ele>1869</ele>
        <time>2021-01-16T13:00:19Z</time>
      </trkpt>
      <trkpt lat="45.31182" lon="6.05287">
        <ele>1869</ele>
        <time>2021-01-16T13:00:20Z</time>
      </trkpt>
      <trkpt lat="45.31182" lon="6.05287">
        <ele>1869</ele>
        <time>2021-01-16T13:00:21Z</time>
      </trkpt>
      <trkpt lat="45.31182" lon="6.05287">
        <ele>1869.2</ele>
        <time>2021-01-16T13:00:22Z</time>
      </trkpt>
      <trkpt lat="45.31182" lon="6.05287">
        <ele>1869.2</ele>
        <time>2021-01-16T13:00:23Z</time>
      </trkpt>
      <trkpt lat="45.31182" lon="6.05287">
        <ele>1869.2</ele>
        <time>2021-01-16T13:00:24Z</time>
      </trkpt>
      <trkpt lat="45.31182" lon="6.05287">
        <ele>1869.2</ele>
        <time>2021-01-16T13:00:25Z</time>
      </trkpt>
      <trkpt lat="45.31182" lon="6.05287">
        <ele>1869.2</ele>
        <time>2021-01-16T13:00:26Z</time>
      </trkpt>
      <trkpt lat="45.31182" lon="6.05287">
        <ele>1869.2</ele>
        <time>2021-01-16T13:00:27Z</time>
      </trkpt>
      <trkpt lat="45.31182" lon="6.05287">
        <ele>1869.2</ele>
        <time>2021-01-16T13:00:28Z</time>
      </trkpt>
      <trkpt lat="45.31182" lon="6.05287">
        <ele>1869.2</ele>
        <time>2021-01-16T13:00:29Z</time>
      </trkpt>
      <trkpt lat="45.31182" lon="6.05287">
        <ele>1869.2</ele>
        <time>2021-01-16T13:00:30Z</time>
      </trkpt>
      <trkpt lat="45.31182" lon="6.05287">
        <ele>1869.2</ele>
        <time>2021-01-16T13:00:31Z</time>
      </trkpt>
      <trkpt lat="45.31182" lon="6.05287">
        <ele>1869.2</ele>
        <time>2021-01-16T13:00:32Z</time>
      </trkpt>
      <trkpt lat="45.31182" lon="6.05287">
        <ele>1869.2</ele>
        <time>2021-01-16T13:00:33Z</time>
      </trkpt>
      <trkpt lat="45.31182" lon="6.05287">
        <ele>1869.2</ele>
        <time>2021-01-16T13:00:34Z</time>
      </trkpt>
      <trkpt lat="45.31182" lon="6.05287">
        <ele>1869.2</ele>
        <time>2021-01-16T13:00:35Z</time>
      </trkpt>
      <trkpt lat="45.31182" lon="6.05287">
        <ele>1869.2</ele>
        <time>2021-01-16T13:00:36Z</time>
      </trkpt>
      <trkpt lat="45.31182" lon="6.05287">
        <ele>1869.2</ele>
        <time>2021-01-16T13:00:37Z</time>
      </trkpt>
      <trkpt lat="45.31182" lon="6.05287">
        <ele>1869.2</ele>
        <time>2021-01-16T13:00:38Z</time>
      </trkpt>
      <trkpt lat="45.31182" lon="6.05287">
        <ele>1869.2</ele>
        <time>2021-01-16T13:00:39Z</time>
      </trkpt>
      <trkpt lat="45.31182" lon="6.05287">
        <ele>1869.4</ele>
        <time>2021-01-16T13:00:40Z</time>
      </trkpt>
      <trkpt lat="45.31182" lon="6.05287">
        <ele>1869.4</ele>
        <time>2021-01-16T13:00:41Z</time>
      </trkpt>
      <trkpt lat="45.31182" lon="6.05287">
        <ele>1869.4</ele>
        <time>2021-01-16T13:00:42Z</time>
      </trkpt>
      <trkpt lat="45.31182" lon="6.05287">
        <ele>1869.4</ele>
        <time>2021-01-16T13:00:43Z</time>
      </trkpt>
      <trkpt lat="45.31182" lon="6.05287">
        <ele>1869.4</ele>
        <time>2021-01-16T13:00:44Z</time>
      </trkpt>
      <trkpt lat="45.31182" lon="6.05287">
        <ele>1869.4</ele>
        <time>2021-01-16T13:00:45Z</time>
      </trkpt>
      <trkpt lat="45.31182" lon="6.05287">
        <ele>1869.4</ele>
        <time>2021-01-16T13:00:46Z</time>
      </trkpt>
      <trkpt lat="45.31182" lon="6.05287">
        <ele>1869.4</ele>
        <time>2021-01-16T13:00:47Z</time>
      </trkpt>
      <trkpt lat="45.31182" lon="6.05287">
        <ele>1869.4</ele>
        <time>2021-01-16T13:00:48Z</time>
      </trkpt>
      <trkpt lat="45.31182" lon="6.05287">
        <ele>1869.4</ele>
        <time>2021-01-16T13:00:49Z</time>
      </trkpt>
      <trkpt lat="45.31182" lon="6.05287">
        <ele>1869.4</ele>
        <time>2021-01-16T13:00:50Z</time>
      </trkpt>
      <trkpt lat="45.31182" lon="6.05287">
        <ele>1869.4</ele>
        <time>2021-01-16T13:00:51Z</time>
      </trkpt>
      <trkpt lat="45.31182" lon="6.05287">
        <ele>1869.4</ele>
        <time>2021-01-16T13:00:52Z</time>
      </trkpt>
      <trkpt lat="45.31182" lon="6.05287">
        <ele>1869.4</ele>
        <time>2021-01-16T13:00:53Z</time>
      </trkpt>
      <trkpt lat="45.31182" lon="6.05287">
        <ele>1869.4</ele>
        <time>2021-01-16T13:00:54Z</time>
      </trkpt>
      <trkpt lat="45.31182" lon="6.05287">
        <ele>1869.4</ele>
        <time>2021-01-16T13:00:55Z</time>
      </trkpt>
      <trkpt lat="45.31182" lon="6.05287">
        <ele>1869.4</ele>
        <time>2021-01-16T13:00:56Z</time>
      </trkpt>
      <trkpt lat="45.31182" lon="6.05287">
        <ele>1869.4</ele>
        <time>2021-01-16T13:00:57Z</time>
      </trkpt>
      <trkpt lat="45.31182" lon="6.05287">
        <ele>1869.4</ele>
        <time>2021-01-16T13:00:58Z</time>
      </trkpt>
      <trkpt lat="45.31182" lon="6.05287">
        <ele>1869.4</ele>
        <time>2021-01-16T13:00:59Z</time>
      </trkpt>
      <trkpt lat="45.31182" lon="6.05287">
        <ele>1869.4</ele>
        <time>2021-01-16T13:01:00Z</time>
      </trkpt>
      <trkpt lat="45.31182" lon="6.05287">
        <ele>1869.2</ele>
        <time>2021-01-16T13:01:01Z</time>
      </trkpt>
      <trkpt lat="45.31182" lon="6.05287">
        <ele>1869.2</ele>
        <time>2021-01-16T13:01:02Z</time>
      </trkpt>
      <trkpt lat="45.31182" lon="6.05287">
        <ele>1869.2</ele>
        <time>2021-01-16T13:01:03Z</time>
      </trkpt>
      <trkpt lat="45.31182" lon="6.05287">
        <ele>1869.2</ele>
        <time>2021-01-16T13:01:04Z</time>
      </trkpt>
      <trkpt lat="45.31182" lon="6.05287">
        <ele>1869</ele>
        <time>2021-01-16T13:01:05Z</time>
      </trkpt>
      <trkpt lat="45.31182" lon="6.05287">
        <ele>1869.2</ele>
        <time>2021-01-16T13:01:06Z</time>
      </trkpt>
      <trkpt lat="45.31182" lon="6.05287">
        <ele>1869.2</ele>
        <time>2021-01-16T13:01:07Z</time>
      </trkpt>
      <trkpt lat="45.31182" lon="6.05287">
        <ele>1869.2</ele>
        <time>2021-01-16T13:01:08Z</time>
      </trkpt>
      <trkpt lat="45.31182" lon="6.05287">
        <ele>1869.2</ele>
        <time>2021-01-16T13:01:09Z</time>
      </trkpt>
      <trkpt lat="45.31182" lon="6.05287">
        <ele>1869.2</ele>
        <time>2021-01-16T13:01:10Z</time>
      </trkpt>
      <trkpt lat="45.31182" lon="6.05287">
        <ele>1869.2</ele>
        <time>2021-01-16T13:01:11Z</time>
      </trkpt>
      <trkpt lat="45.31182" lon="6.05287">
        <ele>1869.2</ele>
        <time>2021-01-16T13:01:12Z</time>
      </trkpt>
      <trkpt lat="45.31182" lon="6.05287">
        <ele>1869.4</ele>
        <time>2021-01-16T13:01:13Z</time>
      </trkpt>
      <trkpt lat="45.31182" lon="6.05287">
        <ele>1869.2</ele>
        <time>2021-01-16T13:01:14Z</time>
      </trkpt>
      <trkpt lat="45.31182" lon="6.05287">
        <ele>1869.2</ele>
        <time>2021-01-16T13:01:15Z</time>
      </trkpt>
      <trkpt lat="45.31182" lon="6.05287">
        <ele>1869.2</ele>
        <time>2021-01-16T13:01:16Z</time>
      </trkpt>
      <trkpt lat="45.31182" lon="6.05287">
        <ele>1869.4</ele>
        <time>2021-01-16T13:01:17Z</time>
      </trkpt>
      <trkpt lat="45.31182" lon="6.05287">
        <ele>1869.4</ele>
        <time>2021-01-16T13:01:18Z</time>
      </trkpt>
      <trkpt lat="45.31182" lon="6.05287">
        <ele>1869.4</ele>
        <time>2021-01-16T13:01:19Z</time>
      </trkpt>
      <trkpt lat="45.31182" lon="6.05287">
        <ele>1869.4</ele>
        <time>2021-01-16T13:01:20Z</time>
      </trkpt>
      <trkpt lat="45.31182" lon="6.05287">
        <ele>1869.4</ele>
        <time>2021-01-16T13:01:21Z</time>
      </trkpt>
      <trkpt lat="45.31182" lon="6.05287">
        <ele>1869.4</ele>
        <time>2021-01-16T13:01:22Z</time>
      </trkpt>
      <trkpt lat="45.31182" lon="6.05287">
        <ele>1869.4</ele>
        <time>2021-01-16T13:01:23Z</time>
      </trkpt>
      <trkpt lat="45.31182" lon="6.05287">
        <ele>1869.4</ele>
        <time>2021-01-16T13:01:24Z</time>
      </trkpt>
      <trkpt lat="45.31182" lon="6.05287">
        <ele>1869.4</ele>
        <time>2021-01-16T13:01:25Z</time>
      </trkpt>
      <trkpt lat="45.31182" lon="6.05287">
        <ele>1869.4</ele>
        <time>2021-01-16T13:01:26Z</time>
      </trkpt>
      <trkpt lat="45.31182" lon="6.05287">
        <ele>1869.4</ele>
        <time>2021-01-16T13:01:27Z</time>
      </trkpt>
      <trkpt lat="45.31182" lon="6.05287">
        <ele>1869.4</ele>
        <time>2021-01-16T13:01:28Z</time>
      </trkpt>
      <trkpt lat="45.31182" lon="6.05287">
        <ele>1869.4</ele>
        <time>2021-01-16T13:01:29Z</time>
      </trkpt>
      <trkpt lat="45.31182" lon="6.05287">
        <ele>1869.4</ele>
        <time>2021-01-16T13:01:30Z</time>
      </trkpt>
      <trkpt lat="45.31182" lon="6.05287">
        <ele>1869.4</ele>
        <time>2021-01-16T13:01:31Z</time>
      </trkpt>
      <trkpt lat="45.31182" lon="6.05287">
        <ele>1869.6</ele>
        <time>2021-01-16T13:01:32Z</time>
      </trkpt>
      <trkpt lat="45.31182" lon="6.05287">
        <ele>1869.6</ele>
        <time>2021-01-16T13:01:33Z</time>
      </trkpt>
      <trkpt lat="45.31182" lon="6.05287">
        <ele>1869.6</ele>
        <time>2021-01-16T13:01:34Z</time>
      </trkpt>
      <trkpt lat="45.31182" lon="6.05287">
        <ele>1869.4</ele>
        <time>2021-01-16T13:01:35Z</time>
      </trkpt>
      <trkpt lat="45.31182" lon="6.05287">
        <ele>1869.6</ele>
        <time>2021-01-16T13:01:36Z</time>
      </trkpt>
      <trkpt lat="45.31182" lon="6.05287">
        <ele>1869.6</ele>
        <time>2021-01-16T13:01:37Z</time>
      </trkpt>
      <trkpt lat="45.31182" lon="6.05287">
        <ele>1869.6</ele>
        <time>2021-01-16T13:01:38Z</time>
      </trkpt>
      <trkpt lat="45.31182" lon="6.05287">
        <ele>1869.6</ele>
        <time>2021-01-16T13:01:39Z</time>
      </trkpt>
      <trkpt lat="45.31182" lon="6.05287">
        <ele>1869.6</ele>
        <time>2021-01-16T13:01:40Z</time>
      </trkpt>
      <trkpt lat="45.31182" lon="6.05287">
        <ele>1869.6</ele>
        <time>2021-01-16T13:01:41Z</time>
      </trkpt>
      <trkpt lat="45.31182" lon="6.05287">
        <ele>1869.6</ele>
        <time>2021-01-16T13:01:42Z</time>
      </trkpt>
      <trkpt lat="45.31182" lon="6.05287">
        <ele>1869.6</ele>
        <time>2021-01-16T13:01:43Z</time>
      </trkpt>
      <trkpt lat="45.31182" lon="6.05287">
        <ele>1869.6</ele>
        <time>2021-01-16T13:01:44Z</time>
      </trkpt>
      <trkpt lat="45.31182" lon="6.05287">
        <ele>1869.6</ele>
        <time>2021-01-16T13:01:45Z</time>
      </trkpt>
      <trkpt lat="45.31182" lon="6.05287">
        <ele>1869.6</ele>
        <time>2021-01-16T13:01:46Z</time>
      </trkpt>
      <trkpt lat="45.31182" lon="6.05287">
        <ele>1869.6</ele>
        <time>2021-01-16T13:01:47Z</time>
      </trkpt>
      <trkpt lat="45.31182" lon="6.05287">
        <ele>1869.6</ele>
        <time>2021-01-16T13:01:48Z</time>
      </trkpt>
      <trkpt lat="45.31182" lon="6.05287">
        <ele>1869.6</ele>
        <time>2021-01-16T13:01:49Z</time>
      </trkpt>
      <trkpt lat="45.31182" lon="6.05287">
        <ele>1869.6</ele>
        <time>2021-01-16T13:01:50Z</time>
      </trkpt>
      <trkpt lat="45.31182" lon="6.05287">
        <ele>1869.6</ele>
        <time>2021-01-16T13:01:51Z</time>
      </trkpt>
      <trkpt lat="45.31182" lon="6.05287">
        <ele>1869.6</ele>
        <time>2021-01-16T13:01:52Z</time>
      </trkpt>
      <trkpt lat="45.31182" lon="6.05287">
        <ele>1869.6</ele>
        <time>2021-01-16T13:01:53Z</time>
      </trkpt>
      <trkpt lat="45.31182" lon="6.05287">
        <ele>1869.6</ele>
        <time>2021-01-16T13:01:54Z</time>
      </trkpt>
      <trkpt lat="45.31182" lon="6.05287">
        <ele>1869.6</ele>
        <time>2021-01-16T13:01:55Z</time>
      </trkpt>
      <trkpt lat="45.31182" lon="6.05287">
        <ele>1869.6</ele>
        <time>2021-01-16T13:01:56Z</time>
      </trkpt>
      <trkpt lat="45.31182" lon="6.05287">
        <ele>1869.6</ele>
        <time>2021-01-16T13:01:57Z</time>
      </trkpt>
      <trkpt lat="45.31182" lon="6.05287">
        <ele>1869.6</ele>
        <time>2021-01-16T13:01:58Z</time>
      </trkpt>
      <trkpt lat="45.31182" lon="6.05287">
        <ele>1869.6</ele>
        <time>2021-01-16T13:01:59Z</time>
      </trkpt>
      <trkpt lat="45.31182" lon="6.05287">
        <ele>1869.8</ele>
        <time>2021-01-16T13:02:00Z</time>
      </trkpt>
      <trkpt lat="45.31182" lon="6.05287">
        <ele>1869.6</ele>
        <time>2021-01-16T13:02:01Z</time>
      </trkpt>
      <trkpt lat="45.31182" lon="6.05287">
        <ele>1869.6</ele>
        <time>2021-01-16T13:02:02Z</time>
      </trkpt>
      <trkpt lat="45.31182" lon="6.05287">
        <ele>1869.8</ele>
        <time>2021-01-16T13:02:03Z</time>
      </trkpt>
      <trkpt lat="45.31182" lon="6.05287">
        <ele>1869.6</ele>
        <time>2021-01-16T13:02:04Z</time>
      </trkpt>
      <trkpt lat="45.31182" lon="6.05287">
        <ele>1869.6</ele>
        <time>2021-01-16T13:02:05Z</time>
      </trkpt>
      <trkpt lat="45.31182" lon="6.05287">
        <ele>1869.6</ele>
        <time>2021-01-16T13:02:06Z</time>
      </trkpt>
      <trkpt lat="45.31182" lon="6.05287">
        <ele>1869.8</ele>
        <time>2021-01-16T13:02:07Z</time>
      </trkpt>
      <trkpt lat="45.31182" lon="6.05287">
        <ele>1869.8</ele>
        <time>2021-01-16T13:02:08Z</time>
      </trkpt>
      <trkpt lat="45.31182" lon="6.05287">
        <ele>1869.8</ele>
        <time>2021-01-16T13:02:09Z</time>
      </trkpt>
      <trkpt lat="45.31182" lon="6.05287">
        <ele>1869.8</ele>
        <time>2021-01-16T13:02:10Z</time>
      </trkpt>
      <trkpt lat="45.31182" lon="6.05287">
        <ele>1869.8</ele>
        <time>2021-01-16T13:02:11Z</time>
      </trkpt>
      <trkpt lat="45.31182" lon="6.05287">
        <ele>1869.8</ele>
        <time>2021-01-16T13:02:12Z</time>
      </trkpt>
      <trkpt lat="45.31182" lon="6.05287">
        <ele>1869.8</ele>
        <time>2021-01-16T13:02:13Z</time>
      </trkpt>
      <trkpt lat="45.31182" lon="6.05287">
        <ele>1869.8</ele>
        <time>2021-01-16T13:02:14Z</time>
      </trkpt>
      <trkpt lat="45.31182" lon="6.05287">
        <ele>1869.8</ele>
        <time>2021-01-16T13:02:15Z</time>
      </trkpt>
      <trkpt lat="45.31182" lon="6.05287">
        <ele>1869.8</ele>
        <time>2021-01-16T13:02:16Z</time>
      </trkpt>
      <trkpt lat="45.31182" lon="6.05287">
        <ele>1870</ele>
        <time>2021-01-16T13:02:17Z</time>
      </trkpt>
      <trkpt lat="45.31182" lon="6.05287">
        <ele>1870</ele>
        <time>2021-01-16T13:02:18Z</time>
      </trkpt>
      <trkpt lat="45.31182" lon="6.05287">
        <ele>1870</ele>
        <time>2021-01-16T13:02:19Z</time>
      </trkpt>
      <trkpt lat="45.31182" lon="6.05287">
        <ele>1870</ele>
        <time>2021-01-16T13:02:20Z</time>
      </trkpt>
      <trkpt lat="45.31182" lon="6.05287">
        <ele>1870</ele>
        <time>2021-01-16T13:02:21Z</time>
      </trkpt>
      <trkpt lat="45.31182" lon="6.05287">
        <ele>1870</ele>
        <time>2021-01-16T13:02:22Z</time>
      </trkpt>
      <trkpt lat="45.31182" lon="6.05287">
        <ele>1870</ele>
        <time>2021-01-16T13:02:23Z</time>
      </trkpt>
      <trkpt lat="45.31182" lon="6.05287">
        <ele>1869.8</ele>
        <time>2021-01-16T13:02:24Z</time>
      </trkpt>
      <trkpt lat="45.31182" lon="6.05287">
        <ele>1869.8</ele>
        <time>2021-01-16T13:02:25Z</time>
      </trkpt>
      <trkpt lat="45.31182" lon="6.05287">
        <ele>1870</ele>
        <time>2021-01-16T13:02:26Z</time>
      </trkpt>
      <trkpt lat="45.31182" lon="6.05287">
        <ele>1870</ele>
        <time>2021-01-16T13:02:27Z</time>
      </trkpt>
      <trkpt lat="45.31182" lon="6.05287">
        <ele>1870</ele>
        <time>2021-01-16T13:02:28Z</time>
      </trkpt>
      <trkpt lat="45.31182" lon="6.05287">
        <ele>1870</ele>
        <time>2021-01-16T13:02:29Z</time>
      </trkpt>
      <trkpt lat="45.31182" lon="6.05287">
        <ele>1870</ele>
        <time>2021-01-16T13:02:30Z</time>
      </trkpt>
      <trkpt lat="45.31182" lon="6.05287">
        <ele>1870.2</ele>
        <time>2021-01-16T13:02:31Z</time>
      </trkpt>
      <trkpt lat="45.31182" lon="6.05287">
        <ele>1870.2</ele>
        <time>2021-01-16T13:02:32Z</time>
      </trkpt>
      <trkpt lat="45.31182" lon="6.05287">
        <ele>1870.2</ele>
        <time>2021-01-16T13:02:33Z</time>
      </trkpt>
      <trkpt lat="45.31182" lon="6.05287">
        <ele>1870.2</ele>
        <time>2021-01-16T13:02:34Z</time>
      </trkpt>
      <trkpt lat="45.31182" lon="6.05287">
        <ele>1870.2</ele>
        <time>2021-01-16T13:02:35Z</time>
      </trkpt>
      <trkpt lat="45.31182" lon="6.05287">
        <ele>1870.2</ele>
        <time>2021-01-16T13:02:36Z</time>
      </trkpt>
      <trkpt lat="45.31182" lon="6.05287">
        <ele>1870.2</ele>
        <time>2021-01-16T13:02:37Z</time>
      </trkpt>
      <trkpt lat="45.31182" lon="6.05287">
        <ele>1870.2</ele>
        <time>2021-01-16T13:02:38Z</time>
      </trkpt>
      <trkpt lat="45.31182" lon="6.05287">
        <ele>1870.2</ele>
        <time>2021-01-16T13:02:39Z</time>
      </trkpt>
      <trkpt lat="45.31182" lon="6.05287">
        <ele>1870.2</ele>
        <time>2021-01-16T13:02:40Z</time>
      </trkpt>
      <trkpt lat="45.31182" lon="6.05287">
        <ele>1870.2</ele>
        <time>2021-01-16T13:02:41Z</time>
      </trkpt>
      <trkpt lat="45.31182" lon="6.05287">
        <ele>1870</ele>
        <time>2021-01-16T13:02:42Z</time>
      </trkpt>
      <trkpt lat="45.31182" lon="6.05287">
        <ele>1870</ele>
        <time>2021-01-16T13:02:43Z</time>
      </trkpt>
      <trkpt lat="45.31182" lon="6.05287">
        <ele>1870</ele>
        <time>2021-01-16T13:02:44Z</time>
      </trkpt>
      <trkpt lat="45.31182" lon="6.05287">
        <ele>1870</ele>
        <time>2021-01-16T13:02:45Z</time>
      </trkpt>
      <trkpt lat="45.31182" lon="6.05287">
        <ele>1870</ele>
        <time>2021-01-16T13:02:46Z</time>
      </trkpt>
      <trkpt lat="45.31182" lon="6.05287">
        <ele>1870.2</ele>
        <time>2021-01-16T13:02:47Z</time>
      </trkpt>
      <trkpt lat="45.31182" lon="6.05287">
        <ele>1870</ele>
        <time>2021-01-16T13:02:48Z</time>
      </trkpt>
      <trkpt lat="45.31182" lon="6.05287">
        <ele>1870.2</ele>
        <time>2021-01-16T13:02:49Z</time>
      </trkpt>
      <trkpt lat="45.31182" lon="6.05287">
        <ele>1870.2</ele>
        <time>2021-01-16T13:02:50Z</time>
      </trkpt>
      <trkpt lat="45.31182" lon="6.05287">
        <ele>1870.2</ele>
        <time>2021-01-16T13:02:51Z</time>
      </trkpt>
      <trkpt lat="45.31182" lon="6.05287">
        <ele>1870.2</ele>
        <time>2021-01-16T13:02:52Z</time>
      </trkpt>
      <trkpt lat="45.31182" lon="6.05287">
        <ele>1870.2</ele>
        <time>2021-01-16T13:02:53Z</time>
      </trkpt>
      <trkpt lat="45.31182" lon="6.05287">
        <ele>1870.2</ele>
        <time>2021-01-16T13:02:54Z</time>
      </trkpt>
      <trkpt lat="45.31182" lon="6.05287">
        <ele>1870.2</ele>
        <time>2021-01-16T13:02:55Z</time>
      </trkpt>
      <trkpt lat="45.31182" lon="6.05287">
        <ele>1870</ele>
        <time>2021-01-16T13:02:56Z</time>
      </trkpt>
      <trkpt lat="45.31182" lon="6.05287">
        <ele>1870</ele>
        <time>2021-01-16T13:02:57Z</time>
      </trkpt>
      <trkpt lat="45.31182" lon="6.05287">
        <ele>1870</ele>
        <time>2021-01-16T13:02:58Z</time>
      </trkpt>
      <trkpt lat="45.31182" lon="6.05287">
        <ele>1870</ele>
        <time>2021-01-16T13:02:59Z</time>
      </trkpt>
      <trkpt lat="45.31182" lon="6.05287">
        <ele>1870.2</ele>
        <time>2021-01-16T13:03:00Z</time>
      </trkpt>
      <trkpt lat="45.31182" lon="6.05287">
        <ele>1870.2</ele>
        <time>2021-01-16T13:03:01Z</time>
      </trkpt>
      <trkpt lat="45.31182" lon="6.05287">
        <ele>1870</ele>
        <time>2021-01-16T13:03:02Z</time>
      </trkpt>
      <trkpt lat="45.31182" lon="6.05287">
        <ele>1870</ele>
        <time>2021-01-16T13:03:03Z</time>
      </trkpt>
      <trkpt lat="45.31182" lon="6.05287">
        <ele>1870</ele>
        <time>2021-01-16T13:03:04Z</time>
      </trkpt>
      <trkpt lat="45.31182" lon="6.05287">
        <ele>1870</ele>
        <time>2021-01-16T13:03:05Z</time>
      </trkpt>
      <trkpt lat="45.31182" lon="6.05287">
        <ele>1870</ele>
        <time>2021-01-16T13:03:06Z</time>
      </trkpt>
      <trkpt lat="45.31182" lon="6.05287">
        <ele>1870</ele>
        <time>2021-01-16T13:03:07Z</time>
      </trkpt>
      <trkpt lat="45.31182" lon="6.05287">
        <ele>1870</ele>
        <time>2021-01-16T13:03:08Z</time>
      </trkpt>
      <trkpt lat="45.31182" lon="6.05287">
        <ele>1870</ele>
        <time>2021-01-16T13:03:09Z</time>
      </trkpt>
      <trkpt lat="45.31182" lon="6.05287">
        <ele>1870</ele>
        <time>2021-01-16T13:03:10Z</time>
      </trkpt>
      <trkpt lat="45.31182" lon="6.05287">
        <ele>1870</ele>
        <time>2021-01-16T13:03:11Z</time>
      </trkpt>
      <trkpt lat="45.31182" lon="6.05287">
        <ele>1870</ele>
        <time>2021-01-16T13:03:12Z</time>
      </trkpt>
      <trkpt lat="45.31182" lon="6.05287">
        <ele>1870</ele>
        <time>2021-01-16T13:03:13Z</time>
      </trkpt>
      <trkpt lat="45.31182" lon="6.05287">
        <ele>1870</ele>
        <time>2021-01-16T13:03:14Z</time>
      </trkpt>
      <trkpt lat="45.31182" lon="6.05287">
        <ele>1870</ele>
        <time>2021-01-16T13:03:15Z</time>
      </trkpt>
      <trkpt lat="45.31182" lon="6.05287">
        <ele>1870</ele>
        <time>2021-01-16T13:03:16Z</time>
      </trkpt>
      <trkpt lat="45.31182" lon="6.05287">
        <ele>1870</ele>
        <time>2021-01-16T13:03:17Z</time>
      </trkpt>
      <trkpt lat="45.31182" lon="6.05287">
        <ele>1870</ele>
        <time>2021-01-16T13:03:18Z</time>
      </trkpt>
      <trkpt lat="45.31182" lon="6.05287">
        <ele>1870</ele>
        <time>2021-01-16T13:03:19Z</time>
      </trkpt>
      <trkpt lat="45.31182" lon="6.05287">
        <ele>1870</ele>
        <time>2021-01-16T13:03:20Z</time>
      </trkpt>
      <trkpt lat="45.31182" lon="6.05287">
        <ele>1870</ele>
        <time>2021-01-16T13:03:21Z</time>
      </trkpt>
      <trkpt lat="45.31182" lon="6.05287">
        <ele>1870</ele>
        <time>2021-01-16T13:03:22Z</time>
      </trkpt>
      <trkpt lat="45.31182" lon="6.05287">
        <ele>1870</ele>
        <time>2021-01-16T13:03:23Z</time>
      </trkpt>
      <trkpt lat="45.31182" lon="6.05287">
        <ele>1870</ele>
        <time>2021-01-16T13:03:24Z</time>
      </trkpt>
      <trkpt lat="45.31182" lon="6.05287">
        <ele>1870</ele>
        <time>2021-01-16T13:03:25Z</time>
      </trkpt>
      <trkpt lat="45.31182" lon="6.05287">
        <ele>1870</ele>
        <time>2021-01-16T13:03:26Z</time>
      </trkpt>
      <trkpt lat="45.31182" lon="6.05287">
        <ele>1870</ele>
        <time>2021-01-16T13:03:27Z</time>
      </trkpt>
      <trkpt lat="45.31182" lon="6.05287">
        <ele>1870</ele>
        <time>2021-01-16T13:03:28Z</time>
      </trkpt>
      <trkpt lat="45.31182" lon="6.05287">
        <ele>1870</ele>
        <time>2021-01-16T13:03:29Z</time>
      </trkpt>
      <trkpt lat="45.31182" lon="6.05287">
        <ele>1870</ele>
        <time>2021-01-16T13:03:30Z</time>
      </trkpt>
      <trkpt lat="45.31182" lon="6.05287">
        <ele>1870</ele>
        <time>2021-01-16T13:03:31Z</time>
      </trkpt>
      <trkpt lat="45.31182" lon="6.05287">
        <ele>1870</ele>
        <time>2021-01-16T13:03:32Z</time>
      </trkpt>
      <trkpt lat="45.31182" lon="6.05287">
        <ele>1870</ele>
        <time>2021-01-16T13:03:33Z</time>
      </trkpt>
      <trkpt lat="45.31182" lon="6.05287">
        <ele>1870</ele>
        <time>2021-01-16T13:03:34Z</time>
      </trkpt>
      <trkpt lat="45.31182" lon="6.05287">
        <ele>1870.2</ele>
        <time>2021-01-16T13:03:35Z</time>
      </trkpt>
      <trkpt lat="45.31182" lon="6.05287">
        <ele>1870.2</ele>
        <time>2021-01-16T13:03:36Z</time>
      </trkpt>
      <trkpt lat="45.31182" lon="6.05287">
        <ele>1870.2</ele>
        <time>2021-01-16T13:03:37Z</time>
      </trkpt>
      <trkpt lat="45.31182" lon="6.05287">
        <ele>1870</ele>
        <time>2021-01-16T13:03:38Z</time>
      </trkpt>
      <trkpt lat="45.31182" lon="6.05287">
        <ele>1870</ele>
        <time>2021-01-16T13:03:39Z</time>
      </trkpt>
      <trkpt lat="45.31182" lon="6.05287">
        <ele>1870</ele>
        <time>2021-01-16T13:03:40Z</time>
      </trkpt>
      <trkpt lat="45.31182" lon="6.05287">
        <ele>1870</ele>
        <time>2021-01-16T13:03:41Z</time>
      </trkpt>
      <trkpt lat="45.31182" lon="6.05287">
        <ele>1870</ele>
        <time>2021-01-16T13:03:42Z</time>
      </trkpt>
      <trkpt lat="45.31182" lon="6.05287">
        <ele>1870.2</ele>
        <time>2021-01-16T13:03:43Z</time>
      </trkpt>
      <trkpt lat="45.31182" lon="6.05287">
        <ele>1870.2</ele>
        <time>2021-01-16T13:03:44Z</time>
      </trkpt>
      <trkpt lat="45.31182" lon="6.05287">
        <ele>1870.2</ele>
        <time>2021-01-16T13:03:45Z</time>
      </trkpt>
      <trkpt lat="45.31182" lon="6.05287">
        <ele>1870.2</ele>
        <time>2021-01-16T13:03:46Z</time>
      </trkpt>
      <trkpt lat="45.31182" lon="6.05287">
        <ele>1870.2</ele>
        <time>2021-01-16T13:03:47Z</time>
      </trkpt>
      <trkpt lat="45.31182" lon="6.05287">
        <ele>1870</ele>
        <time>2021-01-16T13:03:48Z</time>
      </trkpt>
      <trkpt lat="45.31182" lon="6.05287">
        <ele>1870.2</ele>
        <time>2021-01-16T13:03:49Z</time>
      </trkpt>
      <trkpt lat="45.31182" lon="6.05287">
        <ele>1870.2</ele>
        <time>2021-01-16T13:03:50Z</time>
      </trkpt>
      <trkpt lat="45.31182" lon="6.05287">
        <ele>1870.2</ele>
        <time>2021-01-16T13:03:51Z</time>
      </trkpt>
      <trkpt lat="45.31182" lon="6.05287">
        <ele>1870.2</ele>
        <time>2021-01-16T13:03:52Z</time>
      </trkpt>
      <trkpt lat="45.31182" lon="6.05287">
        <ele>1870</ele>
        <time>2021-01-16T13:03:53Z</time>
      </trkpt>
      <trkpt lat="45.31182" lon="6.05287">
        <ele>1870</ele>
        <time>2021-01-16T13:03:54Z</time>
      </trkpt>
      <trkpt lat="45.31182" lon="6.05287">
        <ele>1870.2</ele>
        <time>2021-01-16T13:03:55Z</time>
      </trkpt>
      <trkpt lat="45.31182" lon="6.05287">
        <ele>1870.2</ele>
        <time>2021-01-16T13:03:56Z</time>
      </trkpt>
      <trkpt lat="45.31182" lon="6.05287">
        <ele>1870.2</ele>
        <time>2021-01-16T13:03:57Z</time>
      </trkpt>
      <trkpt lat="45.31182" lon="6.05287">
        <ele>1870.2</ele>
        <time>2021-01-16T13:03:58Z</time>
      </trkpt>
      <trkpt lat="45.31182" lon="6.05287">
        <ele>1870.2</ele>
        <time>2021-01-16T13:03:59Z</time>
      </trkpt>
      <trkpt lat="45.31182" lon="6.05287">
        <ele>1870</ele>
        <time>2021-01-16T13:04:00Z</time>
      </trkpt>
      <trkpt lat="45.31182" lon="6.05287">
        <ele>1870</ele>
        <time>2021-01-16T13:04:01Z</time>
      </trkpt>
      <trkpt lat="45.31182" lon="6.05287">
        <ele>1870</ele>
        <time>2021-01-16T13:04:02Z</time>
      </trkpt>
      <trkpt lat="45.31182" lon="6.05287">
        <ele>1870</ele>
        <time>2021-01-16T13:04:03Z</time>
      </trkpt>
      <trkpt lat="45.31182" lon="6.05287">
        <ele>1870.2</ele>
        <time>2021-01-16T13:04:04Z</time>
      </trkpt>
      <trkpt lat="45.31182" lon="6.05287">
        <ele>1870.2</ele>
        <time>2021-01-16T13:04:05Z</time>
      </trkpt>
      <trkpt lat="45.31182" lon="6.05287">
        <ele>1870</ele>
        <time>2021-01-16T13:04:06Z</time>
      </trkpt>
      <trkpt lat="45.31182" lon="6.05287">
        <ele>1870</ele>
        <time>2021-01-16T13:04:07Z</time>
      </trkpt>
      <trkpt lat="45.31182" lon="6.05287">
        <ele>1870</ele>
        <time>2021-01-16T13:04:08Z</time>
      </trkpt>
      <trkpt lat="45.31182" lon="6.05287">
        <ele>1870</ele>
        <time>2021-01-16T13:04:09Z</time>
      </trkpt>
      <trkpt lat="45.31182" lon="6.05287">
        <ele>1870.2</ele>
        <time>2021-01-16T13:04:10Z</time>
      </trkpt>
      <trkpt lat="45.31182" lon="6.05287">
        <ele>1870.2</ele>
        <time>2021-01-16T13:04:11Z</time>
      </trkpt>
      <trkpt lat="45.31182" lon="6.05287">
        <ele>1870.2</ele>
        <time>2021-01-16T13:04:12Z</time>
      </trkpt>
      <trkpt lat="45.31182" lon="6.05287">
        <ele>1870.2</ele>
        <time>2021-01-16T13:04:13Z</time>
      </trkpt>
      <trkpt lat="45.31182" lon="6.05287">
        <ele>1870</ele>
        <time>2021-01-16T13:04:14Z</time>
      </trkpt>
      <trkpt lat="45.31182" lon="6.05287">
        <ele>1870</ele>
        <time>2021-01-16T13:04:15Z</time>
      </trkpt>
      <trkpt lat="45.31182" lon="6.05287">
        <ele>1870</ele>
        <time>2021-01-16T13:04:16Z</time>
      </trkpt>
      <trkpt lat="45.31182" lon="6.05288">
        <ele>1870</ele>
        <time>2021-01-16T13:04:17Z</time>
      </trkpt>
      <trkpt lat="45.31184" lon="6.05292">
        <ele>1870</ele>
        <time>2021-01-16T13:04:18Z</time>
      </trkpt>
      <trkpt lat="45.31185" lon="6.05292">
        <ele>1870</ele>
        <time>2021-01-16T13:04:19Z</time>
      </trkpt>
      <trkpt lat="45.31186" lon="6.05292">
        <ele>1870</ele>
        <time>2021-01-16T13:04:20Z</time>
      </trkpt>
      <trkpt lat="45.31186" lon="6.05292">
        <ele>1869.8</ele>
        <time>2021-01-16T13:04:21Z</time>
      </trkpt>
      <trkpt lat="45.31187" lon="6.05292">
        <ele>1869.6</ele>
        <time>2021-01-16T13:04:22Z</time>
      </trkpt>
      <trkpt lat="45.31187" lon="6.05292">
        <ele>1869.6</ele>
        <time>2021-01-16T13:04:23Z</time>
      </trkpt>
      <trkpt lat="45.31188" lon="6.05292">
        <ele>1869.6</ele>
        <time>2021-01-16T13:04:24Z</time>
      </trkpt>
      <trkpt lat="45.31189" lon="6.05291">
        <ele>1869.2</ele>
        <time>2021-01-16T13:04:25Z</time>
      </trkpt>
      <trkpt lat="45.31191" lon="6.0529">
        <ele>1869.2</ele>
        <time>2021-01-16T13:04:26Z</time>
      </trkpt>
      <trkpt lat="45.31194" lon="6.05288">
        <ele>1868.8</ele>
        <time>2021-01-16T13:04:27Z</time>
      </trkpt>
      <trkpt lat="45.31197" lon="6.05285">
        <ele>1868.2</ele>
        <time>2021-01-16T13:04:28Z</time>
      </trkpt>
      <trkpt lat="45.312" lon="6.05281">
        <ele>1867.6</ele>
        <time>2021-01-16T13:04:29Z</time>
      </trkpt>
      <trkpt lat="45.31203" lon="6.05277">
        <ele>1866.8</ele>
        <time>2021-01-16T13:04:30Z</time>
      </trkpt>
      <trkpt lat="45.31206" lon="6.05272">
        <ele>1865.8</ele>
        <time>2021-01-16T13:04:31Z</time>
      </trkpt>
      <trkpt lat="45.31208" lon="6.05268">
        <ele>1864.8</ele>
        <time>2021-01-16T13:04:32Z</time>
      </trkpt>
      <trkpt lat="45.31212" lon="6.05267">
        <ele>1863.8</ele>
        <time>2021-01-16T13:04:33Z</time>
      </trkpt>
      <trkpt lat="45.31216" lon="6.05267">
        <ele>1862.6</ele>
        <time>2021-01-16T13:04:34Z</time>
      </trkpt>
      <trkpt lat="45.31221" lon="6.05267">
        <ele>1861.6</ele>
        <time>2021-01-16T13:04:35Z</time>
      </trkpt>
      <trkpt lat="45.31224" lon="6.05264">
        <ele>1860.4</ele>
        <time>2021-01-16T13:04:36Z</time>
      </trkpt>
      <trkpt lat="45.31228" lon="6.05259">
        <ele>1859.2</ele>
        <time>2021-01-16T13:04:37Z</time>
      </trkpt>
      <trkpt lat="45.31232" lon="6.05252">
        <ele>1858</ele>
        <time>2021-01-16T13:04:38Z</time>
      </trkpt>
      <trkpt lat="45.31234" lon="6.05246">
        <ele>1856.6</ele>
        <time>2021-01-16T13:04:39Z</time>
      </trkpt>
      <trkpt lat="45.31236" lon="6.05238">
        <ele>1855</ele>
        <time>2021-01-16T13:04:40Z</time>
      </trkpt>
      <trkpt lat="45.31239" lon="6.05232">
        <ele>1853.4</ele>
        <time>2021-01-16T13:04:41Z</time>
      </trkpt>
      <trkpt lat="45.31241" lon="6.05226">
        <ele>1851.8</ele>
        <time>2021-01-16T13:04:42Z</time>
      </trkpt>
      <trkpt lat="45.31243" lon="6.05221">
        <ele>1850.4</ele>
        <time>2021-01-16T13:04:43Z</time>
      </trkpt>
      <trkpt lat="45.31246" lon="6.05216">
        <ele>1849</ele>
        <time>2021-01-16T13:04:44Z</time>
      </trkpt>
      <trkpt lat="45.31248" lon="6.05209">
        <ele>1847.6</ele>
        <time>2021-01-16T13:04:45Z</time>
      </trkpt>
      <trkpt lat="45.31249" lon="6.05201">
        <ele>1846.2</ele>
        <time>2021-01-16T13:04:46Z</time>
      </trkpt>
      <trkpt lat="45.3125" lon="6.05192">
        <ele>1844.6</ele>
        <time>2021-01-16T13:04:47Z</time>
      </trkpt>
      <trkpt lat="45.31251" lon="6.05183">
        <ele>1843.2</ele>
        <time>2021-01-16T13:04:48Z</time>
      </trkpt>
      <trkpt lat="45.31252" lon="6.05173">
        <ele>1841.6</ele>
        <time>2021-01-16T13:04:49Z</time>
      </trkpt>
      <trkpt lat="45.31252" lon="6.05165">
        <ele>1840.4</ele>
        <time>2021-01-16T13:04:50Z</time>
      </trkpt>
      <trkpt lat="45.31253" lon="6.05158">
        <ele>1839.4</ele>
        <time>2021-01-16T13:04:51Z</time>
      </trkpt>
      <trkpt lat="45.31254" lon="6.05151">
        <ele>1838.4</ele>
        <time>2021-01-16T13:04:52Z</time>
      </trkpt>
      <trkpt lat="45.31255" lon="6.05144">
        <ele>1837.4</ele>
        <time>2021-01-16T13:04:53Z</time>
      </trkpt>
      <trkpt lat="45.31256" lon="6.05137">
        <ele>1836.4</ele>
        <time>2021-01-16T13:04:54Z</time>
      </trkpt>
      <trkpt lat="45.31256" lon="6.05131">
        <ele>1835.4</ele>
        <time>2021-01-16T13:04:55Z</time>
      </trkpt>
      <trkpt lat="45.31255" lon="6.05124">
        <ele>1834.6</ele>
        <time>2021-01-16T13:04:56Z</time>
      </trkpt>
      <trkpt lat="45.31254" lon="6.05118">
        <ele>1833.8</ele>
        <time>2021-01-16T13:04:57Z</time>
      </trkpt>
      <trkpt lat="45.31253" lon="6.05114">
        <ele>1833.2</ele>
        <time>2021-01-16T13:04:58Z</time>
      </trkpt>
      <trkpt lat="45.31252" lon="6.0511">
        <ele>1832.8</ele>
        <time>2021-01-16T13:04:59Z</time>
      </trkpt>
      <trkpt lat="45.31251" lon="6.05108">
        <ele>1832.4</ele>
        <time>2021-01-16T13:05:00Z</time>
      </trkpt>
      <trkpt lat="45.31251" lon="6.05107">
        <ele>1832.2</ele>
        <time>2021-01-16T13:05:01Z</time>
      </trkpt>
      <trkpt lat="45.3125" lon="6.05107">
        <ele>1832</ele>
        <time>2021-01-16T13:05:02Z</time>
      </trkpt>
      <trkpt lat="45.3125" lon="6.05106">
        <ele>1831.8</ele>
        <time>2021-01-16T13:05:03Z</time>
      </trkpt>
      <trkpt lat="45.3125" lon="6.05106">
        <ele>1831.6</ele>
        <time>2021-01-16T13:05:04Z</time>
      </trkpt>
      <trkpt lat="45.3125" lon="6.05106">
        <ele>1831.6</ele>
        <time>2021-01-16T13:05:05Z</time>
      </trkpt>
      <trkpt lat="45.3125" lon="6.05106">
        <ele>1831.4</ele>
        <time>2021-01-16T13:05:06Z</time>
      </trkpt>
      <trkpt lat="45.3125" lon="6.05106">
        <ele>1831.4</ele>
        <time>2021-01-16T13:05:07Z</time>
      </trkpt>
      <trkpt lat="45.3125" lon="6.05106">
        <ele>1831.4</ele>
        <time>2021-01-16T13:05:08Z</time>
      </trkpt>
      <trkpt lat="45.3125" lon="6.05106">
        <ele>1831.2</ele>
        <time>2021-01-16T13:05:09Z</time>
      </trkpt>
      <trkpt lat="45.3125" lon="6.05106">
        <ele>1831.4</ele>
        <time>2021-01-16T13:05:10Z</time>
      </trkpt>
      <trkpt lat="45.3125" lon="6.05106">
        <ele>1831.4</ele>
        <time>2021-01-16T13:05:11Z</time>
      </trkpt>
      <trkpt lat="45.3125" lon="6.05106">
        <ele>1831.4</ele>
        <time>2021-01-16T13:05:12Z</time>
      </trkpt>
      <trkpt lat="45.3125" lon="6.05106">
        <ele>1831.4</ele>
        <time>2021-01-16T13:05:13Z</time>
      </trkpt>
      <trkpt lat="45.3125" lon="6.05106">
        <ele>1831.4</ele>
        <time>2021-01-16T13:05:14Z</time>
      </trkpt>
      <trkpt lat="45.3125" lon="6.05106">
        <ele>1831.4</ele>
        <time>2021-01-16T13:05:15Z</time>
      </trkpt>
      <trkpt lat="45.3125" lon="6.05106">
        <ele>1831.2</ele>
        <time>2021-01-16T13:05:16Z</time>
      </trkpt>
      <trkpt lat="45.3125" lon="6.05106">
        <ele>1831.2</ele>
        <time>2021-01-16T13:05:17Z</time>
      </trkpt>
      <trkpt lat="45.3125" lon="6.05106">
        <ele>1831.2</ele>
        <time>2021-01-16T13:05:18Z</time>
      </trkpt>
      <trkpt lat="45.3125" lon="6.05106">
        <ele>1831.2</ele>
        <time>2021-01-16T13:05:19Z</time>
      </trkpt>
      <trkpt lat="45.3125" lon="6.05106">
        <ele>1831.2</ele>
        <time>2021-01-16T13:05:20Z</time>
      </trkpt>
      <trkpt lat="45.3125" lon="6.05106">
        <ele>1831.2</ele>
        <time>2021-01-16T13:05:21Z</time>
      </trkpt>
      <trkpt lat="45.3125" lon="6.05106">
        <ele>1831.2</ele>
        <time>2021-01-16T13:05:22Z</time>
      </trkpt>
      <trkpt lat="45.3125" lon="6.05106">
        <ele>1831.2</ele>
        <time>2021-01-16T13:05:23Z</time>
      </trkpt>
      <trkpt lat="45.3125" lon="6.05106">
        <ele>1831.2</ele>
        <time>2021-01-16T13:05:24Z</time>
      </trkpt>
      <trkpt lat="45.3125" lon="6.05106">
        <ele>1831.2</ele>
        <time>2021-01-16T13:05:25Z</time>
      </trkpt>
      <trkpt lat="45.3125" lon="6.05106">
        <ele>1831.2</ele>
        <time>2021-01-16T13:05:26Z</time>
      </trkpt>
      <trkpt lat="45.3125" lon="6.05106">
        <ele>1831.2</ele>
        <time>2021-01-16T13:05:27Z</time>
      </trkpt>
      <trkpt lat="45.3125" lon="6.05106">
        <ele>1831.2</ele>
        <time>2021-01-16T13:05:28Z</time>
      </trkpt>
      <trkpt lat="45.3125" lon="6.05106">
        <ele>1831.2</ele>
        <time>2021-01-16T13:05:29Z</time>
      </trkpt>
      <trkpt lat="45.3125" lon="6.05106">
        <ele>1831.2</ele>
        <time>2021-01-16T13:05:30Z</time>
      </trkpt>
      <trkpt lat="45.3125" lon="6.05106">
        <ele>1831.2</ele>
        <time>2021-01-16T13:05:31Z</time>
      </trkpt>
      <trkpt lat="45.3125" lon="6.05106">
        <ele>1831</ele>
        <time>2021-01-16T13:05:32Z</time>
      </trkpt>
      <trkpt lat="45.3125" lon="6.05106">
        <ele>1831</ele>
        <time>2021-01-16T13:05:33Z</time>
      </trkpt>
      <trkpt lat="45.3125" lon="6.05106">
        <ele>1831</ele>
        <time>2021-01-16T13:05:34Z</time>
      </trkpt>
      <trkpt lat="45.3125" lon="6.05106">
        <ele>1831</ele>
        <time>2021-01-16T13:05:35Z</time>
      </trkpt>
      <trkpt lat="45.3125" lon="6.05106">
        <ele>1831</ele>
        <time>2021-01-16T13:05:36Z</time>
      </trkpt>
      <trkpt lat="45.3125" lon="6.05106">
        <ele>1831</ele>
        <time>2021-01-16T13:05:37Z</time>
      </trkpt>
      <trkpt lat="45.3125" lon="6.05106">
        <ele>1831</ele>
        <time>2021-01-16T13:05:38Z</time>
      </trkpt>
      <trkpt lat="45.3125" lon="6.05106">
        <ele>1831</ele>
        <time>2021-01-16T13:05:39Z</time>
      </trkpt>
      <trkpt lat="45.3125" lon="6.05106">
        <ele>1831</ele>
        <time>2021-01-16T13:05:40Z</time>
      </trkpt>
      <trkpt lat="45.3125" lon="6.05106">
        <ele>1831</ele>
        <time>2021-01-16T13:05:41Z</time>
      </trkpt>
      <trkpt lat="45.3125" lon="6.05106">
        <ele>1831</ele>
        <time>2021-01-16T13:05:42Z</time>
      </trkpt>
      <trkpt lat="45.3125" lon="6.05106">
        <ele>1831</ele>
        <time>2021-01-16T13:05:43Z</time>
      </trkpt>
      <trkpt lat="45.3125" lon="6.05106">
        <ele>1831.2</ele>
        <time>2021-01-16T13:05:44Z</time>
      </trkpt>
      <trkpt lat="45.3125" lon="6.05106">
        <ele>1831.2</ele>
        <time>2021-01-16T13:05:45Z</time>
      </trkpt>
      <trkpt lat="45.3125" lon="6.05106">
        <ele>1831</ele>
        <time>2021-01-16T13:05:46Z</time>
      </trkpt>
      <trkpt lat="45.3125" lon="6.05106">
        <ele>1831</ele>
        <time>2021-01-16T13:05:47Z</time>
      </trkpt>
      <trkpt lat="45.3125" lon="6.05106">
        <ele>1831</ele>
        <time>2021-01-16T13:05:48Z</time>
      </trkpt>
      <trkpt lat="45.3125" lon="6.05106">
        <ele>1831</ele>
        <time>2021-01-16T13:05:49Z</time>
      </trkpt>
      <trkpt lat="45.3125" lon="6.05106">
        <ele>1831</ele>
        <time>2021-01-16T13:05:50Z</time>
      </trkpt>
      <trkpt lat="45.3125" lon="6.05106">
        <ele>1831</ele>
        <time>2021-01-16T13:05:51Z</time>
      </trkpt>
      <trkpt lat="45.3125" lon="6.05106">
        <ele>1831</ele>
        <time>2021-01-16T13:05:52Z</time>
      </trkpt>
      <trkpt lat="45.3125" lon="6.05106">
        <ele>1831</ele>
        <time>2021-01-16T13:05:53Z</time>
      </trkpt>
      <trkpt lat="45.3125" lon="6.05106">
        <ele>1831</ele>
        <time>2021-01-16T13:05:54Z</time>
      </trkpt>
      <trkpt lat="45.3125" lon="6.05106">
        <ele>1831</ele>
        <time>2021-01-16T13:05:55Z</time>
      </trkpt>
      <trkpt lat="45.3125" lon="6.05106">
        <ele>1831</ele>
        <time>2021-01-16T13:05:56Z</time>
      </trkpt>
      <trkpt lat="45.3125" lon="6.05106">
        <ele>1831</ele>
        <time>2021-01-16T13:05:57Z</time>
      </trkpt>
      <trkpt lat="45.3125" lon="6.05106">
        <ele>1831</ele>
        <time>2021-01-16T13:05:58Z</time>
      </trkpt>
      <trkpt lat="45.3125" lon="6.05106">
        <ele>1831</ele>
        <time>2021-01-16T13:05:59Z</time>
      </trkpt>
      <trkpt lat="45.3125" lon="6.05106">
        <ele>1831</ele>
        <time>2021-01-16T13:06:00Z</time>
      </trkpt>
      <trkpt lat="45.3125" lon="6.05106">
        <ele>1831</ele>
        <time>2021-01-16T13:06:01Z</time>
      </trkpt>
      <trkpt lat="45.3125" lon="6.05106">
        <ele>1831</ele>
        <time>2021-01-16T13:06:02Z</time>
      </trkpt>
      <trkpt lat="45.3125" lon="6.05106">
        <ele>1831</ele>
        <time>2021-01-16T13:06:03Z</time>
      </trkpt>
      <trkpt lat="45.3125" lon="6.05106">
        <ele>1831</ele>
        <time>2021-01-16T13:06:04Z</time>
      </trkpt>
      <trkpt lat="45.3125" lon="6.05106">
        <ele>1831</ele>
        <time>2021-01-16T13:06:05Z</time>
      </trkpt>
      <trkpt lat="45.3125" lon="6.05106">
        <ele>1831</ele>
        <time>2021-01-16T13:06:06Z</time>
      </trkpt>
      <trkpt lat="45.3125" lon="6.05106">
        <ele>1831</ele>
        <time>2021-01-16T13:06:07Z</time>
      </trkpt>
      <trkpt lat="45.3125" lon="6.05106">
        <ele>1831</ele>
        <time>2021-01-16T13:06:08Z</time>
      </trkpt>
      <trkpt lat="45.3125" lon="6.05106">
        <ele>1831</ele>
        <time>2021-01-16T13:06:09Z</time>
      </trkpt>
      <trkpt lat="45.3125" lon="6.05106">
        <ele>1831</ele>
        <time>2021-01-16T13:06:10Z</time>
      </trkpt>
      <trkpt lat="45.3125" lon="6.05106">
        <ele>1831</ele>
        <time>2021-01-16T13:06:11Z</time>
      </trkpt>
      <trkpt lat="45.3125" lon="6.05106">
        <ele>1831</ele>
        <time>2021-01-16T13:06:12Z</time>
      </trkpt>
      <trkpt lat="45.3125" lon="6.05106">
        <ele>1831</ele>
        <time>2021-01-16T13:06:13Z</time>
      </trkpt>
      <trkpt lat="45.3125" lon="6.05106">
        <ele>1831</ele>
        <time>2021-01-16T13:06:14Z</time>
      </trkpt>
      <trkpt lat="45.3125" lon="6.05106">
        <ele>1831</ele>
        <time>2021-01-16T13:06:15Z</time>
      </trkpt>
      <trkpt lat="45.3125" lon="6.05106">
        <ele>1831</ele>
        <time>2021-01-16T13:06:16Z</time>
      </trkpt>
      <trkpt lat="45.3125" lon="6.05106">
        <ele>1831</ele>
        <time>2021-01-16T13:06:17Z</time>
      </trkpt>
      <trkpt lat="45.3125" lon="6.05106">
        <ele>1831</ele>
        <time>2021-01-16T13:06:18Z</time>
      </trkpt>
      <trkpt lat="45.3125" lon="6.05106">
        <ele>1831</ele>
        <time>2021-01-16T13:06:19Z</time>
      </trkpt>
      <trkpt lat="45.3125" lon="6.05106">
        <ele>1831</ele>
        <time>2021-01-16T13:06:20Z</time>
      </trkpt>
      <trkpt lat="45.3125" lon="6.05106">
        <ele>1831</ele>
        <time>2021-01-16T13:06:21Z</time>
      </trkpt>
      <trkpt lat="45.3125" lon="6.05106">
        <ele>1831</ele>
        <time>2021-01-16T13:06:22Z</time>
      </trkpt>
      <trkpt lat="45.3125" lon="6.05106">
        <ele>1831</ele>
        <time>2021-01-16T13:06:23Z</time>
      </trkpt>
      <trkpt lat="45.3125" lon="6.05106">
        <ele>1831</ele>
        <time>2021-01-16T13:06:24Z</time>
      </trkpt>
      <trkpt lat="45.3125" lon="6.05106">
        <ele>1831</ele>
        <time>2021-01-16T13:06:25Z</time>
      </trkpt>
      <trkpt lat="45.3125" lon="6.05106">
        <ele>1831</ele>
        <time>2021-01-16T13:06:26Z</time>
      </trkpt>
      <trkpt lat="45.3125" lon="6.05106">
        <ele>1831.2</ele>
        <time>2021-01-16T13:06:27Z</time>
      </trkpt>
      <trkpt lat="45.3125" lon="6.05106">
        <ele>1831.2</ele>
        <time>2021-01-16T13:06:28Z</time>
      </trkpt>
      <trkpt lat="45.3125" lon="6.05106">
        <ele>1831</ele>
        <time>2021-01-16T13:06:29Z</time>
      </trkpt>
      <trkpt lat="45.3125" lon="6.05106">
        <ele>1831</ele>
        <time>2021-01-16T13:06:30Z</time>
      </trkpt>
      <trkpt lat="45.3125" lon="6.05106">
        <ele>1831</ele>
        <time>2021-01-16T13:06:31Z</time>
      </trkpt>
      <trkpt lat="45.3125" lon="6.05106">
        <ele>1831</ele>
        <time>2021-01-16T13:06:32Z</time>
      </trkpt>
      <trkpt lat="45.3125" lon="6.05106">
        <ele>1831</ele>
        <time>2021-01-16T13:06:33Z</time>
      </trkpt>
      <trkpt lat="45.3125" lon="6.05106">
        <ele>1831.2</ele>
        <time>2021-01-16T13:06:34Z</time>
      </trkpt>
      <trkpt lat="45.3125" lon="6.05106">
        <ele>1831.2</ele>
        <time>2021-01-16T13:06:35Z</time>
      </trkpt>
      <trkpt lat="45.3125" lon="6.05106">
        <ele>1831.2</ele>
        <time>2021-01-16T13:06:36Z</time>
      </trkpt>
      <trkpt lat="45.3125" lon="6.05106">
        <ele>1831.2</ele>
        <time>2021-01-16T13:06:37Z</time>
      </trkpt>
      <trkpt lat="45.3125" lon="6.05106">
        <ele>1831</ele>
        <time>2021-01-16T13:06:38Z</time>
      </trkpt>
      <trkpt lat="45.3125" lon="6.05106">
        <ele>1831</ele>
        <time>2021-01-16T13:06:39Z</time>
      </trkpt>
      <trkpt lat="45.3125" lon="6.05106">
        <ele>1831.2</ele>
        <time>2021-01-16T13:06:40Z</time>
      </trkpt>
      <trkpt lat="45.3125" lon="6.05106">
        <ele>1831.2</ele>
        <time>2021-01-16T13:06:41Z</time>
      </trkpt>
      <trkpt lat="45.3125" lon="6.05106">
        <ele>1831.2</ele>
        <time>2021-01-16T13:06:42Z</time>
      </trkpt>
      <trkpt lat="45.3125" lon="6.05106">
        <ele>1831.2</ele>
        <time>2021-01-16T13:06:43Z</time>
      </trkpt>
      <trkpt lat="45.3125" lon="6.05106">
        <ele>1831.2</ele>
        <time>2021-01-16T13:06:44Z</time>
      </trkpt>
      <trkpt lat="45.3125" lon="6.05106">
        <ele>1831.2</ele>
        <time>2021-01-16T13:06:45Z</time>
      </trkpt>
      <trkpt lat="45.3125" lon="6.05106">
        <ele>1831.2</ele>
        <time>2021-01-16T13:06:46Z</time>
      </trkpt>
      <trkpt lat="45.3125" lon="6.05106">
        <ele>1831.2</ele>
        <time>2021-01-16T13:06:47Z</time>
      </trkpt>
      <trkpt lat="45.3125" lon="6.05106">
        <ele>1831.2</ele>
        <time>2021-01-16T13:06:48Z</time>
      </trkpt>
      <trkpt lat="45.3125" lon="6.05106">
        <ele>1831.2</ele>
        <time>2021-01-16T13:06:49Z</time>
      </trkpt>
      <trkpt lat="45.3125" lon="6.05106">
        <ele>1831.2</ele>
        <time>2021-01-16T13:06:50Z</time>
      </trkpt>
      <trkpt lat="45.3125" lon="6.05106">
        <ele>1831.2</ele>
        <time>2021-01-16T13:06:51Z</time>
      </trkpt>
      <trkpt lat="45.3125" lon="6.05106">
        <ele>1831.2</ele>
        <time>2021-01-16T13:06:52Z</time>
      </trkpt>
      <trkpt lat="45.3125" lon="6.05106">
        <ele>1831.2</ele>
        <time>2021-01-16T13:06:53Z</time>
      </trkpt>
      <trkpt lat="45.3125" lon="6.05106">
        <ele>1831.2</ele>
        <time>2021-01-16T13:06:54Z</time>
      </trkpt>
      <trkpt lat="45.3125" lon="6.05106">
        <ele>1831.2</ele>
        <time>2021-01-16T13:06:55Z</time>
      </trkpt>
      <trkpt lat="45.3125" lon="6.05106">
        <ele>1831.2</ele>
        <time>2021-01-16T13:06:56Z</time>
      </trkpt>
      <trkpt lat="45.3125" lon="6.05106">
        <ele>1831.2</ele>
        <time>2021-01-16T13:06:57Z</time>
      </trkpt>
      <trkpt lat="45.3125" lon="6.05106">
        <ele>1831.2</ele>
        <time>2021-01-16T13:06:58Z</time>
      </trkpt>
      <trkpt lat="45.3125" lon="6.05106">
        <ele>1831.2</ele>
        <time>2021-01-16T13:06:59Z</time>
      </trkpt>
      <trkpt lat="45.3125" lon="6.05106">
        <ele>1831.2</ele>
        <time>2021-01-16T13:07:00Z</time>
      </trkpt>
      <trkpt lat="45.3125" lon="6.05106">
        <ele>1831.2</ele>
        <time>2021-01-16T13:07:01Z</time>
      </trkpt>
      <trkpt lat="45.3125" lon="6.05106">
        <ele>1831.2</ele>
        <time>2021-01-16T13:07:02Z</time>
      </trkpt>
      <trkpt lat="45.3125" lon="6.05106">
        <ele>1831.2</ele>
        <time>2021-01-16T13:07:03Z</time>
      </trkpt>
      <trkpt lat="45.3125" lon="6.05106">
        <ele>1831.2</ele>
        <time>2021-01-16T13:07:04Z</time>
      </trkpt>
      <trkpt lat="45.3125" lon="6.05106">
        <ele>1831.2</ele>
        <time>2021-01-16T13:07:05Z</time>
      </trkpt>
      <trkpt lat="45.3125" lon="6.05106">
        <ele>1831.2</ele>
        <time>2021-01-16T13:07:06Z</time>
      </trkpt>
      <trkpt lat="45.3125" lon="6.05106">
        <ele>1831.2</ele>
        <time>2021-01-16T13:07:07Z</time>
      </trkpt>
      <trkpt lat="45.3125" lon="6.05106">
        <ele>1831.2</ele>
        <time>2021-01-16T13:07:08Z</time>
      </trkpt>
      <trkpt lat="45.3125" lon="6.05106">
        <ele>1831.2</ele>
        <time>2021-01-16T13:07:09Z</time>
      </trkpt>
      <trkpt lat="45.3125" lon="6.05106">
        <ele>1831.4</ele>
        <time>2021-01-16T13:07:10Z</time>
      </trkpt>
      <trkpt lat="45.3125" lon="6.05106">
        <ele>1831.4</ele>
        <time>2021-01-16T13:07:11Z</time>
      </trkpt>
      <trkpt lat="45.3125" lon="6.05106">
        <ele>1831.2</ele>
        <time>2021-01-16T13:07:12Z</time>
      </trkpt>
      <trkpt lat="45.3125" lon="6.05106">
        <ele>1831.2</ele>
        <time>2021-01-16T13:07:13Z</time>
      </trkpt>
      <trkpt lat="45.3125" lon="6.05106">
        <ele>1831.2</ele>
        <time>2021-01-16T13:07:14Z</time>
      </trkpt>
      <trkpt lat="45.3125" lon="6.05106">
        <ele>1831.2</ele>
        <time>2021-01-16T13:07:15Z</time>
      </trkpt>
      <trkpt lat="45.3125" lon="6.05106">
        <ele>1831.2</ele>
        <time>2021-01-16T13:07:16Z</time>
      </trkpt>
      <trkpt lat="45.3125" lon="6.05106">
        <ele>1831.2</ele>
        <time>2021-01-16T13:07:17Z</time>
      </trkpt>
      <trkpt lat="45.3125" lon="6.05106">
        <ele>1831.2</ele>
        <time>2021-01-16T13:07:18Z</time>
      </trkpt>
      <trkpt lat="45.3125" lon="6.05106">
        <ele>1831.2</ele>
        <time>2021-01-16T13:07:19Z</time>
      </trkpt>
      <trkpt lat="45.3125" lon="6.05106">
        <ele>1831.2</ele>
        <time>2021-01-16T13:07:20Z</time>
      </trkpt>
      <trkpt lat="45.3125" lon="6.05106">
        <ele>1831.2</ele>
        <time>2021-01-16T13:07:21Z</time>
      </trkpt>
      <trkpt lat="45.3125" lon="6.05106">
        <ele>1831.2</ele>
        <time>2021-01-16T13:07:22Z</time>
      </trkpt>
      <trkpt lat="45.3125" lon="6.05106">
        <ele>1831.2</ele>
        <time>2021-01-16T13:07:23Z</time>
      </trkpt>
      <trkpt lat="45.3125" lon="6.05106">
        <ele>1831.2</ele>
        <time>2021-01-16T13:07:24Z</time>
      </trkpt>
      <trkpt lat="45.3125" lon="6.05106">
        <ele>1831.2</ele>
        <time>2021-01-16T13:07:25Z</time>
      </trkpt>
      <trkpt lat="45.3125" lon="6.05106">
        <ele>1831.2</ele>
        <time>2021-01-16T13:07:26Z</time>
      </trkpt>
      <trkpt lat="45.3125" lon="6.05106">
        <ele>1831.2</ele>
        <time>2021-01-16T13:07:27Z</time>
      </trkpt>
      <trkpt lat="45.3125" lon="6.05106">
        <ele>1831.2</ele>
        <time>2021-01-16T13:07:28Z</time>
      </trkpt>
      <trkpt lat="45.3125" lon="6.05106">
        <ele>1831.2</ele>
        <time>2021-01-16T13:07:29Z</time>
      </trkpt>
      <trkpt lat="45.3125" lon="6.05106">
        <ele>1831.2</ele>
        <time>2021-01-16T13:07:30Z</time>
      </trkpt>
      <trkpt lat="45.3125" lon="6.05106">
        <ele>1831.2</ele>
        <time>2021-01-16T13:07:31Z</time>
      </trkpt>
      <trkpt lat="45.3125" lon="6.05106">
        <ele>1831.2</ele>
        <time>2021-01-16T13:07:32Z</time>
      </trkpt>
      <trkpt lat="45.3125" lon="6.05106">
        <ele>1831.2</ele>
        <time>2021-01-16T13:07:33Z</time>
      </trkpt>
      <trkpt lat="45.3125" lon="6.05106">
        <ele>1831.2</ele>
        <time>2021-01-16T13:07:34Z</time>
      </trkpt>
      <trkpt lat="45.3125" lon="6.05106">
        <ele>1831.2</ele>
        <time>2021-01-16T13:07:35Z</time>
      </trkpt>
      <trkpt lat="45.3125" lon="6.05106">
        <ele>1831.2</ele>
        <time>2021-01-16T13:07:36Z</time>
      </trkpt>
      <trkpt lat="45.3125" lon="6.05106">
        <ele>1831.2</ele>
        <time>2021-01-16T13:07:37Z</time>
      </trkpt>
      <trkpt lat="45.3125" lon="6.05106">
        <ele>1831.2</ele>
        <time>2021-01-16T13:07:38Z</time>
      </trkpt>
      <trkpt lat="45.3125" lon="6.05106">
        <ele>1831.2</ele>
        <time>2021-01-16T13:07:39Z</time>
      </trkpt>
      <trkpt lat="45.3125" lon="6.05106">
        <ele>1831.2</ele>
        <time>2021-01-16T13:07:40Z</time>
      </trkpt>
      <trkpt lat="45.3125" lon="6.05106">
        <ele>1831.2</ele>
        <time>2021-01-16T13:07:41Z</time>
      </trkpt>
      <trkpt lat="45.3125" lon="6.05106">
        <ele>1831.2</ele>
        <time>2021-01-16T13:07:42Z</time>
      </trkpt>
      <trkpt lat="45.3125" lon="6.05106">
        <ele>1831.2</ele>
        <time>2021-01-16T13:07:43Z</time>
      </trkpt>
      <trkpt lat="45.3125" lon="6.05106">
        <ele>1831.2</ele>
        <time>2021-01-16T13:07:44Z</time>
      </trkpt>
      <trkpt lat="45.3125" lon="6.05106">
        <ele>1831.2</ele>
        <time>2021-01-16T13:07:45Z</time>
      </trkpt>
      <trkpt lat="45.3125" lon="6.05106">
        <ele>1831.2</ele>
        <time>2021-01-16T13:07:46Z</time>
      </trkpt>
      <trkpt lat="45.3125" lon="6.05106">
        <ele>1831.2</ele>
        <time>2021-01-16T13:07:47Z</time>
      </trkpt>
      <trkpt lat="45.3125" lon="6.05106">
        <ele>1831.2</ele>
        <time>2021-01-16T13:07:48Z</time>
      </trkpt>
      <trkpt lat="45.3125" lon="6.05106">
        <ele>1831.2</ele>
        <time>2021-01-16T13:07:49Z</time>
      </trkpt>
      <trkpt lat="45.3125" lon="6.05106">
        <ele>1831.2</ele>
        <time>2021-01-16T13:07:50Z</time>
      </trkpt>
      <trkpt lat="45.3125" lon="6.05106">
        <ele>1831.2</ele>
        <time>2021-01-16T13:07:51Z</time>
      </trkpt>
      <trkpt lat="45.3125" lon="6.05106">
        <ele>1831.2</ele>
        <time>2021-01-16T13:07:52Z</time>
      </trkpt>
      <trkpt lat="45.3125" lon="6.05106">
        <ele>1831.2</ele>
        <time>2021-01-16T13:07:53Z</time>
      </trkpt>
      <trkpt lat="45.3125" lon="6.05106">
        <ele>1831</ele>
        <time>2021-01-16T13:07:54Z</time>
      </trkpt>
      <trkpt lat="45.3125" lon="6.05106">
        <ele>1831.2</ele>
        <time>2021-01-16T13:07:55Z</time>
      </trkpt>
      <trkpt lat="45.3125" lon="6.05106">
        <ele>1831.2</ele>
        <time>2021-01-16T13:07:56Z</time>
      </trkpt>
      <trkpt lat="45.3125" lon="6.05106">
        <ele>1831.2</ele>
        <time>2021-01-16T13:07:57Z</time>
      </trkpt>
      <trkpt lat="45.3125" lon="6.05106">
        <ele>1831.2</ele>
        <time>2021-01-16T13:07:58Z</time>
      </trkpt>
      <trkpt lat="45.3125" lon="6.05106">
        <ele>1831.2</ele>
        <time>2021-01-16T13:07:59Z</time>
      </trkpt>
      <trkpt lat="45.3125" lon="6.05106">
        <ele>1831.2</ele>
        <time>2021-01-16T13:08:00Z</time>
      </trkpt>
      <trkpt lat="45.3125" lon="6.05106">
        <ele>1831.2</ele>
        <time>2021-01-16T13:08:01Z</time>
      </trkpt>
      <trkpt lat="45.3125" lon="6.05106">
        <ele>1831.2</ele>
        <time>2021-01-16T13:08:02Z</time>
      </trkpt>
      <trkpt lat="45.3125" lon="6.05106">
        <ele>1831.2</ele>
        <time>2021-01-16T13:08:03Z</time>
      </trkpt>
      <trkpt lat="45.3125" lon="6.05106">
        <ele>1831.2</ele>
        <time>2021-01-16T13:08:04Z</time>
      </trkpt>
      <trkpt lat="45.3125" lon="6.05106">
        <ele>1831.2</ele>
        <time>2021-01-16T13:08:05Z</time>
      </trkpt>
      <trkpt lat="45.3125" lon="6.05106">
        <ele>1831.2</ele>
        <time>2021-01-16T13:08:06Z</time>
      </trkpt>
      <trkpt lat="45.3125" lon="6.05106">
        <ele>1831.2</ele>
        <time>2021-01-16T13:08:07Z</time>
      </trkpt>
      <trkpt lat="45.3125" lon="6.05106">
        <ele>1831.2</ele>
        <time>2021-01-16T13:08:08Z</time>
      </trkpt>
      <trkpt lat="45.3125" lon="6.05106">
        <ele>1831.2</ele>
        <time>2021-01-16T13:08:09Z</time>
      </trkpt>
      <trkpt lat="45.3125" lon="6.05106">
        <ele>1831.2</ele>
        <time>2021-01-16T13:08:10Z</time>
      </trkpt>
      <trkpt lat="45.3125" lon="6.05106">
        <ele>1831.2</ele>
        <time>2021-01-16T13:08:11Z</time>
      </trkpt>
      <trkpt lat="45.3125" lon="6.05106">
        <ele>1831.2</ele>
        <time>2021-01-16T13:08:12Z</time>
      </trkpt>
      <trkpt lat="45.3125" lon="6.05106">
        <ele>1831.2</ele>
        <time>2021-01-16T13:08:13Z</time>
      </trkpt>
      <trkpt lat="45.3125" lon="6.05106">
        <ele>1831.2</ele>
        <time>2021-01-16T13:08:14Z</time>
      </trkpt>
      <trkpt lat="45.3125" lon="6.05106">
        <ele>1831.2</ele>
        <time>2021-01-16T13:08:15Z</time>
      </trkpt>
      <trkpt lat="45.3125" lon="6.05106">
        <ele>1831.2</ele>
        <time>2021-01-16T13:08:16Z</time>
      </trkpt>
      <trkpt lat="45.3125" lon="6.05106">
        <ele>1831.2</ele>
        <time>2021-01-16T13:08:17Z</time>
      </trkpt>
      <trkpt lat="45.3125" lon="6.05106">
        <ele>1831.2</ele>
        <time>2021-01-16T13:08:18Z</time>
      </trkpt>
      <trkpt lat="45.3125" lon="6.05106">
        <ele>1831.2</ele>
        <time>2021-01-16T13:08:19Z</time>
      </trkpt>
      <trkpt lat="45.3125" lon="6.05106">
        <ele>1831.2</ele>
        <time>2021-01-16T13:08:20Z</time>
      </trkpt>
      <trkpt lat="45.3125" lon="6.05106">
        <ele>1831</ele>
        <time>2021-01-16T13:08:21Z</time>
      </trkpt>
      <trkpt lat="45.3125" lon="6.05106">
        <ele>1831.2</ele>
        <time>2021-01-16T13:08:22Z</time>
      </trkpt>
      <trkpt lat="45.3125" lon="6.05106">
        <ele>1831.2</ele>
        <time>2021-01-16T13:08:23Z</time>
      </trkpt>
      <trkpt lat="45.3125" lon="6.05106">
        <ele>1831.2</ele>
        <time>2021-01-16T13:08:24Z</time>
      </trkpt>
      <trkpt lat="45.3125" lon="6.05106">
        <ele>1831.2</ele>
        <time>2021-01-16T13:08:25Z</time>
      </trkpt>
      <trkpt lat="45.3125" lon="6.05106">
        <ele>1831.2</ele>
        <time>2021-01-16T13:08:26Z</time>
      </trkpt>
      <trkpt lat="45.3125" lon="6.05106">
        <ele>1831.2</ele>
        <time>2021-01-16T13:08:27Z</time>
      </trkpt>
      <trkpt lat="45.3125" lon="6.05106">
        <ele>1831.2</ele>
        <time>2021-01-16T13:08:28Z</time>
      </trkpt>
      <trkpt lat="45.3125" lon="6.05106">
        <ele>1831.2</ele>
        <time>2021-01-16T13:08:29Z</time>
      </trkpt>
      <trkpt lat="45.3125" lon="6.05106">
        <ele>1831.2</ele>
        <time>2021-01-16T13:08:30Z</time>
      </trkpt>
      <trkpt lat="45.3125" lon="6.05106">
        <ele>1831</ele>
        <time>2021-01-16T13:08:31Z</time>
      </trkpt>
      <trkpt lat="45.3125" lon="6.05106">
        <ele>1831</ele>
        <time>2021-01-16T13:08:32Z</time>
      </trkpt>
      <trkpt lat="45.3125" lon="6.05106">
        <ele>1831</ele>
        <time>2021-01-16T13:08:33Z</time>
      </trkpt>
      <trkpt lat="45.3125" lon="6.05106">
        <ele>1830.8</ele>
        <time>2021-01-16T13:08:34Z</time>
      </trkpt>
      <trkpt lat="45.31251" lon="6.05105">
        <ele>1830.8</ele>
        <time>2021-01-16T13:08:35Z</time>
      </trkpt>
      <trkpt lat="45.31253" lon="6.05104">
        <ele>1830.6</ele>
        <time>2021-01-16T13:08:36Z</time>
      </trkpt>
      <trkpt lat="45.31255" lon="6.05103">
        <ele>1830.4</ele>
        <time>2021-01-16T13:08:37Z</time>
      </trkpt>
      <trkpt lat="45.31257" lon="6.05102">
        <ele>1830.2</ele>
        <time>2021-01-16T13:08:38Z</time>
      </trkpt>
      <trkpt lat="45.3126" lon="6.05101">
        <ele>1829.6</ele>
        <time>2021-01-16T13:08:39Z</time>
      </trkpt>
      <trkpt lat="45.31263" lon="6.05099">
        <ele>1829.2</ele>
        <time>2021-01-16T13:08:40Z</time>
      </trkpt>
      <trkpt lat="45.31266" lon="6.05096">
        <ele>1828.4</ele>
        <time>2021-01-16T13:08:41Z</time>
      </trkpt>
      <trkpt lat="45.31271" lon="6.05093">
        <ele>1827.6</ele>
        <time>2021-01-16T13:08:42Z</time>
      </trkpt>
      <trkpt lat="45.31275" lon="6.05089">
        <ele>1826.6</ele>
        <time>2021-01-16T13:08:43Z</time>
      </trkpt>
      <trkpt lat="45.31279" lon="6.05086">
        <ele>1825.4</ele>
        <time>2021-01-16T13:08:44Z</time>
      </trkpt>
      <trkpt lat="45.31282" lon="6.05081">
        <ele>1823.8</ele>
        <time>2021-01-16T13:08:45Z</time>
      </trkpt>
      <trkpt lat="45.31285" lon="6.05075">
        <ele>1822.2</ele>
        <time>2021-01-16T13:08:46Z</time>
      </trkpt>
      <trkpt lat="45.31286" lon="6.05067">
        <ele>1820.4</ele>
        <time>2021-01-16T13:08:47Z</time>
      </trkpt>
      <trkpt lat="45.31287" lon="6.05059">
        <ele>1818.4</ele>
        <time>2021-01-16T13:08:48Z</time>
      </trkpt>
      <trkpt lat="45.31289" lon="6.05053">
        <ele>1816.4</ele>
        <time>2021-01-16T13:08:49Z</time>
      </trkpt>
      <trkpt lat="45.31294" lon="6.05052">
        <ele>1814.6</ele>
        <time>2021-01-16T13:08:50Z</time>
      </trkpt>
      <trkpt lat="45.31299" lon="6.05054">
        <ele>1813</ele>
        <time>2021-01-16T13:08:51Z</time>
      </trkpt>
      <trkpt lat="45.31304" lon="6.05053">
        <ele>1811.2</ele>
        <time>2021-01-16T13:08:52Z</time>
      </trkpt>
      <trkpt lat="45.31308" lon="6.05049">
        <ele>1809.8</ele>
        <time>2021-01-16T13:08:53Z</time>
      </trkpt>
      <trkpt lat="45.31312" lon="6.05044">
        <ele>1808</ele>
        <time>2021-01-16T13:08:54Z</time>
      </trkpt>
      <trkpt lat="45.31316" lon="6.05039">
        <ele>1806.2</ele>
        <time>2021-01-16T13:08:55Z</time>
      </trkpt>
      <trkpt lat="45.31319" lon="6.05034">
        <ele>1804.4</ele>
        <time>2021-01-16T13:08:56Z</time>
      </trkpt>
      <trkpt lat="45.31323" lon="6.05032">
        <ele>1802.8</ele>
        <time>2021-01-16T13:08:57Z</time>
      </trkpt>
      <trkpt lat="45.31326" lon="6.05034">
        <ele>1801.4</ele>
        <time>2021-01-16T13:08:58Z</time>
      </trkpt>
      <trkpt lat="45.31327" lon="6.05036">
        <ele>1800</ele>
        <time>2021-01-16T13:08:59Z</time>
      </trkpt>
      <trkpt lat="45.31327" lon="6.05036">
        <ele>1799</ele>
        <time>2021-01-16T13:09:00Z</time>
      </trkpt>
      <trkpt lat="45.31328" lon="6.05036">
        <ele>1798.2</ele>
        <time>2021-01-16T13:09:01Z</time>
      </trkpt>
      <trkpt lat="45.31328" lon="6.05036">
        <ele>1797.6</ele>
        <time>2021-01-16T13:09:02Z</time>
      </trkpt>
      <trkpt lat="45.31328" lon="6.05036">
        <ele>1797.2</ele>
        <time>2021-01-16T13:09:03Z</time>
      </trkpt>
      <trkpt lat="45.31328" lon="6.05036">
        <ele>1796.8</ele>
        <time>2021-01-16T13:09:04Z</time>
      </trkpt>
      <trkpt lat="45.31328" lon="6.05036">
        <ele>1796.4</ele>
        <time>2021-01-16T13:09:05Z</time>
      </trkpt>
      <trkpt lat="45.31328" lon="6.05036">
        <ele>1796.2</ele>
        <time>2021-01-16T13:09:06Z</time>
      </trkpt>
      <trkpt lat="45.31328" lon="6.05036">
        <ele>1796</ele>
        <time>2021-01-16T13:09:07Z</time>
      </trkpt>
      <trkpt lat="45.31329" lon="6.05036">
        <ele>1796</ele>
        <time>2021-01-16T13:09:08Z</time>
      </trkpt>
      <trkpt lat="45.31329" lon="6.05036">
        <ele>1795.8</ele>
        <time>2021-01-16T13:09:09Z</time>
      </trkpt>
      <trkpt lat="45.31329" lon="6.05036">
        <ele>1795.8</ele>
        <time>2021-01-16T13:09:10Z</time>
      </trkpt>
      <trkpt lat="45.31329" lon="6.05036">
        <ele>1795.6</ele>
        <time>2021-01-16T13:09:11Z</time>
      </trkpt>
      <trkpt lat="45.31329" lon="6.05036">
        <ele>1795.6</ele>
        <time>2021-01-16T13:09:12Z</time>
      </trkpt>
      <trkpt lat="45.31329" lon="6.05036">
        <ele>1795.6</ele>
        <time>2021-01-16T13:09:13Z</time>
      </trkpt>
      <trkpt lat="45.3133" lon="6.05035">
        <ele>1795.6</ele>
        <time>2021-01-16T13:09:14Z</time>
      </trkpt>
      <trkpt lat="45.3133" lon="6.05035">
        <ele>1795.6</ele>
        <time>2021-01-16T13:09:15Z</time>
      </trkpt>
      <trkpt lat="45.3133" lon="6.05035">
        <ele>1795.6</ele>
        <time>2021-01-16T13:09:16Z</time>
      </trkpt>
      <trkpt lat="45.3133" lon="6.05035">
        <ele>1795.4</ele>
        <time>2021-01-16T13:09:17Z</time>
      </trkpt>
      <trkpt lat="45.3133" lon="6.05035">
        <ele>1795.4</ele>
        <time>2021-01-16T13:09:18Z</time>
      </trkpt>
      <trkpt lat="45.3133" lon="6.05035">
        <ele>1795.4</ele>
        <time>2021-01-16T13:09:19Z</time>
      </trkpt>
      <trkpt lat="45.3133" lon="6.05035">
        <ele>1795.4</ele>
        <time>2021-01-16T13:09:20Z</time>
      </trkpt>
      <trkpt lat="45.31331" lon="6.05035">
        <ele>1795.4</ele>
        <time>2021-01-16T13:09:21Z</time>
      </trkpt>
      <trkpt lat="45.31331" lon="6.05035">
        <ele>1795.4</ele>
        <time>2021-01-16T13:09:22Z</time>
      </trkpt>
      <trkpt lat="45.31331" lon="6.05035">
        <ele>1795.4</ele>
        <time>2021-01-16T13:09:23Z</time>
      </trkpt>
      <trkpt lat="45.31331" lon="6.05035">
        <ele>1795.4</ele>
        <time>2021-01-16T13:09:24Z</time>
      </trkpt>
      <trkpt lat="45.31331" lon="6.05035">
        <ele>1795.4</ele>
        <time>2021-01-16T13:09:25Z</time>
      </trkpt>
      <trkpt lat="45.31331" lon="6.05035">
        <ele>1795.4</ele>
        <time>2021-01-16T13:09:26Z</time>
      </trkpt>
      <trkpt lat="45.31331" lon="6.05035">
        <ele>1795.4</ele>
        <time>2021-01-16T13:09:27Z</time>
      </trkpt>
      <trkpt lat="45.31332" lon="6.05035">
        <ele>1795.4</ele>
        <time>2021-01-16T13:09:28Z</time>
      </trkpt>
      <trkpt lat="45.31332" lon="6.05035">
        <ele>1795.4</ele>
        <time>2021-01-16T13:09:29Z</time>
      </trkpt>
      <trkpt lat="45.31332" lon="6.05035">
        <ele>1795.4</ele>
        <time>2021-01-16T13:09:30Z</time>
      </trkpt>
      <trkpt lat="45.31332" lon="6.05035">
        <ele>1795.4</ele>
        <time>2021-01-16T13:09:31Z</time>
      </trkpt>
      <trkpt lat="45.31332" lon="6.05035">
        <ele>1795.4</ele>
        <time>2021-01-16T13:09:32Z</time>
      </trkpt>
      <trkpt lat="45.31332" lon="6.05035">
        <ele>1795.4</ele>
        <time>2021-01-16T13:09:33Z</time>
      </trkpt>
      <trkpt lat="45.31332" lon="6.05035">
        <ele>1795.4</ele>
        <time>2021-01-16T13:09:34Z</time>
      </trkpt>
      <trkpt lat="45.31333" lon="6.05035">
        <ele>1795.4</ele>
        <time>2021-01-16T13:09:35Z</time>
      </trkpt>
      <trkpt lat="45.31333" lon="6.05035">
        <ele>1795.4</ele>
        <time>2021-01-16T13:09:36Z</time>
      </trkpt>
      <trkpt lat="45.31333" lon="6.05035">
        <ele>1795.4</ele>
        <time>2021-01-16T13:09:37Z</time>
      </trkpt>
      <trkpt lat="45.31333" lon="6.05035">
        <ele>1795.4</ele>
        <time>2021-01-16T13:09:38Z</time>
      </trkpt>
      <trkpt lat="45.31333" lon="6.05035">
        <ele>1795.4</ele>
        <time>2021-01-16T13:09:39Z</time>
      </trkpt>
      <trkpt lat="45.31333" lon="6.05035">
        <ele>1795.4</ele>
        <time>2021-01-16T13:09:40Z</time>
      </trkpt>
      <trkpt lat="45.31334" lon="6.05035">
        <ele>1795.4</ele>
        <time>2021-01-16T13:09:41Z</time>
      </trkpt>
      <trkpt lat="45.31334" lon="6.05035">
        <ele>1795.4</ele>
        <time>2021-01-16T13:09:42Z</time>
      </trkpt>
      <trkpt lat="45.31334" lon="6.05035">
        <ele>1795.4</ele>
        <time>2021-01-16T13:09:43Z</time>
      </trkpt>
      <trkpt lat="45.31334" lon="6.05035">
        <ele>1795.4</ele>
        <time>2021-01-16T13:09:44Z</time>
      </trkpt>
      <trkpt lat="45.31334" lon="6.05035">
        <ele>1795.4</ele>
        <time>2021-01-16T13:09:45Z</time>
      </trkpt>
      <trkpt lat="45.31334" lon="6.05035">
        <ele>1795.4</ele>
        <time>2021-01-16T13:09:46Z</time>
      </trkpt>
      <trkpt lat="45.31334" lon="6.05035">
        <ele>1795.4</ele>
        <time>2021-01-16T13:09:47Z</time>
      </trkpt>
      <trkpt lat="45.31335" lon="6.05035">
        <ele>1795.4</ele>
        <time>2021-01-16T13:09:48Z</time>
      </trkpt>
      <trkpt lat="45.31335" lon="6.05035">
        <ele>1795.4</ele>
        <time>2021-01-16T13:09:49Z</time>
      </trkpt>
      <trkpt lat="45.31335" lon="6.05034">
        <ele>1795.4</ele>
        <time>2021-01-16T13:09:50Z</time>
      </trkpt>
      <trkpt lat="45.31335" lon="6.05034">
        <ele>1795</ele>
        <time>2021-01-16T13:09:51Z</time>
      </trkpt>
      <trkpt lat="45.31335" lon="6.05034">
        <ele>1795.2</ele>
        <time>2021-01-16T13:09:52Z</time>
      </trkpt>
      <trkpt lat="45.31335" lon="6.05034">
        <ele>1795.2</ele>
        <time>2021-01-16T13:09:53Z</time>
      </trkpt>
      <trkpt lat="45.31335" lon="6.05034">
        <ele>1795.2</ele>
        <time>2021-01-16T13:09:54Z</time>
      </trkpt>
      <trkpt lat="45.31336" lon="6.05034">
        <ele>1795.2</ele>
        <time>2021-01-16T13:09:55Z</time>
      </trkpt>
      <trkpt lat="45.31336" lon="6.05034">
        <ele>1795.2</ele>
        <time>2021-01-16T13:09:56Z</time>
      </trkpt>
      <trkpt lat="45.31336" lon="6.05034">
        <ele>1795</ele>
        <time>2021-01-16T13:09:57Z</time>
      </trkpt>
      <trkpt lat="45.31336" lon="6.05034">
        <ele>1794.6</ele>
        <time>2021-01-16T13:09:58Z</time>
      </trkpt>
      <trkpt lat="45.3134" lon="6.05035">
        <ele>1794.2</ele>
        <time>2021-01-16T13:09:59Z</time>
      </trkpt>
      <trkpt lat="45.31345" lon="6.05033">
        <ele>1793.4</ele>
        <time>2021-01-16T13:10:00Z</time>
      </trkpt>
      <trkpt lat="45.3135" lon="6.05031">
        <ele>1792.6</ele>
        <time>2021-01-16T13:10:01Z</time>
      </trkpt>
      <trkpt lat="45.31355" lon="6.05032">
        <ele>1791.6</ele>
        <time>2021-01-16T13:10:02Z</time>
      </trkpt>
      <trkpt lat="45.31359" lon="6.0503">
        <ele>1790.4</ele>
        <time>2021-01-16T13:10:03Z</time>
      </trkpt>
      <trkpt lat="45.31363" lon="6.05025">
        <ele>1788.8</ele>
        <time>2021-01-16T13:10:04Z</time>
      </trkpt>
      <trkpt lat="45.31368" lon="6.05022">
        <ele>1787.4</ele>
        <time>2021-01-16T13:10:05Z</time>
      </trkpt>
      <trkpt lat="45.31372" lon="6.05019">
        <ele>1785.8</ele>
        <time>2021-01-16T13:10:06Z</time>
      </trkpt>
      <trkpt lat="45.31375" lon="6.05013">
        <ele>1784.2</ele>
        <time>2021-01-16T13:10:07Z</time>
      </trkpt>
      <trkpt lat="45.31376" lon="6.05006">
        <ele>1782.6</ele>
        <time>2021-01-16T13:10:08Z</time>
      </trkpt>
      <trkpt lat="45.31378" lon="6.05002">
        <ele>1781</ele>
        <time>2021-01-16T13:10:09Z</time>
      </trkpt>
      <trkpt lat="45.31383" lon="6.05002">
        <ele>1779.4</ele>
        <time>2021-01-16T13:10:10Z</time>
      </trkpt>
      <trkpt lat="45.31387" lon="6.05001">
        <ele>1777.8</ele>
        <time>2021-01-16T13:10:11Z</time>
      </trkpt>
      <trkpt lat="45.31388" lon="6.04994">
        <ele>1776.2</ele>
        <time>2021-01-16T13:10:12Z</time>
      </trkpt>
      <trkpt lat="45.31388" lon="6.04987">
        <ele>1774.4</ele>
        <time>2021-01-16T13:10:13Z</time>
      </trkpt>
      <trkpt lat="45.3139" lon="6.04982">
        <ele>1773</ele>
        <time>2021-01-16T13:10:14Z</time>
      </trkpt>
      <trkpt lat="45.31394" lon="6.04979">
        <ele>1771.4</ele>
        <time>2021-01-16T13:10:15Z</time>
      </trkpt>
      <trkpt lat="45.31397" lon="6.04977">
        <ele>1769.6</ele>
        <time>2021-01-16T13:10:16Z</time>
      </trkpt>
      <trkpt lat="45.31399" lon="6.04972">
        <ele>1767.8</ele>
        <time>2021-01-16T13:10:17Z</time>
      </trkpt>
      <trkpt lat="45.31399" lon="6.04966">
        <ele>1766.4</ele>
        <time>2021-01-16T13:10:18Z</time>
      </trkpt>
      <trkpt lat="45.31399" lon="6.04962">
        <ele>1765.2</ele>
        <time>2021-01-16T13:10:19Z</time>
      </trkpt>
      <trkpt lat="45.31398" lon="6.04959">
        <ele>1764.2</ele>
        <time>2021-01-16T13:10:20Z</time>
      </trkpt>
      <trkpt lat="45.31398" lon="6.04959">
        <ele>1763.4</ele>
        <time>2021-01-16T13:10:21Z</time>
      </trkpt>
      <trkpt lat="45.31398" lon="6.04959">
        <ele>1762.8</ele>
        <time>2021-01-16T13:10:22Z</time>
      </trkpt>
      <trkpt lat="45.31398" lon="6.04959">
        <ele>1762.4</ele>
        <time>2021-01-16T13:10:23Z</time>
      </trkpt>
      <trkpt lat="45.31398" lon="6.04959">
        <ele>1762.2</ele>
        <time>2021-01-16T13:10:24Z</time>
      </trkpt>
      <trkpt lat="45.31398" lon="6.04959">
        <ele>1762</ele>
        <time>2021-01-16T13:10:25Z</time>
      </trkpt>
      <trkpt lat="45.31398" lon="6.04959">
        <ele>1761.8</ele>
        <time>2021-01-16T13:10:26Z</time>
      </trkpt>
      <trkpt lat="45.31398" lon="6.04959">
        <ele>1761.6</ele>
        <time>2021-01-16T13:10:27Z</time>
      </trkpt>
      <trkpt lat="45.31398" lon="6.04959">
        <ele>1761.6</ele>
        <time>2021-01-16T13:10:28Z</time>
      </trkpt>
      <trkpt lat="45.31398" lon="6.04959">
        <ele>1761.4</ele>
        <time>2021-01-16T13:10:29Z</time>
      </trkpt>
      <trkpt lat="45.31398" lon="6.04959">
        <ele>1761.4</ele>
        <time>2021-01-16T13:10:30Z</time>
      </trkpt>
      <trkpt lat="45.31398" lon="6.04959">
        <ele>1761.4</ele>
        <time>2021-01-16T13:10:31Z</time>
      </trkpt>
      <trkpt lat="45.31398" lon="6.04959">
        <ele>1761.4</ele>
        <time>2021-01-16T13:10:32Z</time>
      </trkpt>
      <trkpt lat="45.31398" lon="6.04959">
        <ele>1761.4</ele>
        <time>2021-01-16T13:10:33Z</time>
      </trkpt>
      <trkpt lat="45.31398" lon="6.04959">
        <ele>1761.4</ele>
        <time>2021-01-16T13:10:34Z</time>
      </trkpt>
      <trkpt lat="45.31398" lon="6.04959">
        <ele>1761.4</ele>
        <time>2021-01-16T13:10:35Z</time>
      </trkpt>
      <trkpt lat="45.31398" lon="6.04959">
        <ele>1761.4</ele>
        <time>2021-01-16T13:10:36Z</time>
      </trkpt>
      <trkpt lat="45.31398" lon="6.04959">
        <ele>1761.4</ele>
        <time>2021-01-16T13:10:37Z</time>
      </trkpt>
      <trkpt lat="45.31398" lon="6.04959">
        <ele>1761.4</ele>
        <time>2021-01-16T13:10:38Z</time>
      </trkpt>
      <trkpt lat="45.31398" lon="6.04959">
        <ele>1761.4</ele>
        <time>2021-01-16T13:10:39Z</time>
      </trkpt>
      <trkpt lat="45.31398" lon="6.04959">
        <ele>1761.4</ele>
        <time>2021-01-16T13:10:40Z</time>
      </trkpt>
      <trkpt lat="45.31398" lon="6.04959">
        <ele>1761.4</ele>
        <time>2021-01-16T13:10:41Z</time>
      </trkpt>
      <trkpt lat="45.31398" lon="6.04959">
        <ele>1761.4</ele>
        <time>2021-01-16T13:10:42Z</time>
      </trkpt>
      <trkpt lat="45.31398" lon="6.04959">
        <ele>1761.4</ele>
        <time>2021-01-16T13:10:43Z</time>
      </trkpt>
      <trkpt lat="45.31398" lon="6.04959">
        <ele>1761.4</ele>
        <time>2021-01-16T13:10:44Z</time>
      </trkpt>
      <trkpt lat="45.31398" lon="6.04959">
        <ele>1761.4</ele>
        <time>2021-01-16T13:10:45Z</time>
      </trkpt>
      <trkpt lat="45.31398" lon="6.04959">
        <ele>1761.4</ele>
        <time>2021-01-16T13:10:46Z</time>
      </trkpt>
      <trkpt lat="45.31398" lon="6.04959">
        <ele>1761.4</ele>
        <time>2021-01-16T13:10:47Z</time>
      </trkpt>
      <trkpt lat="45.31398" lon="6.04959">
        <ele>1761.4</ele>
        <time>2021-01-16T13:10:48Z</time>
      </trkpt>
      <trkpt lat="45.31398" lon="6.04959">
        <ele>1761.4</ele>
        <time>2021-01-16T13:10:49Z</time>
      </trkpt>
      <trkpt lat="45.31398" lon="6.04959">
        <ele>1761.4</ele>
        <time>2021-01-16T13:10:50Z</time>
      </trkpt>
      <trkpt lat="45.31398" lon="6.04959">
        <ele>1761.4</ele>
        <time>2021-01-16T13:10:51Z</time>
      </trkpt>
      <trkpt lat="45.31398" lon="6.04959">
        <ele>1761.4</ele>
        <time>2021-01-16T13:10:52Z</time>
      </trkpt>
      <trkpt lat="45.31398" lon="6.04959">
        <ele>1761.4</ele>
        <time>2021-01-16T13:10:53Z</time>
      </trkpt>
      <trkpt lat="45.31398" lon="6.04959">
        <ele>1761.4</ele>
        <time>2021-01-16T13:10:54Z</time>
      </trkpt>
      <trkpt lat="45.31398" lon="6.04959">
        <ele>1761.4</ele>
        <time>2021-01-16T13:10:55Z</time>
      </trkpt>
      <trkpt lat="45.31398" lon="6.04959">
        <ele>1761.4</ele>
        <time>2021-01-16T13:10:56Z</time>
      </trkpt>
      <trkpt lat="45.31398" lon="6.04959">
        <ele>1761.4</ele>
        <time>2021-01-16T13:10:57Z</time>
      </trkpt>
      <trkpt lat="45.31398" lon="6.04959">
        <ele>1761.4</ele>
        <time>2021-01-16T13:10:58Z</time>
      </trkpt>
      <trkpt lat="45.31398" lon="6.04959">
        <ele>1761.4</ele>
        <time>2021-01-16T13:10:59Z</time>
      </trkpt>
      <trkpt lat="45.31398" lon="6.04959">
        <ele>1761.4</ele>
        <time>2021-01-16T13:11:00Z</time>
      </trkpt>
      <trkpt lat="45.31398" lon="6.04959">
        <ele>1761.6</ele>
        <time>2021-01-16T13:11:01Z</time>
      </trkpt>
      <trkpt lat="45.31398" lon="6.04959">
        <ele>1761.6</ele>
        <time>2021-01-16T13:11:02Z</time>
      </trkpt>
      <trkpt lat="45.31398" lon="6.04959">
        <ele>1761.6</ele>
        <time>2021-01-16T13:11:03Z</time>
      </trkpt>
      <trkpt lat="45.31398" lon="6.04959">
        <ele>1761.6</ele>
        <time>2021-01-16T13:11:04Z</time>
      </trkpt>
      <trkpt lat="45.31398" lon="6.04959">
        <ele>1761.6</ele>
        <time>2021-01-16T13:11:05Z</time>
      </trkpt>
      <trkpt lat="45.31398" lon="6.04959">
        <ele>1761.6</ele>
        <time>2021-01-16T13:11:06Z</time>
      </trkpt>
      <trkpt lat="45.31398" lon="6.04959">
        <ele>1761.6</ele>
        <time>2021-01-16T13:11:07Z</time>
      </trkpt>
      <trkpt lat="45.31398" lon="6.04959">
        <ele>1761.6</ele>
        <time>2021-01-16T13:11:08Z</time>
      </trkpt>
      <trkpt lat="45.31398" lon="6.04959">
        <ele>1761.6</ele>
        <time>2021-01-16T13:11:09Z</time>
      </trkpt>
      <trkpt lat="45.31398" lon="6.04959">
        <ele>1761.6</ele>
        <time>2021-01-16T13:11:10Z</time>
      </trkpt>
      <trkpt lat="45.31398" lon="6.04959">
        <ele>1761.6</ele>
        <time>2021-01-16T13:11:11Z</time>
      </trkpt>
      <trkpt lat="45.31398" lon="6.04959">
        <ele>1761.8</ele>
        <time>2021-01-16T13:11:12Z</time>
      </trkpt>
      <trkpt lat="45.31398" lon="6.04959">
        <ele>1761.8</ele>
        <time>2021-01-16T13:11:13Z</time>
      </trkpt>
      <trkpt lat="45.31398" lon="6.04959">
        <ele>1761.8</ele>
        <time>2021-01-16T13:11:14Z</time>
      </trkpt>
      <trkpt lat="45.31398" lon="6.04959">
        <ele>1761.8</ele>
        <time>2021-01-16T13:11:15Z</time>
      </trkpt>
      <trkpt lat="45.31398" lon="6.04959">
        <ele>1761.8</ele>
        <time>2021-01-16T13:11:16Z</time>
      </trkpt>
      <trkpt lat="45.31398" lon="6.04959">
        <ele>1761.8</ele>
        <time>2021-01-16T13:11:17Z</time>
      </trkpt>
      <trkpt lat="45.31398" lon="6.04959">
        <ele>1761.8</ele>
        <time>2021-01-16T13:11:18Z</time>
      </trkpt>
      <trkpt lat="45.31398" lon="6.04959">
        <ele>1761.8</ele>
        <time>2021-01-16T13:11:19Z</time>
      </trkpt>
      <trkpt lat="45.31398" lon="6.04959">
        <ele>1761.8</ele>
        <time>2021-01-16T13:11:20Z</time>
      </trkpt>
      <trkpt lat="45.31398" lon="6.04959">
        <ele>1761.8</ele>
        <time>2021-01-16T13:11:21Z</time>
      </trkpt>
      <trkpt lat="45.31398" lon="6.04959">
        <ele>1761.8</ele>
        <time>2021-01-16T13:11:22Z</time>
      </trkpt>
      <trkpt lat="45.31398" lon="6.04959">
        <ele>1761.8</ele>
        <time>2021-01-16T13:11:23Z</time>
      </trkpt>
      <trkpt lat="45.31398" lon="6.04959">
        <ele>1761.8</ele>
        <time>2021-01-16T13:11:24Z</time>
      </trkpt>
      <trkpt lat="45.31398" lon="6.04959">
        <ele>1761.8</ele>
        <time>2021-01-16T13:11:25Z</time>
      </trkpt>
      <trkpt lat="45.31398" lon="6.04959">
        <ele>1761.8</ele>
        <time>2021-01-16T13:11:26Z</time>
      </trkpt>
      <trkpt lat="45.31398" lon="6.04959">
        <ele>1761.8</ele>
        <time>2021-01-16T13:11:27Z</time>
      </trkpt>
      <trkpt lat="45.31398" lon="6.04959">
        <ele>1761.8</ele>
        <time>2021-01-16T13:11:28Z</time>
      </trkpt>
      <trkpt lat="45.31398" lon="6.04959">
        <ele>1761.8</ele>
        <time>2021-01-16T13:11:29Z</time>
      </trkpt>
      <trkpt lat="45.31398" lon="6.04959">
        <ele>1761.8</ele>
        <time>2021-01-16T13:11:30Z</time>
      </trkpt>
      <trkpt lat="45.31398" lon="6.04959">
        <ele>1761.8</ele>
        <time>2021-01-16T13:11:31Z</time>
      </trkpt>
      <trkpt lat="45.31398" lon="6.04959">
        <ele>1761.8</ele>
        <time>2021-01-16T13:11:32Z</time>
      </trkpt>
      <trkpt lat="45.31398" lon="6.04959">
        <ele>1761.8</ele>
        <time>2021-01-16T13:11:33Z</time>
      </trkpt>
      <trkpt lat="45.31398" lon="6.04959">
        <ele>1761.8</ele>
        <time>2021-01-16T13:11:34Z</time>
      </trkpt>
      <trkpt lat="45.31398" lon="6.04959">
        <ele>1761.8</ele>
        <time>2021-01-16T13:11:35Z</time>
      </trkpt>
      <trkpt lat="45.31398" lon="6.04959">
        <ele>1761.8</ele>
        <time>2021-01-16T13:11:36Z</time>
      </trkpt>
      <trkpt lat="45.31398" lon="6.04959">
        <ele>1761.8</ele>
        <time>2021-01-16T13:11:37Z</time>
      </trkpt>
      <trkpt lat="45.31398" lon="6.04959">
        <ele>1761.8</ele>
        <time>2021-01-16T13:11:38Z</time>
      </trkpt>
      <trkpt lat="45.31398" lon="6.04959">
        <ele>1762</ele>
        <time>2021-01-16T13:11:39Z</time>
      </trkpt>
      <trkpt lat="45.31398" lon="6.04959">
        <ele>1762</ele>
        <time>2021-01-16T13:11:40Z</time>
      </trkpt>
      <trkpt lat="45.31398" lon="6.04959">
        <ele>1762</ele>
        <time>2021-01-16T13:11:41Z</time>
      </trkpt>
      <trkpt lat="45.31398" lon="6.04959">
        <ele>1762</ele>
        <time>2021-01-16T13:11:42Z</time>
      </trkpt>
      <trkpt lat="45.31398" lon="6.04959">
        <ele>1762</ele>
        <time>2021-01-16T13:11:43Z</time>
      </trkpt>
      <trkpt lat="45.31398" lon="6.04959">
        <ele>1762</ele>
        <time>2021-01-16T13:11:44Z</time>
      </trkpt>
      <trkpt lat="45.31398" lon="6.04959">
        <ele>1762</ele>
        <time>2021-01-16T13:11:45Z</time>
      </trkpt>
      <trkpt lat="45.31398" lon="6.04959">
        <ele>1762</ele>
        <time>2021-01-16T13:11:46Z</time>
      </trkpt>
      <trkpt lat="45.31398" lon="6.04959">
        <ele>1762</ele>
        <time>2021-01-16T13:11:47Z</time>
      </trkpt>
      <trkpt lat="45.31398" lon="6.04959">
        <ele>1762</ele>
        <time>2021-01-16T13:11:48Z</time>
      </trkpt>
      <trkpt lat="45.31398" lon="6.04959">
        <ele>1762</ele>
        <time>2021-01-16T13:11:49Z</time>
      </trkpt>
      <trkpt lat="45.31398" lon="6.04959">
        <ele>1762</ele>
        <time>2021-01-16T13:11:50Z</time>
      </trkpt>
      <trkpt lat="45.31398" lon="6.04959">
        <ele>1762</ele>
        <time>2021-01-16T13:11:51Z</time>
      </trkpt>
      <trkpt lat="45.31398" lon="6.04959">
        <ele>1762.2</ele>
        <time>2021-01-16T13:11:52Z</time>
      </trkpt>
      <trkpt lat="45.31398" lon="6.04959">
        <ele>1762.2</ele>
        <time>2021-01-16T13:11:53Z</time>
      </trkpt>
      <trkpt lat="45.31398" lon="6.04959">
        <ele>1762.2</ele>
        <time>2021-01-16T13:11:54Z</time>
      </trkpt>
      <trkpt lat="45.31398" lon="6.04959">
        <ele>1762.2</ele>
        <time>2021-01-16T13:11:55Z</time>
      </trkpt>
      <trkpt lat="45.31398" lon="6.04959">
        <ele>1762.2</ele>
        <time>2021-01-16T13:11:56Z</time>
      </trkpt>
      <trkpt lat="45.31399" lon="6.04959">
        <ele>1762</ele>
        <time>2021-01-16T13:11:57Z</time>
      </trkpt>
      <trkpt lat="45.31401" lon="6.04956">
        <ele>1761.8</ele>
        <time>2021-01-16T13:11:58Z</time>
      </trkpt>
      <trkpt lat="45.31403" lon="6.04952">
        <ele>1761.4</ele>
        <time>2021-01-16T13:11:59Z</time>
      </trkpt>
      <trkpt lat="45.31405" lon="6.04946">
        <ele>1761</ele>
        <time>2021-01-16T13:12:00Z</time>
      </trkpt>
      <trkpt lat="45.31409" lon="6.04943">
        <ele>1760.2</ele>
        <time>2021-01-16T13:12:01Z</time>
      </trkpt>
      <trkpt lat="45.31415" lon="6.04944">
        <ele>1759</ele>
        <time>2021-01-16T13:12:02Z</time>
      </trkpt>
      <trkpt lat="45.31419" lon="6.04948">
        <ele>1758.2</ele>
        <time>2021-01-16T13:12:03Z</time>
      </trkpt>
      <trkpt lat="45.31424" lon="6.0495">
        <ele>1756.8</ele>
        <time>2021-01-16T13:12:04Z</time>
      </trkpt>
      <trkpt lat="45.31429" lon="6.0495">
        <ele>1755.6</ele>
        <time>2021-01-16T13:12:05Z</time>
      </trkpt>
      <trkpt lat="45.31433" lon="6.0495">
        <ele>1754.8</ele>
        <time>2021-01-16T13:12:06Z</time>
      </trkpt>
      <trkpt lat="45.31436" lon="6.04952">
        <ele>1753.8</ele>
        <time>2021-01-16T13:12:07Z</time>
      </trkpt>
      <trkpt lat="45.31439" lon="6.04956">
        <ele>1753</ele>
        <time>2021-01-16T13:12:08Z</time>
      </trkpt>
      <trkpt lat="45.31442" lon="6.04959">
        <ele>1752.2</ele>
        <time>2021-01-16T13:12:09Z</time>
      </trkpt>
      <trkpt lat="45.31445" lon="6.04962">
        <ele>1751.4</ele>
        <time>2021-01-16T13:12:10Z</time>
      </trkpt>
      <trkpt lat="45.31448" lon="6.04965">
        <ele>1750.8</ele>
        <time>2021-01-16T13:12:11Z</time>
      </trkpt>
      <trkpt lat="45.3145" lon="6.04967">
        <ele>1750.4</ele>
        <time>2021-01-16T13:12:12Z</time>
      </trkpt>
      <trkpt lat="45.31452" lon="6.04969">
        <ele>1749.8</ele>
        <time>2021-01-16T13:12:13Z</time>
      </trkpt>
      <trkpt lat="45.31454" lon="6.04971">
        <ele>1749.4</ele>
        <time>2021-01-16T13:12:14Z</time>
      </trkpt>
      <trkpt lat="45.31456" lon="6.04973">
        <ele>1749</ele>
        <time>2021-01-16T13:12:15Z</time>
      </trkpt>
      <trkpt lat="45.31458" lon="6.04974">
        <ele>1748.6</ele>
        <time>2021-01-16T13:12:16Z</time>
      </trkpt>
      <trkpt lat="45.31459" lon="6.04976">
        <ele>1748</ele>
        <time>2021-01-16T13:12:17Z</time>
      </trkpt>
      <trkpt lat="45.3146" lon="6.04977">
        <ele>1747.8</ele>
        <time>2021-01-16T13:12:18Z</time>
      </trkpt>
      <trkpt lat="45.31461" lon="6.04977">
        <ele>1747.4</ele>
        <time>2021-01-16T13:12:19Z</time>
      </trkpt>
      <trkpt lat="45.31461" lon="6.04978">
        <ele>1747.2</ele>
        <time>2021-01-16T13:12:20Z</time>
      </trkpt>
      <trkpt lat="45.31461" lon="6.04978">
        <ele>1747</ele>
        <time>2021-01-16T13:12:21Z</time>
      </trkpt>
      <trkpt lat="45.31461" lon="6.04978">
        <ele>1747</ele>
        <time>2021-01-16T13:12:22Z</time>
      </trkpt>
      <trkpt lat="45.31461" lon="6.04978">
        <ele>1746.8</ele>
        <time>2021-01-16T13:12:23Z</time>
      </trkpt>
      <trkpt lat="45.31461" lon="6.04978">
        <ele>1746.8</ele>
        <time>2021-01-16T13:12:24Z</time>
      </trkpt>
      <trkpt lat="45.31461" lon="6.04978">
        <ele>1746.8</ele>
        <time>2021-01-16T13:12:25Z</time>
      </trkpt>
      <trkpt lat="45.31461" lon="6.04978">
        <ele>1746.6</ele>
        <time>2021-01-16T13:12:26Z</time>
      </trkpt>
      <trkpt lat="45.31461" lon="6.04978">
        <ele>1746.6</ele>
        <time>2021-01-16T13:12:27Z</time>
      </trkpt>
      <trkpt lat="45.31461" lon="6.04978">
        <ele>1746.6</ele>
        <time>2021-01-16T13:12:28Z</time>
      </trkpt>
      <trkpt lat="45.31461" lon="6.04978">
        <ele>1746.6</ele>
        <time>2021-01-16T13:12:29Z</time>
      </trkpt>
      <trkpt lat="45.31463" lon="6.0498">
        <ele>1746.2</ele>
        <time>2021-01-16T13:12:30Z</time>
      </trkpt>
      <trkpt lat="45.31466" lon="6.04983">
        <ele>1745.8</ele>
        <time>2021-01-16T13:12:31Z</time>
      </trkpt>
      <trkpt lat="45.31468" lon="6.04986">
        <ele>1745.2</ele>
        <time>2021-01-16T13:12:32Z</time>
      </trkpt>
      <trkpt lat="45.31471" lon="6.0499">
        <ele>1744.6</ele>
        <time>2021-01-16T13:12:33Z</time>
      </trkpt>
      <trkpt lat="45.31474" lon="6.04994">
        <ele>1744</ele>
        <time>2021-01-16T13:12:34Z</time>
      </trkpt>
      <trkpt lat="45.31476" lon="6.04998">
        <ele>1743.4</ele>
        <time>2021-01-16T13:12:35Z</time>
      </trkpt>
      <trkpt lat="45.31477" lon="6.05001">
        <ele>1743</ele>
        <time>2021-01-16T13:12:36Z</time>
      </trkpt>
      <trkpt lat="45.31477" lon="6.05001">
        <ele>1742.4</ele>
        <time>2021-01-16T13:12:37Z</time>
      </trkpt>
      <trkpt lat="45.31477" lon="6.05002">
        <ele>1742.2</ele>
        <time>2021-01-16T13:12:38Z</time>
      </trkpt>
      <trkpt lat="45.31477" lon="6.05002">
        <ele>1742</ele>
        <time>2021-01-16T13:12:39Z</time>
      </trkpt>
      <trkpt lat="45.31477" lon="6.05002">
        <ele>1741.8</ele>
        <time>2021-01-16T13:12:40Z</time>
      </trkpt>
      <trkpt lat="45.31477" lon="6.05002">
        <ele>1741.6</ele>
        <time>2021-01-16T13:12:41Z</time>
      </trkpt>
      <trkpt lat="45.31477" lon="6.05002">
        <ele>1741.6</ele>
        <time>2021-01-16T13:12:42Z</time>
      </trkpt>
      <trkpt lat="45.31477" lon="6.05002">
        <ele>1741.4</ele>
        <time>2021-01-16T13:12:43Z</time>
      </trkpt>
      <trkpt lat="45.31477" lon="6.05002">
        <ele>1741.2</ele>
        <time>2021-01-16T13:12:44Z</time>
      </trkpt>
      <trkpt lat="45.31477" lon="6.05002">
        <ele>1741</ele>
        <time>2021-01-16T13:12:45Z</time>
      </trkpt>
      <trkpt lat="45.31477" lon="6.05002">
        <ele>1740.8</ele>
        <time>2021-01-16T13:12:46Z</time>
      </trkpt>
      <trkpt lat="45.31477" lon="6.05002">
        <ele>1740.6</ele>
        <time>2021-01-16T13:12:47Z</time>
      </trkpt>
      <trkpt lat="45.31477" lon="6.05002">
        <ele>1740.2</ele>
        <time>2021-01-16T13:12:48Z</time>
      </trkpt>
      <trkpt lat="45.31477" lon="6.05002">
        <ele>1740</ele>
        <time>2021-01-16T13:12:49Z</time>
      </trkpt>
      <trkpt lat="45.31477" lon="6.05002">
        <ele>1739.6</ele>
        <time>2021-01-16T13:12:50Z</time>
      </trkpt>
      <trkpt lat="45.31477" lon="6.05002">
        <ele>1739.4</ele>
        <time>2021-01-16T13:12:51Z</time>
      </trkpt>
      <trkpt lat="45.31477" lon="6.05002">
        <ele>1739</ele>
        <time>2021-01-16T13:12:52Z</time>
      </trkpt>
      <trkpt lat="45.31477" lon="6.05002">
        <ele>1739</ele>
        <time>2021-01-16T13:12:53Z</time>
      </trkpt>
      <trkpt lat="45.31478" lon="6.05002">
        <ele>1738.6</ele>
        <time>2021-01-16T13:12:54Z</time>
      </trkpt>
      <trkpt lat="45.31481" lon="6.05003">
        <ele>1738.4</ele>
        <time>2021-01-16T13:12:55Z</time>
      </trkpt>
      <trkpt lat="45.31481" lon="6.05002">
        <ele>1738</ele>
        <time>2021-01-16T13:12:56Z</time>
      </trkpt>
      <trkpt lat="45.31481" lon="6.05001">
        <ele>1737.6</ele>
        <time>2021-01-16T13:12:57Z</time>
      </trkpt>
      <trkpt lat="45.31481" lon="6.05">
        <ele>1737.2</ele>
        <time>2021-01-16T13:12:58Z</time>
      </trkpt>
      <trkpt lat="45.31481" lon="6.05">
        <ele>1737</ele>
        <time>2021-01-16T13:12:59Z</time>
      </trkpt>
      <trkpt lat="45.31481" lon="6.05">
        <ele>1736.8</ele>
        <time>2021-01-16T13:13:00Z</time>
      </trkpt>
      <trkpt lat="45.31481" lon="6.05">
        <ele>1736.6</ele>
        <time>2021-01-16T13:13:01Z</time>
      </trkpt>
      <trkpt lat="45.31481" lon="6.05">
        <ele>1736.4</ele>
        <time>2021-01-16T13:13:02Z</time>
      </trkpt>
      <trkpt lat="45.31481" lon="6.05">
        <ele>1736.4</ele>
        <time>2021-01-16T13:13:03Z</time>
      </trkpt>
      <trkpt lat="45.31481" lon="6.05">
        <ele>1736.4</ele>
        <time>2021-01-16T13:13:04Z</time>
      </trkpt>
      <trkpt lat="45.31481" lon="6.05">
        <ele>1736.4</ele>
        <time>2021-01-16T13:13:05Z</time>
      </trkpt>
      <trkpt lat="45.31481" lon="6.05">
        <ele>1736.2</ele>
        <time>2021-01-16T13:13:06Z</time>
      </trkpt>
      <trkpt lat="45.31481" lon="6.05">
        <ele>1736.2</ele>
        <time>2021-01-16T13:13:07Z</time>
      </trkpt>
      <trkpt lat="45.31481" lon="6.05">
        <ele>1736.2</ele>
        <time>2021-01-16T13:13:08Z</time>
      </trkpt>
      <trkpt lat="45.31481" lon="6.05">
        <ele>1736</ele>
        <time>2021-01-16T13:13:09Z</time>
      </trkpt>
      <trkpt lat="45.31481" lon="6.05">
        <ele>1735.8</ele>
        <time>2021-01-16T13:13:10Z</time>
      </trkpt>
      <trkpt lat="45.31481" lon="6.05">
        <ele>1735.6</ele>
        <time>2021-01-16T13:13:11Z</time>
      </trkpt>
      <trkpt lat="45.31482" lon="6.05">
        <ele>1735.2</ele>
        <time>2021-01-16T13:13:12Z</time>
      </trkpt>
      <trkpt lat="45.31484" lon="6.04999">
        <ele>1734.8</ele>
        <time>2021-01-16T13:13:13Z</time>
      </trkpt>
      <trkpt lat="45.31485" lon="6.05">
        <ele>1734.4</ele>
        <time>2021-01-16T13:13:14Z</time>
      </trkpt>
      <trkpt lat="45.31485" lon="6.05">
        <ele>1734.2</ele>
        <time>2021-01-16T13:13:15Z</time>
      </trkpt>
      <trkpt lat="45.31485" lon="6.05">
        <ele>1734</ele>
        <time>2021-01-16T13:13:16Z</time>
      </trkpt>
      <trkpt lat="45.31485" lon="6.05">
        <ele>1733.6</ele>
        <time>2021-01-16T13:13:17Z</time>
      </trkpt>
      <trkpt lat="45.31485" lon="6.04999">
        <ele>1733.4</ele>
        <time>2021-01-16T13:13:18Z</time>
      </trkpt>
      <trkpt lat="45.31487" lon="6.04997">
        <ele>1733</ele>
        <time>2021-01-16T13:13:19Z</time>
      </trkpt>
      <trkpt lat="45.31488" lon="6.04994">
        <ele>1732.4</ele>
        <time>2021-01-16T13:13:20Z</time>
      </trkpt>
      <trkpt lat="45.31488" lon="6.04992">
        <ele>1732</ele>
        <time>2021-01-16T13:13:21Z</time>
      </trkpt>
      <trkpt lat="45.31488" lon="6.04992">
        <ele>1731.6</ele>
        <time>2021-01-16T13:13:22Z</time>
      </trkpt>
      <trkpt lat="45.31489" lon="6.04993">
        <ele>1731.2</ele>
        <time>2021-01-16T13:13:23Z</time>
      </trkpt>
      <trkpt lat="45.31489" lon="6.04993">
        <ele>1731</ele>
        <time>2021-01-16T13:13:24Z</time>
      </trkpt>
      <trkpt lat="45.31489" lon="6.04993">
        <ele>1730.8</ele>
        <time>2021-01-16T13:13:25Z</time>
      </trkpt>
      <trkpt lat="45.31489" lon="6.04993">
        <ele>1730.8</ele>
        <time>2021-01-16T13:13:26Z</time>
      </trkpt>
      <trkpt lat="45.31489" lon="6.04993">
        <ele>1730.6</ele>
        <time>2021-01-16T13:13:27Z</time>
      </trkpt>
      <trkpt lat="45.31489" lon="6.04992">
        <ele>1730.2</ele>
        <time>2021-01-16T13:13:28Z</time>
      </trkpt>
      <trkpt lat="45.31492" lon="6.04988">
        <ele>1729.6</ele>
        <time>2021-01-16T13:13:29Z</time>
      </trkpt>
      <trkpt lat="45.31495" lon="6.04985">
        <ele>1728.8</ele>
        <time>2021-01-16T13:13:30Z</time>
      </trkpt>
      <trkpt lat="45.31498" lon="6.04986">
        <ele>1727.8</ele>
        <time>2021-01-16T13:13:31Z</time>
      </trkpt>
      <trkpt lat="45.31501" lon="6.04991">
        <ele>1726.6</ele>
        <time>2021-01-16T13:13:32Z</time>
      </trkpt>
      <trkpt lat="45.31503" lon="6.04996">
        <ele>1725.6</ele>
        <time>2021-01-16T13:13:33Z</time>
      </trkpt>
      <trkpt lat="45.31506" lon="6.05001">
        <ele>1724.6</ele>
        <time>2021-01-16T13:13:34Z</time>
      </trkpt>
      <trkpt lat="45.31509" lon="6.05003">
        <ele>1723.8</ele>
        <time>2021-01-16T13:13:35Z</time>
      </trkpt>
      <trkpt lat="45.31513" lon="6.05005">
        <ele>1723</ele>
        <time>2021-01-16T13:13:36Z</time>
      </trkpt>
      <trkpt lat="45.31517" lon="6.05007">
        <ele>1722.2</ele>
        <time>2021-01-16T13:13:37Z</time>
      </trkpt>
      <trkpt lat="45.3152" lon="6.05008">
        <ele>1721.4</ele>
        <time>2021-01-16T13:13:38Z</time>
      </trkpt>
      <trkpt lat="45.31525" lon="6.0501">
        <ele>1720.8</ele>
        <time>2021-01-16T13:13:39Z</time>
      </trkpt>
      <trkpt lat="45.31529" lon="6.05012">
        <ele>1720</ele>
        <time>2021-01-16T13:13:40Z</time>
      </trkpt>
      <trkpt lat="45.31532" lon="6.0501">
        <ele>1719</ele>
        <time>2021-01-16T13:13:41Z</time>
      </trkpt>
      <trkpt lat="45.31532" lon="6.05007">
        <ele>1717.8</ele>
        <time>2021-01-16T13:13:42Z</time>
      </trkpt>
      <trkpt lat="45.31532" lon="6.05007">
        <ele>1716.8</ele>
        <time>2021-01-16T13:13:43Z</time>
      </trkpt>
      <trkpt lat="45.31532" lon="6.05007">
        <ele>1716.2</ele>
        <time>2021-01-16T13:13:44Z</time>
      </trkpt>
      <trkpt lat="45.31532" lon="6.05007">
        <ele>1715.6</ele>
        <time>2021-01-16T13:13:45Z</time>
      </trkpt>
      <trkpt lat="45.31532" lon="6.05007">
        <ele>1715.2</ele>
        <time>2021-01-16T13:13:46Z</time>
      </trkpt>
      <trkpt lat="45.31532" lon="6.05007">
        <ele>1714.8</ele>
        <time>2021-01-16T13:13:47Z</time>
      </trkpt>
      <trkpt lat="45.31532" lon="6.05007">
        <ele>1714.6</ele>
        <time>2021-01-16T13:13:48Z</time>
      </trkpt>
      <trkpt lat="45.31532" lon="6.05007">
        <ele>1714.4</ele>
        <time>2021-01-16T13:13:49Z</time>
      </trkpt>
      <trkpt lat="45.31532" lon="6.05007">
        <ele>1714.2</ele>
        <time>2021-01-16T13:13:50Z</time>
      </trkpt>
      <trkpt lat="45.31532" lon="6.05007">
        <ele>1714.2</ele>
        <time>2021-01-16T13:13:51Z</time>
      </trkpt>
      <trkpt lat="45.31532" lon="6.05007">
        <ele>1714</ele>
        <time>2021-01-16T13:13:52Z</time>
      </trkpt>
      <trkpt lat="45.31532" lon="6.05007">
        <ele>1714</ele>
        <time>2021-01-16T13:13:53Z</time>
      </trkpt>
      <trkpt lat="45.31532" lon="6.05007">
        <ele>1714</ele>
        <time>2021-01-16T13:13:54Z</time>
      </trkpt>
      <trkpt lat="45.31532" lon="6.05007">
        <ele>1714</ele>
        <time>2021-01-16T13:13:55Z</time>
      </trkpt>
      <trkpt lat="45.31532" lon="6.05007">
        <ele>1713.8</ele>
        <time>2021-01-16T13:13:56Z</time>
      </trkpt>
      <trkpt lat="45.31532" lon="6.05007">
        <ele>1713.8</ele>
        <time>2021-01-16T13:13:57Z</time>
      </trkpt>
      <trkpt lat="45.31532" lon="6.05007">
        <ele>1713.8</ele>
        <time>2021-01-16T13:13:58Z</time>
      </trkpt>
      <trkpt lat="45.31532" lon="6.05007">
        <ele>1713.8</ele>
        <time>2021-01-16T13:13:59Z</time>
      </trkpt>
      <trkpt lat="45.31532" lon="6.05007">
        <ele>1713.8</ele>
        <time>2021-01-16T13:14:00Z</time>
      </trkpt>
      <trkpt lat="45.31532" lon="6.05007">
        <ele>1714</ele>
        <time>2021-01-16T13:14:01Z</time>
      </trkpt>
      <trkpt lat="45.31532" lon="6.05007">
        <ele>1714</ele>
        <time>2021-01-16T13:14:02Z</time>
      </trkpt>
      <trkpt lat="45.31532" lon="6.05007">
        <ele>1714</ele>
        <time>2021-01-16T13:14:03Z</time>
      </trkpt>
      <trkpt lat="45.31532" lon="6.05007">
        <ele>1714</ele>
        <time>2021-01-16T13:14:04Z</time>
      </trkpt>
      <trkpt lat="45.31532" lon="6.05007">
        <ele>1714</ele>
        <time>2021-01-16T13:14:05Z</time>
      </trkpt>
      <trkpt lat="45.31532" lon="6.05007">
        <ele>1714</ele>
        <time>2021-01-16T13:14:06Z</time>
      </trkpt>
      <trkpt lat="45.31532" lon="6.05007">
        <ele>1714</ele>
        <time>2021-01-16T13:14:07Z</time>
      </trkpt>
      <trkpt lat="45.31532" lon="6.05007">
        <ele>1714</ele>
        <time>2021-01-16T13:14:08Z</time>
      </trkpt>
      <trkpt lat="45.31532" lon="6.05007">
        <ele>1714</ele>
        <time>2021-01-16T13:14:09Z</time>
      </trkpt>
      <trkpt lat="45.31532" lon="6.05006">
        <ele>1713.8</ele>
        <time>2021-01-16T13:14:10Z</time>
      </trkpt>
      <trkpt lat="45.31533" lon="6.05003">
        <ele>1713.6</ele>
        <time>2021-01-16T13:14:11Z</time>
      </trkpt>
      <trkpt lat="45.31536" lon="6.05001">
        <ele>1713.2</ele>
        <time>2021-01-16T13:14:12Z</time>
      </trkpt>
      <trkpt lat="45.3154" lon="6.05001">
        <ele>1712.8</ele>
        <time>2021-01-16T13:14:13Z</time>
      </trkpt>
      <trkpt lat="45.31544" lon="6.05002">
        <ele>1712.2</ele>
        <time>2021-01-16T13:14:14Z</time>
      </trkpt>
      <trkpt lat="45.31548" lon="6.05003">
        <ele>1711.8</ele>
        <time>2021-01-16T13:14:15Z</time>
      </trkpt>
      <trkpt lat="45.31551" lon="6.05004">
        <ele>1711.2</ele>
        <time>2021-01-16T13:14:16Z</time>
      </trkpt>
      <trkpt lat="45.31556" lon="6.05005">
        <ele>1710.6</ele>
        <time>2021-01-16T13:14:17Z</time>
      </trkpt>
      <trkpt lat="45.31559" lon="6.05006">
        <ele>1710.2</ele>
        <time>2021-01-16T13:14:18Z</time>
      </trkpt>
      <trkpt lat="45.31564" lon="6.05007">
        <ele>1709.8</ele>
        <time>2021-01-16T13:14:19Z</time>
      </trkpt>
      <trkpt lat="45.31568" lon="6.05008">
        <ele>1709.2</ele>
        <time>2021-01-16T13:14:20Z</time>
      </trkpt>
      <trkpt lat="45.31572" lon="6.05008">
        <ele>1708.8</ele>
        <time>2021-01-16T13:14:21Z</time>
      </trkpt>
      <trkpt lat="45.31576" lon="6.0501">
        <ele>1708.4</ele>
        <time>2021-01-16T13:14:22Z</time>
      </trkpt>
      <trkpt lat="45.3158" lon="6.05011">
        <ele>1707.6</ele>
        <time>2021-01-16T13:14:23Z</time>
      </trkpt>
      <trkpt lat="45.31585" lon="6.05013">
        <ele>1707</ele>
        <time>2021-01-16T13:14:24Z</time>
      </trkpt>
      <trkpt lat="45.31588" lon="6.05016">
        <ele>1706.6</ele>
        <time>2021-01-16T13:14:25Z</time>
      </trkpt>
      <trkpt lat="45.31591" lon="6.05017">
        <ele>1706.2</ele>
        <time>2021-01-16T13:14:26Z</time>
      </trkpt>
      <trkpt lat="45.31592" lon="6.05017">
        <ele>1705.6</ele>
        <time>2021-01-16T13:14:27Z</time>
      </trkpt>
      <trkpt lat="45.31594" lon="6.05016">
        <ele>1705.2</ele>
        <time>2021-01-16T13:14:28Z</time>
      </trkpt>
      <trkpt lat="45.31596" lon="6.05013">
        <ele>1704.4</ele>
        <time>2021-01-16T13:14:29Z</time>
      </trkpt>
      <trkpt lat="45.31597" lon="6.05009">
        <ele>1703.8</ele>
        <time>2021-01-16T13:14:30Z</time>
      </trkpt>
      <trkpt lat="45.31598" lon="6.05004">
        <ele>1702.8</ele>
        <time>2021-01-16T13:14:31Z</time>
      </trkpt>
      <trkpt lat="45.31599" lon="6.04998">
        <ele>1701.6</ele>
        <time>2021-01-16T13:14:32Z</time>
      </trkpt>
      <trkpt lat="45.31601" lon="6.04992">
        <ele>1700.6</ele>
        <time>2021-01-16T13:14:33Z</time>
      </trkpt>
      <trkpt lat="45.31602" lon="6.04986">
        <ele>1699.4</ele>
        <time>2021-01-16T13:14:34Z</time>
      </trkpt>
      <trkpt lat="45.31605" lon="6.04981">
        <ele>1698.2</ele>
        <time>2021-01-16T13:14:35Z</time>
      </trkpt>
      <trkpt lat="45.31609" lon="6.04979">
        <ele>1697.2</ele>
        <time>2021-01-16T13:14:36Z</time>
      </trkpt>
      <trkpt lat="45.31613" lon="6.0498">
        <ele>1696.2</ele>
        <time>2021-01-16T13:14:37Z</time>
      </trkpt>
      <trkpt lat="45.31618" lon="6.0498">
        <ele>1695.4</ele>
        <time>2021-01-16T13:14:38Z</time>
      </trkpt>
      <trkpt lat="45.31622" lon="6.04979">
        <ele>1694.4</ele>
        <time>2021-01-16T13:14:39Z</time>
      </trkpt>
      <trkpt lat="45.31625" lon="6.04977">
        <ele>1693.6</ele>
        <time>2021-01-16T13:14:40Z</time>
      </trkpt>
      <trkpt lat="45.3163" lon="6.04976">
        <ele>1693</ele>
        <time>2021-01-16T13:14:41Z</time>
      </trkpt>
      <trkpt lat="45.31634" lon="6.04973">
        <ele>1692.2</ele>
        <time>2021-01-16T13:14:42Z</time>
      </trkpt>
      <trkpt lat="45.31638" lon="6.0497">
        <ele>1691.4</ele>
        <time>2021-01-16T13:14:43Z</time>
      </trkpt>
      <trkpt lat="45.31643" lon="6.04965">
        <ele>1690.6</ele>
        <time>2021-01-16T13:14:44Z</time>
      </trkpt>
      <trkpt lat="45.31648" lon="6.04961">
        <ele>1689.4</ele>
        <time>2021-01-16T13:14:45Z</time>
      </trkpt>
      <trkpt lat="45.31652" lon="6.04955">
        <ele>1688</ele>
        <time>2021-01-16T13:14:46Z</time>
      </trkpt>
      <trkpt lat="45.31655" lon="6.04948">
        <ele>1687</ele>
        <time>2021-01-16T13:14:47Z</time>
      </trkpt>
      <trkpt lat="45.31659" lon="6.04941">
        <ele>1685.8</ele>
        <time>2021-01-16T13:14:48Z</time>
      </trkpt>
      <trkpt lat="45.31663" lon="6.04934">
        <ele>1684.4</ele>
        <time>2021-01-16T13:14:49Z</time>
      </trkpt>
      <trkpt lat="45.31665" lon="6.04926">
        <ele>1683</ele>
        <time>2021-01-16T13:14:50Z</time>
      </trkpt>
      <trkpt lat="45.31667" lon="6.04919">
        <ele>1682</ele>
        <time>2021-01-16T13:14:51Z</time>
      </trkpt>
      <trkpt lat="45.31668" lon="6.04915">
        <ele>1681</ele>
        <time>2021-01-16T13:14:52Z</time>
      </trkpt>
      <trkpt lat="45.3167" lon="6.04911">
        <ele>1680.2</ele>
        <time>2021-01-16T13:14:53Z</time>
      </trkpt>
      <trkpt lat="45.31671" lon="6.04907">
        <ele>1679.2</ele>
        <time>2021-01-16T13:14:54Z</time>
      </trkpt>
      <trkpt lat="45.31673" lon="6.04903">
        <ele>1678.6</ele>
        <time>2021-01-16T13:14:55Z</time>
      </trkpt>
      <trkpt lat="45.31674" lon="6.04898">
        <ele>1678</ele>
        <time>2021-01-16T13:14:56Z</time>
      </trkpt>
      <trkpt lat="45.31676" lon="6.04894">
        <ele>1677.6</ele>
        <time>2021-01-16T13:14:57Z</time>
      </trkpt>
      <trkpt lat="45.31677" lon="6.04891">
        <ele>1677.2</ele>
        <time>2021-01-16T13:14:58Z</time>
      </trkpt>
      <trkpt lat="45.31679" lon="6.04889">
        <ele>1676.8</ele>
        <time>2021-01-16T13:14:59Z</time>
      </trkpt>
      <trkpt lat="45.31681" lon="6.04886">
        <ele>1676.6</ele>
        <time>2021-01-16T13:15:00Z</time>
      </trkpt>
      <trkpt lat="45.31682" lon="6.04884">
        <ele>1676.4</ele>
        <time>2021-01-16T13:15:01Z</time>
      </trkpt>
      <trkpt lat="45.31683" lon="6.04882">
        <ele>1676.2</ele>
        <time>2021-01-16T13:15:02Z</time>
      </trkpt>
      <trkpt lat="45.31685" lon="6.0488">
        <ele>1676</ele>
        <time>2021-01-16T13:15:03Z</time>
      </trkpt>
      <trkpt lat="45.31687" lon="6.04879">
        <ele>1675.8</ele>
        <time>2021-01-16T13:15:04Z</time>
      </trkpt>
      <trkpt lat="45.31688" lon="6.04879">
        <ele>1675.6</ele>
        <time>2021-01-16T13:15:05Z</time>
      </trkpt>
      <trkpt lat="45.31688" lon="6.04879">
        <ele>1675.6</ele>
        <time>2021-01-16T13:15:06Z</time>
      </trkpt>
      <trkpt lat="45.31688" lon="6.04879">
        <ele>1675.4</ele>
        <time>2021-01-16T13:15:07Z</time>
      </trkpt>
      <trkpt lat="45.31688" lon="6.04879">
        <ele>1675.4</ele>
        <time>2021-01-16T13:15:08Z</time>
      </trkpt>
      <trkpt lat="45.31688" lon="6.04879">
        <ele>1675.4</ele>
        <time>2021-01-16T13:15:09Z</time>
      </trkpt>
      <trkpt lat="45.31688" lon="6.04879">
        <ele>1675.4</ele>
        <time>2021-01-16T13:15:10Z</time>
      </trkpt>
      <trkpt lat="45.31688" lon="6.04879">
        <ele>1675.4</ele>
        <time>2021-01-16T13:15:11Z</time>
      </trkpt>
      <trkpt lat="45.31688" lon="6.04879">
        <ele>1675.4</ele>
        <time>2021-01-16T13:15:12Z</time>
      </trkpt>
      <trkpt lat="45.31688" lon="6.04879">
        <ele>1675.2</ele>
        <time>2021-01-16T13:15:13Z</time>
      </trkpt>
      <trkpt lat="45.31688" lon="6.04879">
        <ele>1675.2</ele>
        <time>2021-01-16T13:15:14Z</time>
      </trkpt>
      <trkpt lat="45.31688" lon="6.04879">
        <ele>1675.2</ele>
        <time>2021-01-16T13:15:15Z</time>
      </trkpt>
      <trkpt lat="45.31688" lon="6.04879">
        <ele>1675.2</ele>
        <time>2021-01-16T13:15:16Z</time>
      </trkpt>
      <trkpt lat="45.31688" lon="6.04879">
        <ele>1675.2</ele>
        <time>2021-01-16T13:15:17Z</time>
      </trkpt>
      <trkpt lat="45.31688" lon="6.04879">
        <ele>1675.2</ele>
        <time>2021-01-16T13:15:18Z</time>
      </trkpt>
      <trkpt lat="45.31688" lon="6.04879">
        <ele>1675.2</ele>
        <time>2021-01-16T13:15:19Z</time>
      </trkpt>
      <trkpt lat="45.31688" lon="6.04879">
        <ele>1675.2</ele>
        <time>2021-01-16T13:15:20Z</time>
      </trkpt>
      <trkpt lat="45.31688" lon="6.04879">
        <ele>1675.4</ele>
        <time>2021-01-16T13:15:21Z</time>
      </trkpt>
      <trkpt lat="45.31688" lon="6.04879">
        <ele>1675.4</ele>
        <time>2021-01-16T13:15:22Z</time>
      </trkpt>
      <trkpt lat="45.31688" lon="6.04879">
        <ele>1675.2</ele>
        <time>2021-01-16T13:15:23Z</time>
      </trkpt>
      <trkpt lat="45.31688" lon="6.04879">
        <ele>1675.2</ele>
        <time>2021-01-16T13:15:24Z</time>
      </trkpt>
      <trkpt lat="45.31688" lon="6.04879">
        <ele>1675.2</ele>
        <time>2021-01-16T13:15:25Z</time>
      </trkpt>
      <trkpt lat="45.31688" lon="6.04879">
        <ele>1675.4</ele>
        <time>2021-01-16T13:15:26Z</time>
      </trkpt>
      <trkpt lat="45.31688" lon="6.04879">
        <ele>1675.2</ele>
        <time>2021-01-16T13:15:27Z</time>
      </trkpt>
      <trkpt lat="45.31688" lon="6.04879">
        <ele>1675.2</ele>
        <time>2021-01-16T13:15:28Z</time>
      </trkpt>
      <trkpt lat="45.31688" lon="6.04878">
        <ele>1675.2</ele>
        <time>2021-01-16T13:15:29Z</time>
      </trkpt>
      <trkpt lat="45.3169" lon="6.04877">
        <ele>1675</ele>
        <time>2021-01-16T13:15:30Z</time>
      </trkpt>
      <trkpt lat="45.31693" lon="6.04876">
        <ele>1674.6</ele>
        <time>2021-01-16T13:15:31Z</time>
      </trkpt>
      <trkpt lat="45.31697" lon="6.04876">
        <ele>1674.2</ele>
        <time>2021-01-16T13:15:32Z</time>
      </trkpt>
      <trkpt lat="45.317" lon="6.04877">
        <ele>1673.6</ele>
        <time>2021-01-16T13:15:33Z</time>
      </trkpt>
      <trkpt lat="45.31703" lon="6.04877">
        <ele>1673</ele>
        <time>2021-01-16T13:15:34Z</time>
      </trkpt>
      <trkpt lat="45.31705" lon="6.04877">
        <ele>1672.4</ele>
        <time>2021-01-16T13:15:35Z</time>
      </trkpt>
      <trkpt lat="45.31708" lon="6.04876">
        <ele>1671.6</ele>
        <time>2021-01-16T13:15:36Z</time>
      </trkpt>
      <trkpt lat="45.3171" lon="6.04873">
        <ele>1670.8</ele>
        <time>2021-01-16T13:15:37Z</time>
      </trkpt>
      <trkpt lat="45.31712" lon="6.04869">
        <ele>1670.2</ele>
        <time>2021-01-16T13:15:38Z</time>
      </trkpt>
      <trkpt lat="45.31714" lon="6.04864">
        <ele>1669.4</ele>
        <time>2021-01-16T13:15:39Z</time>
      </trkpt>
      <trkpt lat="45.31718" lon="6.0486">
        <ele>1668.4</ele>
        <time>2021-01-16T13:15:40Z</time>
      </trkpt>
      <trkpt lat="45.31722" lon="6.04859">
        <ele>1667.2</ele>
        <time>2021-01-16T13:15:41Z</time>
      </trkpt>
      <trkpt lat="45.31726" lon="6.0486">
        <ele>1666</ele>
        <time>2021-01-16T13:15:42Z</time>
      </trkpt>
      <trkpt lat="45.3173" lon="6.04861">
        <ele>1664.8</ele>
        <time>2021-01-16T13:15:43Z</time>
      </trkpt>
      <trkpt lat="45.31733" lon="6.04862">
        <ele>1663.6</ele>
        <time>2021-01-16T13:15:44Z</time>
      </trkpt>
      <trkpt lat="45.31737" lon="6.04863">
        <ele>1662.4</ele>
        <time>2021-01-16T13:15:45Z</time>
      </trkpt>
      <trkpt lat="45.31741" lon="6.04863">
        <ele>1661.2</ele>
        <time>2021-01-16T13:15:46Z</time>
      </trkpt>
      <trkpt lat="45.31746" lon="6.04863">
        <ele>1660</ele>
        <time>2021-01-16T13:15:47Z</time>
      </trkpt>
      <trkpt lat="45.31751" lon="6.04863">
        <ele>1658.8</ele>
        <time>2021-01-16T13:15:48Z</time>
      </trkpt>
      <trkpt lat="45.31758" lon="6.04864">
        <ele>1657.6</ele>
        <time>2021-01-16T13:15:49Z</time>
      </trkpt>
      <trkpt lat="45.31764" lon="6.04865">
        <ele>1656.6</ele>
        <time>2021-01-16T13:15:50Z</time>
      </trkpt>
      <trkpt lat="45.31769" lon="6.04864">
        <ele>1655.8</ele>
        <time>2021-01-16T13:15:51Z</time>
      </trkpt>
      <trkpt lat="45.31773" lon="6.04863">
        <ele>1655</ele>
        <time>2021-01-16T13:15:52Z</time>
      </trkpt>
      <trkpt lat="45.31777" lon="6.04862">
        <ele>1654.6</ele>
        <time>2021-01-16T13:15:53Z</time>
      </trkpt>
      <trkpt lat="45.3178" lon="6.0486">
        <ele>1654</ele>
        <time>2021-01-16T13:15:54Z</time>
      </trkpt>
      <trkpt lat="45.31782" lon="6.04858">
        <ele>1653.6</ele>
        <time>2021-01-16T13:15:55Z</time>
      </trkpt>
      <trkpt lat="45.31785" lon="6.04856">
        <ele>1653.2</ele>
        <time>2021-01-16T13:15:56Z</time>
      </trkpt>
      <trkpt lat="45.31787" lon="6.04854">
        <ele>1652.6</ele>
        <time>2021-01-16T13:15:57Z</time>
      </trkpt>
      <trkpt lat="45.31788" lon="6.04851">
        <ele>1652</ele>
        <time>2021-01-16T13:15:58Z</time>
      </trkpt>
      <trkpt lat="45.31787" lon="6.04851">
        <ele>1651.6</ele>
        <time>2021-01-16T13:15:59Z</time>
      </trkpt>
      <trkpt lat="45.31787" lon="6.04851">
        <ele>1651.4</ele>
        <time>2021-01-16T13:16:00Z</time>
      </trkpt>
      <trkpt lat="45.31787" lon="6.04851">
        <ele>1651.2</ele>
        <time>2021-01-16T13:16:01Z</time>
      </trkpt>
      <trkpt lat="45.31787" lon="6.04851">
        <ele>1651</ele>
        <time>2021-01-16T13:16:02Z</time>
      </trkpt>
      <trkpt lat="45.31787" lon="6.04851">
        <ele>1650.8</ele>
        <time>2021-01-16T13:16:03Z</time>
      </trkpt>
      <trkpt lat="45.31787" lon="6.04851">
        <ele>1650.8</ele>
        <time>2021-01-16T13:16:04Z</time>
      </trkpt>
      <trkpt lat="45.31787" lon="6.04851">
        <ele>1650.6</ele>
        <time>2021-01-16T13:16:05Z</time>
      </trkpt>
      <trkpt lat="45.31787" lon="6.04851">
        <ele>1650.6</ele>
        <time>2021-01-16T13:16:06Z</time>
      </trkpt>
      <trkpt lat="45.31787" lon="6.04851">
        <ele>1650.6</ele>
        <time>2021-01-16T13:16:07Z</time>
      </trkpt>
      <trkpt lat="45.31787" lon="6.04851">
        <ele>1650.6</ele>
        <time>2021-01-16T13:16:08Z</time>
      </trkpt>
      <trkpt lat="45.31787" lon="6.04851">
        <ele>1650.6</ele>
        <time>2021-01-16T13:16:09Z</time>
      </trkpt>
      <trkpt lat="45.31787" lon="6.04851">
        <ele>1650.6</ele>
        <time>2021-01-16T13:16:10Z</time>
      </trkpt>
      <trkpt lat="45.31787" lon="6.04851">
        <ele>1650.6</ele>
        <time>2021-01-16T13:16:11Z</time>
      </trkpt>
      <trkpt lat="45.31787" lon="6.04851">
        <ele>1650.6</ele>
        <time>2021-01-16T13:16:12Z</time>
      </trkpt>
      <trkpt lat="45.31787" lon="6.04851">
        <ele>1650.6</ele>
        <time>2021-01-16T13:16:13Z</time>
      </trkpt>
      <trkpt lat="45.31787" lon="6.04851">
        <ele>1650.6</ele>
        <time>2021-01-16T13:16:14Z</time>
      </trkpt>
      <trkpt lat="45.31787" lon="6.04851">
        <ele>1650.6</ele>
        <time>2021-01-16T13:16:15Z</time>
      </trkpt>
      <trkpt lat="45.31787" lon="6.04851">
        <ele>1650.4</ele>
        <time>2021-01-16T13:16:16Z</time>
      </trkpt>
      <trkpt lat="45.31787" lon="6.04851">
        <ele>1650.6</ele>
        <time>2021-01-16T13:16:17Z</time>
      </trkpt>
      <trkpt lat="45.31787" lon="6.04851">
        <ele>1650.6</ele>
        <time>2021-01-16T13:16:18Z</time>
      </trkpt>
      <trkpt lat="45.31787" lon="6.04851">
        <ele>1650.6</ele>
        <time>2021-01-16T13:16:19Z</time>
      </trkpt>
      <trkpt lat="45.31787" lon="6.04851">
        <ele>1650.6</ele>
        <time>2021-01-16T13:16:20Z</time>
      </trkpt>
      <trkpt lat="45.31787" lon="6.04851">
        <ele>1650.6</ele>
        <time>2021-01-16T13:16:21Z</time>
      </trkpt>
      <trkpt lat="45.31787" lon="6.04851">
        <ele>1650.6</ele>
        <time>2021-01-16T13:16:22Z</time>
      </trkpt>
      <trkpt lat="45.31787" lon="6.04851">
        <ele>1650.4</ele>
        <time>2021-01-16T13:16:23Z</time>
      </trkpt>
      <trkpt lat="45.31787" lon="6.04851">
        <ele>1650.4</ele>
        <time>2021-01-16T13:16:24Z</time>
      </trkpt>
      <trkpt lat="45.31787" lon="6.04851">
        <ele>1650.6</ele>
        <time>2021-01-16T13:16:25Z</time>
      </trkpt>
      <trkpt lat="45.31787" lon="6.04851">
        <ele>1650.6</ele>
        <time>2021-01-16T13:16:26Z</time>
      </trkpt>
      <trkpt lat="45.31787" lon="6.04851">
        <ele>1650.6</ele>
        <time>2021-01-16T13:16:27Z</time>
      </trkpt>
      <trkpt lat="45.31787" lon="6.04851">
        <ele>1650.6</ele>
        <time>2021-01-16T13:16:28Z</time>
      </trkpt>
      <trkpt lat="45.31787" lon="6.04851">
        <ele>1650.6</ele>
        <time>2021-01-16T13:16:29Z</time>
      </trkpt>
      <trkpt lat="45.31787" lon="6.0485">
        <ele>1650.2</ele>
        <time>2021-01-16T13:16:30Z</time>
      </trkpt>
      <trkpt lat="45.31784" lon="6.04848">
        <ele>1649.6</ele>
        <time>2021-01-16T13:16:31Z</time>
      </trkpt>
      <trkpt lat="45.31784" lon="6.04847">
        <ele>1649.4</ele>
        <time>2021-01-16T13:16:32Z</time>
      </trkpt>
      <trkpt lat="45.31784" lon="6.04846">
        <ele>1649</ele>
        <time>2021-01-16T13:16:33Z</time>
      </trkpt>
      <trkpt lat="45.31784" lon="6.04843">
        <ele>1648.6</ele>
        <time>2021-01-16T13:16:34Z</time>
      </trkpt>
      <trkpt lat="45.31784" lon="6.0484">
        <ele>1648.2</ele>
        <time>2021-01-16T13:16:35Z</time>
      </trkpt>
      <trkpt lat="45.31784" lon="6.04839">
        <ele>1647.8</ele>
        <time>2021-01-16T13:16:36Z</time>
      </trkpt>
      <trkpt lat="45.31783" lon="6.04837">
        <ele>1647.2</ele>
        <time>2021-01-16T13:16:37Z</time>
      </trkpt>
      <trkpt lat="45.31782" lon="6.04835">
        <ele>1646.6</ele>
        <time>2021-01-16T13:16:38Z</time>
      </trkpt>
      <trkpt lat="45.31781" lon="6.04834">
        <ele>1646.2</ele>
        <time>2021-01-16T13:16:39Z</time>
      </trkpt>
      <trkpt lat="45.3178" lon="6.04832">
        <ele>1645.6</ele>
        <time>2021-01-16T13:16:40Z</time>
      </trkpt>
      <trkpt lat="45.31779" lon="6.0483">
        <ele>1644.8</ele>
        <time>2021-01-16T13:16:41Z</time>
      </trkpt>
      <trkpt lat="45.31777" lon="6.0483">
        <ele>1644.2</ele>
        <time>2021-01-16T13:16:42Z</time>
      </trkpt>
      <trkpt lat="45.31776" lon="6.04829">
        <ele>1643.6</ele>
        <time>2021-01-16T13:16:43Z</time>
      </trkpt>
      <trkpt lat="45.31773" lon="6.04827">
        <ele>1642.8</ele>
        <time>2021-01-16T13:16:44Z</time>
      </trkpt>
      <trkpt lat="45.31769" lon="6.04827">
        <ele>1642.2</ele>
        <time>2021-01-16T13:16:45Z</time>
      </trkpt>
      <trkpt lat="45.31768" lon="6.04827">
        <ele>1641.8</ele>
        <time>2021-01-16T13:16:46Z</time>
      </trkpt>
      <trkpt lat="45.31768" lon="6.04826">
        <ele>1641.4</ele>
        <time>2021-01-16T13:16:47Z</time>
      </trkpt>
      <trkpt lat="45.31769" lon="6.04826">
        <ele>1641.2</ele>
        <time>2021-01-16T13:16:48Z</time>
      </trkpt>
      <trkpt lat="45.31769" lon="6.04825">
        <ele>1640.8</ele>
        <time>2021-01-16T13:16:49Z</time>
      </trkpt>
      <trkpt lat="45.3177" lon="6.04823">
        <ele>1640.4</ele>
        <time>2021-01-16T13:16:50Z</time>
      </trkpt>
      <trkpt lat="45.31771" lon="6.04822">
        <ele>1640</ele>
        <time>2021-01-16T13:16:51Z</time>
      </trkpt>
      <trkpt lat="45.31772" lon="6.04822">
        <ele>1639.6</ele>
        <time>2021-01-16T13:16:52Z</time>
      </trkpt>
      <trkpt lat="45.31772" lon="6.04822">
        <ele>1639.6</ele>
        <time>2021-01-16T13:16:53Z</time>
      </trkpt>
      <trkpt lat="45.31772" lon="6.04822">
        <ele>1639.4</ele>
        <time>2021-01-16T13:16:54Z</time>
      </trkpt>
      <trkpt lat="45.31772" lon="6.04822">
        <ele>1639.2</ele>
        <time>2021-01-16T13:16:55Z</time>
      </trkpt>
      <trkpt lat="45.31772" lon="6.04822">
        <ele>1639</ele>
        <time>2021-01-16T13:16:56Z</time>
      </trkpt>
      <trkpt lat="45.31772" lon="6.04822">
        <ele>1639</ele>
        <time>2021-01-16T13:16:57Z</time>
      </trkpt>
      <trkpt lat="45.31772" lon="6.04822">
        <ele>1638.8</ele>
        <time>2021-01-16T13:16:58Z</time>
      </trkpt>
      <trkpt lat="45.31772" lon="6.04822">
        <ele>1638.8</ele>
        <time>2021-01-16T13:16:59Z</time>
      </trkpt>
      <trkpt lat="45.31772" lon="6.04822">
        <ele>1638.8</ele>
        <time>2021-01-16T13:17:00Z</time>
      </trkpt>
      <trkpt lat="45.31772" lon="6.04822">
        <ele>1638.8</ele>
        <time>2021-01-16T13:17:01Z</time>
      </trkpt>
      <trkpt lat="45.31772" lon="6.04822">
        <ele>1638.8</ele>
        <time>2021-01-16T13:17:02Z</time>
      </trkpt>
      <trkpt lat="45.31772" lon="6.04822">
        <ele>1638.8</ele>
        <time>2021-01-16T13:17:03Z</time>
      </trkpt>
      <trkpt lat="45.31772" lon="6.04822">
        <ele>1638.8</ele>
        <time>2021-01-16T13:17:04Z</time>
      </trkpt>
      <trkpt lat="45.31772" lon="6.04822">
        <ele>1638.8</ele>
        <time>2021-01-16T13:17:05Z</time>
      </trkpt>
      <trkpt lat="45.31772" lon="6.04822">
        <ele>1638.8</ele>
        <time>2021-01-16T13:17:06Z</time>
      </trkpt>
      <trkpt lat="45.31772" lon="6.04822">
        <ele>1638.8</ele>
        <time>2021-01-16T13:17:07Z</time>
      </trkpt>
      <trkpt lat="45.31772" lon="6.04822">
        <ele>1638.8</ele>
        <time>2021-01-16T13:17:08Z</time>
      </trkpt>
      <trkpt lat="45.31772" lon="6.04822">
        <ele>1638.8</ele>
        <time>2021-01-16T13:17:09Z</time>
      </trkpt>
      <trkpt lat="45.31772" lon="6.04822">
        <ele>1638.8</ele>
        <time>2021-01-16T13:17:10Z</time>
      </trkpt>
      <trkpt lat="45.31772" lon="6.04822">
        <ele>1638.8</ele>
        <time>2021-01-16T13:17:11Z</time>
      </trkpt>
      <trkpt lat="45.31772" lon="6.04822">
        <ele>1638.8</ele>
        <time>2021-01-16T13:17:12Z</time>
      </trkpt>
      <trkpt lat="45.31772" lon="6.04822">
        <ele>1638.8</ele>
        <time>2021-01-16T13:17:13Z</time>
      </trkpt>
      <trkpt lat="45.31772" lon="6.04822">
        <ele>1638.8</ele>
        <time>2021-01-16T13:17:14Z</time>
      </trkpt>
      <trkpt lat="45.31772" lon="6.04822">
        <ele>1638.8</ele>
        <time>2021-01-16T13:17:15Z</time>
      </trkpt>
      <trkpt lat="45.31772" lon="6.04822">
        <ele>1638.8</ele>
        <time>2021-01-16T13:17:16Z</time>
      </trkpt>
      <trkpt lat="45.31772" lon="6.04822">
        <ele>1638.8</ele>
        <time>2021-01-16T13:17:17Z</time>
      </trkpt>
      <trkpt lat="45.31772" lon="6.04822">
        <ele>1638.8</ele>
        <time>2021-01-16T13:17:18Z</time>
      </trkpt>
      <trkpt lat="45.31772" lon="6.04822">
        <ele>1639</ele>
        <time>2021-01-16T13:17:19Z</time>
      </trkpt>
      <trkpt lat="45.31772" lon="6.04822">
        <ele>1639</ele>
        <time>2021-01-16T13:17:20Z</time>
      </trkpt>
      <trkpt lat="45.31772" lon="6.04822">
        <ele>1639</ele>
        <time>2021-01-16T13:17:21Z</time>
      </trkpt>
      <trkpt lat="45.31772" lon="6.04822">
        <ele>1639</ele>
        <time>2021-01-16T13:17:22Z</time>
      </trkpt>
      <trkpt lat="45.31772" lon="6.04822">
        <ele>1639</ele>
        <time>2021-01-16T13:17:23Z</time>
      </trkpt>
      <trkpt lat="45.31772" lon="6.04822">
        <ele>1639</ele>
        <time>2021-01-16T13:17:24Z</time>
      </trkpt>
      <trkpt lat="45.31772" lon="6.04822">
        <ele>1639</ele>
        <time>2021-01-16T13:17:25Z</time>
      </trkpt>
      <trkpt lat="45.31772" lon="6.04822">
        <ele>1639</ele>
        <time>2021-01-16T13:17:26Z</time>
      </trkpt>
      <trkpt lat="45.31772" lon="6.04822">
        <ele>1639</ele>
        <time>2021-01-16T13:17:27Z</time>
      </trkpt>
      <trkpt lat="45.31772" lon="6.04822">
        <ele>1639</ele>
        <time>2021-01-16T13:17:28Z</time>
      </trkpt>
      <trkpt lat="45.31772" lon="6.04822">
        <ele>1639</ele>
        <time>2021-01-16T13:17:29Z</time>
      </trkpt>
      <trkpt lat="45.31772" lon="6.04822">
        <ele>1639.2</ele>
        <time>2021-01-16T13:17:30Z</time>
      </trkpt>
      <trkpt lat="45.31772" lon="6.04822">
        <ele>1639.2</ele>
        <time>2021-01-16T13:17:31Z</time>
      </trkpt>
      <trkpt lat="45.31772" lon="6.04822">
        <ele>1639.2</ele>
        <time>2021-01-16T13:17:32Z</time>
      </trkpt>
      <trkpt lat="45.31772" lon="6.04822">
        <ele>1639.2</ele>
        <time>2021-01-16T13:17:33Z</time>
      </trkpt>
      <trkpt lat="45.31772" lon="6.04822">
        <ele>1639.2</ele>
        <time>2021-01-16T13:17:34Z</time>
      </trkpt>
      <trkpt lat="45.31772" lon="6.04822">
        <ele>1639.2</ele>
        <time>2021-01-16T13:17:35Z</time>
      </trkpt>
      <trkpt lat="45.31772" lon="6.04822">
        <ele>1639.2</ele>
        <time>2021-01-16T13:17:36Z</time>
      </trkpt>
      <trkpt lat="45.31772" lon="6.04822">
        <ele>1639.2</ele>
        <time>2021-01-16T13:17:37Z</time>
      </trkpt>
      <trkpt lat="45.31772" lon="6.04822">
        <ele>1639.2</ele>
        <time>2021-01-16T13:17:38Z</time>
      </trkpt>
      <trkpt lat="45.31772" lon="6.04822">
        <ele>1639.2</ele>
        <time>2021-01-16T13:17:39Z</time>
      </trkpt>
      <trkpt lat="45.31772" lon="6.04822">
        <ele>1639.2</ele>
        <time>2021-01-16T13:17:40Z</time>
      </trkpt>
      <trkpt lat="45.31772" lon="6.04822">
        <ele>1639.2</ele>
        <time>2021-01-16T13:17:41Z</time>
      </trkpt>
      <trkpt lat="45.31772" lon="6.04822">
        <ele>1639.2</ele>
        <time>2021-01-16T13:17:42Z</time>
      </trkpt>
      <trkpt lat="45.31772" lon="6.04822">
        <ele>1639.2</ele>
        <time>2021-01-16T13:17:43Z</time>
      </trkpt>
      <trkpt lat="45.31772" lon="6.04822">
        <ele>1639.2</ele>
        <time>2021-01-16T13:17:44Z</time>
      </trkpt>
      <trkpt lat="45.31772" lon="6.04822">
        <ele>1639.2</ele>
        <time>2021-01-16T13:17:45Z</time>
      </trkpt>
      <trkpt lat="45.31772" lon="6.04822">
        <ele>1639.2</ele>
        <time>2021-01-16T13:17:46Z</time>
      </trkpt>
      <trkpt lat="45.31772" lon="6.04822">
        <ele>1639.2</ele>
        <time>2021-01-16T13:17:47Z</time>
      </trkpt>
      <trkpt lat="45.31772" lon="6.04822">
        <ele>1639.2</ele>
        <time>2021-01-16T13:17:48Z</time>
      </trkpt>
      <trkpt lat="45.31772" lon="6.04822">
        <ele>1639.4</ele>
        <time>2021-01-16T13:17:49Z</time>
      </trkpt>
      <trkpt lat="45.31772" lon="6.04822">
        <ele>1639.4</ele>
        <time>2021-01-16T13:17:50Z</time>
      </trkpt>
      <trkpt lat="45.31772" lon="6.04822">
        <ele>1639.4</ele>
        <time>2021-01-16T13:17:51Z</time>
      </trkpt>
      <trkpt lat="45.31772" lon="6.04822">
        <ele>1639.4</ele>
        <time>2021-01-16T13:17:52Z</time>
      </trkpt>
      <trkpt lat="45.31772" lon="6.04822">
        <ele>1639.4</ele>
        <time>2021-01-16T13:17:53Z</time>
      </trkpt>
      <trkpt lat="45.31772" lon="6.04822">
        <ele>1639.4</ele>
        <time>2021-01-16T13:17:54Z</time>
      </trkpt>
      <trkpt lat="45.31772" lon="6.04822">
        <ele>1639.4</ele>
        <time>2021-01-16T13:17:55Z</time>
      </trkpt>
      <trkpt lat="45.31772" lon="6.04822">
        <ele>1639.4</ele>
        <time>2021-01-16T13:17:56Z</time>
      </trkpt>
      <trkpt lat="45.31772" lon="6.04822">
        <ele>1639.4</ele>
        <time>2021-01-16T13:17:57Z</time>
      </trkpt>
      <trkpt lat="45.31772" lon="6.04822">
        <ele>1639.4</ele>
        <time>2021-01-16T13:17:58Z</time>
      </trkpt>
      <trkpt lat="45.31772" lon="6.04822">
        <ele>1639.4</ele>
        <time>2021-01-16T13:17:59Z</time>
      </trkpt>
      <trkpt lat="45.31772" lon="6.04822">
        <ele>1639.4</ele>
        <time>2021-01-16T13:18:00Z</time>
      </trkpt>
      <trkpt lat="45.31772" lon="6.04822">
        <ele>1639.6</ele>
        <time>2021-01-16T13:18:01Z</time>
      </trkpt>
      <trkpt lat="45.31772" lon="6.04822">
        <ele>1639.6</ele>
        <time>2021-01-16T13:18:02Z</time>
      </trkpt>
      <trkpt lat="45.31772" lon="6.04822">
        <ele>1639.6</ele>
        <time>2021-01-16T13:18:03Z</time>
      </trkpt>
      <trkpt lat="45.31772" lon="6.04822">
        <ele>1639.6</ele>
        <time>2021-01-16T13:18:04Z</time>
      </trkpt>
      <trkpt lat="45.31772" lon="6.04822">
        <ele>1639.6</ele>
        <time>2021-01-16T13:18:05Z</time>
      </trkpt>
      <trkpt lat="45.31773" lon="6.04821">
        <ele>1639.4</ele>
        <time>2021-01-16T13:18:06Z</time>
      </trkpt>
      <trkpt lat="45.31776" lon="6.04819">
        <ele>1639.2</ele>
        <time>2021-01-16T13:18:07Z</time>
      </trkpt>
      <trkpt lat="45.31778" lon="6.04816">
        <ele>1638.8</ele>
        <time>2021-01-16T13:18:08Z</time>
      </trkpt>
      <trkpt lat="45.31781" lon="6.04813">
        <ele>1638.4</ele>
        <time>2021-01-16T13:18:09Z</time>
      </trkpt>
      <trkpt lat="45.31785" lon="6.04809">
        <ele>1637.8</ele>
        <time>2021-01-16T13:18:10Z</time>
      </trkpt>
      <trkpt lat="45.3179" lon="6.04805">
        <ele>1637</ele>
        <time>2021-01-16T13:18:11Z</time>
      </trkpt>
      <trkpt lat="45.31795" lon="6.04801">
        <ele>1636.4</ele>
        <time>2021-01-16T13:18:12Z</time>
      </trkpt>
      <trkpt lat="45.31799" lon="6.04799">
        <ele>1635.6</ele>
        <time>2021-01-16T13:18:13Z</time>
      </trkpt>
      <trkpt lat="45.318" lon="6.048">
        <ele>1635.2</ele>
        <time>2021-01-16T13:18:14Z</time>
      </trkpt>
      <trkpt lat="45.318" lon="6.048">
        <ele>1635</ele>
        <time>2021-01-16T13:18:15Z</time>
      </trkpt>
      <trkpt lat="45.318" lon="6.048">
        <ele>1634.6</ele>
        <time>2021-01-16T13:18:16Z</time>
      </trkpt>
      <trkpt lat="45.318" lon="6.048">
        <ele>1634.4</ele>
        <time>2021-01-16T13:18:17Z</time>
      </trkpt>
      <trkpt lat="45.318" lon="6.048">
        <ele>1634.2</ele>
        <time>2021-01-16T13:18:18Z</time>
      </trkpt>
      <trkpt lat="45.318" lon="6.048">
        <ele>1634</ele>
        <time>2021-01-16T13:18:19Z</time>
      </trkpt>
      <trkpt lat="45.318" lon="6.048">
        <ele>1634</ele>
        <time>2021-01-16T13:18:20Z</time>
      </trkpt>
      <trkpt lat="45.318" lon="6.048">
        <ele>1633.8</ele>
        <time>2021-01-16T13:18:21Z</time>
      </trkpt>
      <trkpt lat="45.318" lon="6.048">
        <ele>1633.8</ele>
        <time>2021-01-16T13:18:22Z</time>
      </trkpt>
      <trkpt lat="45.318" lon="6.048">
        <ele>1633.8</ele>
        <time>2021-01-16T13:18:23Z</time>
      </trkpt>
      <trkpt lat="45.318" lon="6.048">
        <ele>1633.8</ele>
        <time>2021-01-16T13:18:24Z</time>
      </trkpt>
      <trkpt lat="45.318" lon="6.048">
        <ele>1633.8</ele>
        <time>2021-01-16T13:18:25Z</time>
      </trkpt>
      <trkpt lat="45.318" lon="6.048">
        <ele>1633.8</ele>
        <time>2021-01-16T13:18:26Z</time>
      </trkpt>
      <trkpt lat="45.318" lon="6.048">
        <ele>1633.8</ele>
        <time>2021-01-16T13:18:27Z</time>
      </trkpt>
      <trkpt lat="45.318" lon="6.048">
        <ele>1633.8</ele>
        <time>2021-01-16T13:18:28Z</time>
      </trkpt>
      <trkpt lat="45.318" lon="6.048">
        <ele>1633.8</ele>
        <time>2021-01-16T13:18:29Z</time>
      </trkpt>
      <trkpt lat="45.318" lon="6.048">
        <ele>1633.8</ele>
        <time>2021-01-16T13:18:30Z</time>
      </trkpt>
      <trkpt lat="45.318" lon="6.048">
        <ele>1633.8</ele>
        <time>2021-01-16T13:18:31Z</time>
      </trkpt>
      <trkpt lat="45.318" lon="6.048">
        <ele>1633.8</ele>
        <time>2021-01-16T13:18:32Z</time>
      </trkpt>
      <trkpt lat="45.318" lon="6.048">
        <ele>1633.8</ele>
        <time>2021-01-16T13:18:33Z</time>
      </trkpt>
      <trkpt lat="45.318" lon="6.048">
        <ele>1633.8</ele>
        <time>2021-01-16T13:18:34Z</time>
      </trkpt>
      <trkpt lat="45.318" lon="6.048">
        <ele>1633.8</ele>
        <time>2021-01-16T13:18:35Z</time>
      </trkpt>
      <trkpt lat="45.318" lon="6.048">
        <ele>1633.8</ele>
        <time>2021-01-16T13:18:36Z</time>
      </trkpt>
      <trkpt lat="45.318" lon="6.048">
        <ele>1634</ele>
        <time>2021-01-16T13:18:37Z</time>
      </trkpt>
      <trkpt lat="45.318" lon="6.048">
        <ele>1634</ele>
        <time>2021-01-16T13:18:38Z</time>
      </trkpt>
      <trkpt lat="45.318" lon="6.048">
        <ele>1634</ele>
        <time>2021-01-16T13:18:39Z</time>
      </trkpt>
      <trkpt lat="45.318" lon="6.048">
        <ele>1634</ele>
        <time>2021-01-16T13:18:40Z</time>
      </trkpt>
      <trkpt lat="45.318" lon="6.048">
        <ele>1633.8</ele>
        <time>2021-01-16T13:18:41Z</time>
      </trkpt>
      <trkpt lat="45.318" lon="6.048">
        <ele>1633.8</ele>
        <time>2021-01-16T13:18:42Z</time>
      </trkpt>
      <trkpt lat="45.318" lon="6.048">
        <ele>1634</ele>
        <time>2021-01-16T13:18:43Z</time>
      </trkpt>
      <trkpt lat="45.318" lon="6.048">
        <ele>1633.8</ele>
        <time>2021-01-16T13:18:44Z</time>
      </trkpt>
      <trkpt lat="45.318" lon="6.048">
        <ele>1633.8</ele>
        <time>2021-01-16T13:18:45Z</time>
      </trkpt>
      <trkpt lat="45.318" lon="6.048">
        <ele>1633.8</ele>
        <time>2021-01-16T13:18:46Z</time>
      </trkpt>
      <trkpt lat="45.31802" lon="6.048">
        <ele>1633.6</ele>
        <time>2021-01-16T13:18:47Z</time>
      </trkpt>
      <trkpt lat="45.31802" lon="6.04798">
        <ele>1633.4</ele>
        <time>2021-01-16T13:18:48Z</time>
      </trkpt>
      <trkpt lat="45.31801" lon="6.04795">
        <ele>1632.8</ele>
        <time>2021-01-16T13:18:49Z</time>
      </trkpt>
      <trkpt lat="45.31801" lon="6.0479">
        <ele>1632.2</ele>
        <time>2021-01-16T13:18:50Z</time>
      </trkpt>
      <trkpt lat="45.31803" lon="6.04785">
        <ele>1631.6</ele>
        <time>2021-01-16T13:18:51Z</time>
      </trkpt>
      <trkpt lat="45.31805" lon="6.04781">
        <ele>1630.8</ele>
        <time>2021-01-16T13:18:52Z</time>
      </trkpt>
      <trkpt lat="45.31805" lon="6.04775">
        <ele>1629.6</ele>
        <time>2021-01-16T13:18:53Z</time>
      </trkpt>
      <trkpt lat="45.31805" lon="6.0477">
        <ele>1628.6</ele>
        <time>2021-01-16T13:18:54Z</time>
      </trkpt>
      <trkpt lat="45.31809" lon="6.04764">
        <ele>1627.4</ele>
        <time>2021-01-16T13:18:55Z</time>
      </trkpt>
      <trkpt lat="45.31814" lon="6.0476">
        <ele>1626.2</ele>
        <time>2021-01-16T13:18:56Z</time>
      </trkpt>
      <trkpt lat="45.31818" lon="6.04756">
        <ele>1624.8</ele>
        <time>2021-01-16T13:18:57Z</time>
      </trkpt>
      <trkpt lat="45.3182" lon="6.0475">
        <ele>1623.6</ele>
        <time>2021-01-16T13:18:58Z</time>
      </trkpt>
      <trkpt lat="45.3182" lon="6.04746">
        <ele>1622.4</ele>
        <time>2021-01-16T13:18:59Z</time>
      </trkpt>
      <trkpt lat="45.31822" lon="6.04743">
        <ele>1621.2</ele>
        <time>2021-01-16T13:19:00Z</time>
      </trkpt>
      <trkpt lat="45.31825" lon="6.04741">
        <ele>1620.4</ele>
        <time>2021-01-16T13:19:01Z</time>
      </trkpt>
      <trkpt lat="45.31828" lon="6.04741">
        <ele>1619.6</ele>
        <time>2021-01-16T13:19:02Z</time>
      </trkpt>
      <trkpt lat="45.3183" lon="6.0474">
        <ele>1618.8</ele>
        <time>2021-01-16T13:19:03Z</time>
      </trkpt>
      <trkpt lat="45.31831" lon="6.04737">
        <ele>1618</ele>
        <time>2021-01-16T13:19:04Z</time>
      </trkpt>
      <trkpt lat="45.31832" lon="6.04734">
        <ele>1617.2</ele>
        <time>2021-01-16T13:19:05Z</time>
      </trkpt>
      <trkpt lat="45.31831" lon="6.04732">
        <ele>1616.6</ele>
        <time>2021-01-16T13:19:06Z</time>
      </trkpt>
      <trkpt lat="45.31831" lon="6.04731">
        <ele>1616</ele>
        <time>2021-01-16T13:19:07Z</time>
      </trkpt>
      <trkpt lat="45.31831" lon="6.04731">
        <ele>1615.6</ele>
        <time>2021-01-16T13:19:08Z</time>
      </trkpt>
      <trkpt lat="45.31831" lon="6.04731">
        <ele>1615.2</ele>
        <time>2021-01-16T13:19:09Z</time>
      </trkpt>
      <trkpt lat="45.31831" lon="6.04731">
        <ele>1615</ele>
        <time>2021-01-16T13:19:10Z</time>
      </trkpt>
      <trkpt lat="45.31831" lon="6.04731">
        <ele>1614.8</ele>
        <time>2021-01-16T13:19:11Z</time>
      </trkpt>
      <trkpt lat="45.31831" lon="6.04731">
        <ele>1614.6</ele>
        <time>2021-01-16T13:19:12Z</time>
      </trkpt>
      <trkpt lat="45.31831" lon="6.04731">
        <ele>1614.6</ele>
        <time>2021-01-16T13:19:13Z</time>
      </trkpt>
      <trkpt lat="45.31831" lon="6.0473">
        <ele>1614.2</ele>
        <time>2021-01-16T13:19:14Z</time>
      </trkpt>
      <trkpt lat="45.31829" lon="6.04727">
        <ele>1613.8</ele>
        <time>2021-01-16T13:19:15Z</time>
      </trkpt>
      <trkpt lat="45.31831" lon="6.04724">
        <ele>1613</ele>
        <time>2021-01-16T13:19:16Z</time>
      </trkpt>
      <trkpt lat="45.31833" lon="6.04722">
        <ele>1612.2</ele>
        <time>2021-01-16T13:19:17Z</time>
      </trkpt>
      <trkpt lat="45.31836" lon="6.0472">
        <ele>1611.2</ele>
        <time>2021-01-16T13:19:18Z</time>
      </trkpt>
      <trkpt lat="45.31836" lon="6.04716">
        <ele>1610.2</ele>
        <time>2021-01-16T13:19:19Z</time>
      </trkpt>
      <trkpt lat="45.31834" lon="6.04712">
        <ele>1609.2</ele>
        <time>2021-01-16T13:19:20Z</time>
      </trkpt>
      <trkpt lat="45.31833" lon="6.04709">
        <ele>1607.8</ele>
        <time>2021-01-16T13:19:21Z</time>
      </trkpt>
      <trkpt lat="45.31834" lon="6.04706">
        <ele>1606.4</ele>
        <time>2021-01-16T13:19:22Z</time>
      </trkpt>
      <trkpt lat="45.31836" lon="6.04703">
        <ele>1605.2</ele>
        <time>2021-01-16T13:19:23Z</time>
      </trkpt>
      <trkpt lat="45.31837" lon="6.04698">
        <ele>1603.6</ele>
        <time>2021-01-16T13:19:24Z</time>
      </trkpt>
      <trkpt lat="45.31838" lon="6.04694">
        <ele>1602.2</ele>
        <time>2021-01-16T13:19:25Z</time>
      </trkpt>
      <trkpt lat="45.31841" lon="6.04691">
        <ele>1600.6</ele>
        <time>2021-01-16T13:19:26Z</time>
      </trkpt>
      <trkpt lat="45.31841" lon="6.04688">
        <ele>1599.2</ele>
        <time>2021-01-16T13:19:27Z</time>
      </trkpt>
      <trkpt lat="45.3184" lon="6.04684">
        <ele>1597.6</ele>
        <time>2021-01-16T13:19:28Z</time>
      </trkpt>
      <trkpt lat="45.31841" lon="6.04681">
        <ele>1596.2</ele>
        <time>2021-01-16T13:19:29Z</time>
      </trkpt>
      <trkpt lat="45.31844" lon="6.04679">
        <ele>1595</ele>
        <time>2021-01-16T13:19:30Z</time>
      </trkpt>
      <trkpt lat="45.31844" lon="6.04676">
        <ele>1593.6</ele>
        <time>2021-01-16T13:19:31Z</time>
      </trkpt>
      <trkpt lat="45.31843" lon="6.04672">
        <ele>1592</ele>
        <time>2021-01-16T13:19:32Z</time>
      </trkpt>
      <trkpt lat="45.31842" lon="6.04668">
        <ele>1590.8</ele>
        <time>2021-01-16T13:19:33Z</time>
      </trkpt>
      <trkpt lat="45.31843" lon="6.04665">
        <ele>1589.2</ele>
        <time>2021-01-16T13:19:34Z</time>
      </trkpt>
      <trkpt lat="45.31845" lon="6.04664">
        <ele>1588</ele>
        <time>2021-01-16T13:19:35Z</time>
      </trkpt>
      <trkpt lat="45.31846" lon="6.04661">
        <ele>1586.8</ele>
        <time>2021-01-16T13:19:36Z</time>
      </trkpt>
      <trkpt lat="45.31844" lon="6.04655">
        <ele>1585.2</ele>
        <time>2021-01-16T13:19:37Z</time>
      </trkpt>
      <trkpt lat="45.31844" lon="6.0465">
        <ele>1583.8</ele>
        <time>2021-01-16T13:19:38Z</time>
      </trkpt>
      <trkpt lat="45.31847" lon="6.04647">
        <ele>1582.2</ele>
        <time>2021-01-16T13:19:39Z</time>
      </trkpt>
      <trkpt lat="45.31849" lon="6.04643">
        <ele>1581</ele>
        <time>2021-01-16T13:19:40Z</time>
      </trkpt>
      <trkpt lat="45.31849" lon="6.04638">
        <ele>1579.4</ele>
        <time>2021-01-16T13:19:41Z</time>
      </trkpt>
      <trkpt lat="45.31847" lon="6.04634">
        <ele>1578</ele>
        <time>2021-01-16T13:19:42Z</time>
      </trkpt>
      <trkpt lat="45.31844" lon="6.04631">
        <ele>1576.6</ele>
        <time>2021-01-16T13:19:43Z</time>
      </trkpt>
      <trkpt lat="45.3184" lon="6.04627">
        <ele>1575.2</ele>
        <time>2021-01-16T13:19:44Z</time>
      </trkpt>
      <trkpt lat="45.31838" lon="6.04621">
        <ele>1573.8</ele>
        <time>2021-01-16T13:19:45Z</time>
      </trkpt>
      <trkpt lat="45.31841" lon="6.04616">
        <ele>1572.4</ele>
        <time>2021-01-16T13:19:46Z</time>
      </trkpt>
      <trkpt lat="45.31844" lon="6.04611">
        <ele>1571</ele>
        <time>2021-01-16T13:19:47Z</time>
      </trkpt>
      <trkpt lat="45.31843" lon="6.04606">
        <ele>1569.6</ele>
        <time>2021-01-16T13:19:48Z</time>
      </trkpt>
      <trkpt lat="45.31839" lon="6.04602">
        <ele>1568</ele>
        <time>2021-01-16T13:19:49Z</time>
      </trkpt>
      <trkpt lat="45.31835" lon="6.04598">
        <ele>1566.4</ele>
        <time>2021-01-16T13:19:50Z</time>
      </trkpt>
      <trkpt lat="45.31835" lon="6.04591">
        <ele>1564.6</ele>
        <time>2021-01-16T13:19:51Z</time>
      </trkpt>
      <trkpt lat="45.31838" lon="6.04583">
        <ele>1563</ele>
        <time>2021-01-16T13:19:52Z</time>
      </trkpt>
      <trkpt lat="45.31842" lon="6.04575">
        <ele>1561.4</ele>
        <time>2021-01-16T13:19:53Z</time>
      </trkpt>
      <trkpt lat="45.31845" lon="6.04568">
        <ele>1560</ele>
        <time>2021-01-16T13:19:54Z</time>
      </trkpt>
      <trkpt lat="45.31848" lon="6.04561">
        <ele>1559</ele>
        <time>2021-01-16T13:19:55Z</time>
      </trkpt>
      <trkpt lat="45.3185" lon="6.04556">
        <ele>1558</ele>
        <time>2021-01-16T13:19:56Z</time>
      </trkpt>
      <trkpt lat="45.31852" lon="6.04552">
        <ele>1557.2</ele>
        <time>2021-01-16T13:19:57Z</time>
      </trkpt>
      <trkpt lat="45.31853" lon="6.04547">
        <ele>1556.6</ele>
        <time>2021-01-16T13:19:58Z</time>
      </trkpt>
      <trkpt lat="45.31853" lon="6.04543">
        <ele>1556</ele>
        <time>2021-01-16T13:19:59Z</time>
      </trkpt>
      <trkpt lat="45.31853" lon="6.04536">
        <ele>1555.4</ele>
        <time>2021-01-16T13:20:00Z</time>
      </trkpt>
      <trkpt lat="45.31853" lon="6.04529">
        <ele>1554.6</ele>
        <time>2021-01-16T13:20:01Z</time>
      </trkpt>
      <trkpt lat="45.3185" lon="6.04523">
        <ele>1553.8</ele>
        <time>2021-01-16T13:20:02Z</time>
      </trkpt>
      <trkpt lat="45.31846" lon="6.04517">
        <ele>1552.8</ele>
        <time>2021-01-16T13:20:03Z</time>
      </trkpt>
      <trkpt lat="45.31841" lon="6.0451">
        <ele>1551.6</ele>
        <time>2021-01-16T13:20:04Z</time>
      </trkpt>
      <trkpt lat="45.31841" lon="6.04504">
        <ele>1550.2</ele>
        <time>2021-01-16T13:20:05Z</time>
      </trkpt>
      <trkpt lat="45.31842" lon="6.04501">
        <ele>1549</ele>
        <time>2021-01-16T13:20:06Z</time>
      </trkpt>
      <trkpt lat="45.31842" lon="6.04501">
        <ele>1548</ele>
        <time>2021-01-16T13:20:07Z</time>
      </trkpt>
      <trkpt lat="45.31842" lon="6.045">
        <ele>1547.2</ele>
        <time>2021-01-16T13:20:08Z</time>
      </trkpt>
      <trkpt lat="45.31842" lon="6.045">
        <ele>1546.6</ele>
        <time>2021-01-16T13:20:09Z</time>
      </trkpt>
      <trkpt lat="45.31842" lon="6.045">
        <ele>1546.2</ele>
        <time>2021-01-16T13:20:10Z</time>
      </trkpt>
      <trkpt lat="45.31842" lon="6.045">
        <ele>1546</ele>
        <time>2021-01-16T13:20:11Z</time>
      </trkpt>
      <trkpt lat="45.31842" lon="6.045">
        <ele>1545.6</ele>
        <time>2021-01-16T13:20:12Z</time>
      </trkpt>
      <trkpt lat="45.31842" lon="6.045">
        <ele>1545.4</ele>
        <time>2021-01-16T13:20:13Z</time>
      </trkpt>
      <trkpt lat="45.31842" lon="6.045">
        <ele>1545.4</ele>
        <time>2021-01-16T13:20:14Z</time>
      </trkpt>
      <trkpt lat="45.31842" lon="6.045">
        <ele>1545.2</ele>
        <time>2021-01-16T13:20:15Z</time>
      </trkpt>
      <trkpt lat="45.31842" lon="6.045">
        <ele>1545.2</ele>
        <time>2021-01-16T13:20:16Z</time>
      </trkpt>
      <trkpt lat="45.31842" lon="6.045">
        <ele>1545</ele>
        <time>2021-01-16T13:20:17Z</time>
      </trkpt>
      <trkpt lat="45.31842" lon="6.045">
        <ele>1545</ele>
        <time>2021-01-16T13:20:18Z</time>
      </trkpt>
      <trkpt lat="45.31842" lon="6.045">
        <ele>1545</ele>
        <time>2021-01-16T13:20:19Z</time>
      </trkpt>
      <trkpt lat="45.31842" lon="6.045">
        <ele>1545</ele>
        <time>2021-01-16T13:20:20Z</time>
      </trkpt>
      <trkpt lat="45.31842" lon="6.045">
        <ele>1545</ele>
        <time>2021-01-16T13:20:21Z</time>
      </trkpt>
      <trkpt lat="45.31842" lon="6.045">
        <ele>1545</ele>
        <time>2021-01-16T13:20:22Z</time>
      </trkpt>
      <trkpt lat="45.31842" lon="6.045">
        <ele>1545</ele>
        <time>2021-01-16T13:20:23Z</time>
      </trkpt>
      <trkpt lat="45.31842" lon="6.045">
        <ele>1545</ele>
        <time>2021-01-16T13:20:24Z</time>
      </trkpt>
      <trkpt lat="45.31842" lon="6.045">
        <ele>1545</ele>
        <time>2021-01-16T13:20:25Z</time>
      </trkpt>
      <trkpt lat="45.31842" lon="6.045">
        <ele>1545</ele>
        <time>2021-01-16T13:20:26Z</time>
      </trkpt>
      <trkpt lat="45.31842" lon="6.045">
        <ele>1545</ele>
        <time>2021-01-16T13:20:27Z</time>
      </trkpt>
      <trkpt lat="45.31842" lon="6.045">
        <ele>1545</ele>
        <time>2021-01-16T13:20:28Z</time>
      </trkpt>
      <trkpt lat="45.31842" lon="6.045">
        <ele>1545</ele>
        <time>2021-01-16T13:20:29Z</time>
      </trkpt>
      <trkpt lat="45.31842" lon="6.045">
        <ele>1545</ele>
        <time>2021-01-16T13:20:30Z</time>
      </trkpt>
      <trkpt lat="45.31842" lon="6.045">
        <ele>1545</ele>
        <time>2021-01-16T13:20:31Z</time>
      </trkpt>
      <trkpt lat="45.31842" lon="6.045">
        <ele>1545</ele>
        <time>2021-01-16T13:20:32Z</time>
      </trkpt>
      <trkpt lat="45.31842" lon="6.045">
        <ele>1545</ele>
        <time>2021-01-16T13:20:33Z</time>
      </trkpt>
      <trkpt lat="45.31842" lon="6.045">
        <ele>1545.2</ele>
        <time>2021-01-16T13:20:34Z</time>
      </trkpt>
      <trkpt lat="45.31842" lon="6.045">
        <ele>1545.2</ele>
        <time>2021-01-16T13:20:35Z</time>
      </trkpt>
      <trkpt lat="45.31842" lon="6.045">
        <ele>1545.2</ele>
        <time>2021-01-16T13:20:36Z</time>
      </trkpt>
      <trkpt lat="45.31842" lon="6.045">
        <ele>1545.2</ele>
        <time>2021-01-16T13:20:37Z</time>
      </trkpt>
      <trkpt lat="45.31842" lon="6.045">
        <ele>1545.2</ele>
        <time>2021-01-16T13:20:38Z</time>
      </trkpt>
      <trkpt lat="45.31842" lon="6.045">
        <ele>1545.2</ele>
        <time>2021-01-16T13:20:39Z</time>
      </trkpt>
      <trkpt lat="45.31842" lon="6.045">
        <ele>1545.2</ele>
        <time>2021-01-16T13:20:40Z</time>
      </trkpt>
      <trkpt lat="45.31842" lon="6.045">
        <ele>1545.2</ele>
        <time>2021-01-16T13:20:41Z</time>
      </trkpt>
      <trkpt lat="45.31842" lon="6.045">
        <ele>1545.2</ele>
        <time>2021-01-16T13:20:42Z</time>
      </trkpt>
      <trkpt lat="45.31842" lon="6.045">
        <ele>1545.2</ele>
        <time>2021-01-16T13:20:43Z</time>
      </trkpt>
      <trkpt lat="45.31842" lon="6.045">
        <ele>1545.2</ele>
        <time>2021-01-16T13:20:44Z</time>
      </trkpt>
      <trkpt lat="45.31842" lon="6.045">
        <ele>1545.2</ele>
        <time>2021-01-16T13:20:45Z</time>
      </trkpt>
      <trkpt lat="45.31842" lon="6.045">
        <ele>1545.2</ele>
        <time>2021-01-16T13:20:46Z</time>
      </trkpt>
      <trkpt lat="45.31842" lon="6.045">
        <ele>1545.4</ele>
        <time>2021-01-16T13:20:47Z</time>
      </trkpt>
      <trkpt lat="45.31842" lon="6.045">
        <ele>1545.4</ele>
        <time>2021-01-16T13:20:48Z</time>
      </trkpt>
      <trkpt lat="45.31842" lon="6.045">
        <ele>1545.4</ele>
        <time>2021-01-16T13:20:49Z</time>
      </trkpt>
      <trkpt lat="45.31842" lon="6.045">
        <ele>1545.4</ele>
        <time>2021-01-16T13:20:50Z</time>
      </trkpt>
      <trkpt lat="45.31842" lon="6.045">
        <ele>1545.4</ele>
        <time>2021-01-16T13:20:51Z</time>
      </trkpt>
      <trkpt lat="45.31842" lon="6.045">
        <ele>1545.4</ele>
        <time>2021-01-16T13:20:52Z</time>
      </trkpt>
      <trkpt lat="45.31842" lon="6.045">
        <ele>1545.4</ele>
        <time>2021-01-16T13:20:53Z</time>
      </trkpt>
      <trkpt lat="45.31842" lon="6.045">
        <ele>1545.4</ele>
        <time>2021-01-16T13:20:54Z</time>
      </trkpt>
      <trkpt lat="45.31842" lon="6.045">
        <ele>1545.4</ele>
        <time>2021-01-16T13:20:55Z</time>
      </trkpt>
      <trkpt lat="45.31842" lon="6.045">
        <ele>1545.4</ele>
        <time>2021-01-16T13:20:56Z</time>
      </trkpt>
      <trkpt lat="45.31842" lon="6.045">
        <ele>1545.6</ele>
        <time>2021-01-16T13:20:57Z</time>
      </trkpt>
      <trkpt lat="45.31842" lon="6.045">
        <ele>1545.6</ele>
        <time>2021-01-16T13:20:58Z</time>
      </trkpt>
      <trkpt lat="45.31842" lon="6.045">
        <ele>1545.6</ele>
        <time>2021-01-16T13:20:59Z</time>
      </trkpt>
      <trkpt lat="45.31842" lon="6.045">
        <ele>1545.6</ele>
        <time>2021-01-16T13:21:00Z</time>
      </trkpt>
      <trkpt lat="45.31842" lon="6.045">
        <ele>1545.6</ele>
        <time>2021-01-16T13:21:01Z</time>
      </trkpt>
      <trkpt lat="45.31842" lon="6.045">
        <ele>1545.6</ele>
        <time>2021-01-16T13:21:02Z</time>
      </trkpt>
      <trkpt lat="45.31842" lon="6.045">
        <ele>1545.6</ele>
        <time>2021-01-16T13:21:03Z</time>
      </trkpt>
      <trkpt lat="45.31842" lon="6.045">
        <ele>1545.6</ele>
        <time>2021-01-16T13:21:04Z</time>
      </trkpt>
      <trkpt lat="45.31842" lon="6.045">
        <ele>1545.6</ele>
        <time>2021-01-16T13:21:05Z</time>
      </trkpt>
      <trkpt lat="45.31842" lon="6.045">
        <ele>1545.6</ele>
        <time>2021-01-16T13:21:06Z</time>
      </trkpt>
      <trkpt lat="45.31842" lon="6.045">
        <ele>1545.6</ele>
        <time>2021-01-16T13:21:07Z</time>
      </trkpt>
      <trkpt lat="45.31842" lon="6.045">
        <ele>1545.8</ele>
        <time>2021-01-16T13:21:08Z</time>
      </trkpt>
      <trkpt lat="45.31842" lon="6.045">
        <ele>1545.8</ele>
        <time>2021-01-16T13:21:09Z</time>
      </trkpt>
      <trkpt lat="45.31842" lon="6.045">
        <ele>1545.8</ele>
        <time>2021-01-16T13:21:10Z</time>
      </trkpt>
      <trkpt lat="45.31842" lon="6.045">
        <ele>1545.8</ele>
        <time>2021-01-16T13:21:11Z</time>
      </trkpt>
      <trkpt lat="45.31842" lon="6.045">
        <ele>1545.8</ele>
        <time>2021-01-16T13:21:12Z</time>
      </trkpt>
      <trkpt lat="45.31842" lon="6.045">
        <ele>1545.8</ele>
        <time>2021-01-16T13:21:13Z</time>
      </trkpt>
      <trkpt lat="45.31842" lon="6.045">
        <ele>1545.8</ele>
        <time>2021-01-16T13:21:14Z</time>
      </trkpt>
      <trkpt lat="45.31842" lon="6.045">
        <ele>1545.8</ele>
        <time>2021-01-16T13:21:15Z</time>
      </trkpt>
      <trkpt lat="45.31842" lon="6.045">
        <ele>1545.8</ele>
        <time>2021-01-16T13:21:16Z</time>
      </trkpt>
      <trkpt lat="45.31842" lon="6.045">
        <ele>1545.8</ele>
        <time>2021-01-16T13:21:17Z</time>
      </trkpt>
      <trkpt lat="45.31842" lon="6.045">
        <ele>1546</ele>
        <time>2021-01-16T13:21:18Z</time>
      </trkpt>
      <trkpt lat="45.31842" lon="6.045">
        <ele>1546</ele>
        <time>2021-01-16T13:21:19Z</time>
      </trkpt>
      <trkpt lat="45.31842" lon="6.045">
        <ele>1546</ele>
        <time>2021-01-16T13:21:20Z</time>
      </trkpt>
      <trkpt lat="45.31842" lon="6.045">
        <ele>1546</ele>
        <time>2021-01-16T13:21:21Z</time>
      </trkpt>
      <trkpt lat="45.31842" lon="6.045">
        <ele>1546</ele>
        <time>2021-01-16T13:21:22Z</time>
      </trkpt>
      <trkpt lat="45.31842" lon="6.045">
        <ele>1546.2</ele>
        <time>2021-01-16T13:21:23Z</time>
      </trkpt>
      <trkpt lat="45.31842" lon="6.045">
        <ele>1546.2</ele>
        <time>2021-01-16T13:21:24Z</time>
      </trkpt>
      <trkpt lat="45.31842" lon="6.045">
        <ele>1546.2</ele>
        <time>2021-01-16T13:21:25Z</time>
      </trkpt>
      <trkpt lat="45.31842" lon="6.045">
        <ele>1546.2</ele>
        <time>2021-01-16T13:21:26Z</time>
      </trkpt>
      <trkpt lat="45.31842" lon="6.045">
        <ele>1546.2</ele>
        <time>2021-01-16T13:21:27Z</time>
      </trkpt>
      <trkpt lat="45.31842" lon="6.045">
        <ele>1546.2</ele>
        <time>2021-01-16T13:21:28Z</time>
      </trkpt>
      <trkpt lat="45.31842" lon="6.045">
        <ele>1546.2</ele>
        <time>2021-01-16T13:21:29Z</time>
      </trkpt>
      <trkpt lat="45.31842" lon="6.045">
        <ele>1546</ele>
        <time>2021-01-16T13:21:30Z</time>
      </trkpt>
      <trkpt lat="45.31843" lon="6.04497">
        <ele>1546</ele>
        <time>2021-01-16T13:21:31Z</time>
      </trkpt>
      <trkpt lat="45.31842" lon="6.04494">
        <ele>1545.8</ele>
        <time>2021-01-16T13:21:32Z</time>
      </trkpt>
      <trkpt lat="45.31841" lon="6.0449">
        <ele>1545.6</ele>
        <time>2021-01-16T13:21:33Z</time>
      </trkpt>
      <trkpt lat="45.31839" lon="6.04485">
        <ele>1545.2</ele>
        <time>2021-01-16T13:21:34Z</time>
      </trkpt>
      <trkpt lat="45.31838" lon="6.0448">
        <ele>1544.6</ele>
        <time>2021-01-16T13:21:35Z</time>
      </trkpt>
      <trkpt lat="45.31837" lon="6.04475">
        <ele>1544.2</ele>
        <time>2021-01-16T13:21:36Z</time>
      </trkpt>
      <trkpt lat="45.31838" lon="6.04469">
        <ele>1543.8</ele>
        <time>2021-01-16T13:21:37Z</time>
      </trkpt>
      <trkpt lat="45.31839" lon="6.04464">
        <ele>1543.2</ele>
        <time>2021-01-16T13:21:38Z</time>
      </trkpt>
      <trkpt lat="45.31842" lon="6.0446">
        <ele>1542.8</ele>
        <time>2021-01-16T13:21:39Z</time>
      </trkpt>
      <trkpt lat="45.31845" lon="6.04457">
        <ele>1542.4</ele>
        <time>2021-01-16T13:21:40Z</time>
      </trkpt>
      <trkpt lat="45.31848" lon="6.04455">
        <ele>1541.8</ele>
        <time>2021-01-16T13:21:41Z</time>
      </trkpt>
      <trkpt lat="45.3185" lon="6.04452">
        <ele>1541.2</ele>
        <time>2021-01-16T13:21:42Z</time>
      </trkpt>
      <trkpt lat="45.31853" lon="6.0445">
        <ele>1540.8</ele>
        <time>2021-01-16T13:21:43Z</time>
      </trkpt>
      <trkpt lat="45.31856" lon="6.04449">
        <ele>1540.4</ele>
        <time>2021-01-16T13:21:44Z</time>
      </trkpt>
      <trkpt lat="45.3186" lon="6.04448">
        <ele>1540</ele>
        <time>2021-01-16T13:21:45Z</time>
      </trkpt>
      <trkpt lat="45.31863" lon="6.04447">
        <ele>1539.6</ele>
        <time>2021-01-16T13:21:46Z</time>
      </trkpt>
      <trkpt lat="45.31866" lon="6.04446">
        <ele>1539.2</ele>
        <time>2021-01-16T13:21:47Z</time>
      </trkpt>
      <trkpt lat="45.3187" lon="6.04445">
        <ele>1538.8</ele>
        <time>2021-01-16T13:21:48Z</time>
      </trkpt>
      <trkpt lat="45.31874" lon="6.04443">
        <ele>1538.2</ele>
        <time>2021-01-16T13:21:49Z</time>
      </trkpt>
      <trkpt lat="45.31877" lon="6.04442">
        <ele>1537.6</ele>
        <time>2021-01-16T13:21:50Z</time>
      </trkpt>
      <trkpt lat="45.31881" lon="6.0444">
        <ele>1537</ele>
        <time>2021-01-16T13:21:51Z</time>
      </trkpt>
      <trkpt lat="45.31886" lon="6.04438">
        <ele>1536.4</ele>
        <time>2021-01-16T13:21:52Z</time>
      </trkpt>
      <trkpt lat="45.3189" lon="6.04435">
        <ele>1535.6</ele>
        <time>2021-01-16T13:21:53Z</time>
      </trkpt>
      <trkpt lat="45.31895" lon="6.04433">
        <ele>1535.2</ele>
        <time>2021-01-16T13:21:54Z</time>
      </trkpt>
      <trkpt lat="45.31899" lon="6.04431">
        <ele>1534.4</ele>
        <time>2021-01-16T13:21:55Z</time>
      </trkpt>
      <trkpt lat="45.31904" lon="6.04428">
        <ele>1533.6</ele>
        <time>2021-01-16T13:21:56Z</time>
      </trkpt>
      <trkpt lat="45.31909" lon="6.04425">
        <ele>1533.2</ele>
        <time>2021-01-16T13:21:57Z</time>
      </trkpt>
      <trkpt lat="45.31913" lon="6.04423">
        <ele>1532.6</ele>
        <time>2021-01-16T13:21:58Z</time>
      </trkpt>
      <trkpt lat="45.31917" lon="6.0442">
        <ele>1532</ele>
        <time>2021-01-16T13:21:59Z</time>
      </trkpt>
      <trkpt lat="45.31921" lon="6.04418">
        <ele>1531.6</ele>
        <time>2021-01-16T13:22:00Z</time>
      </trkpt>
      <trkpt lat="45.31926" lon="6.04415">
        <ele>1531</ele>
        <time>2021-01-16T13:22:01Z</time>
      </trkpt>
      <trkpt lat="45.3193" lon="6.04412">
        <ele>1530.4</ele>
        <time>2021-01-16T13:22:02Z</time>
      </trkpt>
      <trkpt lat="45.31934" lon="6.04409">
        <ele>1530</ele>
        <time>2021-01-16T13:22:03Z</time>
      </trkpt>
      <trkpt lat="45.31939" lon="6.04406">
        <ele>1529.6</ele>
        <time>2021-01-16T13:22:04Z</time>
      </trkpt>
      <trkpt lat="45.31943" lon="6.04403">
        <ele>1528.8</ele>
        <time>2021-01-16T13:22:05Z</time>
      </trkpt>
      <trkpt lat="45.31948" lon="6.044">
        <ele>1528.4</ele>
        <time>2021-01-16T13:22:06Z</time>
      </trkpt>
      <trkpt lat="45.31954" lon="6.04398">
        <ele>1527.6</ele>
        <time>2021-01-16T13:22:07Z</time>
      </trkpt>
      <trkpt lat="45.31959" lon="6.04395">
        <ele>1527</ele>
        <time>2021-01-16T13:22:08Z</time>
      </trkpt>
      <trkpt lat="45.31964" lon="6.04394">
        <ele>1526.4</ele>
        <time>2021-01-16T13:22:09Z</time>
      </trkpt>
      <trkpt lat="45.31968" lon="6.04394">
        <ele>1525.8</ele>
        <time>2021-01-16T13:22:10Z</time>
      </trkpt>
      <trkpt lat="45.31973" lon="6.04394">
        <ele>1525.2</ele>
        <time>2021-01-16T13:22:11Z</time>
      </trkpt>
      <trkpt lat="45.31978" lon="6.04394">
        <ele>1524.8</ele>
        <time>2021-01-16T13:22:12Z</time>
      </trkpt>
      <trkpt lat="45.31982" lon="6.04396">
        <ele>1524.4</ele>
        <time>2021-01-16T13:22:13Z</time>
      </trkpt>
      <trkpt lat="45.31987" lon="6.04397">
        <ele>1523.8</ele>
        <time>2021-01-16T13:22:14Z</time>
      </trkpt>
      <trkpt lat="45.3199" lon="6.04399">
        <ele>1523.4</ele>
        <time>2021-01-16T13:22:15Z</time>
      </trkpt>
      <trkpt lat="45.31994" lon="6.04401">
        <ele>1523.2</ele>
        <time>2021-01-16T13:22:16Z</time>
      </trkpt>
      <trkpt lat="45.31997" lon="6.04403">
        <ele>1522.8</ele>
        <time>2021-01-16T13:22:17Z</time>
      </trkpt>
      <trkpt lat="45.32" lon="6.04404">
        <ele>1522.6</ele>
        <time>2021-01-16T13:22:18Z</time>
      </trkpt>
      <trkpt lat="45.32003" lon="6.04406">
        <ele>1522.2</ele>
        <time>2021-01-16T13:22:19Z</time>
      </trkpt>
      <trkpt lat="45.32006" lon="6.04407">
        <ele>1521.8</ele>
        <time>2021-01-16T13:22:20Z</time>
      </trkpt>
      <trkpt lat="45.3201" lon="6.04409">
        <ele>1521.6</ele>
        <time>2021-01-16T13:22:21Z</time>
      </trkpt>
      <trkpt lat="45.32014" lon="6.04411">
        <ele>1521.2</ele>
        <time>2021-01-16T13:22:22Z</time>
      </trkpt>
      <trkpt lat="45.32018" lon="6.04414">
        <ele>1520.8</ele>
        <time>2021-01-16T13:22:23Z</time>
      </trkpt>
      <trkpt lat="45.32023" lon="6.04417">
        <ele>1520.4</ele>
        <time>2021-01-16T13:22:24Z</time>
      </trkpt>
      <trkpt lat="45.32027" lon="6.04421">
        <ele>1520</ele>
        <time>2021-01-16T13:22:25Z</time>
      </trkpt>
      <trkpt lat="45.32031" lon="6.04424">
        <ele>1519.4</ele>
        <time>2021-01-16T13:22:26Z</time>
      </trkpt>
      <trkpt lat="45.32035" lon="6.04428">
        <ele>1519</ele>
        <time>2021-01-16T13:22:27Z</time>
      </trkpt>
      <trkpt lat="45.32039" lon="6.0443">
        <ele>1518.4</ele>
        <time>2021-01-16T13:22:28Z</time>
      </trkpt>
      <trkpt lat="45.32043" lon="6.04432">
        <ele>1517.8</ele>
        <time>2021-01-16T13:22:29Z</time>
      </trkpt>
      <trkpt lat="45.32047" lon="6.04432">
        <ele>1517.2</ele>
        <time>2021-01-16T13:22:30Z</time>
      </trkpt>
      <trkpt lat="45.32051" lon="6.04432">
        <ele>1516.6</ele>
        <time>2021-01-16T13:22:31Z</time>
      </trkpt>
      <trkpt lat="45.32054" lon="6.04431">
        <ele>1516.2</ele>
        <time>2021-01-16T13:22:32Z</time>
      </trkpt>
      <trkpt lat="45.32057" lon="6.0443">
        <ele>1515.8</ele>
        <time>2021-01-16T13:22:33Z</time>
      </trkpt>
      <trkpt lat="45.3206" lon="6.04428">
        <ele>1515.6</ele>
        <time>2021-01-16T13:22:34Z</time>
      </trkpt>
      <trkpt lat="45.32062" lon="6.04426">
        <ele>1515.2</ele>
        <time>2021-01-16T13:22:35Z</time>
      </trkpt>
      <trkpt lat="45.32065" lon="6.04424">
        <ele>1514.8</ele>
        <time>2021-01-16T13:22:36Z</time>
      </trkpt>
      <trkpt lat="45.32068" lon="6.04422">
        <ele>1514.4</ele>
        <time>2021-01-16T13:22:37Z</time>
      </trkpt>
      <trkpt lat="45.32072" lon="6.04419">
        <ele>1514</ele>
        <time>2021-01-16T13:22:38Z</time>
      </trkpt>
      <trkpt lat="45.32076" lon="6.04417">
        <ele>1513.6</ele>
        <time>2021-01-16T13:22:39Z</time>
      </trkpt>
      <trkpt lat="45.32081" lon="6.04415">
        <ele>1513</ele>
        <time>2021-01-16T13:22:40Z</time>
      </trkpt>
      <trkpt lat="45.32086" lon="6.04414">
        <ele>1512.4</ele>
        <time>2021-01-16T13:22:41Z</time>
      </trkpt>
      <trkpt lat="45.32091" lon="6.04415">
        <ele>1511.8</ele>
        <time>2021-01-16T13:22:42Z</time>
      </trkpt>
      <trkpt lat="45.32097" lon="6.04417">
        <ele>1511.2</ele>
        <time>2021-01-16T13:22:43Z</time>
      </trkpt>
      <trkpt lat="45.32102" lon="6.04419">
        <ele>1510.6</ele>
        <time>2021-01-16T13:22:44Z</time>
      </trkpt>
      <trkpt lat="45.32107" lon="6.0442">
        <ele>1509.8</ele>
        <time>2021-01-16T13:22:45Z</time>
      </trkpt>
      <trkpt lat="45.32111" lon="6.04421">
        <ele>1508.8</ele>
        <time>2021-01-16T13:22:46Z</time>
      </trkpt>
      <trkpt lat="45.32116" lon="6.04423">
        <ele>1507.8</ele>
        <time>2021-01-16T13:22:47Z</time>
      </trkpt>
      <trkpt lat="45.32119" lon="6.04425">
        <ele>1507</ele>
        <time>2021-01-16T13:22:48Z</time>
      </trkpt>
      <trkpt lat="45.32122" lon="6.04427">
        <ele>1506.2</ele>
        <time>2021-01-16T13:22:49Z</time>
      </trkpt>
      <trkpt lat="45.32124" lon="6.04426">
        <ele>1505.6</ele>
        <time>2021-01-16T13:22:50Z</time>
      </trkpt>
      <trkpt lat="45.32124" lon="6.04426">
        <ele>1505.2</ele>
        <time>2021-01-16T13:22:51Z</time>
      </trkpt>
      <trkpt lat="45.32124" lon="6.04426">
        <ele>1504.8</ele>
        <time>2021-01-16T13:22:52Z</time>
      </trkpt>
      <trkpt lat="45.32124" lon="6.04426">
        <ele>1504.6</ele>
        <time>2021-01-16T13:22:53Z</time>
      </trkpt>
      <trkpt lat="45.32124" lon="6.04426">
        <ele>1504.4</ele>
        <time>2021-01-16T13:22:54Z</time>
      </trkpt>
      <trkpt lat="45.32124" lon="6.04426">
        <ele>1504.2</ele>
        <time>2021-01-16T13:22:55Z</time>
      </trkpt>
      <trkpt lat="45.32125" lon="6.04426">
        <ele>1504</ele>
        <time>2021-01-16T13:22:56Z</time>
      </trkpt>
      <trkpt lat="45.32125" lon="6.04426">
        <ele>1504</ele>
        <time>2021-01-16T13:22:57Z</time>
      </trkpt>
      <trkpt lat="45.32125" lon="6.04425">
        <ele>1503.8</ele>
        <time>2021-01-16T13:22:58Z</time>
      </trkpt>
      <trkpt lat="45.32125" lon="6.04425">
        <ele>1503.8</ele>
        <time>2021-01-16T13:22:59Z</time>
      </trkpt>
      <trkpt lat="45.32125" lon="6.04425">
        <ele>1503.8</ele>
        <time>2021-01-16T13:23:00Z</time>
      </trkpt>
      <trkpt lat="45.32125" lon="6.04425">
        <ele>1503.8</ele>
        <time>2021-01-16T13:23:01Z</time>
      </trkpt>
      <trkpt lat="45.32126" lon="6.04425">
        <ele>1503.8</ele>
        <time>2021-01-16T13:23:02Z</time>
      </trkpt>
      <trkpt lat="45.32126" lon="6.04425">
        <ele>1503.8</ele>
        <time>2021-01-16T13:23:03Z</time>
      </trkpt>
      <trkpt lat="45.32126" lon="6.04425">
        <ele>1503.8</ele>
        <time>2021-01-16T13:23:04Z</time>
      </trkpt>
      <trkpt lat="45.32126" lon="6.04425">
        <ele>1503.8</ele>
        <time>2021-01-16T13:23:05Z</time>
      </trkpt>
      <trkpt lat="45.32126" lon="6.04424">
        <ele>1503.6</ele>
        <time>2021-01-16T13:23:06Z</time>
      </trkpt>
      <trkpt lat="45.32126" lon="6.04424">
        <ele>1503.6</ele>
        <time>2021-01-16T13:23:07Z</time>
      </trkpt>
      <trkpt lat="45.32126" lon="6.04424">
        <ele>1503.8</ele>
        <time>2021-01-16T13:23:08Z</time>
      </trkpt>
      <trkpt lat="45.32127" lon="6.04424">
        <ele>1503.8</ele>
        <time>2021-01-16T13:23:09Z</time>
      </trkpt>
      <trkpt lat="45.32127" lon="6.04424">
        <ele>1503.8</ele>
        <time>2021-01-16T13:23:10Z</time>
      </trkpt>
      <trkpt lat="45.32127" lon="6.04424">
        <ele>1503.8</ele>
        <time>2021-01-16T13:23:11Z</time>
      </trkpt>
      <trkpt lat="45.32127" lon="6.04424">
        <ele>1503.8</ele>
        <time>2021-01-16T13:23:12Z</time>
      </trkpt>
      <trkpt lat="45.32127" lon="6.04424">
        <ele>1503.8</ele>
        <time>2021-01-16T13:23:13Z</time>
      </trkpt>
      <trkpt lat="45.32127" lon="6.04423">
        <ele>1503.8</ele>
        <time>2021-01-16T13:23:14Z</time>
      </trkpt>
      <trkpt lat="45.32128" lon="6.04423">
        <ele>1503.8</ele>
        <time>2021-01-16T13:23:15Z</time>
      </trkpt>
      <trkpt lat="45.32128" lon="6.04423">
        <ele>1503.8</ele>
        <time>2021-01-16T13:23:16Z</time>
      </trkpt>
      <trkpt lat="45.32128" lon="6.04423">
        <ele>1503.8</ele>
        <time>2021-01-16T13:23:17Z</time>
      </trkpt>
      <trkpt lat="45.32128" lon="6.04423">
        <ele>1503.8</ele>
        <time>2021-01-16T13:23:18Z</time>
      </trkpt>
      <trkpt lat="45.32128" lon="6.04423">
        <ele>1503.8</ele>
        <time>2021-01-16T13:23:19Z</time>
      </trkpt>
      <trkpt lat="45.32128" lon="6.04423">
        <ele>1503.8</ele>
        <time>2021-01-16T13:23:20Z</time>
      </trkpt>
      <trkpt lat="45.32129" lon="6.04423">
        <ele>1503.8</ele>
        <time>2021-01-16T13:23:21Z</time>
      </trkpt>
      <trkpt lat="45.32129" lon="6.04423">
        <ele>1503.8</ele>
        <time>2021-01-16T13:23:22Z</time>
      </trkpt>
      <trkpt lat="45.32129" lon="6.04422">
        <ele>1503.8</ele>
        <time>2021-01-16T13:23:23Z</time>
      </trkpt>
      <trkpt lat="45.32129" lon="6.04422">
        <ele>1503.8</ele>
        <time>2021-01-16T13:23:24Z</time>
      </trkpt>
      <trkpt lat="45.32129" lon="6.04422">
        <ele>1504</ele>
        <time>2021-01-16T13:23:25Z</time>
      </trkpt>
      <trkpt lat="45.32129" lon="6.04422">
        <ele>1504</ele>
        <time>2021-01-16T13:23:26Z</time>
      </trkpt>
      <trkpt lat="45.3213" lon="6.04422">
        <ele>1504</ele>
        <time>2021-01-16T13:23:27Z</time>
      </trkpt>
      <trkpt lat="45.3213" lon="6.04422">
        <ele>1504</ele>
        <time>2021-01-16T13:23:28Z</time>
      </trkpt>
      <trkpt lat="45.3213" lon="6.04422">
        <ele>1504</ele>
        <time>2021-01-16T13:23:29Z</time>
      </trkpt>
      <trkpt lat="45.3213" lon="6.04422">
        <ele>1504</ele>
        <time>2021-01-16T13:23:30Z</time>
      </trkpt>
      <trkpt lat="45.3213" lon="6.04421">
        <ele>1504</ele>
        <time>2021-01-16T13:23:31Z</time>
      </trkpt>
      <trkpt lat="45.3213" lon="6.04421">
        <ele>1504</ele>
        <time>2021-01-16T13:23:32Z</time>
      </trkpt>
      <trkpt lat="45.3213" lon="6.04421">
        <ele>1504</ele>
        <time>2021-01-16T13:23:33Z</time>
      </trkpt>
      <trkpt lat="45.32131" lon="6.04421">
        <ele>1503.8</ele>
        <time>2021-01-16T13:23:34Z</time>
      </trkpt>
      <trkpt lat="45.32131" lon="6.04421">
        <ele>1503.8</ele>
        <time>2021-01-16T13:23:35Z</time>
      </trkpt>
      <trkpt lat="45.32131" lon="6.04421">
        <ele>1503.8</ele>
        <time>2021-01-16T13:23:36Z</time>
      </trkpt>
      <trkpt lat="45.32131" lon="6.04421">
        <ele>1503.6</ele>
        <time>2021-01-16T13:23:37Z</time>
      </trkpt>
      <trkpt lat="45.32131" lon="6.04421">
        <ele>1503.2</ele>
        <time>2021-01-16T13:23:38Z</time>
      </trkpt>
      <trkpt lat="45.32131" lon="6.04421">
        <ele>1503</ele>
        <time>2021-01-16T13:23:39Z</time>
      </trkpt>
      <trkpt lat="45.32132" lon="6.0442">
        <ele>1502.8</ele>
        <time>2021-01-16T13:23:40Z</time>
      </trkpt>
      <trkpt lat="45.32132" lon="6.0442">
        <ele>1502.6</ele>
        <time>2021-01-16T13:23:41Z</time>
      </trkpt>
      <trkpt lat="45.32132" lon="6.0442">
        <ele>1502.4</ele>
        <time>2021-01-16T13:23:42Z</time>
      </trkpt>
      <trkpt lat="45.32132" lon="6.0442">
        <ele>1502.2</ele>
        <time>2021-01-16T13:23:43Z</time>
      </trkpt>
      <trkpt lat="45.32132" lon="6.0442">
        <ele>1501.8</ele>
        <time>2021-01-16T13:23:44Z</time>
      </trkpt>
      <trkpt lat="45.32135" lon="6.04421">
        <ele>1501.2</ele>
        <time>2021-01-16T13:23:45Z</time>
      </trkpt>
      <trkpt lat="45.3214" lon="6.04423">
        <ele>1500.6</ele>
        <time>2021-01-16T13:23:46Z</time>
      </trkpt>
      <trkpt lat="45.32144" lon="6.04424">
        <ele>1499.8</ele>
        <time>2021-01-16T13:23:47Z</time>
      </trkpt>
      <trkpt lat="45.32149" lon="6.04425">
        <ele>1499</ele>
        <time>2021-01-16T13:23:48Z</time>
      </trkpt>
      <trkpt lat="45.32153" lon="6.04424">
        <ele>1498.2</ele>
        <time>2021-01-16T13:23:49Z</time>
      </trkpt>
      <trkpt lat="45.32158" lon="6.04422">
        <ele>1497.4</ele>
        <time>2021-01-16T13:23:50Z</time>
      </trkpt>
      <trkpt lat="45.32162" lon="6.0442">
        <ele>1496.6</ele>
        <time>2021-01-16T13:23:51Z</time>
      </trkpt>
      <trkpt lat="45.32167" lon="6.04419">
        <ele>1496</ele>
        <time>2021-01-16T13:23:52Z</time>
      </trkpt>
      <trkpt lat="45.32171" lon="6.04419">
        <ele>1495.2</ele>
        <time>2021-01-16T13:23:53Z</time>
      </trkpt>
      <trkpt lat="45.32174" lon="6.04418">
        <ele>1494.8</ele>
        <time>2021-01-16T13:23:54Z</time>
      </trkpt>
      <trkpt lat="45.32178" lon="6.04417">
        <ele>1494.4</ele>
        <time>2021-01-16T13:23:55Z</time>
      </trkpt>
      <trkpt lat="45.32182" lon="6.04416">
        <ele>1493.6</ele>
        <time>2021-01-16T13:23:56Z</time>
      </trkpt>
      <trkpt lat="45.32185" lon="6.04415">
        <ele>1493.4</ele>
        <time>2021-01-16T13:23:57Z</time>
      </trkpt>
      <trkpt lat="45.32188" lon="6.04413">
        <ele>1492.8</ele>
        <time>2021-01-16T13:23:58Z</time>
      </trkpt>
      <trkpt lat="45.32191" lon="6.04411">
        <ele>1492.4</ele>
        <time>2021-01-16T13:23:59Z</time>
      </trkpt>
      <trkpt lat="45.32195" lon="6.04409">
        <ele>1491.8</ele>
        <time>2021-01-16T13:24:00Z</time>
      </trkpt>
      <trkpt lat="45.32198" lon="6.04408">
        <ele>1491.4</ele>
        <time>2021-01-16T13:24:01Z</time>
      </trkpt>
      <trkpt lat="45.32201" lon="6.04407">
        <ele>1490.8</ele>
        <time>2021-01-16T13:24:02Z</time>
      </trkpt>
      <trkpt lat="45.32204" lon="6.04406">
        <ele>1490</ele>
        <time>2021-01-16T13:24:03Z</time>
      </trkpt>
      <trkpt lat="45.32206" lon="6.04405">
        <ele>1489.4</ele>
        <time>2021-01-16T13:24:04Z</time>
      </trkpt>
      <trkpt lat="45.32209" lon="6.04404">
        <ele>1488.6</ele>
        <time>2021-01-16T13:24:05Z</time>
      </trkpt>
      <trkpt lat="45.32211" lon="6.04403">
        <ele>1488</ele>
        <time>2021-01-16T13:24:06Z</time>
      </trkpt>
      <trkpt lat="45.32213" lon="6.04402">
        <ele>1487.4</ele>
        <time>2021-01-16T13:24:07Z</time>
      </trkpt>
      <trkpt lat="45.32216" lon="6.04401">
        <ele>1486.4</ele>
        <time>2021-01-16T13:24:08Z</time>
      </trkpt>
      <trkpt lat="45.32219" lon="6.04401">
        <ele>1485.8</ele>
        <time>2021-01-16T13:24:09Z</time>
      </trkpt>
      <trkpt lat="45.32222" lon="6.044">
        <ele>1485</ele>
        <time>2021-01-16T13:24:10Z</time>
      </trkpt>
      <trkpt lat="45.32225" lon="6.04398">
        <ele>1484</ele>
        <time>2021-01-16T13:24:11Z</time>
      </trkpt>
      <trkpt lat="45.32227" lon="6.04396">
        <ele>1483.2</ele>
        <time>2021-01-16T13:24:12Z</time>
      </trkpt>
      <trkpt lat="45.3223" lon="6.04396">
        <ele>1482.4</ele>
        <time>2021-01-16T13:24:13Z</time>
      </trkpt>
      <trkpt lat="45.32233" lon="6.04395">
        <ele>1481.4</ele>
        <time>2021-01-16T13:24:14Z</time>
      </trkpt>
      <trkpt lat="45.32237" lon="6.04395">
        <ele>1480.4</ele>
        <time>2021-01-16T13:24:15Z</time>
      </trkpt>
      <trkpt lat="45.32242" lon="6.04394">
        <ele>1479.2</ele>
        <time>2021-01-16T13:24:16Z</time>
      </trkpt>
      <trkpt lat="45.32246" lon="6.04393">
        <ele>1478.2</ele>
        <time>2021-01-16T13:24:17Z</time>
      </trkpt>
      <trkpt lat="45.32252" lon="6.04392">
        <ele>1476.8</ele>
        <time>2021-01-16T13:24:18Z</time>
      </trkpt>
      <trkpt lat="45.32256" lon="6.04389">
        <ele>1475.6</ele>
        <time>2021-01-16T13:24:19Z</time>
      </trkpt>
      <trkpt lat="45.3226" lon="6.04386">
        <ele>1474.4</ele>
        <time>2021-01-16T13:24:20Z</time>
      </trkpt>
      <trkpt lat="45.32264" lon="6.04384">
        <ele>1473.6</ele>
        <time>2021-01-16T13:24:21Z</time>
      </trkpt>
      <trkpt lat="45.32267" lon="6.04381">
        <ele>1472.8</ele>
        <time>2021-01-16T13:24:22Z</time>
      </trkpt>
      <trkpt lat="45.32268" lon="6.04381">
        <ele>1472.2</ele>
        <time>2021-01-16T13:24:23Z</time>
      </trkpt>
      <trkpt lat="45.32268" lon="6.04379">
        <ele>1471.6</ele>
        <time>2021-01-16T13:24:24Z</time>
      </trkpt>
      <trkpt lat="45.32268" lon="6.04378">
        <ele>1471.2</ele>
        <time>2021-01-16T13:24:25Z</time>
      </trkpt>
      <trkpt lat="45.32268" lon="6.04378">
        <ele>1470.8</ele>
        <time>2021-01-16T13:24:26Z</time>
      </trkpt>
      <trkpt lat="45.32268" lon="6.04378">
        <ele>1470.6</ele>
        <time>2021-01-16T13:24:27Z</time>
      </trkpt>
      <trkpt lat="45.32268" lon="6.04378">
        <ele>1470.6</ele>
        <time>2021-01-16T13:24:28Z</time>
      </trkpt>
      <trkpt lat="45.32268" lon="6.04378">
        <ele>1470.4</ele>
        <time>2021-01-16T13:24:29Z</time>
      </trkpt>
      <trkpt lat="45.32268" lon="6.04378">
        <ele>1470.2</ele>
        <time>2021-01-16T13:24:30Z</time>
      </trkpt>
      <trkpt lat="45.32268" lon="6.04378">
        <ele>1470.2</ele>
        <time>2021-01-16T13:24:31Z</time>
      </trkpt>
      <trkpt lat="45.32268" lon="6.04378">
        <ele>1470.2</ele>
        <time>2021-01-16T13:24:32Z</time>
      </trkpt>
      <trkpt lat="45.32268" lon="6.04378">
        <ele>1470.2</ele>
        <time>2021-01-16T13:24:33Z</time>
      </trkpt>
      <trkpt lat="45.32268" lon="6.04378">
        <ele>1470.2</ele>
        <time>2021-01-16T13:24:34Z</time>
      </trkpt>
      <trkpt lat="45.32268" lon="6.04378">
        <ele>1470</ele>
        <time>2021-01-16T13:24:35Z</time>
      </trkpt>
      <trkpt lat="45.32268" lon="6.04378">
        <ele>1470</ele>
        <time>2021-01-16T13:24:36Z</time>
      </trkpt>
      <trkpt lat="45.32268" lon="6.04378">
        <ele>1470</ele>
        <time>2021-01-16T13:24:37Z</time>
      </trkpt>
      <trkpt lat="45.32268" lon="6.04378">
        <ele>1470</ele>
        <time>2021-01-16T13:24:38Z</time>
      </trkpt>
      <trkpt lat="45.32268" lon="6.04378">
        <ele>1470.2</ele>
        <time>2021-01-16T13:24:39Z</time>
      </trkpt>
      <trkpt lat="45.32268" lon="6.04378">
        <ele>1470.2</ele>
        <time>2021-01-16T13:24:40Z</time>
      </trkpt>
      <trkpt lat="45.32268" lon="6.04378">
        <ele>1470.2</ele>
        <time>2021-01-16T13:24:41Z</time>
      </trkpt>
      <trkpt lat="45.32268" lon="6.04378">
        <ele>1470.2</ele>
        <time>2021-01-16T13:24:42Z</time>
      </trkpt>
      <trkpt lat="45.32268" lon="6.04378">
        <ele>1470.2</ele>
        <time>2021-01-16T13:24:43Z</time>
      </trkpt>
      <trkpt lat="45.32269" lon="6.04378">
        <ele>1470.2</ele>
        <time>2021-01-16T13:24:44Z</time>
      </trkpt>
      <trkpt lat="45.32274" lon="6.04377">
        <ele>1470.2</ele>
        <time>2021-01-16T13:24:45Z</time>
      </trkpt>
      <trkpt lat="45.32279" lon="6.04376">
        <ele>1470.2</ele>
        <time>2021-01-16T13:24:46Z</time>
      </trkpt>
      <trkpt lat="45.32284" lon="6.04375">
        <ele>1470.2</ele>
        <time>2021-01-16T13:24:47Z</time>
      </trkpt>
      <trkpt lat="45.32278" lon="6.04375">
        <ele>1470.2</ele>
        <time>2021-01-16T13:24:48Z</time>
      </trkpt>
      <trkpt lat="45.32271" lon="6.04373">
        <ele>1470.2</ele>
        <time>2021-01-16T13:24:49Z</time>
      </trkpt>
      <trkpt lat="45.32266" lon="6.04372">
        <ele>1470.2</ele>
        <time>2021-01-16T13:24:50Z</time>
      </trkpt>
      <trkpt lat="45.32268" lon="6.04371">
        <ele>1470.2</ele>
        <time>2021-01-16T13:24:51Z</time>
      </trkpt>
      <trkpt lat="45.3227" lon="6.04368">
        <ele>1470.2</ele>
        <time>2021-01-16T13:24:52Z</time>
      </trkpt>
      <trkpt lat="45.32271" lon="6.04369">
        <ele>1470.4</ele>
        <time>2021-01-16T13:24:53Z</time>
      </trkpt>
      <trkpt lat="45.32274" lon="6.0437">
        <ele>1470.4</ele>
        <time>2021-01-16T13:24:54Z</time>
      </trkpt>
      <trkpt lat="45.32275" lon="6.04371">
        <ele>1470.4</ele>
        <time>2021-01-16T13:24:55Z</time>
      </trkpt>
      <trkpt lat="45.32275" lon="6.04371">
        <ele>1470.4</ele>
        <time>2021-01-16T13:24:56Z</time>
      </trkpt>
      <trkpt lat="45.32275" lon="6.04371">
        <ele>1470.4</ele>
        <time>2021-01-16T13:24:57Z</time>
      </trkpt>
      <trkpt lat="45.32275" lon="6.04371">
        <ele>1470.4</ele>
        <time>2021-01-16T13:24:58Z</time>
      </trkpt>
      <trkpt lat="45.32275" lon="6.04371">
        <ele>1470.4</ele>
        <time>2021-01-16T13:24:59Z</time>
      </trkpt>
      <trkpt lat="45.32275" lon="6.04371">
        <ele>1470.4</ele>
        <time>2021-01-16T13:25:00Z</time>
      </trkpt>
      <trkpt lat="45.32276" lon="6.04372">
        <ele>1470.4</ele>
        <time>2021-01-16T13:25:01Z</time>
      </trkpt>
      <trkpt lat="45.32278" lon="6.04374">
        <ele>1470.4</ele>
        <time>2021-01-16T13:25:02Z</time>
      </trkpt>
      <trkpt lat="45.3228" lon="6.04375">
        <ele>1470</ele>
        <time>2021-01-16T13:25:03Z</time>
      </trkpt>
      <trkpt lat="45.32282" lon="6.04375">
        <ele>1469.8</ele>
        <time>2021-01-16T13:25:04Z</time>
      </trkpt>
      <trkpt lat="45.32286" lon="6.04376">
        <ele>1469.4</ele>
        <time>2021-01-16T13:25:05Z</time>
      </trkpt>
      <trkpt lat="45.32289" lon="6.04378">
        <ele>1468.8</ele>
        <time>2021-01-16T13:25:06Z</time>
      </trkpt>
      <trkpt lat="45.32293" lon="6.0438">
        <ele>1468.4</ele>
        <time>2021-01-16T13:25:07Z</time>
      </trkpt>
      <trkpt lat="45.32297" lon="6.0438">
        <ele>1467.6</ele>
        <time>2021-01-16T13:25:08Z</time>
      </trkpt>
      <trkpt lat="45.323" lon="6.04381">
        <ele>1466.8</ele>
        <time>2021-01-16T13:25:09Z</time>
      </trkpt>
      <trkpt lat="45.32304" lon="6.04382">
        <ele>1465.8</ele>
        <time>2021-01-16T13:25:10Z</time>
      </trkpt>
      <trkpt lat="45.32307" lon="6.04384">
        <ele>1464.8</ele>
        <time>2021-01-16T13:25:11Z</time>
      </trkpt>
      <trkpt lat="45.32311" lon="6.04385">
        <ele>1463.8</ele>
        <time>2021-01-16T13:25:12Z</time>
      </trkpt>
      <trkpt lat="45.32316" lon="6.04387">
        <ele>1462.6</ele>
        <time>2021-01-16T13:25:13Z</time>
      </trkpt>
      <trkpt lat="45.3232" lon="6.04389">
        <ele>1461.2</ele>
        <time>2021-01-16T13:25:14Z</time>
      </trkpt>
      <trkpt lat="45.32323" lon="6.0439">
        <ele>1460.2</ele>
        <time>2021-01-16T13:25:15Z</time>
      </trkpt>
      <trkpt lat="45.32326" lon="6.04391">
        <ele>1459</ele>
        <time>2021-01-16T13:25:16Z</time>
      </trkpt>
      <trkpt lat="45.3233" lon="6.04393">
        <ele>1458</ele>
        <time>2021-01-16T13:25:17Z</time>
      </trkpt>
      <trkpt lat="45.32334" lon="6.04394">
        <ele>1457</ele>
        <time>2021-01-16T13:25:18Z</time>
      </trkpt>
      <trkpt lat="45.32339" lon="6.04396">
        <ele>1456</ele>
        <time>2021-01-16T13:25:19Z</time>
      </trkpt>
      <trkpt lat="45.32344" lon="6.04398">
        <ele>1455.2</ele>
        <time>2021-01-16T13:25:20Z</time>
      </trkpt>
      <trkpt lat="45.32349" lon="6.04399">
        <ele>1454.2</ele>
        <time>2021-01-16T13:25:21Z</time>
      </trkpt>
      <trkpt lat="45.32354" lon="6.04399">
        <ele>1453.6</ele>
        <time>2021-01-16T13:25:22Z</time>
      </trkpt>
      <trkpt lat="45.32359" lon="6.04399">
        <ele>1452.8</ele>
        <time>2021-01-16T13:25:23Z</time>
      </trkpt>
      <trkpt lat="45.32364" lon="6.044">
        <ele>1452.2</ele>
        <time>2021-01-16T13:25:24Z</time>
      </trkpt>
      <trkpt lat="45.32369" lon="6.04403">
        <ele>1451.8</ele>
        <time>2021-01-16T13:25:25Z</time>
      </trkpt>
      <trkpt lat="45.32372" lon="6.04406">
        <ele>1451.4</ele>
        <time>2021-01-16T13:25:26Z</time>
      </trkpt>
      <trkpt lat="45.32375" lon="6.04408">
        <ele>1451</ele>
        <time>2021-01-16T13:25:27Z</time>
      </trkpt>
      <trkpt lat="45.32376" lon="6.0441">
        <ele>1450.8</ele>
        <time>2021-01-16T13:25:28Z</time>
      </trkpt>
      <trkpt lat="45.32379" lon="6.04413">
        <ele>1450.6</ele>
        <time>2021-01-16T13:25:29Z</time>
      </trkpt>
      <trkpt lat="45.32381" lon="6.04416">
        <ele>1450.4</ele>
        <time>2021-01-16T13:25:30Z</time>
      </trkpt>
      <trkpt lat="45.32384" lon="6.0442">
        <ele>1450</ele>
        <time>2021-01-16T13:25:31Z</time>
      </trkpt>
      <trkpt lat="45.32385" lon="6.04423">
        <ele>1449.8</ele>
        <time>2021-01-16T13:25:32Z</time>
      </trkpt>
      <trkpt lat="45.32387" lon="6.04426">
        <ele>1449.6</ele>
        <time>2021-01-16T13:25:33Z</time>
      </trkpt>
      <trkpt lat="45.32388" lon="6.04429">
        <ele>1449.6</ele>
        <time>2021-01-16T13:25:34Z</time>
      </trkpt>
      <trkpt lat="45.32389" lon="6.04433">
        <ele>1449.4</ele>
        <time>2021-01-16T13:25:35Z</time>
      </trkpt>
      <trkpt lat="45.3239" lon="6.04436">
        <ele>1449.2</ele>
        <time>2021-01-16T13:25:36Z</time>
      </trkpt>
      <trkpt lat="45.32391" lon="6.0444">
        <ele>1449.2</ele>
        <time>2021-01-16T13:25:37Z</time>
      </trkpt>
      <trkpt lat="45.32392" lon="6.04443">
        <ele>1449.2</ele>
        <time>2021-01-16T13:25:38Z</time>
      </trkpt>
      <trkpt lat="45.32393" lon="6.04446">
        <ele>1449.2</ele>
        <time>2021-01-16T13:25:39Z</time>
      </trkpt>
      <trkpt lat="45.32394" lon="6.0445">
        <ele>1449.2</ele>
        <time>2021-01-16T13:25:40Z</time>
      </trkpt>
      <trkpt lat="45.32396" lon="6.04453">
        <ele>1449.2</ele>
        <time>2021-01-16T13:25:41Z</time>
      </trkpt>
      <trkpt lat="45.32397" lon="6.04457">
        <ele>1449.2</ele>
        <time>2021-01-16T13:25:42Z</time>
      </trkpt>
      <trkpt lat="45.32398" lon="6.0446">
        <ele>1449</ele>
        <time>2021-01-16T13:25:43Z</time>
      </trkpt>
      <trkpt lat="45.32398" lon="6.04463">
        <ele>1449</ele>
        <time>2021-01-16T13:25:44Z</time>
      </trkpt>
      <trkpt lat="45.324" lon="6.04466">
        <ele>1448.8</ele>
        <time>2021-01-16T13:25:45Z</time>
      </trkpt>
      <trkpt lat="45.324" lon="6.0447">
        <ele>1448.8</ele>
        <time>2021-01-16T13:25:46Z</time>
      </trkpt>
      <trkpt lat="45.32401" lon="6.04473">
        <ele>1448.8</ele>
        <time>2021-01-16T13:25:47Z</time>
      </trkpt>
      <trkpt lat="45.32401" lon="6.04476">
        <ele>1448.8</ele>
        <time>2021-01-16T13:25:48Z</time>
      </trkpt>
      <trkpt lat="45.32402" lon="6.04479">
        <ele>1448.6</ele>
        <time>2021-01-16T13:25:49Z</time>
      </trkpt>
      <trkpt lat="45.32402" lon="6.04482">
        <ele>1448.6</ele>
        <time>2021-01-16T13:25:50Z</time>
      </trkpt>
      <trkpt lat="45.32403" lon="6.04484">
        <ele>1448.4</ele>
        <time>2021-01-16T13:25:51Z</time>
      </trkpt>
      <trkpt lat="45.32404" lon="6.04486">
        <ele>1448.4</ele>
        <time>2021-01-16T13:25:52Z</time>
      </trkpt>
      <trkpt lat="45.32405" lon="6.04488">
        <ele>1448.4</ele>
        <time>2021-01-16T13:25:53Z</time>
      </trkpt>
      <trkpt lat="45.32405" lon="6.04489">
        <ele>1448.2</ele>
        <time>2021-01-16T13:25:54Z</time>
      </trkpt>
      <trkpt lat="45.32405" lon="6.0449">
        <ele>1448.2</ele>
        <time>2021-01-16T13:25:55Z</time>
      </trkpt>
      <trkpt lat="45.32405" lon="6.04491">
        <ele>1448.2</ele>
        <time>2021-01-16T13:25:56Z</time>
      </trkpt>
      <trkpt lat="45.32405" lon="6.04492">
        <ele>1448.2</ele>
        <time>2021-01-16T13:25:57Z</time>
      </trkpt>
      <trkpt lat="45.32405" lon="6.04494">
        <ele>1448.2</ele>
        <time>2021-01-16T13:25:58Z</time>
      </trkpt>
      <trkpt lat="45.32406" lon="6.04496">
        <ele>1448.2</ele>
        <time>2021-01-16T13:25:59Z</time>
      </trkpt>
      <trkpt lat="45.32406" lon="6.04499">
        <ele>1448</ele>
        <time>2021-01-16T13:26:00Z</time>
      </trkpt>
      <trkpt lat="45.32406" lon="6.04501">
        <ele>1448</ele>
        <time>2021-01-16T13:26:01Z</time>
      </trkpt>
      <trkpt lat="45.32406" lon="6.04503">
        <ele>1447.8</ele>
        <time>2021-01-16T13:26:02Z</time>
      </trkpt>
      <trkpt lat="45.32406" lon="6.04506">
        <ele>1448</ele>
        <time>2021-01-16T13:26:03Z</time>
      </trkpt>
      <trkpt lat="45.32407" lon="6.0451">
        <ele>1448</ele>
        <time>2021-01-16T13:26:04Z</time>
      </trkpt>
      <trkpt lat="45.32407" lon="6.04514">
        <ele>1448</ele>
        <time>2021-01-16T13:26:05Z</time>
      </trkpt>
      <trkpt lat="45.32408" lon="6.04518">
        <ele>1448</ele>
        <time>2021-01-16T13:26:06Z</time>
      </trkpt>
      <trkpt lat="45.32408" lon="6.04523">
        <ele>1447.8</ele>
        <time>2021-01-16T13:26:07Z</time>
      </trkpt>
      <trkpt lat="45.32408" lon="6.04529">
        <ele>1447.8</ele>
        <time>2021-01-16T13:26:08Z</time>
      </trkpt>
      <trkpt lat="45.32409" lon="6.04535">
        <ele>1447.6</ele>
        <time>2021-01-16T13:26:09Z</time>
      </trkpt>
      <trkpt lat="45.32409" lon="6.04541">
        <ele>1447.6</ele>
        <time>2021-01-16T13:26:10Z</time>
      </trkpt>
      <trkpt lat="45.32409" lon="6.04548">
        <ele>1447.4</ele>
        <time>2021-01-16T13:26:11Z</time>
      </trkpt>
      <trkpt lat="45.3241" lon="6.04554">
        <ele>1447.4</ele>
        <time>2021-01-16T13:26:12Z</time>
      </trkpt>
      <trkpt lat="45.3241" lon="6.04561">
        <ele>1447.4</ele>
        <time>2021-01-16T13:26:13Z</time>
      </trkpt>
      <trkpt lat="45.3241" lon="6.04567">
        <ele>1447.4</ele>
        <time>2021-01-16T13:26:14Z</time>
      </trkpt>
      <trkpt lat="45.3241" lon="6.04573">
        <ele>1447.2</ele>
        <time>2021-01-16T13:26:15Z</time>
      </trkpt>
      <trkpt lat="45.32412" lon="6.04579">
        <ele>1447.2</ele>
        <time>2021-01-16T13:26:16Z</time>
      </trkpt>
      <trkpt lat="45.32414" lon="6.04584">
        <ele>1447</ele>
        <time>2021-01-16T13:26:17Z</time>
      </trkpt>
      <trkpt lat="45.32416" lon="6.0459">
        <ele>1447</ele>
        <time>2021-01-16T13:26:18Z</time>
      </trkpt>
      <trkpt lat="45.32419" lon="6.04594">
        <ele>1446.8</ele>
        <time>2021-01-16T13:26:19Z</time>
      </trkpt>
      <trkpt lat="45.32421" lon="6.04599">
        <ele>1446.8</ele>
        <time>2021-01-16T13:26:20Z</time>
      </trkpt>
      <trkpt lat="45.32424" lon="6.04603">
        <ele>1446.6</ele>
        <time>2021-01-16T13:26:21Z</time>
      </trkpt>
      <trkpt lat="45.32426" lon="6.04607">
        <ele>1446.4</ele>
        <time>2021-01-16T13:26:22Z</time>
      </trkpt>
      <trkpt lat="45.32429" lon="6.04611">
        <ele>1446.4</ele>
        <time>2021-01-16T13:26:23Z</time>
      </trkpt>
      <trkpt lat="45.32431" lon="6.04615">
        <ele>1446.4</ele>
        <time>2021-01-16T13:26:24Z</time>
      </trkpt>
      <trkpt lat="45.32434" lon="6.04619">
        <ele>1446.4</ele>
        <time>2021-01-16T13:26:25Z</time>
      </trkpt>
      <trkpt lat="45.32436" lon="6.04622">
        <ele>1446.4</ele>
        <time>2021-01-16T13:26:26Z</time>
      </trkpt>
      <trkpt lat="45.32438" lon="6.04626">
        <ele>1446.6</ele>
        <time>2021-01-16T13:26:27Z</time>
      </trkpt>
      <trkpt lat="45.3244" lon="6.0463">
        <ele>1446.6</ele>
        <time>2021-01-16T13:26:28Z</time>
      </trkpt>
      <trkpt lat="45.32442" lon="6.04634">
        <ele>1446.6</ele>
        <time>2021-01-16T13:26:29Z</time>
      </trkpt>
      <trkpt lat="45.32444" lon="6.04637">
        <ele>1446.4</ele>
        <time>2021-01-16T13:26:30Z</time>
      </trkpt>
      <trkpt lat="45.32445" lon="6.04641">
        <ele>1446.4</ele>
        <time>2021-01-16T13:26:31Z</time>
      </trkpt>
      <trkpt lat="45.32446" lon="6.04645">
        <ele>1446.4</ele>
        <time>2021-01-16T13:26:32Z</time>
      </trkpt>
      <trkpt lat="45.32448" lon="6.04648">
        <ele>1446.4</ele>
        <time>2021-01-16T13:26:33Z</time>
      </trkpt>
      <trkpt lat="45.32449" lon="6.04652">
        <ele>1446.6</ele>
        <time>2021-01-16T13:26:34Z</time>
      </trkpt>
      <trkpt lat="45.3245" lon="6.04656">
        <ele>1446.4</ele>
        <time>2021-01-16T13:26:35Z</time>
      </trkpt>
      <trkpt lat="45.32452" lon="6.0466">
        <ele>1446.4</ele>
        <time>2021-01-16T13:26:36Z</time>
      </trkpt>
      <trkpt lat="45.32453" lon="6.04664">
        <ele>1446.4</ele>
        <time>2021-01-16T13:26:37Z</time>
      </trkpt>
      <trkpt lat="45.32454" lon="6.04668">
        <ele>1446.4</ele>
        <time>2021-01-16T13:26:38Z</time>
      </trkpt>
      <trkpt lat="45.32454" lon="6.04672">
        <ele>1446.6</ele>
        <time>2021-01-16T13:26:39Z</time>
      </trkpt>
      <trkpt lat="45.32455" lon="6.04676">
        <ele>1446.6</ele>
        <time>2021-01-16T13:26:40Z</time>
      </trkpt>
      <trkpt lat="45.32457" lon="6.0468">
        <ele>1446.4</ele>
        <time>2021-01-16T13:26:41Z</time>
      </trkpt>
      <trkpt lat="45.32458" lon="6.04684">
        <ele>1446.4</ele>
        <time>2021-01-16T13:26:42Z</time>
      </trkpt>
      <trkpt lat="45.32459" lon="6.04688">
        <ele>1446.4</ele>
        <time>2021-01-16T13:26:43Z</time>
      </trkpt>
      <trkpt lat="45.32461" lon="6.04691">
        <ele>1446.4</ele>
        <time>2021-01-16T13:26:44Z</time>
      </trkpt>
      <trkpt lat="45.32463" lon="6.04694">
        <ele>1446.4</ele>
        <time>2021-01-16T13:26:45Z</time>
      </trkpt>
      <trkpt lat="45.32464" lon="6.04696">
        <ele>1446.6</ele>
        <time>2021-01-16T13:26:46Z</time>
      </trkpt>
      <trkpt lat="45.32466" lon="6.04697">
        <ele>1446.6</ele>
        <time>2021-01-16T13:26:47Z</time>
      </trkpt>
      <trkpt lat="45.32467" lon="6.04699">
        <ele>1446.8</ele>
        <time>2021-01-16T13:26:48Z</time>
      </trkpt>
      <trkpt lat="45.32467" lon="6.047">
        <ele>1446.8</ele>
        <time>2021-01-16T13:26:49Z</time>
      </trkpt>
      <trkpt lat="45.32467" lon="6.047">
        <ele>1446.8</ele>
        <time>2021-01-16T13:26:50Z</time>
      </trkpt>
      <trkpt lat="45.32467" lon="6.04701">
        <ele>1446.8</ele>
        <time>2021-01-16T13:26:51Z</time>
      </trkpt>
      <trkpt lat="45.32467" lon="6.04701">
        <ele>1447</ele>
        <time>2021-01-16T13:26:52Z</time>
      </trkpt>
      <trkpt lat="45.32467" lon="6.04701">
        <ele>1447</ele>
        <time>2021-01-16T13:26:53Z</time>
      </trkpt>
      <trkpt lat="45.32467" lon="6.04701">
        <ele>1447</ele>
        <time>2021-01-16T13:26:54Z</time>
      </trkpt>
      <trkpt lat="45.32467" lon="6.04701">
        <ele>1447</ele>
        <time>2021-01-16T13:26:55Z</time>
      </trkpt>
      <trkpt lat="45.32467" lon="6.04701">
        <ele>1447</ele>
        <time>2021-01-16T13:26:56Z</time>
      </trkpt>
      <trkpt lat="45.32467" lon="6.04701">
        <ele>1447</ele>
        <time>2021-01-16T13:26:57Z</time>
      </trkpt>
      <trkpt lat="45.32467" lon="6.04701">
        <ele>1447</ele>
        <time>2021-01-16T13:26:58Z</time>
      </trkpt>
      <trkpt lat="45.32467" lon="6.04701">
        <ele>1447</ele>
        <time>2021-01-16T13:26:59Z</time>
      </trkpt>
      <trkpt lat="45.32467" lon="6.04701">
        <ele>1447</ele>
        <time>2021-01-16T13:27:00Z</time>
      </trkpt>
      <trkpt lat="45.32467" lon="6.04701">
        <ele>1447</ele>
        <time>2021-01-16T13:27:01Z</time>
      </trkpt>
      <trkpt lat="45.32467" lon="6.04701">
        <ele>1447.2</ele>
        <time>2021-01-16T13:27:02Z</time>
      </trkpt>
      <trkpt lat="45.32467" lon="6.04701">
        <ele>1447.2</ele>
        <time>2021-01-16T13:27:03Z</time>
      </trkpt>
      <trkpt lat="45.32467" lon="6.04701">
        <ele>1447.2</ele>
        <time>2021-01-16T13:27:04Z</time>
      </trkpt>
      <trkpt lat="45.32467" lon="6.04701">
        <ele>1447.2</ele>
        <time>2021-01-16T13:27:05Z</time>
      </trkpt>
      <trkpt lat="45.32467" lon="6.04701">
        <ele>1447.2</ele>
        <time>2021-01-16T13:27:06Z</time>
      </trkpt>
      <trkpt lat="45.32467" lon="6.04701">
        <ele>1447.2</ele>
        <time>2021-01-16T13:27:07Z</time>
      </trkpt>
      <trkpt lat="45.32467" lon="6.04701">
        <ele>1447.2</ele>
        <time>2021-01-16T13:27:08Z</time>
      </trkpt>
      <trkpt lat="45.32467" lon="6.04701">
        <ele>1447.2</ele>
        <time>2021-01-16T13:27:09Z</time>
      </trkpt>
      <trkpt lat="45.32467" lon="6.04701">
        <ele>1447.2</ele>
        <time>2021-01-16T13:27:10Z</time>
      </trkpt>
      <trkpt lat="45.32467" lon="6.04701">
        <ele>1447.2</ele>
        <time>2021-01-16T13:27:11Z</time>
      </trkpt>
      <trkpt lat="45.32467" lon="6.04701">
        <ele>1447.2</ele>
        <time>2021-01-16T13:27:12Z</time>
      </trkpt>
      <trkpt lat="45.32467" lon="6.04701">
        <ele>1447.2</ele>
        <time>2021-01-16T13:27:13Z</time>
      </trkpt>
      <trkpt lat="45.32467" lon="6.04701">
        <ele>1447.4</ele>
        <time>2021-01-16T13:27:14Z</time>
      </trkpt>
      <trkpt lat="45.32467" lon="6.04701">
        <ele>1447.4</ele>
        <time>2021-01-16T13:27:15Z</time>
      </trkpt>
      <trkpt lat="45.32467" lon="6.04701">
        <ele>1447.4</ele>
        <time>2021-01-16T13:27:16Z</time>
      </trkpt>
      <trkpt lat="45.32467" lon="6.04701">
        <ele>1447.4</ele>
        <time>2021-01-16T13:27:17Z</time>
      </trkpt>
      <trkpt lat="45.32467" lon="6.04701">
        <ele>1447.4</ele>
        <time>2021-01-16T13:27:18Z</time>
      </trkpt>
      <trkpt lat="45.32467" lon="6.04701">
        <ele>1447.4</ele>
        <time>2021-01-16T13:27:19Z</time>
      </trkpt>
      <trkpt lat="45.32467" lon="6.04701">
        <ele>1447.4</ele>
        <time>2021-01-16T13:27:20Z</time>
      </trkpt>
      <trkpt lat="45.32467" lon="6.04701">
        <ele>1447.4</ele>
        <time>2021-01-16T13:27:21Z</time>
      </trkpt>
      <trkpt lat="45.32467" lon="6.04701">
        <ele>1447.4</ele>
        <time>2021-01-16T13:27:22Z</time>
      </trkpt>
      <trkpt lat="45.32467" lon="6.04701">
        <ele>1447.4</ele>
        <time>2021-01-16T13:27:23Z</time>
      </trkpt>
      <trkpt lat="45.32467" lon="6.04701">
        <ele>1447.4</ele>
        <time>2021-01-16T13:27:24Z</time>
      </trkpt>
      <trkpt lat="45.32467" lon="6.04701">
        <ele>1447.4</ele>
        <time>2021-01-16T13:27:25Z</time>
      </trkpt>
      <trkpt lat="45.32467" lon="6.04701">
        <ele>1447.4</ele>
        <time>2021-01-16T13:27:26Z</time>
      </trkpt>
      <trkpt lat="45.32467" lon="6.04701">
        <ele>1447.4</ele>
        <time>2021-01-16T13:27:27Z</time>
      </trkpt>
      <trkpt lat="45.32467" lon="6.04701">
        <ele>1447.6</ele>
        <time>2021-01-16T13:27:28Z</time>
      </trkpt>
      <trkpt lat="45.32467" lon="6.04701">
        <ele>1447.6</ele>
        <time>2021-01-16T13:27:29Z</time>
      </trkpt>
      <trkpt lat="45.32467" lon="6.04701">
        <ele>1447.6</ele>
        <time>2021-01-16T13:27:30Z</time>
      </trkpt>
      <trkpt lat="45.32467" lon="6.04701">
        <ele>1447.6</ele>
        <time>2021-01-16T13:27:31Z</time>
      </trkpt>
      <trkpt lat="45.32467" lon="6.04701">
        <ele>1447.6</ele>
        <time>2021-01-16T13:27:32Z</time>
      </trkpt>
      <trkpt lat="45.32467" lon="6.04701">
        <ele>1447.6</ele>
        <time>2021-01-16T13:27:33Z</time>
      </trkpt>
      <trkpt lat="45.32467" lon="6.04701">
        <ele>1447.6</ele>
        <time>2021-01-16T13:27:34Z</time>
      </trkpt>
      <trkpt lat="45.32467" lon="6.04701">
        <ele>1447.8</ele>
        <time>2021-01-16T13:27:35Z</time>
      </trkpt>
      <trkpt lat="45.32467" lon="6.04701">
        <ele>1447.8</ele>
        <time>2021-01-16T13:27:36Z</time>
      </trkpt>
      <trkpt lat="45.32467" lon="6.04701">
        <ele>1447.6</ele>
        <time>2021-01-16T13:27:37Z</time>
      </trkpt>
      <trkpt lat="45.32467" lon="6.04701">
        <ele>1447.6</ele>
        <time>2021-01-16T13:27:38Z</time>
      </trkpt>
      <trkpt lat="45.32467" lon="6.04701">
        <ele>1447.6</ele>
        <time>2021-01-16T13:27:39Z</time>
      </trkpt>
      <trkpt lat="45.32467" lon="6.04701">
        <ele>1447.8</ele>
        <time>2021-01-16T13:27:40Z</time>
      </trkpt>
      <trkpt lat="45.32467" lon="6.04701">
        <ele>1447.8</ele>
        <time>2021-01-16T13:27:41Z</time>
      </trkpt>
      <trkpt lat="45.32467" lon="6.04701">
        <ele>1447.6</ele>
        <time>2021-01-16T13:27:42Z</time>
      </trkpt>
      <trkpt lat="45.32467" lon="6.04701">
        <ele>1447.8</ele>
        <time>2021-01-16T13:27:43Z</time>
      </trkpt>
      <trkpt lat="45.32467" lon="6.04701">
        <ele>1447.8</ele>
        <time>2021-01-16T13:27:44Z</time>
      </trkpt>
      <trkpt lat="45.32467" lon="6.04701">
        <ele>1447.8</ele>
        <time>2021-01-16T13:27:45Z</time>
      </trkpt>
      <trkpt lat="45.32467" lon="6.04701">
        <ele>1447.8</ele>
        <time>2021-01-16T13:27:46Z</time>
      </trkpt>
      <trkpt lat="45.32467" lon="6.04701">
        <ele>1447.8</ele>
        <time>2021-01-16T13:27:47Z</time>
      </trkpt>
      <trkpt lat="45.32467" lon="6.04701">
        <ele>1447.8</ele>
        <time>2021-01-16T13:27:48Z</time>
      </trkpt>
      <trkpt lat="45.32467" lon="6.04701">
        <ele>1447.8</ele>
        <time>2021-01-16T13:27:49Z</time>
      </trkpt>
      <trkpt lat="45.32467" lon="6.04701">
        <ele>1447.8</ele>
        <time>2021-01-16T13:27:50Z</time>
      </trkpt>
      <trkpt lat="45.32467" lon="6.04701">
        <ele>1447.8</ele>
        <time>2021-01-16T13:27:51Z</time>
      </trkpt>
      <trkpt lat="45.32467" lon="6.04701">
        <ele>1448</ele>
        <time>2021-01-16T13:27:52Z</time>
      </trkpt>
      <trkpt lat="45.32467" lon="6.04701">
        <ele>1448</ele>
        <time>2021-01-16T13:27:53Z</time>
      </trkpt>
      <trkpt lat="45.32467" lon="6.04701">
        <ele>1448</ele>
        <time>2021-01-16T13:27:54Z</time>
      </trkpt>
      <trkpt lat="45.32467" lon="6.04701">
        <ele>1448</ele>
        <time>2021-01-16T13:27:55Z</time>
      </trkpt>
      <trkpt lat="45.32467" lon="6.04701">
        <ele>1448</ele>
        <time>2021-01-16T13:27:56Z</time>
      </trkpt>
      <trkpt lat="45.32467" lon="6.04701">
        <ele>1448</ele>
        <time>2021-01-16T13:27:57Z</time>
      </trkpt>
      <trkpt lat="45.32467" lon="6.04701">
        <ele>1448</ele>
        <time>2021-01-16T13:27:58Z</time>
      </trkpt>
      <trkpt lat="45.32467" lon="6.04701">
        <ele>1448</ele>
        <time>2021-01-16T13:27:59Z</time>
      </trkpt>
      <trkpt lat="45.32467" lon="6.04701">
        <ele>1448</ele>
        <time>2021-01-16T13:28:00Z</time>
      </trkpt>
      <trkpt lat="45.32467" lon="6.04701">
        <ele>1448</ele>
        <time>2021-01-16T13:28:01Z</time>
      </trkpt>
      <trkpt lat="45.32467" lon="6.04701">
        <ele>1448</ele>
        <time>2021-01-16T13:28:02Z</time>
      </trkpt>
      <trkpt lat="45.32467" lon="6.04701">
        <ele>1448</ele>
        <time>2021-01-16T13:28:03Z</time>
      </trkpt>
      <trkpt lat="45.32467" lon="6.04701">
        <ele>1448.2</ele>
        <time>2021-01-16T13:28:04Z</time>
      </trkpt>
      <trkpt lat="45.32467" lon="6.04701">
        <ele>1448.2</ele>
        <time>2021-01-16T13:28:05Z</time>
      </trkpt>
      <trkpt lat="45.32467" lon="6.04701">
        <ele>1448.2</ele>
        <time>2021-01-16T13:28:06Z</time>
      </trkpt>
      <trkpt lat="45.32467" lon="6.04701">
        <ele>1448.2</ele>
        <time>2021-01-16T13:28:07Z</time>
      </trkpt>
      <trkpt lat="45.32467" lon="6.04701">
        <ele>1448.2</ele>
        <time>2021-01-16T13:28:08Z</time>
      </trkpt>
      <trkpt lat="45.32467" lon="6.04701">
        <ele>1448.2</ele>
        <time>2021-01-16T13:28:09Z</time>
      </trkpt>
      <trkpt lat="45.32467" lon="6.04701">
        <ele>1448.2</ele>
        <time>2021-01-16T13:28:10Z</time>
      </trkpt>
      <trkpt lat="45.32467" lon="6.04701">
        <ele>1448.2</ele>
        <time>2021-01-16T13:28:11Z</time>
      </trkpt>
      <trkpt lat="45.32467" lon="6.04701">
        <ele>1448.2</ele>
        <time>2021-01-16T13:28:12Z</time>
      </trkpt>
      <trkpt lat="45.32467" lon="6.04701">
        <ele>1448.2</ele>
        <time>2021-01-16T13:28:13Z</time>
      </trkpt>
      <trkpt lat="45.32467" lon="6.04701">
        <ele>1448.2</ele>
        <time>2021-01-16T13:28:14Z</time>
      </trkpt>
      <trkpt lat="45.32467" lon="6.04701">
        <ele>1448.2</ele>
        <time>2021-01-16T13:28:15Z</time>
      </trkpt>
      <trkpt lat="45.32467" lon="6.04701">
        <ele>1448.2</ele>
        <time>2021-01-16T13:28:16Z</time>
      </trkpt>
      <trkpt lat="45.32467" lon="6.04701">
        <ele>1448.4</ele>
        <time>2021-01-16T13:28:17Z</time>
      </trkpt>
      <trkpt lat="45.32467" lon="6.04701">
        <ele>1448.2</ele>
        <time>2021-01-16T13:28:18Z</time>
      </trkpt>
      <trkpt lat="45.32467" lon="6.04701">
        <ele>1448.4</ele>
        <time>2021-01-16T13:28:19Z</time>
      </trkpt>
      <trkpt lat="45.32467" lon="6.04701">
        <ele>1448.4</ele>
        <time>2021-01-16T13:28:20Z</time>
      </trkpt>
      <trkpt lat="45.32467" lon="6.04701">
        <ele>1448.4</ele>
        <time>2021-01-16T13:28:21Z</time>
      </trkpt>
      <trkpt lat="45.32467" lon="6.04701">
        <ele>1448.4</ele>
        <time>2021-01-16T13:28:22Z</time>
      </trkpt>
      <trkpt lat="45.32467" lon="6.04701">
        <ele>1448.4</ele>
        <time>2021-01-16T13:28:23Z</time>
      </trkpt>
      <trkpt lat="45.32467" lon="6.04701">
        <ele>1448.4</ele>
        <time>2021-01-16T13:28:24Z</time>
      </trkpt>
      <trkpt lat="45.32467" lon="6.04701">
        <ele>1448.4</ele>
        <time>2021-01-16T13:28:25Z</time>
      </trkpt>
      <trkpt lat="45.32467" lon="6.04701">
        <ele>1448.4</ele>
        <time>2021-01-16T13:28:26Z</time>
      </trkpt>
      <trkpt lat="45.32467" lon="6.04701">
        <ele>1448.4</ele>
        <time>2021-01-16T13:28:27Z</time>
      </trkpt>
      <trkpt lat="45.32467" lon="6.04701">
        <ele>1448.4</ele>
        <time>2021-01-16T13:28:28Z</time>
      </trkpt>
      <trkpt lat="45.32467" lon="6.04701">
        <ele>1448.4</ele>
        <time>2021-01-16T13:28:29Z</time>
      </trkpt>
      <trkpt lat="45.32467" lon="6.04701">
        <ele>1448.4</ele>
        <time>2021-01-16T13:28:30Z</time>
      </trkpt>
      <trkpt lat="45.32467" lon="6.04701">
        <ele>1448.6</ele>
        <time>2021-01-16T13:28:31Z</time>
      </trkpt>
      <trkpt lat="45.32467" lon="6.04701">
        <ele>1448.6</ele>
        <time>2021-01-16T13:28:32Z</time>
      </trkpt>
      <trkpt lat="45.32467" lon="6.04701">
        <ele>1448.6</ele>
        <time>2021-01-16T13:28:33Z</time>
      </trkpt>
      <trkpt lat="45.32467" lon="6.04701">
        <ele>1448.6</ele>
        <time>2021-01-16T13:28:34Z</time>
      </trkpt>
      <trkpt lat="45.32467" lon="6.04701">
        <ele>1448.6</ele>
        <time>2021-01-16T13:28:35Z</time>
      </trkpt>
      <trkpt lat="45.32467" lon="6.04701">
        <ele>1448.6</ele>
        <time>2021-01-16T13:28:36Z</time>
      </trkpt>
      <trkpt lat="45.32467" lon="6.04701">
        <ele>1448.6</ele>
        <time>2021-01-16T13:28:37Z</time>
      </trkpt>
      <trkpt lat="45.32467" lon="6.04701">
        <ele>1448.6</ele>
        <time>2021-01-16T13:28:38Z</time>
      </trkpt>
      <trkpt lat="45.32467" lon="6.04701">
        <ele>1448.6</ele>
        <time>2021-01-16T13:28:39Z</time>
      </trkpt>
      <trkpt lat="45.32467" lon="6.04701">
        <ele>1448.6</ele>
        <time>2021-01-16T13:28:40Z</time>
      </trkpt>
      <trkpt lat="45.32467" lon="6.04701">
        <ele>1448.6</ele>
        <time>2021-01-16T13:28:41Z</time>
      </trkpt>
      <trkpt lat="45.32467" lon="6.04701">
        <ele>1448.6</ele>
        <time>2021-01-16T13:28:42Z</time>
      </trkpt>
      <trkpt lat="45.32467" lon="6.04701">
        <ele>1448.8</ele>
        <time>2021-01-16T13:28:43Z</time>
      </trkpt>
      <trkpt lat="45.32467" lon="6.04701">
        <ele>1448.8</ele>
        <time>2021-01-16T13:28:44Z</time>
      </trkpt>
      <trkpt lat="45.32467" lon="6.04701">
        <ele>1448.8</ele>
        <time>2021-01-16T13:28:45Z</time>
      </trkpt>
      <trkpt lat="45.32467" lon="6.04701">
        <ele>1448.8</ele>
        <time>2021-01-16T13:28:46Z</time>
      </trkpt>
      <trkpt lat="45.32467" lon="6.04701">
        <ele>1448.8</ele>
        <time>2021-01-16T13:28:47Z</time>
      </trkpt>
      <trkpt lat="45.32467" lon="6.04701">
        <ele>1448.8</ele>
        <time>2021-01-16T13:28:48Z</time>
      </trkpt>
      <trkpt lat="45.32467" lon="6.04701">
        <ele>1448.8</ele>
        <time>2021-01-16T13:28:49Z</time>
      </trkpt>
      <trkpt lat="45.32467" lon="6.04701">
        <ele>1448.8</ele>
        <time>2021-01-16T13:28:50Z</time>
      </trkpt>
      <trkpt lat="45.32467" lon="6.04701">
        <ele>1448.8</ele>
        <time>2021-01-16T13:28:51Z</time>
      </trkpt>
      <trkpt lat="45.32467" lon="6.04701">
        <ele>1448.8</ele>
        <time>2021-01-16T13:28:52Z</time>
      </trkpt>
      <trkpt lat="45.32467" lon="6.04703">
        <ele>1448.8</ele>
        <time>2021-01-16T13:28:53Z</time>
      </trkpt>
      <trkpt lat="45.32468" lon="6.04704">
        <ele>1448.8</ele>
        <time>2021-01-16T13:28:54Z</time>
      </trkpt>
      <trkpt lat="45.3247" lon="6.04706">
        <ele>1448.6</ele>
        <time>2021-01-16T13:28:55Z</time>
      </trkpt>
      <trkpt lat="45.32472" lon="6.04708">
        <ele>1448.4</ele>
        <time>2021-01-16T13:28:56Z</time>
      </trkpt>
      <trkpt lat="45.32475" lon="6.0471">
        <ele>1448.4</ele>
        <time>2021-01-16T13:28:57Z</time>
      </trkpt>
      <trkpt lat="45.32478" lon="6.04712">
        <ele>1448.2</ele>
        <time>2021-01-16T13:28:58Z</time>
      </trkpt>
      <trkpt lat="45.3248" lon="6.04714">
        <ele>1448.2</ele>
        <time>2021-01-16T13:28:59Z</time>
      </trkpt>
      <trkpt lat="45.32481" lon="6.04715">
        <ele>1448</ele>
        <time>2021-01-16T13:29:00Z</time>
      </trkpt>
      <trkpt lat="45.32483" lon="6.04717">
        <ele>1448</ele>
        <time>2021-01-16T13:29:01Z</time>
      </trkpt>
      <trkpt lat="45.32485" lon="6.04718">
        <ele>1447.8</ele>
        <time>2021-01-16T13:29:02Z</time>
      </trkpt>
      <trkpt lat="45.32487" lon="6.0472">
        <ele>1447.8</ele>
        <time>2021-01-16T13:29:03Z</time>
      </trkpt>
      <trkpt lat="45.32489" lon="6.04721">
        <ele>1447.8</ele>
        <time>2021-01-16T13:29:04Z</time>
      </trkpt>
      <trkpt lat="45.3249" lon="6.04723">
        <ele>1447.8</ele>
        <time>2021-01-16T13:29:05Z</time>
      </trkpt>
      <trkpt lat="45.32492" lon="6.04725">
        <ele>1447.8</ele>
        <time>2021-01-16T13:29:06Z</time>
      </trkpt>
      <trkpt lat="45.32494" lon="6.04726">
        <ele>1447.6</ele>
        <time>2021-01-16T13:29:07Z</time>
      </trkpt>
      <trkpt lat="45.32495" lon="6.04728">
        <ele>1447.6</ele>
        <time>2021-01-16T13:29:08Z</time>
      </trkpt>
      <trkpt lat="45.32497" lon="6.04731">
        <ele>1447.6</ele>
        <time>2021-01-16T13:29:09Z</time>
      </trkpt>
      <trkpt lat="45.32499" lon="6.04733">
        <ele>1447.6</ele>
        <time>2021-01-16T13:29:10Z</time>
      </trkpt>
      <trkpt lat="45.325" lon="6.04734">
        <ele>1447.4</ele>
        <time>2021-01-16T13:29:11Z</time>
      </trkpt>
      <trkpt lat="45.32502" lon="6.04736">
        <ele>1447.4</ele>
        <time>2021-01-16T13:29:12Z</time>
      </trkpt>
      <trkpt lat="45.32503" lon="6.04737">
        <ele>1447.4</ele>
        <time>2021-01-16T13:29:13Z</time>
      </trkpt>
      <trkpt lat="45.32504" lon="6.04738">
        <ele>1447.4</ele>
        <time>2021-01-16T13:29:14Z</time>
      </trkpt>
      <trkpt lat="45.32505" lon="6.0474">
        <ele>1447.2</ele>
        <time>2021-01-16T13:29:15Z</time>
      </trkpt>
      <trkpt lat="45.32506" lon="6.0474">
        <ele>1447.2</ele>
        <time>2021-01-16T13:29:16Z</time>
      </trkpt>
      <trkpt lat="45.32507" lon="6.04741">
        <ele>1447.2</ele>
        <time>2021-01-16T13:29:17Z</time>
      </trkpt>
      <trkpt lat="45.32508" lon="6.04741">
        <ele>1447.2</ele>
        <time>2021-01-16T13:29:18Z</time>
      </trkpt>
      <trkpt lat="45.32509" lon="6.04742">
        <ele>1447.2</ele>
        <time>2021-01-16T13:29:19Z</time>
      </trkpt>
      <trkpt lat="45.32511" lon="6.04742">
        <ele>1447.2</ele>
        <time>2021-01-16T13:29:20Z</time>
      </trkpt>
      <trkpt lat="45.32512" lon="6.04742">
        <ele>1447</ele>
        <time>2021-01-16T13:29:21Z</time>
      </trkpt>
      <trkpt lat="45.32513" lon="6.04742">
        <ele>1447</ele>
        <time>2021-01-16T13:29:22Z</time>
      </trkpt>
      <trkpt lat="45.32514" lon="6.04741">
        <ele>1447</ele>
        <time>2021-01-16T13:29:23Z</time>
      </trkpt>
      <trkpt lat="45.32516" lon="6.04741">
        <ele>1446.8</ele>
        <time>2021-01-16T13:29:24Z</time>
      </trkpt>
      <trkpt lat="45.32517" lon="6.0474">
        <ele>1446.8</ele>
        <time>2021-01-16T13:29:25Z</time>
      </trkpt>
      <trkpt lat="45.32518" lon="6.0474">
        <ele>1446.8</ele>
        <time>2021-01-16T13:29:26Z</time>
      </trkpt>
      <trkpt lat="45.32519" lon="6.04739">
        <ele>1446.6</ele>
        <time>2021-01-16T13:29:27Z</time>
      </trkpt>
      <trkpt lat="45.32521" lon="6.04739">
        <ele>1446.6</ele>
        <time>2021-01-16T13:29:28Z</time>
      </trkpt>
      <trkpt lat="45.32522" lon="6.04738">
        <ele>1446.6</ele>
        <time>2021-01-16T13:29:29Z</time>
      </trkpt>
      <trkpt lat="45.32523" lon="6.04738">
        <ele>1446.4</ele>
        <time>2021-01-16T13:29:30Z</time>
      </trkpt>
      <trkpt lat="45.32524" lon="6.04737">
        <ele>1446.4</ele>
        <time>2021-01-16T13:29:31Z</time>
      </trkpt>
      <trkpt lat="45.32525" lon="6.04736">
        <ele>1446.2</ele>
        <time>2021-01-16T13:29:32Z</time>
      </trkpt>
      <trkpt lat="45.32526" lon="6.04735">
        <ele>1446.2</ele>
        <time>2021-01-16T13:29:33Z</time>
      </trkpt>
      <trkpt lat="45.32527" lon="6.04734">
        <ele>1446</ele>
        <time>2021-01-16T13:29:34Z</time>
      </trkpt>
      <trkpt lat="45.32529" lon="6.04732">
        <ele>1446</ele>
        <time>2021-01-16T13:29:35Z</time>
      </trkpt>
      <trkpt lat="45.3253" lon="6.04731">
        <ele>1445.8</ele>
        <time>2021-01-16T13:29:36Z</time>
      </trkpt>
      <trkpt lat="45.32531" lon="6.0473">
        <ele>1445.8</ele>
        <time>2021-01-16T13:29:37Z</time>
      </trkpt>
      <trkpt lat="45.32532" lon="6.04729">
        <ele>1445.6</ele>
        <time>2021-01-16T13:29:38Z</time>
      </trkpt>
      <trkpt lat="45.32534" lon="6.04728">
        <ele>1445.6</ele>
        <time>2021-01-16T13:29:39Z</time>
      </trkpt>
      <trkpt lat="45.32535" lon="6.04727">
        <ele>1445.6</ele>
        <time>2021-01-16T13:29:40Z</time>
      </trkpt>
      <trkpt lat="45.32535" lon="6.04725">
        <ele>1445.4</ele>
        <time>2021-01-16T13:29:41Z</time>
      </trkpt>
      <trkpt lat="45.32537" lon="6.04724">
        <ele>1445.4</ele>
        <time>2021-01-16T13:29:42Z</time>
      </trkpt>
      <trkpt lat="45.32537" lon="6.04723">
        <ele>1445.2</ele>
        <time>2021-01-16T13:29:43Z</time>
      </trkpt>
      <trkpt lat="45.32538" lon="6.04723">
        <ele>1445.2</ele>
        <time>2021-01-16T13:29:44Z</time>
      </trkpt>
      <trkpt lat="45.32539" lon="6.04722">
        <ele>1445</ele>
        <time>2021-01-16T13:29:45Z</time>
      </trkpt>
      <trkpt lat="45.32539" lon="6.04722">
        <ele>1445</ele>
        <time>2021-01-16T13:29:46Z</time>
      </trkpt>
      <trkpt lat="45.3254" lon="6.04721">
        <ele>1445</ele>
        <time>2021-01-16T13:29:47Z</time>
      </trkpt>
      <trkpt lat="45.32541" lon="6.04721">
        <ele>1445</ele>
        <time>2021-01-16T13:29:48Z</time>
      </trkpt>
      <trkpt lat="45.32542" lon="6.0472">
        <ele>1444.8</ele>
        <time>2021-01-16T13:29:49Z</time>
      </trkpt>
      <trkpt lat="45.32543" lon="6.04718">
        <ele>1444.8</ele>
        <time>2021-01-16T13:29:50Z</time>
      </trkpt>
      <trkpt lat="45.32544" lon="6.04717">
        <ele>1444.8</ele>
        <time>2021-01-16T13:29:51Z</time>
      </trkpt>
      <trkpt lat="45.32545" lon="6.04716">
        <ele>1444.6</ele>
        <time>2021-01-16T13:29:52Z</time>
      </trkpt>
      <trkpt lat="45.32547" lon="6.04714">
        <ele>1444.6</ele>
        <time>2021-01-16T13:29:53Z</time>
      </trkpt>
      <trkpt lat="45.32548" lon="6.04713">
        <ele>1444.6</ele>
        <time>2021-01-16T13:29:54Z</time>
      </trkpt>
      <trkpt lat="45.32549" lon="6.04712">
        <ele>1444.4</ele>
        <time>2021-01-16T13:29:55Z</time>
      </trkpt>
      <trkpt lat="45.3255" lon="6.04711">
        <ele>1444.2</ele>
        <time>2021-01-16T13:29:56Z</time>
      </trkpt>
      <trkpt lat="45.32551" lon="6.0471">
        <ele>1444.2</ele>
        <time>2021-01-16T13:29:57Z</time>
      </trkpt>
      <trkpt lat="45.32552" lon="6.04709">
        <ele>1444.2</ele>
        <time>2021-01-16T13:29:58Z</time>
      </trkpt>
      <trkpt lat="45.32553" lon="6.04708">
        <ele>1444</ele>
        <time>2021-01-16T13:29:59Z</time>
      </trkpt>
      <trkpt lat="45.32554" lon="6.04707">
        <ele>1444</ele>
        <time>2021-01-16T13:30:00Z</time>
      </trkpt>
      <trkpt lat="45.32556" lon="6.04707">
        <ele>1443.8</ele>
        <time>2021-01-16T13:30:01Z</time>
      </trkpt>
      <trkpt lat="45.32556" lon="6.04707">
        <ele>1443.8</ele>
        <time>2021-01-16T13:30:02Z</time>
      </trkpt>
      <trkpt lat="45.32556" lon="6.04706">
        <ele>1443.8</ele>
        <time>2021-01-16T13:30:03Z</time>
      </trkpt>
      <trkpt lat="45.32556" lon="6.04706">
        <ele>1443.8</ele>
        <time>2021-01-16T13:30:04Z</time>
      </trkpt>
      <trkpt lat="45.32556" lon="6.04706">
        <ele>1443.6</ele>
        <time>2021-01-16T13:30:05Z</time>
      </trkpt>
      <trkpt lat="45.32556" lon="6.04706">
        <ele>1443.6</ele>
        <time>2021-01-16T13:30:06Z</time>
      </trkpt>
      <trkpt lat="45.32556" lon="6.04706">
        <ele>1443.6</ele>
        <time>2021-01-16T13:30:07Z</time>
      </trkpt>
      <trkpt lat="45.32556" lon="6.04706">
        <ele>1443.6</ele>
        <time>2021-01-16T13:30:08Z</time>
      </trkpt>
      <trkpt lat="45.32556" lon="6.04706">
        <ele>1443.6</ele>
        <time>2021-01-16T13:30:09Z</time>
      </trkpt>
      <trkpt lat="45.32556" lon="6.04706">
        <ele>1443.6</ele>
        <time>2021-01-16T13:30:10Z</time>
      </trkpt>
      <trkpt lat="45.32556" lon="6.04706">
        <ele>1443.6</ele>
        <time>2021-01-16T13:30:11Z</time>
      </trkpt>
      <trkpt lat="45.32556" lon="6.04706">
        <ele>1443.6</ele>
        <time>2021-01-16T13:30:12Z</time>
      </trkpt>
      <trkpt lat="45.32556" lon="6.04706">
        <ele>1443.6</ele>
        <time>2021-01-16T13:30:13Z</time>
      </trkpt>
      <trkpt lat="45.32556" lon="6.04706">
        <ele>1443.6</ele>
        <time>2021-01-16T13:30:14Z</time>
      </trkpt>
      <trkpt lat="45.32556" lon="6.04706">
        <ele>1443.6</ele>
        <time>2021-01-16T13:30:15Z</time>
      </trkpt>
      <trkpt lat="45.32556" lon="6.04706">
        <ele>1443.6</ele>
        <time>2021-01-16T13:30:16Z</time>
      </trkpt>
      <trkpt lat="45.32556" lon="6.04706">
        <ele>1443.6</ele>
        <time>2021-01-16T13:30:17Z</time>
      </trkpt>
      <trkpt lat="45.32556" lon="6.04706">
        <ele>1443.6</ele>
        <time>2021-01-16T13:30:18Z</time>
      </trkpt>
      <trkpt lat="45.32556" lon="6.04706">
        <ele>1443.6</ele>
        <time>2021-01-16T13:30:19Z</time>
      </trkpt>
      <trkpt lat="45.32556" lon="6.04706">
        <ele>1443.6</ele>
        <time>2021-01-16T13:30:20Z</time>
      </trkpt>
      <trkpt lat="45.32556" lon="6.04706">
        <ele>1443.6</ele>
        <time>2021-01-16T13:30:21Z</time>
      </trkpt>
      <trkpt lat="45.32556" lon="6.04706">
        <ele>1443.6</ele>
        <time>2021-01-16T13:30:22Z</time>
      </trkpt>
      <trkpt lat="45.32556" lon="6.04706">
        <ele>1443.6</ele>
        <time>2021-01-16T13:30:23Z</time>
      </trkpt>
      <trkpt lat="45.32556" lon="6.04706">
        <ele>1443.6</ele>
        <time>2021-01-16T13:30:24Z</time>
      </trkpt>
      <trkpt lat="45.32556" lon="6.04706">
        <ele>1443.6</ele>
        <time>2021-01-16T13:30:25Z</time>
      </trkpt>
      <trkpt lat="45.32556" lon="6.04706">
        <ele>1443.6</ele>
        <time>2021-01-16T13:30:26Z</time>
      </trkpt>
      <trkpt lat="45.32556" lon="6.04706">
        <ele>1443.8</ele>
        <time>2021-01-16T13:30:27Z</time>
      </trkpt>
      <trkpt lat="45.32556" lon="6.04706">
        <ele>1443.8</ele>
        <time>2021-01-16T13:30:28Z</time>
      </trkpt>
      <trkpt lat="45.32556" lon="6.04706">
        <ele>1443.8</ele>
        <time>2021-01-16T13:30:29Z</time>
      </trkpt>
      <trkpt lat="45.32556" lon="6.04706">
        <ele>1443.8</ele>
        <time>2021-01-16T13:30:30Z</time>
      </trkpt>
      <trkpt lat="45.32556" lon="6.04706">
        <ele>1443.8</ele>
        <time>2021-01-16T13:30:31Z</time>
      </trkpt>
      <trkpt lat="45.32556" lon="6.04706">
        <ele>1443.8</ele>
        <time>2021-01-16T13:30:32Z</time>
      </trkpt>
      <trkpt lat="45.32556" lon="6.04706">
        <ele>1443.8</ele>
        <time>2021-01-16T13:30:33Z</time>
      </trkpt>
      <trkpt lat="45.32556" lon="6.04706">
        <ele>1443.8</ele>
        <time>2021-01-16T13:30:34Z</time>
      </trkpt>
      <trkpt lat="45.32556" lon="6.04706">
        <ele>1443.8</ele>
        <time>2021-01-16T13:30:35Z</time>
      </trkpt>
      <trkpt lat="45.32556" lon="6.04706">
        <ele>1443.8</ele>
        <time>2021-01-16T13:30:36Z</time>
      </trkpt>
      <trkpt lat="45.32556" lon="6.04706">
        <ele>1443.8</ele>
        <time>2021-01-16T13:30:37Z</time>
      </trkpt>
      <trkpt lat="45.32556" lon="6.04706">
        <ele>1443.8</ele>
        <time>2021-01-16T13:30:38Z</time>
      </trkpt>
      <trkpt lat="45.32556" lon="6.04706">
        <ele>1443.8</ele>
        <time>2021-01-16T13:30:39Z</time>
      </trkpt>
      <trkpt lat="45.32556" lon="6.04706">
        <ele>1443.8</ele>
        <time>2021-01-16T13:30:40Z</time>
      </trkpt>
      <trkpt lat="45.32556" lon="6.04706">
        <ele>1444</ele>
        <time>2021-01-16T13:30:41Z</time>
      </trkpt>
      <trkpt lat="45.32556" lon="6.04706">
        <ele>1444</ele>
        <time>2021-01-16T13:30:42Z</time>
      </trkpt>
      <trkpt lat="45.32556" lon="6.04706">
        <ele>1443.8</ele>
        <time>2021-01-16T13:30:43Z</time>
      </trkpt>
      <trkpt lat="45.32556" lon="6.04706">
        <ele>1443.8</ele>
        <time>2021-01-16T13:30:44Z</time>
      </trkpt>
      <trkpt lat="45.32556" lon="6.04706">
        <ele>1444</ele>
        <time>2021-01-16T13:30:45Z</time>
      </trkpt>
      <trkpt lat="45.32556" lon="6.04706">
        <ele>1444</ele>
        <time>2021-01-16T13:30:46Z</time>
      </trkpt>
      <trkpt lat="45.32556" lon="6.04706">
        <ele>1444</ele>
        <time>2021-01-16T13:30:47Z</time>
      </trkpt>
      <trkpt lat="45.32556" lon="6.04706">
        <ele>1444</ele>
        <time>2021-01-16T13:30:48Z</time>
      </trkpt>
      <trkpt lat="45.32556" lon="6.04706">
        <ele>1444</ele>
        <time>2021-01-16T13:30:49Z</time>
      </trkpt>
      <trkpt lat="45.32556" lon="6.04706">
        <ele>1444</ele>
        <time>2021-01-16T13:30:50Z</time>
      </trkpt>
      <trkpt lat="45.32556" lon="6.04706">
        <ele>1444</ele>
        <time>2021-01-16T13:30:51Z</time>
      </trkpt>
      <trkpt lat="45.32556" lon="6.04706">
        <ele>1444</ele>
        <time>2021-01-16T13:30:52Z</time>
      </trkpt>
      <trkpt lat="45.32556" lon="6.04706">
        <ele>1444</ele>
        <time>2021-01-16T13:30:53Z</time>
      </trkpt>
      <trkpt lat="45.32556" lon="6.04706">
        <ele>1444</ele>
        <time>2021-01-16T13:30:54Z</time>
      </trkpt>
      <trkpt lat="45.32556" lon="6.04706">
        <ele>1444</ele>
        <time>2021-01-16T13:30:55Z</time>
      </trkpt>
      <trkpt lat="45.32556" lon="6.04706">
        <ele>1444</ele>
        <time>2021-01-16T13:30:56Z</time>
      </trkpt>
      <trkpt lat="45.32556" lon="6.04706">
        <ele>1444</ele>
        <time>2021-01-16T13:30:57Z</time>
      </trkpt>
      <trkpt lat="45.32556" lon="6.04706">
        <ele>1444</ele>
        <time>2021-01-16T13:30:58Z</time>
      </trkpt>
      <trkpt lat="45.32556" lon="6.04706">
        <ele>1444</ele>
        <time>2021-01-16T13:30:59Z</time>
      </trkpt>
      <trkpt lat="45.32556" lon="6.04706">
        <ele>1444</ele>
        <time>2021-01-16T13:31:00Z</time>
      </trkpt>
      <trkpt lat="45.32556" lon="6.04706">
        <ele>1444</ele>
        <time>2021-01-16T13:31:01Z</time>
      </trkpt>
      <trkpt lat="45.32556" lon="6.04706">
        <ele>1444.2</ele>
        <time>2021-01-16T13:31:02Z</time>
      </trkpt>
      <trkpt lat="45.32556" lon="6.04706">
        <ele>1444.2</ele>
        <time>2021-01-16T13:31:03Z</time>
      </trkpt>
      <trkpt lat="45.32556" lon="6.04706">
        <ele>1444.2</ele>
        <time>2021-01-16T13:31:04Z</time>
      </trkpt>
      <trkpt lat="45.32556" lon="6.04706">
        <ele>1444.2</ele>
        <time>2021-01-16T13:31:05Z</time>
      </trkpt>
      <trkpt lat="45.32556" lon="6.04706">
        <ele>1444.2</ele>
        <time>2021-01-16T13:31:06Z</time>
      </trkpt>
      <trkpt lat="45.32556" lon="6.04706">
        <ele>1444.2</ele>
        <time>2021-01-16T13:31:07Z</time>
      </trkpt>
      <trkpt lat="45.32556" lon="6.04706">
        <ele>1444.2</ele>
        <time>2021-01-16T13:31:08Z</time>
      </trkpt>
      <trkpt lat="45.32556" lon="6.04706">
        <ele>1444.2</ele>
        <time>2021-01-16T13:31:09Z</time>
      </trkpt>
      <trkpt lat="45.32556" lon="6.04706">
        <ele>1444.2</ele>
        <time>2021-01-16T13:31:10Z</time>
      </trkpt>
      <trkpt lat="45.32556" lon="6.04706">
        <ele>1444.2</ele>
        <time>2021-01-16T13:31:11Z</time>
      </trkpt>
      <trkpt lat="45.32556" lon="6.04706">
        <ele>1444.2</ele>
        <time>2021-01-16T13:31:12Z</time>
      </trkpt>
      <trkpt lat="45.32556" lon="6.04706">
        <ele>1444.2</ele>
        <time>2021-01-16T13:31:13Z</time>
      </trkpt>
      <trkpt lat="45.32556" lon="6.04706">
        <ele>1444.4</ele>
        <time>2021-01-16T13:31:14Z</time>
      </trkpt>
      <trkpt lat="45.32556" lon="6.04706">
        <ele>1444.4</ele>
        <time>2021-01-16T13:31:15Z</time>
      </trkpt>
      <trkpt lat="45.32556" lon="6.04706">
        <ele>1444.4</ele>
        <time>2021-01-16T13:31:16Z</time>
      </trkpt>
      <trkpt lat="45.32556" lon="6.04706">
        <ele>1444.4</ele>
        <time>2021-01-16T13:31:17Z</time>
      </trkpt>
      <trkpt lat="45.32556" lon="6.04706">
        <ele>1444.4</ele>
        <time>2021-01-16T13:31:18Z</time>
      </trkpt>
      <trkpt lat="45.32556" lon="6.04706">
        <ele>1444.4</ele>
        <time>2021-01-16T13:31:19Z</time>
      </trkpt>
      <trkpt lat="45.32556" lon="6.04706">
        <ele>1444.4</ele>
        <time>2021-01-16T13:31:20Z</time>
      </trkpt>
      <trkpt lat="45.32556" lon="6.04706">
        <ele>1444.4</ele>
        <time>2021-01-16T13:31:21Z</time>
      </trkpt>
      <trkpt lat="45.32556" lon="6.04706">
        <ele>1444.4</ele>
        <time>2021-01-16T13:31:22Z</time>
      </trkpt>
      <trkpt lat="45.32556" lon="6.04706">
        <ele>1444.4</ele>
        <time>2021-01-16T13:31:23Z</time>
      </trkpt>
      <trkpt lat="45.32556" lon="6.04706">
        <ele>1444.4</ele>
        <time>2021-01-16T13:31:24Z</time>
      </trkpt>
      <trkpt lat="45.32556" lon="6.04706">
        <ele>1444.4</ele>
        <time>2021-01-16T13:31:25Z</time>
      </trkpt>
      <trkpt lat="45.32556" lon="6.04706">
        <ele>1444.6</ele>
        <time>2021-01-16T13:31:26Z</time>
      </trkpt>
      <trkpt lat="45.32556" lon="6.04706">
        <ele>1444.4</ele>
        <time>2021-01-16T13:31:27Z</time>
      </trkpt>
      <trkpt lat="45.32556" lon="6.04706">
        <ele>1444.2</ele>
        <time>2021-01-16T13:31:28Z</time>
      </trkpt>
      <trkpt lat="45.32556" lon="6.04706">
        <ele>1444.4</ele>
        <time>2021-01-16T13:31:29Z</time>
      </trkpt>
      <trkpt lat="45.32556" lon="6.04706">
        <ele>1444.4</ele>
        <time>2021-01-16T13:31:30Z</time>
      </trkpt>
      <trkpt lat="45.32556" lon="6.04706">
        <ele>1444.4</ele>
        <time>2021-01-16T13:31:31Z</time>
      </trkpt>
      <trkpt lat="45.32556" lon="6.04706">
        <ele>1444.4</ele>
        <time>2021-01-16T13:31:32Z</time>
      </trkpt>
      <trkpt lat="45.32556" lon="6.04706">
        <ele>1444.6</ele>
        <time>2021-01-16T13:31:33Z</time>
      </trkpt>
      <trkpt lat="45.32556" lon="6.04706">
        <ele>1444.6</ele>
        <time>2021-01-16T13:31:34Z</time>
      </trkpt>
      <trkpt lat="45.32556" lon="6.04706">
        <ele>1444.8</ele>
        <time>2021-01-16T13:31:35Z</time>
      </trkpt>
      <trkpt lat="45.32556" lon="6.04706">
        <ele>1444.8</ele>
        <time>2021-01-16T13:31:36Z</time>
      </trkpt>
      <trkpt lat="45.32556" lon="6.04706">
        <ele>1444.6</ele>
        <time>2021-01-16T13:31:37Z</time>
      </trkpt>
      <trkpt lat="45.32556" lon="6.04706">
        <ele>1444.6</ele>
        <time>2021-01-16T13:31:38Z</time>
      </trkpt>
      <trkpt lat="45.32556" lon="6.04706">
        <ele>1444.6</ele>
        <time>2021-01-16T13:31:39Z</time>
      </trkpt>
      <trkpt lat="45.32556" lon="6.04706">
        <ele>1444.6</ele>
        <time>2021-01-16T13:31:40Z</time>
      </trkpt>
      <trkpt lat="45.32557" lon="6.04705">
        <ele>1444.6</ele>
        <time>2021-01-16T13:31:41Z</time>
      </trkpt>
      <trkpt lat="45.32558" lon="6.04705">
        <ele>1444.8</ele>
        <time>2021-01-16T13:31:42Z</time>
      </trkpt>
      <trkpt lat="45.32559" lon="6.04705">
        <ele>1444.8</ele>
        <time>2021-01-16T13:31:43Z</time>
      </trkpt>
      <trkpt lat="45.32559" lon="6.04705">
        <ele>1444.6</ele>
        <time>2021-01-16T13:31:44Z</time>
      </trkpt>
      <trkpt lat="45.32561" lon="6.04705">
        <ele>1444.6</ele>
        <time>2021-01-16T13:31:45Z</time>
      </trkpt>
      <trkpt lat="45.32561" lon="6.04704">
        <ele>1444.6</ele>
        <time>2021-01-16T13:31:46Z</time>
      </trkpt>
      <trkpt lat="45.32562" lon="6.04704">
        <ele>1444.6</ele>
        <time>2021-01-16T13:31:47Z</time>
      </trkpt>
      <trkpt lat="45.32563" lon="6.04704">
        <ele>1444.4</ele>
        <time>2021-01-16T13:31:48Z</time>
      </trkpt>
      <trkpt lat="45.32564" lon="6.04703">
        <ele>1444.4</ele>
        <time>2021-01-16T13:31:49Z</time>
      </trkpt>
      <trkpt lat="45.32566" lon="6.04703">
        <ele>1444.2</ele>
        <time>2021-01-16T13:31:50Z</time>
      </trkpt>
      <trkpt lat="45.32566" lon="6.04703">
        <ele>1444.2</ele>
        <time>2021-01-16T13:31:51Z</time>
      </trkpt>
      <trkpt lat="45.32567" lon="6.04703">
        <ele>1444.2</ele>
        <time>2021-01-16T13:31:52Z</time>
      </trkpt>
      <trkpt lat="45.32568" lon="6.04703">
        <ele>1444.2</ele>
        <time>2021-01-16T13:31:53Z</time>
      </trkpt>
      <trkpt lat="45.32569" lon="6.04702">
        <ele>1444</ele>
        <time>2021-01-16T13:31:54Z</time>
      </trkpt>
      <trkpt lat="45.3257" lon="6.04702">
        <ele>1444</ele>
        <time>2021-01-16T13:31:55Z</time>
      </trkpt>
      <trkpt lat="45.3257" lon="6.04702">
        <ele>1443.8</ele>
        <time>2021-01-16T13:31:56Z</time>
      </trkpt>
      <trkpt lat="45.32571" lon="6.04702">
        <ele>1443.8</ele>
        <time>2021-01-16T13:31:57Z</time>
      </trkpt>
      <trkpt lat="45.32572" lon="6.04701">
        <ele>1443.8</ele>
        <time>2021-01-16T13:31:58Z</time>
      </trkpt>
      <trkpt lat="45.32573" lon="6.04701">
        <ele>1443.6</ele>
        <time>2021-01-16T13:31:59Z</time>
      </trkpt>
      <trkpt lat="45.32574" lon="6.04701">
        <ele>1443.6</ele>
        <time>2021-01-16T13:32:00Z</time>
      </trkpt>
      <trkpt lat="45.32575" lon="6.04701">
        <ele>1443.6</ele>
        <time>2021-01-16T13:32:01Z</time>
      </trkpt>
      <trkpt lat="45.32576" lon="6.04701">
        <ele>1443.4</ele>
        <time>2021-01-16T13:32:02Z</time>
      </trkpt>
      <trkpt lat="45.32576" lon="6.04701">
        <ele>1443.4</ele>
        <time>2021-01-16T13:32:03Z</time>
      </trkpt>
      <trkpt lat="45.32577" lon="6.04701">
        <ele>1443.4</ele>
        <time>2021-01-16T13:32:04Z</time>
      </trkpt>
      <trkpt lat="45.32578" lon="6.04701">
        <ele>1443.2</ele>
        <time>2021-01-16T13:32:05Z</time>
      </trkpt>
      <trkpt lat="45.32579" lon="6.04701">
        <ele>1443.2</ele>
        <time>2021-01-16T13:32:06Z</time>
      </trkpt>
      <trkpt lat="45.3258" lon="6.04701">
        <ele>1443</ele>
        <time>2021-01-16T13:32:07Z</time>
      </trkpt>
      <trkpt lat="45.32581" lon="6.04701">
        <ele>1443</ele>
        <time>2021-01-16T13:32:08Z</time>
      </trkpt>
      <trkpt lat="45.32582" lon="6.04701">
        <ele>1443</ele>
        <time>2021-01-16T13:32:09Z</time>
      </trkpt>
      <trkpt lat="45.32583" lon="6.047">
        <ele>1443</ele>
        <time>2021-01-16T13:32:10Z</time>
      </trkpt>
      <trkpt lat="45.32584" lon="6.047">
        <ele>1442.8</ele>
        <time>2021-01-16T13:32:11Z</time>
      </trkpt>
      <trkpt lat="45.32585" lon="6.047">
        <ele>1442.8</ele>
        <time>2021-01-16T13:32:12Z</time>
      </trkpt>
      <trkpt lat="45.32586" lon="6.04699">
        <ele>1442.8</ele>
        <time>2021-01-16T13:32:13Z</time>
      </trkpt>
      <trkpt lat="45.32587" lon="6.04699">
        <ele>1442.6</ele>
        <time>2021-01-16T13:32:14Z</time>
      </trkpt>
      <trkpt lat="45.32588" lon="6.04699">
        <ele>1442.6</ele>
        <time>2021-01-16T13:32:15Z</time>
      </trkpt>
      <trkpt lat="45.32589" lon="6.04698">
        <ele>1442.6</ele>
        <time>2021-01-16T13:32:16Z</time>
      </trkpt>
      <trkpt lat="45.3259" lon="6.04698">
        <ele>1442.6</ele>
        <time>2021-01-16T13:32:17Z</time>
      </trkpt>
      <trkpt lat="45.3259" lon="6.04698">
        <ele>1442.4</ele>
        <time>2021-01-16T13:32:18Z</time>
      </trkpt>
      <trkpt lat="45.32592" lon="6.04698">
        <ele>1442.4</ele>
        <time>2021-01-16T13:32:19Z</time>
      </trkpt>
      <trkpt lat="45.32593" lon="6.04698">
        <ele>1442.2</ele>
        <time>2021-01-16T13:32:20Z</time>
      </trkpt>
      <trkpt lat="45.32593" lon="6.04698">
        <ele>1442.2</ele>
        <time>2021-01-16T13:32:21Z</time>
      </trkpt>
      <trkpt lat="45.32594" lon="6.04697">
        <ele>1442</ele>
        <time>2021-01-16T13:32:22Z</time>
      </trkpt>
      <trkpt lat="45.32595" lon="6.04697">
        <ele>1442</ele>
        <time>2021-01-16T13:32:23Z</time>
      </trkpt>
      <trkpt lat="45.32596" lon="6.04698">
        <ele>1442</ele>
        <time>2021-01-16T13:32:24Z</time>
      </trkpt>
      <trkpt lat="45.32597" lon="6.04698">
        <ele>1442</ele>
        <time>2021-01-16T13:32:25Z</time>
      </trkpt>
      <trkpt lat="45.32598" lon="6.04698">
        <ele>1441.8</ele>
        <time>2021-01-16T13:32:26Z</time>
      </trkpt>
      <trkpt lat="45.32599" lon="6.04697">
        <ele>1441.8</ele>
        <time>2021-01-16T13:32:27Z</time>
      </trkpt>
      <trkpt lat="45.32599" lon="6.04697">
        <ele>1441.6</ele>
        <time>2021-01-16T13:32:28Z</time>
      </trkpt>
      <trkpt lat="45.326" lon="6.04697">
        <ele>1441.6</ele>
        <time>2021-01-16T13:32:29Z</time>
      </trkpt>
      <trkpt lat="45.32601" lon="6.04696">
        <ele>1441.4</ele>
        <time>2021-01-16T13:32:30Z</time>
      </trkpt>
      <trkpt lat="45.32603" lon="6.04696">
        <ele>1441.4</ele>
        <time>2021-01-16T13:32:31Z</time>
      </trkpt>
      <trkpt lat="45.32603" lon="6.04695">
        <ele>1441.4</ele>
        <time>2021-01-16T13:32:32Z</time>
      </trkpt>
      <trkpt lat="45.32604" lon="6.04695">
        <ele>1441.2</ele>
        <time>2021-01-16T13:32:33Z</time>
      </trkpt>
      <trkpt lat="45.32606" lon="6.04695">
        <ele>1441.2</ele>
        <time>2021-01-16T13:32:34Z</time>
      </trkpt>
      <trkpt lat="45.32607" lon="6.04695">
        <ele>1441.2</ele>
        <time>2021-01-16T13:32:35Z</time>
      </trkpt>
      <trkpt lat="45.32608" lon="6.04695">
        <ele>1441</ele>
        <time>2021-01-16T13:32:36Z</time>
      </trkpt>
      <trkpt lat="45.32609" lon="6.04695">
        <ele>1441</ele>
        <time>2021-01-16T13:32:37Z</time>
      </trkpt>
      <trkpt lat="45.3261" lon="6.04696">
        <ele>1440.8</ele>
        <time>2021-01-16T13:32:38Z</time>
      </trkpt>
      <trkpt lat="45.32611" lon="6.04695">
        <ele>1440.8</ele>
        <time>2021-01-16T13:32:39Z</time>
      </trkpt>
      <trkpt lat="45.32612" lon="6.04695">
        <ele>1440.6</ele>
        <time>2021-01-16T13:32:40Z</time>
      </trkpt>
      <trkpt lat="45.32614" lon="6.04695">
        <ele>1440.6</ele>
        <time>2021-01-16T13:32:41Z</time>
      </trkpt>
      <trkpt lat="45.32615" lon="6.04695">
        <ele>1440.6</ele>
        <time>2021-01-16T13:32:42Z</time>
      </trkpt>
      <trkpt lat="45.32615" lon="6.04695">
        <ele>1440.6</ele>
        <time>2021-01-16T13:32:43Z</time>
      </trkpt>
      <trkpt lat="45.32616" lon="6.04694">
        <ele>1440.4</ele>
        <time>2021-01-16T13:32:44Z</time>
      </trkpt>
      <trkpt lat="45.32618" lon="6.04694">
        <ele>1440.4</ele>
        <time>2021-01-16T13:32:45Z</time>
      </trkpt>
      <trkpt lat="45.32619" lon="6.04694">
        <ele>1440.2</ele>
        <time>2021-01-16T13:32:46Z</time>
      </trkpt>
      <trkpt lat="45.32621" lon="6.04694">
        <ele>1440.2</ele>
        <time>2021-01-16T13:32:47Z</time>
      </trkpt>
      <trkpt lat="45.32622" lon="6.04694">
        <ele>1440</ele>
        <time>2021-01-16T13:32:48Z</time>
      </trkpt>
      <trkpt lat="45.32623" lon="6.04694">
        <ele>1440</ele>
        <time>2021-01-16T13:32:49Z</time>
      </trkpt>
      <trkpt lat="45.32624" lon="6.04694">
        <ele>1440</ele>
        <time>2021-01-16T13:32:50Z</time>
      </trkpt>
      <trkpt lat="45.32625" lon="6.04694">
        <ele>1439.8</ele>
        <time>2021-01-16T13:32:51Z</time>
      </trkpt>
      <trkpt lat="45.32626" lon="6.04693">
        <ele>1439.8</ele>
        <time>2021-01-16T13:32:52Z</time>
      </trkpt>
      <trkpt lat="45.32626" lon="6.04693">
        <ele>1439.6</ele>
        <time>2021-01-16T13:32:53Z</time>
      </trkpt>
      <trkpt lat="45.32626" lon="6.04693">
        <ele>1439.6</ele>
        <time>2021-01-16T13:32:54Z</time>
      </trkpt>
      <trkpt lat="45.32626" lon="6.04692">
        <ele>1439.6</ele>
        <time>2021-01-16T13:32:55Z</time>
      </trkpt>
      <trkpt lat="45.32626" lon="6.04692">
        <ele>1439.6</ele>
        <time>2021-01-16T13:32:56Z</time>
      </trkpt>
      <trkpt lat="45.32627" lon="6.04692">
        <ele>1439.6</ele>
        <time>2021-01-16T13:32:57Z</time>
      </trkpt>
      <trkpt lat="45.32629" lon="6.04692">
        <ele>1439.4</ele>
        <time>2021-01-16T13:32:58Z</time>
      </trkpt>
      <trkpt lat="45.3263" lon="6.04692">
        <ele>1439.4</ele>
        <time>2021-01-16T13:32:59Z</time>
      </trkpt>
      <trkpt lat="45.3263" lon="6.04692">
        <ele>1439.4</ele>
        <time>2021-01-16T13:33:00Z</time>
      </trkpt>
      <trkpt lat="45.32631" lon="6.04692">
        <ele>1439.4</ele>
        <time>2021-01-16T13:33:01Z</time>
      </trkpt>
      <trkpt lat="45.32632" lon="6.04692">
        <ele>1439.4</ele>
        <time>2021-01-16T13:33:02Z</time>
      </trkpt>
      <trkpt lat="45.32633" lon="6.04692">
        <ele>1439.4</ele>
        <time>2021-01-16T13:33:03Z</time>
      </trkpt>
      <trkpt lat="45.32634" lon="6.04691">
        <ele>1439.2</ele>
        <time>2021-01-16T13:33:04Z</time>
      </trkpt>
      <trkpt lat="45.32635" lon="6.04691">
        <ele>1439.2</ele>
        <time>2021-01-16T13:33:05Z</time>
      </trkpt>
      <trkpt lat="45.32636" lon="6.04691">
        <ele>1439.2</ele>
        <time>2021-01-16T13:33:06Z</time>
      </trkpt>
      <trkpt lat="45.32637" lon="6.04691">
        <ele>1439.2</ele>
        <time>2021-01-16T13:33:07Z</time>
      </trkpt>
      <trkpt lat="45.32638" lon="6.04692">
        <ele>1439</ele>
        <time>2021-01-16T13:33:08Z</time>
      </trkpt>
      <trkpt lat="45.32639" lon="6.04692">
        <ele>1439</ele>
        <time>2021-01-16T13:33:09Z</time>
      </trkpt>
      <trkpt lat="45.3264" lon="6.04691">
        <ele>1438.8</ele>
        <time>2021-01-16T13:33:10Z</time>
      </trkpt>
      <trkpt lat="45.32641" lon="6.04691">
        <ele>1438.6</ele>
        <time>2021-01-16T13:33:11Z</time>
      </trkpt>
      <trkpt lat="45.32643" lon="6.0469">
        <ele>1438.6</ele>
        <time>2021-01-16T13:33:12Z</time>
      </trkpt>
      <trkpt lat="45.32644" lon="6.04689">
        <ele>1438.4</ele>
        <time>2021-01-16T13:33:13Z</time>
      </trkpt>
      <trkpt lat="45.32646" lon="6.04689">
        <ele>1438.4</ele>
        <time>2021-01-16T13:33:14Z</time>
      </trkpt>
      <trkpt lat="45.32647" lon="6.04689">
        <ele>1438.2</ele>
        <time>2021-01-16T13:33:15Z</time>
      </trkpt>
      <trkpt lat="45.32648" lon="6.04688">
        <ele>1438.2</ele>
        <time>2021-01-16T13:33:16Z</time>
      </trkpt>
      <trkpt lat="45.3265" lon="6.04688">
        <ele>1438</ele>
        <time>2021-01-16T13:33:17Z</time>
      </trkpt>
      <trkpt lat="45.32651" lon="6.04687">
        <ele>1438</ele>
        <time>2021-01-16T13:33:18Z</time>
      </trkpt>
      <trkpt lat="45.32653" lon="6.04687">
        <ele>1437.8</ele>
        <time>2021-01-16T13:33:19Z</time>
      </trkpt>
      <trkpt lat="45.32655" lon="6.04687">
        <ele>1437.8</ele>
        <time>2021-01-16T13:33:20Z</time>
      </trkpt>
      <trkpt lat="45.32657" lon="6.04686">
        <ele>1437.6</ele>
        <time>2021-01-16T13:33:21Z</time>
      </trkpt>
      <trkpt lat="45.32658" lon="6.04687">
        <ele>1437.6</ele>
        <time>2021-01-16T13:33:22Z</time>
      </trkpt>
      <trkpt lat="45.3266" lon="6.04687">
        <ele>1437.4</ele>
        <time>2021-01-16T13:33:23Z</time>
      </trkpt>
      <trkpt lat="45.32662" lon="6.04686">
        <ele>1437.4</ele>
        <time>2021-01-16T13:33:24Z</time>
      </trkpt>
      <trkpt lat="45.32663" lon="6.04686">
        <ele>1437.2</ele>
        <time>2021-01-16T13:33:25Z</time>
      </trkpt>
      <trkpt lat="45.32665" lon="6.04686">
        <ele>1437.2</ele>
        <time>2021-01-16T13:33:26Z</time>
      </trkpt>
      <trkpt lat="45.32666" lon="6.04686">
        <ele>1437</ele>
        <time>2021-01-16T13:33:27Z</time>
      </trkpt>
      <trkpt lat="45.32667" lon="6.04685">
        <ele>1437</ele>
        <time>2021-01-16T13:33:28Z</time>
      </trkpt>
      <trkpt lat="45.32667" lon="6.04685">
        <ele>1436.8</ele>
        <time>2021-01-16T13:33:29Z</time>
      </trkpt>
      <trkpt lat="45.32668" lon="6.04684">
        <ele>1436.8</ele>
        <time>2021-01-16T13:33:30Z</time>
      </trkpt>
      <trkpt lat="45.32669" lon="6.04684">
        <ele>1436.6</ele>
        <time>2021-01-16T13:33:31Z</time>
      </trkpt>
      <trkpt lat="45.3267" lon="6.04683">
        <ele>1436.6</ele>
        <time>2021-01-16T13:33:32Z</time>
      </trkpt>
      <trkpt lat="45.32671" lon="6.04683">
        <ele>1436.4</ele>
        <time>2021-01-16T13:33:33Z</time>
      </trkpt>
      <trkpt lat="45.32673" lon="6.04683">
        <ele>1436.2</ele>
        <time>2021-01-16T13:33:34Z</time>
      </trkpt>
      <trkpt lat="45.32674" lon="6.04684">
        <ele>1436</ele>
        <time>2021-01-16T13:33:35Z</time>
      </trkpt>
      <trkpt lat="45.32676" lon="6.04684">
        <ele>1436</ele>
        <time>2021-01-16T13:33:36Z</time>
      </trkpt>
      <trkpt lat="45.32677" lon="6.04683">
        <ele>1435.8</ele>
        <time>2021-01-16T13:33:37Z</time>
      </trkpt>
      <trkpt lat="45.32678" lon="6.04683">
        <ele>1435.6</ele>
        <time>2021-01-16T13:33:38Z</time>
      </trkpt>
      <trkpt lat="45.32679" lon="6.04682">
        <ele>1435.6</ele>
        <time>2021-01-16T13:33:39Z</time>
      </trkpt>
      <trkpt lat="45.32681" lon="6.04681">
        <ele>1435.6</ele>
        <time>2021-01-16T13:33:40Z</time>
      </trkpt>
      <trkpt lat="45.32682" lon="6.0468">
        <ele>1435.4</ele>
        <time>2021-01-16T13:33:41Z</time>
      </trkpt>
      <trkpt lat="45.32683" lon="6.04679">
        <ele>1435.4</ele>
        <time>2021-01-16T13:33:42Z</time>
      </trkpt>
      <trkpt lat="45.32685" lon="6.04679">
        <ele>1435.2</ele>
        <time>2021-01-16T13:33:43Z</time>
      </trkpt>
      <trkpt lat="45.32686" lon="6.04678">
        <ele>1435.2</ele>
        <time>2021-01-16T13:33:44Z</time>
      </trkpt>
      <trkpt lat="45.32687" lon="6.04678">
        <ele>1435</ele>
        <time>2021-01-16T13:33:45Z</time>
      </trkpt>
      <trkpt lat="45.32687" lon="6.04677">
        <ele>1434.8</ele>
        <time>2021-01-16T13:33:46Z</time>
      </trkpt>
      <trkpt lat="45.32688" lon="6.04678">
        <ele>1434.6</ele>
        <time>2021-01-16T13:33:47Z</time>
      </trkpt>
      <trkpt lat="45.32688" lon="6.04678">
        <ele>1434.6</ele>
        <time>2021-01-16T13:33:48Z</time>
      </trkpt>
      <trkpt lat="45.32688" lon="6.04678">
        <ele>1434.4</ele>
        <time>2021-01-16T13:33:49Z</time>
      </trkpt>
      <trkpt lat="45.32688" lon="6.04678">
        <ele>1434.6</ele>
        <time>2021-01-16T13:33:50Z</time>
      </trkpt>
      <trkpt lat="45.32688" lon="6.04678">
        <ele>1434.4</ele>
        <time>2021-01-16T13:33:51Z</time>
      </trkpt>
      <trkpt lat="45.32688" lon="6.04678">
        <ele>1434.4</ele>
        <time>2021-01-16T13:33:52Z</time>
      </trkpt>
      <trkpt lat="45.32688" lon="6.04678">
        <ele>1434.4</ele>
        <time>2021-01-16T13:33:53Z</time>
      </trkpt>
      <trkpt lat="45.32688" lon="6.04678">
        <ele>1434.6</ele>
        <time>2021-01-16T13:33:54Z</time>
      </trkpt>
      <trkpt lat="45.32688" lon="6.04678">
        <ele>1434.6</ele>
        <time>2021-01-16T13:33:55Z</time>
      </trkpt>
      <trkpt lat="45.32688" lon="6.04678">
        <ele>1434.6</ele>
        <time>2021-01-16T13:33:56Z</time>
      </trkpt>
      <trkpt lat="45.32688" lon="6.04678">
        <ele>1434.6</ele>
        <time>2021-01-16T13:33:57Z</time>
      </trkpt>
      <trkpt lat="45.32688" lon="6.04678">
        <ele>1434.6</ele>
        <time>2021-01-16T13:33:58Z</time>
      </trkpt>
      <trkpt lat="45.3269" lon="6.04677">
        <ele>1434.6</ele>
        <time>2021-01-16T13:33:59Z</time>
      </trkpt>
      <trkpt lat="45.32691" lon="6.04677">
        <ele>1434.6</ele>
        <time>2021-01-16T13:34:00Z</time>
      </trkpt>
      <trkpt lat="45.32692" lon="6.04676">
        <ele>1434.4</ele>
        <time>2021-01-16T13:34:01Z</time>
      </trkpt>
      <trkpt lat="45.32692" lon="6.04675">
        <ele>1434.4</ele>
        <time>2021-01-16T13:34:02Z</time>
      </trkpt>
      <trkpt lat="45.32693" lon="6.04675">
        <ele>1434.4</ele>
        <time>2021-01-16T13:34:03Z</time>
      </trkpt>
      <trkpt lat="45.32695" lon="6.04675">
        <ele>1434.2</ele>
        <time>2021-01-16T13:34:04Z</time>
      </trkpt>
      <trkpt lat="45.32696" lon="6.04674">
        <ele>1434.2</ele>
        <time>2021-01-16T13:34:05Z</time>
      </trkpt>
      <trkpt lat="45.32698" lon="6.04674">
        <ele>1434.2</ele>
        <time>2021-01-16T13:34:06Z</time>
      </trkpt>
      <trkpt lat="45.32699" lon="6.04673">
        <ele>1434.2</ele>
        <time>2021-01-16T13:34:07Z</time>
      </trkpt>
      <trkpt lat="45.32699" lon="6.04672">
        <ele>1434.2</ele>
        <time>2021-01-16T13:34:08Z</time>
      </trkpt>
      <trkpt lat="45.327" lon="6.04671">
        <ele>1434</ele>
        <time>2021-01-16T13:34:09Z</time>
      </trkpt>
      <trkpt lat="45.32701" lon="6.04671">
        <ele>1433.8</ele>
        <time>2021-01-16T13:34:10Z</time>
      </trkpt>
      <trkpt lat="45.32702" lon="6.0467">
        <ele>1433.8</ele>
        <time>2021-01-16T13:34:11Z</time>
      </trkpt>
      <trkpt lat="45.32703" lon="6.0467">
        <ele>1433.6</ele>
        <time>2021-01-16T13:34:12Z</time>
      </trkpt>
      <trkpt lat="45.32704" lon="6.04669">
        <ele>1433.4</ele>
        <time>2021-01-16T13:34:13Z</time>
      </trkpt>
      <trkpt lat="45.32706" lon="6.04669">
        <ele>1433.2</ele>
        <time>2021-01-16T13:34:14Z</time>
      </trkpt>
      <trkpt lat="45.32707" lon="6.04668">
        <ele>1433</ele>
        <time>2021-01-16T13:34:15Z</time>
      </trkpt>
      <trkpt lat="45.32708" lon="6.04668">
        <ele>1433</ele>
        <time>2021-01-16T13:34:16Z</time>
      </trkpt>
      <trkpt lat="45.32709" lon="6.04667">
        <ele>1432.8</ele>
        <time>2021-01-16T13:34:17Z</time>
      </trkpt>
      <trkpt lat="45.32711" lon="6.04667">
        <ele>1432.6</ele>
        <time>2021-01-16T13:34:18Z</time>
      </trkpt>
      <trkpt lat="45.32712" lon="6.04667">
        <ele>1432.6</ele>
        <time>2021-01-16T13:34:19Z</time>
      </trkpt>
      <trkpt lat="45.32713" lon="6.04666">
        <ele>1432.6</ele>
        <time>2021-01-16T13:34:20Z</time>
      </trkpt>
      <trkpt lat="45.32714" lon="6.04666">
        <ele>1432.4</ele>
        <time>2021-01-16T13:34:21Z</time>
      </trkpt>
      <trkpt lat="45.32715" lon="6.04666">
        <ele>1432.2</ele>
        <time>2021-01-16T13:34:22Z</time>
      </trkpt>
      <trkpt lat="45.32716" lon="6.04666">
        <ele>1432.2</ele>
        <time>2021-01-16T13:34:23Z</time>
      </trkpt>
      <trkpt lat="45.32717" lon="6.04666">
        <ele>1432</ele>
        <time>2021-01-16T13:34:24Z</time>
      </trkpt>
      <trkpt lat="45.32719" lon="6.04666">
        <ele>1432</ele>
        <time>2021-01-16T13:34:25Z</time>
      </trkpt>
      <trkpt lat="45.3272" lon="6.04666">
        <ele>1431.8</ele>
        <time>2021-01-16T13:34:26Z</time>
      </trkpt>
      <trkpt lat="45.32722" lon="6.04667">
        <ele>1431.6</ele>
        <time>2021-01-16T13:34:27Z</time>
      </trkpt>
      <trkpt lat="45.32723" lon="6.04667">
        <ele>1431.4</ele>
        <time>2021-01-16T13:34:28Z</time>
      </trkpt>
      <trkpt lat="45.32725" lon="6.04667">
        <ele>1431.2</ele>
        <time>2021-01-16T13:34:29Z</time>
      </trkpt>
      <trkpt lat="45.32726" lon="6.04667">
        <ele>1431.2</ele>
        <time>2021-01-16T13:34:30Z</time>
      </trkpt>
      <trkpt lat="45.32727" lon="6.04667">
        <ele>1431.2</ele>
        <time>2021-01-16T13:34:31Z</time>
      </trkpt>
      <trkpt lat="45.32728" lon="6.04666">
        <ele>1431</ele>
        <time>2021-01-16T13:34:32Z</time>
      </trkpt>
      <trkpt lat="45.3273" lon="6.04666">
        <ele>1430.6</ele>
        <time>2021-01-16T13:34:33Z</time>
      </trkpt>
      <trkpt lat="45.32731" lon="6.04666">
        <ele>1430.6</ele>
        <time>2021-01-16T13:34:34Z</time>
      </trkpt>
      <trkpt lat="45.32732" lon="6.04667">
        <ele>1430.4</ele>
        <time>2021-01-16T13:34:35Z</time>
      </trkpt>
      <trkpt lat="45.32734" lon="6.04667">
        <ele>1430.4</ele>
        <time>2021-01-16T13:34:36Z</time>
      </trkpt>
      <trkpt lat="45.32735" lon="6.04667">
        <ele>1430.4</ele>
        <time>2021-01-16T13:34:37Z</time>
      </trkpt>
      <trkpt lat="45.32736" lon="6.04667">
        <ele>1430.2</ele>
        <time>2021-01-16T13:34:38Z</time>
      </trkpt>
      <trkpt lat="45.32737" lon="6.04667">
        <ele>1430.2</ele>
        <time>2021-01-16T13:34:39Z</time>
      </trkpt>
      <trkpt lat="45.32738" lon="6.04667">
        <ele>1430</ele>
        <time>2021-01-16T13:34:40Z</time>
      </trkpt>
      <trkpt lat="45.32738" lon="6.04667">
        <ele>1430</ele>
        <time>2021-01-16T13:34:41Z</time>
      </trkpt>
      <trkpt lat="45.32739" lon="6.04666">
        <ele>1430</ele>
        <time>2021-01-16T13:34:42Z</time>
      </trkpt>
      <trkpt lat="45.32739" lon="6.04666">
        <ele>1429.8</ele>
        <time>2021-01-16T13:34:43Z</time>
      </trkpt>
      <trkpt lat="45.32739" lon="6.04665">
        <ele>1429.8</ele>
        <time>2021-01-16T13:34:44Z</time>
      </trkpt>
      <trkpt lat="45.32739" lon="6.04664">
        <ele>1429.8</ele>
        <time>2021-01-16T13:34:45Z</time>
      </trkpt>
      <trkpt lat="45.32739" lon="6.04664">
        <ele>1429.6</ele>
        <time>2021-01-16T13:34:46Z</time>
      </trkpt>
      <trkpt lat="45.32739" lon="6.04665">
        <ele>1429.6</ele>
        <time>2021-01-16T13:34:47Z</time>
      </trkpt>
      <trkpt lat="45.32739" lon="6.04665">
        <ele>1429.6</ele>
        <time>2021-01-16T13:34:48Z</time>
      </trkpt>
      <trkpt lat="45.32739" lon="6.04665">
        <ele>1429.6</ele>
        <time>2021-01-16T13:34:49Z</time>
      </trkpt>
      <trkpt lat="45.32739" lon="6.04665">
        <ele>1429.6</ele>
        <time>2021-01-16T13:34:50Z</time>
      </trkpt>
      <trkpt lat="45.32739" lon="6.04665">
        <ele>1429.6</ele>
        <time>2021-01-16T13:34:51Z</time>
      </trkpt>
      <trkpt lat="45.32739" lon="6.04665">
        <ele>1429.6</ele>
        <time>2021-01-16T13:34:52Z</time>
      </trkpt>
      <trkpt lat="45.32739" lon="6.04665">
        <ele>1429.6</ele>
        <time>2021-01-16T13:34:53Z</time>
      </trkpt>
      <trkpt lat="45.32739" lon="6.04665">
        <ele>1429.6</ele>
        <time>2021-01-16T13:34:54Z</time>
      </trkpt>
      <trkpt lat="45.32739" lon="6.04665">
        <ele>1429.6</ele>
        <time>2021-01-16T13:34:55Z</time>
      </trkpt>
      <trkpt lat="45.32739" lon="6.04665">
        <ele>1429.6</ele>
        <time>2021-01-16T13:34:56Z</time>
      </trkpt>
      <trkpt lat="45.32739" lon="6.04665">
        <ele>1429.6</ele>
        <time>2021-01-16T13:34:57Z</time>
      </trkpt>
      <trkpt lat="45.32739" lon="6.04665">
        <ele>1429.6</ele>
        <time>2021-01-16T13:34:58Z</time>
      </trkpt>
      <trkpt lat="45.32739" lon="6.04665">
        <ele>1429.6</ele>
        <time>2021-01-16T13:34:59Z</time>
      </trkpt>
      <trkpt lat="45.32739" lon="6.04665">
        <ele>1429.6</ele>
        <time>2021-01-16T13:35:00Z</time>
      </trkpt>
      <trkpt lat="45.32739" lon="6.04665">
        <ele>1429.6</ele>
        <time>2021-01-16T13:35:01Z</time>
      </trkpt>
      <trkpt lat="45.32739" lon="6.04665">
        <ele>1429.6</ele>
        <time>2021-01-16T13:35:02Z</time>
      </trkpt>
      <trkpt lat="45.32739" lon="6.04665">
        <ele>1429.6</ele>
        <time>2021-01-16T13:35:03Z</time>
      </trkpt>
      <trkpt lat="45.32739" lon="6.04665">
        <ele>1429.4</ele>
        <time>2021-01-16T13:35:04Z</time>
      </trkpt>
      <trkpt lat="45.32739" lon="6.04665">
        <ele>1429.6</ele>
        <time>2021-01-16T13:35:05Z</time>
      </trkpt>
      <trkpt lat="45.32739" lon="6.04665">
        <ele>1429.4</ele>
        <time>2021-01-16T13:35:06Z</time>
      </trkpt>
      <trkpt lat="45.32739" lon="6.04665">
        <ele>1429.4</ele>
        <time>2021-01-16T13:35:07Z</time>
      </trkpt>
      <trkpt lat="45.32739" lon="6.04665">
        <ele>1429.6</ele>
        <time>2021-01-16T13:35:08Z</time>
      </trkpt>
      <trkpt lat="45.32739" lon="6.04665">
        <ele>1429.6</ele>
        <time>2021-01-16T13:35:09Z</time>
      </trkpt>
      <trkpt lat="45.32739" lon="6.04665">
        <ele>1429.6</ele>
        <time>2021-01-16T13:35:10Z</time>
      </trkpt>
      <trkpt lat="45.32739" lon="6.04665">
        <ele>1429.6</ele>
        <time>2021-01-16T13:35:11Z</time>
      </trkpt>
      <trkpt lat="45.32739" lon="6.04665">
        <ele>1429.6</ele>
        <time>2021-01-16T13:35:12Z</time>
      </trkpt>
      <trkpt lat="45.32739" lon="6.04665">
        <ele>1429.8</ele>
        <time>2021-01-16T13:35:13Z</time>
      </trkpt>
      <trkpt lat="45.32739" lon="6.04665">
        <ele>1429.6</ele>
        <time>2021-01-16T13:35:14Z</time>
      </trkpt>
      <trkpt lat="45.32739" lon="6.04665">
        <ele>1429.8</ele>
        <time>2021-01-16T13:35:15Z</time>
      </trkpt>
      <trkpt lat="45.32739" lon="6.04665">
        <ele>1429.8</ele>
        <time>2021-01-16T13:35:16Z</time>
      </trkpt>
      <trkpt lat="45.32739" lon="6.04665">
        <ele>1429.8</ele>
        <time>2021-01-16T13:35:17Z</time>
      </trkpt>
      <trkpt lat="45.32739" lon="6.04665">
        <ele>1429.8</ele>
        <time>2021-01-16T13:35:18Z</time>
      </trkpt>
      <trkpt lat="45.32739" lon="6.04665">
        <ele>1429.8</ele>
        <time>2021-01-16T13:35:19Z</time>
      </trkpt>
      <trkpt lat="45.32739" lon="6.04665">
        <ele>1429.8</ele>
        <time>2021-01-16T13:35:20Z</time>
      </trkpt>
      <trkpt lat="45.32739" lon="6.04665">
        <ele>1429.8</ele>
        <time>2021-01-16T13:35:21Z</time>
      </trkpt>
      <trkpt lat="45.32739" lon="6.04665">
        <ele>1430</ele>
        <time>2021-01-16T13:35:22Z</time>
      </trkpt>
      <trkpt lat="45.32739" lon="6.04665">
        <ele>1430</ele>
        <time>2021-01-16T13:35:23Z</time>
      </trkpt>
      <trkpt lat="45.32739" lon="6.04665">
        <ele>1429.8</ele>
        <time>2021-01-16T13:35:24Z</time>
      </trkpt>
      <trkpt lat="45.32739" lon="6.04665">
        <ele>1429.8</ele>
        <time>2021-01-16T13:35:25Z</time>
      </trkpt>
      <trkpt lat="45.32739" lon="6.04665">
        <ele>1429.8</ele>
        <time>2021-01-16T13:35:26Z</time>
      </trkpt>
      <trkpt lat="45.32739" lon="6.04665">
        <ele>1429.8</ele>
        <time>2021-01-16T13:35:27Z</time>
      </trkpt>
      <trkpt lat="45.32739" lon="6.04665">
        <ele>1430</ele>
        <time>2021-01-16T13:35:28Z</time>
      </trkpt>
      <trkpt lat="45.32739" lon="6.04665">
        <ele>1430</ele>
        <time>2021-01-16T13:35:29Z</time>
      </trkpt>
      <trkpt lat="45.32739" lon="6.04665">
        <ele>1430</ele>
        <time>2021-01-16T13:35:30Z</time>
      </trkpt>
      <trkpt lat="45.32739" lon="6.04665">
        <ele>1430</ele>
        <time>2021-01-16T13:35:31Z</time>
      </trkpt>
      <trkpt lat="45.32739" lon="6.04665">
        <ele>1430</ele>
        <time>2021-01-16T13:35:32Z</time>
      </trkpt>
      <trkpt lat="45.32739" lon="6.04665">
        <ele>1430</ele>
        <time>2021-01-16T13:35:33Z</time>
      </trkpt>
      <trkpt lat="45.32739" lon="6.04665">
        <ele>1430</ele>
        <time>2021-01-16T13:35:34Z</time>
      </trkpt>
      <trkpt lat="45.32739" lon="6.04665">
        <ele>1430</ele>
        <time>2021-01-16T13:35:35Z</time>
      </trkpt>
      <trkpt lat="45.32739" lon="6.04665">
        <ele>1430</ele>
        <time>2021-01-16T13:35:36Z</time>
      </trkpt>
      <trkpt lat="45.32739" lon="6.04665">
        <ele>1430</ele>
        <time>2021-01-16T13:35:37Z</time>
      </trkpt>
      <trkpt lat="45.32739" lon="6.04665">
        <ele>1430</ele>
        <time>2021-01-16T13:35:38Z</time>
      </trkpt>
      <trkpt lat="45.32739" lon="6.04665">
        <ele>1430</ele>
        <time>2021-01-16T13:35:39Z</time>
      </trkpt>
      <trkpt lat="45.32739" lon="6.04665">
        <ele>1430</ele>
        <time>2021-01-16T13:35:40Z</time>
      </trkpt>
      <trkpt lat="45.32739" lon="6.04665">
        <ele>1430.2</ele>
        <time>2021-01-16T13:35:41Z</time>
      </trkpt>
      <trkpt lat="45.32739" lon="6.04665">
        <ele>1430.2</ele>
        <time>2021-01-16T13:35:42Z</time>
      </trkpt>
      <trkpt lat="45.32739" lon="6.04665">
        <ele>1430.2</ele>
        <time>2021-01-16T13:35:43Z</time>
      </trkpt>
      <trkpt lat="45.32739" lon="6.04665">
        <ele>1430.2</ele>
        <time>2021-01-16T13:35:44Z</time>
      </trkpt>
      <trkpt lat="45.32739" lon="6.04665">
        <ele>1430.2</ele>
        <time>2021-01-16T13:35:45Z</time>
      </trkpt>
      <trkpt lat="45.32739" lon="6.04665">
        <ele>1430.2</ele>
        <time>2021-01-16T13:35:46Z</time>
      </trkpt>
      <trkpt lat="45.32739" lon="6.04665">
        <ele>1430.2</ele>
        <time>2021-01-16T13:35:47Z</time>
      </trkpt>
      <trkpt lat="45.32739" lon="6.04665">
        <ele>1430.2</ele>
        <time>2021-01-16T13:35:48Z</time>
      </trkpt>
      <trkpt lat="45.32739" lon="6.04665">
        <ele>1430.2</ele>
        <time>2021-01-16T13:35:49Z</time>
      </trkpt>
      <trkpt lat="45.32739" lon="6.04665">
        <ele>1430.2</ele>
        <time>2021-01-16T13:35:50Z</time>
      </trkpt>
      <trkpt lat="45.32739" lon="6.04665">
        <ele>1430.2</ele>
        <time>2021-01-16T13:35:51Z</time>
      </trkpt>
      <trkpt lat="45.32739" lon="6.04665">
        <ele>1430.2</ele>
        <time>2021-01-16T13:35:52Z</time>
      </trkpt>
      <trkpt lat="45.32739" lon="6.04665">
        <ele>1430.2</ele>
        <time>2021-01-16T13:35:53Z</time>
      </trkpt>
      <trkpt lat="45.32739" lon="6.04665">
        <ele>1430.2</ele>
        <time>2021-01-16T13:35:54Z</time>
      </trkpt>
      <trkpt lat="45.32739" lon="6.04665">
        <ele>1430.4</ele>
        <time>2021-01-16T13:35:55Z</time>
      </trkpt>
      <trkpt lat="45.3274" lon="6.04664">
        <ele>1430.4</ele>
        <time>2021-01-16T13:35:56Z</time>
      </trkpt>
      <trkpt lat="45.32742" lon="6.04663">
        <ele>1430.6</ele>
        <time>2021-01-16T13:35:57Z</time>
      </trkpt>
      <trkpt lat="45.32743" lon="6.04663">
        <ele>1430.4</ele>
        <time>2021-01-16T13:35:58Z</time>
      </trkpt>
      <trkpt lat="45.32743" lon="6.04664">
        <ele>1430.4</ele>
        <time>2021-01-16T13:35:59Z</time>
      </trkpt>
      <trkpt lat="45.32743" lon="6.04664">
        <ele>1430.4</ele>
        <time>2021-01-16T13:36:00Z</time>
      </trkpt>
      <trkpt lat="45.32742" lon="6.04666">
        <ele>1430.2</ele>
        <time>2021-01-16T13:36:01Z</time>
      </trkpt>
      <trkpt lat="45.32742" lon="6.04666">
        <ele>1430.4</ele>
        <time>2021-01-16T13:36:02Z</time>
      </trkpt>
      <trkpt lat="45.32742" lon="6.04667">
        <ele>1430.4</ele>
        <time>2021-01-16T13:36:03Z</time>
      </trkpt>
      <trkpt lat="45.32742" lon="6.04667">
        <ele>1430.4</ele>
        <time>2021-01-16T13:36:04Z</time>
      </trkpt>
      <trkpt lat="45.32742" lon="6.04667">
        <ele>1430.4</ele>
        <time>2021-01-16T13:36:05Z</time>
      </trkpt>
      <trkpt lat="45.32742" lon="6.04667">
        <ele>1430.4</ele>
        <time>2021-01-16T13:36:06Z</time>
      </trkpt>
      <trkpt lat="45.32742" lon="6.04667">
        <ele>1430.4</ele>
        <time>2021-01-16T13:36:07Z</time>
      </trkpt>
      <trkpt lat="45.32742" lon="6.04667">
        <ele>1430.4</ele>
        <time>2021-01-16T13:36:08Z</time>
      </trkpt>
      <trkpt lat="45.32742" lon="6.04667">
        <ele>1430.6</ele>
        <time>2021-01-16T13:36:09Z</time>
      </trkpt>
      <trkpt lat="45.32742" lon="6.04667">
        <ele>1430.6</ele>
        <time>2021-01-16T13:36:10Z</time>
      </trkpt>
      <trkpt lat="45.32742" lon="6.04667">
        <ele>1430.6</ele>
        <time>2021-01-16T13:36:11Z</time>
      </trkpt>
      <trkpt lat="45.32742" lon="6.04667">
        <ele>1430.4</ele>
        <time>2021-01-16T13:36:12Z</time>
      </trkpt>
      <trkpt lat="45.32742" lon="6.04667">
        <ele>1430.6</ele>
        <time>2021-01-16T13:36:13Z</time>
      </trkpt>
      <trkpt lat="45.32742" lon="6.04667">
        <ele>1430.6</ele>
        <time>2021-01-16T13:36:14Z</time>
      </trkpt>
      <trkpt lat="45.32742" lon="6.04667">
        <ele>1430.6</ele>
        <time>2021-01-16T13:36:15Z</time>
      </trkpt>
      <trkpt lat="45.32742" lon="6.04667">
        <ele>1430.6</ele>
        <time>2021-01-16T13:36:16Z</time>
      </trkpt>
      <trkpt lat="45.32742" lon="6.04667">
        <ele>1430.6</ele>
        <time>2021-01-16T13:36:17Z</time>
      </trkpt>
      <trkpt lat="45.32742" lon="6.04667">
        <ele>1430.6</ele>
        <time>2021-01-16T13:36:18Z</time>
      </trkpt>
      <trkpt lat="45.32742" lon="6.04667">
        <ele>1430.6</ele>
        <time>2021-01-16T13:36:19Z</time>
      </trkpt>
      <trkpt lat="45.32742" lon="6.04667">
        <ele>1430.8</ele>
        <time>2021-01-16T13:36:20Z</time>
      </trkpt>
      <trkpt lat="45.32742" lon="6.04667">
        <ele>1430.6</ele>
        <time>2021-01-16T13:36:21Z</time>
      </trkpt>
      <trkpt lat="45.32742" lon="6.04667">
        <ele>1430.8</ele>
        <time>2021-01-16T13:36:22Z</time>
      </trkpt>
      <trkpt lat="45.32742" lon="6.04667">
        <ele>1430.8</ele>
        <time>2021-01-16T13:36:23Z</time>
      </trkpt>
      <trkpt lat="45.32742" lon="6.04667">
        <ele>1430.8</ele>
        <time>2021-01-16T13:36:24Z</time>
      </trkpt>
      <trkpt lat="45.32742" lon="6.04667">
        <ele>1430.8</ele>
        <time>2021-01-16T13:36:25Z</time>
      </trkpt>
      <trkpt lat="45.32742" lon="6.04667">
        <ele>1431</ele>
        <time>2021-01-16T13:36:26Z</time>
      </trkpt>
      <trkpt lat="45.32742" lon="6.04667">
        <ele>1431</ele>
        <time>2021-01-16T13:36:27Z</time>
      </trkpt>
      <trkpt lat="45.32742" lon="6.04667">
        <ele>1431</ele>
        <time>2021-01-16T13:36:28Z</time>
      </trkpt>
      <trkpt lat="45.32742" lon="6.04667">
        <ele>1431</ele>
        <time>2021-01-16T13:36:29Z</time>
      </trkpt>
      <trkpt lat="45.32742" lon="6.04667">
        <ele>1431.2</ele>
        <time>2021-01-16T13:36:30Z</time>
      </trkpt>
      <trkpt lat="45.32742" lon="6.04667">
        <ele>1431.2</ele>
        <time>2021-01-16T13:36:31Z</time>
      </trkpt>
      <trkpt lat="45.32742" lon="6.04667">
        <ele>1431.2</ele>
        <time>2021-01-16T13:36:32Z</time>
      </trkpt>
      <trkpt lat="45.32742" lon="6.04667">
        <ele>1431.2</ele>
        <time>2021-01-16T13:36:33Z</time>
      </trkpt>
      <trkpt lat="45.32742" lon="6.04667">
        <ele>1431.2</ele>
        <time>2021-01-16T13:36:34Z</time>
      </trkpt>
      <trkpt lat="45.32742" lon="6.04667">
        <ele>1431.2</ele>
        <time>2021-01-16T13:36:35Z</time>
      </trkpt>
      <trkpt lat="45.32742" lon="6.04667">
        <ele>1431.2</ele>
        <time>2021-01-16T13:36:36Z</time>
      </trkpt>
      <trkpt lat="45.32742" lon="6.04667">
        <ele>1431.2</ele>
        <time>2021-01-16T13:36:37Z</time>
      </trkpt>
      <trkpt lat="45.32742" lon="6.04667">
        <ele>1431.2</ele>
        <time>2021-01-16T13:36:38Z</time>
      </trkpt>
      <trkpt lat="45.32742" lon="6.04667">
        <ele>1431.2</ele>
        <time>2021-01-16T13:36:39Z</time>
      </trkpt>
      <trkpt lat="45.32742" lon="6.04667">
        <ele>1431.2</ele>
        <time>2021-01-16T13:36:40Z</time>
      </trkpt>
      <trkpt lat="45.32742" lon="6.04667">
        <ele>1431.2</ele>
        <time>2021-01-16T13:36:41Z</time>
      </trkpt>
      <trkpt lat="45.32742" lon="6.04667">
        <ele>1431.2</ele>
        <time>2021-01-16T13:36:42Z</time>
      </trkpt>
      <trkpt lat="45.32742" lon="6.04667">
        <ele>1431.2</ele>
        <time>2021-01-16T13:36:43Z</time>
      </trkpt>
      <trkpt lat="45.32742" lon="6.04667">
        <ele>1431.2</ele>
        <time>2021-01-16T13:36:44Z</time>
      </trkpt>
      <trkpt lat="45.32742" lon="6.04667">
        <ele>1431.2</ele>
        <time>2021-01-16T13:36:45Z</time>
      </trkpt>
      <trkpt lat="45.32742" lon="6.04667">
        <ele>1431.2</ele>
        <time>2021-01-16T13:36:46Z</time>
      </trkpt>
      <trkpt lat="45.32742" lon="6.04667">
        <ele>1431.2</ele>
        <time>2021-01-16T13:36:47Z</time>
      </trkpt>
      <trkpt lat="45.32742" lon="6.04667">
        <ele>1431.2</ele>
        <time>2021-01-16T13:36:48Z</time>
      </trkpt>
      <trkpt lat="45.32742" lon="6.04667">
        <ele>1431.2</ele>
        <time>2021-01-16T13:36:49Z</time>
      </trkpt>
      <trkpt lat="45.32742" lon="6.04667">
        <ele>1431.4</ele>
        <time>2021-01-16T13:36:50Z</time>
      </trkpt>
      <trkpt lat="45.32742" lon="6.04667">
        <ele>1431.4</ele>
        <time>2021-01-16T13:36:51Z</time>
      </trkpt>
      <trkpt lat="45.32742" lon="6.04667">
        <ele>1431.4</ele>
        <time>2021-01-16T13:36:52Z</time>
      </trkpt>
      <trkpt lat="45.32742" lon="6.04667">
        <ele>1431.4</ele>
        <time>2021-01-16T13:36:53Z</time>
      </trkpt>
      <trkpt lat="45.32742" lon="6.04667">
        <ele>1431.4</ele>
        <time>2021-01-16T13:36:54Z</time>
      </trkpt>
      <trkpt lat="45.32742" lon="6.04667">
        <ele>1431.4</ele>
        <time>2021-01-16T13:36:55Z</time>
      </trkpt>
      <trkpt lat="45.32742" lon="6.04667">
        <ele>1431.4</ele>
        <time>2021-01-16T13:36:56Z</time>
      </trkpt>
      <trkpt lat="45.32742" lon="6.04667">
        <ele>1431.4</ele>
        <time>2021-01-16T13:36:57Z</time>
      </trkpt>
      <trkpt lat="45.32742" lon="6.04667">
        <ele>1431.4</ele>
        <time>2021-01-16T13:36:58Z</time>
      </trkpt>
      <trkpt lat="45.32742" lon="6.0467">
        <ele>1431.4</ele>
        <time>2021-01-16T13:36:59Z</time>
      </trkpt>
      <trkpt lat="45.32741" lon="6.0467">
        <ele>1431.4</ele>
        <time>2021-01-16T13:37:00Z</time>
      </trkpt>
      <trkpt lat="45.32741" lon="6.0467">
        <ele>1431.6</ele>
        <time>2021-01-16T13:37:01Z</time>
      </trkpt>
      <trkpt lat="45.32741" lon="6.0467">
        <ele>1431.6</ele>
        <time>2021-01-16T13:37:02Z</time>
      </trkpt>
      <trkpt lat="45.32741" lon="6.0467">
        <ele>1431.6</ele>
        <time>2021-01-16T13:37:03Z</time>
      </trkpt>
      <trkpt lat="45.32741" lon="6.0467">
        <ele>1431.6</ele>
        <time>2021-01-16T13:37:04Z</time>
      </trkpt>
      <trkpt lat="45.32741" lon="6.0467">
        <ele>1431.6</ele>
        <time>2021-01-16T13:37:05Z</time>
      </trkpt>
      <trkpt lat="45.32741" lon="6.0467">
        <ele>1431.6</ele>
        <time>2021-01-16T13:37:06Z</time>
      </trkpt>
      <trkpt lat="45.32741" lon="6.0467">
        <ele>1431.6</ele>
        <time>2021-01-16T13:37:07Z</time>
      </trkpt>
      <trkpt lat="45.32741" lon="6.0467">
        <ele>1431.8</ele>
        <time>2021-01-16T13:37:08Z</time>
      </trkpt>
      <trkpt lat="45.32741" lon="6.0467">
        <ele>1431.8</ele>
        <time>2021-01-16T13:37:09Z</time>
      </trkpt>
      <trkpt lat="45.32741" lon="6.0467">
        <ele>1431.8</ele>
        <time>2021-01-16T13:37:10Z</time>
      </trkpt>
      <trkpt lat="45.32741" lon="6.0467">
        <ele>1431.8</ele>
        <time>2021-01-16T13:37:11Z</time>
      </trkpt>
      <trkpt lat="45.32741" lon="6.0467">
        <ele>1431.8</ele>
        <time>2021-01-16T13:37:12Z</time>
      </trkpt>
      <trkpt lat="45.32741" lon="6.0467">
        <ele>1431.8</ele>
        <time>2021-01-16T13:37:13Z</time>
      </trkpt>
      <trkpt lat="45.32741" lon="6.0467">
        <ele>1431.8</ele>
        <time>2021-01-16T13:37:14Z</time>
      </trkpt>
      <trkpt lat="45.32741" lon="6.0467">
        <ele>1431.8</ele>
        <time>2021-01-16T13:37:15Z</time>
      </trkpt>
      <trkpt lat="45.32741" lon="6.0467">
        <ele>1431.8</ele>
        <time>2021-01-16T13:37:16Z</time>
      </trkpt>
      <trkpt lat="45.32741" lon="6.0467">
        <ele>1431.8</ele>
        <time>2021-01-16T13:37:17Z</time>
      </trkpt>
      <trkpt lat="45.32741" lon="6.0467">
        <ele>1431.8</ele>
        <time>2021-01-16T13:37:18Z</time>
      </trkpt>
      <trkpt lat="45.32741" lon="6.0467">
        <ele>1431.8</ele>
        <time>2021-01-16T13:37:19Z</time>
      </trkpt>
      <trkpt lat="45.32741" lon="6.0467">
        <ele>1432</ele>
        <time>2021-01-16T13:37:20Z</time>
      </trkpt>
      <trkpt lat="45.32741" lon="6.0467">
        <ele>1432</ele>
        <time>2021-01-16T13:37:21Z</time>
      </trkpt>
      <trkpt lat="45.32741" lon="6.0467">
        <ele>1432</ele>
        <time>2021-01-16T13:37:22Z</time>
      </trkpt>
      <trkpt lat="45.32741" lon="6.0467">
        <ele>1432</ele>
        <time>2021-01-16T13:37:23Z</time>
      </trkpt>
      <trkpt lat="45.32741" lon="6.0467">
        <ele>1432</ele>
        <time>2021-01-16T13:37:24Z</time>
      </trkpt>
      <trkpt lat="45.32741" lon="6.0467">
        <ele>1432</ele>
        <time>2021-01-16T13:37:25Z</time>
      </trkpt>
      <trkpt lat="45.32741" lon="6.0467">
        <ele>1432</ele>
        <time>2021-01-16T13:37:26Z</time>
      </trkpt>
      <trkpt lat="45.32741" lon="6.0467">
        <ele>1432</ele>
        <time>2021-01-16T13:37:27Z</time>
      </trkpt>
      <trkpt lat="45.32741" lon="6.0467">
        <ele>1432</ele>
        <time>2021-01-16T13:37:28Z</time>
      </trkpt>
      <trkpt lat="45.32741" lon="6.0467">
        <ele>1432</ele>
        <time>2021-01-16T13:37:29Z</time>
      </trkpt>
      <trkpt lat="45.32741" lon="6.0467">
        <ele>1432</ele>
        <time>2021-01-16T13:37:30Z</time>
      </trkpt>
      <trkpt lat="45.32741" lon="6.0467">
        <ele>1432.2</ele>
        <time>2021-01-16T13:37:31Z</time>
      </trkpt>
      <trkpt lat="45.32741" lon="6.0467">
        <ele>1432.2</ele>
        <time>2021-01-16T13:37:32Z</time>
      </trkpt>
      <trkpt lat="45.32741" lon="6.0467">
        <ele>1432.2</ele>
        <time>2021-01-16T13:37:33Z</time>
      </trkpt>
      <trkpt lat="45.32741" lon="6.0467">
        <ele>1432.2</ele>
        <time>2021-01-16T13:37:34Z</time>
      </trkpt>
      <trkpt lat="45.32741" lon="6.0467">
        <ele>1432.2</ele>
        <time>2021-01-16T13:37:35Z</time>
      </trkpt>
      <trkpt lat="45.32741" lon="6.0467">
        <ele>1432.2</ele>
        <time>2021-01-16T13:37:36Z</time>
      </trkpt>
      <trkpt lat="45.32741" lon="6.0467">
        <ele>1432.2</ele>
        <time>2021-01-16T13:37:37Z</time>
      </trkpt>
      <trkpt lat="45.32741" lon="6.0467">
        <ele>1432.2</ele>
        <time>2021-01-16T13:37:38Z</time>
      </trkpt>
      <trkpt lat="45.32741" lon="6.0467">
        <ele>1432.2</ele>
        <time>2021-01-16T13:37:39Z</time>
      </trkpt>
      <trkpt lat="45.32741" lon="6.0467">
        <ele>1432.2</ele>
        <time>2021-01-16T13:37:40Z</time>
      </trkpt>
      <trkpt lat="45.32741" lon="6.0467">
        <ele>1432.2</ele>
        <time>2021-01-16T13:37:41Z</time>
      </trkpt>
      <trkpt lat="45.32741" lon="6.0467">
        <ele>1432.2</ele>
        <time>2021-01-16T13:37:42Z</time>
      </trkpt>
      <trkpt lat="45.32741" lon="6.0467">
        <ele>1432.4</ele>
        <time>2021-01-16T13:37:43Z</time>
      </trkpt>
      <trkpt lat="45.32741" lon="6.0467">
        <ele>1432.4</ele>
        <time>2021-01-16T13:37:44Z</time>
      </trkpt>
      <trkpt lat="45.32741" lon="6.0467">
        <ele>1432.4</ele>
        <time>2021-01-16T13:37:45Z</time>
      </trkpt>
      <trkpt lat="45.32741" lon="6.0467">
        <ele>1432.4</ele>
        <time>2021-01-16T13:37:46Z</time>
      </trkpt>
      <trkpt lat="45.32741" lon="6.0467">
        <ele>1432.4</ele>
        <time>2021-01-16T13:37:47Z</time>
      </trkpt>
      <trkpt lat="45.32741" lon="6.0467">
        <ele>1432.4</ele>
        <time>2021-01-16T13:37:48Z</time>
      </trkpt>
      <trkpt lat="45.32741" lon="6.0467">
        <ele>1432.4</ele>
        <time>2021-01-16T13:37:49Z</time>
      </trkpt>
      <trkpt lat="45.32741" lon="6.0467">
        <ele>1432.4</ele>
        <time>2021-01-16T13:37:50Z</time>
      </trkpt>
      <trkpt lat="45.32741" lon="6.0467">
        <ele>1432.4</ele>
        <time>2021-01-16T13:37:51Z</time>
      </trkpt>
      <trkpt lat="45.32741" lon="6.0467">
        <ele>1432.4</ele>
        <time>2021-01-16T13:37:52Z</time>
      </trkpt>
      <trkpt lat="45.32741" lon="6.0467">
        <ele>1432.4</ele>
        <time>2021-01-16T13:37:53Z</time>
      </trkpt>
      <trkpt lat="45.32741" lon="6.0467">
        <ele>1432.4</ele>
        <time>2021-01-16T13:37:54Z</time>
      </trkpt>
      <trkpt lat="45.32741" lon="6.0467">
        <ele>1432.4</ele>
        <time>2021-01-16T13:37:55Z</time>
      </trkpt>
      <trkpt lat="45.32741" lon="6.0467">
        <ele>1432.6</ele>
        <time>2021-01-16T13:37:56Z</time>
      </trkpt>
      <trkpt lat="45.32741" lon="6.0467">
        <ele>1432.6</ele>
        <time>2021-01-16T13:37:57Z</time>
      </trkpt>
      <trkpt lat="45.32741" lon="6.0467">
        <ele>1432.6</ele>
        <time>2021-01-16T13:37:58Z</time>
      </trkpt>
      <trkpt lat="45.32741" lon="6.0467">
        <ele>1432.4</ele>
        <time>2021-01-16T13:37:59Z</time>
      </trkpt>
      <trkpt lat="45.32741" lon="6.0467">
        <ele>1432.4</ele>
        <time>2021-01-16T13:38:00Z</time>
      </trkpt>
      <trkpt lat="45.32741" lon="6.0467">
        <ele>1432.4</ele>
        <time>2021-01-16T13:38:01Z</time>
      </trkpt>
      <trkpt lat="45.32741" lon="6.0467">
        <ele>1432.6</ele>
        <time>2021-01-16T13:38:02Z</time>
      </trkpt>
      <trkpt lat="45.32741" lon="6.0467">
        <ele>1432.6</ele>
        <time>2021-01-16T13:38:03Z</time>
      </trkpt>
      <trkpt lat="45.32741" lon="6.0467">
        <ele>1432.6</ele>
        <time>2021-01-16T13:38:04Z</time>
      </trkpt>
      <trkpt lat="45.32741" lon="6.0467">
        <ele>1432.6</ele>
        <time>2021-01-16T13:38:05Z</time>
      </trkpt>
      <trkpt lat="45.32741" lon="6.0467">
        <ele>1432.6</ele>
        <time>2021-01-16T13:38:06Z</time>
      </trkpt>
      <trkpt lat="45.32741" lon="6.0467">
        <ele>1432.6</ele>
        <time>2021-01-16T13:38:07Z</time>
      </trkpt>
      <trkpt lat="45.32741" lon="6.0467">
        <ele>1432.6</ele>
        <time>2021-01-16T13:38:08Z</time>
      </trkpt>
      <trkpt lat="45.32741" lon="6.0467">
        <ele>1432.8</ele>
        <time>2021-01-16T13:38:09Z</time>
      </trkpt>
      <trkpt lat="45.32741" lon="6.0467">
        <ele>1432.8</ele>
        <time>2021-01-16T13:38:10Z</time>
      </trkpt>
      <trkpt lat="45.32741" lon="6.0467">
        <ele>1433</ele>
        <time>2021-01-16T13:38:11Z</time>
      </trkpt>
      <trkpt lat="45.32741" lon="6.0467">
        <ele>1433</ele>
        <time>2021-01-16T13:38:12Z</time>
      </trkpt>
      <trkpt lat="45.32741" lon="6.0467">
        <ele>1433</ele>
        <time>2021-01-16T13:38:13Z</time>
      </trkpt>
      <trkpt lat="45.32741" lon="6.0467">
        <ele>1433</ele>
        <time>2021-01-16T13:38:14Z</time>
      </trkpt>
      <trkpt lat="45.32741" lon="6.0467">
        <ele>1433</ele>
        <time>2021-01-16T13:38:15Z</time>
      </trkpt>
      <trkpt lat="45.32741" lon="6.0467">
        <ele>1433</ele>
        <time>2021-01-16T13:38:16Z</time>
      </trkpt>
      <trkpt lat="45.32741" lon="6.0467">
        <ele>1433</ele>
        <time>2021-01-16T13:38:17Z</time>
      </trkpt>
      <trkpt lat="45.32741" lon="6.0467">
        <ele>1433</ele>
        <time>2021-01-16T13:38:18Z</time>
      </trkpt>
      <trkpt lat="45.32741" lon="6.0467">
        <ele>1433</ele>
        <time>2021-01-16T13:38:19Z</time>
      </trkpt>
      <trkpt lat="45.32741" lon="6.0467">
        <ele>1433</ele>
        <time>2021-01-16T13:38:20Z</time>
      </trkpt>
      <trkpt lat="45.32741" lon="6.0467">
        <ele>1433</ele>
        <time>2021-01-16T13:38:21Z</time>
      </trkpt>
      <trkpt lat="45.32741" lon="6.0467">
        <ele>1433</ele>
        <time>2021-01-16T13:38:22Z</time>
      </trkpt>
      <trkpt lat="45.32741" lon="6.0467">
        <ele>1433</ele>
        <time>2021-01-16T13:38:23Z</time>
      </trkpt>
      <trkpt lat="45.32741" lon="6.0467">
        <ele>1433</ele>
        <time>2021-01-16T13:38:24Z</time>
      </trkpt>
      <trkpt lat="45.32741" lon="6.0467">
        <ele>1433</ele>
        <time>2021-01-16T13:38:25Z</time>
      </trkpt>
      <trkpt lat="45.32741" lon="6.0467">
        <ele>1433</ele>
        <time>2021-01-16T13:38:26Z</time>
      </trkpt>
      <trkpt lat="45.32741" lon="6.0467">
        <ele>1433</ele>
        <time>2021-01-16T13:38:27Z</time>
      </trkpt>
      <trkpt lat="45.32741" lon="6.0467">
        <ele>1433</ele>
        <time>2021-01-16T13:38:28Z</time>
      </trkpt>
      <trkpt lat="45.32741" lon="6.0467">
        <ele>1433</ele>
        <time>2021-01-16T13:38:29Z</time>
      </trkpt>
      <trkpt lat="45.32741" lon="6.0467">
        <ele>1433.2</ele>
        <time>2021-01-16T13:38:30Z</time>
      </trkpt>
      <trkpt lat="45.32741" lon="6.0467">
        <ele>1433.2</ele>
        <time>2021-01-16T13:38:31Z</time>
      </trkpt>
      <trkpt lat="45.32741" lon="6.0467">
        <ele>1433.2</ele>
        <time>2021-01-16T13:38:32Z</time>
      </trkpt>
      <trkpt lat="45.32741" lon="6.0467">
        <ele>1433.2</ele>
        <time>2021-01-16T13:38:33Z</time>
      </trkpt>
      <trkpt lat="45.32741" lon="6.0467">
        <ele>1433.2</ele>
        <time>2021-01-16T13:38:34Z</time>
      </trkpt>
      <trkpt lat="45.32741" lon="6.0467">
        <ele>1433.2</ele>
        <time>2021-01-16T13:38:35Z</time>
      </trkpt>
      <trkpt lat="45.32741" lon="6.0467">
        <ele>1433.2</ele>
        <time>2021-01-16T13:38:36Z</time>
      </trkpt>
      <trkpt lat="45.32741" lon="6.0467">
        <ele>1433.2</ele>
        <time>2021-01-16T13:38:37Z</time>
      </trkpt>
      <trkpt lat="45.32741" lon="6.0467">
        <ele>1433.4</ele>
        <time>2021-01-16T13:38:38Z</time>
      </trkpt>
      <trkpt lat="45.32741" lon="6.0467">
        <ele>1433.4</ele>
        <time>2021-01-16T13:38:39Z</time>
      </trkpt>
      <trkpt lat="45.32741" lon="6.0467">
        <ele>1433.4</ele>
        <time>2021-01-16T13:38:40Z</time>
      </trkpt>
      <trkpt lat="45.32741" lon="6.0467">
        <ele>1433.4</ele>
        <time>2021-01-16T13:38:41Z</time>
      </trkpt>
      <trkpt lat="45.32741" lon="6.0467">
        <ele>1433.4</ele>
        <time>2021-01-16T13:38:42Z</time>
      </trkpt>
      <trkpt lat="45.32741" lon="6.0467">
        <ele>1433.2</ele>
        <time>2021-01-16T13:38:43Z</time>
      </trkpt>
      <trkpt lat="45.32741" lon="6.0467">
        <ele>1433.2</ele>
        <time>2021-01-16T13:38:44Z</time>
      </trkpt>
      <trkpt lat="45.32741" lon="6.0467">
        <ele>1433.4</ele>
        <time>2021-01-16T13:38:45Z</time>
      </trkpt>
      <trkpt lat="45.32741" lon="6.0467">
        <ele>1433.4</ele>
        <time>2021-01-16T13:38:46Z</time>
      </trkpt>
      <trkpt lat="45.32741" lon="6.0467">
        <ele>1433.4</ele>
        <time>2021-01-16T13:38:47Z</time>
      </trkpt>
      <trkpt lat="45.32741" lon="6.0467">
        <ele>1433.4</ele>
        <time>2021-01-16T13:38:48Z</time>
      </trkpt>
      <trkpt lat="45.32741" lon="6.0467">
        <ele>1433.4</ele>
        <time>2021-01-16T13:38:49Z</time>
      </trkpt>
      <trkpt lat="45.32741" lon="6.0467">
        <ele>1433.2</ele>
        <time>2021-01-16T13:38:50Z</time>
      </trkpt>
      <trkpt lat="45.32741" lon="6.0467">
        <ele>1433.4</ele>
        <time>2021-01-16T13:38:51Z</time>
      </trkpt>
      <trkpt lat="45.32741" lon="6.0467">
        <ele>1433.4</ele>
        <time>2021-01-16T13:38:52Z</time>
      </trkpt>
      <trkpt lat="45.32741" lon="6.0467">
        <ele>1433.4</ele>
        <time>2021-01-16T13:38:53Z</time>
      </trkpt>
      <trkpt lat="45.32741" lon="6.0467">
        <ele>1433.4</ele>
        <time>2021-01-16T13:38:54Z</time>
      </trkpt>
      <trkpt lat="45.32741" lon="6.0467">
        <ele>1433.4</ele>
        <time>2021-01-16T13:38:55Z</time>
      </trkpt>
      <trkpt lat="45.32741" lon="6.0467">
        <ele>1433.6</ele>
        <time>2021-01-16T13:38:56Z</time>
      </trkpt>
      <trkpt lat="45.32741" lon="6.0467">
        <ele>1433.6</ele>
        <time>2021-01-16T13:38:57Z</time>
      </trkpt>
      <trkpt lat="45.32741" lon="6.0467">
        <ele>1433.6</ele>
        <time>2021-01-16T13:38:58Z</time>
      </trkpt>
      <trkpt lat="45.32741" lon="6.0467">
        <ele>1433.6</ele>
        <time>2021-01-16T13:38:59Z</time>
      </trkpt>
      <trkpt lat="45.32741" lon="6.0467">
        <ele>1433.6</ele>
        <time>2021-01-16T13:39:00Z</time>
      </trkpt>
      <trkpt lat="45.32741" lon="6.0467">
        <ele>1433.4</ele>
        <time>2021-01-16T13:39:01Z</time>
      </trkpt>
      <trkpt lat="45.32741" lon="6.0467">
        <ele>1433.4</ele>
        <time>2021-01-16T13:39:02Z</time>
      </trkpt>
      <trkpt lat="45.32741" lon="6.0467">
        <ele>1433.2</ele>
        <time>2021-01-16T13:39:03Z</time>
      </trkpt>
      <trkpt lat="45.32741" lon="6.0467">
        <ele>1433.6</ele>
        <time>2021-01-16T13:39:04Z</time>
      </trkpt>
      <trkpt lat="45.32741" lon="6.0467">
        <ele>1433.6</ele>
        <time>2021-01-16T13:39:05Z</time>
      </trkpt>
      <trkpt lat="45.32741" lon="6.0467">
        <ele>1433.6</ele>
        <time>2021-01-16T13:39:06Z</time>
      </trkpt>
      <trkpt lat="45.32741" lon="6.0467">
        <ele>1433.8</ele>
        <time>2021-01-16T13:39:07Z</time>
      </trkpt>
      <trkpt lat="45.32741" lon="6.0467">
        <ele>1433.8</ele>
        <time>2021-01-16T13:39:08Z</time>
      </trkpt>
      <trkpt lat="45.32741" lon="6.0467">
        <ele>1433.8</ele>
        <time>2021-01-16T13:39:09Z</time>
      </trkpt>
      <trkpt lat="45.32741" lon="6.0467">
        <ele>1433.8</ele>
        <time>2021-01-16T13:39:10Z</time>
      </trkpt>
      <trkpt lat="45.32741" lon="6.0467">
        <ele>1434</ele>
        <time>2021-01-16T13:39:11Z</time>
      </trkpt>
      <trkpt lat="45.32741" lon="6.0467">
        <ele>1434</ele>
        <time>2021-01-16T13:39:12Z</time>
      </trkpt>
    </trkseg>
  </trk>
</gpx>